<?xml version="1.0" encoding="UTF-8" standalone="no" ?><gpx xmlns="http://www.topografix.com/GPX/1/1" xmlns:gpxx="http://www.garmin.com/xmlschemas/GpxExtensions/v3" xmlns:wptx1="http://www.garmin.com/xmlschemas/WaypointExtension/v1" xmlns:gpxtpx="http://www.garmin.com/xmlschemas/TrackPointExtension/v1" creator="GuideVTT.com" version="1.1" xmlns:xsi="http://www.w3.org/2001/XMLSchema-instance" xsi:schemaLocation="http://www.topografix.com/GPX/1/1 http://www.topografix.com/GPX/1/1/gpx.xsd http://www.garmin.com/xmlschemas/GpxExtensions/v3 http://www8.garmin.com/xmlschemas/GpxExtensionsv3.xsd http://www.garmin.com/xmlschemas/WaypointExtension/v1 http://www8.garmin.com/xmlschemas/WaypointExtensionv1.xsd http://www.garmin.com/xmlschemas/TrackPointExtension/v1 http://www.garmin.com/xmlschemas/TrackPointExtensionv1.xsd">
<metadata><link href="http://www.garmin.com"><text>Garmin International</text></link><time>2013-06-22T15:13:50Z</time></metadata>
<trk><name>runtastic_20140918_1028_vtt.gpx</name><extensions><gpxx:TrackExtension><gpxx:DisplayColor>Cyan</gpxx:DisplayColor></gpxx:TrackExtension></extensions><trkseg>
<trkpt lat="46.3787651062011719" lon="7.6275315284729004"><ele></ele><time>2014-10-15T17:49:40Z</time></trkpt>
<trkpt lat="46.3788261413574219" lon="7.6275682449340820"><ele></ele><time>2014-10-15T17:49:43Z</time></trkpt>
<trkpt lat="46.3787841796875000" lon="7.6276006698608398"><ele></ele><time>2014-10-15T17:49:46Z</time></trkpt>
<trkpt lat="46.3787612915039062" lon="7.6275935173034668"><ele></ele><time>2014-10-15T17:49:49Z</time></trkpt>
<trkpt lat="46.3786392211914062" lon="7.6275086402893066"><ele></ele><time>2014-10-15T17:49:52Z</time></trkpt>
<trkpt lat="46.3786163330078125" lon="7.6274843215942383"><ele></ele><time>2014-10-15T17:49:55Z</time></trkpt>
<trkpt lat="46.3786010742187500" lon="7.6274428367614746"><ele></ele><time>2014-10-15T17:49:58Z</time></trkpt>
<trkpt lat="46.3785896301269531" lon="7.6274352073669434"><ele></ele><time>2014-10-15T17:50:1Z</time></trkpt>
<trkpt lat="46.3786048889160156" lon="7.6273536682128906"><ele></ele><time>2014-10-15T17:50:4Z</time></trkpt>
<trkpt lat="46.3786392211914062" lon="7.6272702217102051"><ele></ele><time>2014-10-15T17:50:7Z</time></trkpt>
<trkpt lat="46.3786659240722656" lon="7.6271834373474121"><ele></ele><time>2014-10-15T17:50:10Z</time></trkpt>
<trkpt lat="46.3786773681640625" lon="7.6271471977233887"><ele></ele><time>2014-10-15T17:50:13Z</time></trkpt>
<trkpt lat="46.3786773681640625" lon="7.6271338462829590"><ele></ele><time>2014-10-15T17:50:16Z</time></trkpt>
<trkpt lat="46.3786735534667969" lon="7.6271190643310547"><ele></ele><time>2014-10-15T17:50:19Z</time></trkpt>
<trkpt lat="46.3786697387695312" lon="7.6271018981933594"><ele></ele><time>2014-10-15T17:50:22Z</time></trkpt>
<trkpt lat="46.3787460327148438" lon="7.6268863677978516"><ele></ele><time>2014-10-15T17:50:25Z</time></trkpt>
<trkpt lat="46.3787689208984375" lon="7.6267809867858887"><ele></ele><time>2014-10-15T17:50:28Z</time></trkpt>
<trkpt lat="46.3787460327148438" lon="7.6266832351684570"><ele></ele><time>2014-10-15T17:50:31Z</time></trkpt>
<trkpt lat="46.3786621093750000" lon="7.6265687942504883"><ele></ele><time>2014-10-15T17:50:34Z</time></trkpt>
<trkpt lat="46.3785362243652344" lon="7.6264858245849609"><ele></ele><time>2014-10-15T17:50:37Z</time></trkpt>
<trkpt lat="46.3783988952636719" lon="7.6264204978942871"><ele></ele><time>2014-10-15T17:50:40Z</time></trkpt>
<trkpt lat="46.3781623840332031" lon="7.6263089179992676"><ele></ele><time>2014-10-15T17:50:43Z</time></trkpt>
<trkpt lat="46.3780403137207031" lon="7.6261816024780273"><ele></ele><time>2014-10-15T17:50:46Z</time></trkpt>
<trkpt lat="46.3778800964355469" lon="7.6261034011840820"><ele></ele><time>2014-10-15T17:50:49Z</time></trkpt>
<trkpt lat="46.3777351379394531" lon="7.6260223388671875"><ele></ele><time>2014-10-15T17:50:52Z</time></trkpt>
<trkpt lat="46.3774871826171875" lon="7.6259140968322754"><ele></ele><time>2014-10-15T17:50:55Z</time></trkpt>
<trkpt lat="46.3773345947265625" lon="7.6259217262268066"><ele></ele><time>2014-10-15T17:50:58Z</time></trkpt>
<trkpt lat="46.3770866394042969" lon="7.6261491775512695"><ele></ele><time>2014-10-15T17:51:1Z</time></trkpt>
<trkpt lat="46.3767814636230469" lon="7.6263651847839355"><ele></ele><time>2014-10-15T17:51:4Z</time></trkpt>
<trkpt lat="46.3764648437500000" lon="7.6265902519226074"><ele></ele><time>2014-10-15T17:51:7Z</time></trkpt>
<trkpt lat="46.3762588500976562" lon="7.6267457008361816"><ele></ele><time>2014-10-15T17:51:10Z</time></trkpt>
<trkpt lat="46.3760604858398438" lon="7.6269402503967285"><ele></ele><time>2014-10-15T17:51:13Z</time></trkpt>
<trkpt lat="46.3757553100585938" lon="7.6272516250610352"><ele></ele><time>2014-10-15T17:51:16Z</time></trkpt>
<trkpt lat="46.3755569458007812" lon="7.6273579597473145"><ele></ele><time>2014-10-15T17:51:19Z</time></trkpt>
<trkpt lat="46.3753242492675781" lon="7.6272845268249512"><ele></ele><time>2014-10-15T17:51:22Z</time></trkpt>
<trkpt lat="46.3752975463867188" lon="7.6269426345825195"><ele></ele><time>2014-10-15T17:51:25Z</time></trkpt>
<trkpt lat="46.3757247924804688" lon="7.6265845298767090"><ele></ele><time>2014-10-15T17:51:28Z</time></trkpt>
<trkpt lat="46.3758354187011719" lon="7.6264033317565918"><ele></ele><time>2014-10-15T17:51:31Z</time></trkpt>
<trkpt lat="46.3760032653808594" lon="7.6261787414550781"><ele></ele><time>2014-10-15T17:51:34Z</time></trkpt>
<trkpt lat="46.3761329650878906" lon="7.6259384155273438"><ele></ele><time>2014-10-15T17:51:37Z</time></trkpt>
<trkpt lat="46.3762092590332031" lon="7.6257910728454590"><ele></ele><time>2014-10-15T17:51:40Z</time></trkpt>
<trkpt lat="46.3762855529785156" lon="7.6256875991821289"><ele></ele><time>2014-10-15T17:51:43Z</time></trkpt>
<trkpt lat="46.3763694763183594" lon="7.6255488395690918"><ele></ele><time>2014-10-15T17:51:46Z</time></trkpt>
<trkpt lat="46.3763923645019531" lon="7.6254339218139648"><ele></ele><time>2014-10-15T17:51:49Z</time></trkpt>
<trkpt lat="46.3763999938964844" lon="7.6252717971801758"><ele></ele><time>2014-10-15T17:51:52Z</time></trkpt>
<trkpt lat="46.3762931823730469" lon="7.6251821517944336"><ele></ele><time>2014-10-15T17:51:55Z</time></trkpt>
<trkpt lat="46.3761329650878906" lon="7.6252584457397461"><ele></ele><time>2014-10-15T17:51:58Z</time></trkpt>
<trkpt lat="46.3758773803710938" lon="7.6253061294555664"><ele></ele><time>2014-10-15T17:52:1Z</time></trkpt>
<trkpt lat="46.3757133483886719" lon="7.6252946853637695"><ele></ele><time>2014-10-15T17:52:4Z</time></trkpt>
<trkpt lat="46.3754959106445312" lon="7.6252388954162598"><ele></ele><time>2014-10-15T17:52:7Z</time></trkpt>
<trkpt lat="46.3751983642578125" lon="7.6250557899475098"><ele></ele><time>2014-10-15T17:52:10Z</time></trkpt>
<trkpt lat="46.3750076293945312" lon="7.6248855590820312"><ele></ele><time>2014-10-15T17:52:13Z</time></trkpt>
<trkpt lat="46.3748245239257812" lon="7.6246986389160156"><ele></ele><time>2014-10-15T17:52:16Z</time></trkpt>
<trkpt lat="46.3747406005859375" lon="7.6245741844177246"><ele></ele><time>2014-10-15T17:52:19Z</time></trkpt>
<trkpt lat="46.3744316101074219" lon="7.6247239112854004"><ele></ele><time>2014-10-15T17:52:22Z</time></trkpt>
<trkpt lat="46.3743133544921875" lon="7.6248764991760254"><ele></ele><time>2014-10-15T17:52:25Z</time></trkpt>
<trkpt lat="46.3741416931152344" lon="7.6251096725463867"><ele></ele><time>2014-10-15T17:52:28Z</time></trkpt>
<trkpt lat="46.3740615844726562" lon="7.6252503395080566"><ele></ele><time>2014-10-15T17:52:31Z</time></trkpt>
<trkpt lat="46.3739624023437500" lon="7.6254200935363770"><ele></ele><time>2014-10-15T17:52:34Z</time></trkpt>
<trkpt lat="46.3738784790039062" lon="7.6255283355712891"><ele></ele><time>2014-10-15T17:52:37Z</time></trkpt>
<trkpt lat="46.3737144470214844" lon="7.6256427764892578"><ele></ele><time>2014-10-15T17:52:40Z</time></trkpt>
<trkpt lat="46.3734970092773438" lon="7.6256752014160156"><ele></ele><time>2014-10-15T17:52:43Z</time></trkpt>
<trkpt lat="46.3733673095703125" lon="7.6256933212280273"><ele></ele><time>2014-10-15T17:52:46Z</time></trkpt>
<trkpt lat="46.3732299804687500" lon="7.6257300376892090"><ele></ele><time>2014-10-15T17:52:49Z</time></trkpt>
<trkpt lat="46.3730506896972656" lon="7.6257882118225098"><ele></ele><time>2014-10-15T17:52:52Z</time></trkpt>
<trkpt lat="46.3729362487792969" lon="7.6258549690246582"><ele></ele><time>2014-10-15T17:52:55Z</time></trkpt>
<trkpt lat="46.3727264404296875" lon="7.6259193420410156"><ele></ele><time>2014-10-15T17:52:58Z</time></trkpt>
<trkpt lat="46.3725891113281250" lon="7.6259303092956543"><ele></ele><time>2014-10-15T17:53:1Z</time></trkpt>
<trkpt lat="46.3723220825195312" lon="7.6258664131164551"><ele></ele><time>2014-10-15T17:53:4Z</time></trkpt>
<trkpt lat="46.3721618652343750" lon="7.6257896423339844"><ele></ele><time>2014-10-15T17:53:7Z</time></trkpt>
<trkpt lat="46.3719406127929688" lon="7.6256985664367676"><ele></ele><time>2014-10-15T17:53:10Z</time></trkpt>
<trkpt lat="46.3717575073242188" lon="7.6256389617919922"><ele></ele><time>2014-10-15T17:53:13Z</time></trkpt>
<trkpt lat="46.3715896606445312" lon="7.6255478858947754"><ele></ele><time>2014-10-15T17:53:16Z</time></trkpt>
<trkpt lat="46.3714141845703125" lon="7.6254744529724121"><ele></ele><time>2014-10-15T17:53:19Z</time></trkpt>
<trkpt lat="46.3711509704589844" lon="7.6253366470336914"><ele></ele><time>2014-10-15T17:53:22Z</time></trkpt>
<trkpt lat="46.3709678649902344" lon="7.6252632141113281"><ele></ele><time>2014-10-15T17:53:25Z</time></trkpt>
<trkpt lat="46.3707962036132812" lon="7.6251878738403320"><ele></ele><time>2014-10-15T17:53:28Z</time></trkpt>
<trkpt lat="46.3705329895019531" lon="7.6250615119934082"><ele></ele><time>2014-10-15T17:53:31Z</time></trkpt>
<trkpt lat="46.3702888488769531" lon="7.6249489784240723"><ele></ele><time>2014-10-15T17:53:34Z</time></trkpt>
<trkpt lat="46.3701400756835938" lon="7.6248755455017090"><ele></ele><time>2014-10-15T17:53:37Z</time></trkpt>
<trkpt lat="46.3700103759765625" lon="7.6248393058776855"><ele></ele><time>2014-10-15T17:53:40Z</time></trkpt>
<trkpt lat="46.3695945739746094" lon="7.6246423721313477"><ele></ele><time>2014-10-15T17:53:43Z</time></trkpt>
<trkpt lat="46.3693733215332031" lon="7.6246385574340820"><ele></ele><time>2014-10-15T17:53:46Z</time></trkpt>
<trkpt lat="46.3692550659179688" lon="7.6247286796569824"><ele></ele><time>2014-10-15T17:53:49Z</time></trkpt>
<trkpt lat="46.3691101074218750" lon="7.6247744560241699"><ele></ele><time>2014-10-15T17:53:52Z</time></trkpt>
<trkpt lat="46.3688468933105469" lon="7.6248826980590820"><ele></ele><time>2014-10-15T17:53:55Z</time></trkpt>
<trkpt lat="46.3687171936035156" lon="7.6248774528503418"><ele></ele><time>2014-10-15T17:53:58Z</time></trkpt>
<trkpt lat="46.3685531616210938" lon="7.6248106956481934"><ele></ele><time>2014-10-15T17:54:1Z</time></trkpt>
<trkpt lat="46.3684616088867188" lon="7.6247396469116211"><ele></ele><time>2014-10-15T17:54:4Z</time></trkpt>
<trkpt lat="46.3683319091796875" lon="7.6246361732482910"><ele></ele><time>2014-10-15T17:54:7Z</time></trkpt>
<trkpt lat="46.3682365417480469" lon="7.6245594024658203"><ele></ele><time>2014-10-15T17:54:10Z</time></trkpt>
<trkpt lat="46.3681411743164062" lon="7.6244840621948242"><ele></ele><time>2014-10-15T17:54:13Z</time></trkpt>
<trkpt lat="46.3680610656738281" lon="7.6244192123413086"><ele></ele><time>2014-10-15T17:54:16Z</time></trkpt>
<trkpt lat="46.3680038452148438" lon="7.6243710517883301"><ele></ele><time>2014-10-15T17:54:19Z</time></trkpt>
<trkpt lat="46.3679199218750000" lon="7.6243033409118652"><ele></ele><time>2014-10-15T17:54:22Z</time></trkpt>
<trkpt lat="46.3678588867187500" lon="7.6242547035217285"><ele></ele><time>2014-10-15T17:54:25Z</time></trkpt>
<trkpt lat="46.3678054809570312" lon="7.6242127418518066"><ele></ele><time>2014-10-15T17:54:28Z</time></trkpt>
<trkpt lat="46.3677482604980469" lon="7.6241660118103027"><ele></ele><time>2014-10-15T17:54:31Z</time></trkpt>
<trkpt lat="46.3676910400390625" lon="7.6241197586059570"><ele></ele><time>2014-10-15T17:54:34Z</time></trkpt>
<trkpt lat="46.3676147460937500" lon="7.6240577697753906"><ele></ele><time>2014-10-15T17:54:37Z</time></trkpt>
<trkpt lat="46.3675155639648438" lon="7.6239795684814453"><ele></ele><time>2014-10-15T17:54:40Z</time></trkpt>
<trkpt lat="46.3674278259277344" lon="7.6239166259765625"><ele></ele><time>2014-10-15T17:54:43Z</time></trkpt>
<trkpt lat="46.3673706054687500" lon="7.6238746643066406"><ele></ele><time>2014-10-15T17:54:46Z</time></trkpt>
<trkpt lat="46.3673019409179688" lon="7.6238284111022949"><ele></ele><time>2014-10-15T17:54:49Z</time></trkpt>
<trkpt lat="46.3672637939453125" lon="7.6238036155700684"><ele></ele><time>2014-10-15T17:54:52Z</time></trkpt>
<trkpt lat="46.3671684265136719" lon="7.6237459182739258"><ele></ele><time>2014-10-15T17:54:55Z</time></trkpt>
<trkpt lat="46.3671417236328125" lon="7.6237320899963379"><ele></ele><time>2014-10-15T17:54:58Z</time></trkpt>
<trkpt lat="46.3671035766601562" lon="7.6237182617187500"><ele></ele><time>2014-10-15T17:55:1Z</time></trkpt>
<trkpt lat="46.3670310974121094" lon="7.6236953735351562"><ele></ele><time>2014-10-15T17:55:4Z</time></trkpt>
<trkpt lat="46.3669776916503906" lon="7.6236834526062012"><ele></ele><time>2014-10-15T17:55:7Z</time></trkpt>
<trkpt lat="46.3669242858886719" lon="7.6236734390258789"><ele></ele><time>2014-10-15T17:55:10Z</time></trkpt>
<trkpt lat="46.3668708801269531" lon="7.6236653327941895"><ele></ele><time>2014-10-15T17:55:13Z</time></trkpt>
<trkpt lat="46.3668022155761719" lon="7.6236543655395508"><ele></ele><time>2014-10-15T17:55:16Z</time></trkpt>
<trkpt lat="46.3667488098144531" lon="7.6236457824707031"><ele></ele><time>2014-10-15T17:55:19Z</time></trkpt>
<trkpt lat="46.3666839599609375" lon="7.6236357688903809"><ele></ele><time>2014-10-15T17:55:22Z</time></trkpt>
<trkpt lat="46.3666381835937500" lon="7.6236286163330078"><ele></ele><time>2014-10-15T17:55:25Z</time></trkpt>
<trkpt lat="46.3665657043457031" lon="7.6236166954040527"><ele></ele><time>2014-10-15T17:55:28Z</time></trkpt>
<trkpt lat="46.3664932250976562" lon="7.6236057281494141"><ele></ele><time>2014-10-15T17:55:31Z</time></trkpt>
<trkpt lat="46.3664283752441406" lon="7.6235938072204590"><ele></ele><time>2014-10-15T17:55:34Z</time></trkpt>
<trkpt lat="46.3663825988769531" lon="7.6235857009887695"><ele></ele><time>2014-10-15T17:55:37Z</time></trkpt>
<trkpt lat="46.3663406372070312" lon="7.6235780715942383"><ele></ele><time>2014-10-15T17:55:40Z</time></trkpt>
<trkpt lat="46.3662986755371094" lon="7.6235780715942383"><ele></ele><time>2014-10-15T17:55:43Z</time></trkpt>
<trkpt lat="46.3662338256835938" lon="7.6235885620117188"><ele></ele><time>2014-10-15T17:55:46Z</time></trkpt>
<trkpt lat="46.3661651611328125" lon="7.6235866546630859"><ele></ele><time>2014-10-15T17:55:49Z</time></trkpt>
<trkpt lat="46.3661003112792969" lon="7.6235761642456055"><ele></ele><time>2014-10-15T17:55:52Z</time></trkpt>
<trkpt lat="46.3660507202148438" lon="7.6235699653625488"><ele></ele><time>2014-10-15T17:55:55Z</time></trkpt>
<trkpt lat="46.3660049438476562" lon="7.6235699653625488"><ele></ele><time>2014-10-15T17:55:58Z</time></trkpt>
<trkpt lat="46.3659324645996094" lon="7.6235566139221191"><ele></ele><time>2014-10-15T17:56:1Z</time></trkpt>
<trkpt lat="46.3658638000488281" lon="7.6235532760620117"><ele></ele><time>2014-10-15T17:56:4Z</time></trkpt>
<trkpt lat="46.3658142089843750" lon="7.6235504150390625"><ele></ele><time>2014-10-15T17:56:7Z</time></trkpt>
<trkpt lat="46.3657417297363281" lon="7.6235370635986328"><ele></ele><time>2014-10-15T17:56:10Z</time></trkpt>
<trkpt lat="46.3656921386718750" lon="7.6235232353210449"><ele></ele><time>2014-10-15T17:56:13Z</time></trkpt>
<trkpt lat="46.3656425476074219" lon="7.6235103607177734"><ele></ele><time>2014-10-15T17:56:16Z</time></trkpt>
<trkpt lat="46.3655815124511719" lon="7.6234855651855469"><ele></ele><time>2014-10-15T17:56:19Z</time></trkpt>
<trkpt lat="46.3655395507812500" lon="7.6234669685363770"><ele></ele><time>2014-10-15T17:56:22Z</time></trkpt>
<trkpt lat="46.3654937744140625" lon="7.6234350204467773"><ele></ele><time>2014-10-15T17:56:25Z</time></trkpt>
<trkpt lat="46.3654479980468750" lon="7.6233935356140137"><ele></ele><time>2014-10-15T17:56:28Z</time></trkpt>
<trkpt lat="46.3653678894042969" lon="7.6233406066894531"><ele></ele><time>2014-10-15T17:56:31Z</time></trkpt>
<trkpt lat="46.3652839660644531" lon="7.6232995986938477"><ele></ele><time>2014-10-15T17:56:34Z</time></trkpt>
<trkpt lat="46.3651962280273438" lon="7.6232638359069824"><ele></ele><time>2014-10-15T17:56:37Z</time></trkpt>
<trkpt lat="46.3651351928710938" lon="7.6232337951660156"><ele></ele><time>2014-10-15T17:56:40Z</time></trkpt>
<trkpt lat="46.3650779724121094" lon="7.6232066154479980"><ele></ele><time>2014-10-15T17:56:43Z</time></trkpt>
<trkpt lat="46.3650054931640625" lon="7.6231741905212402"><ele></ele><time>2014-10-15T17:56:46Z</time></trkpt>
<trkpt lat="46.3649177551269531" lon="7.6231427192687988"><ele></ele><time>2014-10-15T17:56:49Z</time></trkpt>
<trkpt lat="46.3648643493652344" lon="7.6231174468994141"><ele></ele><time>2014-10-15T17:56:52Z</time></trkpt>
<trkpt lat="46.3648109436035156" lon="7.6230950355529785"><ele></ele><time>2014-10-15T17:56:55Z</time></trkpt>
<trkpt lat="46.3647346496582031" lon="7.6230740547180176"><ele></ele><time>2014-10-15T17:56:58Z</time></trkpt>
<trkpt lat="46.3646850585937500" lon="7.6230607032775879"><ele></ele><time>2014-10-15T17:57:1Z</time></trkpt>
<trkpt lat="46.3646354675292969" lon="7.6230468750000000"><ele></ele><time>2014-10-15T17:57:4Z</time></trkpt>
<trkpt lat="46.3645935058593750" lon="7.6230254173278809"><ele></ele><time>2014-10-15T17:57:7Z</time></trkpt>
<trkpt lat="46.3645172119140625" lon="7.6229901313781738"><ele></ele><time>2014-10-15T17:57:10Z</time></trkpt>
<trkpt lat="46.3644676208496094" lon="7.6229629516601562"><ele></ele><time>2014-10-15T17:57:13Z</time></trkpt>
<trkpt lat="46.3644256591796875" lon="7.6229248046875000"><ele></ele><time>2014-10-15T17:57:16Z</time></trkpt>
<trkpt lat="46.3643569946289062" lon="7.6228752136230469"><ele></ele><time>2014-10-15T17:57:19Z</time></trkpt>
<trkpt lat="46.3643112182617188" lon="7.6228404045104980"><ele></ele><time>2014-10-15T17:57:22Z</time></trkpt>
<trkpt lat="46.3642616271972656" lon="7.6228027343750000"><ele></ele><time>2014-10-15T17:57:25Z</time></trkpt>
<trkpt lat="46.3642120361328125" lon="7.6227769851684570"><ele></ele><time>2014-10-15T17:57:28Z</time></trkpt>
<trkpt lat="46.3641357421875000" lon="7.6227345466613770"><ele></ele><time>2014-10-15T17:57:31Z</time></trkpt>
<trkpt lat="46.3640632629394531" lon="7.6226925849914551"><ele></ele><time>2014-10-15T17:57:34Z</time></trkpt>
<trkpt lat="46.3639869689941406" lon="7.6226568222045898"><ele></ele><time>2014-10-15T17:57:37Z</time></trkpt>
<trkpt lat="46.3639335632324219" lon="7.6226353645324707"><ele></ele><time>2014-10-15T17:57:40Z</time></trkpt>
<trkpt lat="46.3638420104980469" lon="7.6226072311401367"><ele></ele><time>2014-10-15T17:57:43Z</time></trkpt>
<trkpt lat="46.3637428283691406" lon="7.6225767135620117"><ele></ele><time>2014-10-15T17:57:46Z</time></trkpt>
<trkpt lat="46.3636627197265625" lon="7.6225538253784180"><ele></ele><time>2014-10-15T17:57:49Z</time></trkpt>
<trkpt lat="46.3636169433593750" lon="7.6225447654724121"><ele></ele><time>2014-10-15T17:57:52Z</time></trkpt>
<trkpt lat="46.3635635375976562" lon="7.6225495338439941"><ele></ele><time>2014-10-15T17:57:55Z</time></trkpt>
<trkpt lat="46.3635025024414062" lon="7.6225361824035645"><ele></ele><time>2014-10-15T17:57:58Z</time></trkpt>
<trkpt lat="46.3634262084960938" lon="7.6225185394287109"><ele></ele><time>2014-10-15T17:58:1Z</time></trkpt>
<trkpt lat="46.3633499145507812" lon="7.6224942207336426"><ele></ele><time>2014-10-15T17:58:4Z</time></trkpt>
<trkpt lat="46.3632698059082031" lon="7.6224589347839355"><ele></ele><time>2014-10-15T17:58:7Z</time></trkpt>
<trkpt lat="46.3632125854492188" lon="7.6224403381347656"><ele></ele><time>2014-10-15T17:58:10Z</time></trkpt>
<trkpt lat="46.3631286621093750" lon="7.6224193572998047"><ele></ele><time>2014-10-15T17:58:13Z</time></trkpt>
<trkpt lat="46.3630447387695312" lon="7.6223921775817871"><ele></ele><time>2014-10-15T17:58:16Z</time></trkpt>
<trkpt lat="46.3629570007324219" lon="7.6223716735839844"><ele></ele><time>2014-10-15T17:58:19Z</time></trkpt>
<trkpt lat="46.3628997802734375" lon="7.6223559379577637"><ele></ele><time>2014-10-15T17:58:22Z</time></trkpt>
<trkpt lat="46.3628234863281250" lon="7.6223220825195312"><ele></ele><time>2014-10-15T17:58:25Z</time></trkpt>
<trkpt lat="46.3627738952636719" lon="7.6223139762878418"><ele></ele><time>2014-10-15T17:58:28Z</time></trkpt>
<trkpt lat="46.3626861572265625" lon="7.6223073005676270"><ele></ele><time>2014-10-15T17:58:31Z</time></trkpt>
<trkpt lat="46.3626365661621094" lon="7.6223087310791016"><ele></ele><time>2014-10-15T17:58:34Z</time></trkpt>
<trkpt lat="46.3625869750976562" lon="7.6223115921020508"><ele></ele><time>2014-10-15T17:58:37Z</time></trkpt>
<trkpt lat="46.3625450134277344" lon="7.6223149299621582"><ele></ele><time>2014-10-15T17:58:40Z</time></trkpt>
<trkpt lat="46.3624877929687500" lon="7.6223154067993164"><ele></ele><time>2014-10-15T17:58:43Z</time></trkpt>
<trkpt lat="46.3624534606933594" lon="7.6223044395446777"><ele></ele><time>2014-10-15T17:58:46Z</time></trkpt>
<trkpt lat="46.3624229431152344" lon="7.6222867965698242"><ele></ele><time>2014-10-15T17:58:49Z</time></trkpt>
<trkpt lat="46.3623809814453125" lon="7.6222577095031738"><ele></ele><time>2014-10-15T17:58:52Z</time></trkpt>
<trkpt lat="46.3623542785644531" lon="7.6222286224365234"><ele></ele><time>2014-10-15T17:58:55Z</time></trkpt>
<trkpt lat="46.3623237609863281" lon="7.6221914291381836"><ele></ele><time>2014-10-15T17:58:58Z</time></trkpt>
<trkpt lat="46.3623085021972656" lon="7.6221618652343750"><ele></ele><time>2014-10-15T17:59:1Z</time></trkpt>
<trkpt lat="46.3622856140136719" lon="7.6221132278442383"><ele></ele><time>2014-10-15T17:59:4Z</time></trkpt>
<trkpt lat="46.3622474670410156" lon="7.6220555305480957"><ele></ele><time>2014-10-15T17:59:7Z</time></trkpt>
<trkpt lat="46.3621902465820312" lon="7.6219873428344727"><ele></ele><time>2014-10-15T17:59:10Z</time></trkpt>
<trkpt lat="46.3621559143066406" lon="7.6219363212585449"><ele></ele><time>2014-10-15T17:59:13Z</time></trkpt>
<trkpt lat="46.3621406555175781" lon="7.6219224929809570"><ele></ele><time>2014-10-15T17:59:16Z</time></trkpt>
<trkpt lat="46.3621177673339844" lon="7.6218924522399902"><ele></ele><time>2014-10-15T17:59:19Z</time></trkpt>
<trkpt lat="46.3620567321777344" lon="7.6218423843383789"><ele></ele><time>2014-10-15T17:59:22Z</time></trkpt>
<trkpt lat="46.3619842529296875" lon="7.6217899322509766"><ele></ele><time>2014-10-15T17:59:25Z</time></trkpt>
<trkpt lat="46.3618774414062500" lon="7.6216902732849121"><ele></ele><time>2014-10-15T17:59:28Z</time></trkpt>
<trkpt lat="46.3617782592773438" lon="7.6215958595275879"><ele></ele><time>2014-10-15T17:59:31Z</time></trkpt>
<trkpt lat="46.3617477416992188" lon="7.6215023994445801"><ele></ele><time>2014-10-15T17:59:34Z</time></trkpt>
<trkpt lat="46.3617248535156250" lon="7.6214442253112793"><ele></ele><time>2014-10-15T17:59:37Z</time></trkpt>
<trkpt lat="46.3616333007812500" lon="7.6214241981506348"><ele></ele><time>2014-10-15T17:59:40Z</time></trkpt>
<trkpt lat="46.3615646362304688" lon="7.6214399337768555"><ele></ele><time>2014-10-15T17:59:43Z</time></trkpt>
<trkpt lat="46.3614654541015625" lon="7.6214761734008789"><ele></ele><time>2014-10-15T17:59:46Z</time></trkpt>
<trkpt lat="46.3614044189453125" lon="7.6215047836303711"><ele></ele><time>2014-10-15T17:59:49Z</time></trkpt>
<trkpt lat="46.3614044189453125" lon="7.6215047836303711"><ele></ele><time>2014-10-15T17:59:52Z</time></trkpt>
<trkpt lat="46.3597869873046875" lon="7.6190319061279297"><ele></ele><time>2014-10-15T17:59:55Z</time></trkpt>
<trkpt lat="46.3596572875976562" lon="7.6189265251159668"><ele></ele><time>2014-10-15T17:59:58Z</time></trkpt>
<trkpt lat="46.3596000671386719" lon="7.6188988685607910"><ele></ele><time>2014-10-15T18:0:1Z</time></trkpt>
<trkpt lat="46.3595161437988281" lon="7.6188879013061523"><ele></ele><time>2014-10-15T18:0:4Z</time></trkpt>
<trkpt lat="46.3594322204589844" lon="7.6188902854919434"><ele></ele><time>2014-10-15T18:0:7Z</time></trkpt>
<trkpt lat="46.3593635559082031" lon="7.6189093589782715"><ele></ele><time>2014-10-15T18:0:10Z</time></trkpt>
<trkpt lat="46.3592910766601562" lon="7.6189374923706055"><ele></ele><time>2014-10-15T18:0:13Z</time></trkpt>
<trkpt lat="46.3592414855957031" lon="7.6189551353454590"><ele></ele><time>2014-10-15T18:0:16Z</time></trkpt>
<trkpt lat="46.3591651916503906" lon="7.6189870834350586"><ele></ele><time>2014-10-15T18:0:19Z</time></trkpt>
<trkpt lat="46.3590965270996094" lon="7.6190443038940430"><ele></ele><time>2014-10-15T18:0:22Z</time></trkpt>
<trkpt lat="46.3590507507324219" lon="7.6190886497497559"><ele></ele><time>2014-10-15T18:0:25Z</time></trkpt>
<trkpt lat="46.3589935302734375" lon="7.6191701889038086"><ele></ele><time>2014-10-15T18:0:28Z</time></trkpt>
<trkpt lat="46.3589363098144531" lon="7.6192483901977539"><ele></ele><time>2014-10-15T18:0:31Z</time></trkpt>
<trkpt lat="46.3588981628417969" lon="7.6193013191223145"><ele></ele><time>2014-10-15T18:0:34Z</time></trkpt>
<trkpt lat="46.3588600158691406" lon="7.6193571090698242"><ele></ele><time>2014-10-15T18:0:37Z</time></trkpt>
<trkpt lat="46.3588218688964844" lon="7.6194157600402832"><ele></ele><time>2014-10-15T18:0:40Z</time></trkpt>
<trkpt lat="46.3587837219238281" lon="7.6194744110107422"><ele></ele><time>2014-10-15T18:0:43Z</time></trkpt>
<trkpt lat="46.3587226867675781" lon="7.6195564270019531"><ele></ele><time>2014-10-15T18:0:46Z</time></trkpt>
<trkpt lat="46.3586921691894531" lon="7.6195993423461914"><ele></ele><time>2014-10-15T18:0:49Z</time></trkpt>
<trkpt lat="46.3586540222167969" lon="7.6196475028991699"><ele></ele><time>2014-10-15T18:0:52Z</time></trkpt>
<trkpt lat="46.3586196899414062" lon="7.6196684837341309"><ele></ele><time>2014-10-15T18:0:55Z</time></trkpt>
<trkpt lat="46.3585853576660156" lon="7.6196928024291992"><ele></ele><time>2014-10-15T18:0:58Z</time></trkpt>
<trkpt lat="46.3585319519042969" lon="7.6197361946105957"><ele></ele><time>2014-10-15T18:1:1Z</time></trkpt>
<trkpt lat="46.3584747314453125" lon="7.6197776794433594"><ele></ele><time>2014-10-15T18:1:4Z</time></trkpt>
<trkpt lat="46.3584175109863281" lon="7.6198196411132812"><ele></ele><time>2014-10-15T18:1:7Z</time></trkpt>
<trkpt lat="46.3583793640136719" lon="7.6198310852050781"><ele></ele><time>2014-10-15T18:1:10Z</time></trkpt>
<trkpt lat="46.3583374023437500" lon="7.6198515892028809"><ele></ele><time>2014-10-15T18:1:13Z</time></trkpt>
<trkpt lat="46.3582687377929688" lon="7.6198749542236328"><ele></ele><time>2014-10-15T18:1:16Z</time></trkpt>
<trkpt lat="46.3582267761230469" lon="7.6199016571044922"><ele></ele><time>2014-10-15T18:1:19Z</time></trkpt>
<trkpt lat="46.3581619262695312" lon="7.6199512481689453"><ele></ele><time>2014-10-15T18:1:22Z</time></trkpt>
<trkpt lat="46.3581199645996094" lon="7.6199774742126465"><ele></ele><time>2014-10-15T18:1:25Z</time></trkpt>
<trkpt lat="46.3580474853515625" lon="7.6200113296508789"><ele></ele><time>2014-10-15T18:1:28Z</time></trkpt>
<trkpt lat="46.3579673767089844" lon="7.6200327873229980"><ele></ele><time>2014-10-15T18:1:31Z</time></trkpt>
<trkpt lat="46.3579177856445312" lon="7.6200542449951172"><ele></ele><time>2014-10-15T18:1:34Z</time></trkpt>
<trkpt lat="46.3578300476074219" lon="7.6200838088989258"><ele></ele><time>2014-10-15T18:1:37Z</time></trkpt>
<trkpt lat="46.3577728271484375" lon="7.6200942993164062"><ele></ele><time>2014-10-15T18:1:40Z</time></trkpt>
<trkpt lat="46.3576927185058594" lon="7.6201171875000000"><ele></ele><time>2014-10-15T18:1:43Z</time></trkpt>
<trkpt lat="46.3576316833496094" lon="7.6201763153076172"><ele></ele><time>2014-10-15T18:1:46Z</time></trkpt>
<trkpt lat="46.3576278686523438" lon="7.6202468872070312"><ele></ele><time>2014-10-15T18:1:49Z</time></trkpt>
<trkpt lat="46.3576545715332031" lon="7.6203017234802246"><ele></ele><time>2014-10-15T18:1:52Z</time></trkpt>
<trkpt lat="46.3577003479003906" lon="7.6203141212463379"><ele></ele><time>2014-10-15T18:1:55Z</time></trkpt>
<trkpt lat="46.3577842712402344" lon="7.6202883720397949"><ele></ele><time>2014-10-15T18:1:58Z</time></trkpt>
<trkpt lat="46.3578376770019531" lon="7.6202731132507324"><ele></ele><time>2014-10-15T18:2:1Z</time></trkpt>
<trkpt lat="46.3578910827636719" lon="7.6202578544616699"><ele></ele><time>2014-10-15T18:2:4Z</time></trkpt>
<trkpt lat="46.3579673767089844" lon="7.6202373504638672"><ele></ele><time>2014-10-15T18:2:7Z</time></trkpt>
<trkpt lat="46.3580207824707031" lon="7.6202254295349121"><ele></ele><time>2014-10-15T18:2:10Z</time></trkpt>
<trkpt lat="46.3580665588378906" lon="7.6202135086059570"><ele></ele><time>2014-10-15T18:2:13Z</time></trkpt>
<trkpt lat="46.3581161499023438" lon="7.6202130317687988"><ele></ele><time>2014-10-15T18:2:16Z</time></trkpt>
<trkpt lat="46.3581657409667969" lon="7.6202206611633301"><ele></ele><time>2014-10-15T18:2:19Z</time></trkpt>
<trkpt lat="46.3582420349121094" lon="7.6202182769775391"><ele></ele><time>2014-10-15T18:2:22Z</time></trkpt>
<trkpt lat="46.3582916259765625" lon="7.6202149391174316"><ele></ele><time>2014-10-15T18:2:25Z</time></trkpt>
<trkpt lat="46.3583564758300781" lon="7.6201915740966797"><ele></ele><time>2014-10-15T18:2:28Z</time></trkpt>
<trkpt lat="46.3584060668945312" lon="7.6201782226562500"><ele></ele><time>2014-10-15T18:2:31Z</time></trkpt>
<trkpt lat="46.3584785461425781" lon="7.6201434135437012"><ele></ele><time>2014-10-15T18:2:34Z</time></trkpt>
<trkpt lat="46.3585205078125000" lon="7.6201186180114746"><ele></ele><time>2014-10-15T18:2:37Z</time></trkpt>
<trkpt lat="46.3585929870605469" lon="7.6201076507568359"><ele></ele><time>2014-10-15T18:2:40Z</time></trkpt>
<trkpt lat="46.3586349487304688" lon="7.6201229095458984"><ele></ele><time>2014-10-15T18:2:43Z</time></trkpt>
<trkpt lat="46.3586845397949219" lon="7.6200795173645020"><ele></ele><time>2014-10-15T18:2:46Z</time></trkpt>
<trkpt lat="46.3587608337402344" lon="7.6200780868530273"><ele></ele><time>2014-10-15T18:2:49Z</time></trkpt>
<trkpt lat="46.3588333129882812" lon="7.6200852394104004"><ele></ele><time>2014-10-15T18:2:52Z</time></trkpt>
<trkpt lat="46.3588981628417969" lon="7.6200675964355469"><ele></ele><time>2014-10-15T18:2:55Z</time></trkpt>
<trkpt lat="46.3589515686035156" lon="7.6200804710388184"><ele></ele><time>2014-10-15T18:2:58Z</time></trkpt>
<trkpt lat="46.3590164184570312" lon="7.6201071739196777"><ele></ele><time>2014-10-15T18:3:1Z</time></trkpt>
<trkpt lat="46.3591003417968750" lon="7.6201009750366211"><ele></ele><time>2014-10-15T18:3:4Z</time></trkpt>
<trkpt lat="46.3591499328613281" lon="7.6200957298278809"><ele></ele><time>2014-10-15T18:3:7Z</time></trkpt>
<trkpt lat="46.3592033386230469" lon="7.6201043128967285"><ele></ele><time>2014-10-15T18:3:10Z</time></trkpt>
<trkpt lat="46.3593025207519531" lon="7.6201248168945312"><ele></ele><time>2014-10-15T18:3:13Z</time></trkpt>
<trkpt lat="46.3593635559082031" lon="7.6201453208923340"><ele></ele><time>2014-10-15T18:3:16Z</time></trkpt>
<trkpt lat="46.3594245910644531" lon="7.6201496124267578"><ele></ele><time>2014-10-15T18:3:19Z</time></trkpt>
<trkpt lat="46.3595085144042969" lon="7.6201367378234863"><ele></ele><time>2014-10-15T18:3:22Z</time></trkpt>
<trkpt lat="46.3595619201660156" lon="7.6201190948486328"><ele></ele><time>2014-10-15T18:3:25Z</time></trkpt>
<trkpt lat="46.3596382141113281" lon="7.6201000213623047"><ele></ele><time>2014-10-15T18:3:28Z</time></trkpt>
<trkpt lat="46.3596916198730469" lon="7.6200819015502930"><ele></ele><time>2014-10-15T18:3:31Z</time></trkpt>
<trkpt lat="46.3597717285156250" lon="7.6200523376464844"><ele></ele><time>2014-10-15T18:3:34Z</time></trkpt>
<trkpt lat="46.3598327636718750" lon="7.6200428009033203"><ele></ele><time>2014-10-15T18:3:37Z</time></trkpt>
<trkpt lat="46.3598976135253906" lon="7.6200399398803711"><ele></ele><time>2014-10-15T18:3:40Z</time></trkpt>
<trkpt lat="46.3599586486816406" lon="7.6200280189514160"><ele></ele><time>2014-10-15T18:3:43Z</time></trkpt>
<trkpt lat="46.3600158691406250" lon="7.6200160980224609"><ele></ele><time>2014-10-15T18:3:46Z</time></trkpt>
<trkpt lat="46.3601036071777344" lon="7.6200075149536133"><ele></ele><time>2014-10-15T18:3:49Z</time></trkpt>
<trkpt lat="46.3601646423339844" lon="7.6200084686279297"><ele></ele><time>2014-10-15T18:3:52Z</time></trkpt>
<trkpt lat="46.3602485656738281" lon="7.6200027465820312"><ele></ele><time>2014-10-15T18:3:55Z</time></trkpt>
<trkpt lat="46.3603210449218750" lon="7.6199960708618164"><ele></ele><time>2014-10-15T18:3:58Z</time></trkpt>
<trkpt lat="46.3603858947753906" lon="7.6199903488159180"><ele></ele><time>2014-10-15T18:4:1Z</time></trkpt>
<trkpt lat="46.3604164123535156" lon="7.6200275421142578"><ele></ele><time>2014-10-15T18:4:4Z</time></trkpt>
<trkpt lat="46.3604202270507812" lon="7.6201009750366211"><ele></ele><time>2014-10-15T18:4:7Z</time></trkpt>
<trkpt lat="46.3603401184082031" lon="7.6201510429382324"><ele></ele><time>2014-10-15T18:4:10Z</time></trkpt>
<trkpt lat="46.3602752685546875" lon="7.6201615333557129"><ele></ele><time>2014-10-15T18:4:13Z</time></trkpt>
<trkpt lat="46.3601875305175781" lon="7.6201901435852051"><ele></ele><time>2014-10-15T18:4:16Z</time></trkpt>
<trkpt lat="46.3601303100585938" lon="7.6202244758605957"><ele></ele><time>2014-10-15T18:4:19Z</time></trkpt>
<trkpt lat="46.3600425720214844" lon="7.6202793121337891"><ele></ele><time>2014-10-15T18:4:22Z</time></trkpt>
<trkpt lat="46.3599929809570312" lon="7.6203312873840332"><ele></ele><time>2014-10-15T18:4:25Z</time></trkpt>
<trkpt lat="46.3599433898925781" lon="7.6203784942626953"><ele></ele><time>2014-10-15T18:4:28Z</time></trkpt>
<trkpt lat="46.3599014282226562" lon="7.6204237937927246"><ele></ele><time>2014-10-15T18:4:31Z</time></trkpt>
<trkpt lat="46.3598518371582031" lon="7.6204624176025391"><ele></ele><time>2014-10-15T18:4:34Z</time></trkpt>
<trkpt lat="46.3598060607910156" lon="7.6204972267150879"><ele></ele><time>2014-10-15T18:4:37Z</time></trkpt>
<trkpt lat="46.3597450256347656" lon="7.6205530166625977"><ele></ele><time>2014-10-15T18:4:40Z</time></trkpt>
<trkpt lat="46.3596839904785156" lon="7.6206026077270508"><ele></ele><time>2014-10-15T18:4:43Z</time></trkpt>
<trkpt lat="46.3596420288085938" lon="7.6206355094909668"><ele></ele><time>2014-10-15T18:4:46Z</time></trkpt>
<trkpt lat="46.3595962524414062" lon="7.6206550598144531"><ele></ele><time>2014-10-15T18:4:49Z</time></trkpt>
<trkpt lat="46.3595504760742188" lon="7.6206755638122559"><ele></ele><time>2014-10-15T18:4:52Z</time></trkpt>
<trkpt lat="46.3594779968261719" lon="7.6206994056701660"><ele></ele><time>2014-10-15T18:4:55Z</time></trkpt>
<trkpt lat="46.3594360351562500" lon="7.6207275390625000"><ele></ele><time>2014-10-15T18:4:58Z</time></trkpt>
<trkpt lat="46.3593864440917969" lon="7.6207656860351562"><ele></ele><time>2014-10-15T18:5:1Z</time></trkpt>
<trkpt lat="46.3593177795410156" lon="7.6207976341247559"><ele></ele><time>2014-10-15T18:5:4Z</time></trkpt>
<trkpt lat="46.3592681884765625" lon="7.6208205223083496"><ele></ele><time>2014-10-15T18:5:7Z</time></trkpt>
<trkpt lat="46.3591957092285156" lon="7.6208605766296387"><ele></ele><time>2014-10-15T18:5:10Z</time></trkpt>
<trkpt lat="46.3591423034667969" lon="7.6208901405334473"><ele></ele><time>2014-10-15T18:5:13Z</time></trkpt>
<trkpt lat="46.3590621948242188" lon="7.6209545135498047"><ele></ele><time>2014-10-15T18:5:16Z</time></trkpt>
<trkpt lat="46.3590011596679688" lon="7.6210289001464844"><ele></ele><time>2014-10-15T18:5:19Z</time></trkpt>
<trkpt lat="46.3589248657226562" lon="7.6210832595825195"><ele></ele><time>2014-10-15T18:5:22Z</time></trkpt>
<trkpt lat="46.3588752746582031" lon="7.6211147308349609"><ele></ele><time>2014-10-15T18:5:25Z</time></trkpt>
<trkpt lat="46.3588256835937500" lon="7.6211357116699219"><ele></ele><time>2014-10-15T18:5:28Z</time></trkpt>
<trkpt lat="46.3587570190429688" lon="7.6211652755737305"><ele></ele><time>2014-10-15T18:5:31Z</time></trkpt>
<trkpt lat="46.3587150573730469" lon="7.6211752891540527"><ele></ele><time>2014-10-15T18:5:34Z</time></trkpt>
<trkpt lat="46.3586349487304688" lon="7.6211781501770020"><ele></ele><time>2014-10-15T18:5:37Z</time></trkpt>
<trkpt lat="46.3585510253906250" lon="7.6211919784545898"><ele></ele><time>2014-10-15T18:5:40Z</time></trkpt>
<trkpt lat="46.3584899902343750" lon="7.6212034225463867"><ele></ele><time>2014-10-15T18:5:43Z</time></trkpt>
<trkpt lat="46.3584098815917969" lon="7.6211953163146973"><ele></ele><time>2014-10-15T18:5:46Z</time></trkpt>
<trkpt lat="46.3583145141601562" lon="7.6211786270141602"><ele></ele><time>2014-10-15T18:5:49Z</time></trkpt>
<trkpt lat="46.3582534790039062" lon="7.6211638450622559"><ele></ele><time>2014-10-15T18:5:52Z</time></trkpt>
<trkpt lat="46.3581695556640625" lon="7.6211562156677246"><ele></ele><time>2014-10-15T18:5:55Z</time></trkpt>
<trkpt lat="46.3581123352050781" lon="7.6211380958557129"><ele></ele><time>2014-10-15T18:5:58Z</time></trkpt>
<trkpt lat="46.3580589294433594" lon="7.6211290359497070"><ele></ele><time>2014-10-15T18:6:1Z</time></trkpt>
<trkpt lat="46.3579788208007812" lon="7.6211171150207520"><ele></ele><time>2014-10-15T18:6:4Z</time></trkpt>
<trkpt lat="46.3579216003417969" lon="7.6211104393005371"><ele></ele><time>2014-10-15T18:6:7Z</time></trkpt>
<trkpt lat="46.3578414916992188" lon="7.6210947036743164"><ele></ele><time>2014-10-15T18:6:10Z</time></trkpt>
<trkpt lat="46.3577499389648438" lon="7.6210985183715820"><ele></ele><time>2014-10-15T18:6:13Z</time></trkpt>
<trkpt lat="46.3576545715332031" lon="7.6210937500000000"><ele></ele><time>2014-10-15T18:6:16Z</time></trkpt>
<trkpt lat="46.3575973510742188" lon="7.6210951805114746"><ele></ele><time>2014-10-15T18:6:19Z</time></trkpt>
<trkpt lat="46.3575172424316406" lon="7.6211009025573730"><ele></ele><time>2014-10-15T18:6:22Z</time></trkpt>
<trkpt lat="46.3574676513671875" lon="7.6210994720458984"><ele></ele><time>2014-10-15T18:6:25Z</time></trkpt>
<trkpt lat="46.3573989868164062" lon="7.6210937500000000"><ele></ele><time>2014-10-15T18:6:28Z</time></trkpt>
<trkpt lat="46.3573226928710938" lon="7.6210842132568359"><ele></ele><time>2014-10-15T18:6:31Z</time></trkpt>
<trkpt lat="46.3572463989257812" lon="7.6210875511169434"><ele></ele><time>2014-10-15T18:6:34Z</time></trkpt>
<trkpt lat="46.3571929931640625" lon="7.6210904121398926"><ele></ele><time>2014-10-15T18:6:37Z</time></trkpt>
<trkpt lat="46.3571052551269531" lon="7.6210908889770508"><ele></ele><time>2014-10-15T18:6:40Z</time></trkpt>
<trkpt lat="46.3570480346679688" lon="7.6210861206054688"><ele></ele><time>2014-10-15T18:6:43Z</time></trkpt>
<trkpt lat="46.3569602966308594" lon="7.6211104393005371"><ele></ele><time>2014-10-15T18:6:46Z</time></trkpt>
<trkpt lat="46.3569030761718750" lon="7.6211423873901367"><ele></ele><time>2014-10-15T18:6:49Z</time></trkpt>
<trkpt lat="46.3568572998046875" lon="7.6211910247802734"><ele></ele><time>2014-10-15T18:6:52Z</time></trkpt>
<trkpt lat="46.3567657470703125" lon="7.6212720870971680"><ele></ele><time>2014-10-15T18:6:55Z</time></trkpt>
<trkpt lat="46.3566436767578125" lon="7.6212744712829590"><ele></ele><time>2014-10-15T18:6:58Z</time></trkpt>
<trkpt lat="46.3565521240234375" lon="7.6212229728698730"><ele></ele><time>2014-10-15T18:7:1Z</time></trkpt>
<trkpt lat="46.3564186096191406" lon="7.6211147308349609"><ele></ele><time>2014-10-15T18:7:4Z</time></trkpt>
<trkpt lat="46.3562736511230469" lon="7.6209988594055176"><ele></ele><time>2014-10-15T18:7:7Z</time></trkpt>
<trkpt lat="46.3561439514160156" lon="7.6209115982055664"><ele></ele><time>2014-10-15T18:7:10Z</time></trkpt>
<trkpt lat="46.3560028076171875" lon="7.6210541725158691"><ele></ele><time>2014-10-15T18:7:13Z</time></trkpt>
<trkpt lat="46.3557662963867188" lon="7.6210455894470215"><ele></ele><time>2014-10-15T18:7:16Z</time></trkpt>
<trkpt lat="46.3555717468261719" lon="7.6210303306579590"><ele></ele><time>2014-10-15T18:7:19Z</time></trkpt>
<trkpt lat="46.3554611206054688" lon="7.6209826469421387"><ele></ele><time>2014-10-15T18:7:22Z</time></trkpt>
<trkpt lat="46.3553771972656250" lon="7.6209182739257812"><ele></ele><time>2014-10-15T18:7:25Z</time></trkpt>
<trkpt lat="46.3553085327148438" lon="7.6208429336547852"><ele></ele><time>2014-10-15T18:7:28Z</time></trkpt>
<trkpt lat="46.3550109863281250" lon="7.6207408905029297"><ele></ele><time>2014-10-15T18:7:31Z</time></trkpt>
<trkpt lat="46.3548660278320312" lon="7.6207814216613770"><ele></ele><time>2014-10-15T18:7:34Z</time></trkpt>
<trkpt lat="46.3547630310058594" lon="7.6208033561706543"><ele></ele><time>2014-10-15T18:7:37Z</time></trkpt>
<trkpt lat="46.3546600341796875" lon="7.6208767890930176"><ele></ele><time>2014-10-15T18:7:40Z</time></trkpt>
<trkpt lat="46.3545913696289062" lon="7.6209688186645508"><ele></ele><time>2014-10-15T18:7:43Z</time></trkpt>
<trkpt lat="46.3544769287109375" lon="7.6210584640502930"><ele></ele><time>2014-10-15T18:7:46Z</time></trkpt>
<trkpt lat="46.3543052673339844" lon="7.6212000846862793"><ele></ele><time>2014-10-15T18:7:49Z</time></trkpt>
<trkpt lat="46.3541221618652344" lon="7.6213693618774414"><ele></ele><time>2014-10-15T18:7:52Z</time></trkpt>
<trkpt lat="46.3539581298828125" lon="7.6215491294860840"><ele></ele><time>2014-10-15T18:7:55Z</time></trkpt>
<trkpt lat="46.3538551330566406" lon="7.6216850280761719"><ele></ele><time>2014-10-15T18:7:58Z</time></trkpt>
<trkpt lat="46.3536987304687500" lon="7.6218733787536621"><ele></ele><time>2014-10-15T18:8:1Z</time></trkpt>
<trkpt lat="46.3536224365234375" lon="7.6219840049743652"><ele></ele><time>2014-10-15T18:8:4Z</time></trkpt>
<trkpt lat="46.3534889221191406" lon="7.6221566200256348"><ele></ele><time>2014-10-15T18:8:7Z</time></trkpt>
<trkpt lat="46.3534126281738281" lon="7.6222877502441406"><ele></ele><time>2014-10-15T18:8:10Z</time></trkpt>
<trkpt lat="46.3533592224121094" lon="7.6223888397216797"><ele></ele><time>2014-10-15T18:8:13Z</time></trkpt>
<trkpt lat="46.3533172607421875" lon="7.6224923133850098"><ele></ele><time>2014-10-15T18:8:16Z</time></trkpt>
<trkpt lat="46.3532295227050781" lon="7.6225829124450684"><ele></ele><time>2014-10-15T18:8:19Z</time></trkpt>
<trkpt lat="46.3531036376953125" lon="7.6227293014526367"><ele></ele><time>2014-10-15T18:8:22Z</time></trkpt>
<trkpt lat="46.3530693054199219" lon="7.6228590011596680"><ele></ele><time>2014-10-15T18:8:25Z</time></trkpt>
<trkpt lat="46.3530120849609375" lon="7.6231322288513184"><ele></ele><time>2014-10-15T18:8:28Z</time></trkpt>
<trkpt lat="46.3529777526855469" lon="7.6234564781188965"><ele></ele><time>2014-10-15T18:8:31Z</time></trkpt>
<trkpt lat="46.3529701232910156" lon="7.6237792968750000"><ele></ele><time>2014-10-15T18:8:34Z</time></trkpt>
<trkpt lat="46.3529586791992188" lon="7.6240620613098145"><ele></ele><time>2014-10-15T18:8:37Z</time></trkpt>
<trkpt lat="46.3529281616210938" lon="7.6243696212768555"><ele></ele><time>2014-10-15T18:8:40Z</time></trkpt>
<trkpt lat="46.3529052734375000" lon="7.6245694160461426"><ele></ele><time>2014-10-15T18:8:43Z</time></trkpt>
<trkpt lat="46.3528747558593750" lon="7.6249241828918457"><ele></ele><time>2014-10-15T18:8:46Z</time></trkpt>
<trkpt lat="46.3528518676757812" lon="7.6251602172851562"><ele></ele><time>2014-10-15T18:8:49Z</time></trkpt>
<trkpt lat="46.3528099060058594" lon="7.6255059242248535"><ele></ele><time>2014-10-15T18:8:52Z</time></trkpt>
<trkpt lat="46.3527908325195312" lon="7.6257705688476562"><ele></ele><time>2014-10-15T18:8:55Z</time></trkpt>
<trkpt lat="46.3527870178222656" lon="7.6258459091186523"><ele></ele><time>2014-10-15T18:8:58Z</time></trkpt>
<trkpt lat="46.3527488708496094" lon="7.6257638931274414"><ele></ele><time>2014-10-15T18:9:1Z</time></trkpt>
<trkpt lat="46.3526992797851562" lon="7.6257553100585938"><ele></ele><time>2014-10-15T18:9:4Z</time></trkpt>
<trkpt lat="46.3527069091796875" lon="7.6258893013000488"><ele></ele><time>2014-10-15T18:9:7Z</time></trkpt>
<trkpt lat="46.3527107238769531" lon="7.6260857582092285"><ele></ele><time>2014-10-15T18:9:10Z</time></trkpt>
<trkpt lat="46.3527030944824219" lon="7.6264472007751465"><ele></ele><time>2014-10-15T18:9:13Z</time></trkpt>
<trkpt lat="46.3526611328125000" lon="7.6267023086547852"><ele></ele><time>2014-10-15T18:9:16Z</time></trkpt>
<trkpt lat="46.3526306152343750" lon="7.6271390914916992"><ele></ele><time>2014-10-15T18:9:19Z</time></trkpt>
<trkpt lat="46.3526649475097656" lon="7.6275858879089355"><ele></ele><time>2014-10-15T18:9:22Z</time></trkpt>
<trkpt lat="46.3527145385742188" lon="7.6278810501098633"><ele></ele><time>2014-10-15T18:9:25Z</time></trkpt>
<trkpt lat="46.3527717590332031" lon="7.6282281875610352"><ele></ele><time>2014-10-15T18:9:28Z</time></trkpt>
<trkpt lat="46.3527679443359375" lon="7.6284236907958984"><ele></ele><time>2014-10-15T18:9:31Z</time></trkpt>
<trkpt lat="46.3519325256347656" lon="7.6275429725646973"><ele></ele><time>2014-10-15T18:9:34Z</time></trkpt>
<trkpt lat="46.3516731262207031" lon="7.6271629333496094"><ele></ele><time>2014-10-15T18:9:37Z</time></trkpt>
<trkpt lat="46.3515625000000000" lon="7.6268615722656250"><ele></ele><time>2014-10-15T18:9:40Z</time></trkpt>
<trkpt lat="46.3513603210449219" lon="7.6265840530395508"><ele></ele><time>2014-10-15T18:9:43Z</time></trkpt>
<trkpt lat="46.3512039184570312" lon="7.6264739036560059"><ele></ele><time>2014-10-15T18:9:46Z</time></trkpt>
<trkpt lat="46.3510437011718750" lon="7.6263885498046875"><ele></ele><time>2014-10-15T18:9:49Z</time></trkpt>
<trkpt lat="46.3510208129882812" lon="7.6264290809631348"><ele></ele><time>2014-10-15T18:9:52Z</time></trkpt>
<trkpt lat="46.3508491516113281" lon="7.6262836456298828"><ele></ele><time>2014-10-15T18:9:55Z</time></trkpt>
<trkpt lat="46.3508224487304688" lon="7.6262392997741699"><ele></ele><time>2014-10-15T18:9:58Z</time></trkpt>
<trkpt lat="46.3507957458496094" lon="7.6261959075927734"><ele></ele><time>2014-10-15T18:10:1Z</time></trkpt>
<trkpt lat="46.3507652282714844" lon="7.6261563301086426"><ele></ele><time>2014-10-15T18:10:4Z</time></trkpt>
<trkpt lat="46.3507118225097656" lon="7.6260952949523926"><ele></ele><time>2014-10-15T18:10:7Z</time></trkpt>
<trkpt lat="46.3506774902343750" lon="7.6260452270507812"><ele></ele><time>2014-10-15T18:10:10Z</time></trkpt>
<trkpt lat="46.3506240844726562" lon="7.6259927749633789"><ele></ele><time>2014-10-15T18:10:13Z</time></trkpt>
<trkpt lat="46.3505744934082031" lon="7.6259560585021973"><ele></ele><time>2014-10-15T18:10:16Z</time></trkpt>
<trkpt lat="46.3505210876464844" lon="7.6259245872497559"><ele></ele><time>2014-10-15T18:10:19Z</time></trkpt>
<trkpt lat="46.3504791259765625" lon="7.6259102821350098"><ele></ele><time>2014-10-15T18:10:22Z</time></trkpt>
<trkpt lat="46.3504180908203125" lon="7.6258831024169922"><ele></ele><time>2014-10-15T18:10:25Z</time></trkpt>
<trkpt lat="46.3503799438476562" lon="7.6258611679077148"><ele></ele><time>2014-10-15T18:10:28Z</time></trkpt>
<trkpt lat="46.3503265380859375" lon="7.6258339881896973"><ele></ele><time>2014-10-15T18:10:31Z</time></trkpt>
<trkpt lat="46.3502807617187500" lon="7.6258120536804199"><ele></ele><time>2014-10-15T18:10:34Z</time></trkpt>
<trkpt lat="46.3502464294433594" lon="7.6258001327514648"><ele></ele><time>2014-10-15T18:10:37Z</time></trkpt>
<trkpt lat="46.3502006530761719" lon="7.6257867813110352"><ele></ele><time>2014-10-15T18:10:40Z</time></trkpt>
<trkpt lat="46.3501663208007812" lon="7.6257920265197754"><ele></ele><time>2014-10-15T18:10:43Z</time></trkpt>
<trkpt lat="46.3501205444335938" lon="7.6258158683776855"><ele></ele><time>2014-10-15T18:10:46Z</time></trkpt>
<trkpt lat="46.3500900268554688" lon="7.6258182525634766"><ele></ele><time>2014-10-15T18:10:49Z</time></trkpt>
<trkpt lat="46.3500366210937500" lon="7.6258163452148438"><ele></ele><time>2014-10-15T18:10:52Z</time></trkpt>
<trkpt lat="46.3500022888183594" lon="7.6258134841918945"><ele></ele><time>2014-10-15T18:10:55Z</time></trkpt>
<trkpt lat="46.3499450683593750" lon="7.6258115768432617"><ele></ele><time>2014-10-15T18:10:58Z</time></trkpt>
<trkpt lat="46.3498764038085938" lon="7.6258177757263184"><ele></ele><time>2014-10-15T18:11:1Z</time></trkpt>
<trkpt lat="46.3498001098632812" lon="7.6258344650268555"><ele></ele><time>2014-10-15T18:11:4Z</time></trkpt>
<trkpt lat="46.3497505187988281" lon="7.6258506774902344"><ele></ele><time>2014-10-15T18:11:7Z</time></trkpt>
<trkpt lat="46.3496475219726562" lon="7.6258864402770996"><ele></ele><time>2014-10-15T18:11:10Z</time></trkpt>
<trkpt lat="46.3495445251464844" lon="7.6259331703186035"><ele></ele><time>2014-10-15T18:11:13Z</time></trkpt>
<trkpt lat="46.3493461608886719" lon="7.6260237693786621"><ele></ele><time>2014-10-15T18:11:16Z</time></trkpt>
<trkpt lat="46.3491897583007812" lon="7.6260857582092285"><ele></ele><time>2014-10-15T18:11:19Z</time></trkpt>
<trkpt lat="46.3490333557128906" lon="7.6261467933654785"><ele></ele><time>2014-10-15T18:11:22Z</time></trkpt>
<trkpt lat="46.3488578796386719" lon="7.6261668205261230"><ele></ele><time>2014-10-15T18:11:25Z</time></trkpt>
<trkpt lat="46.3486289978027344" lon="7.6262383460998535"><ele></ele><time>2014-10-15T18:11:28Z</time></trkpt>
<trkpt lat="46.3485031127929688" lon="7.6263179779052734"><ele></ele><time>2014-10-15T18:11:31Z</time></trkpt>
<trkpt lat="46.3484115600585938" lon="7.6263861656188965"><ele></ele><time>2014-10-15T18:11:34Z</time></trkpt>
<trkpt lat="46.3483543395996094" lon="7.6264533996582031"><ele></ele><time>2014-10-15T18:11:37Z</time></trkpt>
<trkpt lat="46.3482627868652344" lon="7.6265721321105957"><ele></ele><time>2014-10-15T18:11:40Z</time></trkpt>
<trkpt lat="46.3482131958007812" lon="7.6266441345214844"><ele></ele><time>2014-10-15T18:11:43Z</time></trkpt>
<trkpt lat="46.3481445312500000" lon="7.6267242431640625"><ele></ele><time>2014-10-15T18:11:46Z</time></trkpt>
<trkpt lat="46.3480720520019531" lon="7.6268033981323242"><ele></ele><time>2014-10-15T18:11:49Z</time></trkpt>
<trkpt lat="46.3480224609375000" lon="7.6268639564514160"><ele></ele><time>2014-10-15T18:11:52Z</time></trkpt>
<trkpt lat="46.3479766845703125" lon="7.6269311904907227"><ele></ele><time>2014-10-15T18:11:55Z</time></trkpt>
<trkpt lat="46.3479194641113281" lon="7.6270427703857422"><ele></ele><time>2014-10-15T18:11:58Z</time></trkpt>
<trkpt lat="46.3478813171386719" lon="7.6271133422851562"><ele></ele><time>2014-10-15T18:12:1Z</time></trkpt>
<trkpt lat="46.3478355407714844" lon="7.6272215843200684"><ele></ele><time>2014-10-15T18:12:4Z</time></trkpt>
<trkpt lat="46.3477859497070312" lon="7.6273622512817383"><ele></ele><time>2014-10-15T18:12:7Z</time></trkpt>
<trkpt lat="46.3477096557617188" lon="7.6275615692138672"><ele></ele><time>2014-10-15T18:12:10Z</time></trkpt>
<trkpt lat="46.3475990295410156" lon="7.6277532577514648"><ele></ele><time>2014-10-15T18:12:13Z</time></trkpt>
<trkpt lat="46.3474502563476562" lon="7.6279063224792480"><ele></ele><time>2014-10-15T18:12:16Z</time></trkpt>
<trkpt lat="46.3472976684570312" lon="7.6280665397644043"><ele></ele><time>2014-10-15T18:12:19Z</time></trkpt>
<trkpt lat="46.3471717834472656" lon="7.6282219886779785"><ele></ele><time>2014-10-15T18:12:22Z</time></trkpt>
<trkpt lat="46.3470993041992188" lon="7.6283245086669922"><ele></ele><time>2014-10-15T18:12:25Z</time></trkpt>
<trkpt lat="46.3470306396484375" lon="7.6284289360046387"><ele></ele><time>2014-10-15T18:12:28Z</time></trkpt>
<trkpt lat="46.3469657897949219" lon="7.6285357475280762"><ele></ele><time>2014-10-15T18:12:31Z</time></trkpt>
<trkpt lat="46.3468933105468750" lon="7.6286983489990234"><ele></ele><time>2014-10-15T18:12:34Z</time></trkpt>
<trkpt lat="46.3468475341796875" lon="7.6287927627563477"><ele></ele><time>2014-10-15T18:12:37Z</time></trkpt>
<trkpt lat="46.3468093872070312" lon="7.6289753913879395"><ele></ele><time>2014-10-15T18:12:40Z</time></trkpt>
<trkpt lat="46.3468284606933594" lon="7.6291694641113281"><ele></ele><time>2014-10-15T18:12:43Z</time></trkpt>
<trkpt lat="46.3469238281250000" lon="7.6295313835144043"><ele></ele><time>2014-10-15T18:12:46Z</time></trkpt>
<trkpt lat="46.3468551635742188" lon="7.6296858787536621"><ele></ele><time>2014-10-15T18:12:49Z</time></trkpt>
<trkpt lat="46.3467559814453125" lon="7.6298689842224121"><ele></ele><time>2014-10-15T18:12:52Z</time></trkpt>
<trkpt lat="46.3467025756835938" lon="7.6299633979797363"><ele></ele><time>2014-10-15T18:12:55Z</time></trkpt>
<trkpt lat="46.3466682434082031" lon="7.6301364898681641"><ele></ele><time>2014-10-15T18:12:58Z</time></trkpt>
<trkpt lat="46.3466567993164062" lon="7.6303367614746094"><ele></ele><time>2014-10-15T18:13:1Z</time></trkpt>
<trkpt lat="46.3466339111328125" lon="7.6304759979248047"><ele></ele><time>2014-10-15T18:13:4Z</time></trkpt>
<trkpt lat="46.3466033935546875" lon="7.6306786537170410"><ele></ele><time>2014-10-15T18:13:7Z</time></trkpt>
<trkpt lat="46.3465843200683594" lon="7.6308245658874512"><ele></ele><time>2014-10-15T18:13:10Z</time></trkpt>
<trkpt lat="46.3465576171875000" lon="7.6309895515441895"><ele></ele><time>2014-10-15T18:13:13Z</time></trkpt>
<trkpt lat="46.3465156555175781" lon="7.6313271522521973"><ele></ele><time>2014-10-15T18:13:16Z</time></trkpt>
<trkpt lat="46.3464813232421875" lon="7.6315698623657227"><ele></ele><time>2014-10-15T18:13:19Z</time></trkpt>
<trkpt lat="46.3464775085449219" lon="7.6317553520202637"><ele></ele><time>2014-10-15T18:13:22Z</time></trkpt>
<trkpt lat="46.3464736938476562" lon="7.6318163871765137"><ele></ele><time>2014-10-15T18:13:25Z</time></trkpt>
<trkpt lat="46.3464736938476562" lon="7.6318597793579102"><ele></ele><time>2014-10-15T18:13:28Z</time></trkpt>
<trkpt lat="46.3464813232421875" lon="7.6318774223327637"><ele></ele><time>2014-10-15T18:13:31Z</time></trkpt>
<trkpt lat="46.3464927673339844" lon="7.6319155693054199"><ele></ele><time>2014-10-15T18:13:34Z</time></trkpt>
<trkpt lat="46.3465156555175781" lon="7.6319808959960938"><ele></ele><time>2014-10-15T18:13:37Z</time></trkpt>
<trkpt lat="46.3465194702148438" lon="7.6321024894714355"><ele></ele><time>2014-10-15T18:13:40Z</time></trkpt>
<trkpt lat="46.3465270996093750" lon="7.6321821212768555"><ele></ele><time>2014-10-15T18:13:43Z</time></trkpt>
<trkpt lat="46.3465538024902344" lon="7.6323037147521973"><ele></ele><time>2014-10-15T18:13:46Z</time></trkpt>
<trkpt lat="46.3465576171875000" lon="7.6324090957641602"><ele></ele><time>2014-10-15T18:13:49Z</time></trkpt>
<trkpt lat="46.3465728759765625" lon="7.6326389312744141"><ele></ele><time>2014-10-15T18:13:52Z</time></trkpt>
<trkpt lat="46.3465957641601562" lon="7.6327729225158691"><ele></ele><time>2014-10-15T18:13:55Z</time></trkpt>
<trkpt lat="46.3466148376464844" lon="7.6328940391540527"><ele></ele><time>2014-10-15T18:13:58Z</time></trkpt>
<trkpt lat="46.3466148376464844" lon="7.6329727172851562"><ele></ele><time>2014-10-15T18:14:1Z</time></trkpt>
<trkpt lat="46.3466148376464844" lon="7.6330819129943848"><ele></ele><time>2014-10-15T18:14:4Z</time></trkpt>
<trkpt lat="46.3465843200683594" lon="7.6331558227539062"><ele></ele><time>2014-10-15T18:14:7Z</time></trkpt>
<trkpt lat="46.3465118408203125" lon="7.6332197189331055"><ele></ele><time>2014-10-15T18:14:10Z</time></trkpt>
<trkpt lat="46.3463859558105469" lon="7.6332688331604004"><ele></ele><time>2014-10-15T18:14:13Z</time></trkpt>
<trkpt lat="46.3461837768554688" lon="7.6332745552062988"><ele></ele><time>2014-10-15T18:14:16Z</time></trkpt>
<trkpt lat="46.3458976745605469" lon="7.6333065032958984"><ele></ele><time>2014-10-15T18:14:19Z</time></trkpt>
<trkpt lat="46.3457336425781250" lon="7.6333861351013184"><ele></ele><time>2014-10-15T18:14:22Z</time></trkpt>
<trkpt lat="46.3455238342285156" lon="7.6334390640258789"><ele></ele><time>2014-10-15T18:14:25Z</time></trkpt>
<trkpt lat="46.3453903198242188" lon="7.6334743499755859"><ele></ele><time>2014-10-15T18:14:28Z</time></trkpt>
<trkpt lat="46.3451881408691406" lon="7.6334967613220215"><ele></ele><time>2014-10-15T18:14:31Z</time></trkpt>
<trkpt lat="46.3450012207031250" lon="7.6336107254028320"><ele></ele><time>2014-10-15T18:14:34Z</time></trkpt>
<trkpt lat="46.3449363708496094" lon="7.6338925361633301"><ele></ele><time>2014-10-15T18:14:37Z</time></trkpt>
<trkpt lat="46.3449134826660156" lon="7.6341047286987305"><ele></ele><time>2014-10-15T18:14:40Z</time></trkpt>
<trkpt lat="46.3449401855468750" lon="7.6344995498657227"><ele></ele><time>2014-10-15T18:14:43Z</time></trkpt>
<trkpt lat="46.3449516296386719" lon="7.6347646713256836"><ele></ele><time>2014-10-15T18:14:46Z</time></trkpt>
<trkpt lat="46.3449783325195312" lon="7.6351566314697266"><ele></ele><time>2014-10-15T18:14:49Z</time></trkpt>
<trkpt lat="46.3450660705566406" lon="7.6354479789733887"><ele></ele><time>2014-10-15T18:14:52Z</time></trkpt>
<trkpt lat="46.3450241088867188" lon="7.6356034278869629"><ele></ele><time>2014-10-15T18:14:55Z</time></trkpt>
<trkpt lat="46.3449707031250000" lon="7.6355862617492676"><ele></ele><time>2014-10-15T18:14:58Z</time></trkpt>
<trkpt lat="46.3448829650878906" lon="7.6354641914367676"><ele></ele><time>2014-10-15T18:15:1Z</time></trkpt>
<trkpt lat="46.3448371887207031" lon="7.6353883743286133"><ele></ele><time>2014-10-15T18:15:4Z</time></trkpt>
<trkpt lat="46.3447341918945312" lon="7.6352672576904297"><ele></ele><time>2014-10-15T18:15:7Z</time></trkpt>
<trkpt lat="46.3446197509765625" lon="7.6350741386413574"><ele></ele><time>2014-10-15T18:15:10Z</time></trkpt>
<trkpt lat="46.3445434570312500" lon="7.6348781585693359"><ele></ele><time>2014-10-15T18:15:13Z</time></trkpt>
<trkpt lat="46.3443794250488281" lon="7.6346421241760254"><ele></ele><time>2014-10-15T18:15:16Z</time></trkpt>
<trkpt lat="46.3442649841308594" lon="7.6344337463378906"><ele></ele><time>2014-10-15T18:15:19Z</time></trkpt>
<trkpt lat="46.3441886901855469" lon="7.6343502998352051"><ele></ele><time>2014-10-15T18:15:22Z</time></trkpt>
<trkpt lat="46.3440704345703125" lon="7.6343293190002441"><ele></ele><time>2014-10-15T18:15:25Z</time></trkpt>
<trkpt lat="46.3436660766601562" lon="7.6342272758483887"><ele></ele><time>2014-10-15T18:15:28Z</time></trkpt>
<trkpt lat="46.3434829711914062" lon="7.6341409683227539"><ele></ele><time>2014-10-15T18:15:31Z</time></trkpt>
<trkpt lat="46.3432121276855469" lon="7.6341204643249512"><ele></ele><time>2014-10-15T18:15:34Z</time></trkpt>
<trkpt lat="46.3430633544921875" lon="7.6341094970703125"><ele></ele><time>2014-10-15T18:15:37Z</time></trkpt>
<trkpt lat="46.3428459167480469" lon="7.6339678764343262"><ele></ele><time>2014-10-15T18:15:40Z</time></trkpt>
<trkpt lat="46.3427391052246094" lon="7.6337857246398926"><ele></ele><time>2014-10-15T18:15:43Z</time></trkpt>
<trkpt lat="46.3426666259765625" lon="7.6336307525634766"><ele></ele><time>2014-10-15T18:15:46Z</time></trkpt>
<trkpt lat="46.3426971435546875" lon="7.6334786415100098"><ele></ele><time>2014-10-15T18:15:49Z</time></trkpt>
<trkpt lat="46.3428039550781250" lon="7.6333398818969727"><ele></ele><time>2014-10-15T18:15:52Z</time></trkpt>
<trkpt lat="46.3430480957031250" lon="7.6330919265747070"><ele></ele><time>2014-10-15T18:15:55Z</time></trkpt>
<trkpt lat="46.3431091308593750" lon="7.6330647468566895"><ele></ele><time>2014-10-15T18:15:58Z</time></trkpt>
<trkpt lat="46.3436813354492188" lon="7.6329064369201660"><ele></ele><time>2014-10-15T18:16:1Z</time></trkpt>
<trkpt lat="46.3436737060546875" lon="7.6328926086425781"><ele></ele><time>2014-10-15T18:16:4Z</time></trkpt>
<trkpt lat="46.3429374694824219" lon="7.6326937675476074"><ele></ele><time>2014-10-15T18:16:7Z</time></trkpt>
<trkpt lat="46.3425941467285156" lon="7.6326818466186523"><ele></ele><time>2014-10-15T18:16:10Z</time></trkpt>
<trkpt lat="46.3422737121582031" lon="7.6327590942382812"><ele></ele><time>2014-10-15T18:16:13Z</time></trkpt>
<trkpt lat="46.3419685363769531" lon="7.6329531669616699"><ele></ele><time>2014-10-15T18:16:16Z</time></trkpt>
<trkpt lat="46.3418769836425781" lon="7.6329946517944336"><ele></ele><time>2014-10-15T18:16:19Z</time></trkpt>
<trkpt lat="46.3417015075683594" lon="7.6330943107604980"><ele></ele><time>2014-10-15T18:16:22Z</time></trkpt>
<trkpt lat="46.3416213989257812" lon="7.6331691741943359"><ele></ele><time>2014-10-15T18:16:25Z</time></trkpt>
<trkpt lat="46.3415031433105469" lon="7.6332783699035645"><ele></ele><time>2014-10-15T18:16:28Z</time></trkpt>
<trkpt lat="46.3413810729980469" lon="7.6333875656127930"><ele></ele><time>2014-10-15T18:16:31Z</time></trkpt>
<trkpt lat="46.3408317565917969" lon="7.6331901550292969"><ele></ele><time>2014-10-15T18:16:34Z</time></trkpt>
<trkpt lat="46.3407020568847656" lon="7.6333160400390625"><ele></ele><time>2014-10-15T18:16:37Z</time></trkpt>
<trkpt lat="46.3405380249023438" lon="7.6333141326904297"><ele></ele><time>2014-10-15T18:16:40Z</time></trkpt>
<trkpt lat="46.3403549194335938" lon="7.6332383155822754"><ele></ele><time>2014-10-15T18:16:43Z</time></trkpt>
<trkpt lat="46.3401298522949219" lon="7.6331677436828613"><ele></ele><time>2014-10-15T18:16:46Z</time></trkpt>
<trkpt lat="46.3399887084960938" lon="7.6331682205200195"><ele></ele><time>2014-10-15T18:16:49Z</time></trkpt>
<trkpt lat="46.3398590087890625" lon="7.6334190368652344"><ele></ele><time>2014-10-15T18:16:52Z</time></trkpt>
<trkpt lat="46.3397674560546875" lon="7.6338176727294922"><ele></ele><time>2014-10-15T18:16:55Z</time></trkpt>
<trkpt lat="46.3396759033203125" lon="7.6341309547424316"><ele></ele><time>2014-10-15T18:16:58Z</time></trkpt>
<trkpt lat="46.3396492004394531" lon="7.6343607902526855"><ele></ele><time>2014-10-15T18:17:1Z</time></trkpt>
<trkpt lat="46.3395957946777344" lon="7.6347732543945312"><ele></ele><time>2014-10-15T18:17:4Z</time></trkpt>
<trkpt lat="46.3395233154296875" lon="7.6350975036621094"><ele></ele><time>2014-10-15T18:17:7Z</time></trkpt>
<trkpt lat="46.3393745422363281" lon="7.6350216865539551"><ele></ele><time>2014-10-15T18:17:10Z</time></trkpt>
<trkpt lat="46.3391914367675781" lon="7.6348233222961426"><ele></ele><time>2014-10-15T18:17:13Z</time></trkpt>
<trkpt lat="46.3389739990234375" lon="7.6346583366394043"><ele></ele><time>2014-10-15T18:17:16Z</time></trkpt>
<trkpt lat="46.3387908935546875" lon="7.6346101760864258"><ele></ele><time>2014-10-15T18:17:19Z</time></trkpt>
<trkpt lat="46.3386001586914062" lon="7.6345596313476562"><ele></ele><time>2014-10-15T18:17:22Z</time></trkpt>
<trkpt lat="46.3383712768554688" lon="7.6344995498657227"><ele></ele><time>2014-10-15T18:17:25Z</time></trkpt>
<trkpt lat="46.3381004333496094" lon="7.6344237327575684"><ele></ele><time>2014-10-15T18:17:28Z</time></trkpt>
<trkpt lat="46.3379516601562500" lon="7.6343255043029785"><ele></ele><time>2014-10-15T18:17:31Z</time></trkpt>
<trkpt lat="46.3377723693847656" lon="7.6342077255249023"><ele></ele><time>2014-10-15T18:17:34Z</time></trkpt>
<trkpt lat="46.3376655578613281" lon="7.6341485977172852"><ele></ele><time>2014-10-15T18:17:37Z</time></trkpt>
<trkpt lat="46.3372993469238281" lon="7.6333436965942383"><ele></ele><time>2014-10-15T18:17:40Z</time></trkpt>
<trkpt lat="46.3371772766113281" lon="7.6333842277526855"><ele></ele><time>2014-10-15T18:17:43Z</time></trkpt>
<trkpt lat="46.3368949890136719" lon="7.6334872245788574"><ele></ele><time>2014-10-15T18:17:46Z</time></trkpt>
<trkpt lat="46.3367500305175781" lon="7.6334681510925293"><ele></ele><time>2014-10-15T18:17:49Z</time></trkpt>
<trkpt lat="46.3365287780761719" lon="7.6332645416259766"><ele></ele><time>2014-10-15T18:17:52Z</time></trkpt>
<trkpt lat="46.3363571166992188" lon="7.6331887245178223"><ele></ele><time>2014-10-15T18:17:55Z</time></trkpt>
<trkpt lat="46.3361587524414062" lon="7.6331720352172852"><ele></ele><time>2014-10-15T18:17:58Z</time></trkpt>
<trkpt lat="46.3360214233398438" lon="7.6330642700195312"><ele></ele><time>2014-10-15T18:18:1Z</time></trkpt>
<trkpt lat="46.3358459472656250" lon="7.6329302787780762"><ele></ele><time>2014-10-15T18:18:4Z</time></trkpt>
<trkpt lat="46.3355712890625000" lon="7.6327219009399414"><ele></ele><time>2014-10-15T18:18:7Z</time></trkpt>
<trkpt lat="46.3354148864746094" lon="7.6324987411499023"><ele></ele><time>2014-10-15T18:18:10Z</time></trkpt>
<trkpt lat="46.3351669311523438" lon="7.6325006484985352"><ele></ele><time>2014-10-15T18:18:13Z</time></trkpt>
<trkpt lat="46.3349456787109375" lon="7.6326918601989746"><ele></ele><time>2014-10-15T18:18:16Z</time></trkpt>
<trkpt lat="46.3348503112792969" lon="7.6329092979431152"><ele></ele><time>2014-10-15T18:18:19Z</time></trkpt>
<trkpt lat="46.3346862792968750" lon="7.6332955360412598"><ele></ele><time>2014-10-15T18:18:22Z</time></trkpt>
<trkpt lat="46.3345451354980469" lon="7.6335196495056152"><ele></ele><time>2014-10-15T18:18:25Z</time></trkpt>
<trkpt lat="46.3343009948730469" lon="7.6337409019470215"><ele></ele><time>2014-10-15T18:18:28Z</time></trkpt>
<trkpt lat="46.3341293334960938" lon="7.6338233947753906"><ele></ele><time>2014-10-15T18:18:31Z</time></trkpt>
<trkpt lat="46.3339309692382812" lon="7.6338806152343750"><ele></ele><time>2014-10-15T18:18:34Z</time></trkpt>
<trkpt lat="46.3337783813476562" lon="7.6338071823120117"><ele></ele><time>2014-10-15T18:18:37Z</time></trkpt>
<trkpt lat="46.3336791992187500" lon="7.6337013244628906"><ele></ele><time>2014-10-15T18:18:40Z</time></trkpt>
<trkpt lat="46.3335151672363281" lon="7.6335620880126953"><ele></ele><time>2014-10-15T18:18:43Z</time></trkpt>
<trkpt lat="46.3334197998046875" lon="7.6334047317504883"><ele></ele><time>2014-10-15T18:18:46Z</time></trkpt>
<trkpt lat="46.3333892822265625" lon="7.6332569122314453"><ele></ele><time>2014-10-15T18:18:49Z</time></trkpt>
<trkpt lat="46.3334045410156250" lon="7.6332063674926758"><ele></ele><time>2014-10-15T18:18:52Z</time></trkpt>
<trkpt lat="46.3331871032714844" lon="7.6331448554992676"><ele></ele><time>2014-10-15T18:18:55Z</time></trkpt>
<trkpt lat="46.3331260681152344" lon="7.6330761909484863"><ele></ele><time>2014-10-15T18:18:58Z</time></trkpt>
<trkpt lat="46.3331832885742188" lon="7.6329860687255859"><ele></ele><time>2014-10-15T18:19:1Z</time></trkpt>
<trkpt lat="46.3332595825195312" lon="7.6328921318054199"><ele></ele><time>2014-10-15T18:19:4Z</time></trkpt>
<trkpt lat="46.3332557678222656" lon="7.6327981948852539"><ele></ele><time>2014-10-15T18:19:7Z</time></trkpt>
<trkpt lat="46.3331108093261719" lon="7.6328134536743164"><ele></ele><time>2014-10-15T18:19:10Z</time></trkpt>
<trkpt lat="46.3327865600585938" lon="7.6329755783081055"><ele></ele><time>2014-10-15T18:19:13Z</time></trkpt>
<trkpt lat="46.3326988220214844" lon="7.6329989433288574"><ele></ele><time>2014-10-15T18:19:16Z</time></trkpt>
<trkpt lat="46.3326301574707031" lon="7.6329913139343262"><ele></ele><time>2014-10-15T18:19:19Z</time></trkpt>
<trkpt lat="46.3325653076171875" lon="7.6329884529113770"><ele></ele><time>2014-10-15T18:19:22Z</time></trkpt>
<trkpt lat="46.3322677612304688" lon="7.6330370903015137"><ele></ele><time>2014-10-15T18:19:25Z</time></trkpt>
<trkpt lat="46.3320426940917969" lon="7.6331229209899902"><ele></ele><time>2014-10-15T18:19:28Z</time></trkpt>
<trkpt lat="46.3318862915039062" lon="7.6331167221069336"><ele></ele><time>2014-10-15T18:19:31Z</time></trkpt>
<trkpt lat="46.3316879272460938" lon="7.6331038475036621"><ele></ele><time>2014-10-15T18:19:34Z</time></trkpt>
<trkpt lat="46.3315277099609375" lon="7.6331405639648438"><ele></ele><time>2014-10-15T18:19:37Z</time></trkpt>
<trkpt lat="46.3313713073730469" lon="7.6332736015319824"><ele></ele><time>2014-10-15T18:19:40Z</time></trkpt>
<trkpt lat="46.3310852050781250" lon="7.6334562301635742"><ele></ele><time>2014-10-15T18:19:43Z</time></trkpt>
<trkpt lat="46.3309516906738281" lon="7.6336174011230469"><ele></ele><time>2014-10-15T18:19:46Z</time></trkpt>
<trkpt lat="46.3309440612792969" lon="7.6337537765502930"><ele></ele><time>2014-10-15T18:19:49Z</time></trkpt>
<trkpt lat="46.3309593200683594" lon="7.6338706016540527"><ele></ele><time>2014-10-15T18:19:52Z</time></trkpt>
<trkpt lat="46.3309707641601562" lon="7.6340403556823730"><ele></ele><time>2014-10-15T18:19:55Z</time></trkpt>
<trkpt lat="46.3309478759765625" lon="7.6342144012451172"><ele></ele><time>2014-10-15T18:19:58Z</time></trkpt>
<trkpt lat="46.3309097290039062" lon="7.6342835426330566"><ele></ele><time>2014-10-15T18:20:1Z</time></trkpt>
<trkpt lat="46.3308181762695312" lon="7.6342267990112305"><ele></ele><time>2014-10-15T18:20:4Z</time></trkpt>
<trkpt lat="46.3301124572753906" lon="7.6331257820129395"><ele></ele><time>2014-10-15T18:20:7Z</time></trkpt>
<trkpt lat="46.3299674987792969" lon="7.6330089569091797"><ele></ele><time>2014-10-15T18:20:10Z</time></trkpt>
<trkpt lat="46.3298797607421875" lon="7.6329264640808105"><ele></ele><time>2014-10-15T18:20:13Z</time></trkpt>
<trkpt lat="46.3297424316406250" lon="7.6329717636108398"><ele></ele><time>2014-10-15T18:20:16Z</time></trkpt>
<trkpt lat="46.3296966552734375" lon="7.6329474449157715"><ele></ele><time>2014-10-15T18:20:19Z</time></trkpt>
<trkpt lat="46.3296966552734375" lon="7.6328349113464355"><ele></ele><time>2014-10-15T18:20:22Z</time></trkpt>
<trkpt lat="46.3296432495117188" lon="7.6327548027038574"><ele></ele><time>2014-10-15T18:20:25Z</time></trkpt>
<trkpt lat="46.3296089172363281" lon="7.6326284408569336"><ele></ele><time>2014-10-15T18:20:28Z</time></trkpt>
<trkpt lat="46.3295516967773438" lon="7.6325569152832031"><ele></ele><time>2014-10-15T18:20:31Z</time></trkpt>
<trkpt lat="46.3294906616210938" lon="7.6324768066406250"><ele></ele><time>2014-10-15T18:20:34Z</time></trkpt>
<trkpt lat="46.3294525146484375" lon="7.6323804855346680"><ele></ele><time>2014-10-15T18:20:37Z</time></trkpt>
<trkpt lat="46.3293991088867188" lon="7.6322870254516602"><ele></ele><time>2014-10-15T18:20:40Z</time></trkpt>
<trkpt lat="46.3293151855468750" lon="7.6321606636047363"><ele></ele><time>2014-10-15T18:20:43Z</time></trkpt>
<trkpt lat="46.3291320800781250" lon="7.6320180892944336"><ele></ele><time>2014-10-15T18:20:46Z</time></trkpt>
<trkpt lat="46.3289871215820312" lon="7.6318998336791992"><ele></ele><time>2014-10-15T18:20:49Z</time></trkpt>
<trkpt lat="46.3288803100585938" lon="7.6317696571350098"><ele></ele><time>2014-10-15T18:20:52Z</time></trkpt>
<trkpt lat="46.3287696838378906" lon="7.6316051483154297"><ele></ele><time>2014-10-15T18:20:55Z</time></trkpt>
<trkpt lat="46.3285751342773438" lon="7.6314001083374023"><ele></ele><time>2014-10-15T18:20:58Z</time></trkpt>
<trkpt lat="46.3283996582031250" lon="7.6312146186828613"><ele></ele><time>2014-10-15T18:21:1Z</time></trkpt>
<trkpt lat="46.3282623291015625" lon="7.6309394836425781"><ele></ele><time>2014-10-15T18:21:4Z</time></trkpt>
<trkpt lat="46.3280601501464844" lon="7.6307106018066406"><ele></ele><time>2014-10-15T18:21:7Z</time></trkpt>
<trkpt lat="46.3279342651367188" lon="7.6306080818176270"><ele></ele><time>2014-10-15T18:21:10Z</time></trkpt>
<trkpt lat="46.3276977539062500" lon="7.6306366920471191"><ele></ele><time>2014-10-15T18:21:13Z</time></trkpt>
<trkpt lat="46.3274383544921875" lon="7.6306581497192383"><ele></ele><time>2014-10-15T18:21:16Z</time></trkpt>
<trkpt lat="46.3271255493164062" lon="7.6305937767028809"><ele></ele><time>2014-10-15T18:21:19Z</time></trkpt>
<trkpt lat="46.3268280029296875" lon="7.6304202079772949"><ele></ele><time>2014-10-15T18:21:22Z</time></trkpt>
<trkpt lat="46.3266258239746094" lon="7.6303372383117676"><ele></ele><time>2014-10-15T18:21:25Z</time></trkpt>
<trkpt lat="46.3265800476074219" lon="7.6302280426025391"><ele></ele><time>2014-10-15T18:21:28Z</time></trkpt>
<trkpt lat="46.3264274597167969" lon="7.6300148963928223"><ele></ele><time>2014-10-15T18:21:31Z</time></trkpt>
<trkpt lat="46.3262748718261719" lon="7.6298718452453613"><ele></ele><time>2014-10-15T18:21:34Z</time></trkpt>
<trkpt lat="46.3257102966308594" lon="7.6293754577636719"><ele></ele><time>2014-10-15T18:21:37Z</time></trkpt>
<trkpt lat="46.3255577087402344" lon="7.6294503211975098"><ele></ele><time>2014-10-15T18:21:40Z</time></trkpt>
<trkpt lat="46.3254547119140625" lon="7.6295542716979980"><ele></ele><time>2014-10-15T18:21:43Z</time></trkpt>
<trkpt lat="46.3253707885742188" lon="7.6296715736389160"><ele></ele><time>2014-10-15T18:21:46Z</time></trkpt>
<trkpt lat="46.3252677917480469" lon="7.6297192573547363"><ele></ele><time>2014-10-15T18:21:49Z</time></trkpt>
<trkpt lat="46.3250999450683594" lon="7.6297249794006348"><ele></ele><time>2014-10-15T18:21:52Z</time></trkpt>
<trkpt lat="46.3249740600585938" lon="7.6297397613525391"><ele></ele><time>2014-10-15T18:21:55Z</time></trkpt>
<trkpt lat="46.3247528076171875" lon="7.6297235488891602"><ele></ele><time>2014-10-15T18:21:58Z</time></trkpt>
<trkpt lat="46.3246536254882812" lon="7.6296982765197754"><ele></ele><time>2014-10-15T18:22:1Z</time></trkpt>
<trkpt lat="46.3245277404785156" lon="7.6298079490661621"><ele></ele><time>2014-10-15T18:22:4Z</time></trkpt>
<trkpt lat="46.3244628906250000" lon="7.6299548149108887"><ele></ele><time>2014-10-15T18:22:7Z</time></trkpt>
<trkpt lat="46.3242912292480469" lon="7.6304521560668945"><ele></ele><time>2014-10-15T18:22:10Z</time></trkpt>
<trkpt lat="46.3242034912109375" lon="7.6306581497192383"><ele></ele><time>2014-10-15T18:22:13Z</time></trkpt>
<trkpt lat="46.3241539001464844" lon="7.6307110786437988"><ele></ele><time>2014-10-15T18:22:16Z</time></trkpt>
<trkpt lat="46.3238677978515625" lon="7.6304945945739746"><ele></ele><time>2014-10-15T18:22:19Z</time></trkpt>
<trkpt lat="46.3238067626953125" lon="7.6305856704711914"><ele></ele><time>2014-10-15T18:22:22Z</time></trkpt>
<trkpt lat="46.3237037658691406" lon="7.6308288574218750"><ele></ele><time>2014-10-15T18:22:25Z</time></trkpt>
<trkpt lat="46.3236274719238281" lon="7.6310644149780273"><ele></ele><time>2014-10-15T18:22:28Z</time></trkpt>
<trkpt lat="46.3235740661621094" lon="7.6311464309692383"><ele></ele><time>2014-10-15T18:22:31Z</time></trkpt>
<trkpt lat="46.3235206604003906" lon="7.6312303543090820"><ele></ele><time>2014-10-15T18:22:34Z</time></trkpt>
<trkpt lat="46.3234596252441406" lon="7.6312308311462402"><ele></ele><time>2014-10-15T18:22:37Z</time></trkpt>
<trkpt lat="46.3233489990234375" lon="7.6312313079833984"><ele></ele><time>2014-10-15T18:22:40Z</time></trkpt>
<trkpt lat="46.3232955932617188" lon="7.6311931610107422"><ele></ele><time>2014-10-15T18:22:43Z</time></trkpt>
<trkpt lat="46.3232307434082031" lon="7.6311821937561035"><ele></ele><time>2014-10-15T18:22:46Z</time></trkpt>
<trkpt lat="46.3231353759765625" lon="7.6311516761779785"><ele></ele><time>2014-10-15T18:22:49Z</time></trkpt>
<trkpt lat="46.3230667114257812" lon="7.6311612129211426"><ele></ele><time>2014-10-15T18:22:52Z</time></trkpt>
<trkpt lat="46.3229675292968750" lon="7.6313071250915527"><ele></ele><time>2014-10-15T18:22:55Z</time></trkpt>
<trkpt lat="46.3228759765625000" lon="7.6314048767089844"><ele></ele><time>2014-10-15T18:22:58Z</time></trkpt>
<trkpt lat="46.3227767944335938" lon="7.6315326690673828"><ele></ele><time>2014-10-15T18:23:1Z</time></trkpt>
<trkpt lat="46.3225440979003906" lon="7.6319308280944824"><ele></ele><time>2014-10-15T18:23:4Z</time></trkpt>
<trkpt lat="46.3224411010742188" lon="7.6321120262145996"><ele></ele><time>2014-10-15T18:23:7Z</time></trkpt>
<trkpt lat="46.3222122192382812" lon="7.6322159767150879"><ele></ele><time>2014-10-15T18:23:10Z</time></trkpt>
<trkpt lat="46.3220710754394531" lon="7.6323566436767578"><ele></ele><time>2014-10-15T18:23:13Z</time></trkpt>
<trkpt lat="46.3219451904296875" lon="7.6325941085815430"><ele></ele><time>2014-10-15T18:23:16Z</time></trkpt>
<trkpt lat="46.3217277526855469" lon="7.6327137947082520"><ele></ele><time>2014-10-15T18:23:19Z</time></trkpt>
<trkpt lat="46.3215026855468750" lon="7.6328458786010742"><ele></ele><time>2014-10-15T18:23:22Z</time></trkpt>
<trkpt lat="46.3212928771972656" lon="7.6329908370971680"><ele></ele><time>2014-10-15T18:23:25Z</time></trkpt>
<trkpt lat="46.3210639953613281" lon="7.6332201957702637"><ele></ele><time>2014-10-15T18:23:28Z</time></trkpt>
<trkpt lat="46.3208808898925781" lon="7.6335330009460449"><ele></ele><time>2014-10-15T18:23:31Z</time></trkpt>
<trkpt lat="46.3207817077636719" lon="7.6337289810180664"><ele></ele><time>2014-10-15T18:23:34Z</time></trkpt>
<trkpt lat="46.3207168579101562" lon="7.6340007781982422"><ele></ele><time>2014-10-15T18:23:37Z</time></trkpt>
<trkpt lat="46.3206710815429688" lon="7.6342067718505859"><ele></ele><time>2014-10-15T18:23:40Z</time></trkpt>
<trkpt lat="46.3205413818359375" lon="7.6344571113586426"><ele></ele><time>2014-10-15T18:23:43Z</time></trkpt>
<trkpt lat="46.3204345703125000" lon="7.6346092224121094"><ele></ele><time>2014-10-15T18:23:46Z</time></trkpt>
<trkpt lat="46.3203315734863281" lon="7.6348028182983398"><ele></ele><time>2014-10-15T18:23:49Z</time></trkpt>
<trkpt lat="46.3202438354492188" lon="7.6349225044250488"><ele></ele><time>2014-10-15T18:23:52Z</time></trkpt>
<trkpt lat="46.3201408386230469" lon="7.6351547241210938"><ele></ele><time>2014-10-15T18:23:55Z</time></trkpt>
<trkpt lat="46.3200454711914062" lon="7.6355047225952148"><ele></ele><time>2014-10-15T18:23:58Z</time></trkpt>
<trkpt lat="46.3199005126953125" lon="7.6358041763305664"><ele></ele><time>2014-10-15T18:24:1Z</time></trkpt>
<trkpt lat="46.3197555541992188" lon="7.6360421180725098"><ele></ele><time>2014-10-15T18:24:4Z</time></trkpt>
<trkpt lat="46.3196334838867188" lon="7.6361646652221680"><ele></ele><time>2014-10-15T18:24:7Z</time></trkpt>
<trkpt lat="46.3194770812988281" lon="7.6362318992614746"><ele></ele><time>2014-10-15T18:24:10Z</time></trkpt>
<trkpt lat="46.3192520141601562" lon="7.6363139152526855"><ele></ele><time>2014-10-15T18:24:13Z</time></trkpt>
<trkpt lat="46.3191184997558594" lon="7.6362686157226562"><ele></ele><time>2014-10-15T18:24:16Z</time></trkpt>
<trkpt lat="46.3190116882324219" lon="7.6361708641052246"><ele></ele><time>2014-10-15T18:24:19Z</time></trkpt>
<trkpt lat="46.3189010620117188" lon="7.6360759735107422"><ele></ele><time>2014-10-15T18:24:22Z</time></trkpt>
<trkpt lat="46.3187942504882812" lon="7.6359844207763672"><ele></ele><time>2014-10-15T18:24:25Z</time></trkpt>
<trkpt lat="46.3186149597167969" lon="7.6357998847961426"><ele></ele><time>2014-10-15T18:24:28Z</time></trkpt>
<trkpt lat="46.3185195922851562" lon="7.6355590820312500"><ele></ele><time>2014-10-15T18:24:31Z</time></trkpt>
<trkpt lat="46.3184509277343750" lon="7.6353354454040527"><ele></ele><time>2014-10-15T18:24:34Z</time></trkpt>
<trkpt lat="46.3183479309082031" lon="7.6351966857910156"><ele></ele><time>2014-10-15T18:24:37Z</time></trkpt>
<trkpt lat="46.3182449340820312" lon="7.6354541778564453"><ele></ele><time>2014-10-15T18:24:40Z</time></trkpt>
<trkpt lat="46.3181228637695312" lon="7.6357641220092773"><ele></ele><time>2014-10-15T18:24:43Z</time></trkpt>
<trkpt lat="46.3179931640625000" lon="7.6359701156616211"><ele></ele><time>2014-10-15T18:24:46Z</time></trkpt>
<trkpt lat="46.3178672790527344" lon="7.6361265182495117"><ele></ele><time>2014-10-15T18:24:49Z</time></trkpt>
<trkpt lat="46.3177490234375000" lon="7.6362171173095703"><ele></ele><time>2014-10-15T18:24:52Z</time></trkpt>
<trkpt lat="46.3177299499511719" lon="7.6361694335937500"><ele></ele><time>2014-10-15T18:24:55Z</time></trkpt>
<trkpt lat="46.3177375793457031" lon="7.6352381706237793"><ele></ele><time>2014-10-15T18:24:58Z</time></trkpt>
<trkpt lat="46.3177452087402344" lon="7.6348891258239746"><ele></ele><time>2014-10-15T18:25:1Z</time></trkpt>
<trkpt lat="46.3176040649414062" lon="7.6346092224121094"><ele></ele><time>2014-10-15T18:25:4Z</time></trkpt>
<trkpt lat="46.3173522949218750" lon="7.6345987319946289"><ele></ele><time>2014-10-15T18:25:7Z</time></trkpt>
<trkpt lat="46.3171463012695312" lon="7.6346297264099121"><ele></ele><time>2014-10-15T18:25:10Z</time></trkpt>
<trkpt lat="46.3167839050292969" lon="7.6344861984252930"><ele></ele><time>2014-10-15T18:25:13Z</time></trkpt>
<trkpt lat="46.3165245056152344" lon="7.6343731880187988"><ele></ele><time>2014-10-15T18:25:16Z</time></trkpt>
<trkpt lat="46.3164749145507812" lon="7.6343607902526855"><ele></ele><time>2014-10-15T18:25:19Z</time></trkpt>
<trkpt lat="46.3162193298339844" lon="7.6352458000183105"><ele></ele><time>2014-10-15T18:25:22Z</time></trkpt>
<trkpt lat="46.3161735534667969" lon="7.6354751586914062"><ele></ele><time>2014-10-15T18:25:25Z</time></trkpt>
<trkpt lat="46.3160820007324219" lon="7.6358928680419922"><ele></ele><time>2014-10-15T18:25:28Z</time></trkpt>
<trkpt lat="46.3160171508789062" lon="7.6361627578735352"><ele></ele><time>2014-10-15T18:25:31Z</time></trkpt>
<trkpt lat="46.3159484863281250" lon="7.6363377571105957"><ele></ele><time>2014-10-15T18:25:34Z</time></trkpt>
<trkpt lat="46.3158607482910156" lon="7.6363878250122070"><ele></ele><time>2014-10-15T18:25:37Z</time></trkpt>
<trkpt lat="46.3158569335937500" lon="7.6354379653930664"><ele></ele><time>2014-10-15T18:25:40Z</time></trkpt>
<trkpt lat="46.3158645629882812" lon="7.6351423263549805"><ele></ele><time>2014-10-15T18:25:43Z</time></trkpt>
<trkpt lat="46.3158760070800781" lon="7.6346974372863770"><ele></ele><time>2014-10-15T18:25:46Z</time></trkpt>
<trkpt lat="46.3158760070800781" lon="7.6341400146484375"><ele></ele><time>2014-10-15T18:25:49Z</time></trkpt>
<trkpt lat="46.3158721923828125" lon="7.6336860656738281"><ele></ele><time>2014-10-15T18:25:52Z</time></trkpt>
<trkpt lat="46.3158416748046875" lon="7.6335649490356445"><ele></ele><time>2014-10-15T18:25:55Z</time></trkpt>
<trkpt lat="46.3155021667480469" lon="7.6344819068908691"><ele></ele><time>2014-10-15T18:25:58Z</time></trkpt>
<trkpt lat="46.3154182434082031" lon="7.6349549293518066"><ele></ele><time>2014-10-15T18:26:1Z</time></trkpt>
<trkpt lat="46.3153915405273438" lon="7.6352710723876953"><ele></ele><time>2014-10-15T18:26:4Z</time></trkpt>
<trkpt lat="46.3152847290039062" lon="7.6355314254760742"><ele></ele><time>2014-10-15T18:26:7Z</time></trkpt>
<trkpt lat="46.3152122497558594" lon="7.6353263854980469"><ele></ele><time>2014-10-15T18:26:10Z</time></trkpt>
<trkpt lat="46.3151664733886719" lon="7.6350507736206055"><ele></ele><time>2014-10-15T18:26:13Z</time></trkpt>
<trkpt lat="46.3151550292968750" lon="7.6351308822631836"><ele></ele><time>2014-10-15T18:26:16Z</time></trkpt>
<trkpt lat="46.3151245117187500" lon="7.6355190277099609"><ele></ele><time>2014-10-15T18:26:19Z</time></trkpt>
<trkpt lat="46.3150749206542969" lon="7.6358709335327148"><ele></ele><time>2014-10-15T18:26:22Z</time></trkpt>
<trkpt lat="46.3148612976074219" lon="7.6361856460571289"><ele></ele><time>2014-10-15T18:26:25Z</time></trkpt>
<trkpt lat="46.3146781921386719" lon="7.6362895965576172"><ele></ele><time>2014-10-15T18:26:28Z</time></trkpt>
<trkpt lat="46.3143386840820312" lon="7.6364369392395020"><ele></ele><time>2014-10-15T18:26:31Z</time></trkpt>
<trkpt lat="46.3139915466308594" lon="7.6367907524108887"><ele></ele><time>2014-10-15T18:26:34Z</time></trkpt>
<trkpt lat="46.3138542175292969" lon="7.6371865272521973"><ele></ele><time>2014-10-15T18:26:37Z</time></trkpt>
<trkpt lat="46.3138427734375000" lon="7.6375365257263184"><ele></ele><time>2014-10-15T18:26:40Z</time></trkpt>
<trkpt lat="46.3138046264648438" lon="7.6380662918090820"><ele></ele><time>2014-10-15T18:26:43Z</time></trkpt>
<trkpt lat="46.3136215209960938" lon="7.6385812759399414"><ele></ele><time>2014-10-15T18:26:46Z</time></trkpt>
<trkpt lat="46.3134918212890625" lon="7.6388878822326660"><ele></ele><time>2014-10-15T18:26:49Z</time></trkpt>
<trkpt lat="46.3134346008300781" lon="7.6391582489013672"><ele></ele><time>2014-10-15T18:26:52Z</time></trkpt>
<trkpt lat="46.3133926391601562" lon="7.6394433975219727"><ele></ele><time>2014-10-15T18:26:55Z</time></trkpt>
<trkpt lat="46.3133583068847656" lon="7.6395163536071777"><ele></ele><time>2014-10-15T18:26:58Z</time></trkpt>
<trkpt lat="46.3133697509765625" lon="7.6395111083984375"><ele></ele><time>2014-10-15T18:27:1Z</time></trkpt>
<trkpt lat="46.3133277893066406" lon="7.6396074295043945"><ele></ele><time>2014-10-15T18:27:4Z</time></trkpt>
<trkpt lat="46.3135147094726562" lon="7.6400356292724609"><ele></ele><time>2014-10-15T18:27:7Z</time></trkpt>
<trkpt lat="46.3135299682617188" lon="7.6408505439758301"><ele></ele><time>2014-10-15T18:27:10Z</time></trkpt>
<trkpt lat="46.3135070800781250" lon="7.6411566734313965"><ele></ele><time>2014-10-15T18:27:13Z</time></trkpt>
<trkpt lat="46.3134231567382812" lon="7.6414422988891602"><ele></ele><time>2014-10-15T18:27:16Z</time></trkpt>
<trkpt lat="46.3133087158203125" lon="7.6419034004211426"><ele></ele><time>2014-10-15T18:27:19Z</time></trkpt>
<trkpt lat="46.3132934570312500" lon="7.6423749923706055"><ele></ele><time>2014-10-15T18:27:22Z</time></trkpt>
<trkpt lat="46.3132629394531250" lon="7.6426515579223633"><ele></ele><time>2014-10-15T18:27:25Z</time></trkpt>
<trkpt lat="46.3131790161132812" lon="7.6430177688598633"><ele></ele><time>2014-10-15T18:27:28Z</time></trkpt>
<trkpt lat="46.3130645751953125" lon="7.6433458328247070"><ele></ele><time>2014-10-15T18:27:31Z</time></trkpt>
<trkpt lat="46.3130683898925781" lon="7.6436524391174316"><ele></ele><time>2014-10-15T18:27:34Z</time></trkpt>
<trkpt lat="46.3130645751953125" lon="7.6438536643981934"><ele></ele><time>2014-10-15T18:27:37Z</time></trkpt>
<trkpt lat="46.3130874633789062" lon="7.6440296173095703"><ele></ele><time>2014-10-15T18:27:40Z</time></trkpt>
<trkpt lat="46.3131027221679688" lon="7.6441454887390137"><ele></ele><time>2014-10-15T18:27:43Z</time></trkpt>
<trkpt lat="46.3131141662597656" lon="7.6443176269531250"><ele></ele><time>2014-10-15T18:27:46Z</time></trkpt>
<trkpt lat="46.3131294250488281" lon="7.6444964408874512"><ele></ele><time>2014-10-15T18:27:49Z</time></trkpt>
<trkpt lat="46.3131217956542969" lon="7.6446571350097656"><ele></ele><time>2014-10-15T18:27:52Z</time></trkpt>
<trkpt lat="46.3131103515625000" lon="7.6448440551757812"><ele></ele><time>2014-10-15T18:27:55Z</time></trkpt>
<trkpt lat="46.3130989074707031" lon="7.6450209617614746"><ele></ele><time>2014-10-15T18:27:58Z</time></trkpt>
<trkpt lat="46.3130836486816406" lon="7.6452126502990723"><ele></ele><time>2014-10-15T18:28:1Z</time></trkpt>
<trkpt lat="46.3130874633789062" lon="7.6454067230224609"><ele></ele><time>2014-10-15T18:28:4Z</time></trkpt>
<trkpt lat="46.3130798339843750" lon="7.6455283164978027"><ele></ele><time>2014-10-15T18:28:7Z</time></trkpt>
<trkpt lat="46.3130607604980469" lon="7.6456065177917480"><ele></ele><time>2014-10-15T18:28:10Z</time></trkpt>
<trkpt lat="46.3130340576171875" lon="7.6457118988037109"><ele></ele><time>2014-10-15T18:28:13Z</time></trkpt>
<trkpt lat="46.3130264282226562" lon="7.6457886695861816"><ele></ele><time>2014-10-15T18:28:16Z</time></trkpt>
<trkpt lat="46.3130149841308594" lon="7.6458668708801270"><ele></ele><time>2014-10-15T18:28:19Z</time></trkpt>
<trkpt lat="46.3130035400390625" lon="7.6459465026855469"><ele></ele><time>2014-10-15T18:28:22Z</time></trkpt>
<trkpt lat="46.3129730224609375" lon="7.6460695266723633"><ele></ele><time>2014-10-15T18:28:25Z</time></trkpt>
<trkpt lat="46.3129348754882812" lon="7.6461977958679199"><ele></ele><time>2014-10-15T18:28:28Z</time></trkpt>
<trkpt lat="46.3129081726074219" lon="7.6463236808776855"><ele></ele><time>2014-10-15T18:28:31Z</time></trkpt>
<trkpt lat="46.3129005432128906" lon="7.6464252471923828"><ele></ele><time>2014-10-15T18:28:34Z</time></trkpt>
<trkpt lat="46.3128852844238281" lon="7.6465692520141602"><ele></ele><time>2014-10-15T18:28:37Z</time></trkpt>
<trkpt lat="46.3128471374511719" lon="7.6466941833496094"><ele></ele><time>2014-10-15T18:28:40Z</time></trkpt>
<trkpt lat="46.3128013610839844" lon="7.6468691825866699"><ele></ele><time>2014-10-15T18:28:43Z</time></trkpt>
<trkpt lat="46.3127593994140625" lon="7.6470088958740234"><ele></ele><time>2014-10-15T18:28:46Z</time></trkpt>
<trkpt lat="46.3127136230468750" lon="7.6471686363220215"><ele></ele><time>2014-10-15T18:28:49Z</time></trkpt>
<trkpt lat="46.3126411437988281" lon="7.6474132537841797"><ele></ele><time>2014-10-15T18:28:52Z</time></trkpt>
<trkpt lat="46.3125839233398438" lon="7.6476573944091797"><ele></ele><time>2014-10-15T18:28:55Z</time></trkpt>
<trkpt lat="46.3125495910644531" lon="7.6478281021118164"><ele></ele><time>2014-10-15T18:28:58Z</time></trkpt>
<trkpt lat="46.3124961853027344" lon="7.6480188369750977"><ele></ele><time>2014-10-15T18:29:1Z</time></trkpt>
<trkpt lat="46.3124046325683594" lon="7.6483364105224609"><ele></ele><time>2014-10-15T18:29:4Z</time></trkpt>
<trkpt lat="46.3123474121093750" lon="7.6485590934753418"><ele></ele><time>2014-10-15T18:29:7Z</time></trkpt>
<trkpt lat="46.3122787475585938" lon="7.6489877700805664"><ele></ele><time>2014-10-15T18:29:10Z</time></trkpt>
<trkpt lat="46.3122253417968750" lon="7.6493911743164062"><ele></ele><time>2014-10-15T18:29:13Z</time></trkpt>
<trkpt lat="46.3122215270996094" lon="7.6497454643249512"><ele></ele><time>2014-10-15T18:29:16Z</time></trkpt>
<trkpt lat="46.3121757507324219" lon="7.6499428749084473"><ele></ele><time>2014-10-15T18:29:19Z</time></trkpt>
<trkpt lat="46.3120765686035156" lon="7.6501288414001465"><ele></ele><time>2014-10-15T18:29:22Z</time></trkpt>
<trkpt lat="46.3119201660156250" lon="7.6501293182373047"><ele></ele><time>2014-10-15T18:29:25Z</time></trkpt>
<trkpt lat="46.3117408752441406" lon="7.6501746177673340"><ele></ele><time>2014-10-15T18:29:28Z</time></trkpt>
<trkpt lat="46.3115463256835938" lon="7.6502337455749512"><ele></ele><time>2014-10-15T18:29:31Z</time></trkpt>
<trkpt lat="46.3114128112792969" lon="7.6502714157104492"><ele></ele><time>2014-10-15T18:29:34Z</time></trkpt>
<trkpt lat="46.3112106323242188" lon="7.6503863334655762"><ele></ele><time>2014-10-15T18:29:37Z</time></trkpt>
<trkpt lat="46.3111190795898438" lon="7.6504817008972168"><ele></ele><time>2014-10-15T18:29:40Z</time></trkpt>
<trkpt lat="46.3109893798828125" lon="7.6506829261779785"><ele></ele><time>2014-10-15T18:29:43Z</time></trkpt>
<trkpt lat="46.3109169006347656" lon="7.6508312225341797"><ele></ele><time>2014-10-15T18:29:46Z</time></trkpt>
<trkpt lat="46.3108177185058594" lon="7.6510639190673828"><ele></ele><time>2014-10-15T18:29:49Z</time></trkpt>
<trkpt lat="46.3107109069824219" lon="7.6512746810913086"><ele></ele><time>2014-10-15T18:29:52Z</time></trkpt>
<trkpt lat="46.3105697631835938" lon="7.6514539718627930"><ele></ele><time>2014-10-15T18:29:55Z</time></trkpt>
<trkpt lat="46.3104667663574219" lon="7.6515784263610840"><ele></ele><time>2014-10-15T18:29:58Z</time></trkpt>
<trkpt lat="46.3102951049804688" lon="7.6516962051391602"><ele></ele><time>2014-10-15T18:30:1Z</time></trkpt>
<trkpt lat="46.3101959228515625" lon="7.6518626213073730"><ele></ele><time>2014-10-15T18:30:4Z</time></trkpt>
<trkpt lat="46.3101272583007812" lon="7.6520099639892578"><ele></ele><time>2014-10-15T18:30:7Z</time></trkpt>
<trkpt lat="46.3100318908691406" lon="7.6521677970886230"><ele></ele><time>2014-10-15T18:30:10Z</time></trkpt>
<trkpt lat="46.3099975585937500" lon="7.6523842811584473"><ele></ele><time>2014-10-15T18:30:13Z</time></trkpt>
<trkpt lat="46.3099555969238281" lon="7.6525497436523438"><ele></ele><time>2014-10-15T18:30:16Z</time></trkpt>
<trkpt lat="46.3099250793457031" lon="7.6527266502380371"><ele></ele><time>2014-10-15T18:30:19Z</time></trkpt>
<trkpt lat="46.3098831176757812" lon="7.6530013084411621"><ele></ele><time>2014-10-15T18:30:22Z</time></trkpt>
<trkpt lat="46.3098487854003906" lon="7.6533145904541016"><ele></ele><time>2014-10-15T18:30:25Z</time></trkpt>
<trkpt lat="46.3098335266113281" lon="7.6535348892211914"><ele></ele><time>2014-10-15T18:30:28Z</time></trkpt>
<trkpt lat="46.3098144531250000" lon="7.6538567543029785"><ele></ele><time>2014-10-15T18:30:31Z</time></trkpt>
<trkpt lat="46.3098030090332031" lon="7.6540198326110840"><ele></ele><time>2014-10-15T18:30:34Z</time></trkpt>
<trkpt lat="46.3097686767578125" lon="7.6541709899902344"><ele></ele><time>2014-10-15T18:30:37Z</time></trkpt>
<trkpt lat="46.3097305297851562" lon="7.6542930603027344"><ele></ele><time>2014-10-15T18:30:40Z</time></trkpt>
<trkpt lat="46.3096694946289062" lon="7.6544919013977051"><ele></ele><time>2014-10-15T18:30:43Z</time></trkpt>
<trkpt lat="46.3096313476562500" lon="7.6546630859375000"><ele></ele><time>2014-10-15T18:30:46Z</time></trkpt>
<trkpt lat="46.3096237182617188" lon="7.6549592018127441"><ele></ele><time>2014-10-15T18:30:49Z</time></trkpt>
<trkpt lat="46.3096160888671875" lon="7.6551065444946289"><ele></ele><time>2014-10-15T18:30:52Z</time></trkpt>
<trkpt lat="46.3096046447753906" lon="7.6551766395568848"><ele></ele><time>2014-10-15T18:30:55Z</time></trkpt>
<trkpt lat="46.3095932006835938" lon="7.6552371978759766"><ele></ele><time>2014-10-15T18:30:58Z</time></trkpt>
<trkpt lat="46.3095855712890625" lon="7.6553239822387695"><ele></ele><time>2014-10-15T18:31:1Z</time></trkpt>
<trkpt lat="46.3095588684082031" lon="7.6554031372070312"><ele></ele><time>2014-10-15T18:31:4Z</time></trkpt>
<trkpt lat="46.3095397949218750" lon="7.6554560661315918"><ele></ele><time>2014-10-15T18:31:7Z</time></trkpt>
<trkpt lat="46.3095207214355469" lon="7.6555285453796387"><ele></ele><time>2014-10-15T18:31:10Z</time></trkpt>
<trkpt lat="46.3095092773437500" lon="7.6556053161621094"><ele></ele><time>2014-10-15T18:31:13Z</time></trkpt>
<trkpt lat="46.3095092773437500" lon="7.6556582450866699"><ele></ele><time>2014-10-15T18:31:16Z</time></trkpt>
<trkpt lat="46.3094940185546875" lon="7.6557359695434570"><ele></ele><time>2014-10-15T18:31:19Z</time></trkpt>
<trkpt lat="46.3094787597656250" lon="7.6557836532592773"><ele></ele><time>2014-10-15T18:31:22Z</time></trkpt>
<trkpt lat="46.3094978332519531" lon="7.6558432579040527"><ele></ele><time>2014-10-15T18:31:25Z</time></trkpt>
<trkpt lat="46.3095359802246094" lon="7.6559219360351562"><ele></ele><time>2014-10-15T18:31:28Z</time></trkpt>
<trkpt lat="46.3095359802246094" lon="7.6559753417968750"><ele></ele><time>2014-10-15T18:31:31Z</time></trkpt>
<trkpt lat="46.3095169067382812" lon="7.6560945510864258"><ele></ele><time>2014-10-15T18:31:34Z</time></trkpt>
<trkpt lat="46.3094711303710938" lon="7.6562809944152832"><ele></ele><time>2014-10-15T18:31:37Z</time></trkpt>
<trkpt lat="46.3094482421875000" lon="7.6564006805419922"><ele></ele><time>2014-10-15T18:31:40Z</time></trkpt>
<trkpt lat="46.3094215393066406" lon="7.6565327644348145"><ele></ele><time>2014-10-15T18:31:43Z</time></trkpt>
<trkpt lat="46.3093643188476562" lon="7.6567640304565430"><ele></ele><time>2014-10-15T18:31:46Z</time></trkpt>
<trkpt lat="46.3093147277832031" lon="7.6569948196411133"><ele></ele><time>2014-10-15T18:31:49Z</time></trkpt>
<trkpt lat="46.3093032836914062" lon="7.6571936607360840"><ele></ele><time>2014-10-15T18:31:52Z</time></trkpt>
<trkpt lat="46.3092498779296875" lon="7.6574048995971680"><ele></ele><time>2014-10-15T18:31:55Z</time></trkpt>
<trkpt lat="46.3091506958007812" lon="7.6576581001281738"><ele></ele><time>2014-10-15T18:31:58Z</time></trkpt>
<trkpt lat="46.3091049194335938" lon="7.6579370498657227"><ele></ele><time>2014-10-15T18:32:1Z</time></trkpt>
<trkpt lat="46.3091049194335938" lon="7.6580386161804199"><ele></ele><time>2014-10-15T18:32:4Z</time></trkpt>
<trkpt lat="46.3090896606445312" lon="7.6581983566284180"><ele></ele><time>2014-10-15T18:32:7Z</time></trkpt>
<trkpt lat="46.3090591430664062" lon="7.6583938598632812"><ele></ele><time>2014-10-15T18:32:10Z</time></trkpt>
<trkpt lat="46.3089752197265625" lon="7.6585903167724609"><ele></ele><time>2014-10-15T18:32:13Z</time></trkpt>
<trkpt lat="46.3087501525878906" lon="7.6590437889099121"><ele></ele><time>2014-10-15T18:32:16Z</time></trkpt>
<trkpt lat="46.3086853027343750" lon="7.6592292785644531"><ele></ele><time>2014-10-15T18:32:19Z</time></trkpt>
<trkpt lat="46.3086509704589844" lon="7.6593608856201172"><ele></ele><time>2014-10-15T18:32:22Z</time></trkpt>
<trkpt lat="46.3085937500000000" lon="7.6595005989074707"><ele></ele><time>2014-10-15T18:32:25Z</time></trkpt>
<trkpt lat="46.3085479736328125" lon="7.6596536636352539"><ele></ele><time>2014-10-15T18:32:28Z</time></trkpt>
<trkpt lat="46.3084793090820312" lon="7.6599020957946777"><ele></ele><time>2014-10-15T18:32:31Z</time></trkpt>
<trkpt lat="46.3084297180175781" lon="7.6600232124328613"><ele></ele><time>2014-10-15T18:32:34Z</time></trkpt>
<trkpt lat="46.3083381652832031" lon="7.6601862907409668"><ele></ele><time>2014-10-15T18:32:37Z</time></trkpt>
<trkpt lat="46.3082656860351562" lon="7.6603889465332031"><ele></ele><time>2014-10-15T18:32:40Z</time></trkpt>
<trkpt lat="46.3082046508789062" lon="7.6606116294860840"><ele></ele><time>2014-10-15T18:32:43Z</time></trkpt>
<trkpt lat="46.3081588745117188" lon="7.6608171463012695"><ele></ele><time>2014-10-15T18:32:46Z</time></trkpt>
<trkpt lat="46.3081359863281250" lon="7.6611309051513672"><ele></ele><time>2014-10-15T18:32:49Z</time></trkpt>
<trkpt lat="46.3081092834472656" lon="7.6613430976867676"><ele></ele><time>2014-10-15T18:32:52Z</time></trkpt>
<trkpt lat="46.3080711364746094" lon="7.6615543365478516"><ele></ele><time>2014-10-15T18:32:55Z</time></trkpt>
<trkpt lat="46.3079566955566406" lon="7.6618251800537109"><ele></ele><time>2014-10-15T18:32:58Z</time></trkpt>
<trkpt lat="46.3078994750976562" lon="7.6621060371398926"><ele></ele><time>2014-10-15T18:33:1Z</time></trkpt>
<trkpt lat="46.3078689575195312" lon="7.6622762680053711"><ele></ele><time>2014-10-15T18:33:4Z</time></trkpt>
<trkpt lat="46.3078079223632812" lon="7.6625499725341797"><ele></ele><time>2014-10-15T18:33:7Z</time></trkpt>
<trkpt lat="46.3077316284179688" lon="7.6628127098083496"><ele></ele><time>2014-10-15T18:33:10Z</time></trkpt>
<trkpt lat="46.3076934814453125" lon="7.6629900932312012"><ele></ele><time>2014-10-15T18:33:13Z</time></trkpt>
<trkpt lat="46.3076362609863281" lon="7.6632637977600098"><ele></ele><time>2014-10-15T18:33:16Z</time></trkpt>
<trkpt lat="46.3075714111328125" lon="7.6635489463806152"><ele></ele><time>2014-10-15T18:33:19Z</time></trkpt>
<trkpt lat="46.3075294494628906" lon="7.6637363433837891"><ele></ele><time>2014-10-15T18:33:22Z</time></trkpt>
<trkpt lat="46.3074874877929688" lon="7.6639199256896973"><ele></ele><time>2014-10-15T18:33:25Z</time></trkpt>
<trkpt lat="46.3074226379394531" lon="7.6642055511474609"><ele></ele><time>2014-10-15T18:33:28Z</time></trkpt>
<trkpt lat="46.3073806762695312" lon="7.6643934249877930"><ele></ele><time>2014-10-15T18:33:31Z</time></trkpt>
<trkpt lat="46.3073196411132812" lon="7.6646819114685059"><ele></ele><time>2014-10-15T18:33:34Z</time></trkpt>
<trkpt lat="46.3072662353515625" lon="7.6649432182312012"><ele></ele><time>2014-10-15T18:33:37Z</time></trkpt>
<trkpt lat="46.3072013854980469" lon="7.6652636528015137"><ele></ele><time>2014-10-15T18:33:40Z</time></trkpt>
<trkpt lat="46.3071441650390625" lon="7.6655511856079102"><ele></ele><time>2014-10-15T18:33:43Z</time></trkpt>
<trkpt lat="46.3070907592773438" lon="7.6658191680908203"><ele></ele><time>2014-10-15T18:33:46Z</time></trkpt>
<trkpt lat="46.3070564270019531" lon="7.6660070419311523"><ele></ele><time>2014-10-15T18:33:49Z</time></trkpt>
<trkpt lat="46.3070030212402344" lon="7.6662907600402832"><ele></ele><time>2014-10-15T18:33:52Z</time></trkpt>
<trkpt lat="46.3069534301757812" lon="7.6665835380554199"><ele></ele><time>2014-10-15T18:33:55Z</time></trkpt>
<trkpt lat="46.3069038391113281" lon="7.6669025421142578"><ele></ele><time>2014-10-15T18:33:58Z</time></trkpt>
<trkpt lat="46.3068580627441406" lon="7.6671981811523438"><ele></ele><time>2014-10-15T18:34:1Z</time></trkpt>
<trkpt lat="46.3068275451660156" lon="7.6673970222473145"><ele></ele><time>2014-10-15T18:34:4Z</time></trkpt>
<trkpt lat="46.3067970275878906" lon="7.6675877571105957"><ele></ele><time>2014-10-15T18:34:7Z</time></trkpt>
<trkpt lat="46.3067550659179688" lon="7.6678752899169922"><ele></ele><time>2014-10-15T18:34:10Z</time></trkpt>
<trkpt lat="46.3067131042480469" lon="7.6681547164916992"><ele></ele><time>2014-10-15T18:34:13Z</time></trkpt>
<trkpt lat="46.3066864013671875" lon="7.6683449745178223"><ele></ele><time>2014-10-15T18:34:16Z</time></trkpt>
<trkpt lat="46.3066558837890625" lon="7.6685409545898438"><ele></ele><time>2014-10-15T18:34:19Z</time></trkpt>
<trkpt lat="46.3066177368164062" lon="7.6688475608825684"><ele></ele><time>2014-10-15T18:34:22Z</time></trkpt>
<trkpt lat="46.3065948486328125" lon="7.6690406799316406"><ele></ele><time>2014-10-15T18:34:25Z</time></trkpt>
<trkpt lat="46.3065605163574219" lon="7.6693348884582520"><ele></ele><time>2014-10-15T18:34:28Z</time></trkpt>
<trkpt lat="46.3065299987792969" lon="7.6695809364318848"><ele></ele><time>2014-10-15T18:34:31Z</time></trkpt>
<trkpt lat="46.3065147399902344" lon="7.6697397232055664"><ele></ele><time>2014-10-15T18:34:34Z</time></trkpt>
<trkpt lat="46.3065032958984375" lon="7.6700029373168945"><ele></ele><time>2014-10-15T18:34:37Z</time></trkpt>
<trkpt lat="46.3064727783203125" lon="7.6702308654785156"><ele></ele><time>2014-10-15T18:34:40Z</time></trkpt>
<trkpt lat="46.3064384460449219" lon="7.6703138351440430"><ele></ele><time>2014-10-15T18:34:43Z</time></trkpt>
<trkpt lat="46.3063316345214844" lon="7.6703295707702637"><ele></ele><time>2014-10-15T18:34:46Z</time></trkpt>
<trkpt lat="46.3062515258789062" lon="7.6703214645385742"><ele></ele><time>2014-10-15T18:34:49Z</time></trkpt>
<trkpt lat="46.3061447143554688" lon="7.6703052520751953"><ele></ele><time>2014-10-15T18:34:52Z</time></trkpt>
<trkpt lat="46.3060798645019531" lon="7.6702971458435059"><ele></ele><time>2014-10-15T18:34:55Z</time></trkpt>
<trkpt lat="46.3059844970703125" lon="7.6702852249145508"><ele></ele><time>2014-10-15T18:34:58Z</time></trkpt>
<trkpt lat="46.3059196472167969" lon="7.6702756881713867"><ele></ele><time>2014-10-15T18:35:1Z</time></trkpt>
<trkpt lat="46.3058586120605469" lon="7.6702675819396973"><ele></ele><time>2014-10-15T18:35:4Z</time></trkpt>
<trkpt lat="46.3057594299316406" lon="7.6702466011047363"><ele></ele><time>2014-10-15T18:35:7Z</time></trkpt>
<trkpt lat="46.3056449890136719" lon="7.6702260971069336"><ele></ele><time>2014-10-15T18:35:10Z</time></trkpt>
<trkpt lat="46.3055267333984375" lon="7.6702113151550293"><ele></ele><time>2014-10-15T18:35:13Z</time></trkpt>
<trkpt lat="46.3054084777832031" lon="7.6702113151550293"><ele></ele><time>2014-10-15T18:35:16Z</time></trkpt>
<trkpt lat="46.3053359985351562" lon="7.6702170372009277"><ele></ele><time>2014-10-15T18:35:19Z</time></trkpt>
<trkpt lat="46.3051986694335938" lon="7.6701955795288086"><ele></ele><time>2014-10-15T18:35:22Z</time></trkpt>
<trkpt lat="46.3050041198730469" lon="7.6701927185058594"><ele></ele><time>2014-10-15T18:35:25Z</time></trkpt>
<trkpt lat="46.3047485351562500" lon="7.6701598167419434"><ele></ele><time>2014-10-15T18:35:28Z</time></trkpt>
<trkpt lat="46.3044548034667969" lon="7.6701188087463379"><ele></ele><time>2014-10-15T18:35:31Z</time></trkpt>
<trkpt lat="46.3042564392089844" lon="7.6700882911682129"><ele></ele><time>2014-10-15T18:35:34Z</time></trkpt>
<trkpt lat="46.3041839599609375" lon="7.6700782775878906"><ele></ele><time>2014-10-15T18:35:37Z</time></trkpt>
<trkpt lat="46.3040466308593750" lon="7.6703314781188965"><ele></ele><time>2014-10-15T18:35:40Z</time></trkpt>
<trkpt lat="46.3040351867675781" lon="7.6703457832336426"><ele></ele><time>2014-10-15T18:35:43Z</time></trkpt>
<trkpt lat="46.3041152954101562" lon="7.6707863807678223"><ele></ele><time>2014-10-15T18:35:46Z</time></trkpt>
<trkpt lat="46.3041305541992188" lon="7.6710014343261719"><ele></ele><time>2014-10-15T18:35:49Z</time></trkpt>
<trkpt lat="46.3041648864746094" lon="7.6712431907653809"><ele></ele><time>2014-10-15T18:35:52Z</time></trkpt>
<trkpt lat="46.3041954040527344" lon="7.6715836524963379"><ele></ele><time>2014-10-15T18:35:55Z</time></trkpt>
<trkpt lat="46.3042335510253906" lon="7.6719355583190918"><ele></ele><time>2014-10-15T18:35:58Z</time></trkpt>
<trkpt lat="46.3042640686035156" lon="7.6721706390380859"><ele></ele><time>2014-10-15T18:36:1Z</time></trkpt>
<trkpt lat="46.3042984008789062" lon="7.6725559234619141"><ele></ele><time>2014-10-15T18:36:4Z</time></trkpt>
<trkpt lat="46.3043289184570312" lon="7.6729202270507812"><ele></ele><time>2014-10-15T18:36:7Z</time></trkpt>
<trkpt lat="46.3043518066406250" lon="7.6731562614440918"><ele></ele><time>2014-10-15T18:36:10Z</time></trkpt>
<trkpt lat="46.3044013977050781" lon="7.6735091209411621"><ele></ele><time>2014-10-15T18:36:13Z</time></trkpt>
<trkpt lat="46.3044509887695312" lon="7.6738476753234863"><ele></ele><time>2014-10-15T18:36:16Z</time></trkpt>
<trkpt lat="46.3044776916503906" lon="7.6740889549255371"><ele></ele><time>2014-10-15T18:36:19Z</time></trkpt>
<trkpt lat="46.3045005798339844" lon="7.6743369102478027"><ele></ele><time>2014-10-15T18:36:22Z</time></trkpt>
<trkpt lat="46.3045501708984375" lon="7.6746850013732910"><ele></ele><time>2014-10-15T18:36:25Z</time></trkpt>
<trkpt lat="46.3045883178710938" lon="7.6748995780944824"><ele></ele><time>2014-10-15T18:36:28Z</time></trkpt>
<trkpt lat="46.3045883178710938" lon="7.6751537322998047"><ele></ele><time>2014-10-15T18:36:31Z</time></trkpt>
<trkpt lat="46.3044357299804688" lon="7.6751646995544434"><ele></ele><time>2014-10-15T18:36:34Z</time></trkpt>
<trkpt lat="46.3042068481445312" lon="7.6751322746276855"><ele></ele><time>2014-10-15T18:36:37Z</time></trkpt>
<trkpt lat="46.3040466308593750" lon="7.6751012802124023"><ele></ele><time>2014-10-15T18:36:40Z</time></trkpt>
<trkpt lat="46.3038864135742188" lon="7.6750855445861816"><ele></ele><time>2014-10-15T18:36:43Z</time></trkpt>
<trkpt lat="46.3037338256835938" lon="7.6750426292419434"><ele></ele><time>2014-10-15T18:36:46Z</time></trkpt>
<trkpt lat="46.3035202026367188" lon="7.6750073432922363"><ele></ele><time>2014-10-15T18:36:49Z</time></trkpt>
<trkpt lat="46.3033409118652344" lon="7.6748404502868652"><ele></ele><time>2014-10-15T18:36:52Z</time></trkpt>
<trkpt lat="46.3032493591308594" lon="7.6747264862060547"><ele></ele><time>2014-10-15T18:36:55Z</time></trkpt>
<trkpt lat="46.3031578063964844" lon="7.6747345924377441"><ele></ele><time>2014-10-15T18:36:58Z</time></trkpt>
<trkpt lat="46.3030090332031250" lon="7.6748909950256348"><ele></ele><time>2014-10-15T18:37:1Z</time></trkpt>
<trkpt lat="46.3028640747070312" lon="7.6751065254211426"><ele></ele><time>2014-10-15T18:37:4Z</time></trkpt>
<trkpt lat="46.3027496337890625" lon="7.6752295494079590"><ele></ele><time>2014-10-15T18:37:7Z</time></trkpt>
<trkpt lat="46.3026657104492188" lon="7.6753649711608887"><ele></ele><time>2014-10-15T18:37:10Z</time></trkpt>
<trkpt lat="46.3026924133300781" lon="7.6755952835083008"><ele></ele><time>2014-10-15T18:37:13Z</time></trkpt>
<trkpt lat="46.3028106689453125" lon="7.6758708953857422"><ele></ele><time>2014-10-15T18:37:16Z</time></trkpt>
<trkpt lat="46.3028831481933594" lon="7.6760759353637695"><ele></ele><time>2014-10-15T18:37:19Z</time></trkpt>
<trkpt lat="46.3029518127441406" lon="7.6764135360717773"><ele></ele><time>2014-10-15T18:37:22Z</time></trkpt>
<trkpt lat="46.3030014038085938" lon="7.6767754554748535"><ele></ele><time>2014-10-15T18:37:25Z</time></trkpt>
<trkpt lat="46.3030242919921875" lon="7.6769876480102539"><ele></ele><time>2014-10-15T18:37:28Z</time></trkpt>
<trkpt lat="46.3030586242675781" lon="7.6773357391357422"><ele></ele><time>2014-10-15T18:37:31Z</time></trkpt>
<trkpt lat="46.3030891418457031" lon="7.6776800155639648"><ele></ele><time>2014-10-15T18:37:34Z</time></trkpt>
<trkpt lat="46.3031196594238281" lon="7.6779913902282715"><ele></ele><time>2014-10-15T18:37:37Z</time></trkpt>
<trkpt lat="46.3031845092773438" lon="7.6782865524291992"><ele></ele><time>2014-10-15T18:37:40Z</time></trkpt>
<trkpt lat="46.3032188415527344" lon="7.6785001754760742"><ele></ele><time>2014-10-15T18:37:43Z</time></trkpt>
<trkpt lat="46.3032493591308594" lon="7.6786890029907227"><ele></ele><time>2014-10-15T18:37:46Z</time></trkpt>
<trkpt lat="46.3032989501953125" lon="7.6789832115173340"><ele></ele><time>2014-10-15T18:37:49Z</time></trkpt>
<trkpt lat="46.3033561706542969" lon="7.6792058944702148"><ele></ele><time>2014-10-15T18:37:52Z</time></trkpt>
<trkpt lat="46.3033828735351562" lon="7.6794013977050781"><ele></ele><time>2014-10-15T18:37:55Z</time></trkpt>
<trkpt lat="46.3034210205078125" lon="7.6796865463256836"><ele></ele><time>2014-10-15T18:37:58Z</time></trkpt>
<trkpt lat="46.3034706115722656" lon="7.6799888610839844"><ele></ele><time>2014-10-15T18:38:1Z</time></trkpt>
<trkpt lat="46.3035125732421875" lon="7.6801962852478027"><ele></ele><time>2014-10-15T18:38:4Z</time></trkpt>
<trkpt lat="46.3035736083984375" lon="7.6804847717285156"><ele></ele><time>2014-10-15T18:38:7Z</time></trkpt>
<trkpt lat="46.3036193847656250" lon="7.6806693077087402"><ele></ele><time>2014-10-15T18:38:10Z</time></trkpt>
<trkpt lat="46.3037147521972656" lon="7.6809811592102051"><ele></ele><time>2014-10-15T18:38:13Z</time></trkpt>
<trkpt lat="46.3037796020507812" lon="7.6811656951904297"><ele></ele><time>2014-10-15T18:38:16Z</time></trkpt>
<trkpt lat="46.3038482666015625" lon="7.6813502311706543"><ele></ele><time>2014-10-15T18:38:19Z</time></trkpt>
<trkpt lat="46.3039703369140625" lon="7.6816458702087402"><ele></ele><time>2014-10-15T18:38:22Z</time></trkpt>
<trkpt lat="46.3040504455566406" lon="7.6819653511047363"><ele></ele><time>2014-10-15T18:38:25Z</time></trkpt>
<trkpt lat="46.3040924072265625" lon="7.6821808815002441"><ele></ele><time>2014-10-15T18:38:28Z</time></trkpt>
<trkpt lat="46.3040542602539062" lon="7.6825070381164551"><ele></ele><time>2014-10-15T18:38:31Z</time></trkpt>
<trkpt lat="46.3039512634277344" lon="7.6826267242431641"><ele></ele><time>2014-10-15T18:38:34Z</time></trkpt>
<trkpt lat="46.3037757873535156" lon="7.6828417778015137"><ele></ele><time>2014-10-15T18:38:37Z</time></trkpt>
<trkpt lat="46.3035583496093750" lon="7.6829428672790527"><ele></ele><time>2014-10-15T18:38:40Z</time></trkpt>
<trkpt lat="46.3034095764160156" lon="7.6829843521118164"><ele></ele><time>2014-10-15T18:38:43Z</time></trkpt>
<trkpt lat="46.3031768798828125" lon="7.6830601692199707"><ele></ele><time>2014-10-15T18:38:46Z</time></trkpt>
<trkpt lat="46.3030319213867188" lon="7.6831030845642090"><ele></ele><time>2014-10-15T18:38:49Z</time></trkpt>
<trkpt lat="46.3028793334960938" lon="7.6831269264221191"><ele></ele><time>2014-10-15T18:38:52Z</time></trkpt>
<trkpt lat="46.3026313781738281" lon="7.6831436157226562"><ele></ele><time>2014-10-15T18:38:55Z</time></trkpt>
<trkpt lat="46.3023948669433594" lon="7.6831417083740234"><ele></ele><time>2014-10-15T18:38:58Z</time></trkpt>
<trkpt lat="46.3021659851074219" lon="7.6831521987915039"><ele></ele><time>2014-10-15T18:39:1Z</time></trkpt>
<trkpt lat="46.3019485473632812" lon="7.6831803321838379"><ele></ele><time>2014-10-15T18:39:4Z</time></trkpt>
<trkpt lat="46.3017158508300781" lon="7.6832208633422852"><ele></ele><time>2014-10-15T18:39:7Z</time></trkpt>
<trkpt lat="46.3015747070312500" lon="7.6832470893859863"><ele></ele><time>2014-10-15T18:39:10Z</time></trkpt>
<trkpt lat="46.3013534545898438" lon="7.6832113265991211"><ele></ele><time>2014-10-15T18:39:13Z</time></trkpt>
<trkpt lat="46.3012466430664062" lon="7.6830797195434570"><ele></ele><time>2014-10-15T18:39:16Z</time></trkpt>
<trkpt lat="46.3011245727539062" lon="7.6829376220703125"><ele></ele><time>2014-10-15T18:39:19Z</time></trkpt>
<trkpt lat="46.3009605407714844" lon="7.6827144622802734"><ele></ele><time>2014-10-15T18:39:22Z</time></trkpt>
<trkpt lat="46.3008384704589844" lon="7.6825680732727051"><ele></ele><time>2014-10-15T18:39:25Z</time></trkpt>
<trkpt lat="46.3006591796875000" lon="7.6823577880859375"><ele></ele><time>2014-10-15T18:39:28Z</time></trkpt>
<trkpt lat="46.3005485534667969" lon="7.6821222305297852"><ele></ele><time>2014-10-15T18:39:31Z</time></trkpt>
<trkpt lat="46.3006057739257812" lon="7.6819252967834473"><ele></ele><time>2014-10-15T18:39:34Z</time></trkpt>
<trkpt lat="46.3007125854492188" lon="7.6816334724426270"><ele></ele><time>2014-10-15T18:39:37Z</time></trkpt>
<trkpt lat="46.3007698059082031" lon="7.6813993453979492"><ele></ele><time>2014-10-15T18:39:40Z</time></trkpt>
<trkpt lat="46.3008232116699219" lon="7.6810560226440430"><ele></ele><time>2014-10-15T18:39:43Z</time></trkpt>
<trkpt lat="46.3008651733398438" lon="7.6807222366333008"><ele></ele><time>2014-10-15T18:39:46Z</time></trkpt>
<trkpt lat="46.3009338378906250" lon="7.6803545951843262"><ele></ele><time>2014-10-15T18:39:49Z</time></trkpt>
<trkpt lat="46.3010063171386719" lon="7.6800255775451660"><ele></ele><time>2014-10-15T18:39:52Z</time></trkpt>
<trkpt lat="46.3010711669921875" lon="7.6798143386840820"><ele></ele><time>2014-10-15T18:39:55Z</time></trkpt>
<trkpt lat="46.3011550903320312" lon="7.6794996261596680"><ele></ele><time>2014-10-15T18:39:58Z</time></trkpt>
<trkpt lat="46.3012351989746094" lon="7.6791667938232422"><ele></ele><time>2014-10-15T18:40:1Z</time></trkpt>
<trkpt lat="46.3012809753417969" lon="7.6789517402648926"><ele></ele><time>2014-10-15T18:40:4Z</time></trkpt>
<trkpt lat="46.3013000488281250" lon="7.6785964965820312"><ele></ele><time>2014-10-15T18:40:7Z</time></trkpt>
<trkpt lat="46.3012237548828125" lon="7.6782703399658203"><ele></ele><time>2014-10-15T18:40:10Z</time></trkpt>
<trkpt lat="46.3011169433593750" lon="7.6780910491943359"><ele></ele><time>2014-10-15T18:40:13Z</time></trkpt>
<trkpt lat="46.3009452819824219" lon="7.6778354644775391"><ele></ele><time>2014-10-15T18:40:16Z</time></trkpt>
<trkpt lat="46.3008346557617188" lon="7.6776418685913086"><ele></ele><time>2014-10-15T18:40:19Z</time></trkpt>
<trkpt lat="46.3006515502929688" lon="7.6774244308471680"><ele></ele><time>2014-10-15T18:40:22Z</time></trkpt>
<trkpt lat="46.3005218505859375" lon="7.6771812438964844"><ele></ele><time>2014-10-15T18:40:25Z</time></trkpt>
<trkpt lat="46.3003845214843750" lon="7.6769123077392578"><ele></ele><time>2014-10-15T18:40:28Z</time></trkpt>
<trkpt lat="46.3002357482910156" lon="7.6766228675842285"><ele></ele><time>2014-10-15T18:40:31Z</time></trkpt>
<trkpt lat="46.3001480102539062" lon="7.6764512062072754"><ele></ele><time>2014-10-15T18:40:34Z</time></trkpt>
<trkpt lat="46.3000068664550781" lon="7.6761898994445801"><ele></ele><time>2014-10-15T18:40:37Z</time></trkpt>
<trkpt lat="46.2998580932617188" lon="7.6758933067321777"><ele></ele><time>2014-10-15T18:40:40Z</time></trkpt>
<trkpt lat="46.2997703552246094" lon="7.6757044792175293"><ele></ele><time>2014-10-15T18:40:43Z</time></trkpt>
<trkpt lat="46.2996444702148438" lon="7.6754093170166016"><ele></ele><time>2014-10-15T18:40:46Z</time></trkpt>
<trkpt lat="46.2995681762695312" lon="7.6752519607543945"><ele></ele><time>2014-10-15T18:40:49Z</time></trkpt>
<trkpt lat="46.2994003295898438" lon="7.6750144958496094"><ele></ele><time>2014-10-15T18:40:52Z</time></trkpt>
<trkpt lat="46.2989540100097656" lon="7.6744933128356934"><ele></ele><time>2014-10-15T18:40:55Z</time></trkpt>
<trkpt lat="46.2988052368164062" lon="7.6743507385253906"><ele></ele><time>2014-10-15T18:40:58Z</time></trkpt>
<trkpt lat="46.2985649108886719" lon="7.6741323471069336"><ele></ele><time>2014-10-15T18:41:1Z</time></trkpt>
<trkpt lat="46.2984352111816406" lon="7.6740550994873047"><ele></ele><time>2014-10-15T18:41:4Z</time></trkpt>
<trkpt lat="46.2982978820800781" lon="7.6739802360534668"><ele></ele><time>2014-10-15T18:41:7Z</time></trkpt>
<trkpt lat="46.2983551025390625" lon="7.6740112304687500"><ele></ele><time>2014-10-15T18:41:10Z</time></trkpt>
<trkpt lat="46.2984962463378906" lon="7.6740884780883789"><ele></ele><time>2014-10-15T18:41:13Z</time></trkpt>
<trkpt lat="46.2986717224121094" lon="7.6742367744445801"><ele></ele><time>2014-10-15T18:41:16Z</time></trkpt>
<trkpt lat="46.2987632751464844" lon="7.6743979454040527"><ele></ele><time>2014-10-15T18:41:19Z</time></trkpt>
<trkpt lat="46.2986297607421875" lon="7.6753849983215332"><ele></ele><time>2014-10-15T18:41:22Z</time></trkpt>
<trkpt lat="46.2986450195312500" lon="7.6755890846252441"><ele></ele><time>2014-10-15T18:41:25Z</time></trkpt>
<trkpt lat="46.2986488342285156" lon="7.6758279800415039"><ele></ele><time>2014-10-15T18:41:28Z</time></trkpt>
<trkpt lat="46.2986831665039062" lon="7.6760301589965820"><ele></ele><time>2014-10-15T18:41:31Z</time></trkpt>
<trkpt lat="46.2987136840820312" lon="7.6763634681701660"><ele></ele><time>2014-10-15T18:41:34Z</time></trkpt>
<trkpt lat="46.2987442016601562" lon="7.6765885353088379"><ele></ele><time>2014-10-15T18:41:37Z</time></trkpt>
<trkpt lat="46.2987670898437500" lon="7.6768293380737305"><ele></ele><time>2014-10-15T18:41:40Z</time></trkpt>
<trkpt lat="46.2987976074218750" lon="7.6770524978637695"><ele></ele><time>2014-10-15T18:41:43Z</time></trkpt>
<trkpt lat="46.2988128662109375" lon="7.6774334907531738"><ele></ele><time>2014-10-15T18:41:46Z</time></trkpt>
<trkpt lat="46.2987747192382812" lon="7.6776962280273438"><ele></ele><time>2014-10-15T18:41:49Z</time></trkpt>
<trkpt lat="46.2986793518066406" lon="7.6779971122741699"><ele></ele><time>2014-10-15T18:41:52Z</time></trkpt>
<trkpt lat="46.2985877990722656" lon="7.6783342361450195"><ele></ele><time>2014-10-15T18:41:55Z</time></trkpt>
<trkpt lat="46.2984695434570312" lon="7.6786370277404785"><ele></ele><time>2014-10-15T18:41:58Z</time></trkpt>
<trkpt lat="46.2984123229980469" lon="7.6788229942321777"><ele></ele><time>2014-10-15T18:42:1Z</time></trkpt>
<trkpt lat="46.2982902526855469" lon="7.6790776252746582"><ele></ele><time>2014-10-15T18:42:4Z</time></trkpt>
<trkpt lat="46.2982521057128906" lon="7.6793766021728516"><ele></ele><time>2014-10-15T18:42:7Z</time></trkpt>
<trkpt lat="46.2981719970703125" lon="7.6796398162841797"><ele></ele><time>2014-10-15T18:42:10Z</time></trkpt>
<trkpt lat="46.2980079650878906" lon="7.6798534393310547"><ele></ele><time>2014-10-15T18:42:13Z</time></trkpt>
<trkpt lat="46.2978858947753906" lon="7.6799650192260742"><ele></ele><time>2014-10-15T18:42:16Z</time></trkpt>
<trkpt lat="46.2977561950683594" lon="7.6801123619079590"><ele></ele><time>2014-10-15T18:42:19Z</time></trkpt>
<trkpt lat="46.2975769042968750" lon="7.6803121566772461"><ele></ele><time>2014-10-15T18:42:22Z</time></trkpt>
<trkpt lat="46.2974166870117188" lon="7.6805357933044434"><ele></ele><time>2014-10-15T18:42:25Z</time></trkpt>
<trkpt lat="46.2974205017089844" lon="7.6808576583862305"><ele></ele><time>2014-10-15T18:42:28Z</time></trkpt>
<trkpt lat="46.2974548339843750" lon="7.6810684204101562"><ele></ele><time>2014-10-15T18:42:31Z</time></trkpt>
<trkpt lat="46.2974777221679688" lon="7.6812839508056641"><ele></ele><time>2014-10-15T18:42:34Z</time></trkpt>
<trkpt lat="46.2975044250488281" lon="7.6814994812011719"><ele></ele><time>2014-10-15T18:42:37Z</time></trkpt>
<trkpt lat="46.2975425720214844" lon="7.6818370819091797"><ele></ele><time>2014-10-15T18:42:40Z</time></trkpt>
<trkpt lat="46.2975654602050781" lon="7.6820526123046875"><ele></ele><time>2014-10-15T18:42:43Z</time></trkpt>
<trkpt lat="46.2976036071777344" lon="7.6823773384094238"><ele></ele><time>2014-10-15T18:42:46Z</time></trkpt>
<trkpt lat="46.2976303100585938" lon="7.6827373504638672"><ele></ele><time>2014-10-15T18:42:49Z</time></trkpt>
<trkpt lat="46.2976684570312500" lon="7.6830735206604004"><ele></ele><time>2014-10-15T18:42:52Z</time></trkpt>
<trkpt lat="46.2976951599121094" lon="7.6832904815673828"><ele></ele><time>2014-10-15T18:42:55Z</time></trkpt>
<trkpt lat="46.2977409362792969" lon="7.6836280822753906"><ele></ele><time>2014-10-15T18:42:58Z</time></trkpt>
<trkpt lat="46.2977676391601562" lon="7.6838393211364746"><ele></ele><time>2014-10-15T18:43:1Z</time></trkpt>
<trkpt lat="46.2978134155273438" lon="7.6841711997985840"><ele></ele><time>2014-10-15T18:43:4Z</time></trkpt>
<trkpt lat="46.2978363037109375" lon="7.6844182014465332"><ele></ele><time>2014-10-15T18:43:7Z</time></trkpt>
<trkpt lat="46.2978553771972656" lon="7.6846556663513184"><ele></ele><time>2014-10-15T18:43:10Z</time></trkpt>
<trkpt lat="46.2979011535644531" lon="7.6849951744079590"><ele></ele><time>2014-10-15T18:43:13Z</time></trkpt>
<trkpt lat="46.2979202270507812" lon="7.6852130889892578"><ele></ele><time>2014-10-15T18:43:16Z</time></trkpt>
<trkpt lat="46.2979621887207031" lon="7.6855525970458984"><ele></ele><time>2014-10-15T18:43:19Z</time></trkpt>
<trkpt lat="46.2979812622070312" lon="7.6857929229736328"><ele></ele><time>2014-10-15T18:43:22Z</time></trkpt>
<trkpt lat="46.2980346679687500" lon="7.6861166954040527"><ele></ele><time>2014-10-15T18:43:25Z</time></trkpt>
<trkpt lat="46.2980804443359375" lon="7.6864342689514160"><ele></ele><time>2014-10-15T18:43:28Z</time></trkpt>
<trkpt lat="46.2981185913085938" lon="7.6867799758911133"><ele></ele><time>2014-10-15T18:43:31Z</time></trkpt>
<trkpt lat="46.2981643676757812" lon="7.6871147155761719"><ele></ele><time>2014-10-15T18:43:34Z</time></trkpt>
<trkpt lat="46.2981872558593750" lon="7.6873464584350586"><ele></ele><time>2014-10-15T18:43:37Z</time></trkpt>
<trkpt lat="46.2982177734375000" lon="7.6876749992370605"><ele></ele><time>2014-10-15T18:43:40Z</time></trkpt>
<trkpt lat="46.2982521057128906" lon="7.6878981590270996"><ele></ele><time>2014-10-15T18:43:43Z</time></trkpt>
<trkpt lat="46.2982788085937500" lon="7.6882443428039551"><ele></ele><time>2014-10-15T18:43:46Z</time></trkpt>
<trkpt lat="46.2983016967773438" lon="7.6884717941284180"><ele></ele><time>2014-10-15T18:43:49Z</time></trkpt>
<trkpt lat="46.2983436584472656" lon="7.6888213157653809"><ele></ele><time>2014-10-15T18:43:52Z</time></trkpt>
<trkpt lat="46.2983818054199219" lon="7.6890611648559570"><ele></ele><time>2014-10-15T18:43:55Z</time></trkpt>
<trkpt lat="46.2984046936035156" lon="7.6892766952514648"><ele></ele><time>2014-10-15T18:43:58Z</time></trkpt>
<trkpt lat="46.2984466552734375" lon="7.6896109580993652"><ele></ele><time>2014-10-15T18:44:1Z</time></trkpt>
<trkpt lat="46.2984771728515625" lon="7.6898393630981445"><ele></ele><time>2014-10-15T18:44:4Z</time></trkpt>
<trkpt lat="46.2985153198242188" lon="7.6901702880859375"><ele></ele><time>2014-10-15T18:44:7Z</time></trkpt>
<trkpt lat="46.2985610961914062" lon="7.6904997825622559"><ele></ele><time>2014-10-15T18:44:10Z</time></trkpt>
<trkpt lat="46.2985916137695312" lon="7.6907129287719727"><ele></ele><time>2014-10-15T18:44:13Z</time></trkpt>
<trkpt lat="46.2986030578613281" lon="7.6909403800964355"><ele></ele><time>2014-10-15T18:44:16Z</time></trkpt>
<trkpt lat="46.2985877990722656" lon="7.6912484169006348"><ele></ele><time>2014-10-15T18:44:19Z</time></trkpt>
<trkpt lat="46.2985420227050781" lon="7.6914567947387695"><ele></ele><time>2014-10-15T18:44:22Z</time></trkpt>
<trkpt lat="46.2985649108886719" lon="7.6916294097900391"><ele></ele><time>2014-10-15T18:44:25Z</time></trkpt>
<trkpt lat="46.2987022399902344" lon="7.6918663978576660"><ele></ele><time>2014-10-15T18:44:28Z</time></trkpt>
<trkpt lat="46.2987709045410156" lon="7.6920452117919922"><ele></ele><time>2014-10-15T18:44:31Z</time></trkpt>
<trkpt lat="46.2988739013671875" lon="7.6923241615295410"><ele></ele><time>2014-10-15T18:44:34Z</time></trkpt>
<trkpt lat="46.2989463806152344" lon="7.6925168037414551"><ele></ele><time>2014-10-15T18:44:37Z</time></trkpt>
<trkpt lat="46.2990493774414062" lon="7.6927905082702637"><ele></ele><time>2014-10-15T18:44:40Z</time></trkpt>
<trkpt lat="46.2991600036621094" lon="7.6930761337280273"><ele></ele><time>2014-10-15T18:44:43Z</time></trkpt>
<trkpt lat="46.2992706298828125" lon="7.6933674812316895"><ele></ele><time>2014-10-15T18:44:46Z</time></trkpt>
<trkpt lat="46.2993392944335938" lon="7.6935486793518066"><ele></ele><time>2014-10-15T18:44:49Z</time></trkpt>
<trkpt lat="46.2994461059570312" lon="7.6938333511352539"><ele></ele><time>2014-10-15T18:44:52Z</time></trkpt>
<trkpt lat="46.2995147705078125" lon="7.6939878463745117"><ele></ele><time>2014-10-15T18:44:55Z</time></trkpt>
<trkpt lat="46.2995262145996094" lon="7.6940116882324219"><ele></ele><time>2014-10-15T18:44:58Z</time></trkpt>
<trkpt lat="46.2996406555175781" lon="7.6941308975219727"><ele></ele><time>2014-10-15T18:45:1Z</time></trkpt>
<trkpt lat="46.2996444702148438" lon="7.6941819190979004"><ele></ele><time>2014-10-15T18:45:4Z</time></trkpt>
<trkpt lat="46.2997016906738281" lon="7.6941862106323242"><ele></ele><time>2014-10-15T18:45:7Z</time></trkpt>
<trkpt lat="46.2997283935546875" lon="7.6942124366760254"><ele></ele><time>2014-10-15T18:45:10Z</time></trkpt>
<trkpt lat="46.2997932434082031" lon="7.6942744255065918"><ele></ele><time>2014-10-15T18:45:13Z</time></trkpt>
<trkpt lat="46.2998733520507812" lon="7.6943516731262207"><ele></ele><time>2014-10-15T18:45:16Z</time></trkpt>
<trkpt lat="46.2999229431152344" lon="7.6943974494934082"><ele></ele><time>2014-10-15T18:45:19Z</time></trkpt>
<trkpt lat="46.2999763488769531" lon="7.6944465637207031"><ele></ele><time>2014-10-15T18:45:22Z</time></trkpt>
<trkpt lat="46.2998352050781250" lon="7.6951217651367188"><ele></ele><time>2014-10-15T18:45:25Z</time></trkpt>
<trkpt lat="46.2998275756835938" lon="7.6951971054077148"><ele></ele><time>2014-10-15T18:45:28Z</time></trkpt>
<trkpt lat="46.2998275756835938" lon="7.6952710151672363"><ele></ele><time>2014-10-15T18:45:31Z</time></trkpt>
<trkpt lat="46.2998390197753906" lon="7.6953411102294922"><ele></ele><time>2014-10-15T18:45:34Z</time></trkpt>
<trkpt lat="46.2998428344726562" lon="7.6954488754272461"><ele></ele><time>2014-10-15T18:45:37Z</time></trkpt>
<trkpt lat="46.2998352050781250" lon="7.6955575942993164"><ele></ele><time>2014-10-15T18:45:40Z</time></trkpt>
<trkpt lat="46.2998199462890625" lon="7.6956310272216797"><ele></ele><time>2014-10-15T18:45:43Z</time></trkpt>
<trkpt lat="46.2998085021972656" lon="7.6957125663757324"><ele></ele><time>2014-10-15T18:45:46Z</time></trkpt>
<trkpt lat="46.2997894287109375" lon="7.6958146095275879"><ele></ele><time>2014-10-15T18:45:49Z</time></trkpt>
<trkpt lat="46.2997779846191406" lon="7.6959128379821777"><ele></ele><time>2014-10-15T18:45:52Z</time></trkpt>
<trkpt lat="46.2997817993164062" lon="7.6959710121154785"><ele></ele><time>2014-10-15T18:45:55Z</time></trkpt>
<trkpt lat="46.2998085021972656" lon="7.6960239410400391"><ele></ele><time>2014-10-15T18:45:58Z</time></trkpt>
<trkpt lat="46.2998275756835938" lon="7.6961073875427246"><ele></ele><time>2014-10-15T18:46:1Z</time></trkpt>
<trkpt lat="46.2998352050781250" lon="7.6961731910705566"><ele></ele><time>2014-10-15T18:46:4Z</time></trkpt>
<trkpt lat="46.2998237609863281" lon="7.6962471008300781"><ele></ele><time>2014-10-15T18:46:7Z</time></trkpt>
<trkpt lat="46.2998237609863281" lon="7.6963119506835938"><ele></ele><time>2014-10-15T18:46:10Z</time></trkpt>
<trkpt lat="46.2998199462890625" lon="7.6963925361633301"><ele></ele><time>2014-10-15T18:46:13Z</time></trkpt>
<trkpt lat="46.2997856140136719" lon="7.6965165138244629"><ele></ele><time>2014-10-15T18:46:16Z</time></trkpt>
<trkpt lat="46.2997703552246094" lon="7.6965994834899902"><ele></ele><time>2014-10-15T18:46:19Z</time></trkpt>
<trkpt lat="46.2997856140136719" lon="7.6967139244079590"><ele></ele><time>2014-10-15T18:46:22Z</time></trkpt>
<trkpt lat="46.2997970581054688" lon="7.6967878341674805"><ele></ele><time>2014-10-15T18:46:25Z</time></trkpt>
<trkpt lat="46.2997970581054688" lon="7.6969170570373535"><ele></ele><time>2014-10-15T18:46:28Z</time></trkpt>
<trkpt lat="46.2997894287109375" lon="7.6970005035400391"><ele></ele><time>2014-10-15T18:46:31Z</time></trkpt>
<trkpt lat="46.2997894287109375" lon="7.6970763206481934"><ele></ele><time>2014-10-15T18:46:34Z</time></trkpt>
<trkpt lat="46.2997932434082031" lon="7.6971449851989746"><ele></ele><time>2014-10-15T18:46:37Z</time></trkpt>
<trkpt lat="46.2997970581054688" lon="7.6972169876098633"><ele></ele><time>2014-10-15T18:46:40Z</time></trkpt>
<trkpt lat="46.2998046875000000" lon="7.6973257064819336"><ele></ele><time>2014-10-15T18:46:43Z</time></trkpt>
<trkpt lat="46.2998008728027344" lon="7.6974015235900879"><ele></ele><time>2014-10-15T18:46:46Z</time></trkpt>
<trkpt lat="46.2997970581054688" lon="7.6974792480468750"><ele></ele><time>2014-10-15T18:46:49Z</time></trkpt>
<trkpt lat="46.2997932434082031" lon="7.6975989341735840"><ele></ele><time>2014-10-15T18:46:52Z</time></trkpt>
<trkpt lat="46.2997932434082031" lon="7.6976804733276367"><ele></ele><time>2014-10-15T18:46:55Z</time></trkpt>
<trkpt lat="46.2997894287109375" lon="7.6977539062500000"><ele></ele><time>2014-10-15T18:46:58Z</time></trkpt>
<trkpt lat="46.2997932434082031" lon="7.6978297233581543"><ele></ele><time>2014-10-15T18:47:1Z</time></trkpt>
<trkpt lat="46.2997856140136719" lon="7.6979732513427734"><ele></ele><time>2014-10-15T18:47:4Z</time></trkpt>
<trkpt lat="46.2997894287109375" lon="7.6981072425842285"><ele></ele><time>2014-10-15T18:47:7Z</time></trkpt>
<trkpt lat="46.2997894287109375" lon="7.6982312202453613"><ele></ele><time>2014-10-15T18:47:10Z</time></trkpt>
<trkpt lat="46.2997894287109375" lon="7.6983175277709961"><ele></ele><time>2014-10-15T18:47:13Z</time></trkpt>
<trkpt lat="46.2997970581054688" lon="7.6984562873840332"><ele></ele><time>2014-10-15T18:47:16Z</time></trkpt>
<trkpt lat="46.2998123168945312" lon="7.6985597610473633"><ele></ele><time>2014-10-15T18:47:19Z</time></trkpt>
<trkpt lat="46.2999763488769531" lon="7.6991171836853027"><ele></ele><time>2014-10-15T18:47:22Z</time></trkpt>
<trkpt lat="46.3000106811523438" lon="7.6993384361267090"><ele></ele><time>2014-10-15T18:47:25Z</time></trkpt>
<trkpt lat="46.2998886108398438" lon="7.6994738578796387"><ele></ele><time>2014-10-15T18:47:28Z</time></trkpt>
<trkpt lat="46.2997779846191406" lon="7.6995372772216797"><ele></ele><time>2014-10-15T18:47:31Z</time></trkpt>
<trkpt lat="46.2996444702148438" lon="7.6996293067932129"><ele></ele><time>2014-10-15T18:47:34Z</time></trkpt>
<trkpt lat="46.2995910644531250" lon="7.6998734474182129"><ele></ele><time>2014-10-15T18:47:37Z</time></trkpt>
<trkpt lat="46.2996215820312500" lon="7.7001962661743164"><ele></ele><time>2014-10-15T18:47:40Z</time></trkpt>
<trkpt lat="46.2999153137207031" lon="7.7002029418945312"><ele></ele><time>2014-10-15T18:47:43Z</time></trkpt>
<trkpt lat="46.3000640869140625" lon="7.7001552581787109"><ele></ele><time>2014-10-15T18:47:46Z</time></trkpt>
<trkpt lat="46.3002510070800781" lon="7.7002043724060059"><ele></ele><time>2014-10-15T18:47:49Z</time></trkpt>
<trkpt lat="46.3002357482910156" lon="7.7007274627685547"><ele></ele><time>2014-10-15T18:47:52Z</time></trkpt>
<trkpt lat="46.3002166748046875" lon="7.7010159492492676"><ele></ele><time>2014-10-15T18:47:55Z</time></trkpt>
<trkpt lat="46.3001976013183594" lon="7.7012157440185547"><ele></ele><time>2014-10-15T18:47:58Z</time></trkpt>
<trkpt lat="46.3001708984375000" lon="7.7015461921691895"><ele></ele><time>2014-10-15T18:48:1Z</time></trkpt>
<trkpt lat="46.3001518249511719" lon="7.7017779350280762"><ele></ele><time>2014-10-15T18:48:4Z</time></trkpt>
<trkpt lat="46.3001441955566406" lon="7.7020244598388672"><ele></ele><time>2014-10-15T18:48:7Z</time></trkpt>
<trkpt lat="46.3002891540527344" lon="7.7024044990539551"><ele></ele><time>2014-10-15T18:48:10Z</time></trkpt>
<trkpt lat="46.3004493713378906" lon="7.7026500701904297"><ele></ele><time>2014-10-15T18:48:13Z</time></trkpt>
<trkpt lat="46.3005218505859375" lon="7.7028484344482422"><ele></ele><time>2014-10-15T18:48:16Z</time></trkpt>
<trkpt lat="46.3005676269531250" lon="7.7030625343322754"><ele></ele><time>2014-10-15T18:48:19Z</time></trkpt>
<trkpt lat="46.3005485534667969" lon="7.7034292221069336"><ele></ele><time>2014-10-15T18:48:22Z</time></trkpt>
<trkpt lat="46.3004875183105469" lon="7.7036490440368652"><ele></ele><time>2014-10-15T18:48:25Z</time></trkpt>
<trkpt lat="46.3004035949707031" lon="7.7039203643798828"><ele></ele><time>2014-10-15T18:48:28Z</time></trkpt>
<trkpt lat="46.3003158569335938" lon="7.7041935920715332"><ele></ele><time>2014-10-15T18:48:31Z</time></trkpt>
<trkpt lat="46.3002738952636719" lon="7.7043175697326660"><ele></ele><time>2014-10-15T18:48:34Z</time></trkpt>
<trkpt lat="46.3002357482910156" lon="7.7044329643249512"><ele></ele><time>2014-10-15T18:48:37Z</time></trkpt>
<trkpt lat="46.3001899719238281" lon="7.7045726776123047"><ele></ele><time>2014-10-15T18:48:40Z</time></trkpt>
<trkpt lat="46.3001441955566406" lon="7.7047133445739746"><ele></ele><time>2014-10-15T18:48:43Z</time></trkpt>
<trkpt lat="46.3001251220703125" lon="7.7047648429870605"><ele></ele><time>2014-10-15T18:48:46Z</time></trkpt>
<trkpt lat="46.3000640869140625" lon="7.7048482894897461"><ele></ele><time>2014-10-15T18:48:49Z</time></trkpt>
<trkpt lat="46.3000297546386719" lon="7.7049083709716797"><ele></ele><time>2014-10-15T18:48:52Z</time></trkpt>
<trkpt lat="46.2999992370605469" lon="7.7049751281738281"><ele></ele><time>2014-10-15T18:48:55Z</time></trkpt>
<trkpt lat="46.2999916076660156" lon="7.7050485610961914"><ele></ele><time>2014-10-15T18:48:58Z</time></trkpt>
<trkpt lat="46.2999992370605469" lon="7.7051763534545898"><ele></ele><time>2014-10-15T18:49:1Z</time></trkpt>
<trkpt lat="46.3000030517578125" lon="7.7052602767944336"><ele></ele><time>2014-10-15T18:49:4Z</time></trkpt>
<trkpt lat="46.3000106811523438" lon="7.7053408622741699"><ele></ele><time>2014-10-15T18:49:7Z</time></trkpt>
<trkpt lat="46.3000221252441406" lon="7.7054500579833984"><ele></ele><time>2014-10-15T18:49:10Z</time></trkpt>
<trkpt lat="46.3000297546386719" lon="7.7055191993713379"><ele></ele><time>2014-10-15T18:49:13Z</time></trkpt>
<trkpt lat="46.3000373840332031" lon="7.7055859565734863"><ele></ele><time>2014-10-15T18:49:16Z</time></trkpt>
<trkpt lat="46.3000411987304688" lon="7.7056937217712402"><ele></ele><time>2014-10-15T18:49:19Z</time></trkpt>
<trkpt lat="46.3000450134277344" lon="7.7057676315307617"><ele></ele><time>2014-10-15T18:49:22Z</time></trkpt>
<trkpt lat="46.3000526428222656" lon="7.7058405876159668"><ele></ele><time>2014-10-15T18:49:25Z</time></trkpt>
<trkpt lat="46.3000450134277344" lon="7.7059440612792969"><ele></ele><time>2014-10-15T18:49:28Z</time></trkpt>
<trkpt lat="46.3000335693359375" lon="7.7060480117797852"><ele></ele><time>2014-10-15T18:49:31Z</time></trkpt>
<trkpt lat="46.3000106811523438" lon="7.7061553001403809"><ele></ele><time>2014-10-15T18:49:34Z</time></trkpt>
<trkpt lat="46.2999916076660156" lon="7.7062549591064453"><ele></ele><time>2014-10-15T18:49:37Z</time></trkpt>
<trkpt lat="46.2999877929687500" lon="7.7063126564025879"><ele></ele><time>2014-10-15T18:49:40Z</time></trkpt>
<trkpt lat="46.2999801635742188" lon="7.7064056396484375"><ele></ele><time>2014-10-15T18:49:43Z</time></trkpt>
<trkpt lat="46.2999496459960938" lon="7.7065105438232422"><ele></ele><time>2014-10-15T18:49:46Z</time></trkpt>
<trkpt lat="46.2999229431152344" lon="7.7066183090209961"><ele></ele><time>2014-10-15T18:49:49Z</time></trkpt>
<trkpt lat="46.2999076843261719" lon="7.7066903114318848"><ele></ele><time>2014-10-15T18:49:52Z</time></trkpt>
<trkpt lat="46.2998924255371094" lon="7.7067642211914062"><ele></ele><time>2014-10-15T18:49:55Z</time></trkpt>
<trkpt lat="46.2998886108398438" lon="7.7068390846252441"><ele></ele><time>2014-10-15T18:49:58Z</time></trkpt>
<trkpt lat="46.2998847961425781" lon="7.7069144248962402"><ele></ele><time>2014-10-15T18:50:1Z</time></trkpt>
<trkpt lat="46.2998809814453125" lon="7.7070255279541016"><ele></ele><time>2014-10-15T18:50:4Z</time></trkpt>
<trkpt lat="46.2998771667480469" lon="7.7071018218994141"><ele></ele><time>2014-10-15T18:50:7Z</time></trkpt>
<trkpt lat="46.2998695373535156" lon="7.7071719169616699"><ele></ele><time>2014-10-15T18:50:10Z</time></trkpt>
<trkpt lat="46.2998657226562500" lon="7.7072801589965820"><ele></ele><time>2014-10-15T18:50:13Z</time></trkpt>
<trkpt lat="46.2998657226562500" lon="7.7073841094970703"><ele></ele><time>2014-10-15T18:50:16Z</time></trkpt>
<trkpt lat="46.2998809814453125" lon="7.7074885368347168"><ele></ele><time>2014-10-15T18:50:19Z</time></trkpt>
<trkpt lat="46.2998962402343750" lon="7.7075648307800293"><ele></ele><time>2014-10-15T18:50:22Z</time></trkpt>
<trkpt lat="46.2999114990234375" lon="7.7076897621154785"><ele></ele><time>2014-10-15T18:50:25Z</time></trkpt>
<trkpt lat="46.2999191284179688" lon="7.7077703475952148"><ele></ele><time>2014-10-15T18:50:28Z</time></trkpt>
<trkpt lat="46.2999229431152344" lon="7.7078900337219238"><ele></ele><time>2014-10-15T18:50:31Z</time></trkpt>
<trkpt lat="46.2999153137207031" lon="7.7079696655273438"><ele></ele><time>2014-10-15T18:50:34Z</time></trkpt>
<trkpt lat="46.2999000549316406" lon="7.7080965042114258"><ele></ele><time>2014-10-15T18:50:37Z</time></trkpt>
<trkpt lat="46.2998809814453125" lon="7.7082185745239258"><ele></ele><time>2014-10-15T18:50:40Z</time></trkpt>
<trkpt lat="46.2998619079589844" lon="7.7083392143249512"><ele></ele><time>2014-10-15T18:50:43Z</time></trkpt>
<trkpt lat="46.2998352050781250" lon="7.7084507942199707"><ele></ele><time>2014-10-15T18:50:46Z</time></trkpt>
<trkpt lat="46.2998161315917969" lon="7.7085585594177246"><ele></ele><time>2014-10-15T18:50:49Z</time></trkpt>
<trkpt lat="46.2998008728027344" lon="7.7086563110351562"><ele></ele><time>2014-10-15T18:50:52Z</time></trkpt>
<trkpt lat="46.2998085021972656" lon="7.7087488174438477"><ele></ele><time>2014-10-15T18:50:55Z</time></trkpt>
<trkpt lat="46.2998123168945312" lon="7.7088241577148438"><ele></ele><time>2014-10-15T18:50:58Z</time></trkpt>
<trkpt lat="46.2998161315917969" lon="7.7089390754699707"><ele></ele><time>2014-10-15T18:51:1Z</time></trkpt>
<trkpt lat="46.2998275756835938" lon="7.7090482711791992"><ele></ele><time>2014-10-15T18:51:4Z</time></trkpt>
<trkpt lat="46.2998466491699219" lon="7.7091498374938965"><ele></ele><time>2014-10-15T18:51:7Z</time></trkpt>
<trkpt lat="46.2998466491699219" lon="7.7092227935791016"><ele></ele><time>2014-10-15T18:51:10Z</time></trkpt>
<trkpt lat="46.2998580932617188" lon="7.7093224525451660"><ele></ele><time>2014-10-15T18:51:13Z</time></trkpt>
<trkpt lat="46.2998847961425781" lon="7.7093648910522461"><ele></ele><time>2014-10-15T18:51:16Z</time></trkpt>
<trkpt lat="46.2999229431152344" lon="7.7094340324401855"><ele></ele><time>2014-10-15T18:51:19Z</time></trkpt>
<trkpt lat="46.2999763488769531" lon="7.7095308303833008"><ele></ele><time>2014-10-15T18:51:22Z</time></trkpt>
<trkpt lat="46.3000335693359375" lon="7.7096199989318848"><ele></ele><time>2014-10-15T18:51:25Z</time></trkpt>
<trkpt lat="46.3000640869140625" lon="7.7096886634826660"><ele></ele><time>2014-10-15T18:51:28Z</time></trkpt>
<trkpt lat="46.3000793457031250" lon="7.7097659111022949"><ele></ele><time>2014-10-15T18:51:31Z</time></trkpt>
<trkpt lat="46.3001136779785156" lon="7.7098851203918457"><ele></ele><time>2014-10-15T18:51:34Z</time></trkpt>
<trkpt lat="46.3001403808593750" lon="7.7099652290344238"><ele></ele><time>2014-10-15T18:51:37Z</time></trkpt>
<trkpt lat="46.3001594543457031" lon="7.7100443840026855"><ele></ele><time>2014-10-15T18:51:40Z</time></trkpt>
<trkpt lat="46.3001899719238281" lon="7.7101607322692871"><ele></ele><time>2014-10-15T18:51:43Z</time></trkpt>
<trkpt lat="46.3002090454101562" lon="7.7102427482604980"><ele></ele><time>2014-10-15T18:51:46Z</time></trkpt>
<trkpt lat="46.3002281188964844" lon="7.7103624343872070"><ele></ele><time>2014-10-15T18:51:49Z</time></trkpt>
<trkpt lat="46.3002395629882812" lon="7.7104411125183105"><ele></ele><time>2014-10-15T18:51:52Z</time></trkpt>
<trkpt lat="46.3002624511718750" lon="7.7105555534362793"><ele></ele><time>2014-10-15T18:51:55Z</time></trkpt>
<trkpt lat="46.3002853393554688" lon="7.7106685638427734"><ele></ele><time>2014-10-15T18:51:58Z</time></trkpt>
<trkpt lat="46.3002929687500000" lon="7.7107834815979004"><ele></ele><time>2014-10-15T18:52:1Z</time></trkpt>
<trkpt lat="46.3003005981445312" lon="7.7108588218688965"><ele></ele><time>2014-10-15T18:52:4Z</time></trkpt>
<trkpt lat="46.3003158569335938" lon="7.7109718322753906"><ele></ele><time>2014-10-15T18:52:7Z</time></trkpt>
<trkpt lat="46.3003387451171875" lon="7.7110800743103027"><ele></ele><time>2014-10-15T18:52:10Z</time></trkpt>
<trkpt lat="46.3003730773925781" lon="7.7111802101135254"><ele></ele><time>2014-10-15T18:52:13Z</time></trkpt>
<trkpt lat="46.3004150390625000" lon="7.7112708091735840"><ele></ele><time>2014-10-15T18:52:16Z</time></trkpt>
<trkpt lat="46.3004455566406250" lon="7.7113265991210938"><ele></ele><time>2014-10-15T18:52:19Z</time></trkpt>
<trkpt lat="46.3004798889160156" lon="7.7113752365112305"><ele></ele><time>2014-10-15T18:52:22Z</time></trkpt>
<trkpt lat="46.3005180358886719" lon="7.7114291191101074"><ele></ele><time>2014-10-15T18:52:25Z</time></trkpt>
<trkpt lat="46.3005485534667969" lon="7.7114963531494141"><ele></ele><time>2014-10-15T18:52:28Z</time></trkpt>
<trkpt lat="46.3005790710449219" lon="7.7116246223449707"><ele></ele><time>2014-10-15T18:52:31Z</time></trkpt>
<trkpt lat="46.3005867004394531" lon="7.7117185592651367"><ele></ele><time>2014-10-15T18:52:34Z</time></trkpt>
<trkpt lat="46.3006095886230469" lon="7.7118425369262695"><ele></ele><time>2014-10-15T18:52:37Z</time></trkpt>
<trkpt lat="46.3006286621093750" lon="7.7119131088256836"><ele></ele><time>2014-10-15T18:52:40Z</time></trkpt>
<trkpt lat="46.3006439208984375" lon="7.7119851112365723"><ele></ele><time>2014-10-15T18:52:43Z</time></trkpt>
<trkpt lat="46.3006706237792969" lon="7.7120952606201172"><ele></ele><time>2014-10-15T18:52:46Z</time></trkpt>
<trkpt lat="46.3006820678710938" lon="7.7121715545654297"><ele></ele><time>2014-10-15T18:52:49Z</time></trkpt>
<trkpt lat="46.3007011413574219" lon="7.7122859954833984"><ele></ele><time>2014-10-15T18:52:52Z</time></trkpt>
<trkpt lat="46.3007164001464844" lon="7.7123942375183105"><ele></ele><time>2014-10-15T18:52:55Z</time></trkpt>
<trkpt lat="46.3007354736328125" lon="7.7125029563903809"><ele></ele><time>2014-10-15T18:52:58Z</time></trkpt>
<trkpt lat="46.3007507324218750" lon="7.7125763893127441"><ele></ele><time>2014-10-15T18:53:1Z</time></trkpt>
<trkpt lat="46.3007698059082031" lon="7.7126965522766113"><ele></ele><time>2014-10-15T18:53:4Z</time></trkpt>
<trkpt lat="46.3007812500000000" lon="7.7127785682678223"><ele></ele><time>2014-10-15T18:53:7Z</time></trkpt>
<trkpt lat="46.3008003234863281" lon="7.7128567695617676"><ele></ele><time>2014-10-15T18:53:10Z</time></trkpt>
<trkpt lat="46.3008270263671875" lon="7.7129716873168945"><ele></ele><time>2014-10-15T18:53:13Z</time></trkpt>
<trkpt lat="46.3008537292480469" lon="7.7130861282348633"><ele></ele><time>2014-10-15T18:53:16Z</time></trkpt>
<trkpt lat="46.3008689880371094" lon="7.7131643295288086"><ele></ele><time>2014-10-15T18:53:19Z</time></trkpt>
<trkpt lat="46.3008918762207031" lon="7.7132749557495117"><ele></ele><time>2014-10-15T18:53:22Z</time></trkpt>
<trkpt lat="46.3009185791015625" lon="7.7133812904357910"><ele></ele><time>2014-10-15T18:53:25Z</time></trkpt>
<trkpt lat="46.3009300231933594" lon="7.7134528160095215"><ele></ele><time>2014-10-15T18:53:28Z</time></trkpt>
<trkpt lat="46.3009452819824219" lon="7.7135648727416992"><ele></ele><time>2014-10-15T18:53:31Z</time></trkpt>
<trkpt lat="46.3009567260742188" lon="7.7136378288269043"><ele></ele><time>2014-10-15T18:53:34Z</time></trkpt>
<trkpt lat="46.3009719848632812" lon="7.7137117385864258"><ele></ele><time>2014-10-15T18:53:37Z</time></trkpt>
<trkpt lat="46.3009910583496094" lon="7.7138295173645020"><ele></ele><time>2014-10-15T18:53:40Z</time></trkpt>
<trkpt lat="46.3010025024414062" lon="7.7139558792114258"><ele></ele><time>2014-10-15T18:53:43Z</time></trkpt>
<trkpt lat="46.3010177612304688" lon="7.7140746116638184"><ele></ele><time>2014-10-15T18:53:46Z</time></trkpt>
<trkpt lat="46.3010368347167969" lon="7.7141547203063965"><ele></ele><time>2014-10-15T18:53:49Z</time></trkpt>
<trkpt lat="46.3010749816894531" lon="7.7142720222473145"><ele></ele><time>2014-10-15T18:53:52Z</time></trkpt>
<trkpt lat="46.3010978698730469" lon="7.7143573760986328"><ele></ele><time>2014-10-15T18:53:55Z</time></trkpt>
<trkpt lat="46.3011169433593750" lon="7.7144436836242676"><ele></ele><time>2014-10-15T18:53:58Z</time></trkpt>
<trkpt lat="46.3011398315429688" lon="7.7145714759826660"><ele></ele><time>2014-10-15T18:54:1Z</time></trkpt>
<trkpt lat="46.3011627197265625" lon="7.7146949768066406"><ele></ele><time>2014-10-15T18:54:4Z</time></trkpt>
<trkpt lat="46.3011856079101562" lon="7.7148203849792480"><ele></ele><time>2014-10-15T18:54:7Z</time></trkpt>
<trkpt lat="46.3011932373046875" lon="7.7149038314819336"><ele></ele><time>2014-10-15T18:54:10Z</time></trkpt>
<trkpt lat="46.3012008666992188" lon="7.7149848937988281"><ele></ele><time>2014-10-15T18:54:13Z</time></trkpt>
<trkpt lat="46.3012084960937500" lon="7.7151069641113281"><ele></ele><time>2014-10-15T18:54:16Z</time></trkpt>
<trkpt lat="46.3012123107910156" lon="7.7151880264282227"><ele></ele><time>2014-10-15T18:54:19Z</time></trkpt>
<trkpt lat="46.3012161254882812" lon="7.7152695655822754"><ele></ele><time>2014-10-15T18:54:22Z</time></trkpt>
<trkpt lat="46.3012199401855469" lon="7.7153925895690918"><ele></ele><time>2014-10-15T18:54:25Z</time></trkpt>
<trkpt lat="46.3012237548828125" lon="7.7154726982116699"><ele></ele><time>2014-10-15T18:54:28Z</time></trkpt>
<trkpt lat="46.3012275695800781" lon="7.7155833244323730"><ele></ele><time>2014-10-15T18:54:31Z</time></trkpt>
<trkpt lat="46.3012275695800781" lon="7.7156643867492676"><ele></ele><time>2014-10-15T18:54:34Z</time></trkpt>
<trkpt lat="46.3012275695800781" lon="7.7157459259033203"><ele></ele><time>2014-10-15T18:54:37Z</time></trkpt>
<trkpt lat="46.3012313842773438" lon="7.7158694267272949"><ele></ele><time>2014-10-15T18:54:40Z</time></trkpt>
<trkpt lat="46.3012313842773438" lon="7.7159485816955566"><ele></ele><time>2014-10-15T18:54:43Z</time></trkpt>
<trkpt lat="46.3012351989746094" lon="7.7160668373107910"><ele></ele><time>2014-10-15T18:54:46Z</time></trkpt>
<trkpt lat="46.3012351989746094" lon="7.7161855697631836"><ele></ele><time>2014-10-15T18:54:49Z</time></trkpt>
<trkpt lat="46.3012390136718750" lon="7.7162976264953613"><ele></ele><time>2014-10-15T18:54:52Z</time></trkpt>
<trkpt lat="46.3012428283691406" lon="7.7163734436035156"><ele></ele><time>2014-10-15T18:54:55Z</time></trkpt>
<trkpt lat="46.3012466430664062" lon="7.7164931297302246"><ele></ele><time>2014-10-15T18:54:58Z</time></trkpt>
<trkpt lat="46.3012504577636719" lon="7.7165751457214355"><ele></ele><time>2014-10-15T18:55:1Z</time></trkpt>
<trkpt lat="46.3012580871582031" lon="7.7166957855224609"><ele></ele><time>2014-10-15T18:55:4Z</time></trkpt>
<trkpt lat="46.3012542724609375" lon="7.7168154716491699"><ele></ele><time>2014-10-15T18:55:7Z</time></trkpt>
<trkpt lat="46.3012084960937500" lon="7.7168612480163574"><ele></ele><time>2014-10-15T18:55:10Z</time></trkpt>
<trkpt lat="46.3011703491210938" lon="7.7168188095092773"><ele></ele><time>2014-10-15T18:55:13Z</time></trkpt>
<trkpt lat="46.3011932373046875" lon="7.7166957855224609"><ele></ele><time>2014-10-15T18:55:16Z</time></trkpt>
<trkpt lat="46.3012084960937500" lon="7.7166056632995605"><ele></ele><time>2014-10-15T18:55:19Z</time></trkpt>
<trkpt lat="46.3012123107910156" lon="7.7165122032165527"><ele></ele><time>2014-10-15T18:55:22Z</time></trkpt>
<trkpt lat="46.3012199401855469" lon="7.7163815498352051"><ele></ele><time>2014-10-15T18:55:25Z</time></trkpt>
<trkpt lat="46.3012084960937500" lon="7.7162647247314453"><ele></ele><time>2014-10-15T18:55:28Z</time></trkpt>
<trkpt lat="46.3011894226074219" lon="7.7161922454833984"><ele></ele><time>2014-10-15T18:55:31Z</time></trkpt>
<trkpt lat="46.3011550903320312" lon="7.7160735130310059"><ele></ele><time>2014-10-15T18:55:34Z</time></trkpt>
<trkpt lat="46.3011283874511719" lon="7.7159957885742188"><ele></ele><time>2014-10-15T18:55:37Z</time></trkpt>
<trkpt lat="46.3011016845703125" lon="7.7159109115600586"><ele></ele><time>2014-10-15T18:55:40Z</time></trkpt>
<trkpt lat="46.3010673522949219" lon="7.7157816886901855"><ele></ele><time>2014-10-15T18:55:43Z</time></trkpt>
<trkpt lat="46.3010406494140625" lon="7.7156968116760254"><ele></ele><time>2014-10-15T18:55:46Z</time></trkpt>
<trkpt lat="46.3010063171386719" lon="7.7155742645263672"><ele></ele><time>2014-10-15T18:55:49Z</time></trkpt>
<trkpt lat="46.3009719848632812" lon="7.7154583930969238"><ele></ele><time>2014-10-15T18:55:52Z</time></trkpt>
<trkpt lat="46.3009376525878906" lon="7.7153563499450684"><ele></ele><time>2014-10-15T18:55:55Z</time></trkpt>
<trkpt lat="46.3009185791015625" lon="7.7152833938598633"><ele></ele><time>2014-10-15T18:55:58Z</time></trkpt>
<trkpt lat="46.3008880615234375" lon="7.7151741981506348"><ele></ele><time>2014-10-15T18:56:1Z</time></trkpt>
<trkpt lat="46.3008575439453125" lon="7.7151007652282715"><ele></ele><time>2014-10-15T18:56:4Z</time></trkpt>
<trkpt lat="46.3008270263671875" lon="7.7150249481201172"><ele></ele><time>2014-10-15T18:56:7Z</time></trkpt>
<trkpt lat="46.3007621765136719" lon="7.7149348258972168"><ele></ele><time>2014-10-15T18:56:10Z</time></trkpt>
<trkpt lat="46.3006744384765625" lon="7.7148604393005371"><ele></ele><time>2014-10-15T18:56:13Z</time></trkpt>
<trkpt lat="46.3006057739257812" lon="7.7147774696350098"><ele></ele><time>2014-10-15T18:56:16Z</time></trkpt>
<trkpt lat="46.3005332946777344" lon="7.7146968841552734"><ele></ele><time>2014-10-15T18:56:19Z</time></trkpt>
<trkpt lat="46.3004493713378906" lon="7.7146325111389160"><ele></ele><time>2014-10-15T18:56:22Z</time></trkpt>
<trkpt lat="46.3003997802734375" lon="7.7145900726318359"><ele></ele><time>2014-10-15T18:56:25Z</time></trkpt>
<trkpt lat="46.3003196716308594" lon="7.7145400047302246"><ele></ele><time>2014-10-15T18:56:28Z</time></trkpt>
<trkpt lat="46.3002662658691406" lon="7.7145018577575684"><ele></ele><time>2014-10-15T18:56:31Z</time></trkpt>
<trkpt lat="46.3002166748046875" lon="7.7144503593444824"><ele></ele><time>2014-10-15T18:56:34Z</time></trkpt>
<trkpt lat="46.3001632690429688" lon="7.7143907546997070"><ele></ele><time>2014-10-15T18:56:37Z</time></trkpt>
<trkpt lat="46.3001060485839844" lon="7.7143058776855469"><ele></ele><time>2014-10-15T18:56:40Z</time></trkpt>
<trkpt lat="46.3000717163085938" lon="7.7142443656921387"><ele></ele><time>2014-10-15T18:56:43Z</time></trkpt>
<trkpt lat="46.3000411987304688" lon="7.7141723632812500"><ele></ele><time>2014-10-15T18:56:46Z</time></trkpt>
<trkpt lat="46.2999992370605469" lon="7.7140703201293945"><ele></ele><time>2014-10-15T18:56:49Z</time></trkpt>
<trkpt lat="46.2999725341796875" lon="7.7140021324157715"><ele></ele><time>2014-10-15T18:56:52Z</time></trkpt>
<trkpt lat="46.2999458312988281" lon="7.7139310836791992"><ele></ele><time>2014-10-15T18:56:55Z</time></trkpt>
<trkpt lat="46.2999229431152344" lon="7.7137994766235352"><ele></ele><time>2014-10-15T18:56:58Z</time></trkpt>
<trkpt lat="46.2999114990234375" lon="7.7137265205383301"><ele></ele><time>2014-10-15T18:57:1Z</time></trkpt>
<trkpt lat="46.2998886108398438" lon="7.7136325836181641"><ele></ele><time>2014-10-15T18:57:4Z</time></trkpt>
<trkpt lat="46.2998771667480469" lon="7.7135639190673828"><ele></ele><time>2014-10-15T18:57:7Z</time></trkpt>
<trkpt lat="46.2998580932617188" lon="7.7134904861450195"><ele></ele><time>2014-10-15T18:57:10Z</time></trkpt>
<trkpt lat="46.2998313903808594" lon="7.7133660316467285"><ele></ele><time>2014-10-15T18:57:13Z</time></trkpt>
<trkpt lat="46.2998046875000000" lon="7.7132387161254883"><ele></ele><time>2014-10-15T18:57:16Z</time></trkpt>
<trkpt lat="46.2997817993164062" lon="7.7131147384643555"><ele></ele><time>2014-10-15T18:57:19Z</time></trkpt>
<trkpt lat="46.2997665405273438" lon="7.7130312919616699"><ele></ele><time>2014-10-15T18:57:22Z</time></trkpt>
<trkpt lat="46.2997474670410156" lon="7.7129483222961426"><ele></ele><time>2014-10-15T18:57:25Z</time></trkpt>
<trkpt lat="46.2997207641601562" lon="7.7128310203552246"><ele></ele><time>2014-10-15T18:57:28Z</time></trkpt>
<trkpt lat="46.2996940612792969" lon="7.7127547264099121"><ele></ele><time>2014-10-15T18:57:31Z</time></trkpt>
<trkpt lat="46.2996520996093750" lon="7.7126326560974121"><ele></ele><time>2014-10-15T18:57:34Z</time></trkpt>
<trkpt lat="46.2996177673339844" lon="7.7125639915466309"><ele></ele><time>2014-10-15T18:57:37Z</time></trkpt>
<trkpt lat="46.2995452880859375" lon="7.7124648094177246"><ele></ele><time>2014-10-15T18:57:40Z</time></trkpt>
<trkpt lat="46.2994651794433594" lon="7.7123765945434570"><ele></ele><time>2014-10-15T18:57:43Z</time></trkpt>
<trkpt lat="46.2994117736816406" lon="7.7123241424560547"><ele></ele><time>2014-10-15T18:57:46Z</time></trkpt>
<trkpt lat="46.2993621826171875" lon="7.7122583389282227"><ele></ele><time>2014-10-15T18:57:49Z</time></trkpt>
<trkpt lat="46.2993125915527344" lon="7.7122006416320801"><ele></ele><time>2014-10-15T18:57:52Z</time></trkpt>
<trkpt lat="46.2992630004882812" lon="7.7121462821960449"><ele></ele><time>2014-10-15T18:57:55Z</time></trkpt>
<trkpt lat="46.2991905212402344" lon="7.7120547294616699"><ele></ele><time>2014-10-15T18:57:58Z</time></trkpt>
<trkpt lat="46.2991294860839844" lon="7.7119588851928711"><ele></ele><time>2014-10-15T18:58:1Z</time></trkpt>
<trkpt lat="46.2990760803222656" lon="7.7118558883666992"><ele></ele><time>2014-10-15T18:58:4Z</time></trkpt>
<trkpt lat="46.2990188598632812" lon="7.7117652893066406"><ele></ele><time>2014-10-15T18:58:7Z</time></trkpt>
<trkpt lat="46.2989845275878906" lon="7.7116904258728027"><ele></ele><time>2014-10-15T18:58:10Z</time></trkpt>
<trkpt lat="46.2989311218261719" lon="7.7115778923034668"><ele></ele><time>2014-10-15T18:58:13Z</time></trkpt>
<trkpt lat="46.2988967895507812" lon="7.7115082740783691"><ele></ele><time>2014-10-15T18:58:16Z</time></trkpt>
<trkpt lat="46.2988471984863281" lon="7.7113928794860840"><ele></ele><time>2014-10-15T18:58:19Z</time></trkpt>
<trkpt lat="46.2988090515136719" lon="7.7112774848937988"><ele></ele><time>2014-10-15T18:58:22Z</time></trkpt>
<trkpt lat="46.2987670898437500" lon="7.7111692428588867"><ele></ele><time>2014-10-15T18:58:25Z</time></trkpt>
<trkpt lat="46.2987442016601562" lon="7.7110981941223145"><ele></ele><time>2014-10-15T18:58:28Z</time></trkpt>
<trkpt lat="46.2987022399902344" lon="7.7110009193420410"><ele></ele><time>2014-10-15T18:58:31Z</time></trkpt>
<trkpt lat="46.2986640930175781" lon="7.7108964920043945"><ele></ele><time>2014-10-15T18:58:34Z</time></trkpt>
<trkpt lat="46.2986373901367188" lon="7.7108287811279297"><ele></ele><time>2014-10-15T18:58:37Z</time></trkpt>
<trkpt lat="46.2986068725585938" lon="7.7107710838317871"><ele></ele><time>2014-10-15T18:58:40Z</time></trkpt>
<trkpt lat="46.2985572814941406" lon="7.7106866836547852"><ele></ele><time>2014-10-15T18:58:43Z</time></trkpt>
<trkpt lat="46.2985229492187500" lon="7.7106142044067383"><ele></ele><time>2014-10-15T18:58:46Z</time></trkpt>
<trkpt lat="46.2984809875488281" lon="7.7105040550231934"><ele></ele><time>2014-10-15T18:58:49Z</time></trkpt>
<trkpt lat="46.2984580993652344" lon="7.7104191780090332"><ele></ele><time>2014-10-15T18:58:52Z</time></trkpt>
<trkpt lat="46.2984428405761719" lon="7.7103376388549805"><ele></ele><time>2014-10-15T18:58:55Z</time></trkpt>
<trkpt lat="46.2984161376953125" lon="7.7102236747741699"><ele></ele><time>2014-10-15T18:58:58Z</time></trkpt>
<trkpt lat="46.2984046936035156" lon="7.7101454734802246"><ele></ele><time>2014-10-15T18:59:1Z</time></trkpt>
<trkpt lat="46.2983932495117188" lon="7.7100300788879395"><ele></ele><time>2014-10-15T18:59:4Z</time></trkpt>
<trkpt lat="46.2983856201171875" lon="7.7099514007568359"><ele></ele><time>2014-10-15T18:59:7Z</time></trkpt>
<trkpt lat="46.2983779907226562" lon="7.7098331451416016"><ele></ele><time>2014-10-15T18:59:10Z</time></trkpt>
<trkpt lat="46.2983665466308594" lon="7.7097535133361816"><ele></ele><time>2014-10-15T18:59:13Z</time></trkpt>
<trkpt lat="46.2983551025390625" lon="7.7096142768859863"><ele></ele><time>2014-10-15T18:59:16Z</time></trkpt>
<trkpt lat="46.2983398437500000" lon="7.7094841003417969"><ele></ele><time>2014-10-15T18:59:19Z</time></trkpt>
<trkpt lat="46.2983245849609375" lon="7.7093548774719238"><ele></ele><time>2014-10-15T18:59:22Z</time></trkpt>
<trkpt lat="46.2983093261718750" lon="7.7092185020446777"><ele></ele><time>2014-10-15T18:59:25Z</time></trkpt>
<trkpt lat="46.2982826232910156" lon="7.7090973854064941"><ele></ele><time>2014-10-15T18:59:28Z</time></trkpt>
<trkpt lat="46.2982597351074219" lon="7.7089848518371582"><ele></ele><time>2014-10-15T18:59:31Z</time></trkpt>
<trkpt lat="46.2982368469238281" lon="7.7088699340820312"><ele></ele><time>2014-10-15T18:59:34Z</time></trkpt>
<trkpt lat="46.2982215881347656" lon="7.7087903022766113"><ele></ele><time>2014-10-15T18:59:37Z</time></trkpt>
<trkpt lat="46.2982063293457031" lon="7.7086725234985352"><ele></ele><time>2014-10-15T18:59:40Z</time></trkpt>
<trkpt lat="46.2981872558593750" lon="7.7085909843444824"><ele></ele><time>2014-10-15T18:59:43Z</time></trkpt>
<trkpt lat="46.2981376647949219" lon="7.7084789276123047"><ele></ele><time>2014-10-15T18:59:46Z</time></trkpt>
<trkpt lat="46.2980918884277344" lon="7.7084302902221680"><ele></ele><time>2014-10-15T18:59:49Z</time></trkpt>
<trkpt lat="46.2980079650878906" lon="7.7083864212036133"><ele></ele><time>2014-10-15T18:59:52Z</time></trkpt>
<trkpt lat="46.2979469299316406" lon="7.7083697319030762"><ele></ele><time>2014-10-15T18:59:55Z</time></trkpt>
<trkpt lat="46.2978591918945312" lon="7.7083473205566406"><ele></ele><time>2014-10-15T18:59:58Z</time></trkpt>
<trkpt lat="46.2977981567382812" lon="7.7083368301391602"><ele></ele><time>2014-10-15T19:0:1Z</time></trkpt>
<trkpt lat="46.2977447509765625" lon="7.7083201408386230"><ele></ele><time>2014-10-15T19:0:4Z</time></trkpt>
<trkpt lat="46.2976989746093750" lon="7.7083001136779785"><ele></ele><time>2014-10-15T19:0:7Z</time></trkpt>
<trkpt lat="46.2976303100585938" lon="7.7082610130310059"><ele></ele><time>2014-10-15T19:0:10Z</time></trkpt>
<trkpt lat="46.2975921630859375" lon="7.7082104682922363"><ele></ele><time>2014-10-15T19:0:13Z</time></trkpt>
<trkpt lat="46.2975425720214844" lon="7.7081160545349121"><ele></ele><time>2014-10-15T19:0:16Z</time></trkpt>
<trkpt lat="46.2975120544433594" lon="7.7080526351928711"><ele></ele><time>2014-10-15T19:0:19Z</time></trkpt>
<trkpt lat="46.2974739074707031" lon="7.7079873085021973"><ele></ele><time>2014-10-15T19:0:22Z</time></trkpt>
<trkpt lat="46.2974128723144531" lon="7.7078838348388672"><ele></ele><time>2014-10-15T19:0:25Z</time></trkpt>
<trkpt lat="46.2973556518554688" lon="7.7077846527099609"><ele></ele><time>2014-10-15T19:0:28Z</time></trkpt>
<trkpt lat="46.2973022460937500" lon="7.7077364921569824"><ele></ele><time>2014-10-15T19:0:31Z</time></trkpt>
<trkpt lat="46.2972335815429688" lon="7.7077379226684570"><ele></ele><time>2014-10-15T19:0:34Z</time></trkpt>
<trkpt lat="46.2971649169921875" lon="7.7078309059143066"><ele></ele><time>2014-10-15T19:0:37Z</time></trkpt>
<trkpt lat="46.2971382141113281" lon="7.7079129219055176"><ele></ele><time>2014-10-15T19:0:40Z</time></trkpt>
<trkpt lat="46.2971343994140625" lon="7.7080059051513672"><ele></ele><time>2014-10-15T19:0:43Z</time></trkpt>
<trkpt lat="46.2971458435058594" lon="7.7081360816955566"><ele></ele><time>2014-10-15T19:0:46Z</time></trkpt>
<trkpt lat="46.2971572875976562" lon="7.7082166671752930"><ele></ele><time>2014-10-15T19:0:49Z</time></trkpt>
<trkpt lat="46.2971878051757812" lon="7.7082924842834473"><ele></ele><time>2014-10-15T19:0:52Z</time></trkpt>
<trkpt lat="46.2972297668457031" lon="7.7084064483642578"><ele></ele><time>2014-10-15T19:0:55Z</time></trkpt>
<trkpt lat="46.2973022460937500" lon="7.7085061073303223"><ele></ele><time>2014-10-15T19:0:58Z</time></trkpt>
<trkpt lat="46.2973518371582031" lon="7.7085804939270020"><ele></ele><time>2014-10-15T19:1:1Z</time></trkpt>
<trkpt lat="46.2973976135253906" lon="7.7086529731750488"><ele></ele><time>2014-10-15T19:1:4Z</time></trkpt>
<trkpt lat="46.2974777221679688" lon="7.7087097167968750"><ele></ele><time>2014-10-15T19:1:7Z</time></trkpt>
<trkpt lat="46.2975463867187500" lon="7.7087669372558594"><ele></ele><time>2014-10-15T19:1:10Z</time></trkpt>
<trkpt lat="46.2975921630859375" lon="7.7088012695312500"><ele></ele><time>2014-10-15T19:1:13Z</time></trkpt>
<trkpt lat="46.2976531982421875" lon="7.7088608741760254"><ele></ele><time>2014-10-15T19:1:16Z</time></trkpt>
<trkpt lat="46.2976837158203125" lon="7.7089195251464844"><ele></ele><time>2014-10-15T19:1:19Z</time></trkpt>
<trkpt lat="46.2977066040039062" lon="7.7090353965759277"><ele></ele><time>2014-10-15T19:1:22Z</time></trkpt>
<trkpt lat="46.2976951599121094" lon="7.7091178894042969"><ele></ele><time>2014-10-15T19:1:25Z</time></trkpt>
<trkpt lat="46.2976760864257812" lon="7.7091956138610840"><ele></ele><time>2014-10-15T19:1:28Z</time></trkpt>
<trkpt lat="46.2976455688476562" lon="7.7093124389648438"><ele></ele><time>2014-10-15T19:1:31Z</time></trkpt>
<trkpt lat="46.2976112365722656" lon="7.7094273567199707"><ele></ele><time>2014-10-15T19:1:34Z</time></trkpt>
<trkpt lat="46.2975845336914062" lon="7.7095398902893066"><ele></ele><time>2014-10-15T19:1:37Z</time></trkpt>
<trkpt lat="46.2975769042968750" lon="7.7096128463745117"><ele></ele><time>2014-10-15T19:1:40Z</time></trkpt>
<trkpt lat="46.2975807189941406" lon="7.7096838951110840"><ele></ele><time>2014-10-15T19:1:43Z</time></trkpt>
<trkpt lat="46.2975883483886719" lon="7.7097835540771484"><ele></ele><time>2014-10-15T19:1:46Z</time></trkpt>
<trkpt lat="46.2976074218750000" lon="7.7098793983459473"><ele></ele><time>2014-10-15T19:1:49Z</time></trkpt>
<trkpt lat="46.2976188659667969" lon="7.7099490165710449"><ele></ele><time>2014-10-15T19:1:52Z</time></trkpt>
<trkpt lat="46.2976341247558594" lon="7.7100577354431152"><ele></ele><time>2014-10-15T19:1:55Z</time></trkpt>
<trkpt lat="46.2976531982421875" lon="7.7101626396179199"><ele></ele><time>2014-10-15T19:1:58Z</time></trkpt>
<trkpt lat="46.2976608276367188" lon="7.7102417945861816"><ele></ele><time>2014-10-15T19:2:1Z</time></trkpt>
<trkpt lat="46.2976722717285156" lon="7.7103223800659180"><ele></ele><time>2014-10-15T19:2:4Z</time></trkpt>
<trkpt lat="46.2977066040039062" lon="7.7104310989379883"><ele></ele><time>2014-10-15T19:2:7Z</time></trkpt>
<trkpt lat="46.2977294921875000" lon="7.7105054855346680"><ele></ele><time>2014-10-15T19:2:10Z</time></trkpt>
<trkpt lat="46.2977600097656250" lon="7.7106242179870605"><ele></ele><time>2014-10-15T19:2:13Z</time></trkpt>
<trkpt lat="46.2977790832519531" lon="7.7107062339782715"><ele></ele><time>2014-10-15T19:2:16Z</time></trkpt>
<trkpt lat="46.2978096008300781" lon="7.7108316421508789"><ele></ele><time>2014-10-15T19:2:19Z</time></trkpt>
<trkpt lat="46.2978286743164062" lon="7.7109155654907227"><ele></ele><time>2014-10-15T19:2:22Z</time></trkpt>
<trkpt lat="46.2978401184082031" lon="7.7109999656677246"><ele></ele><time>2014-10-15T19:2:25Z</time></trkpt>
<trkpt lat="46.2978477478027344" lon="7.7111248970031738"><ele></ele><time>2014-10-15T19:2:28Z</time></trkpt>
<trkpt lat="46.2978515625000000" lon="7.7112050056457520"><ele></ele><time>2014-10-15T19:2:31Z</time></trkpt>
<trkpt lat="46.2978591918945312" lon="7.7113242149353027"><ele></ele><time>2014-10-15T19:2:34Z</time></trkpt>
<trkpt lat="46.2978668212890625" lon="7.7114048004150391"><ele></ele><time>2014-10-15T19:2:37Z</time></trkpt>
<trkpt lat="46.2978782653808594" lon="7.7114853858947754"><ele></ele><time>2014-10-15T19:2:40Z</time></trkpt>
<trkpt lat="46.2978897094726562" lon="7.7115654945373535"><ele></ele><time>2014-10-15T19:2:43Z</time></trkpt>
<trkpt lat="46.2979049682617188" lon="7.7116441726684570"><ele></ele><time>2014-10-15T19:2:46Z</time></trkpt>
<trkpt lat="46.2979202270507812" lon="7.7117657661437988"><ele></ele><time>2014-10-15T19:2:49Z</time></trkpt>
<trkpt lat="46.2979393005371094" lon="7.7118906974792480"><ele></ele><time>2014-10-15T19:2:52Z</time></trkpt>
<trkpt lat="46.2979698181152344" lon="7.7120103836059570"><ele></ele><time>2014-10-15T19:2:55Z</time></trkpt>
<trkpt lat="46.2979927062988281" lon="7.7120900154113770"><ele></ele><time>2014-10-15T19:2:58Z</time></trkpt>
<trkpt lat="46.2980270385742188" lon="7.7122144699096680"><ele></ele><time>2014-10-15T19:3:1Z</time></trkpt>
<trkpt lat="46.2980537414550781" lon="7.7122960090637207"><ele></ele><time>2014-10-15T19:3:4Z</time></trkpt>
<trkpt lat="46.2980842590332031" lon="7.7124176025390625"><ele></ele><time>2014-10-15T19:3:7Z</time></trkpt>
<trkpt lat="46.2980995178222656" lon="7.7125473022460938"><ele></ele><time>2014-10-15T19:3:10Z</time></trkpt>
<trkpt lat="46.2981109619140625" lon="7.7126770019531250"><ele></ele><time>2014-10-15T19:3:13Z</time></trkpt>
<trkpt lat="46.2981109619140625" lon="7.7127633094787598"><ele></ele><time>2014-10-15T19:3:16Z</time></trkpt>
<trkpt lat="46.2981109619140625" lon="7.7128920555114746"><ele></ele><time>2014-10-15T19:3:19Z</time></trkpt>
<trkpt lat="46.2981071472167969" lon="7.7129745483398438"><ele></ele><time>2014-10-15T19:3:22Z</time></trkpt>
<trkpt lat="46.2981033325195312" lon="7.7130937576293945"><ele></ele><time>2014-10-15T19:3:25Z</time></trkpt>
<trkpt lat="46.2980995178222656" lon="7.7131710052490234"><ele></ele><time>2014-10-15T19:3:28Z</time></trkpt>
<trkpt lat="46.2980957031250000" lon="7.7132496833801270"><ele></ele><time>2014-10-15T19:3:31Z</time></trkpt>
<trkpt lat="46.2980880737304688" lon="7.7133316993713379"><ele></ele><time>2014-10-15T19:3:34Z</time></trkpt>
<trkpt lat="46.2980804443359375" lon="7.7134160995483398"><ele></ele><time>2014-10-15T19:3:37Z</time></trkpt>
<trkpt lat="46.2980766296386719" lon="7.7135472297668457"><ele></ele><time>2014-10-15T19:3:40Z</time></trkpt>
<trkpt lat="46.2980766296386719" lon="7.7136325836181641"><ele></ele><time>2014-10-15T19:3:43Z</time></trkpt>
<trkpt lat="46.2980957031250000" lon="7.7137570381164551"><ele></ele><time>2014-10-15T19:3:46Z</time></trkpt>
<trkpt lat="46.2981147766113281" lon="7.7138361930847168"><ele></ele><time>2014-10-15T19:3:49Z</time></trkpt>
<trkpt lat="46.2981300354003906" lon="7.7139143943786621"><ele></ele><time>2014-10-15T19:3:52Z</time></trkpt>
<trkpt lat="46.2981567382812500" lon="7.7139902114868164"><ele></ele><time>2014-10-15T19:3:55Z</time></trkpt>
<trkpt lat="46.2981986999511719" lon="7.7140879631042480"><ele></ele><time>2014-10-15T19:3:58Z</time></trkpt>
<trkpt lat="46.2982254028320312" lon="7.7141561508178711"><ele></ele><time>2014-10-15T19:4:1Z</time></trkpt>
<trkpt lat="46.2982482910156250" lon="7.7142314910888672"><ele></ele><time>2014-10-15T19:4:4Z</time></trkpt>
<trkpt lat="46.2982902526855469" lon="7.7143497467041016"><ele></ele><time>2014-10-15T19:4:7Z</time></trkpt>
<trkpt lat="46.2983131408691406" lon="7.7144331932067871"><ele></ele><time>2014-10-15T19:4:10Z</time></trkpt>
<trkpt lat="46.2983322143554688" lon="7.7145161628723145"><ele></ele><time>2014-10-15T19:4:13Z</time></trkpt>
<trkpt lat="46.2983512878417969" lon="7.7145986557006836"><ele></ele><time>2014-10-15T19:4:16Z</time></trkpt>
<trkpt lat="46.2983779907226562" lon="7.7147140502929688"><ele></ele><time>2014-10-15T19:4:19Z</time></trkpt>
<trkpt lat="46.2984008789062500" lon="7.7148313522338867"><ele></ele><time>2014-10-15T19:4:22Z</time></trkpt>
<trkpt lat="46.2984161376953125" lon="7.7149500846862793"><ele></ele><time>2014-10-15T19:4:25Z</time></trkpt>
<trkpt lat="46.2984275817871094" lon="7.7150282859802246"><ele></ele><time>2014-10-15T19:4:28Z</time></trkpt>
<trkpt lat="46.2984428405761719" lon="7.7151031494140625"><ele></ele><time>2014-10-15T19:4:31Z</time></trkpt>
<trkpt lat="46.2984580993652344" lon="7.7152147293090820"><ele></ele><time>2014-10-15T19:4:34Z</time></trkpt>
<trkpt lat="46.2984733581542969" lon="7.7153301239013672"><ele></ele><time>2014-10-15T19:4:37Z</time></trkpt>
<trkpt lat="46.2984771728515625" lon="7.7154083251953125"><ele></ele><time>2014-10-15T19:4:40Z</time></trkpt>
<trkpt lat="46.2984848022460938" lon="7.7155227661132812"><ele></ele><time>2014-10-15T19:4:43Z</time></trkpt>
<trkpt lat="46.2985038757324219" lon="7.7156381607055664"><ele></ele><time>2014-10-15T19:4:46Z</time></trkpt>
<trkpt lat="46.2985229492187500" lon="7.7157573699951172"><ele></ele><time>2014-10-15T19:4:49Z</time></trkpt>
<trkpt lat="46.2985343933105469" lon="7.7158370018005371"><ele></ele><time>2014-10-15T19:4:52Z</time></trkpt>
<trkpt lat="46.2985458374023438" lon="7.7159090042114258"><ele></ele><time>2014-10-15T19:4:55Z</time></trkpt>
<trkpt lat="46.2985649108886719" lon="7.7160158157348633"><ele></ele><time>2014-10-15T19:4:58Z</time></trkpt>
<trkpt lat="46.2985763549804688" lon="7.7160897254943848"><ele></ele><time>2014-10-15T19:5:1Z</time></trkpt>
<trkpt lat="46.2985877990722656" lon="7.7162051200866699"><ele></ele><time>2014-10-15T19:5:4Z</time></trkpt>
<trkpt lat="46.2985992431640625" lon="7.7162828445434570"><ele></ele><time>2014-10-15T19:5:7Z</time></trkpt>
<trkpt lat="46.2986068725585938" lon="7.7163581848144531"><ele></ele><time>2014-10-15T19:5:10Z</time></trkpt>
<trkpt lat="46.2986183166503906" lon="7.7164287567138672"><ele></ele><time>2014-10-15T19:5:13Z</time></trkpt>
<trkpt lat="46.2986335754394531" lon="7.7165374755859375"><ele></ele><time>2014-10-15T19:5:16Z</time></trkpt>
<trkpt lat="46.2986412048339844" lon="7.7166180610656738"><ele></ele><time>2014-10-15T19:5:19Z</time></trkpt>
<trkpt lat="46.2986450195312500" lon="7.7167034149169922"><ele></ele><time>2014-10-15T19:5:22Z</time></trkpt>
<trkpt lat="46.2986450195312500" lon="7.7168331146240234"><ele></ele><time>2014-10-15T19:5:25Z</time></trkpt>
<trkpt lat="46.2986488342285156" lon="7.7169132232666016"><ele></ele><time>2014-10-15T19:5:28Z</time></trkpt>
<trkpt lat="46.2986679077148438" lon="7.7170267105102539"><ele></ele><time>2014-10-15T19:5:31Z</time></trkpt>
<trkpt lat="46.2986793518066406" lon="7.7170991897583008"><ele></ele><time>2014-10-15T19:5:34Z</time></trkpt>
<trkpt lat="46.2986946105957031" lon="7.7172021865844727"><ele></ele><time>2014-10-15T19:5:37Z</time></trkpt>
<trkpt lat="46.2987060546875000" lon="7.7173080444335938"><ele></ele><time>2014-10-15T19:5:40Z</time></trkpt>
<trkpt lat="46.2987136840820312" lon="7.7173786163330078"><ele></ele><time>2014-10-15T19:5:43Z</time></trkpt>
<trkpt lat="46.2987251281738281" lon="7.7174906730651855"><ele></ele><time>2014-10-15T19:5:46Z</time></trkpt>
<trkpt lat="46.2987327575683594" lon="7.7175731658935547"><ele></ele><time>2014-10-15T19:5:49Z</time></trkpt>
<trkpt lat="46.2987442016601562" lon="7.7176880836486816"><ele></ele><time>2014-10-15T19:5:52Z</time></trkpt>
<trkpt lat="46.2987594604492188" lon="7.7178034782409668"><ele></ele><time>2014-10-15T19:5:55Z</time></trkpt>
<trkpt lat="46.2987670898437500" lon="7.7178807258605957"><ele></ele><time>2014-10-15T19:5:58Z</time></trkpt>
<trkpt lat="46.2987823486328125" lon="7.7179961204528809"><ele></ele><time>2014-10-15T19:6:1Z</time></trkpt>
<trkpt lat="46.2987976074218750" lon="7.7181124687194824"><ele></ele><time>2014-10-15T19:6:4Z</time></trkpt>
<trkpt lat="46.2988166809082031" lon="7.7182230949401855"><ele></ele><time>2014-10-15T19:6:7Z</time></trkpt>
<trkpt lat="46.2988204956054688" lon="7.7183423042297363"><ele></ele><time>2014-10-15T19:6:10Z</time></trkpt>
<trkpt lat="46.2988281250000000" lon="7.7184200286865234"><ele></ele><time>2014-10-15T19:6:13Z</time></trkpt>
<trkpt lat="46.2988395690917969" lon="7.7185378074645996"><ele></ele><time>2014-10-15T19:6:16Z</time></trkpt>
<trkpt lat="46.2988357543945312" lon="7.7186207771301270"><ele></ele><time>2014-10-15T19:6:19Z</time></trkpt>
<trkpt lat="46.2988204956054688" lon="7.7187500000000000"><ele></ele><time>2014-10-15T19:6:22Z</time></trkpt>
<trkpt lat="46.2988052368164062" lon="7.7188363075256348"><ele></ele><time>2014-10-15T19:6:25Z</time></trkpt>
<trkpt lat="46.2987861633300781" lon="7.7189579010009766"><ele></ele><time>2014-10-15T19:6:28Z</time></trkpt>
<trkpt lat="46.2987709045410156" lon="7.7190403938293457"><ele></ele><time>2014-10-15T19:6:31Z</time></trkpt>
<trkpt lat="46.2987556457519531" lon="7.7191557884216309"><ele></ele><time>2014-10-15T19:6:34Z</time></trkpt>
<trkpt lat="46.2987365722656250" lon="7.7192678451538086"><ele></ele><time>2014-10-15T19:6:37Z</time></trkpt>
<trkpt lat="46.2987251281738281" lon="7.7193732261657715"><ele></ele><time>2014-10-15T19:6:40Z</time></trkpt>
<trkpt lat="46.2987136840820312" lon="7.7194809913635254"><ele></ele><time>2014-10-15T19:6:43Z</time></trkpt>
<trkpt lat="46.2987098693847656" lon="7.7195916175842285"><ele></ele><time>2014-10-15T19:6:46Z</time></trkpt>
<trkpt lat="46.2986984252929688" lon="7.7196688652038574"><ele></ele><time>2014-10-15T19:6:49Z</time></trkpt>
<trkpt lat="46.2986869812011719" lon="7.7197880744934082"><ele></ele><time>2014-10-15T19:6:52Z</time></trkpt>
<trkpt lat="46.2986831665039062" lon="7.7199087142944336"><ele></ele><time>2014-10-15T19:6:55Z</time></trkpt>
<trkpt lat="46.2986793518066406" lon="7.7199940681457520"><ele></ele><time>2014-10-15T19:6:58Z</time></trkpt>
<trkpt lat="46.2986679077148438" lon="7.7201204299926758"><ele></ele><time>2014-10-15T19:7:1Z</time></trkpt>
<trkpt lat="46.2986602783203125" lon="7.7202491760253906"><ele></ele><time>2014-10-15T19:7:4Z</time></trkpt>
<trkpt lat="46.2986526489257812" lon="7.7203993797302246"><ele></ele><time>2014-10-15T19:7:7Z</time></trkpt>
<trkpt lat="46.2986450195312500" lon="7.7204961776733398"><ele></ele><time>2014-10-15T19:7:10Z</time></trkpt>
<trkpt lat="46.2986450195312500" lon="7.7205920219421387"><ele></ele><time>2014-10-15T19:7:13Z</time></trkpt>
<trkpt lat="46.2986450195312500" lon="7.7207303047180176"><ele></ele><time>2014-10-15T19:7:16Z</time></trkpt>
<trkpt lat="46.2986450195312500" lon="7.7208328247070312"><ele></ele><time>2014-10-15T19:7:19Z</time></trkpt>
<trkpt lat="46.2986488342285156" lon="7.7209916114807129"><ele></ele><time>2014-10-15T19:7:22Z</time></trkpt>
<trkpt lat="46.2986526489257812" lon="7.7211022377014160"><ele></ele><time>2014-10-15T19:7:25Z</time></trkpt>
<trkpt lat="46.2986679077148438" lon="7.7212557792663574"><ele></ele><time>2014-10-15T19:7:28Z</time></trkpt>
<trkpt lat="46.2986793518066406" lon="7.7213997840881348"><ele></ele><time>2014-10-15T19:7:31Z</time></trkpt>
<trkpt lat="46.2986984252929688" lon="7.7215442657470703"><ele></ele><time>2014-10-15T19:7:34Z</time></trkpt>
<trkpt lat="46.2987251281738281" lon="7.7216377258300781"><ele></ele><time>2014-10-15T19:7:37Z</time></trkpt>
<trkpt lat="46.2987556457519531" lon="7.7217812538146973"><ele></ele><time>2014-10-15T19:7:40Z</time></trkpt>
<trkpt lat="46.2987480163574219" lon="7.7218794822692871"><ele></ele><time>2014-10-15T19:7:43Z</time></trkpt>
<trkpt lat="46.2986869812011719" lon="7.7218756675720215"><ele></ele><time>2014-10-15T19:7:46Z</time></trkpt>
<trkpt lat="46.2986602783203125" lon="7.7217612266540527"><ele></ele><time>2014-10-15T19:7:49Z</time></trkpt>
<trkpt lat="46.2986488342285156" lon="7.7216358184814453"><ele></ele><time>2014-10-15T19:7:52Z</time></trkpt>
<trkpt lat="46.2986335754394531" lon="7.7214565277099609"><ele></ele><time>2014-10-15T19:7:55Z</time></trkpt>
<trkpt lat="46.2986145019531250" lon="7.7212767601013184"><ele></ele><time>2014-10-15T19:7:58Z</time></trkpt>
<trkpt lat="46.2986030578613281" lon="7.7211565971374512"><ele></ele><time>2014-10-15T19:8:1Z</time></trkpt>
<trkpt lat="46.2985839843750000" lon="7.7210292816162109"><ele></ele><time>2014-10-15T19:8:4Z</time></trkpt>
<trkpt lat="46.2985649108886719" lon="7.7209033966064453"><ele></ele><time>2014-10-15T19:8:7Z</time></trkpt>
<trkpt lat="46.2985382080078125" lon="7.7207179069519043"><ele></ele><time>2014-10-15T19:8:10Z</time></trkpt>
<trkpt lat="46.2985115051269531" lon="7.7205367088317871"><ele></ele><time>2014-10-15T19:8:13Z</time></trkpt>
<trkpt lat="46.2985000610351562" lon="7.7204217910766602"><ele></ele><time>2014-10-15T19:8:16Z</time></trkpt>
<trkpt lat="46.2984848022460938" lon="7.7203121185302734"><ele></ele><time>2014-10-15T19:8:19Z</time></trkpt>
<trkpt lat="46.2984695434570312" lon="7.7202181816101074"><ele></ele><time>2014-10-15T19:8:22Z</time></trkpt>
<trkpt lat="46.2984390258789062" lon="7.7200865745544434"><ele></ele><time>2014-10-15T19:8:25Z</time></trkpt>
<trkpt lat="46.2984199523925781" lon="7.7200040817260742"><ele></ele><time>2014-10-15T19:8:28Z</time></trkpt>
<trkpt lat="46.2983932495117188" lon="7.7198729515075684"><ele></ele><time>2014-10-15T19:8:31Z</time></trkpt>
<trkpt lat="46.2983627319335938" lon="7.7197432518005371"><ele></ele><time>2014-10-15T19:8:34Z</time></trkpt>
<trkpt lat="46.2983283996582031" lon="7.7196121215820312"><ele></ele><time>2014-10-15T19:8:37Z</time></trkpt>
<trkpt lat="46.2982978820800781" lon="7.7194838523864746"><ele></ele><time>2014-10-15T19:8:40Z</time></trkpt>
<trkpt lat="46.2982711791992188" lon="7.7193679809570312"><ele></ele><time>2014-10-15T19:8:43Z</time></trkpt>
<trkpt lat="46.2982559204101562" lon="7.7192878723144531"><ele></ele><time>2014-10-15T19:8:46Z</time></trkpt>
<trkpt lat="46.2982292175292969" lon="7.7191724777221680"><ele></ele><time>2014-10-15T19:8:49Z</time></trkpt>
<trkpt lat="46.2982101440429688" lon="7.7190918922424316"><ele></ele><time>2014-10-15T19:8:52Z</time></trkpt>
<trkpt lat="46.2981834411621094" lon="7.7189679145812988"><ele></ele><time>2014-10-15T19:8:55Z</time></trkpt>
<trkpt lat="46.2981567382812500" lon="7.7188429832458496"><ele></ele><time>2014-10-15T19:8:58Z</time></trkpt>
<trkpt lat="46.2981224060058594" lon="7.7187194824218750"><ele></ele><time>2014-10-15T19:9:1Z</time></trkpt>
<trkpt lat="46.2981033325195312" lon="7.7186369895935059"><ele></ele><time>2014-10-15T19:9:4Z</time></trkpt>
<trkpt lat="46.2980804443359375" lon="7.7185535430908203"><ele></ele><time>2014-10-15T19:9:7Z</time></trkpt>
<trkpt lat="46.2980422973632812" lon="7.7184309959411621"><ele></ele><time>2014-10-15T19:9:10Z</time></trkpt>
<trkpt lat="46.2980155944824219" lon="7.7183523178100586"><ele></ele><time>2014-10-15T19:9:13Z</time></trkpt>
<trkpt lat="46.2979927062988281" lon="7.7182731628417969"><ele></ele><time>2014-10-15T19:9:16Z</time></trkpt>
<trkpt lat="46.2979621887207031" lon="7.7181959152221680"><ele></ele><time>2014-10-15T19:9:19Z</time></trkpt>
<trkpt lat="46.2979278564453125" lon="7.7180757522583008"><ele></ele><time>2014-10-15T19:9:22Z</time></trkpt>
<trkpt lat="46.2979011535644531" lon="7.7179560661315918"><ele></ele><time>2014-10-15T19:9:25Z</time></trkpt>
<trkpt lat="46.2978897094726562" lon="7.7178797721862793"><ele></ele><time>2014-10-15T19:9:28Z</time></trkpt>
<trkpt lat="46.2978744506835938" lon="7.7178001403808594"><ele></ele><time>2014-10-15T19:9:31Z</time></trkpt>
<trkpt lat="46.2978630065917969" lon="7.7177124023437500"><ele></ele><time>2014-10-15T19:9:34Z</time></trkpt>
<trkpt lat="46.2978591918945312" lon="7.7175855636596680"><ele></ele><time>2014-10-15T19:9:37Z</time></trkpt>
<trkpt lat="46.2978630065917969" lon="7.7175054550170898"><ele></ele><time>2014-10-15T19:9:40Z</time></trkpt>
<trkpt lat="46.2978706359863281" lon="7.7174191474914551"><ele></ele><time>2014-10-15T19:9:43Z</time></trkpt>
<trkpt lat="46.2978744506835938" lon="7.7173314094543457"><ele></ele><time>2014-10-15T19:9:46Z</time></trkpt>
<trkpt lat="46.2978744506835938" lon="7.7172007560729980"><ele></ele><time>2014-10-15T19:9:49Z</time></trkpt>
<trkpt lat="46.2978858947753906" lon="7.7171111106872559"><ele></ele><time>2014-10-15T19:9:52Z</time></trkpt>
<trkpt lat="46.2978820800781250" lon="7.7170124053955078"><ele></ele><time>2014-10-15T19:9:55Z</time></trkpt>
<trkpt lat="46.2978172302246094" lon="7.7169203758239746"><ele></ele><time>2014-10-15T19:9:58Z</time></trkpt>
<trkpt lat="46.2977409362792969" lon="7.7170052528381348"><ele></ele><time>2014-10-15T19:10:1Z</time></trkpt>
<trkpt lat="46.2977104187011719" lon="7.7171564102172852"><ele></ele><time>2014-10-15T19:10:4Z</time></trkpt>
<trkpt lat="46.2976837158203125" lon="7.7172708511352539"><ele></ele><time>2014-10-15T19:10:7Z</time></trkpt>
<trkpt lat="46.2976455688476562" lon="7.7174334526062012"><ele></ele><time>2014-10-15T19:10:10Z</time></trkpt>
<trkpt lat="46.2976226806640625" lon="7.7175335884094238"><ele></ele><time>2014-10-15T19:10:13Z</time></trkpt>
<trkpt lat="46.2976074218750000" lon="7.7176828384399414"><ele></ele><time>2014-10-15T19:10:16Z</time></trkpt>
<trkpt lat="46.2976036071777344" lon="7.7177815437316895"><ele></ele><time>2014-10-15T19:10:19Z</time></trkpt>
<trkpt lat="46.2976074218750000" lon="7.7178707122802734"><ele></ele><time>2014-10-15T19:10:22Z</time></trkpt>
<trkpt lat="46.2976150512695312" lon="7.7179565429687500"><ele></ele><time>2014-10-15T19:10:25Z</time></trkpt>
<trkpt lat="46.2976417541503906" lon="7.7180590629577637"><ele></ele><time>2014-10-15T19:10:28Z</time></trkpt>
<trkpt lat="46.2976608276367188" lon="7.7181344032287598"><ele></ele><time>2014-10-15T19:10:31Z</time></trkpt>
<trkpt lat="46.2976722717285156" lon="7.7182145118713379"><ele></ele><time>2014-10-15T19:10:34Z</time></trkpt>
<trkpt lat="46.2976913452148438" lon="7.7183423042297363"><ele></ele><time>2014-10-15T19:10:37Z</time></trkpt>
<trkpt lat="46.2977142333984375" lon="7.7184715270996094"><ele></ele><time>2014-10-15T19:10:40Z</time></trkpt>
<trkpt lat="46.2977409362792969" lon="7.7185964584350586"><ele></ele><time>2014-10-15T19:10:43Z</time></trkpt>
<trkpt lat="46.2977523803710938" lon="7.7186799049377441"><ele></ele><time>2014-10-15T19:10:46Z</time></trkpt>
<trkpt lat="46.2977790832519531" lon="7.7187886238098145"><ele></ele><time>2014-10-15T19:10:49Z</time></trkpt>
<trkpt lat="46.2978057861328125" lon="7.7188997268676758"><ele></ele><time>2014-10-15T19:10:52Z</time></trkpt>
<trkpt lat="46.2978286743164062" lon="7.7190222740173340"><ele></ele><time>2014-10-15T19:10:55Z</time></trkpt>
<trkpt lat="46.2978401184082031" lon="7.7191019058227539"><ele></ele><time>2014-10-15T19:10:58Z</time></trkpt>
<trkpt lat="46.2978591918945312" lon="7.7192239761352539"><ele></ele><time>2014-10-15T19:11:1Z</time></trkpt>
<trkpt lat="46.2978706359863281" lon="7.7193055152893066"><ele></ele><time>2014-10-15T19:11:4Z</time></trkpt>
<trkpt lat="46.2978858947753906" lon="7.7194275856018066"><ele></ele><time>2014-10-15T19:11:7Z</time></trkpt>
<trkpt lat="46.2978935241699219" lon="7.7195091247558594"><ele></ele><time>2014-10-15T19:11:10Z</time></trkpt>
<trkpt lat="46.2979087829589844" lon="7.7196311950683594"><ele></ele><time>2014-10-15T19:11:13Z</time></trkpt>
<trkpt lat="46.2979164123535156" lon="7.7197113037109375"><ele></ele><time>2014-10-15T19:11:16Z</time></trkpt>
<trkpt lat="46.2979087829589844" lon="7.7198138236999512"><ele></ele><time>2014-10-15T19:11:19Z</time></trkpt>
<trkpt lat="46.2979125976562500" lon="7.7198972702026367"><ele></ele><time>2014-10-15T19:11:22Z</time></trkpt>
<trkpt lat="46.2979164123535156" lon="7.7199745178222656"><ele></ele><time>2014-10-15T19:11:25Z</time></trkpt>
<trkpt lat="46.2979202270507812" lon="7.7200818061828613"><ele></ele><time>2014-10-15T19:11:28Z</time></trkpt>
<trkpt lat="46.2979202270507812" lon="7.7201547622680664"><ele></ele><time>2014-10-15T19:11:31Z</time></trkpt>
<trkpt lat="46.2979164123535156" lon="7.7202277183532715"><ele></ele><time>2014-10-15T19:11:34Z</time></trkpt>
<trkpt lat="46.2979087829589844" lon="7.7203478813171387"><ele></ele><time>2014-10-15T19:11:37Z</time></trkpt>
<trkpt lat="46.2978973388671875" lon="7.7204766273498535"><ele></ele><time>2014-10-15T19:11:40Z</time></trkpt>
<trkpt lat="46.2978935241699219" lon="7.7205600738525391"><ele></ele><time>2014-10-15T19:11:43Z</time></trkpt>
<trkpt lat="46.2978858947753906" lon="7.7206783294677734"><ele></ele><time>2014-10-15T19:11:46Z</time></trkpt>
<trkpt lat="46.2978820800781250" lon="7.7207989692687988"><ele></ele><time>2014-10-15T19:11:49Z</time></trkpt>
<trkpt lat="46.2978782653808594" lon="7.7209043502807617"><ele></ele><time>2014-10-15T19:11:52Z</time></trkpt>
<trkpt lat="46.2978744506835938" lon="7.7209682464599609"><ele></ele><time>2014-10-15T19:11:55Z</time></trkpt>
<trkpt lat="46.2978706359863281" lon="7.7210731506347656"><ele></ele><time>2014-10-15T19:11:58Z</time></trkpt>
<trkpt lat="46.2978591918945312" lon="7.7211790084838867"><ele></ele><time>2014-10-15T19:12:1Z</time></trkpt>
<trkpt lat="46.2978515625000000" lon="7.7212529182434082"><ele></ele><time>2014-10-15T19:12:4Z</time></trkpt>
<trkpt lat="46.2978477478027344" lon="7.7213244438171387"><ele></ele><time>2014-10-15T19:12:7Z</time></trkpt>
<trkpt lat="46.2978363037109375" lon="7.7214388847351074"><ele></ele><time>2014-10-15T19:12:10Z</time></trkpt>
<trkpt lat="46.2978401184082031" lon="7.7215070724487305"><ele></ele><time>2014-10-15T19:12:13Z</time></trkpt>
<trkpt lat="46.2978515625000000" lon="7.7216110229492188"><ele></ele><time>2014-10-15T19:12:16Z</time></trkpt>
<trkpt lat="46.2978477478027344" lon="7.7216897010803223"><ele></ele><time>2014-10-15T19:12:19Z</time></trkpt>
<trkpt lat="46.2978477478027344" lon="7.7217736244201660"><ele></ele><time>2014-10-15T19:12:22Z</time></trkpt>
<trkpt lat="46.2978439331054688" lon="7.7219061851501465"><ele></ele><time>2014-10-15T19:12:25Z</time></trkpt>
<trkpt lat="46.2978363037109375" lon="7.7219934463500977"><ele></ele><time>2014-10-15T19:12:28Z</time></trkpt>
<trkpt lat="46.2978210449218750" lon="7.7221312522888184"><ele></ele><time>2014-10-15T19:12:31Z</time></trkpt>
<trkpt lat="46.2978210449218750" lon="7.7222666740417480"><ele></ele><time>2014-10-15T19:12:34Z</time></trkpt>
<trkpt lat="46.2978363037109375" lon="7.7223811149597168"><ele></ele><time>2014-10-15T19:12:37Z</time></trkpt>
<trkpt lat="46.2978439331054688" lon="7.7224559783935547"><ele></ele><time>2014-10-15T19:12:40Z</time></trkpt>
<trkpt lat="46.2978553771972656" lon="7.7225718498229980"><ele></ele><time>2014-10-15T19:12:43Z</time></trkpt>
<trkpt lat="46.2978591918945312" lon="7.7226495742797852"><ele></ele><time>2014-10-15T19:12:46Z</time></trkpt>
<trkpt lat="46.2978630065917969" lon="7.7227668762207031"><ele></ele><time>2014-10-15T19:12:49Z</time></trkpt>
<trkpt lat="46.2978706359863281" lon="7.7228460311889648"><ele></ele><time>2014-10-15T19:12:52Z</time></trkpt>
<trkpt lat="46.2978706359863281" lon="7.7229275703430176"><ele></ele><time>2014-10-15T19:12:55Z</time></trkpt>
<trkpt lat="46.2978706359863281" lon="7.7230563163757324"><ele></ele><time>2014-10-15T19:12:58Z</time></trkpt>
<trkpt lat="46.2978668212890625" lon="7.7231907844543457"><ele></ele><time>2014-10-15T19:13:1Z</time></trkpt>
<trkpt lat="46.2978553771972656" lon="7.7233362197875977"><ele></ele><time>2014-10-15T19:13:4Z</time></trkpt>
<trkpt lat="46.2978553771972656" lon="7.7234277725219727"><ele></ele><time>2014-10-15T19:13:7Z</time></trkpt>
<trkpt lat="46.2978591918945312" lon="7.7235622406005859"><ele></ele><time>2014-10-15T19:13:10Z</time></trkpt>
<trkpt lat="46.2978706359863281" lon="7.7236504554748535"><ele></ele><time>2014-10-15T19:13:13Z</time></trkpt>
<trkpt lat="46.2978820800781250" lon="7.7237420082092285"><ele></ele><time>2014-10-15T19:13:16Z</time></trkpt>
<trkpt lat="46.2978935241699219" lon="7.7238802909851074"><ele></ele><time>2014-10-15T19:13:19Z</time></trkpt>
<trkpt lat="46.2979125976562500" lon="7.7240109443664551"><ele></ele><time>2014-10-15T19:13:22Z</time></trkpt>
<trkpt lat="46.2979278564453125" lon="7.7241463661193848"><ele></ele><time>2014-10-15T19:13:25Z</time></trkpt>
<trkpt lat="46.2979393005371094" lon="7.7242312431335449"><ele></ele><time>2014-10-15T19:13:28Z</time></trkpt>
<trkpt lat="46.2979583740234375" lon="7.7243571281433105"><ele></ele><time>2014-10-15T19:13:31Z</time></trkpt>
<trkpt lat="46.2979660034179688" lon="7.7244448661804199"><ele></ele><time>2014-10-15T19:13:34Z</time></trkpt>
<trkpt lat="46.2979812622070312" lon="7.7245759963989258"><ele></ele><time>2014-10-15T19:13:37Z</time></trkpt>
<trkpt lat="46.2979927062988281" lon="7.7246565818786621"><ele></ele><time>2014-10-15T19:13:40Z</time></trkpt>
<trkpt lat="46.2980079650878906" lon="7.7247428894042969"><ele></ele><time>2014-10-15T19:13:43Z</time></trkpt>
<trkpt lat="46.2980155944824219" lon="7.7248330116271973"><ele></ele><time>2014-10-15T19:13:46Z</time></trkpt>
<trkpt lat="46.2980232238769531" lon="7.7249217033386230"><ele></ele><time>2014-10-15T19:13:49Z</time></trkpt>
<trkpt lat="46.2980308532714844" lon="7.7250099182128906"><ele></ele><time>2014-10-15T19:13:52Z</time></trkpt>
<trkpt lat="46.2980461120605469" lon="7.7251448631286621"><ele></ele><time>2014-10-15T19:13:55Z</time></trkpt>
<trkpt lat="46.2980537414550781" lon="7.7252812385559082"><ele></ele><time>2014-10-15T19:13:58Z</time></trkpt>
<trkpt lat="46.2980804443359375" lon="7.7254080772399902"><ele></ele><time>2014-10-15T19:14:1Z</time></trkpt>
<trkpt lat="46.2980804443359375" lon="7.7255463600158691"><ele></ele><time>2014-10-15T19:14:4Z</time></trkpt>
<trkpt lat="46.2980690002441406" lon="7.7256779670715332"><ele></ele><time>2014-10-15T19:14:7Z</time></trkpt>
<trkpt lat="46.2980651855468750" lon="7.7258062362670898"><ele></ele><time>2014-10-15T19:14:10Z</time></trkpt>
<trkpt lat="46.2980422973632812" lon="7.7259302139282227"><ele></ele><time>2014-10-15T19:14:13Z</time></trkpt>
<trkpt lat="46.2980270385742188" lon="7.7260093688964844"><ele></ele><time>2014-10-15T19:14:16Z</time></trkpt>
<trkpt lat="46.2980155944824219" lon="7.7261271476745605"><ele></ele><time>2014-10-15T19:14:19Z</time></trkpt>
<trkpt lat="46.2980041503906250" lon="7.7262091636657715"><ele></ele><time>2014-10-15T19:14:22Z</time></trkpt>
<trkpt lat="46.2979698181152344" lon="7.7263274192810059"><ele></ele><time>2014-10-15T19:14:25Z</time></trkpt>
<trkpt lat="46.2979316711425781" lon="7.7264080047607422"><ele></ele><time>2014-10-15T19:14:28Z</time></trkpt>
<trkpt lat="46.2979011535644531" lon="7.7264933586120605"><ele></ele><time>2014-10-15T19:14:31Z</time></trkpt>
<trkpt lat="46.2978820800781250" lon="7.7265853881835938"><ele></ele><time>2014-10-15T19:14:34Z</time></trkpt>
<trkpt lat="46.2978363037109375" lon="7.7267055511474609"><ele></ele><time>2014-10-15T19:14:37Z</time></trkpt>
<trkpt lat="46.2978019714355469" lon="7.7267827987670898"><ele></ele><time>2014-10-15T19:14:40Z</time></trkpt>
<trkpt lat="46.2977714538574219" lon="7.7268981933593750"><ele></ele><time>2014-10-15T19:14:43Z</time></trkpt>
<trkpt lat="46.2977371215820312" lon="7.7269749641418457"><ele></ele><time>2014-10-15T19:14:46Z</time></trkpt>
<trkpt lat="46.2976951599121094" lon="7.7270998954772949"><ele></ele><time>2014-10-15T19:14:49Z</time></trkpt>
<trkpt lat="46.2976646423339844" lon="7.7272219657897949"><ele></ele><time>2014-10-15T19:14:52Z</time></trkpt>
<trkpt lat="46.2976455688476562" lon="7.7273521423339844"><ele></ele><time>2014-10-15T19:14:55Z</time></trkpt>
<trkpt lat="46.2976379394531250" lon="7.7274394035339355"><ele></ele><time>2014-10-15T19:14:58Z</time></trkpt>
<trkpt lat="46.2976264953613281" lon="7.7275552749633789"><ele></ele><time>2014-10-15T19:15:1Z</time></trkpt>
<trkpt lat="46.2976264953613281" lon="7.7276191711425781"><ele></ele><time>2014-10-15T19:15:4Z</time></trkpt>
<trkpt lat="46.2976226806640625" lon="7.7276992797851562"><ele></ele><time>2014-10-15T19:15:7Z</time></trkpt>
<trkpt lat="46.2976226806640625" lon="7.7277822494506836"><ele></ele><time>2014-10-15T19:15:10Z</time></trkpt>
<trkpt lat="46.2976226806640625" lon="7.7279167175292969"><ele></ele><time>2014-10-15T19:15:13Z</time></trkpt>
<trkpt lat="46.2976303100585938" lon="7.7280082702636719"><ele></ele><time>2014-10-15T19:15:16Z</time></trkpt>
<trkpt lat="46.2976608276367188" lon="7.7281265258789062"><ele></ele><time>2014-10-15T19:15:19Z</time></trkpt>
<trkpt lat="46.2976799011230469" lon="7.7282505035400391"><ele></ele><time>2014-10-15T19:15:22Z</time></trkpt>
<trkpt lat="46.2976989746093750" lon="7.7283697128295898"><ele></ele><time>2014-10-15T19:15:25Z</time></trkpt>
<trkpt lat="46.2977142333984375" lon="7.7284479141235352"><ele></ele><time>2014-10-15T19:15:28Z</time></trkpt>
<trkpt lat="46.2977256774902344" lon="7.7285728454589844"><ele></ele><time>2014-10-15T19:15:31Z</time></trkpt>
<trkpt lat="46.2977294921875000" lon="7.7286601066589355"><ele></ele><time>2014-10-15T19:15:34Z</time></trkpt>
<trkpt lat="46.2977371215820312" lon="7.7287936210632324"><ele></ele><time>2014-10-15T19:15:37Z</time></trkpt>
<trkpt lat="46.2977561950683594" lon="7.7289195060729980"><ele></ele><time>2014-10-15T19:15:40Z</time></trkpt>
<trkpt lat="46.2977600097656250" lon="7.7290053367614746"><ele></ele><time>2014-10-15T19:15:43Z</time></trkpt>
<trkpt lat="46.2977447509765625" lon="7.7291345596313477"><ele></ele><time>2014-10-15T19:15:46Z</time></trkpt>
<trkpt lat="46.2977066040039062" lon="7.7292647361755371"><ele></ele><time>2014-10-15T19:15:49Z</time></trkpt>
<trkpt lat="46.2976837158203125" lon="7.7293801307678223"><ele></ele><time>2014-10-15T19:15:52Z</time></trkpt>
<trkpt lat="46.2976570129394531" lon="7.7294912338256836"><ele></ele><time>2014-10-15T19:15:55Z</time></trkpt>
<trkpt lat="46.2976303100585938" lon="7.7295694351196289"><ele></ele><time>2014-10-15T19:15:58Z</time></trkpt>
<trkpt lat="46.2976036071777344" lon="7.7296414375305176"><ele></ele><time>2014-10-15T19:16:1Z</time></trkpt>
<trkpt lat="46.2975883483886719" lon="7.7297139167785645"><ele></ele><time>2014-10-15T19:16:4Z</time></trkpt>
<trkpt lat="46.2975616455078125" lon="7.7298345565795898"><ele></ele><time>2014-10-15T19:16:7Z</time></trkpt>
<trkpt lat="46.2975425720214844" lon="7.7299194335937500"><ele></ele><time>2014-10-15T19:16:10Z</time></trkpt>
<trkpt lat="46.2975158691406250" lon="7.7300524711608887"><ele></ele><time>2014-10-15T19:16:13Z</time></trkpt>
<trkpt lat="46.2974929809570312" lon="7.7301764488220215"><ele></ele><time>2014-10-15T19:16:16Z</time></trkpt>
<trkpt lat="46.2974891662597656" lon="7.7303018569946289"><ele></ele><time>2014-10-15T19:16:19Z</time></trkpt>
<trkpt lat="46.2974967956542969" lon="7.7303919792175293"><ele></ele><time>2014-10-15T19:16:22Z</time></trkpt>
<trkpt lat="46.2975044250488281" lon="7.7305345535278320"><ele></ele><time>2014-10-15T19:16:25Z</time></trkpt>
<trkpt lat="46.2975082397460938" lon="7.7306728363037109"><ele></ele><time>2014-10-15T19:16:28Z</time></trkpt>
<trkpt lat="46.2975044250488281" lon="7.7307658195495605"><ele></ele><time>2014-10-15T19:16:31Z</time></trkpt>
<trkpt lat="46.2974929809570312" lon="7.7308983802795410"><ele></ele><time>2014-10-15T19:16:34Z</time></trkpt>
<trkpt lat="46.2974662780761719" lon="7.7309856414794922"><ele></ele><time>2014-10-15T19:16:37Z</time></trkpt>
<trkpt lat="46.2974052429199219" lon="7.7310833930969238"><ele></ele><time>2014-10-15T19:16:40Z</time></trkpt>
<trkpt lat="46.2973251342773438" lon="7.7311482429504395"><ele></ele><time>2014-10-15T19:16:43Z</time></trkpt>
<trkpt lat="46.2972488403320312" lon="7.7312130928039551"><ele></ele><time>2014-10-15T19:16:46Z</time></trkpt>
<trkpt lat="46.2971992492675781" lon="7.7312607765197754"><ele></ele><time>2014-10-15T19:16:49Z</time></trkpt>
<trkpt lat="46.2971420288085938" lon="7.7313351631164551"><ele></ele><time>2014-10-15T19:16:52Z</time></trkpt>
<trkpt lat="46.2971038818359375" lon="7.7313899993896484"><ele></ele><time>2014-10-15T19:16:55Z</time></trkpt>
<trkpt lat="46.2970695495605469" lon="7.7314505577087402"><ele></ele><time>2014-10-15T19:16:58Z</time></trkpt>
<trkpt lat="46.2970123291015625" lon="7.7315459251403809"><ele></ele><time>2014-10-15T19:17:1Z</time></trkpt>
<trkpt lat="46.2969551086425781" lon="7.7316365242004395"><ele></ele><time>2014-10-15T19:17:4Z</time></trkpt>
<trkpt lat="46.2969093322753906" lon="7.7316937446594238"><ele></ele><time>2014-10-15T19:17:7Z</time></trkpt>
<trkpt lat="46.2968368530273438" lon="7.7317667007446289"><ele></ele><time>2014-10-15T19:17:10Z</time></trkpt>
<trkpt lat="46.2967605590820312" lon="7.7318229675292969"><ele></ele><time>2014-10-15T19:17:13Z</time></trkpt>
<trkpt lat="46.2967147827148438" lon="7.7318682670593262"><ele></ele><time>2014-10-15T19:17:16Z</time></trkpt>
<trkpt lat="46.2966346740722656" lon="7.7319340705871582"><ele></ele><time>2014-10-15T19:17:19Z</time></trkpt>
<trkpt lat="46.2965469360351562" lon="7.7319960594177246"><ele></ele><time>2014-10-15T19:17:22Z</time></trkpt>
<trkpt lat="46.2964591979980469" lon="7.7320561408996582"><ele></ele><time>2014-10-15T19:17:25Z</time></trkpt>
<trkpt lat="46.2964019775390625" lon="7.7320957183837891"><ele></ele><time>2014-10-15T19:17:28Z</time></trkpt>
<trkpt lat="46.2963104248046875" lon="7.7321805953979492"><ele></ele><time>2014-10-15T19:17:31Z</time></trkpt>
<trkpt lat="46.2962532043457031" lon="7.7322463989257812"><ele></ele><time>2014-10-15T19:17:34Z</time></trkpt>
<trkpt lat="46.2961730957031250" lon="7.7323408126831055"><ele></ele><time>2014-10-15T19:17:37Z</time></trkpt>
<trkpt lat="46.2961196899414062" lon="7.7323837280273438"><ele></ele><time>2014-10-15T19:17:40Z</time></trkpt>
<trkpt lat="46.2960815429687500" lon="7.7323231697082520"><ele></ele><time>2014-10-15T19:17:43Z</time></trkpt>
<trkpt lat="46.2961235046386719" lon="7.7322397232055664"><ele></ele><time>2014-10-15T19:17:46Z</time></trkpt>
<trkpt lat="46.2961845397949219" lon="7.7321820259094238"><ele></ele><time>2014-10-15T19:17:49Z</time></trkpt>
<trkpt lat="46.2962760925292969" lon="7.7320938110351562"><ele></ele><time>2014-10-15T19:17:52Z</time></trkpt>
<trkpt lat="46.2963562011718750" lon="7.7320036888122559"><ele></ele><time>2014-10-15T19:17:55Z</time></trkpt>
<trkpt lat="46.2964363098144531" lon="7.7319145202636719"><ele></ele><time>2014-10-15T19:17:58Z</time></trkpt>
<trkpt lat="46.2964897155761719" lon="7.7318544387817383"><ele></ele><time>2014-10-15T19:18:1Z</time></trkpt>
<trkpt lat="46.2965660095214844" lon="7.7317523956298828"><ele></ele><time>2014-10-15T19:18:4Z</time></trkpt>
<trkpt lat="46.2966384887695312" lon="7.7316346168518066"><ele></ele><time>2014-10-15T19:18:7Z</time></trkpt>
<trkpt lat="46.2967033386230469" lon="7.7315125465393066"><ele></ele><time>2014-10-15T19:18:10Z</time></trkpt>
<trkpt lat="46.2967491149902344" lon="7.7314391136169434"><ele></ele><time>2014-10-15T19:18:13Z</time></trkpt>
<trkpt lat="46.2967948913574219" lon="7.7313690185546875"><ele></ele><time>2014-10-15T19:18:16Z</time></trkpt>
<trkpt lat="46.2968597412109375" lon="7.7312512397766113"><ele></ele><time>2014-10-15T19:18:19Z</time></trkpt>
<trkpt lat="46.2969017028808594" lon="7.7311720848083496"><ele></ele><time>2014-10-15T19:18:22Z</time></trkpt>
<trkpt lat="46.2969398498535156" lon="7.7310924530029297"><ele></ele><time>2014-10-15T19:18:25Z</time></trkpt>
<trkpt lat="46.2969932556152344" lon="7.7309565544128418"><ele></ele><time>2014-10-15T19:18:28Z</time></trkpt>
<trkpt lat="46.2970199584960938" lon="7.7308526039123535"><ele></ele><time>2014-10-15T19:18:31Z</time></trkpt>
<trkpt lat="46.2970504760742188" lon="7.7306909561157227"><ele></ele><time>2014-10-15T19:18:34Z</time></trkpt>
<trkpt lat="46.2970542907714844" lon="7.7305235862731934"><ele></ele><time>2014-10-15T19:18:37Z</time></trkpt>
<trkpt lat="46.2970466613769531" lon="7.7304153442382812"><ele></ele><time>2014-10-15T19:18:40Z</time></trkpt>
<trkpt lat="46.2970275878906250" lon="7.7303047180175781"><ele></ele><time>2014-10-15T19:18:43Z</time></trkpt>
<trkpt lat="46.2970085144042969" lon="7.7301945686340332"><ele></ele><time>2014-10-15T19:18:46Z</time></trkpt>
<trkpt lat="46.2969818115234375" lon="7.7300925254821777"><ele></ele><time>2014-10-15T19:18:49Z</time></trkpt>
<trkpt lat="46.2969360351562500" lon="7.7299056053161621"><ele></ele><time>2014-10-15T19:18:52Z</time></trkpt>
<trkpt lat="46.2969055175781250" lon="7.7297902107238770"><ele></ele><time>2014-10-15T19:18:55Z</time></trkpt>
<trkpt lat="46.2968673706054688" lon="7.7296333312988281"><ele></ele><time>2014-10-15T19:18:58Z</time></trkpt>
<trkpt lat="46.2968368530273438" lon="7.7295317649841309"><ele></ele><time>2014-10-15T19:19:1Z</time></trkpt>
<trkpt lat="46.2967987060546875" lon="7.7293734550476074"><ele></ele><time>2014-10-15T19:19:4Z</time></trkpt>
<trkpt lat="46.2967681884765625" lon="7.7292656898498535"><ele></ele><time>2014-10-15T19:19:7Z</time></trkpt>
<trkpt lat="46.2967414855957031" lon="7.7290897369384766"><ele></ele><time>2014-10-15T19:19:10Z</time></trkpt>
<trkpt lat="46.2967414855957031" lon="7.7289700508117676"><ele></ele><time>2014-10-15T19:19:13Z</time></trkpt>
<trkpt lat="46.2967605590820312" lon="7.7287859916687012"><ele></ele><time>2014-10-15T19:19:16Z</time></trkpt>
<trkpt lat="46.2968025207519531" lon="7.7286148071289062"><ele></ele><time>2014-10-15T19:19:19Z</time></trkpt>
<trkpt lat="46.2968521118164062" lon="7.7284440994262695"><ele></ele><time>2014-10-15T19:19:22Z</time></trkpt>
<trkpt lat="46.2968864440917969" lon="7.7283282279968262"><ele></ele><time>2014-10-15T19:19:25Z</time></trkpt>
<trkpt lat="46.2969436645507812" lon="7.7281541824340820"><ele></ele><time>2014-10-15T19:19:28Z</time></trkpt>
<trkpt lat="46.2969818115234375" lon="7.7279663085937500"><ele></ele><time>2014-10-15T19:19:31Z</time></trkpt>
<trkpt lat="46.2969894409179688" lon="7.7278289794921875"><ele></ele><time>2014-10-15T19:19:34Z</time></trkpt>
<trkpt lat="46.2970008850097656" lon="7.7276940345764160"><ele></ele><time>2014-10-15T19:19:37Z</time></trkpt>
<trkpt lat="46.2969894409179688" lon="7.7274670600891113"><ele></ele><time>2014-10-15T19:19:40Z</time></trkpt>
<trkpt lat="46.2969512939453125" lon="7.7272195816040039"><ele></ele><time>2014-10-15T19:19:43Z</time></trkpt>
<trkpt lat="46.2969207763671875" lon="7.7269845008850098"><ele></ele><time>2014-10-15T19:19:46Z</time></trkpt>
<trkpt lat="46.2969055175781250" lon="7.7267475128173828"><ele></ele><time>2014-10-15T19:19:49Z</time></trkpt>
<trkpt lat="46.2968635559082031" lon="7.7266011238098145"><ele></ele><time>2014-10-15T19:19:52Z</time></trkpt>
<trkpt lat="46.2967948913574219" lon="7.7264041900634766"><ele></ele><time>2014-10-15T19:19:55Z</time></trkpt>
<trkpt lat="46.2966880798339844" lon="7.7262229919433594"><ele></ele><time>2014-10-15T19:19:58Z</time></trkpt>
<trkpt lat="46.2966232299804688" lon="7.7260155677795410"><ele></ele><time>2014-10-15T19:20:1Z</time></trkpt>
<trkpt lat="46.2965888977050781" lon="7.7258720397949219"><ele></ele><time>2014-10-15T19:20:4Z</time></trkpt>
<trkpt lat="46.2965850830078125" lon="7.7256336212158203"><ele></ele><time>2014-10-15T19:20:7Z</time></trkpt>
<trkpt lat="46.2966117858886719" lon="7.7253952026367188"><ele></ele><time>2014-10-15T19:20:10Z</time></trkpt>
<trkpt lat="46.2966232299804688" lon="7.7252449989318848"><ele></ele><time>2014-10-15T19:20:13Z</time></trkpt>
<trkpt lat="46.2966308593750000" lon="7.7251038551330566"><ele></ele><time>2014-10-15T19:20:16Z</time></trkpt>
<trkpt lat="46.2966156005859375" lon="7.7248816490173340"><ele></ele><time>2014-10-15T19:20:19Z</time></trkpt>
<trkpt lat="46.2966156005859375" lon="7.7246565818786621"><ele></ele><time>2014-10-15T19:20:22Z</time></trkpt>
<trkpt lat="46.2966499328613281" lon="7.7244400978088379"><ele></ele><time>2014-10-15T19:20:25Z</time></trkpt>
<trkpt lat="46.2966880798339844" lon="7.7243070602416992"><ele></ele><time>2014-10-15T19:20:28Z</time></trkpt>
<trkpt lat="46.2967491149902344" lon="7.7241187095642090"><ele></ele><time>2014-10-15T19:20:31Z</time></trkpt>
<trkpt lat="46.2968025207519531" lon="7.7239313125610352"><ele></ele><time>2014-10-15T19:20:34Z</time></trkpt>
<trkpt lat="46.2968521118164062" lon="7.7237396240234375"><ele></ele><time>2014-10-15T19:20:37Z</time></trkpt>
<trkpt lat="46.2968750000000000" lon="7.7235569953918457"><ele></ele><time>2014-10-15T19:20:40Z</time></trkpt>
<trkpt lat="46.2968864440917969" lon="7.7234287261962891"><ele></ele><time>2014-10-15T19:20:43Z</time></trkpt>
<trkpt lat="46.2968826293945312" lon="7.7232437133789062"><ele></ele><time>2014-10-15T19:20:46Z</time></trkpt>
<trkpt lat="46.2968597412109375" lon="7.7230591773986816"><ele></ele><time>2014-10-15T19:20:49Z</time></trkpt>
<trkpt lat="46.2968292236328125" lon="7.7228889465332031"><ele></ele><time>2014-10-15T19:20:52Z</time></trkpt>
<trkpt lat="46.2968025207519531" lon="7.7227144241333008"><ele></ele><time>2014-10-15T19:20:55Z</time></trkpt>
<trkpt lat="46.2967720031738281" lon="7.7225794792175293"><ele></ele><time>2014-10-15T19:20:58Z</time></trkpt>
<trkpt lat="46.2967720031738281" lon="7.7223944664001465"><ele></ele><time>2014-10-15T19:21:1Z</time></trkpt>
<trkpt lat="46.2967872619628906" lon="7.7222857475280762"><ele></ele><time>2014-10-15T19:21:4Z</time></trkpt>
<trkpt lat="46.2967758178710938" lon="7.7221641540527344"><ele></ele><time>2014-10-15T19:21:7Z</time></trkpt>
<trkpt lat="46.2967567443847656" lon="7.7219710350036621"><ele></ele><time>2014-10-15T19:21:10Z</time></trkpt>
<trkpt lat="46.2967338562011719" lon="7.7218341827392578"><ele></ele><time>2014-10-15T19:21:13Z</time></trkpt>
<trkpt lat="46.2967224121093750" lon="7.7216410636901855"><ele></ele><time>2014-10-15T19:21:16Z</time></trkpt>
<trkpt lat="46.2966995239257812" lon="7.7214488983154297"><ele></ele><time>2014-10-15T19:21:19Z</time></trkpt>
<trkpt lat="46.2966842651367188" lon="7.7212686538696289"><ele></ele><time>2014-10-15T19:21:22Z</time></trkpt>
<trkpt lat="46.2966728210449219" lon="7.7211494445800781"><ele></ele><time>2014-10-15T19:21:25Z</time></trkpt>
<trkpt lat="46.2966575622558594" lon="7.7209758758544922"><ele></ele><time>2014-10-15T19:21:28Z</time></trkpt>
<trkpt lat="46.2966156005859375" lon="7.7208061218261719"><ele></ele><time>2014-10-15T19:21:31Z</time></trkpt>
<trkpt lat="46.2965774536132812" lon="7.7206368446350098"><ele></ele><time>2014-10-15T19:21:34Z</time></trkpt>
<trkpt lat="46.2965583801269531" lon="7.7204604148864746"><ele></ele><time>2014-10-15T19:21:37Z</time></trkpt>
<trkpt lat="46.2965316772460938" lon="7.7203474044799805"><ele></ele><time>2014-10-15T19:21:40Z</time></trkpt>
<trkpt lat="46.2964973449707031" lon="7.7201786041259766"><ele></ele><time>2014-10-15T19:21:43Z</time></trkpt>
<trkpt lat="46.2964668273925781" lon="7.7200160026550293"><ele></ele><time>2014-10-15T19:21:46Z</time></trkpt>
<trkpt lat="46.2964477539062500" lon="7.7199077606201172"><ele></ele><time>2014-10-15T19:21:49Z</time></trkpt>
<trkpt lat="46.2964172363281250" lon="7.7197394371032715"><ele></ele><time>2014-10-15T19:21:52Z</time></trkpt>
<trkpt lat="46.2963790893554688" lon="7.7195787429809570"><ele></ele><time>2014-10-15T19:21:55Z</time></trkpt>
<trkpt lat="46.2963523864746094" lon="7.7194747924804688"><ele></ele><time>2014-10-15T19:21:58Z</time></trkpt>
<trkpt lat="46.2963142395019531" lon="7.7193164825439453"><ele></ele><time>2014-10-15T19:22:1Z</time></trkpt>
<trkpt lat="46.2962799072265625" lon="7.7191581726074219"><ele></ele><time>2014-10-15T19:22:4Z</time></trkpt>
<trkpt lat="46.2962379455566406" lon="7.7190079689025879"><ele></ele><time>2014-10-15T19:22:7Z</time></trkpt>
<trkpt lat="46.2961883544921875" lon="7.7188525199890137"><ele></ele><time>2014-10-15T19:22:10Z</time></trkpt>
<trkpt lat="46.2961387634277344" lon="7.7187590599060059"><ele></ele><time>2014-10-15T19:22:13Z</time></trkpt>
<trkpt lat="46.2960548400878906" lon="7.7186241149902344"><ele></ele><time>2014-10-15T19:22:16Z</time></trkpt>
<trkpt lat="46.2959556579589844" lon="7.7185182571411133"><ele></ele><time>2014-10-15T19:22:19Z</time></trkpt>
<trkpt lat="46.2958488464355469" lon="7.7184400558471680"><ele></ele><time>2014-10-15T19:22:22Z</time></trkpt>
<trkpt lat="46.2957687377929688" lon="7.7184004783630371"><ele></ele><time>2014-10-15T19:22:25Z</time></trkpt>
<trkpt lat="46.2956428527832031" lon="7.7183532714843750"><ele></ele><time>2014-10-15T19:22:28Z</time></trkpt>
<trkpt lat="46.2955284118652344" lon="7.7183113098144531"><ele></ele><time>2014-10-15T19:22:31Z</time></trkpt>
<trkpt lat="46.2953720092773438" lon="7.7182497978210449"><ele></ele><time>2014-10-15T19:22:34Z</time></trkpt>
<trkpt lat="46.2952194213867188" lon="7.7181515693664551"><ele></ele><time>2014-10-15T19:22:37Z</time></trkpt>
<trkpt lat="46.2951240539550781" lon="7.7180552482604980"><ele></ele><time>2014-10-15T19:22:40Z</time></trkpt>
<trkpt lat="46.2950019836425781" lon="7.7178692817687988"><ele></ele><time>2014-10-15T19:22:43Z</time></trkpt>
<trkpt lat="46.2949104309082031" lon="7.7177562713623047"><ele></ele><time>2014-10-15T19:22:46Z</time></trkpt>
<trkpt lat="46.2947845458984375" lon="7.7175817489624023"><ele></ele><time>2014-10-15T19:22:49Z</time></trkpt>
<trkpt lat="46.2947044372558594" lon="7.7174701690673828"><ele></ele><time>2014-10-15T19:22:52Z</time></trkpt>
<trkpt lat="46.2946281433105469" lon="7.7173538208007812"><ele></ele><time>2014-10-15T19:22:55Z</time></trkpt>
<trkpt lat="46.2945556640625000" lon="7.7172331809997559"><ele></ele><time>2014-10-15T19:22:58Z</time></trkpt>
<trkpt lat="46.2944717407226562" lon="7.7170405387878418"><ele></ele><time>2014-10-15T19:23:1Z</time></trkpt>
<trkpt lat="46.2944145202636719" lon="7.7169094085693359"><ele></ele><time>2014-10-15T19:23:4Z</time></trkpt>
<trkpt lat="46.2943229675292969" lon="7.7167091369628906"><ele></ele><time>2014-10-15T19:23:7Z</time></trkpt>
<trkpt lat="46.2942161560058594" lon="7.7165870666503906"><ele></ele><time>2014-10-15T19:23:10Z</time></trkpt>
<trkpt lat="46.2941932678222656" lon="7.7166676521301270"><ele></ele><time>2014-10-15T19:23:13Z</time></trkpt>
<trkpt lat="46.2942771911621094" lon="7.7168035507202148"><ele></ele><time>2014-10-15T19:23:16Z</time></trkpt>
<trkpt lat="46.2943305969238281" lon="7.7168855667114258"><ele></ele><time>2014-10-15T19:23:19Z</time></trkpt>
<trkpt lat="46.2943878173828125" lon="7.7170028686523438"><ele></ele><time>2014-10-15T19:23:22Z</time></trkpt>
<trkpt lat="46.2944488525390625" lon="7.7171053886413574"><ele></ele><time>2014-10-15T19:23:25Z</time></trkpt>
<trkpt lat="46.2944869995117188" lon="7.7171721458435059"><ele></ele><time>2014-10-15T19:23:28Z</time></trkpt>
<trkpt lat="46.2945098876953125" lon="7.7172427177429199"><ele></ele><time>2014-10-15T19:23:31Z</time></trkpt>
<trkpt lat="46.2945556640625000" lon="7.7173418998718262"><ele></ele><time>2014-10-15T19:23:34Z</time></trkpt>
<trkpt lat="46.2945899963378906" lon="7.7174062728881836"><ele></ele><time>2014-10-15T19:23:37Z</time></trkpt>
<trkpt lat="46.2946472167968750" lon="7.7175073623657227"><ele></ele><time>2014-10-15T19:23:40Z</time></trkpt>
<trkpt lat="46.2947082519531250" lon="7.7176046371459961"><ele></ele><time>2014-10-15T19:23:43Z</time></trkpt>
<trkpt lat="46.2947425842285156" lon="7.7176685333251953"><ele></ele><time>2014-10-15T19:23:46Z</time></trkpt>
<trkpt lat="46.2947921752929688" lon="7.7177624702453613"><ele></ele><time>2014-10-15T19:23:49Z</time></trkpt>
<trkpt lat="46.2948265075683594" lon="7.7178654670715332"><ele></ele><time>2014-10-15T19:23:52Z</time></trkpt>
<trkpt lat="46.2948570251464844" lon="7.7179818153381348"><ele></ele><time>2014-10-15T19:23:55Z</time></trkpt>
<trkpt lat="46.2948684692382812" lon="7.7181010246276855"><ele></ele><time>2014-10-15T19:23:58Z</time></trkpt>
<trkpt lat="46.2948265075683594" lon="7.7181968688964844"><ele></ele><time>2014-10-15T19:24:1Z</time></trkpt>
<trkpt lat="46.2947502136230469" lon="7.7181339263916016"><ele></ele><time>2014-10-15T19:24:4Z</time></trkpt>
<trkpt lat="46.2947006225585938" lon="7.7180204391479492"><ele></ele><time>2014-10-15T19:24:7Z</time></trkpt>
<trkpt lat="46.2946624755859375" lon="7.7179388999938965"><ele></ele><time>2014-10-15T19:24:10Z</time></trkpt>
<trkpt lat="46.2946014404296875" lon="7.7178301811218262"><ele></ele><time>2014-10-15T19:24:13Z</time></trkpt>
<trkpt lat="46.2945404052734375" lon="7.7177152633666992"><ele></ele><time>2014-10-15T19:24:16Z</time></trkpt>
<trkpt lat="46.2944793701171875" lon="7.7176513671875000"><ele></ele><time>2014-10-15T19:24:19Z</time></trkpt>
<trkpt lat="46.2944107055664062" lon="7.7175984382629395"><ele></ele><time>2014-10-15T19:24:22Z</time></trkpt>
<trkpt lat="46.2943000793457031" lon="7.7175116539001465"><ele></ele><time>2014-10-15T19:24:25Z</time></trkpt>
<trkpt lat="46.2941894531250000" lon="7.7174177169799805"><ele></ele><time>2014-10-15T19:24:28Z</time></trkpt>
<trkpt lat="46.2941246032714844" lon="7.7173571586608887"><ele></ele><time>2014-10-15T19:24:31Z</time></trkpt>
<trkpt lat="46.2940292358398438" lon="7.7172808647155762"><ele></ele><time>2014-10-15T19:24:34Z</time></trkpt>
<trkpt lat="46.2939224243164062" lon="7.7172217369079590"><ele></ele><time>2014-10-15T19:24:37Z</time></trkpt>
<trkpt lat="46.2938156127929688" lon="7.7171635627746582"><ele></ele><time>2014-10-15T19:24:40Z</time></trkpt>
<trkpt lat="46.2937469482421875" lon="7.7171182632446289"><ele></ele><time>2014-10-15T19:24:43Z</time></trkpt>
<trkpt lat="46.2936363220214844" lon="7.7170362472534180"><ele></ele><time>2014-10-15T19:24:46Z</time></trkpt>
<trkpt lat="46.2935600280761719" lon="7.7169799804687500"><ele></ele><time>2014-10-15T19:24:49Z</time></trkpt>
<trkpt lat="46.2934684753417969" lon="7.7168788909912109"><ele></ele><time>2014-10-15T19:24:52Z</time></trkpt>
<trkpt lat="46.2934074401855469" lon="7.7168097496032715"><ele></ele><time>2014-10-15T19:24:55Z</time></trkpt>
<trkpt lat="46.2933273315429688" lon="7.7167110443115234"><ele></ele><time>2014-10-15T19:24:58Z</time></trkpt>
<trkpt lat="46.2932777404785156" lon="7.7166419029235840"><ele></ele><time>2014-10-15T19:25:1Z</time></trkpt>
<trkpt lat="46.2932357788085938" lon="7.7165694236755371"><ele></ele><time>2014-10-15T19:25:4Z</time></trkpt>
<trkpt lat="46.2931671142578125" lon="7.7164497375488281"><ele></ele><time>2014-10-15T19:25:7Z</time></trkpt>
<trkpt lat="46.2931060791015625" lon="7.7163295745849609"><ele></ele><time>2014-10-15T19:25:10Z</time></trkpt>
<trkpt lat="46.2930145263671875" lon="7.7162623405456543"><ele></ele><time>2014-10-15T19:25:13Z</time></trkpt>
<trkpt lat="46.2929611206054688" lon="7.7163157463073730"><ele></ele><time>2014-10-15T19:25:16Z</time></trkpt>
<trkpt lat="46.2929878234863281" lon="7.7164726257324219"><ele></ele><time>2014-10-15T19:25:19Z</time></trkpt>
<trkpt lat="46.2930793762207031" lon="7.7165975570678711"><ele></ele><time>2014-10-15T19:25:22Z</time></trkpt>
<trkpt lat="46.2931175231933594" lon="7.7166604995727539"><ele></ele><time>2014-10-15T19:25:25Z</time></trkpt>
<trkpt lat="46.2931442260742188" lon="7.7167310714721680"><ele></ele><time>2014-10-15T19:25:28Z</time></trkpt>
<trkpt lat="46.2931861877441406" lon="7.7168421745300293"><ele></ele><time>2014-10-15T19:25:31Z</time></trkpt>
<trkpt lat="46.2932128906250000" lon="7.7169742584228516"><ele></ele><time>2014-10-15T19:25:34Z</time></trkpt>
<trkpt lat="46.2932357788085938" lon="7.7170987129211426"><ele></ele><time>2014-10-15T19:25:37Z</time></trkpt>
<trkpt lat="46.2932548522949219" lon="7.7172088623046875"><ele></ele><time>2014-10-15T19:25:40Z</time></trkpt>
<trkpt lat="46.2932662963867188" lon="7.7172760963439941"><ele></ele><time>2014-10-15T19:25:43Z</time></trkpt>
<trkpt lat="46.2932815551757812" lon="7.7173433303833008"><ele></ele><time>2014-10-15T19:25:46Z</time></trkpt>
<trkpt lat="46.2932968139648438" lon="7.7174463272094727"><ele></ele><time>2014-10-15T19:25:49Z</time></trkpt>
<trkpt lat="46.2933197021484375" lon="7.7175464630126953"><ele></ele><time>2014-10-15T19:25:52Z</time></trkpt>
<trkpt lat="46.2933387756347656" lon="7.7176127433776855"><ele></ele><time>2014-10-15T19:25:55Z</time></trkpt>
<trkpt lat="46.2933464050292969" lon="7.7176833152770996"><ele></ele><time>2014-10-15T19:25:58Z</time></trkpt>
<trkpt lat="46.2933502197265625" lon="7.7177991867065430"><ele></ele><time>2014-10-15T19:26:1Z</time></trkpt>
<trkpt lat="46.2933692932128906" lon="7.7179145812988281"><ele></ele><time>2014-10-15T19:26:4Z</time></trkpt>
<trkpt lat="46.2933807373046875" lon="7.7179889678955078"><ele></ele><time>2014-10-15T19:26:7Z</time></trkpt>
<trkpt lat="46.2934036254882812" lon="7.7181048393249512"><ele></ele><time>2014-10-15T19:26:10Z</time></trkpt>
<trkpt lat="46.2934188842773438" lon="7.7181797027587891"><ele></ele><time>2014-10-15T19:26:13Z</time></trkpt>
<trkpt lat="46.2934494018554688" lon="7.7182736396789551"><ele></ele><time>2014-10-15T19:26:16Z</time></trkpt>
<trkpt lat="46.2934722900390625" lon="7.7183742523193359"><ele></ele><time>2014-10-15T19:26:19Z</time></trkpt>
<trkpt lat="46.2934951782226562" lon="7.7184782028198242"><ele></ele><time>2014-10-15T19:26:22Z</time></trkpt>
<trkpt lat="46.2935104370117188" lon="7.7185745239257812"><ele></ele><time>2014-10-15T19:26:25Z</time></trkpt>
<trkpt lat="46.2935333251953125" lon="7.7186641693115234"><ele></ele><time>2014-10-15T19:26:28Z</time></trkpt>
<trkpt lat="46.2935485839843750" lon="7.7187275886535645"><ele></ele><time>2014-10-15T19:26:31Z</time></trkpt>
<trkpt lat="46.2935600280761719" lon="7.7187900543212891"><ele></ele><time>2014-10-15T19:26:34Z</time></trkpt>
<trkpt lat="46.2935752868652344" lon="7.7188839912414551"><ele></ele><time>2014-10-15T19:26:37Z</time></trkpt>
<trkpt lat="46.2935829162597656" lon="7.7189488410949707"><ele></ele><time>2014-10-15T19:26:40Z</time></trkpt>
<trkpt lat="46.2935905456542969" lon="7.7190170288085938"><ele></ele><time>2014-10-15T19:26:43Z</time></trkpt>
<trkpt lat="46.2936058044433594" lon="7.7191152572631836"><ele></ele><time>2014-10-15T19:26:46Z</time></trkpt>
<trkpt lat="46.2936134338378906" lon="7.7192120552062988"><ele></ele><time>2014-10-15T19:26:49Z</time></trkpt>
<trkpt lat="46.2936248779296875" lon="7.7192683219909668"><ele></ele><time>2014-10-15T19:26:52Z</time></trkpt>
<trkpt lat="46.2936363220214844" lon="7.7193284034729004"><ele></ele><time>2014-10-15T19:26:55Z</time></trkpt>
<trkpt lat="46.2936439514160156" lon="7.7193922996520996"><ele></ele><time>2014-10-15T19:26:58Z</time></trkpt>
<trkpt lat="46.2936515808105469" lon="7.7194886207580566"><ele></ele><time>2014-10-15T19:27:1Z</time></trkpt>
<trkpt lat="46.2936592102050781" lon="7.7195515632629395"><ele></ele><time>2014-10-15T19:27:4Z</time></trkpt>
<trkpt lat="46.2936706542968750" lon="7.7196474075317383"><ele></ele><time>2014-10-15T19:27:7Z</time></trkpt>
<trkpt lat="46.2936897277832031" lon="7.7197308540344238"><ele></ele><time>2014-10-15T19:27:10Z</time></trkpt>
<trkpt lat="46.2937011718750000" lon="7.7197856903076172"><ele></ele><time>2014-10-15T19:27:13Z</time></trkpt>
<trkpt lat="46.2937049865722656" lon="7.7198476791381836"><ele></ele><time>2014-10-15T19:27:16Z</time></trkpt>
<trkpt lat="46.2937164306640625" lon="7.7199463844299316"><ele></ele><time>2014-10-15T19:27:19Z</time></trkpt>
<trkpt lat="46.2937202453613281" lon="7.7200112342834473"><ele></ele><time>2014-10-15T19:27:22Z</time></trkpt>
<trkpt lat="46.2937278747558594" lon="7.7201175689697266"><ele></ele><time>2014-10-15T19:27:25Z</time></trkpt>
<trkpt lat="46.2937355041503906" lon="7.7202277183532715"><ele></ele><time>2014-10-15T19:27:28Z</time></trkpt>
<trkpt lat="46.2937469482421875" lon="7.7203016281127930"><ele></ele><time>2014-10-15T19:27:31Z</time></trkpt>
<trkpt lat="46.2937545776367188" lon="7.7203788757324219"><ele></ele><time>2014-10-15T19:27:34Z</time></trkpt>
<trkpt lat="46.2937622070312500" lon="7.7204937934875488"><ele></ele><time>2014-10-15T19:27:37Z</time></trkpt>
<trkpt lat="46.2937698364257812" lon="7.7206063270568848"><ele></ele><time>2014-10-15T19:27:40Z</time></trkpt>
<trkpt lat="46.2937736511230469" lon="7.7206773757934570"><ele></ele><time>2014-10-15T19:27:43Z</time></trkpt>
<trkpt lat="46.2937889099121094" lon="7.7207827568054199"><ele></ele><time>2014-10-15T19:27:46Z</time></trkpt>
<trkpt lat="46.2937965393066406" lon="7.7208552360534668"><ele></ele><time>2014-10-15T19:27:49Z</time></trkpt>
<trkpt lat="46.2938041687011719" lon="7.7209272384643555"><ele></ele><time>2014-10-15T19:27:52Z</time></trkpt>
<trkpt lat="46.2938194274902344" lon="7.7210330963134766"><ele></ele><time>2014-10-15T19:27:55Z</time></trkpt>
<trkpt lat="46.2938308715820312" lon="7.7211041450500488"><ele></ele><time>2014-10-15T19:27:58Z</time></trkpt>
<trkpt lat="46.2938385009765625" lon="7.7211742401123047"><ele></ele><time>2014-10-15T19:28:1Z</time></trkpt>
<trkpt lat="46.2938461303710938" lon="7.7212452888488770"><ele></ele><time>2014-10-15T19:28:4Z</time></trkpt>
<trkpt lat="46.2938613891601562" lon="7.7213540077209473"><ele></ele><time>2014-10-15T19:28:7Z</time></trkpt>
<trkpt lat="46.2938880920410156" lon="7.7214541435241699"><ele></ele><time>2014-10-15T19:28:10Z</time></trkpt>
<trkpt lat="46.2939109802246094" lon="7.7215552330017090"><ele></ele><time>2014-10-15T19:28:13Z</time></trkpt>
<trkpt lat="46.2939376831054688" lon="7.7216510772705078"><ele></ele><time>2014-10-15T19:28:16Z</time></trkpt>
<trkpt lat="46.2939453125000000" lon="7.7217555046081543"><ele></ele><time>2014-10-15T19:28:19Z</time></trkpt>
<trkpt lat="46.2939491271972656" lon="7.7218689918518066"><ele></ele><time>2014-10-15T19:28:22Z</time></trkpt>
<trkpt lat="46.2939682006835938" lon="7.7219834327697754"><ele></ele><time>2014-10-15T19:28:25Z</time></trkpt>
<trkpt lat="46.2939872741699219" lon="7.7220506668090820"><ele></ele><time>2014-10-15T19:28:28Z</time></trkpt>
<trkpt lat="46.2940139770507812" lon="7.7221460342407227"><ele></ele><time>2014-10-15T19:28:31Z</time></trkpt>
<trkpt lat="46.2940330505371094" lon="7.7222428321838379"><ele></ele><time>2014-10-15T19:28:34Z</time></trkpt>
<trkpt lat="46.2940444946289062" lon="7.7223153114318848"><ele></ele><time>2014-10-15T19:28:37Z</time></trkpt>
<trkpt lat="46.2940521240234375" lon="7.7224307060241699"><ele></ele><time>2014-10-15T19:28:40Z</time></trkpt>
<trkpt lat="46.2940673828125000" lon="7.7225427627563477"><ele></ele><time>2014-10-15T19:28:43Z</time></trkpt>
<trkpt lat="46.2940711975097656" lon="7.7226147651672363"><ele></ele><time>2014-10-15T19:28:46Z</time></trkpt>
<trkpt lat="46.2940750122070312" lon="7.7227306365966797"><ele></ele><time>2014-10-15T19:28:49Z</time></trkpt>
<trkpt lat="46.2940826416015625" lon="7.7228031158447266"><ele></ele><time>2014-10-15T19:28:52Z</time></trkpt>
<trkpt lat="46.2940826416015625" lon="7.7228760719299316"><ele></ele><time>2014-10-15T19:28:55Z</time></trkpt>
<trkpt lat="46.2940940856933594" lon="7.7229804992675781"><ele></ele><time>2014-10-15T19:28:58Z</time></trkpt>
<trkpt lat="46.2941017150878906" lon="7.7230505943298340"><ele></ele><time>2014-10-15T19:29:1Z</time></trkpt>
<trkpt lat="46.2941093444824219" lon="7.7231254577636719"><ele></ele><time>2014-10-15T19:29:4Z</time></trkpt>
<trkpt lat="46.2941169738769531" lon="7.7231974601745605"><ele></ele><time>2014-10-15T19:29:7Z</time></trkpt>
<trkpt lat="46.2941169738769531" lon="7.7233180999755859"><ele></ele><time>2014-10-15T19:29:10Z</time></trkpt>
<trkpt lat="46.2941207885742188" lon="7.7234373092651367"><ele></ele><time>2014-10-15T19:29:13Z</time></trkpt>
<trkpt lat="46.2941284179687500" lon="7.7235093116760254"><ele></ele><time>2014-10-15T19:29:16Z</time></trkpt>
<trkpt lat="46.2941513061523438" lon="7.7236046791076660"><ele></ele><time>2014-10-15T19:29:19Z</time></trkpt>
<trkpt lat="46.2941741943359375" lon="7.7236886024475098"><ele></ele><time>2014-10-15T19:29:22Z</time></trkpt>
<trkpt lat="46.2941932678222656" lon="7.7237448692321777"><ele></ele><time>2014-10-15T19:29:25Z</time></trkpt>
<trkpt lat="46.2942161560058594" lon="7.7238416671752930"><ele></ele><time>2014-10-15T19:29:28Z</time></trkpt>
<trkpt lat="46.2942466735839844" lon="7.7239451408386230"><ele></ele><time>2014-10-15T19:29:31Z</time></trkpt>
<trkpt lat="46.2942581176757812" lon="7.7240166664123535"><ele></ele><time>2014-10-15T19:29:34Z</time></trkpt>
<trkpt lat="46.2942695617675781" lon="7.7241334915161133"><ele></ele><time>2014-10-15T19:29:37Z</time></trkpt>
<trkpt lat="46.2942657470703125" lon="7.7242364883422852"><ele></ele><time>2014-10-15T19:29:40Z</time></trkpt>
<trkpt lat="46.2942543029785156" lon="7.7243046760559082"><ele></ele><time>2014-10-15T19:29:43Z</time></trkpt>
<trkpt lat="46.2942276000976562" lon="7.7244024276733398"><ele></ele><time>2014-10-15T19:29:46Z</time></trkpt>
<trkpt lat="46.2942008972167969" lon="7.7244982719421387"><ele></ele><time>2014-10-15T19:29:49Z</time></trkpt>
<trkpt lat="46.2941780090332031" lon="7.7245936393737793"><ele></ele><time>2014-10-15T19:29:52Z</time></trkpt>
<trkpt lat="46.2941474914550781" lon="7.7246932983398438"><ele></ele><time>2014-10-15T19:29:55Z</time></trkpt>
<trkpt lat="46.2941284179687500" lon="7.7247605323791504"><ele></ele><time>2014-10-15T19:29:58Z</time></trkpt>
<trkpt lat="46.2941093444824219" lon="7.7248239517211914"><ele></ele><time>2014-10-15T19:30:1Z</time></trkpt>
<trkpt lat="46.2940826416015625" lon="7.7248783111572266"><ele></ele><time>2014-10-15T19:30:4Z</time></trkpt>
<trkpt lat="46.2940483093261719" lon="7.7249646186828613"><ele></ele><time>2014-10-15T19:30:7Z</time></trkpt>
<trkpt lat="46.2940254211425781" lon="7.7250261306762695"><ele></ele><time>2014-10-15T19:30:10Z</time></trkpt>
<trkpt lat="46.2939872741699219" lon="7.7251162528991699"><ele></ele><time>2014-10-15T19:30:13Z</time></trkpt>
<trkpt lat="46.2939567565917969" lon="7.7251725196838379"><ele></ele><time>2014-10-15T19:30:16Z</time></trkpt>
<trkpt lat="46.2939300537109375" lon="7.7252669334411621"><ele></ele><time>2014-10-15T19:30:19Z</time></trkpt>
<trkpt lat="46.2939071655273438" lon="7.7253360748291016"><ele></ele><time>2014-10-15T19:30:22Z</time></trkpt>
<trkpt lat="46.2938919067382812" lon="7.7254018783569336"><ele></ele><time>2014-10-15T19:30:25Z</time></trkpt>
<trkpt lat="46.2938919067382812" lon="7.7255096435546875"><ele></ele><time>2014-10-15T19:30:28Z</time></trkpt>
<trkpt lat="46.2938957214355469" lon="7.7255907058715820"><ele></ele><time>2014-10-15T19:30:31Z</time></trkpt>
<trkpt lat="46.2938652038574219" lon="7.7256851196289062"><ele></ele><time>2014-10-15T19:30:34Z</time></trkpt>
<trkpt lat="46.2938499450683594" lon="7.7257266044616699"><ele></ele><time>2014-10-15T19:30:37Z</time></trkpt>
<trkpt lat="46.2938461303710938" lon="7.7258162498474121"><ele></ele><time>2014-10-15T19:30:40Z</time></trkpt>
<trkpt lat="46.2938499450683594" lon="7.7259035110473633"><ele></ele><time>2014-10-15T19:30:43Z</time></trkpt>
<trkpt lat="46.2938537597656250" lon="7.7260046005249023"><ele></ele><time>2014-10-15T19:30:46Z</time></trkpt>
<trkpt lat="46.2938499450683594" lon="7.7260842323303223"><ele></ele><time>2014-10-15T19:30:49Z</time></trkpt>
<trkpt lat="46.2938537597656250" lon="7.7261600494384766"><ele></ele><time>2014-10-15T19:30:52Z</time></trkpt>
<trkpt lat="46.2938537597656250" lon="7.7262358665466309"><ele></ele><time>2014-10-15T19:30:55Z</time></trkpt>
<trkpt lat="46.2938728332519531" lon="7.7263355255126953"><ele></ele><time>2014-10-15T19:30:58Z</time></trkpt>
<trkpt lat="46.2938842773437500" lon="7.7264456748962402"><ele></ele><time>2014-10-15T19:31:1Z</time></trkpt>
<trkpt lat="46.2938919067382812" lon="7.7265558242797852"><ele></ele><time>2014-10-15T19:31:4Z</time></trkpt>
<trkpt lat="46.2938995361328125" lon="7.7266235351562500"><ele></ele><time>2014-10-15T19:31:7Z</time></trkpt>
<trkpt lat="46.2939033508300781" lon="7.7266950607299805"><ele></ele><time>2014-10-15T19:31:10Z</time></trkpt>
<trkpt lat="46.2939109802246094" lon="7.7268061637878418"><ele></ele><time>2014-10-15T19:31:13Z</time></trkpt>
<trkpt lat="46.2939186096191406" lon="7.7268829345703125"><ele></ele><time>2014-10-15T19:31:16Z</time></trkpt>
<trkpt lat="46.2939186096191406" lon="7.7269988059997559"><ele></ele><time>2014-10-15T19:31:19Z</time></trkpt>
<trkpt lat="46.2938766479492188" lon="7.7270269393920898"><ele></ele><time>2014-10-15T19:31:22Z</time></trkpt>
<trkpt lat="46.2938461303710938" lon="7.7269215583801270"><ele></ele><time>2014-10-15T19:31:25Z</time></trkpt>
<trkpt lat="46.2938385009765625" lon="7.7268471717834473"><ele></ele><time>2014-10-15T19:31:28Z</time></trkpt>
<trkpt lat="46.2938270568847656" lon="7.7267241477966309"><ele></ele><time>2014-10-15T19:31:31Z</time></trkpt>
<trkpt lat="46.2938156127929688" lon="7.7266340255737305"><ele></ele><time>2014-10-15T19:31:34Z</time></trkpt>
<trkpt lat="46.2937850952148438" lon="7.7264995574951172"><ele></ele><time>2014-10-15T19:31:37Z</time></trkpt>
<trkpt lat="46.2937583923339844" lon="7.7263689041137695"><ele></ele><time>2014-10-15T19:31:40Z</time></trkpt>
<trkpt lat="46.2937393188476562" lon="7.7262911796569824"><ele></ele><time>2014-10-15T19:31:43Z</time></trkpt>
<trkpt lat="46.2937049865722656" lon="7.7261738777160645"><ele></ele><time>2014-10-15T19:31:46Z</time></trkpt>
<trkpt lat="46.2936668395996094" lon="7.7261013984680176"><ele></ele><time>2014-10-15T19:31:49Z</time></trkpt>
<trkpt lat="46.2936210632324219" lon="7.7259874343872070"><ele></ele><time>2014-10-15T19:31:52Z</time></trkpt>
<trkpt lat="46.2935791015625000" lon="7.7258758544921875"><ele></ele><time>2014-10-15T19:31:55Z</time></trkpt>
<trkpt lat="46.2935523986816406" lon="7.7257618904113770"><ele></ele><time>2014-10-15T19:31:58Z</time></trkpt>
<trkpt lat="46.2935409545898438" lon="7.7256822586059570"><ele></ele><time>2014-10-15T19:32:1Z</time></trkpt>
<trkpt lat="46.2935371398925781" lon="7.7256116867065430"><ele></ele><time>2014-10-15T19:32:4Z</time></trkpt>
<trkpt lat="46.2935447692871094" lon="7.7253947257995605"><ele></ele><time>2014-10-15T19:32:7Z</time></trkpt>
<trkpt lat="46.2935600280761719" lon="7.7252674102783203"><ele></ele><time>2014-10-15T19:32:10Z</time></trkpt>
<trkpt lat="46.2935676574707031" lon="7.7251667976379395"><ele></ele><time>2014-10-15T19:32:13Z</time></trkpt>
<trkpt lat="46.2935485839843750" lon="7.7250776290893555"><ele></ele><time>2014-10-15T19:32:16Z</time></trkpt>
<trkpt lat="46.2935371398925781" lon="7.7250337600708008"><ele></ele><time>2014-10-15T19:32:19Z</time></trkpt>
<trkpt lat="46.2935142517089844" lon="7.7249660491943359"><ele></ele><time>2014-10-15T19:32:22Z</time></trkpt>
<trkpt lat="46.2934875488281250" lon="7.7249102592468262"><ele></ele><time>2014-10-15T19:32:25Z</time></trkpt>
<trkpt lat="46.2934722900390625" lon="7.7248411178588867"><ele></ele><time>2014-10-15T19:32:28Z</time></trkpt>
<trkpt lat="46.2934684753417969" lon="7.7247943878173828"><ele></ele><time>2014-10-15T19:32:31Z</time></trkpt>
<trkpt lat="46.2934646606445312" lon="7.7247166633605957"><ele></ele><time>2014-10-15T19:32:34Z</time></trkpt>
<trkpt lat="46.2934837341308594" lon="7.7246470451354980"><ele></ele><time>2014-10-15T19:32:37Z</time></trkpt>
<trkpt lat="46.2934875488281250" lon="7.7245793342590332"><ele></ele><time>2014-10-15T19:32:40Z</time></trkpt>
<trkpt lat="46.2934837341308594" lon="7.7244877815246582"><ele></ele><time>2014-10-15T19:32:43Z</time></trkpt>
<trkpt lat="46.2934722900390625" lon="7.7244300842285156"><ele></ele><time>2014-10-15T19:32:46Z</time></trkpt>
<trkpt lat="46.2934608459472656" lon="7.7243828773498535"><ele></ele><time>2014-10-15T19:32:49Z</time></trkpt>
<trkpt lat="46.2934494018554688" lon="7.7243380546569824"><ele></ele><time>2014-10-15T19:32:52Z</time></trkpt>
<trkpt lat="46.2934417724609375" lon="7.7242918014526367"><ele></ele><time>2014-10-15T19:32:55Z</time></trkpt>
<trkpt lat="46.2934112548828125" lon="7.7242116928100586"><ele></ele><time>2014-10-15T19:32:58Z</time></trkpt>
<trkpt lat="46.2933883666992188" lon="7.7241630554199219"><ele></ele><time>2014-10-15T19:33:1Z</time></trkpt>
<trkpt lat="46.2933692932128906" lon="7.7240886688232422"><ele></ele><time>2014-10-15T19:33:4Z</time></trkpt>
<trkpt lat="46.2933578491210938" lon="7.7240014076232910"><ele></ele><time>2014-10-15T19:33:7Z</time></trkpt>
<trkpt lat="46.2933502197265625" lon="7.7239394187927246"><ele></ele><time>2014-10-15T19:33:10Z</time></trkpt>
<trkpt lat="46.2933425903320312" lon="7.7238478660583496"><ele></ele><time>2014-10-15T19:33:13Z</time></trkpt>
<trkpt lat="46.2933349609375000" lon="7.7237539291381836"><ele></ele><time>2014-10-15T19:33:16Z</time></trkpt>
<trkpt lat="46.2933273315429688" lon="7.7236928939819336"><ele></ele><time>2014-10-15T19:33:19Z</time></trkpt>
<trkpt lat="46.2933197021484375" lon="7.7236280441284180"><ele></ele><time>2014-10-15T19:33:22Z</time></trkpt>
<trkpt lat="46.2933158874511719" lon="7.7235622406005859"><ele></ele><time>2014-10-15T19:33:25Z</time></trkpt>
<trkpt lat="46.2932891845703125" lon="7.7234630584716797"><ele></ele><time>2014-10-15T19:33:28Z</time></trkpt>
<trkpt lat="46.2932815551757812" lon="7.7234015464782715"><ele></ele><time>2014-10-15T19:33:31Z</time></trkpt>
<trkpt lat="46.2932701110839844" lon="7.7233128547668457"><ele></ele><time>2014-10-15T19:33:34Z</time></trkpt>
<trkpt lat="46.2932472229003906" lon="7.7232298851013184"><ele></ele><time>2014-10-15T19:33:37Z</time></trkpt>
<trkpt lat="46.2932128906250000" lon="7.7231740951538086"><ele></ele><time>2014-10-15T19:33:40Z</time></trkpt>
<trkpt lat="46.2931938171386719" lon="7.7230906486511230"><ele></ele><time>2014-10-15T19:33:43Z</time></trkpt>
<trkpt lat="46.2931861877441406" lon="7.7230377197265625"><ele></ele><time>2014-10-15T19:33:46Z</time></trkpt>
<trkpt lat="46.2931671142578125" lon="7.7229857444763184"><ele></ele><time>2014-10-15T19:33:49Z</time></trkpt>
<trkpt lat="46.2930984497070312" lon="7.7229061126708984"><ele></ele><time>2014-10-15T19:33:52Z</time></trkpt>
<trkpt lat="46.2930564880371094" lon="7.7228188514709473"><ele></ele><time>2014-10-15T19:33:55Z</time></trkpt>
<trkpt lat="46.2930335998535156" lon="7.7227668762207031"><ele></ele><time>2014-10-15T19:33:58Z</time></trkpt>
<trkpt lat="46.2930068969726562" lon="7.7227196693420410"><ele></ele><time>2014-10-15T19:34:1Z</time></trkpt>
<trkpt lat="46.2929611206054688" lon="7.7226481437683105"><ele></ele><time>2014-10-15T19:34:4Z</time></trkpt>
<trkpt lat="46.2929344177246094" lon="7.7225990295410156"><ele></ele><time>2014-10-15T19:34:7Z</time></trkpt>
<trkpt lat="46.2929039001464844" lon="7.7225341796875000"><ele></ele><time>2014-10-15T19:34:10Z</time></trkpt>
<trkpt lat="46.2928886413574219" lon="7.7224922180175781"><ele></ele><time>2014-10-15T19:34:13Z</time></trkpt>
<trkpt lat="46.2928619384765625" lon="7.7224211692810059"><ele></ele><time>2014-10-15T19:34:16Z</time></trkpt>
<trkpt lat="46.2928619384765625" lon="7.7223701477050781"><ele></ele><time>2014-10-15T19:34:19Z</time></trkpt>
<trkpt lat="46.2928619384765625" lon="7.7222957611083984"><ele></ele><time>2014-10-15T19:34:22Z</time></trkpt>
<trkpt lat="46.2928352355957031" lon="7.7222137451171875"><ele></ele><time>2014-10-15T19:34:25Z</time></trkpt>
<trkpt lat="46.2928161621093750" lon="7.7221636772155762"><ele></ele><time>2014-10-15T19:34:28Z</time></trkpt>
<trkpt lat="46.2927742004394531" lon="7.7220940589904785"><ele></ele><time>2014-10-15T19:34:31Z</time></trkpt>
<trkpt lat="46.2927398681640625" lon="7.7220435142517090"><ele></ele><time>2014-10-15T19:34:34Z</time></trkpt>
<trkpt lat="46.2926979064941406" lon="7.7219700813293457"><ele></ele><time>2014-10-15T19:34:37Z</time></trkpt>
<trkpt lat="46.2926597595214844" lon="7.7218995094299316"><ele></ele><time>2014-10-15T19:34:40Z</time></trkpt>
<trkpt lat="46.2926330566406250" lon="7.7218561172485352"><ele></ele><time>2014-10-15T19:34:43Z</time></trkpt>
<trkpt lat="46.2926101684570312" lon="7.7218141555786133"><ele></ele><time>2014-10-15T19:34:46Z</time></trkpt>
<trkpt lat="46.2925834655761719" lon="7.7217473983764648"><ele></ele><time>2014-10-15T19:34:49Z</time></trkpt>
<trkpt lat="46.2925605773925781" lon="7.7217068672180176"><ele></ele><time>2014-10-15T19:34:52Z</time></trkpt>
<trkpt lat="46.2925262451171875" lon="7.7216601371765137"><ele></ele><time>2014-10-15T19:34:55Z</time></trkpt>
<trkpt lat="46.2924766540527344" lon="7.7215890884399414"><ele></ele><time>2014-10-15T19:34:58Z</time></trkpt>
<trkpt lat="46.2924461364746094" lon="7.7215447425842285"><ele></ele><time>2014-10-15T19:35:1Z</time></trkpt>
<trkpt lat="46.2924156188964844" lon="7.7215056419372559"><ele></ele><time>2014-10-15T19:35:4Z</time></trkpt>
<trkpt lat="46.2923545837402344" lon="7.7214474678039551"><ele></ele><time>2014-10-15T19:35:7Z</time></trkpt>
<trkpt lat="46.2923049926757812" lon="7.7214021682739258"><ele></ele><time>2014-10-15T19:35:10Z</time></trkpt>
<trkpt lat="46.2922706604003906" lon="7.7213649749755859"><ele></ele><time>2014-10-15T19:35:13Z</time></trkpt>
<trkpt lat="46.2922019958496094" lon="7.7213063240051270"><ele></ele><time>2014-10-15T19:35:16Z</time></trkpt>
<trkpt lat="46.2921600341796875" lon="7.7212629318237305"><ele></ele><time>2014-10-15T19:35:19Z</time></trkpt>
<trkpt lat="46.2921257019042969" lon="7.7212109565734863"><ele></ele><time>2014-10-15T19:35:22Z</time></trkpt>
<trkpt lat="46.2920799255371094" lon="7.7211427688598633"><ele></ele><time>2014-10-15T19:35:25Z</time></trkpt>
<trkpt lat="46.2920303344726562" lon="7.7210693359375000"><ele></ele><time>2014-10-15T19:35:28Z</time></trkpt>
<trkpt lat="46.2920112609863281" lon="7.7210183143615723"><ele></ele><time>2014-10-15T19:35:31Z</time></trkpt>
<trkpt lat="46.2919807434082031" lon="7.7209506034851074"><ele></ele><time>2014-10-15T19:35:34Z</time></trkpt>
<trkpt lat="46.2919578552246094" lon="7.7208962440490723"><ele></ele><time>2014-10-15T19:35:37Z</time></trkpt>
<trkpt lat="46.2919387817382812" lon="7.7208542823791504"><ele></ele><time>2014-10-15T19:35:40Z</time></trkpt>
<trkpt lat="46.2919235229492188" lon="7.7208113670349121"><ele></ele><time>2014-10-15T19:35:43Z</time></trkpt>
<trkpt lat="46.2919082641601562" lon="7.7207365036010742"><ele></ele><time>2014-10-15T19:35:46Z</time></trkpt>
<trkpt lat="46.2918853759765625" lon="7.7206740379333496"><ele></ele><time>2014-10-15T19:35:49Z</time></trkpt>
<trkpt lat="46.2918434143066406" lon="7.7206034660339355"><ele></ele><time>2014-10-15T19:35:52Z</time></trkpt>
<trkpt lat="46.2918014526367188" lon="7.7205257415771484"><ele></ele><time>2014-10-15T19:35:55Z</time></trkpt>
<trkpt lat="46.2917747497558594" lon="7.7204794883728027"><ele></ele><time>2014-10-15T19:35:58Z</time></trkpt>
<trkpt lat="46.2917480468750000" lon="7.7204403877258301"><ele></ele><time>2014-10-15T19:36:1Z</time></trkpt>
<trkpt lat="46.2917098999023438" lon="7.7203650474548340"><ele></ele><time>2014-10-15T19:36:4Z</time></trkpt>
<trkpt lat="46.2916831970214844" lon="7.7202949523925781"><ele></ele><time>2014-10-15T19:36:7Z</time></trkpt>
<trkpt lat="46.2916564941406250" lon="7.7202539443969727"><ele></ele><time>2014-10-15T19:36:10Z</time></trkpt>
<trkpt lat="46.2916107177734375" lon="7.7201991081237793"><ele></ele><time>2014-10-15T19:36:13Z</time></trkpt>
<trkpt lat="46.2915763854980469" lon="7.7201714515686035"><ele></ele><time>2014-10-15T19:36:16Z</time></trkpt>
<trkpt lat="46.2915382385253906" lon="7.7201538085937500"><ele></ele><time>2014-10-15T19:36:19Z</time></trkpt>
<trkpt lat="46.2914810180664062" lon="7.7201414108276367"><ele></ele><time>2014-10-15T19:36:22Z</time></trkpt>
<trkpt lat="46.2914161682128906" lon="7.7201251983642578"><ele></ele><time>2014-10-15T19:36:25Z</time></trkpt>
<trkpt lat="46.2913742065429688" lon="7.7201070785522461"><ele></ele><time>2014-10-15T19:36:28Z</time></trkpt>
<trkpt lat="46.2913093566894531" lon="7.7200818061828613"><ele></ele><time>2014-10-15T19:36:31Z</time></trkpt>
<trkpt lat="46.2912521362304688" lon="7.7200474739074707"><ele></ele><time>2014-10-15T19:36:34Z</time></trkpt>
<trkpt lat="46.2912178039550781" lon="7.7200236320495605"><ele></ele><time>2014-10-15T19:36:37Z</time></trkpt>
<trkpt lat="46.2911758422851562" lon="7.7200055122375488"><ele></ele><time>2014-10-15T19:36:40Z</time></trkpt>
<trkpt lat="46.2911071777343750" lon="7.7199859619140625"><ele></ele><time>2014-10-15T19:36:43Z</time></trkpt>
<trkpt lat="46.2910537719726562" lon="7.7199740409851074"><ele></ele><time>2014-10-15T19:36:46Z</time></trkpt>
<trkpt lat="46.2910041809082031" lon="7.7199764251708984"><ele></ele><time>2014-10-15T19:36:49Z</time></trkpt>
<trkpt lat="46.2909317016601562" lon="7.7199792861938477"><ele></ele><time>2014-10-15T19:36:52Z</time></trkpt>
<trkpt lat="46.2908706665039062" lon="7.7199978828430176"><ele></ele><time>2014-10-15T19:36:55Z</time></trkpt>
<trkpt lat="46.2908096313476562" lon="7.7200083732604980"><ele></ele><time>2014-10-15T19:36:58Z</time></trkpt>
<trkpt lat="46.2907638549804688" lon="7.7200140953063965"><ele></ele><time>2014-10-15T19:37:1Z</time></trkpt>
<trkpt lat="46.2906913757324219" lon="7.7200012207031250"><ele></ele><time>2014-10-15T19:37:4Z</time></trkpt>
<trkpt lat="46.2906494140625000" lon="7.7200007438659668"><ele></ele><time>2014-10-15T19:37:7Z</time></trkpt>
<trkpt lat="46.2905883789062500" lon="7.7199978828430176"><ele></ele><time>2014-10-15T19:37:10Z</time></trkpt>
<trkpt lat="46.2905464172363281" lon="7.7199959754943848"><ele></ele><time>2014-10-15T19:37:13Z</time></trkpt>
<trkpt lat="46.2905120849609375" lon="7.7199959754943848"><ele></ele><time>2014-10-15T19:37:16Z</time></trkpt>
<trkpt lat="46.2904472351074219" lon="7.7199940681457520"><ele></ele><time>2014-10-15T19:37:19Z</time></trkpt>
<trkpt lat="46.2904090881347656" lon="7.7200093269348145"><ele></ele><time>2014-10-15T19:37:22Z</time></trkpt>
<trkpt lat="46.2903556823730469" lon="7.7200069427490234"><ele></ele><time>2014-10-15T19:37:25Z</time></trkpt>
<trkpt lat="46.2903099060058594" lon="7.7199745178222656"><ele></ele><time>2014-10-15T19:37:28Z</time></trkpt>
<trkpt lat="46.2902717590332031" lon="7.7199511528015137"><ele></ele><time>2014-10-15T19:37:31Z</time></trkpt>
<trkpt lat="46.2902069091796875" lon="7.7199158668518066"><ele></ele><time>2014-10-15T19:37:34Z</time></trkpt>
<trkpt lat="46.2901535034179688" lon="7.7198672294616699"><ele></ele><time>2014-10-15T19:37:37Z</time></trkpt>
<trkpt lat="46.2901229858398438" lon="7.7198448181152344"><ele></ele><time>2014-10-15T19:37:40Z</time></trkpt>
<trkpt lat="46.2900848388671875" lon="7.7198305130004883"><ele></ele><time>2014-10-15T19:37:43Z</time></trkpt>
<trkpt lat="46.2900390625000000" lon="7.7198009490966797"><ele></ele><time>2014-10-15T19:37:46Z</time></trkpt>
<trkpt lat="46.2900085449218750" lon="7.7197842597961426"><ele></ele><time>2014-10-15T19:37:49Z</time></trkpt>
<trkpt lat="46.2899551391601562" lon="7.7197566032409668"><ele></ele><time>2014-10-15T19:37:52Z</time></trkpt>
<trkpt lat="46.2899131774902344" lon="7.7197227478027344"><ele></ele><time>2014-10-15T19:37:55Z</time></trkpt>
<trkpt lat="46.2898826599121094" lon="7.7197041511535645"><ele></ele><time>2014-10-15T19:37:58Z</time></trkpt>
<trkpt lat="46.2898445129394531" lon="7.7196788787841797"><ele></ele><time>2014-10-15T19:38:1Z</time></trkpt>
<trkpt lat="46.2898101806640625" lon="7.7196555137634277"><ele></ele><time>2014-10-15T19:38:4Z</time></trkpt>
<trkpt lat="46.2897605895996094" lon="7.7196130752563477"><ele></ele><time>2014-10-15T19:38:7Z</time></trkpt>
<trkpt lat="46.2897224426269531" lon="7.7196083068847656"><ele></ele><time>2014-10-15T19:38:10Z</time></trkpt>
<trkpt lat="46.2896728515625000" lon="7.7195868492126465"><ele></ele><time>2014-10-15T19:38:13Z</time></trkpt>
<trkpt lat="46.2896347045898438" lon="7.7195463180541992"><ele></ele><time>2014-10-15T19:38:16Z</time></trkpt>
<trkpt lat="46.2896080017089844" lon="7.7195291519165039"><ele></ele><time>2014-10-15T19:38:19Z</time></trkpt>
<trkpt lat="46.2895660400390625" lon="7.7195091247558594"><ele></ele><time>2014-10-15T19:38:22Z</time></trkpt>
<trkpt lat="46.2895164489746094" lon="7.7194981575012207"><ele></ele><time>2014-10-15T19:38:25Z</time></trkpt>
<trkpt lat="46.2894668579101562" lon="7.7194843292236328"><ele></ele><time>2014-10-15T19:38:28Z</time></trkpt>
<trkpt lat="46.2894325256347656" lon="7.7194743156433105"><ele></ele><time>2014-10-15T19:38:31Z</time></trkpt>
<trkpt lat="46.2894096374511719" lon="7.7194743156433105"><ele></ele><time>2014-10-15T19:38:34Z</time></trkpt>
<trkpt lat="46.2893791198730469" lon="7.7194576263427734"><ele></ele><time>2014-10-15T19:38:37Z</time></trkpt>
<trkpt lat="46.2893409729003906" lon="7.7194252014160156"><ele></ele><time>2014-10-15T19:38:40Z</time></trkpt>
<trkpt lat="46.2892951965332031" lon="7.7194151878356934"><ele></ele><time>2014-10-15T19:38:43Z</time></trkpt>
<trkpt lat="46.2892417907714844" lon="7.7194051742553711"><ele></ele><time>2014-10-15T19:38:46Z</time></trkpt>
<trkpt lat="46.2891883850097656" lon="7.7193846702575684"><ele></ele><time>2014-10-15T19:38:49Z</time></trkpt>
<trkpt lat="46.2891349792480469" lon="7.7193689346313477"><ele></ele><time>2014-10-15T19:38:52Z</time></trkpt>
<trkpt lat="46.2890777587890625" lon="7.7193613052368164"><ele></ele><time>2014-10-15T19:38:55Z</time></trkpt>
<trkpt lat="46.2890319824218750" lon="7.7193555831909180"><ele></ele><time>2014-10-15T19:38:58Z</time></trkpt>
<trkpt lat="46.2889747619628906" lon="7.7193560600280762"><ele></ele><time>2014-10-15T19:39:1Z</time></trkpt>
<trkpt lat="46.2889404296875000" lon="7.7193465232849121"><ele></ele><time>2014-10-15T19:39:4Z</time></trkpt>
<trkpt lat="46.2889022827148438" lon="7.7193384170532227"><ele></ele><time>2014-10-15T19:39:7Z</time></trkpt>
<trkpt lat="46.2888450622558594" lon="7.7193298339843750"><ele></ele><time>2014-10-15T19:39:10Z</time></trkpt>
<trkpt lat="46.2888031005859375" lon="7.7193064689636230"><ele></ele><time>2014-10-15T19:39:13Z</time></trkpt>
<trkpt lat="46.2887725830078125" lon="7.7192893028259277"><ele></ele><time>2014-10-15T19:39:16Z</time></trkpt>
<trkpt lat="46.2887229919433594" lon="7.7192687988281250"><ele></ele><time>2014-10-15T19:39:19Z</time></trkpt>
<trkpt lat="46.2886695861816406" lon="7.7192463874816895"><ele></ele><time>2014-10-15T19:39:22Z</time></trkpt>
<trkpt lat="46.2886314392089844" lon="7.7192292213439941"><ele></ele><time>2014-10-15T19:39:25Z</time></trkpt>
<trkpt lat="46.2885780334472656" lon="7.7192063331604004"><ele></ele><time>2014-10-15T19:39:28Z</time></trkpt>
<trkpt lat="46.2885208129882812" lon="7.7191777229309082"><ele></ele><time>2014-10-15T19:39:31Z</time></trkpt>
<trkpt lat="46.2884483337402344" lon="7.7191462516784668"><ele></ele><time>2014-10-15T19:39:34Z</time></trkpt>
<trkpt lat="46.2884025573730469" lon="7.7191190719604492"><ele></ele><time>2014-10-15T19:39:37Z</time></trkpt>
<trkpt lat="46.2883682250976562" lon="7.7191061973571777"><ele></ele><time>2014-10-15T19:39:40Z</time></trkpt>
<trkpt lat="46.2883300781250000" lon="7.7190985679626465"><ele></ele><time>2014-10-15T19:39:43Z</time></trkpt>
<trkpt lat="46.2882766723632812" lon="7.7190799713134766"><ele></ele><time>2014-10-15T19:39:46Z</time></trkpt>
<trkpt lat="46.2882194519042969" lon="7.7190604209899902"><ele></ele><time>2014-10-15T19:39:49Z</time></trkpt>
<trkpt lat="46.2881851196289062" lon="7.7190470695495605"><ele></ele><time>2014-10-15T19:39:52Z</time></trkpt>
<trkpt lat="46.2881317138671875" lon="7.7190303802490234"><ele></ele><time>2014-10-15T19:39:55Z</time></trkpt>
<trkpt lat="46.2880935668945312" lon="7.7190237045288086"><ele></ele><time>2014-10-15T19:39:58Z</time></trkpt>
<trkpt lat="46.2880516052246094" lon="7.7190327644348145"><ele></ele><time>2014-10-15T19:40:1Z</time></trkpt>
<trkpt lat="46.2880058288574219" lon="7.7190313339233398"><ele></ele><time>2014-10-15T19:40:4Z</time></trkpt>
<trkpt lat="46.2879409790039062" lon="7.7189998626708984"><ele></ele><time>2014-10-15T19:40:7Z</time></trkpt>
<trkpt lat="46.2878761291503906" lon="7.7189793586730957"><ele></ele><time>2014-10-15T19:40:10Z</time></trkpt>
<trkpt lat="46.2878341674804688" lon="7.7189655303955078"><ele></ele><time>2014-10-15T19:40:13Z</time></trkpt>
<trkpt lat="46.2877731323242188" lon="7.7189269065856934"><ele></ele><time>2014-10-15T19:40:16Z</time></trkpt>
<trkpt lat="46.2877426147460938" lon="7.7188916206359863"><ele></ele><time>2014-10-15T19:40:19Z</time></trkpt>
<trkpt lat="46.2877082824707031" lon="7.7188520431518555"><ele></ele><time>2014-10-15T19:40:22Z</time></trkpt>
<trkpt lat="46.2876396179199219" lon="7.7188057899475098"><ele></ele><time>2014-10-15T19:40:25Z</time></trkpt>
<trkpt lat="46.2875785827636719" lon="7.7187948226928711"><ele></ele><time>2014-10-15T19:40:28Z</time></trkpt>
<trkpt lat="46.2875442504882812" lon="7.7187943458557129"><ele></ele><time>2014-10-15T19:40:31Z</time></trkpt>
<trkpt lat="46.2874946594238281" lon="7.7188153266906738"><ele></ele><time>2014-10-15T19:40:34Z</time></trkpt>
<trkpt lat="46.2874374389648438" lon="7.7188568115234375"><ele></ele><time>2014-10-15T19:40:37Z</time></trkpt>
<trkpt lat="46.2873954772949219" lon="7.7188854217529297"><ele></ele><time>2014-10-15T19:40:40Z</time></trkpt>
<trkpt lat="46.2873649597167969" lon="7.7189126014709473"><ele></ele><time>2014-10-15T19:40:43Z</time></trkpt>
<trkpt lat="46.2873153686523438" lon="7.7189683914184570"><ele></ele><time>2014-10-15T19:40:46Z</time></trkpt>
<trkpt lat="46.2872848510742188" lon="7.7190093994140625"><ele></ele><time>2014-10-15T19:40:49Z</time></trkpt>
<trkpt lat="46.2872581481933594" lon="7.7190561294555664"><ele></ele><time>2014-10-15T19:40:52Z</time></trkpt>
<trkpt lat="46.2872123718261719" lon="7.7191290855407715"><ele></ele><time>2014-10-15T19:40:55Z</time></trkpt>
<trkpt lat="46.2871665954589844" lon="7.7191958427429199"><ele></ele><time>2014-10-15T19:40:58Z</time></trkpt>
<trkpt lat="46.2871360778808594" lon="7.7192392349243164"><ele></ele><time>2014-10-15T19:41:1Z</time></trkpt>
<trkpt lat="46.2870941162109375" lon="7.7192845344543457"><ele></ele><time>2014-10-15T19:41:4Z</time></trkpt>
<trkpt lat="46.2870674133300781" lon="7.7193145751953125"><ele></ele><time>2014-10-15T19:41:7Z</time></trkpt>
<trkpt lat="46.2870368957519531" lon="7.7193403244018555"><ele></ele><time>2014-10-15T19:41:10Z</time></trkpt>
<trkpt lat="46.2869834899902344" lon="7.7193932533264160"><ele></ele><time>2014-10-15T19:41:13Z</time></trkpt>
<trkpt lat="46.2869338989257812" lon="7.7194671630859375"><ele></ele><time>2014-10-15T19:41:16Z</time></trkpt>
<trkpt lat="46.2868957519531250" lon="7.7195143699645996"><ele></ele><time>2014-10-15T19:41:19Z</time></trkpt>
<trkpt lat="46.2868385314941406" lon="7.7195611000061035"><ele></ele><time>2014-10-15T19:41:22Z</time></trkpt>
<trkpt lat="46.2867813110351562" lon="7.7196130752563477"><ele></ele><time>2014-10-15T19:41:25Z</time></trkpt>
<trkpt lat="46.2867393493652344" lon="7.7196455001831055"><ele></ele><time>2014-10-15T19:41:28Z</time></trkpt>
<trkpt lat="46.2866821289062500" lon="7.7196969985961914"><ele></ele><time>2014-10-15T19:41:31Z</time></trkpt>
<trkpt lat="46.2866134643554688" lon="7.7196993827819824"><ele></ele><time>2014-10-15T19:41:34Z</time></trkpt>
<trkpt lat="46.2865715026855469" lon="7.7197093963623047"><ele></ele><time>2014-10-15T19:41:37Z</time></trkpt>
<trkpt lat="46.2864990234375000" lon="7.7197299003601074"><ele></ele><time>2014-10-15T19:41:40Z</time></trkpt>
<trkpt lat="46.2864608764648438" lon="7.7197351455688477"><ele></ele><time>2014-10-15T19:41:43Z</time></trkpt>
<trkpt lat="46.2864265441894531" lon="7.7197332382202148"><ele></ele><time>2014-10-15T19:41:46Z</time></trkpt>
<trkpt lat="46.2863616943359375" lon="7.7196974754333496"><ele></ele><time>2014-10-15T19:41:49Z</time></trkpt>
<trkpt lat="46.2863006591796875" lon="7.7196559906005859"><ele></ele><time>2014-10-15T19:41:52Z</time></trkpt>
<trkpt lat="46.2862586975097656" lon="7.7196478843688965"><ele></ele><time>2014-10-15T19:41:55Z</time></trkpt>
<trkpt lat="46.2862205505371094" lon="7.7196426391601562"><ele></ele><time>2014-10-15T19:41:58Z</time></trkpt>
<trkpt lat="46.2862052917480469" lon="7.7196164131164551"><ele></ele><time>2014-10-15T19:42:1Z</time></trkpt>
<trkpt lat="46.2861862182617188" lon="7.7195906639099121"><ele></ele><time>2014-10-15T19:42:4Z</time></trkpt>
<trkpt lat="46.2861366271972656" lon="7.7195577621459961"><ele></ele><time>2014-10-15T19:42:7Z</time></trkpt>
<trkpt lat="46.2860717773437500" lon="7.7195429801940918"><ele></ele><time>2014-10-15T19:42:10Z</time></trkpt>
<trkpt lat="46.2860336303710938" lon="7.7195296287536621"><ele></ele><time>2014-10-15T19:42:13Z</time></trkpt>
<trkpt lat="46.2860031127929688" lon="7.7195191383361816"><ele></ele><time>2014-10-15T19:42:16Z</time></trkpt>
<trkpt lat="46.2859497070312500" lon="7.7194933891296387"><ele></ele><time>2014-10-15T19:42:19Z</time></trkpt>
<trkpt lat="46.2858810424804688" lon="7.7194552421569824"><ele></ele><time>2014-10-15T19:42:22Z</time></trkpt>
<trkpt lat="46.2858238220214844" lon="7.7194499969482422"><ele></ele><time>2014-10-15T19:42:25Z</time></trkpt>
<trkpt lat="46.2857780456542969" lon="7.7194423675537109"><ele></ele><time>2014-10-15T19:42:28Z</time></trkpt>
<trkpt lat="46.2857093811035156" lon="7.7194066047668457"><ele></ele><time>2014-10-15T19:42:31Z</time></trkpt>
<trkpt lat="46.2856674194335938" lon="7.7193803787231445"><ele></ele><time>2014-10-15T19:42:34Z</time></trkpt>
<trkpt lat="46.2855987548828125" lon="7.7193431854248047"><ele></ele><time>2014-10-15T19:42:37Z</time></trkpt>
<trkpt lat="46.2855415344238281" lon="7.7192983627319336"><ele></ele><time>2014-10-15T19:42:40Z</time></trkpt>
<trkpt lat="46.2855033874511719" lon="7.7192659378051758"><ele></ele><time>2014-10-15T19:42:43Z</time></trkpt>
<trkpt lat="46.2854499816894531" lon="7.7192258834838867"><ele></ele><time>2014-10-15T19:42:46Z</time></trkpt>
<trkpt lat="46.2854118347167969" lon="7.7192039489746094"><ele></ele><time>2014-10-15T19:42:49Z</time></trkpt>
<trkpt lat="46.2853736877441406" lon="7.7191834449768066"><ele></ele><time>2014-10-15T19:42:52Z</time></trkpt>
<trkpt lat="46.2853126525878906" lon="7.7191505432128906"><ele></ele><time>2014-10-15T19:42:55Z</time></trkpt>
<trkpt lat="46.2852554321289062" lon="7.7191047668457031"><ele></ele><time>2014-10-15T19:42:58Z</time></trkpt>
<trkpt lat="46.2852249145507812" lon="7.7190737724304199"><ele></ele><time>2014-10-15T19:43:1Z</time></trkpt>
<trkpt lat="46.2851905822753906" lon="7.7190389633178711"><ele></ele><time>2014-10-15T19:43:4Z</time></trkpt>
<trkpt lat="46.2851409912109375" lon="7.7190108299255371"><ele></ele><time>2014-10-15T19:43:7Z</time></trkpt>
<trkpt lat="46.2850990295410156" lon="7.7189750671386719"><ele></ele><time>2014-10-15T19:43:10Z</time></trkpt>
<trkpt lat="46.2850646972656250" lon="7.7189517021179199"><ele></ele><time>2014-10-15T19:43:13Z</time></trkpt>
<trkpt lat="46.2849845886230469" lon="7.7188987731933594"><ele></ele><time>2014-10-15T19:43:16Z</time></trkpt>
<trkpt lat="46.2849273681640625" lon="7.7188620567321777"><ele></ele><time>2014-10-15T19:43:19Z</time></trkpt>
<trkpt lat="46.2848777770996094" lon="7.7187976837158203"><ele></ele><time>2014-10-15T19:43:22Z</time></trkpt>
<trkpt lat="46.2848205566406250" lon="7.7187380790710449"><ele></ele><time>2014-10-15T19:43:25Z</time></trkpt>
<trkpt lat="46.2847862243652344" lon="7.7187047004699707"><ele></ele><time>2014-10-15T19:43:28Z</time></trkpt>
<trkpt lat="46.2847518920898438" lon="7.7186808586120605"><ele></ele><time>2014-10-15T19:43:31Z</time></trkpt>
<trkpt lat="46.2847290039062500" lon="7.7186636924743652"><ele></ele><time>2014-10-15T19:43:34Z</time></trkpt>
<trkpt lat="46.2846984863281250" lon="7.7186565399169922"><ele></ele><time>2014-10-15T19:43:37Z</time></trkpt>
<trkpt lat="46.2846527099609375" lon="7.7186379432678223"><ele></ele><time>2014-10-15T19:43:40Z</time></trkpt>
<trkpt lat="46.2845916748046875" lon="7.7186193466186523"><ele></ele><time>2014-10-15T19:43:43Z</time></trkpt>
<trkpt lat="46.2845573425292969" lon="7.7186112403869629"><ele></ele><time>2014-10-15T19:43:46Z</time></trkpt>
<trkpt lat="46.2845191955566406" lon="7.7185978889465332"><ele></ele><time>2014-10-15T19:43:49Z</time></trkpt>
<trkpt lat="46.2844581604003906" lon="7.7185873985290527"><ele></ele><time>2014-10-15T19:43:52Z</time></trkpt>
<trkpt lat="46.2843971252441406" lon="7.7185826301574707"><ele></ele><time>2014-10-15T19:43:55Z</time></trkpt>
<trkpt lat="46.2843589782714844" lon="7.7185840606689453"><ele></ele><time>2014-10-15T19:43:58Z</time></trkpt>
<trkpt lat="46.2842864990234375" lon="7.7185897827148438"><ele></ele><time>2014-10-15T19:44:1Z</time></trkpt>
<trkpt lat="46.2842102050781250" lon="7.7186126708984375"><ele></ele><time>2014-10-15T19:44:4Z</time></trkpt>
<trkpt lat="46.2841415405273438" lon="7.7186284065246582"><ele></ele><time>2014-10-15T19:44:7Z</time></trkpt>
<trkpt lat="46.2840805053710938" lon="7.7186555862426758"><ele></ele><time>2014-10-15T19:44:10Z</time></trkpt>
<trkpt lat="46.2840499877929688" lon="7.7186827659606934"><ele></ele><time>2014-10-15T19:44:13Z</time></trkpt>
<trkpt lat="46.2840270996093750" lon="7.7187156677246094"><ele></ele><time>2014-10-15T19:44:16Z</time></trkpt>
<trkpt lat="46.2840042114257812" lon="7.7187910079956055"><ele></ele><time>2014-10-15T19:44:19Z</time></trkpt>
<trkpt lat="46.2839851379394531" lon="7.7188754081726074"><ele></ele><time>2014-10-15T19:44:22Z</time></trkpt>
<trkpt lat="46.2839736938476562" lon="7.7189521789550781"><ele></ele><time>2014-10-15T19:44:25Z</time></trkpt>
<trkpt lat="46.2839622497558594" lon="7.7190008163452148"><ele></ele><time>2014-10-15T19:44:28Z</time></trkpt>
<trkpt lat="46.2839317321777344" lon="7.7190737724304199"><ele></ele><time>2014-10-15T19:44:31Z</time></trkpt>
<trkpt lat="46.2839088439941406" lon="7.7191166877746582"><ele></ele><time>2014-10-15T19:44:34Z</time></trkpt>
<trkpt lat="46.2838745117187500" lon="7.7191739082336426"><ele></ele><time>2014-10-15T19:44:37Z</time></trkpt>
<trkpt lat="46.2838554382324219" lon="7.7192096710205078"><ele></ele><time>2014-10-15T19:44:40Z</time></trkpt>
<trkpt lat="46.2838325500488281" lon="7.7192716598510742"><ele></ele><time>2014-10-15T19:44:43Z</time></trkpt>
<trkpt lat="46.2838211059570312" lon="7.7193422317504883"><ele></ele><time>2014-10-15T19:44:46Z</time></trkpt>
<trkpt lat="46.2838211059570312" lon="7.7194390296936035"><ele></ele><time>2014-10-15T19:44:49Z</time></trkpt>
<trkpt lat="46.2838211059570312" lon="7.7195029258728027"><ele></ele><time>2014-10-15T19:44:52Z</time></trkpt>
<trkpt lat="46.2838020324707031" lon="7.7195978164672852"><ele></ele><time>2014-10-15T19:44:55Z</time></trkpt>
<trkpt lat="46.2837753295898438" lon="7.7196497917175293"><ele></ele><time>2014-10-15T19:44:58Z</time></trkpt>
<trkpt lat="46.2837486267089844" lon="7.7196950912475586"><ele></ele><time>2014-10-15T19:45:1Z</time></trkpt>
<trkpt lat="46.2836799621582031" lon="7.7197108268737793"><ele></ele><time>2014-10-15T19:45:4Z</time></trkpt>
<trkpt lat="46.2836265563964844" lon="7.7196669578552246"><ele></ele><time>2014-10-15T19:45:7Z</time></trkpt>
<trkpt lat="46.2835769653320312" lon="7.7196145057678223"><ele></ele><time>2014-10-15T19:45:10Z</time></trkpt>
<trkpt lat="46.2835350036621094" lon="7.7195568084716797"><ele></ele><time>2014-10-15T19:45:13Z</time></trkpt>
<trkpt lat="46.2834815979003906" lon="7.7194781303405762"><ele></ele><time>2014-10-15T19:45:16Z</time></trkpt>
<trkpt lat="46.2834472656250000" lon="7.7194347381591797"><ele></ele><time>2014-10-15T19:45:19Z</time></trkpt>
<trkpt lat="46.2834053039550781" lon="7.7193899154663086"><ele></ele><time>2014-10-15T19:45:22Z</time></trkpt>
<trkpt lat="46.2833633422851562" lon="7.7193374633789062"><ele></ele><time>2014-10-15T19:45:25Z</time></trkpt>
<trkpt lat="46.2833404541015625" lon="7.7193021774291992"><ele></ele><time>2014-10-15T19:45:28Z</time></trkpt>
<trkpt lat="46.2833213806152344" lon="7.7192549705505371"><ele></ele><time>2014-10-15T19:45:31Z</time></trkpt>
<trkpt lat="46.2832984924316406" lon="7.7191824913024902"><ele></ele><time>2014-10-15T19:45:34Z</time></trkpt>
<trkpt lat="46.2832794189453125" lon="7.7191348075866699"><ele></ele><time>2014-10-15T19:45:37Z</time></trkpt>
<trkpt lat="46.2832527160644531" lon="7.7190899848937988"><ele></ele><time>2014-10-15T19:45:40Z</time></trkpt>
<trkpt lat="46.2832336425781250" lon="7.7190413475036621"><ele></ele><time>2014-10-15T19:45:43Z</time></trkpt>
<trkpt lat="46.2831916809082031" lon="7.7189941406250000"><ele></ele><time>2014-10-15T19:45:46Z</time></trkpt>
<trkpt lat="46.2831573486328125" lon="7.7189526557922363"><ele></ele><time>2014-10-15T19:45:49Z</time></trkpt>
<trkpt lat="46.2831153869628906" lon="7.7188792228698730"><ele></ele><time>2014-10-15T19:45:52Z</time></trkpt>
<trkpt lat="46.2830848693847656" lon="7.7187981605529785"><ele></ele><time>2014-10-15T19:45:55Z</time></trkpt>
<trkpt lat="46.2830696105957031" lon="7.7187414169311523"><ele></ele><time>2014-10-15T19:45:58Z</time></trkpt>
<trkpt lat="46.2830390930175781" lon="7.7186722755432129"><ele></ele><time>2014-10-15T19:46:1Z</time></trkpt>
<trkpt lat="46.2830200195312500" lon="7.7186398506164551"><ele></ele><time>2014-10-15T19:46:4Z</time></trkpt>
<trkpt lat="46.2830047607421875" lon="7.7186036109924316"><ele></ele><time>2014-10-15T19:46:7Z</time></trkpt>
<trkpt lat="46.2829856872558594" lon="7.7185440063476562"><ele></ele><time>2014-10-15T19:46:10Z</time></trkpt>
<trkpt lat="46.2829666137695312" lon="7.7184967994689941"><ele></ele><time>2014-10-15T19:46:13Z</time></trkpt>
<trkpt lat="46.2829360961914062" lon="7.7184724807739258"><ele></ele><time>2014-10-15T19:46:16Z</time></trkpt>
<trkpt lat="46.2828941345214844" lon="7.7184572219848633"><ele></ele><time>2014-10-15T19:46:19Z</time></trkpt>
<trkpt lat="46.2828445434570312" lon="7.7184271812438965"><ele></ele><time>2014-10-15T19:46:22Z</time></trkpt>
<trkpt lat="46.2828063964843750" lon="7.7184162139892578"><ele></ele><time>2014-10-15T19:46:25Z</time></trkpt>
<trkpt lat="46.2827758789062500" lon="7.7183923721313477"><ele></ele><time>2014-10-15T19:46:28Z</time></trkpt>
<trkpt lat="46.2827415466308594" lon="7.7183718681335449"><ele></ele><time>2014-10-15T19:46:31Z</time></trkpt>
<trkpt lat="46.2826881408691406" lon="7.7183232307434082"><ele></ele><time>2014-10-15T19:46:34Z</time></trkpt>
<trkpt lat="46.2826423645019531" lon="7.7182936668395996"><ele></ele><time>2014-10-15T19:46:37Z</time></trkpt>
<trkpt lat="46.2825927734375000" lon="7.7182517051696777"><ele></ele><time>2014-10-15T19:46:40Z</time></trkpt>
<trkpt lat="46.2825393676757812" lon="7.7181968688964844"><ele></ele><time>2014-10-15T19:46:43Z</time></trkpt>
<trkpt lat="46.2825012207031250" lon="7.7181701660156250"><ele></ele><time>2014-10-15T19:46:46Z</time></trkpt>
<trkpt lat="46.2824745178222656" lon="7.7181487083435059"><ele></ele><time>2014-10-15T19:46:49Z</time></trkpt>
<trkpt lat="46.2824249267578125" lon="7.7181205749511719"><ele></ele><time>2014-10-15T19:46:52Z</time></trkpt>
<trkpt lat="46.2823677062988281" lon="7.7180743217468262"><ele></ele><time>2014-10-15T19:46:55Z</time></trkpt>
<trkpt lat="46.2823257446289062" lon="7.7180366516113281"><ele></ele><time>2014-10-15T19:46:58Z</time></trkpt>
<trkpt lat="46.2822990417480469" lon="7.7180171012878418"><ele></ele><time>2014-10-15T19:47:1Z</time></trkpt>
<trkpt lat="46.2822799682617188" lon="7.7179937362670898"><ele></ele><time>2014-10-15T19:47:4Z</time></trkpt>
<trkpt lat="46.2822494506835938" lon="7.7179670333862305"><ele></ele><time>2014-10-15T19:47:7Z</time></trkpt>
<trkpt lat="46.2821655273437500" lon="7.7179012298583984"><ele></ele><time>2014-10-15T19:47:10Z</time></trkpt>
<trkpt lat="46.2821121215820312" lon="7.7178449630737305"><ele></ele><time>2014-10-15T19:47:13Z</time></trkpt>
<trkpt lat="46.2820854187011719" lon="7.7178120613098145"><ele></ele><time>2014-10-15T19:47:16Z</time></trkpt>
<trkpt lat="46.2820587158203125" lon="7.7177643775939941"><ele></ele><time>2014-10-15T19:47:19Z</time></trkpt>
<trkpt lat="46.2820205688476562" lon="7.7176837921142578"><ele></ele><time>2014-10-15T19:47:22Z</time></trkpt>
<trkpt lat="46.2820053100585938" lon="7.7176361083984375"><ele></ele><time>2014-10-15T19:47:25Z</time></trkpt>
<trkpt lat="46.2820091247558594" lon="7.7175869941711426"><ele></ele><time>2014-10-15T19:47:28Z</time></trkpt>
<trkpt lat="46.2819900512695312" lon="7.7175145149230957"><ele></ele><time>2014-10-15T19:47:31Z</time></trkpt>
<trkpt lat="46.2819480895996094" lon="7.7174625396728516"><ele></ele><time>2014-10-15T19:47:34Z</time></trkpt>
<trkpt lat="46.2818984985351562" lon="7.7173900604248047"><ele></ele><time>2014-10-15T19:47:37Z</time></trkpt>
<trkpt lat="46.2818603515625000" lon="7.7173228263854980"><ele></ele><time>2014-10-15T19:47:40Z</time></trkpt>
<trkpt lat="46.2818412780761719" lon="7.7172713279724121"><ele></ele><time>2014-10-15T19:47:43Z</time></trkpt>
<trkpt lat="46.2818183898925781" lon="7.7172079086303711"><ele></ele><time>2014-10-15T19:47:46Z</time></trkpt>
<trkpt lat="46.2818145751953125" lon="7.7171220779418945"><ele></ele><time>2014-10-15T19:47:49Z</time></trkpt>
<trkpt lat="46.2818031311035156" lon="7.7170329093933105"><ele></ele><time>2014-10-15T19:47:52Z</time></trkpt>
<trkpt lat="46.2817764282226562" lon="7.7169523239135742"><ele></ele><time>2014-10-15T19:47:55Z</time></trkpt>
<trkpt lat="46.2817611694335938" lon="7.7168321609497070"><ele></ele><time>2014-10-15T19:47:58Z</time></trkpt>
<trkpt lat="46.2817497253417969" lon="7.7167563438415527"><ele></ele><time>2014-10-15T19:48:1Z</time></trkpt>
<trkpt lat="46.2817459106445312" lon="7.7166867256164551"><ele></ele><time>2014-10-15T19:48:4Z</time></trkpt>
<trkpt lat="46.2817306518554688" lon="7.7165904045104980"><ele></ele><time>2014-10-15T19:48:7Z</time></trkpt>
<trkpt lat="46.2817268371582031" lon="7.7165250778198242"><ele></ele><time>2014-10-15T19:48:10Z</time></trkpt>
<trkpt lat="46.2817115783691406" lon="7.7164702415466309"><ele></ele><time>2014-10-15T19:48:13Z</time></trkpt>
<trkpt lat="46.2816925048828125" lon="7.7164344787597656"><ele></ele><time>2014-10-15T19:48:16Z</time></trkpt>
<trkpt lat="46.2816734313964844" lon="7.7163772583007812"><ele></ele><time>2014-10-15T19:48:19Z</time></trkpt>
<trkpt lat="46.2816658020019531" lon="7.7163090705871582"><ele></ele><time>2014-10-15T19:48:22Z</time></trkpt>
<trkpt lat="46.2815628051757812" lon="7.7162342071533203"><ele></ele><time>2014-10-15T19:48:25Z</time></trkpt>
<trkpt lat="46.2814903259277344" lon="7.7161655426025391"><ele></ele><time>2014-10-15T19:48:28Z</time></trkpt>
<trkpt lat="46.2814483642578125" lon="7.7161288261413574"><ele></ele><time>2014-10-15T19:48:31Z</time></trkpt>
<trkpt lat="46.2814064025878906" lon="7.7161054611206055"><ele></ele><time>2014-10-15T19:48:34Z</time></trkpt>
<trkpt lat="46.2813491821289062" lon="7.7161006927490234"><ele></ele><time>2014-10-15T19:48:37Z</time></trkpt>
<trkpt lat="46.2813148498535156" lon="7.7161002159118652"><ele></ele><time>2014-10-15T19:48:40Z</time></trkpt>
<trkpt lat="46.2812767028808594" lon="7.7160811424255371"><ele></ele><time>2014-10-15T19:48:43Z</time></trkpt>
<trkpt lat="46.2812347412109375" lon="7.7160220146179199"><ele></ele><time>2014-10-15T19:48:46Z</time></trkpt>
<trkpt lat="46.2811889648437500" lon="7.7159671783447266"><ele></ele><time>2014-10-15T19:48:49Z</time></trkpt>
<trkpt lat="46.2811584472656250" lon="7.7159333229064941"><ele></ele><time>2014-10-15T19:48:52Z</time></trkpt>
<trkpt lat="46.2811203002929688" lon="7.7158918380737305"><ele></ele><time>2014-10-15T19:48:55Z</time></trkpt>
<trkpt lat="46.2810707092285156" lon="7.7158589363098145"><ele></ele><time>2014-10-15T19:48:58Z</time></trkpt>
<trkpt lat="46.2810401916503906" lon="7.7158350944519043"><ele></ele><time>2014-10-15T19:49:1Z</time></trkpt>
<trkpt lat="46.2809906005859375" lon="7.7157878875732422"><ele></ele><time>2014-10-15T19:49:4Z</time></trkpt>
<trkpt lat="46.2809371948242188" lon="7.7157344818115234"><ele></ele><time>2014-10-15T19:49:7Z</time></trkpt>
<trkpt lat="46.2808990478515625" lon="7.7156910896301270"><ele></ele><time>2014-10-15T19:49:10Z</time></trkpt>
<trkpt lat="46.2808418273925781" lon="7.7156319618225098"><ele></ele><time>2014-10-15T19:49:13Z</time></trkpt>
<trkpt lat="46.2808265686035156" lon="7.7155814170837402"><ele></ele><time>2014-10-15T19:49:16Z</time></trkpt>
<trkpt lat="46.2808074951171875" lon="7.7155303955078125"><ele></ele><time>2014-10-15T19:49:19Z</time></trkpt>
<trkpt lat="46.2807846069335938" lon="7.7154803276062012"><ele></ele><time>2014-10-15T19:49:22Z</time></trkpt>
<trkpt lat="46.2807579040527344" lon="7.7154259681701660"><ele></ele><time>2014-10-15T19:49:25Z</time></trkpt>
<trkpt lat="46.2807273864746094" lon="7.7153916358947754"><ele></ele><time>2014-10-15T19:49:28Z</time></trkpt>
<trkpt lat="46.2806663513183594" lon="7.7153377532958984"><ele></ele><time>2014-10-15T19:49:31Z</time></trkpt>
<trkpt lat="46.2806205749511719" lon="7.7152700424194336"><ele></ele><time>2014-10-15T19:49:34Z</time></trkpt>
<trkpt lat="46.2806015014648438" lon="7.7152681350708008"><ele></ele><time>2014-10-15T19:49:37Z</time></trkpt>
<trkpt lat="46.2805938720703125" lon="7.7152905464172363"><ele></ele><time>2014-10-15T19:49:40Z</time></trkpt>
<trkpt lat="46.2806091308593750" lon="7.7153167724609375"><ele></ele><time>2014-10-15T19:49:43Z</time></trkpt>
<trkpt lat="46.2806205749511719" lon="7.7153258323669434"><ele></ele><time>2014-10-15T19:49:46Z</time></trkpt>
<trkpt lat="46.2806282043457031" lon="7.7153367996215820"><ele></ele><time>2014-10-15T19:49:49Z</time></trkpt>
<trkpt lat="46.2806396484375000" lon="7.7153697013854980"><ele></ele><time>2014-10-15T19:49:52Z</time></trkpt>
<trkpt lat="46.2806510925292969" lon="7.7153964042663574"><ele></ele><time>2014-10-15T19:49:55Z</time></trkpt>
<trkpt lat="46.2806587219238281" lon="7.7154302597045898"><ele></ele><time>2014-10-15T19:49:58Z</time></trkpt>
<trkpt lat="46.2806739807128906" lon="7.7154793739318848"><ele></ele><time>2014-10-15T19:50:1Z</time></trkpt>
<trkpt lat="46.2806816101074219" lon="7.7155094146728516"><ele></ele><time>2014-10-15T19:50:4Z</time></trkpt>
<trkpt lat="46.2806930541992188" lon="7.7155394554138184"><ele></ele><time>2014-10-15T19:50:7Z</time></trkpt>
<trkpt lat="46.2807121276855469" lon="7.7155933380126953"><ele></ele><time>2014-10-15T19:50:10Z</time></trkpt>
<trkpt lat="46.2807426452636719" lon="7.7156329154968262"><ele></ele><time>2014-10-15T19:50:13Z</time></trkpt>
<trkpt lat="46.2807731628417969" lon="7.7156686782836914"><ele></ele><time>2014-10-15T19:50:16Z</time></trkpt>
<trkpt lat="46.2807960510253906" lon="7.7157239913940430"><ele></ele><time>2014-10-15T19:50:19Z</time></trkpt>
<trkpt lat="46.2808189392089844" lon="7.7157697677612305"><ele></ele><time>2014-10-15T19:50:22Z</time></trkpt>
<trkpt lat="46.2808380126953125" lon="7.7157979011535645"><ele></ele><time>2014-10-15T19:50:25Z</time></trkpt>
<trkpt lat="46.2808532714843750" lon="7.7158756256103516"><ele></ele><time>2014-10-15T19:50:28Z</time></trkpt>
<trkpt lat="46.2808761596679688" lon="7.7159523963928223"><ele></ele><time>2014-10-15T19:50:31Z</time></trkpt>
<trkpt lat="46.2808990478515625" lon="7.7159953117370605"><ele></ele><time>2014-10-15T19:50:34Z</time></trkpt>
<trkpt lat="46.2809219360351562" lon="7.7160420417785645"><ele></ele><time>2014-10-15T19:50:37Z</time></trkpt>
<trkpt lat="46.2809524536132812" lon="7.7161016464233398"><ele></ele><time>2014-10-15T19:50:40Z</time></trkpt>
<trkpt lat="46.2809867858886719" lon="7.7161502838134766"><ele></ele><time>2014-10-15T19:50:43Z</time></trkpt>
<trkpt lat="46.2810058593750000" lon="7.7161793708801270"><ele></ele><time>2014-10-15T19:50:46Z</time></trkpt>
<trkpt lat="46.2810325622558594" lon="7.7162270545959473"><ele></ele><time>2014-10-15T19:50:49Z</time></trkpt>
<trkpt lat="46.2810592651367188" lon="7.7163085937500000"><ele></ele><time>2014-10-15T19:50:52Z</time></trkpt>
<trkpt lat="46.2810783386230469" lon="7.7163639068603516"><ele></ele><time>2014-10-15T19:50:55Z</time></trkpt>
<trkpt lat="46.2811012268066406" lon="7.7164626121520996"><ele></ele><time>2014-10-15T19:50:58Z</time></trkpt>
<trkpt lat="46.2811279296875000" lon="7.7165379524230957"><ele></ele><time>2014-10-15T19:51:1Z</time></trkpt>
<trkpt lat="46.2811470031738281" lon="7.7165918350219727"><ele></ele><time>2014-10-15T19:51:4Z</time></trkpt>
<trkpt lat="46.2811813354492188" lon="7.7166547775268555"><ele></ele><time>2014-10-15T19:51:7Z</time></trkpt>
<trkpt lat="46.2812271118164062" lon="7.7167000770568848"><ele></ele><time>2014-10-15T19:51:10Z</time></trkpt>
<trkpt lat="46.2812500000000000" lon="7.7167348861694336"><ele></ele><time>2014-10-15T19:51:13Z</time></trkpt>
<trkpt lat="46.2812690734863281" lon="7.7167963981628418"><ele></ele><time>2014-10-15T19:51:16Z</time></trkpt>
<trkpt lat="46.2812843322753906" lon="7.7168474197387695"><ele></ele><time>2014-10-15T19:51:19Z</time></trkpt>
<trkpt lat="46.2812995910644531" lon="7.7169289588928223"><ele></ele><time>2014-10-15T19:51:22Z</time></trkpt>
<trkpt lat="46.2813034057617188" lon="7.7169775962829590"><ele></ele><time>2014-10-15T19:51:25Z</time></trkpt>
<trkpt lat="46.2813148498535156" lon="7.7170600891113281"><ele></ele><time>2014-10-15T19:51:28Z</time></trkpt>
<trkpt lat="46.2813072204589844" lon="7.7171478271484375"><ele></ele><time>2014-10-15T19:51:31Z</time></trkpt>
<trkpt lat="46.2813034057617188" lon="7.7172031402587891"><ele></ele><time>2014-10-15T19:51:34Z</time></trkpt>
<trkpt lat="46.2813034057617188" lon="7.7172574996948242"><ele></ele><time>2014-10-15T19:51:37Z</time></trkpt>
<trkpt lat="46.2813034057617188" lon="7.7173132896423340"><ele></ele><time>2014-10-15T19:51:40Z</time></trkpt>
<trkpt lat="46.2813034057617188" lon="7.7174048423767090"><ele></ele><time>2014-10-15T19:51:43Z</time></trkpt>
<trkpt lat="46.2812881469726562" lon="7.7174539566040039"><ele></ele><time>2014-10-15T19:51:46Z</time></trkpt>
<trkpt lat="46.2812805175781250" lon="7.7175068855285645"><ele></ele><time>2014-10-15T19:51:49Z</time></trkpt>
<trkpt lat="46.2812652587890625" lon="7.7175602912902832"><ele></ele><time>2014-10-15T19:51:52Z</time></trkpt>
<trkpt lat="46.2812538146972656" lon="7.7176194190979004"><ele></ele><time>2014-10-15T19:51:55Z</time></trkpt>
<trkpt lat="46.2812347412109375" lon="7.7177047729492188"><ele></ele><time>2014-10-15T19:51:58Z</time></trkpt>
<trkpt lat="46.2812156677246094" lon="7.7177734375000000"><ele></ele><time>2014-10-15T19:52:1Z</time></trkpt>
<trkpt lat="46.2812042236328125" lon="7.7178039550781250"><ele></ele><time>2014-10-15T19:52:4Z</time></trkpt>
<trkpt lat="46.2811889648437500" lon="7.7178487777709961"><ele></ele><time>2014-10-15T19:52:7Z</time></trkpt>
<trkpt lat="46.2811889648437500" lon="7.7178807258605957"><ele></ele><time>2014-10-15T19:52:10Z</time></trkpt>
<trkpt lat="46.2812042236328125" lon="7.7179155349731445"><ele></ele><time>2014-10-15T19:52:13Z</time></trkpt>
<trkpt lat="46.2812232971191406" lon="7.7179493904113770"><ele></ele><time>2014-10-15T19:52:16Z</time></trkpt>
<trkpt lat="46.2812385559082031" lon="7.7179951667785645"><ele></ele><time>2014-10-15T19:52:19Z</time></trkpt>
<trkpt lat="46.2812423706054688" lon="7.7180285453796387"><ele></ele><time>2014-10-15T19:52:22Z</time></trkpt>
<trkpt lat="46.2812538146972656" lon="7.7181034088134766"><ele></ele><time>2014-10-15T19:52:25Z</time></trkpt>
<trkpt lat="46.2812805175781250" lon="7.7181653976440430"><ele></ele><time>2014-10-15T19:52:28Z</time></trkpt>
<trkpt lat="46.2812995910644531" lon="7.7181925773620605"><ele></ele><time>2014-10-15T19:52:31Z</time></trkpt>
<trkpt lat="46.2813110351562500" lon="7.7182264328002930"><ele></ele><time>2014-10-15T19:52:34Z</time></trkpt>
<trkpt lat="46.2813224792480469" lon="7.7182741165161133"><ele></ele><time>2014-10-15T19:52:37Z</time></trkpt>
<trkpt lat="46.2813339233398438" lon="7.7183299064636230"><ele></ele><time>2014-10-15T19:52:40Z</time></trkpt>
<trkpt lat="46.2813453674316406" lon="7.7183942794799805"><ele></ele><time>2014-10-15T19:52:43Z</time></trkpt>
<trkpt lat="46.2813606262207031" lon="7.7185001373291016"><ele></ele><time>2014-10-15T19:52:46Z</time></trkpt>
<trkpt lat="46.2813606262207031" lon="7.7185645103454590"><ele></ele><time>2014-10-15T19:52:49Z</time></trkpt>
<trkpt lat="46.2813606262207031" lon="7.7186484336853027"><ele></ele><time>2014-10-15T19:52:52Z</time></trkpt>
<trkpt lat="46.2813606262207031" lon="7.7187342643737793"><ele></ele><time>2014-10-15T19:52:55Z</time></trkpt>
<trkpt lat="46.2813644409179688" lon="7.7187843322753906"><ele></ele><time>2014-10-15T19:52:58Z</time></trkpt>
<trkpt lat="46.2813682556152344" lon="7.7188510894775391"><ele></ele><time>2014-10-15T19:53:1Z</time></trkpt>
<trkpt lat="46.2813758850097656" lon="7.7189154624938965"><ele></ele><time>2014-10-15T19:53:4Z</time></trkpt>
<trkpt lat="46.2813911437988281" lon="7.7189521789550781"><ele></ele><time>2014-10-15T19:53:7Z</time></trkpt>
<trkpt lat="46.2814025878906250" lon="7.7189879417419434"><ele></ele><time>2014-10-15T19:53:10Z</time></trkpt>
<trkpt lat="46.2814254760742188" lon="7.7190370559692383"><ele></ele><time>2014-10-15T19:53:13Z</time></trkpt>
<trkpt lat="46.2814445495605469" lon="7.7190532684326172"><ele></ele><time>2014-10-15T19:53:16Z</time></trkpt>
<trkpt lat="46.2814636230468750" lon="7.7190761566162109"><ele></ele><time>2014-10-15T19:53:19Z</time></trkpt>
<trkpt lat="46.2814979553222656" lon="7.7191410064697266"><ele></ele><time>2014-10-15T19:53:22Z</time></trkpt>
<trkpt lat="46.2815322875976562" lon="7.7191991806030273"><ele></ele><time>2014-10-15T19:53:25Z</time></trkpt>
<trkpt lat="46.2815513610839844" lon="7.7192330360412598"><ele></ele><time>2014-10-15T19:53:28Z</time></trkpt>
<trkpt lat="46.2815895080566406" lon="7.7192811965942383"><ele></ele><time>2014-10-15T19:53:31Z</time></trkpt>
<trkpt lat="46.2816238403320312" lon="7.7193365097045898"><ele></ele><time>2014-10-15T19:53:34Z</time></trkpt>
<trkpt lat="46.2816352844238281" lon="7.7193999290466309"><ele></ele><time>2014-10-15T19:53:37Z</time></trkpt>
<trkpt lat="46.2816810607910156" lon="7.7194728851318359"><ele></ele><time>2014-10-15T19:53:40Z</time></trkpt>
<trkpt lat="46.2817344665527344" lon="7.7195277214050293"><ele></ele><time>2014-10-15T19:53:43Z</time></trkpt>
<trkpt lat="46.2817916870117188" lon="7.7195658683776855"><ele></ele><time>2014-10-15T19:53:46Z</time></trkpt>
<trkpt lat="46.2818374633789062" lon="7.7195930480957031"><ele></ele><time>2014-10-15T19:53:49Z</time></trkpt>
<trkpt lat="46.2818870544433594" lon="7.7196230888366699"><ele></ele><time>2014-10-15T19:53:52Z</time></trkpt>
<trkpt lat="46.2819175720214844" lon="7.7196435928344727"><ele></ele><time>2014-10-15T19:53:55Z</time></trkpt>
<trkpt lat="46.2819709777832031" lon="7.7196784019470215"><ele></ele><time>2014-10-15T19:53:58Z</time></trkpt>
<trkpt lat="46.2820091247558594" lon="7.7197136878967285"><ele></ele><time>2014-10-15T19:54:1Z</time></trkpt>
<trkpt lat="46.2820396423339844" lon="7.7197499275207520"><ele></ele><time>2014-10-15T19:54:4Z</time></trkpt>
<trkpt lat="46.2820854187011719" lon="7.7198095321655273"><ele></ele><time>2014-10-15T19:54:7Z</time></trkpt>
<trkpt lat="46.2821273803710938" lon="7.7198576927185059"><ele></ele><time>2014-10-15T19:54:10Z</time></trkpt>
<trkpt lat="46.2821502685546875" lon="7.7198977470397949"><ele></ele><time>2014-10-15T19:54:13Z</time></trkpt>
<trkpt lat="46.2821769714355469" lon="7.7199459075927734"><ele></ele><time>2014-10-15T19:54:16Z</time></trkpt>
<trkpt lat="46.2822113037109375" lon="7.7199940681457520"><ele></ele><time>2014-10-15T19:54:19Z</time></trkpt>
<trkpt lat="46.2822380065917969" lon="7.7200279235839844"><ele></ele><time>2014-10-15T19:54:22Z</time></trkpt>
<trkpt lat="46.2822685241699219" lon="7.7201037406921387"><ele></ele><time>2014-10-15T19:54:25Z</time></trkpt>
<trkpt lat="46.2822914123535156" lon="7.7201747894287109"><ele></ele><time>2014-10-15T19:54:28Z</time></trkpt>
<trkpt lat="46.2823104858398438" lon="7.7202205657958984"><ele></ele><time>2014-10-15T19:54:31Z</time></trkpt>
<trkpt lat="46.2823295593261719" lon="7.7202906608581543"><ele></ele><time>2014-10-15T19:54:34Z</time></trkpt>
<trkpt lat="46.2823486328125000" lon="7.7203717231750488"><ele></ele><time>2014-10-15T19:54:37Z</time></trkpt>
<trkpt lat="46.2823677062988281" lon="7.7204284667968750"><ele></ele><time>2014-10-15T19:54:40Z</time></trkpt>
<trkpt lat="46.2823982238769531" lon="7.7205014228820801"><ele></ele><time>2014-10-15T19:54:43Z</time></trkpt>
<trkpt lat="46.2824287414550781" lon="7.7205610275268555"><ele></ele><time>2014-10-15T19:54:46Z</time></trkpt>
<trkpt lat="46.2824401855468750" lon="7.7205843925476074"><ele></ele><time>2014-10-15T19:54:49Z</time></trkpt>
<trkpt lat="46.2824592590332031" lon="7.7206120491027832"><ele></ele><time>2014-10-15T19:54:52Z</time></trkpt>
<trkpt lat="46.2824935913085938" lon="7.7206711769104004"><ele></ele><time>2014-10-15T19:54:55Z</time></trkpt>
<trkpt lat="46.2825012207031250" lon="7.7207226753234863"><ele></ele><time>2014-10-15T19:54:58Z</time></trkpt>
<trkpt lat="46.2824783325195312" lon="7.7208003997802734"><ele></ele><time>2014-10-15T19:55:1Z</time></trkpt>
<trkpt lat="46.2824668884277344" lon="7.7208771705627441"><ele></ele><time>2014-10-15T19:55:4Z</time></trkpt>
<trkpt lat="46.2824554443359375" lon="7.7209286689758301"><ele></ele><time>2014-10-15T19:55:7Z</time></trkpt>
<trkpt lat="46.2824516296386719" lon="7.7209968566894531"><ele></ele><time>2014-10-15T19:55:10Z</time></trkpt>
<trkpt lat="46.2824440002441406" lon="7.7212166786193848"><ele></ele><time>2014-10-15T19:55:13Z</time></trkpt>
<trkpt lat="46.2824287414550781" lon="7.7213535308837891"><ele></ele><time>2014-10-15T19:55:16Z</time></trkpt>
<trkpt lat="46.2824020385742188" lon="7.7214698791503906"><ele></ele><time>2014-10-15T19:55:19Z</time></trkpt>
<trkpt lat="46.2823829650878906" lon="7.7215805053710938"><ele></ele><time>2014-10-15T19:55:22Z</time></trkpt>
<trkpt lat="46.2823753356933594" lon="7.7216749191284180"><ele></ele><time>2014-10-15T19:55:25Z</time></trkpt>
<trkpt lat="46.2823791503906250" lon="7.7217631340026855"><ele></ele><time>2014-10-15T19:55:28Z</time></trkpt>
<trkpt lat="46.2823562622070312" lon="7.7218551635742188"><ele></ele><time>2014-10-15T19:55:31Z</time></trkpt>
<trkpt lat="46.2823295593261719" lon="7.7219371795654297"><ele></ele><time>2014-10-15T19:55:34Z</time></trkpt>
<trkpt lat="46.2823295593261719" lon="7.7219958305358887"><ele></ele><time>2014-10-15T19:55:37Z</time></trkpt>
<trkpt lat="46.2823295593261719" lon="7.7220902442932129"><ele></ele><time>2014-10-15T19:55:40Z</time></trkpt>
<trkpt lat="46.2823181152343750" lon="7.7221512794494629"><ele></ele><time>2014-10-15T19:55:43Z</time></trkpt>
<trkpt lat="46.2823066711425781" lon="7.7222342491149902"><ele></ele><time>2014-10-15T19:55:46Z</time></trkpt>
<trkpt lat="46.2823181152343750" lon="7.7222704887390137"><ele></ele><time>2014-10-15T19:55:49Z</time></trkpt>
<trkpt lat="46.2823295593261719" lon="7.7222719192504883"><ele></ele><time>2014-10-15T19:55:52Z</time></trkpt>
<trkpt lat="46.2823371887207031" lon="7.7222509384155273"><ele></ele><time>2014-10-15T19:55:55Z</time></trkpt>
<trkpt lat="46.2825584411621094" lon="7.7221965789794922"><ele></ele><time>2014-10-15T19:55:58Z</time></trkpt>
<trkpt lat="46.2825736999511719" lon="7.7222123146057129"><ele></ele><time>2014-10-15T19:56:1Z</time></trkpt>
<trkpt lat="46.2825889587402344" lon="7.7222433090209961"><ele></ele><time>2014-10-15T19:56:4Z</time></trkpt>
<trkpt lat="46.2826080322265625" lon="7.7223019599914551"><ele></ele><time>2014-10-15T19:56:7Z</time></trkpt>
<trkpt lat="46.2826347351074219" lon="7.7223176956176758"><ele></ele><time>2014-10-15T19:56:10Z</time></trkpt>
<trkpt lat="46.2826957702636719" lon="7.7223005294799805"><ele></ele><time>2014-10-15T19:56:13Z</time></trkpt>
<trkpt lat="46.2828445434570312" lon="7.7223010063171387"><ele></ele><time>2014-10-15T19:56:16Z</time></trkpt>
<trkpt lat="46.2828979492187500" lon="7.7223730087280273"><ele></ele><time>2014-10-15T19:56:19Z</time></trkpt>
<trkpt lat="46.2829055786132812" lon="7.7224192619323730"><ele></ele><time>2014-10-15T19:56:22Z</time></trkpt>
<trkpt lat="46.2829437255859375" lon="7.7224917411804199"><ele></ele><time>2014-10-15T19:56:25Z</time></trkpt>
<trkpt lat="46.2829818725585938" lon="7.7225561141967773"><ele></ele><time>2014-10-15T19:56:28Z</time></trkpt>
<trkpt lat="46.2830047607421875" lon="7.7226171493530273"><ele></ele><time>2014-10-15T19:56:31Z</time></trkpt>
<trkpt lat="46.2830390930175781" lon="7.7226877212524414"><ele></ele><time>2014-10-15T19:56:34Z</time></trkpt>
<trkpt lat="46.2831115722656250" lon="7.7227473258972168"><ele></ele><time>2014-10-15T19:56:37Z</time></trkpt>
<trkpt lat="46.2831649780273438" lon="7.7228012084960938"><ele></ele><time>2014-10-15T19:56:40Z</time></trkpt>
<trkpt lat="46.2832984924316406" lon="7.7229342460632324"><ele></ele><time>2014-10-15T19:56:43Z</time></trkpt>
<trkpt lat="46.2834014892578125" lon="7.7230825424194336"><ele></ele><time>2014-10-15T19:56:46Z</time></trkpt>
<trkpt lat="46.2835006713867188" lon="7.7232351303100586"><ele></ele><time>2014-10-15T19:56:49Z</time></trkpt>
<trkpt lat="46.2836074829101562" lon="7.7234063148498535"><ele></ele><time>2014-10-15T19:56:52Z</time></trkpt>
<trkpt lat="46.2836875915527344" lon="7.7235522270202637"><ele></ele><time>2014-10-15T19:56:55Z</time></trkpt>
<trkpt lat="46.2837944030761719" lon="7.7237238883972168"><ele></ele><time>2014-10-15T19:56:58Z</time></trkpt>
<trkpt lat="46.2838516235351562" lon="7.7238330841064453"><ele></ele><time>2014-10-15T19:57:1Z</time></trkpt>
<trkpt lat="46.2838935852050781" lon="7.7239232063293457"><ele></ele><time>2014-10-15T19:57:4Z</time></trkpt>
<trkpt lat="46.2839546203613281" lon="7.7239923477172852"><ele></ele><time>2014-10-15T19:57:7Z</time></trkpt>
<trkpt lat="46.2840690612792969" lon="7.7240805625915527"><ele></ele><time>2014-10-15T19:57:10Z</time></trkpt>
<trkpt lat="46.2842063903808594" lon="7.7242345809936523"><ele></ele><time>2014-10-15T19:57:13Z</time></trkpt>
<trkpt lat="46.2843322753906250" lon="7.7243223190307617"><ele></ele><time>2014-10-15T19:57:16Z</time></trkpt>
<trkpt lat="46.2844772338867188" lon="7.7242865562438965"><ele></ele><time>2014-10-15T19:57:19Z</time></trkpt>
<trkpt lat="46.2846412658691406" lon="7.7241930961608887"><ele></ele><time>2014-10-15T19:57:22Z</time></trkpt>
<trkpt lat="46.2847900390625000" lon="7.7241406440734863"><ele></ele><time>2014-10-15T19:57:25Z</time></trkpt>
<trkpt lat="46.2848930358886719" lon="7.7241067886352539"><ele></ele><time>2014-10-15T19:57:28Z</time></trkpt>
<trkpt lat="46.2850341796875000" lon="7.7240815162658691"><ele></ele><time>2014-10-15T19:57:31Z</time></trkpt>
<trkpt lat="46.2851181030273438" lon="7.7241573333740234"><ele></ele><time>2014-10-15T19:57:34Z</time></trkpt>
<trkpt lat="46.2851982116699219" lon="7.7242369651794434"><ele></ele><time>2014-10-15T19:57:37Z</time></trkpt>
<trkpt lat="46.2852478027343750" lon="7.7242059707641602"><ele></ele><time>2014-10-15T19:57:40Z</time></trkpt>
<trkpt lat="46.2853164672851562" lon="7.7241473197937012"><ele></ele><time>2014-10-15T19:57:43Z</time></trkpt>
<trkpt lat="46.2853965759277344" lon="7.7240972518920898"><ele></ele><time>2014-10-15T19:57:46Z</time></trkpt>
<trkpt lat="46.2854499816894531" lon="7.7240610122680664"><ele></ele><time>2014-10-15T19:57:49Z</time></trkpt>
<trkpt lat="46.2855262756347656" lon="7.7240066528320312"><ele></ele><time>2014-10-15T19:57:52Z</time></trkpt>
<trkpt lat="46.2856101989746094" lon="7.7239456176757812"><ele></ele><time>2014-10-15T19:57:55Z</time></trkpt>
<trkpt lat="46.2856941223144531" lon="7.7239022254943848"><ele></ele><time>2014-10-15T19:57:58Z</time></trkpt>
<trkpt lat="46.2857513427734375" lon="7.7238922119140625"><ele></ele><time>2014-10-15T19:58:1Z</time></trkpt>
<trkpt lat="46.2858352661132812" lon="7.7239084243774414"><ele></ele><time>2014-10-15T19:58:4Z</time></trkpt>
<trkpt lat="46.2859191894531250" lon="7.7239365577697754"><ele></ele><time>2014-10-15T19:58:7Z</time></trkpt>
<trkpt lat="46.2859687805175781" lon="7.7240080833435059"><ele></ele><time>2014-10-15T19:58:10Z</time></trkpt>
<trkpt lat="46.2859954833984375" lon="7.7240567207336426"><ele></ele><time>2014-10-15T19:58:13Z</time></trkpt>
<trkpt lat="46.2860488891601562" lon="7.7241244316101074"><ele></ele><time>2014-10-15T19:58:16Z</time></trkpt>
<trkpt lat="46.2861061096191406" lon="7.7241935729980469"><ele></ele><time>2014-10-15T19:58:19Z</time></trkpt>
<trkpt lat="46.2861480712890625" lon="7.7242360115051270"><ele></ele><time>2014-10-15T19:58:22Z</time></trkpt>
<trkpt lat="46.2862052917480469" lon="7.7242975234985352"><ele></ele><time>2014-10-15T19:58:25Z</time></trkpt>
<trkpt lat="46.2862663269042969" lon="7.7243542671203613"><ele></ele><time>2014-10-15T19:58:28Z</time></trkpt>
<trkpt lat="46.2863121032714844" lon="7.7243814468383789"><ele></ele><time>2014-10-15T19:58:31Z</time></trkpt>
<trkpt lat="46.2863769531250000" lon="7.7244219779968262"><ele></ele><time>2014-10-15T19:58:34Z</time></trkpt>
<trkpt lat="46.2864189147949219" lon="7.7244548797607422"><ele></ele><time>2014-10-15T19:58:37Z</time></trkpt>
<trkpt lat="46.2864608764648438" lon="7.7244853973388672"><ele></ele><time>2014-10-15T19:58:40Z</time></trkpt>
<trkpt lat="46.2865295410156250" lon="7.7245326042175293"><ele></ele><time>2014-10-15T19:58:43Z</time></trkpt>
<trkpt lat="46.2865715026855469" lon="7.7245759963989258"><ele></ele><time>2014-10-15T19:58:46Z</time></trkpt>
<trkpt lat="46.2866172790527344" lon="7.7246565818786621"><ele></ele><time>2014-10-15T19:58:49Z</time></trkpt>
<trkpt lat="46.2866439819335938" lon="7.7247176170349121"><ele></ele><time>2014-10-15T19:58:52Z</time></trkpt>
<trkpt lat="46.2866706848144531" lon="7.7248268127441406"><ele></ele><time>2014-10-15T19:58:55Z</time></trkpt>
<trkpt lat="46.2866897583007812" lon="7.7249374389648438"><ele></ele><time>2014-10-15T19:58:58Z</time></trkpt>
<trkpt lat="46.2867126464843750" lon="7.7250485420227051"><ele></ele><time>2014-10-15T19:59:1Z</time></trkpt>
<trkpt lat="46.2867317199707031" lon="7.7251191139221191"><ele></ele><time>2014-10-15T19:59:4Z</time></trkpt>
<trkpt lat="46.2867584228515625" lon="7.7252235412597656"><ele></ele><time>2014-10-15T19:59:7Z</time></trkpt>
<trkpt lat="46.2867774963378906" lon="7.7252931594848633"><ele></ele><time>2014-10-15T19:59:10Z</time></trkpt>
<trkpt lat="46.2868080139160156" lon="7.7254033088684082"><ele></ele><time>2014-10-15T19:59:13Z</time></trkpt>
<trkpt lat="46.2868423461914062" lon="7.7255196571350098"><ele></ele><time>2014-10-15T19:59:16Z</time></trkpt>
<trkpt lat="46.2868843078613281" lon="7.7256531715393066"><ele></ele><time>2014-10-15T19:59:19Z</time></trkpt>
<trkpt lat="46.2869110107421875" lon="7.7257452011108398"><ele></ele><time>2014-10-15T19:59:22Z</time></trkpt>
<trkpt lat="46.2869529724121094" lon="7.7258915901184082"><ele></ele><time>2014-10-15T19:59:25Z</time></trkpt>
<trkpt lat="46.2869987487792969" lon="7.7260370254516602"><ele></ele><time>2014-10-15T19:59:28Z</time></trkpt>
<trkpt lat="46.2870292663574219" lon="7.7261295318603516"><ele></ele><time>2014-10-15T19:59:31Z</time></trkpt>
<trkpt lat="46.2870903015136719" lon="7.7262897491455078"><ele></ele><time>2014-10-15T19:59:34Z</time></trkpt>
<trkpt lat="46.2871475219726562" lon="7.7264680862426758"><ele></ele><time>2014-10-15T19:59:37Z</time></trkpt>
<trkpt lat="46.2872161865234375" lon="7.7266254425048828"><ele></ele><time>2014-10-15T19:59:40Z</time></trkpt>
<trkpt lat="46.2872734069824219" lon="7.7267923355102539"><ele></ele><time>2014-10-15T19:59:43Z</time></trkpt>
<trkpt lat="46.2873153686523438" lon="7.7269058227539062"><ele></ele><time>2014-10-15T19:59:46Z</time></trkpt>
<trkpt lat="46.2873725891113281" lon="7.7270860671997070"><ele></ele><time>2014-10-15T19:59:49Z</time></trkpt>
<trkpt lat="46.2874069213867188" lon="7.7272028923034668"><ele></ele><time>2014-10-15T19:59:52Z</time></trkpt>
<trkpt lat="46.2874450683593750" lon="7.7273931503295898"><ele></ele><time>2014-10-15T19:59:55Z</time></trkpt>
<trkpt lat="46.2874336242675781" lon="7.7275795936584473"><ele></ele><time>2014-10-15T19:59:58Z</time></trkpt>
<trkpt lat="46.2873802185058594" lon="7.7277455329895020"><ele></ele><time>2014-10-15T20:0:1Z</time></trkpt>
<trkpt lat="46.2873344421386719" lon="7.7278871536254883"><ele></ele><time>2014-10-15T20:0:4Z</time></trkpt>
<trkpt lat="46.2873153686523438" lon="7.7279672622680664"><ele></ele><time>2014-10-15T20:0:7Z</time></trkpt>
<trkpt lat="46.2872962951660156" lon="7.7280440330505371"><ele></ele><time>2014-10-15T20:0:10Z</time></trkpt>
<trkpt lat="46.2872886657714844" lon="7.7280840873718262"><ele></ele><time>2014-10-15T20:0:13Z</time></trkpt>
<trkpt lat="46.2872734069824219" lon="7.7281012535095215"><ele></ele><time>2014-10-15T20:0:16Z</time></trkpt>
<trkpt lat="46.2872047424316406" lon="7.7283287048339844"><ele></ele><time>2014-10-15T20:0:19Z</time></trkpt>
<trkpt lat="46.2871627807617188" lon="7.7284841537475586"><ele></ele><time>2014-10-15T20:0:22Z</time></trkpt>
<trkpt lat="46.2871284484863281" lon="7.7286295890808105"><ele></ele><time>2014-10-15T20:0:25Z</time></trkpt>
<trkpt lat="46.2871017456054688" lon="7.7287616729736328"><ele></ele><time>2014-10-15T20:0:28Z</time></trkpt>
<trkpt lat="46.2870712280273438" lon="7.7288727760314941"><ele></ele><time>2014-10-15T20:0:31Z</time></trkpt>
<trkpt lat="46.2870483398437500" lon="7.7289438247680664"><ele></ele><time>2014-10-15T20:0:34Z</time></trkpt>
<trkpt lat="46.2870292663574219" lon="7.7290172576904297"><ele></ele><time>2014-10-15T20:0:37Z</time></trkpt>
<trkpt lat="46.2870025634765625" lon="7.7291212081909180"><ele></ele><time>2014-10-15T20:0:40Z</time></trkpt>
<trkpt lat="46.2869796752929688" lon="7.7292242050170898"><ele></ele><time>2014-10-15T20:0:43Z</time></trkpt>
<trkpt lat="46.2869644165039062" lon="7.7293295860290527"><ele></ele><time>2014-10-15T20:0:46Z</time></trkpt>
<trkpt lat="46.2869567871093750" lon="7.7293963432312012"><ele></ele><time>2014-10-15T20:0:49Z</time></trkpt>
<trkpt lat="46.2869491577148438" lon="7.7295079231262207"><ele></ele><time>2014-10-15T20:0:52Z</time></trkpt>
<trkpt lat="46.2869377136230469" lon="7.7295789718627930"><ele></ele><time>2014-10-15T20:0:55Z</time></trkpt>
<trkpt lat="46.2869300842285156" lon="7.7296576499938965"><ele></ele><time>2014-10-15T20:0:58Z</time></trkpt>
<trkpt lat="46.2869300842285156" lon="7.7297716140747070"><ele></ele><time>2014-10-15T20:1:1Z</time></trkpt>
<trkpt lat="46.2869338989257812" lon="7.7298464775085449"><ele></ele><time>2014-10-15T20:1:4Z</time></trkpt>
<trkpt lat="46.2869338989257812" lon="7.7299222946166992"><ele></ele><time>2014-10-15T20:1:7Z</time></trkpt>
<trkpt lat="46.2869415283203125" lon="7.7300319671630859"><ele></ele><time>2014-10-15T20:1:10Z</time></trkpt>
<trkpt lat="46.2869415283203125" lon="7.7301025390625000"><ele></ele><time>2014-10-15T20:1:13Z</time></trkpt>
<trkpt lat="46.2869491577148438" lon="7.7302055358886719"><ele></ele><time>2014-10-15T20:1:16Z</time></trkpt>
<trkpt lat="46.2869491577148438" lon="7.7302770614624023"><ele></ele><time>2014-10-15T20:1:19Z</time></trkpt>
<trkpt lat="46.2869491577148438" lon="7.7303876876831055"><ele></ele><time>2014-10-15T20:1:22Z</time></trkpt>
<trkpt lat="46.2869529724121094" lon="7.7305002212524414"><ele></ele><time>2014-10-15T20:1:25Z</time></trkpt>
<trkpt lat="46.2869529724121094" lon="7.7305736541748047"><ele></ele><time>2014-10-15T20:1:28Z</time></trkpt>
<trkpt lat="46.2869529724121094" lon="7.7306818962097168"><ele></ele><time>2014-10-15T20:1:31Z</time></trkpt>
<trkpt lat="46.2869606018066406" lon="7.7307939529418945"><ele></ele><time>2014-10-15T20:1:34Z</time></trkpt>
<trkpt lat="46.2869682312011719" lon="7.7308721542358398"><ele></ele><time>2014-10-15T20:1:37Z</time></trkpt>
<trkpt lat="46.2869796752929688" lon="7.7309465408325195"><ele></ele><time>2014-10-15T20:1:40Z</time></trkpt>
<trkpt lat="46.2869987487792969" lon="7.7310590744018555"><ele></ele><time>2014-10-15T20:1:43Z</time></trkpt>
<trkpt lat="46.2870216369628906" lon="7.7311816215515137"><ele></ele><time>2014-10-15T20:1:46Z</time></trkpt>
<trkpt lat="46.2870292663574219" lon="7.7312722206115723"><ele></ele><time>2014-10-15T20:1:49Z</time></trkpt>
<trkpt lat="46.2870178222656250" lon="7.7314081192016602"><ele></ele><time>2014-10-15T20:1:52Z</time></trkpt>
<trkpt lat="46.2869796752929688" lon="7.7314667701721191"><ele></ele><time>2014-10-15T20:1:55Z</time></trkpt>
<trkpt lat="46.2868995666503906" lon="7.7314119338989258"><ele></ele><time>2014-10-15T20:1:58Z</time></trkpt>
<trkpt lat="46.2868652343750000" lon="7.7313313484191895"><ele></ele><time>2014-10-15T20:2:1Z</time></trkpt>
<trkpt lat="46.2868309020996094" lon="7.7312030792236328"><ele></ele><time>2014-10-15T20:2:4Z</time></trkpt>
<trkpt lat="46.2867927551269531" lon="7.7310838699340820"><ele></ele><time>2014-10-15T20:2:7Z</time></trkpt>
<trkpt lat="46.2867660522460938" lon="7.7310080528259277"><ele></ele><time>2014-10-15T20:2:10Z</time></trkpt>
<trkpt lat="46.2867240905761719" lon="7.7308983802795410"><ele></ele><time>2014-10-15T20:2:13Z</time></trkpt>
<trkpt lat="46.2866783142089844" lon="7.7308425903320312"><ele></ele><time>2014-10-15T20:2:16Z</time></trkpt>
<trkpt lat="46.2866287231445312" lon="7.7307891845703125"><ele></ele><time>2014-10-15T20:2:19Z</time></trkpt>
<trkpt lat="46.2865638732910156" lon="7.7307109832763672"><ele></ele><time>2014-10-15T20:2:22Z</time></trkpt>
<trkpt lat="46.2864952087402344" lon="7.7306370735168457"><ele></ele><time>2014-10-15T20:2:25Z</time></trkpt>
<trkpt lat="46.2864532470703125" lon="7.7305855751037598"><ele></ele><time>2014-10-15T20:2:28Z</time></trkpt>
<trkpt lat="46.2863960266113281" lon="7.7305145263671875"><ele></ele><time>2014-10-15T20:2:31Z</time></trkpt>
<trkpt lat="46.2863388061523438" lon="7.7304420471191406"><ele></ele><time>2014-10-15T20:2:34Z</time></trkpt>
<trkpt lat="46.2862930297851562" lon="7.7303690910339355"><ele></ele><time>2014-10-15T20:2:37Z</time></trkpt>
<trkpt lat="46.2862396240234375" lon="7.7303023338317871"><ele></ele><time>2014-10-15T20:2:40Z</time></trkpt>
<trkpt lat="46.2862014770507812" lon="7.7302513122558594"><ele></ele><time>2014-10-15T20:2:43Z</time></trkpt>
<trkpt lat="46.2861633300781250" lon="7.7302141189575195"><ele></ele><time>2014-10-15T20:2:46Z</time></trkpt>
<trkpt lat="46.2861251831054688" lon="7.7301688194274902"><ele></ele><time>2014-10-15T20:2:49Z</time></trkpt>
<trkpt lat="46.2860641479492188" lon="7.7301030158996582"><ele></ele><time>2014-10-15T20:2:52Z</time></trkpt>
<trkpt lat="46.2860260009765625" lon="7.7300629615783691"><ele></ele><time>2014-10-15T20:2:55Z</time></trkpt>
<trkpt lat="46.2859916687011719" lon="7.7300267219543457"><ele></ele><time>2014-10-15T20:2:58Z</time></trkpt>
<trkpt lat="46.2859458923339844" lon="7.7299685478210449"><ele></ele><time>2014-10-15T20:3:1Z</time></trkpt>
<trkpt lat="46.2858924865722656" lon="7.7298998832702637"><ele></ele><time>2014-10-15T20:3:4Z</time></trkpt>
<trkpt lat="46.2858352661132812" lon="7.7298417091369629"><ele></ele><time>2014-10-15T20:3:7Z</time></trkpt>
<trkpt lat="46.2857742309570312" lon="7.7297854423522949"><ele></ele><time>2014-10-15T20:3:10Z</time></trkpt>
<trkpt lat="46.2857398986816406" lon="7.7297458648681641"><ele></ele><time>2014-10-15T20:3:13Z</time></trkpt>
<trkpt lat="46.2857017517089844" lon="7.7297115325927734"><ele></ele><time>2014-10-15T20:3:16Z</time></trkpt>
<trkpt lat="46.2856445312500000" lon="7.7296524047851562"><ele></ele><time>2014-10-15T20:3:19Z</time></trkpt>
<trkpt lat="46.2856140136718750" lon="7.7296175956726074"><ele></ele><time>2014-10-15T20:3:22Z</time></trkpt>
<trkpt lat="46.2855567932128906" lon="7.7295513153076172"><ele></ele><time>2014-10-15T20:3:25Z</time></trkpt>
<trkpt lat="46.2855224609375000" lon="7.7295083999633789"><ele></ele><time>2014-10-15T20:3:28Z</time></trkpt>
<trkpt lat="46.2854843139648438" lon="7.7294616699218750"><ele></ele><time>2014-10-15T20:3:31Z</time></trkpt>
<trkpt lat="46.2854309082031250" lon="7.7293930053710938"><ele></ele><time>2014-10-15T20:3:34Z</time></trkpt>
<trkpt lat="46.2853851318359375" lon="7.7293119430541992"><ele></ele><time>2014-10-15T20:3:37Z</time></trkpt>
<trkpt lat="46.2853507995605469" lon="7.7292566299438477"><ele></ele><time>2014-10-15T20:3:40Z</time></trkpt>
<trkpt lat="46.2852973937988281" lon="7.7291598320007324"><ele></ele><time>2014-10-15T20:3:43Z</time></trkpt>
<trkpt lat="46.2852401733398438" lon="7.7290678024291992"><ele></ele><time>2014-10-15T20:3:46Z</time></trkpt>
<trkpt lat="46.2852058410644531" lon="7.7290167808532715"><ele></ele><time>2014-10-15T20:3:49Z</time></trkpt>
<trkpt lat="46.2851829528808594" lon="7.7289681434631348"><ele></ele><time>2014-10-15T20:3:52Z</time></trkpt>
<trkpt lat="46.2851486206054688" lon="7.7289443016052246"><ele></ele><time>2014-10-15T20:3:55Z</time></trkpt>
<trkpt lat="46.2851066589355469" lon="7.7289643287658691"><ele></ele><time>2014-10-15T20:3:58Z</time></trkpt>
<trkpt lat="46.2850875854492188" lon="7.7290287017822266"><ele></ele><time>2014-10-15T20:4:1Z</time></trkpt>
<trkpt lat="46.2850914001464844" lon="7.7291469573974609"><ele></ele><time>2014-10-15T20:4:4Z</time></trkpt>
<trkpt lat="46.2851104736328125" lon="7.7292585372924805"><ele></ele><time>2014-10-15T20:4:7Z</time></trkpt>
<trkpt lat="46.2851333618164062" lon="7.7293300628662109"><ele></ele><time>2014-10-15T20:4:10Z</time></trkpt>
<trkpt lat="46.2851486206054688" lon="7.7293996810913086"><ele></ele><time>2014-10-15T20:4:13Z</time></trkpt>
<trkpt lat="46.2851638793945312" lon="7.7294659614562988"><ele></ele><time>2014-10-15T20:4:16Z</time></trkpt>
<trkpt lat="46.2851791381835938" lon="7.7295651435852051"><ele></ele><time>2014-10-15T20:4:19Z</time></trkpt>
<trkpt lat="46.2851867675781250" lon="7.7296676635742188"><ele></ele><time>2014-10-15T20:4:22Z</time></trkpt>
<trkpt lat="46.2851829528808594" lon="7.7297353744506836"><ele></ele><time>2014-10-15T20:4:25Z</time></trkpt>
<trkpt lat="46.2851791381835938" lon="7.7298054695129395"><ele></ele><time>2014-10-15T20:4:28Z</time></trkpt>
<trkpt lat="46.2851676940917969" lon="7.7299084663391113"><ele></ele><time>2014-10-15T20:4:31Z</time></trkpt>
<trkpt lat="46.2851524353027344" lon="7.7300133705139160"><ele></ele><time>2014-10-15T20:4:34Z</time></trkpt>
<trkpt lat="46.2851448059082031" lon="7.7301173210144043"><ele></ele><time>2014-10-15T20:4:37Z</time></trkpt>
<trkpt lat="46.2851333618164062" lon="7.7302160263061523"><ele></ele><time>2014-10-15T20:4:40Z</time></trkpt>
<trkpt lat="46.2851257324218750" lon="7.7303080558776855"><ele></ele><time>2014-10-15T20:4:43Z</time></trkpt>
<trkpt lat="46.2851219177246094" lon="7.7304048538208008"><ele></ele><time>2014-10-15T20:4:46Z</time></trkpt>
<trkpt lat="46.2851257324218750" lon="7.7304730415344238"><ele></ele><time>2014-10-15T20:4:49Z</time></trkpt>
<trkpt lat="46.2851219177246094" lon="7.7305741310119629"><ele></ele><time>2014-10-15T20:4:52Z</time></trkpt>
<trkpt lat="46.2851142883300781" lon="7.7306771278381348"><ele></ele><time>2014-10-15T20:4:55Z</time></trkpt>
<trkpt lat="46.2851104736328125" lon="7.7307772636413574"><ele></ele><time>2014-10-15T20:4:58Z</time></trkpt>
<trkpt lat="46.2851028442382812" lon="7.7308759689331055"><ele></ele><time>2014-10-15T20:5:1Z</time></trkpt>
<trkpt lat="46.2850875854492188" lon="7.7309803962707520"><ele></ele><time>2014-10-15T20:5:4Z</time></trkpt>
<trkpt lat="46.2850761413574219" lon="7.7310490608215332"><ele></ele><time>2014-10-15T20:5:7Z</time></trkpt>
<trkpt lat="46.2850723266601562" lon="7.7311158180236816"><ele></ele><time>2014-10-15T20:5:10Z</time></trkpt>
<trkpt lat="46.2850799560546875" lon="7.7312169075012207"><ele></ele><time>2014-10-15T20:5:13Z</time></trkpt>
<trkpt lat="46.2850799560546875" lon="7.7312855720520020"><ele></ele><time>2014-10-15T20:5:16Z</time></trkpt>
<trkpt lat="46.2850723266601562" lon="7.7313547134399414"><ele></ele><time>2014-10-15T20:5:19Z</time></trkpt>
<trkpt lat="46.2850608825683594" lon="7.7314243316650391"><ele></ele><time>2014-10-15T20:5:22Z</time></trkpt>
<trkpt lat="46.2850418090820312" lon="7.7315201759338379"><ele></ele><time>2014-10-15T20:5:25Z</time></trkpt>
<trkpt lat="46.2850456237792969" lon="7.7315793037414551"><ele></ele><time>2014-10-15T20:5:28Z</time></trkpt>
<trkpt lat="46.2850723266601562" lon="7.7316622734069824"><ele></ele><time>2014-10-15T20:5:31Z</time></trkpt>
<trkpt lat="46.2850646972656250" lon="7.7317152023315430"><ele></ele><time>2014-10-15T20:5:34Z</time></trkpt>
<trkpt lat="46.2850570678710938" lon="7.7317557334899902"><ele></ele><time>2014-10-15T20:5:37Z</time></trkpt>
<trkpt lat="46.2850532531738281" lon="7.7318258285522461"><ele></ele><time>2014-10-15T20:5:40Z</time></trkpt>
<trkpt lat="46.2850570678710938" lon="7.7319192886352539"><ele></ele><time>2014-10-15T20:5:43Z</time></trkpt>
<trkpt lat="46.2850532531738281" lon="7.7320194244384766"><ele></ele><time>2014-10-15T20:5:46Z</time></trkpt>
<trkpt lat="46.2850532531738281" lon="7.7321143150329590"><ele></ele><time>2014-10-15T20:5:49Z</time></trkpt>
<trkpt lat="46.2850532531738281" lon="7.7322125434875488"><ele></ele><time>2014-10-15T20:5:52Z</time></trkpt>
<trkpt lat="46.2850456237792969" lon="7.7322726249694824"><ele></ele><time>2014-10-15T20:5:55Z</time></trkpt>
<trkpt lat="46.2850532531738281" lon="7.7323570251464844"><ele></ele><time>2014-10-15T20:5:58Z</time></trkpt>
<trkpt lat="46.2850570678710938" lon="7.7324113845825195"><ele></ele><time>2014-10-15T20:6:1Z</time></trkpt>
<trkpt lat="46.2850685119628906" lon="7.7325038909912109"><ele></ele><time>2014-10-15T20:6:4Z</time></trkpt>
<trkpt lat="46.2850685119628906" lon="7.7326116561889648"><ele></ele><time>2014-10-15T20:6:7Z</time></trkpt>
<trkpt lat="46.2850952148437500" lon="7.7327070236206055"><ele></ele><time>2014-10-15T20:6:10Z</time></trkpt>
<trkpt lat="46.2851448059082031" lon="7.7327771186828613"><ele></ele><time>2014-10-15T20:6:13Z</time></trkpt>
<trkpt lat="46.2851638793945312" lon="7.7328314781188965"><ele></ele><time>2014-10-15T20:6:16Z</time></trkpt>
<trkpt lat="46.2852020263671875" lon="7.7329039573669434"><ele></ele><time>2014-10-15T20:6:19Z</time></trkpt>
<trkpt lat="46.2852287292480469" lon="7.7329368591308594"><ele></ele><time>2014-10-15T20:6:22Z</time></trkpt>
<trkpt lat="46.2852401733398438" lon="7.7329821586608887"><ele></ele><time>2014-10-15T20:6:25Z</time></trkpt>
<trkpt lat="46.2852783203125000" lon="7.7330446243286133"><ele></ele><time>2014-10-15T20:6:28Z</time></trkpt>
<trkpt lat="46.2853279113769531" lon="7.7331228256225586"><ele></ele><time>2014-10-15T20:6:31Z</time></trkpt>
<trkpt lat="46.2853698730468750" lon="7.7332272529602051"><ele></ele><time>2014-10-15T20:6:34Z</time></trkpt>
<trkpt lat="46.2854156494140625" lon="7.7333226203918457"><ele></ele><time>2014-10-15T20:6:37Z</time></trkpt>
<trkpt lat="46.2854690551757812" lon="7.7333874702453613"><ele></ele><time>2014-10-15T20:6:40Z</time></trkpt>
<trkpt lat="46.2854995727539062" lon="7.7334246635437012"><ele></ele><time>2014-10-15T20:6:43Z</time></trkpt>
<trkpt lat="46.2855224609375000" lon="7.7335109710693359"><ele></ele><time>2014-10-15T20:6:46Z</time></trkpt>
<trkpt lat="46.2855491638183594" lon="7.7336101531982422"><ele></ele><time>2014-10-15T20:6:49Z</time></trkpt>
<trkpt lat="46.2855682373046875" lon="7.7337379455566406"><ele></ele><time>2014-10-15T20:6:52Z</time></trkpt>
<trkpt lat="46.2855720520019531" lon="7.7338175773620605"><ele></ele><time>2014-10-15T20:6:55Z</time></trkpt>
<trkpt lat="46.2856063842773438" lon="7.7339086532592773"><ele></ele><time>2014-10-15T20:6:58Z</time></trkpt>
<trkpt lat="46.2856292724609375" lon="7.7340035438537598"><ele></ele><time>2014-10-15T20:7:1Z</time></trkpt>
<trkpt lat="46.2856445312500000" lon="7.7340898513793945"><ele></ele><time>2014-10-15T20:7:4Z</time></trkpt>
<trkpt lat="46.2856407165527344" lon="7.7341384887695312"><ele></ele><time>2014-10-15T20:7:7Z</time></trkpt>
<trkpt lat="46.2856330871582031" lon="7.7342023849487305"><ele></ele><time>2014-10-15T20:7:10Z</time></trkpt>
<trkpt lat="46.2856292724609375" lon="7.7342391014099121"><ele></ele><time>2014-10-15T20:7:13Z</time></trkpt>
<trkpt lat="46.2856140136718750" lon="7.7342782020568848"><ele></ele><time>2014-10-15T20:7:16Z</time></trkpt>
<trkpt lat="46.2855949401855469" lon="7.7343258857727051"><ele></ele><time>2014-10-15T20:7:19Z</time></trkpt>
<trkpt lat="46.2855758666992188" lon="7.7344007492065430"><ele></ele><time>2014-10-15T20:7:22Z</time></trkpt>
<trkpt lat="46.2855567932128906" lon="7.7344470024108887"><ele></ele><time>2014-10-15T20:7:25Z</time></trkpt>
<trkpt lat="46.2855262756347656" lon="7.7345218658447266"><ele></ele><time>2014-10-15T20:7:28Z</time></trkpt>
<trkpt lat="46.2854995727539062" lon="7.7346124649047852"><ele></ele><time>2014-10-15T20:7:31Z</time></trkpt>
<trkpt lat="46.2854576110839844" lon="7.7347559928894043"><ele></ele><time>2014-10-15T20:7:34Z</time></trkpt>
<trkpt lat="46.2854576110839844" lon="7.7348718643188477"><ele></ele><time>2014-10-15T20:7:37Z</time></trkpt>
<trkpt lat="46.2854461669921875" lon="7.7349710464477539"><ele></ele><time>2014-10-15T20:7:40Z</time></trkpt>
<trkpt lat="46.2854118347167969" lon="7.7351026535034180"><ele></ele><time>2014-10-15T20:7:43Z</time></trkpt>
<trkpt lat="46.2853889465332031" lon="7.7351651191711426"><ele></ele><time>2014-10-15T20:7:46Z</time></trkpt>
<trkpt lat="46.2853584289550781" lon="7.7352390289306641"><ele></ele><time>2014-10-15T20:7:49Z</time></trkpt>
<trkpt lat="46.2853126525878906" lon="7.7353134155273438"><ele></ele><time>2014-10-15T20:7:52Z</time></trkpt>
<trkpt lat="46.2852897644042969" lon="7.7353668212890625"><ele></ele><time>2014-10-15T20:7:55Z</time></trkpt>
<trkpt lat="46.2852706909179688" lon="7.7354302406311035"><ele></ele><time>2014-10-15T20:7:58Z</time></trkpt>
<trkpt lat="46.2852706909179688" lon="7.7355442047119141"><ele></ele><time>2014-10-15T20:8:1Z</time></trkpt>
<trkpt lat="46.2852821350097656" lon="7.7356033325195312"><ele></ele><time>2014-10-15T20:8:4Z</time></trkpt>
<trkpt lat="46.2852973937988281" lon="7.7356967926025391"><ele></ele><time>2014-10-15T20:8:7Z</time></trkpt>
<trkpt lat="46.2853012084960938" lon="7.7357573509216309"><ele></ele><time>2014-10-15T20:8:10Z</time></trkpt>
<trkpt lat="46.2852973937988281" lon="7.7358174324035645"><ele></ele><time>2014-10-15T20:8:13Z</time></trkpt>
<trkpt lat="46.2853012084960938" lon="7.7359032630920410"><ele></ele><time>2014-10-15T20:8:16Z</time></trkpt>
<trkpt lat="46.2853050231933594" lon="7.7359690666198730"><ele></ele><time>2014-10-15T20:8:19Z</time></trkpt>
<trkpt lat="46.2852973937988281" lon="7.7360715866088867"><ele></ele><time>2014-10-15T20:8:22Z</time></trkpt>
<trkpt lat="46.2852935791015625" lon="7.7361364364624023"><ele></ele><time>2014-10-15T20:8:25Z</time></trkpt>
<trkpt lat="46.2853012084960938" lon="7.7362313270568848"><ele></ele><time>2014-10-15T20:8:28Z</time></trkpt>
<trkpt lat="46.2852935791015625" lon="7.7362937927246094"><ele></ele><time>2014-10-15T20:8:31Z</time></trkpt>
<trkpt lat="46.2852706909179688" lon="7.7363538742065430"><ele></ele><time>2014-10-15T20:8:34Z</time></trkpt>
<trkpt lat="46.2852745056152344" lon="7.7363929748535156"><ele></ele><time>2014-10-15T20:8:37Z</time></trkpt>
<trkpt lat="46.2852706909179688" lon="7.7364482879638672"><ele></ele><time>2014-10-15T20:8:40Z</time></trkpt>
<trkpt lat="46.2852554321289062" lon="7.7364873886108398"><ele></ele><time>2014-10-15T20:8:43Z</time></trkpt>
<trkpt lat="46.2852363586425781" lon="7.7365570068359375"><ele></ele><time>2014-10-15T20:8:46Z</time></trkpt>
<trkpt lat="46.2852134704589844" lon="7.7366285324096680"><ele></ele><time>2014-10-15T20:8:49Z</time></trkpt>
<trkpt lat="46.2852058410644531" lon="7.7366738319396973"><ele></ele><time>2014-10-15T20:8:52Z</time></trkpt>
<trkpt lat="46.2851905822753906" lon="7.7367157936096191"><ele></ele><time>2014-10-15T20:8:55Z</time></trkpt>
<trkpt lat="46.2851753234863281" lon="7.7367663383483887"><ele></ele><time>2014-10-15T20:8:58Z</time></trkpt>
<trkpt lat="46.2851486206054688" lon="7.7368664741516113"><ele></ele><time>2014-10-15T20:9:1Z</time></trkpt>
<trkpt lat="46.2851257324218750" lon="7.7369289398193359"><ele></ele><time>2014-10-15T20:9:4Z</time></trkpt>
<trkpt lat="46.2851028442382812" lon="7.7370266914367676"><ele></ele><time>2014-10-15T20:9:7Z</time></trkpt>
<trkpt lat="46.2850875854492188" lon="7.7371087074279785"><ele></ele><time>2014-10-15T20:9:10Z</time></trkpt>
<trkpt lat="46.2850837707519531" lon="7.7371616363525391"><ele></ele><time>2014-10-15T20:9:13Z</time></trkpt>
<trkpt lat="46.2850685119628906" lon="7.7372360229492188"><ele></ele><time>2014-10-15T20:9:16Z</time></trkpt>
<trkpt lat="46.2850685119628906" lon="7.7372803688049316"><ele></ele><time>2014-10-15T20:9:19Z</time></trkpt>
<trkpt lat="46.2850723266601562" lon="7.7373313903808594"><ele></ele><time>2014-10-15T20:9:22Z</time></trkpt>
<trkpt lat="46.2850799560546875" lon="7.7374138832092285"><ele></ele><time>2014-10-15T20:9:25Z</time></trkpt>
<trkpt lat="46.2850952148437500" lon="7.7375206947326660"><ele></ele><time>2014-10-15T20:9:28Z</time></trkpt>
<trkpt lat="46.2851142883300781" lon="7.7376637458801270"><ele></ele><time>2014-10-15T20:9:31Z</time></trkpt>
<trkpt lat="46.2851142883300781" lon="7.7377552986145020"><ele></ele><time>2014-10-15T20:9:34Z</time></trkpt>
<trkpt lat="46.2851104736328125" lon="7.7378745079040527"><ele></ele><time>2014-10-15T20:9:37Z</time></trkpt>
<trkpt lat="46.2851066589355469" lon="7.7379460334777832"><ele></ele><time>2014-10-15T20:9:40Z</time></trkpt>
<trkpt lat="46.2850990295410156" lon="7.7380437850952148"><ele></ele><time>2014-10-15T20:9:43Z</time></trkpt>
<trkpt lat="46.2850875854492188" lon="7.7380995750427246"><ele></ele><time>2014-10-15T20:9:46Z</time></trkpt>
<trkpt lat="46.2850799560546875" lon="7.7381525039672852"><ele></ele><time>2014-10-15T20:9:49Z</time></trkpt>
<trkpt lat="46.2850685119628906" lon="7.7382082939147949"><ele></ele><time>2014-10-15T20:9:52Z</time></trkpt>
<trkpt lat="46.2850570678710938" lon="7.7382998466491699"><ele></ele><time>2014-10-15T20:9:55Z</time></trkpt>
<trkpt lat="46.2850418090820312" lon="7.7383937835693359"><ele></ele><time>2014-10-15T20:9:58Z</time></trkpt>
<trkpt lat="46.2850151062011719" lon="7.7384405136108398"><ele></ele><time>2014-10-15T20:10:1Z</time></trkpt>
<trkpt lat="46.2849884033203125" lon="7.7385082244873047"><ele></ele><time>2014-10-15T20:10:4Z</time></trkpt>
<trkpt lat="46.2849960327148438" lon="7.7385683059692383"><ele></ele><time>2014-10-15T20:10:7Z</time></trkpt>
<trkpt lat="46.2850074768066406" lon="7.7386684417724609"><ele></ele><time>2014-10-15T20:10:10Z</time></trkpt>
<trkpt lat="46.2849998474121094" lon="7.7387199401855469"><ele></ele><time>2014-10-15T20:10:13Z</time></trkpt>
<trkpt lat="46.2849998474121094" lon="7.7387723922729492"><ele></ele><time>2014-10-15T20:10:16Z</time></trkpt>
<trkpt lat="46.2849922180175781" lon="7.7388367652893066"><ele></ele><time>2014-10-15T20:10:19Z</time></trkpt>
<trkpt lat="46.2849617004394531" lon="7.7389206886291504"><ele></ele><time>2014-10-15T20:10:22Z</time></trkpt>
<trkpt lat="46.2849426269531250" lon="7.7389726638793945"><ele></ele><time>2014-10-15T20:10:25Z</time></trkpt>
<trkpt lat="46.2849273681640625" lon="7.7390284538269043"><ele></ele><time>2014-10-15T20:10:28Z</time></trkpt>
<trkpt lat="46.2849121093750000" lon="7.7391142845153809"><ele></ele><time>2014-10-15T20:10:31Z</time></trkpt>
<trkpt lat="46.2848930358886719" lon="7.7391691207885742"><ele></ele><time>2014-10-15T20:10:34Z</time></trkpt>
<trkpt lat="46.2848663330078125" lon="7.7392573356628418"><ele></ele><time>2014-10-15T20:10:37Z</time></trkpt>
<trkpt lat="46.2848510742187500" lon="7.7393250465393066"><ele></ele><time>2014-10-15T20:10:40Z</time></trkpt>
<trkpt lat="46.2848472595214844" lon="7.7394003868103027"><ele></ele><time>2014-10-15T20:10:43Z</time></trkpt>
<trkpt lat="46.2848281860351562" lon="7.7395229339599609"><ele></ele><time>2014-10-15T20:10:46Z</time></trkpt>
<trkpt lat="46.2848243713378906" lon="7.7396430969238281"><ele></ele><time>2014-10-15T20:10:49Z</time></trkpt>
<trkpt lat="46.2848243713378906" lon="7.7397232055664062"><ele></ele><time>2014-10-15T20:10:52Z</time></trkpt>
<trkpt lat="46.2848167419433594" lon="7.7398071289062500"><ele></ele><time>2014-10-15T20:10:55Z</time></trkpt>
<trkpt lat="46.2847976684570312" lon="7.7399349212646484"><ele></ele><time>2014-10-15T20:10:58Z</time></trkpt>
<trkpt lat="46.2847938537597656" lon="7.7399945259094238"><ele></ele><time>2014-10-15T20:11:1Z</time></trkpt>
<trkpt lat="46.2847862243652344" lon="7.7400736808776855"><ele></ele><time>2014-10-15T20:11:4Z</time></trkpt>
<trkpt lat="46.2847785949707031" lon="7.7401337623596191"><ele></ele><time>2014-10-15T20:11:7Z</time></trkpt>
<trkpt lat="46.2847747802734375" lon="7.7401967048645020"><ele></ele><time>2014-10-15T20:11:10Z</time></trkpt>
<trkpt lat="46.2847900390625000" lon="7.7403044700622559"><ele></ele><time>2014-10-15T20:11:13Z</time></trkpt>
<trkpt lat="46.2847938537597656" lon="7.7404065132141113"><ele></ele><time>2014-10-15T20:11:16Z</time></trkpt>
<trkpt lat="46.2848052978515625" lon="7.7404994964599609"><ele></ele><time>2014-10-15T20:11:19Z</time></trkpt>
<trkpt lat="46.2848052978515625" lon="7.7405643463134766"><ele></ele><time>2014-10-15T20:11:22Z</time></trkpt>
<trkpt lat="46.2848091125488281" lon="7.7406587600708008"><ele></ele><time>2014-10-15T20:11:25Z</time></trkpt>
<trkpt lat="46.2848167419433594" lon="7.7407245635986328"><ele></ele><time>2014-10-15T20:11:28Z</time></trkpt>
<trkpt lat="46.2848358154296875" lon="7.7408199310302734"><ele></ele><time>2014-10-15T20:11:31Z</time></trkpt>
<trkpt lat="46.2848320007324219" lon="7.7408761978149414"><ele></ele><time>2014-10-15T20:11:34Z</time></trkpt>
<trkpt lat="46.2848548889160156" lon="7.7409715652465820"><ele></ele><time>2014-10-15T20:11:37Z</time></trkpt>
<trkpt lat="46.2848815917968750" lon="7.7410373687744141"><ele></ele><time>2014-10-15T20:11:40Z</time></trkpt>
<trkpt lat="46.2849044799804688" lon="7.7411513328552246"><ele></ele><time>2014-10-15T20:11:43Z</time></trkpt>
<trkpt lat="46.2849159240722656" lon="7.7412648200988770"><ele></ele><time>2014-10-15T20:11:46Z</time></trkpt>
<trkpt lat="46.2849426269531250" lon="7.7413430213928223"><ele></ele><time>2014-10-15T20:11:49Z</time></trkpt>
<trkpt lat="46.2849731445312500" lon="7.7414431571960449"><ele></ele><time>2014-10-15T20:11:52Z</time></trkpt>
<trkpt lat="46.2849960327148438" lon="7.7414984703063965"><ele></ele><time>2014-10-15T20:11:55Z</time></trkpt>
<trkpt lat="46.2850112915039062" lon="7.7415819168090820"><ele></ele><time>2014-10-15T20:11:58Z</time></trkpt>
<trkpt lat="46.2850456237792969" lon="7.7416553497314453"><ele></ele><time>2014-10-15T20:12:1Z</time></trkpt>
<trkpt lat="46.2850532531738281" lon="7.7417421340942383"><ele></ele><time>2014-10-15T20:12:4Z</time></trkpt>
<trkpt lat="46.2850532531738281" lon="7.7418079376220703"><ele></ele><time>2014-10-15T20:12:7Z</time></trkpt>
<trkpt lat="46.2850494384765625" lon="7.7419095039367676"><ele></ele><time>2014-10-15T20:12:10Z</time></trkpt>
<trkpt lat="46.2850494384765625" lon="7.7419700622558594"><ele></ele><time>2014-10-15T20:12:13Z</time></trkpt>
<trkpt lat="46.2850456237792969" lon="7.7420296669006348"><ele></ele><time>2014-10-15T20:12:16Z</time></trkpt>
<trkpt lat="46.2850418090820312" lon="7.7421169281005859"><ele></ele><time>2014-10-15T20:12:19Z</time></trkpt>
<trkpt lat="46.2850494384765625" lon="7.7421712875366211"><ele></ele><time>2014-10-15T20:12:22Z</time></trkpt>
<trkpt lat="46.2850570678710938" lon="7.7422299385070801"><ele></ele><time>2014-10-15T20:12:25Z</time></trkpt>
<trkpt lat="46.2850570678710938" lon="7.7422814369201660"><ele></ele><time>2014-10-15T20:12:28Z</time></trkpt>
<trkpt lat="46.2850532531738281" lon="7.7423543930053711"><ele></ele><time>2014-10-15T20:12:31Z</time></trkpt>
<trkpt lat="46.2850570678710938" lon="7.7424130439758301"><ele></ele><time>2014-10-15T20:12:34Z</time></trkpt>
<trkpt lat="46.2850608825683594" lon="7.7425146102905273"><ele></ele><time>2014-10-15T20:12:37Z</time></trkpt>
<trkpt lat="46.2850532531738281" lon="7.7426099777221680"><ele></ele><time>2014-10-15T20:12:40Z</time></trkpt>
<trkpt lat="46.2850570678710938" lon="7.7426958084106445"><ele></ele><time>2014-10-15T20:12:43Z</time></trkpt>
<trkpt lat="46.2850685119628906" lon="7.7427320480346680"><ele></ele><time>2014-10-15T20:12:46Z</time></trkpt>
<trkpt lat="46.2850761413574219" lon="7.7427816390991211"><ele></ele><time>2014-10-15T20:12:49Z</time></trkpt>
<trkpt lat="46.2850914001464844" lon="7.7428460121154785"><ele></ele><time>2014-10-15T20:12:52Z</time></trkpt>
<trkpt lat="46.2851142883300781" lon="7.7429351806640625"><ele></ele><time>2014-10-15T20:12:55Z</time></trkpt>
<trkpt lat="46.2851409912109375" lon="7.7429885864257812"><ele></ele><time>2014-10-15T20:12:58Z</time></trkpt>
<trkpt lat="46.2851600646972656" lon="7.7430844306945801"><ele></ele><time>2014-10-15T20:13:1Z</time></trkpt>
<trkpt lat="46.2851829528808594" lon="7.7431721687316895"><ele></ele><time>2014-10-15T20:13:4Z</time></trkpt>
<trkpt lat="46.2852058410644531" lon="7.7432360649108887"><ele></ele><time>2014-10-15T20:13:7Z</time></trkpt>
<trkpt lat="46.2852516174316406" lon="7.7433142662048340"><ele></ele><time>2014-10-15T20:13:10Z</time></trkpt>
<trkpt lat="46.2852706909179688" lon="7.7433724403381348"><ele></ele><time>2014-10-15T20:13:13Z</time></trkpt>
<trkpt lat="46.2852821350097656" lon="7.7434720993041992"><ele></ele><time>2014-10-15T20:13:16Z</time></trkpt>
<trkpt lat="46.2852630615234375" lon="7.7435631752014160"><ele></ele><time>2014-10-15T20:13:19Z</time></trkpt>
<trkpt lat="46.2852134704589844" lon="7.7435131072998047"><ele></ele><time>2014-10-15T20:13:22Z</time></trkpt>
<trkpt lat="46.2851791381835938" lon="7.7434601783752441"><ele></ele><time>2014-10-15T20:13:25Z</time></trkpt>
<trkpt lat="46.2851371765136719" lon="7.7434148788452148"><ele></ele><time>2014-10-15T20:13:28Z</time></trkpt>
<trkpt lat="46.2850875854492188" lon="7.7433791160583496"><ele></ele><time>2014-10-15T20:13:31Z</time></trkpt>
<trkpt lat="46.2850608825683594" lon="7.7433295249938965"><ele></ele><time>2014-10-15T20:13:34Z</time></trkpt>
<trkpt lat="46.2850494384765625" lon="7.7432417869567871"><ele></ele><time>2014-10-15T20:13:37Z</time></trkpt>
<trkpt lat="46.2850379943847656" lon="7.7431826591491699"><ele></ele><time>2014-10-15T20:13:40Z</time></trkpt>
<trkpt lat="46.2850303649902344" lon="7.7430953979492188"><ele></ele><time>2014-10-15T20:13:43Z</time></trkpt>
<trkpt lat="46.2850189208984375" lon="7.7430338859558105"><ele></ele><time>2014-10-15T20:13:46Z</time></trkpt>
<trkpt lat="46.2849960327148438" lon="7.7429232597351074"><ele></ele><time>2014-10-15T20:13:49Z</time></trkpt>
<trkpt lat="46.2849693298339844" lon="7.7428483963012695"><ele></ele><time>2014-10-15T20:13:52Z</time></trkpt>
<trkpt lat="46.2849388122558594" lon="7.7427749633789062"><ele></ele><time>2014-10-15T20:13:55Z</time></trkpt>
<trkpt lat="46.2849044799804688" lon="7.7426719665527344"><ele></ele><time>2014-10-15T20:13:58Z</time></trkpt>
<trkpt lat="46.2848548889160156" lon="7.7425837516784668"><ele></ele><time>2014-10-15T20:14:1Z</time></trkpt>
<trkpt lat="46.2848396301269531" lon="7.7425231933593750"><ele></ele><time>2014-10-15T20:14:4Z</time></trkpt>
<trkpt lat="46.2848281860351562" lon="7.7424578666687012"><ele></ele><time>2014-10-15T20:14:7Z</time></trkpt>
<trkpt lat="46.2848091125488281" lon="7.7423672676086426"><ele></ele><time>2014-10-15T20:14:10Z</time></trkpt>
<trkpt lat="46.2847976684570312" lon="7.7423067092895508"><ele></ele><time>2014-10-15T20:14:13Z</time></trkpt>
<trkpt lat="46.2847557067871094" lon="7.7422294616699219"><ele></ele><time>2014-10-15T20:14:16Z</time></trkpt>
<trkpt lat="46.2847175598144531" lon="7.7421936988830566"><ele></ele><time>2014-10-15T20:14:19Z</time></trkpt>
<trkpt lat="46.2846755981445312" lon="7.7422051429748535"><ele></ele><time>2014-10-15T20:14:22Z</time></trkpt>
<trkpt lat="46.2846755981445312" lon="7.7422385215759277"><ele></ele><time>2014-10-15T20:14:25Z</time></trkpt>
<trkpt lat="46.2846832275390625" lon="7.7423048019409180"><ele></ele><time>2014-10-15T20:14:28Z</time></trkpt>
<trkpt lat="46.2846755981445312" lon="7.7423372268676758"><ele></ele><time>2014-10-15T20:14:31Z</time></trkpt>
<trkpt lat="46.2846603393554688" lon="7.7424082756042480"><ele></ele><time>2014-10-15T20:14:34Z</time></trkpt>
<trkpt lat="46.2846679687500000" lon="7.7424845695495605"><ele></ele><time>2014-10-15T20:14:37Z</time></trkpt>
<trkpt lat="46.2846755981445312" lon="7.7425975799560547"><ele></ele><time>2014-10-15T20:14:40Z</time></trkpt>
<trkpt lat="46.2846870422363281" lon="7.7426629066467285"><ele></ele><time>2014-10-15T20:14:43Z</time></trkpt>
<trkpt lat="46.2846908569335938" lon="7.7427134513854980"><ele></ele><time>2014-10-15T20:14:46Z</time></trkpt>
<trkpt lat="46.2846946716308594" lon="7.7427735328674316"><ele></ele><time>2014-10-15T20:14:49Z</time></trkpt>
<trkpt lat="46.2847099304199219" lon="7.7428174018859863"><ele></ele><time>2014-10-15T20:14:52Z</time></trkpt>
<trkpt lat="46.2847251892089844" lon="7.7429361343383789"><ele></ele><time>2014-10-15T20:14:55Z</time></trkpt>
<trkpt lat="46.2847290039062500" lon="7.7430243492126465"><ele></ele><time>2014-10-15T20:14:58Z</time></trkpt>
<trkpt lat="46.2847404479980469" lon="7.7430868148803711"><ele></ele><time>2014-10-15T20:15:1Z</time></trkpt>
<trkpt lat="46.2847404479980469" lon="7.7431936264038086"><ele></ele><time>2014-10-15T20:15:4Z</time></trkpt>
<trkpt lat="46.2847404479980469" lon="7.7432966232299805"><ele></ele><time>2014-10-15T20:15:7Z</time></trkpt>
<trkpt lat="46.2847328186035156" lon="7.7433719635009766"><ele></ele><time>2014-10-15T20:15:10Z</time></trkpt>
<trkpt lat="46.2847213745117188" lon="7.7434391975402832"><ele></ele><time>2014-10-15T20:15:13Z</time></trkpt>
<trkpt lat="46.2847023010253906" lon="7.7435350418090820"><ele></ele><time>2014-10-15T20:15:16Z</time></trkpt>
<trkpt lat="46.2846870422363281" lon="7.7436056137084961"><ele></ele><time>2014-10-15T20:15:19Z</time></trkpt>
<trkpt lat="46.2846679687500000" lon="7.7437119483947754"><ele></ele><time>2014-10-15T20:15:22Z</time></trkpt>
<trkpt lat="46.2846603393554688" lon="7.7437868118286133"><ele></ele><time>2014-10-15T20:15:25Z</time></trkpt>
<trkpt lat="46.2846450805664062" lon="7.7438883781433105"><ele></ele><time>2014-10-15T20:15:28Z</time></trkpt>
<trkpt lat="46.2846412658691406" lon="7.7439889907836914"><ele></ele><time>2014-10-15T20:15:31Z</time></trkpt>
<trkpt lat="46.2846450805664062" lon="7.7440485954284668"><ele></ele><time>2014-10-15T20:15:34Z</time></trkpt>
<trkpt lat="46.2846488952636719" lon="7.7441458702087402"><ele></ele><time>2014-10-15T20:15:37Z</time></trkpt>
<trkpt lat="46.2846488952636719" lon="7.7442135810852051"><ele></ele><time>2014-10-15T20:15:40Z</time></trkpt>
<trkpt lat="46.2846565246582031" lon="7.7443108558654785"><ele></ele><time>2014-10-15T20:15:43Z</time></trkpt>
<trkpt lat="46.2846832275390625" lon="7.7443723678588867"><ele></ele><time>2014-10-15T20:15:46Z</time></trkpt>
<trkpt lat="46.2847099304199219" lon="7.7444682121276855"><ele></ele><time>2014-10-15T20:15:49Z</time></trkpt>
<trkpt lat="46.2847290039062500" lon="7.7445349693298340"><ele></ele><time>2014-10-15T20:15:52Z</time></trkpt>
<trkpt lat="46.2847442626953125" lon="7.7445960044860840"><ele></ele><time>2014-10-15T20:15:55Z</time></trkpt>
<trkpt lat="46.2847442626953125" lon="7.7446827888488770"><ele></ele><time>2014-10-15T20:15:58Z</time></trkpt>
<trkpt lat="46.2847137451171875" lon="7.7447257041931152"><ele></ele><time>2014-10-15T20:16:1Z</time></trkpt>
<trkpt lat="46.2846717834472656" lon="7.7447872161865234"><ele></ele><time>2014-10-15T20:16:4Z</time></trkpt>
<trkpt lat="46.2846450805664062" lon="7.7448329925537109"><ele></ele><time>2014-10-15T20:16:7Z</time></trkpt>
<trkpt lat="46.2846336364746094" lon="7.7449531555175781"><ele></ele><time>2014-10-15T20:16:10Z</time></trkpt>
<trkpt lat="46.2846260070800781" lon="7.7450342178344727"><ele></ele><time>2014-10-15T20:16:13Z</time></trkpt>
<trkpt lat="46.2846145629882812" lon="7.7451500892639160"><ele></ele><time>2014-10-15T20:16:16Z</time></trkpt>
<trkpt lat="46.2846183776855469" lon="7.7452239990234375"><ele></ele><time>2014-10-15T20:16:19Z</time></trkpt>
<trkpt lat="46.2846260070800781" lon="7.7452898025512695"><ele></ele><time>2014-10-15T20:16:22Z</time></trkpt>
<trkpt lat="46.2846374511718750" lon="7.7453746795654297"><ele></ele><time>2014-10-15T20:16:25Z</time></trkpt>
<trkpt lat="46.2846488952636719" lon="7.7454309463500977"><ele></ele><time>2014-10-15T20:16:28Z</time></trkpt>
<trkpt lat="46.2846565246582031" lon="7.7454867362976074"><ele></ele><time>2014-10-15T20:16:31Z</time></trkpt>
<trkpt lat="46.2846603393554688" lon="7.7455325126647949"><ele></ele><time>2014-10-15T20:16:34Z</time></trkpt>
<trkpt lat="46.2846679687500000" lon="7.7455930709838867"><ele></ele><time>2014-10-15T20:16:37Z</time></trkpt>
<trkpt lat="46.2846679687500000" lon="7.7456641197204590"><ele></ele><time>2014-10-15T20:16:40Z</time></trkpt>
<trkpt lat="46.2846641540527344" lon="7.7457156181335449"><ele></ele><time>2014-10-15T20:16:43Z</time></trkpt>
<trkpt lat="46.2846412658691406" lon="7.7457804679870605"><ele></ele><time>2014-10-15T20:16:46Z</time></trkpt>
<trkpt lat="46.2846336364746094" lon="7.7458353042602539"><ele></ele><time>2014-10-15T20:16:49Z</time></trkpt>
<trkpt lat="46.2846183776855469" lon="7.7459321022033691"><ele></ele><time>2014-10-15T20:16:52Z</time></trkpt>
<trkpt lat="46.2846145629882812" lon="7.7460341453552246"><ele></ele><time>2014-10-15T20:16:55Z</time></trkpt>
<trkpt lat="46.2846221923828125" lon="7.7461605072021484"><ele></ele><time>2014-10-15T20:16:58Z</time></trkpt>
<trkpt lat="46.2846260070800781" lon="7.7462306022644043"><ele></ele><time>2014-10-15T20:17:1Z</time></trkpt>
<trkpt lat="46.2846336364746094" lon="7.7463064193725586"><ele></ele><time>2014-10-15T20:17:4Z</time></trkpt>
<trkpt lat="46.2846450805664062" lon="7.7463769912719727"><ele></ele><time>2014-10-15T20:17:7Z</time></trkpt>
<trkpt lat="46.2846603393554688" lon="7.7464408874511719"><ele></ele><time>2014-10-15T20:17:10Z</time></trkpt>
<trkpt lat="46.2846679687500000" lon="7.7465248107910156"><ele></ele><time>2014-10-15T20:17:13Z</time></trkpt>
<trkpt lat="46.2846603393554688" lon="7.7465739250183105"><ele></ele><time>2014-10-15T20:17:16Z</time></trkpt>
<trkpt lat="46.2846298217773438" lon="7.7466397285461426"><ele></ele><time>2014-10-15T20:17:19Z</time></trkpt>
<trkpt lat="46.2846107482910156" lon="7.7466812133789062"><ele></ele><time>2014-10-15T20:17:22Z</time></trkpt>
<trkpt lat="46.2846069335937500" lon="7.7467174530029297"><ele></ele><time>2014-10-15T20:17:25Z</time></trkpt>
<trkpt lat="46.2846031188964844" lon="7.7467908859252930"><ele></ele><time>2014-10-15T20:17:28Z</time></trkpt>
<trkpt lat="46.2846031188964844" lon="7.7468638420104980"><ele></ele><time>2014-10-15T20:17:31Z</time></trkpt>
<trkpt lat="46.2845954895019531" lon="7.7469115257263184"><ele></ele><time>2014-10-15T20:17:34Z</time></trkpt>
<trkpt lat="46.2845878601074219" lon="7.7469625473022461"><ele></ele><time>2014-10-15T20:17:37Z</time></trkpt>
<trkpt lat="46.2845535278320312" lon="7.7470417022705078"><ele></ele><time>2014-10-15T20:17:40Z</time></trkpt>
<trkpt lat="46.2844886779785156" lon="7.7471323013305664"><ele></ele><time>2014-10-15T20:17:43Z</time></trkpt>
<trkpt lat="46.2844238281250000" lon="7.7472262382507324"><ele></ele><time>2014-10-15T20:17:46Z</time></trkpt>
<trkpt lat="46.2843818664550781" lon="7.7472915649414062"><ele></ele><time>2014-10-15T20:17:49Z</time></trkpt>
<trkpt lat="46.2843360900878906" lon="7.7474002838134766"><ele></ele><time>2014-10-15T20:17:52Z</time></trkpt>
<trkpt lat="46.2843246459960938" lon="7.7474889755249023"><ele></ele><time>2014-10-15T20:17:55Z</time></trkpt>
<trkpt lat="46.2843208312988281" lon="7.7477474212646484"><ele></ele><time>2014-10-15T20:17:58Z</time></trkpt>
<trkpt lat="46.2843437194824219" lon="7.7480583190917969"><ele></ele><time>2014-10-15T20:18:1Z</time></trkpt>
<trkpt lat="46.2843742370605469" lon="7.7482318878173828"><ele></ele><time>2014-10-15T20:18:4Z</time></trkpt>
<trkpt lat="46.2844047546386719" lon="7.7484092712402344"><ele></ele><time>2014-10-15T20:18:7Z</time></trkpt>
<trkpt lat="46.2844238281250000" lon="7.7485957145690918"><ele></ele><time>2014-10-15T20:18:10Z</time></trkpt>
<trkpt lat="46.2844314575195312" lon="7.7487144470214844"><ele></ele><time>2014-10-15T20:18:13Z</time></trkpt>
<trkpt lat="46.2844581604003906" lon="7.7488803863525391"><ele></ele><time>2014-10-15T20:18:16Z</time></trkpt>
<trkpt lat="46.2844581604003906" lon="7.7489862442016602"><ele></ele><time>2014-10-15T20:18:19Z</time></trkpt>
<trkpt lat="46.2844467163085938" lon="7.7490663528442383"><ele></ele><time>2014-10-15T20:18:22Z</time></trkpt>
<trkpt lat="46.2844390869140625" lon="7.7491102218627930"><ele></ele><time>2014-10-15T20:18:25Z</time></trkpt>
<trkpt lat="46.2844657897949219" lon="7.7491941452026367"><ele></ele><time>2014-10-15T20:18:28Z</time></trkpt>
<trkpt lat="46.2845153808593750" lon="7.7492713928222656"><ele></ele><time>2014-10-15T20:18:31Z</time></trkpt>
<trkpt lat="46.2845458984375000" lon="7.7493638992309570"><ele></ele><time>2014-10-15T20:18:34Z</time></trkpt>
<trkpt lat="46.2845687866210938" lon="7.7494363784790039"><ele></ele><time>2014-10-15T20:18:37Z</time></trkpt>
<trkpt lat="46.2845764160156250" lon="7.7494769096374512"><ele></ele><time>2014-10-15T20:18:40Z</time></trkpt>
<trkpt lat="46.2845764160156250" lon="7.7495203018188477"><ele></ele><time>2014-10-15T20:18:43Z</time></trkpt>
<trkpt lat="46.2845802307128906" lon="7.7495789527893066"><ele></ele><time>2014-10-15T20:18:46Z</time></trkpt>
<trkpt lat="46.2845764160156250" lon="7.7496151924133301"><ele></ele><time>2014-10-15T20:18:49Z</time></trkpt>
<trkpt lat="46.2845802307128906" lon="7.7496619224548340"><ele></ele><time>2014-10-15T20:18:52Z</time></trkpt>
<trkpt lat="46.2845878601074219" lon="7.7497129440307617"><ele></ele><time>2014-10-15T20:18:55Z</time></trkpt>
<trkpt lat="46.2845764160156250" lon="7.7497758865356445"><ele></ele><time>2014-10-15T20:18:58Z</time></trkpt>
<trkpt lat="46.2845611572265625" lon="7.7498188018798828"><ele></ele><time>2014-10-15T20:19:1Z</time></trkpt>
<trkpt lat="46.2845458984375000" lon="7.7498626708984375"><ele></ele><time>2014-10-15T20:19:4Z</time></trkpt>
<trkpt lat="46.2845344543457031" lon="7.7499322891235352"><ele></ele><time>2014-10-15T20:19:7Z</time></trkpt>
<trkpt lat="46.2845230102539062" lon="7.7499847412109375"><ele></ele><time>2014-10-15T20:19:10Z</time></trkpt>
<trkpt lat="46.2845039367675781" lon="7.7500767707824707"><ele></ele><time>2014-10-15T20:19:13Z</time></trkpt>
<trkpt lat="46.2844848632812500" lon="7.7501416206359863"><ele></ele><time>2014-10-15T20:19:16Z</time></trkpt>
<trkpt lat="46.2844734191894531" lon="7.7501997947692871"><ele></ele><time>2014-10-15T20:19:19Z</time></trkpt>
<trkpt lat="46.2844581604003906" lon="7.7502489089965820"><ele></ele><time>2014-10-15T20:19:22Z</time></trkpt>
<trkpt lat="46.2844467163085938" lon="7.7503328323364258"><ele></ele><time>2014-10-15T20:19:25Z</time></trkpt>
<trkpt lat="46.2844200134277344" lon="7.7504320144653320"><ele></ele><time>2014-10-15T20:19:28Z</time></trkpt>
<trkpt lat="46.2843818664550781" lon="7.7505578994750977"><ele></ele><time>2014-10-15T20:19:31Z</time></trkpt>
<trkpt lat="46.2843589782714844" lon="7.7506875991821289"><ele></ele><time>2014-10-15T20:19:34Z</time></trkpt>
<trkpt lat="46.2843627929687500" lon="7.7507543563842773"><ele></ele><time>2014-10-15T20:19:37Z</time></trkpt>
<trkpt lat="46.2843780517578125" lon="7.7508559226989746"><ele></ele><time>2014-10-15T20:19:40Z</time></trkpt>
<trkpt lat="46.2843704223632812" lon="7.7509455680847168"><ele></ele><time>2014-10-15T20:19:43Z</time></trkpt>
<trkpt lat="46.2843551635742188" lon="7.7510371208190918"><ele></ele><time>2014-10-15T20:19:46Z</time></trkpt>
<trkpt lat="46.2843551635742188" lon="7.7510547637939453"><ele></ele><time>2014-10-15T20:19:49Z</time></trkpt>
<trkpt lat="46.2843513488769531" lon="7.7510733604431152"><ele></ele><time>2014-10-15T20:19:52Z</time></trkpt>
<trkpt lat="46.2843399047851562" lon="7.7511434555053711"><ele></ele><time>2014-10-15T20:19:55Z</time></trkpt>
<trkpt lat="46.2843360900878906" lon="7.7511959075927734"><ele></ele><time>2014-10-15T20:19:58Z</time></trkpt>
<trkpt lat="46.2843360900878906" lon="7.7512512207031250"><ele></ele><time>2014-10-15T20:20:1Z</time></trkpt>
<trkpt lat="46.2843360900878906" lon="7.7512979507446289"><ele></ele><time>2014-10-15T20:20:4Z</time></trkpt>
<trkpt lat="46.2843208312988281" lon="7.7513132095336914"><ele></ele><time>2014-10-15T20:20:7Z</time></trkpt>
<trkpt lat="46.2842826843261719" lon="7.7513642311096191"><ele></ele><time>2014-10-15T20:20:10Z</time></trkpt>
<trkpt lat="46.2842636108398438" lon="7.7514324188232422"><ele></ele><time>2014-10-15T20:20:13Z</time></trkpt>
<trkpt lat="46.2842407226562500" lon="7.7516231536865234"><ele></ele><time>2014-10-15T20:20:16Z</time></trkpt>
<trkpt lat="46.2842330932617188" lon="7.7517795562744141"><ele></ele><time>2014-10-15T20:20:19Z</time></trkpt>
<trkpt lat="46.2841796875000000" lon="7.7519917488098145"><ele></ele><time>2014-10-15T20:20:22Z</time></trkpt>
<trkpt lat="46.2841377258300781" lon="7.7520637512207031"><ele></ele><time>2014-10-15T20:20:25Z</time></trkpt>
<trkpt lat="46.2840995788574219" lon="7.7521648406982422"><ele></ele><time>2014-10-15T20:20:28Z</time></trkpt>
<trkpt lat="46.2840728759765625" lon="7.7522435188293457"><ele></ele><time>2014-10-15T20:20:31Z</time></trkpt>
<trkpt lat="46.2840461730957031" lon="7.7523922920227051"><ele></ele><time>2014-10-15T20:20:34Z</time></trkpt>
<trkpt lat="46.2840309143066406" lon="7.7524847984313965"><ele></ele><time>2014-10-15T20:20:37Z</time></trkpt>
<trkpt lat="46.2840232849121094" lon="7.7525644302368164"><ele></ele><time>2014-10-15T20:20:40Z</time></trkpt>
<trkpt lat="46.2839965820312500" lon="7.7526650428771973"><ele></ele><time>2014-10-15T20:20:43Z</time></trkpt>
<trkpt lat="46.2839584350585938" lon="7.7527685165405273"><ele></ele><time>2014-10-15T20:20:46Z</time></trkpt>
<trkpt lat="46.2839241027832031" lon="7.7528843879699707"><ele></ele><time>2014-10-15T20:20:49Z</time></trkpt>
<trkpt lat="46.2838935852050781" lon="7.7529444694519043"><ele></ele><time>2014-10-15T20:20:52Z</time></trkpt>
<trkpt lat="46.2838745117187500" lon="7.7530131340026855"><ele></ele><time>2014-10-15T20:20:55Z</time></trkpt>
<trkpt lat="46.2838516235351562" lon="7.7531275749206543"><ele></ele><time>2014-10-15T20:20:58Z</time></trkpt>
<trkpt lat="46.2838249206542969" lon="7.7532114982604980"><ele></ele><time>2014-10-15T20:21:1Z</time></trkpt>
<trkpt lat="46.2838020324707031" lon="7.7532677650451660"><ele></ele><time>2014-10-15T20:21:4Z</time></trkpt>
<trkpt lat="46.2837715148925781" lon="7.7533230781555176"><ele></ele><time>2014-10-15T20:21:7Z</time></trkpt>
<trkpt lat="46.2837409973144531" lon="7.7534270286560059"><ele></ele><time>2014-10-15T20:21:10Z</time></trkpt>
<trkpt lat="46.2837257385253906" lon="7.7535204887390137"><ele></ele><time>2014-10-15T20:21:13Z</time></trkpt>
<trkpt lat="46.2836875915527344" lon="7.7536201477050781"><ele></ele><time>2014-10-15T20:21:16Z</time></trkpt>
<trkpt lat="46.2836685180664062" lon="7.7536911964416504"><ele></ele><time>2014-10-15T20:21:19Z</time></trkpt>
<trkpt lat="46.2836418151855469" lon="7.7537841796875000"><ele></ele><time>2014-10-15T20:21:22Z</time></trkpt>
<trkpt lat="46.2835998535156250" lon="7.7539596557617188"><ele></ele><time>2014-10-15T20:21:25Z</time></trkpt>
<trkpt lat="46.2835655212402344" lon="7.7540912628173828"><ele></ele><time>2014-10-15T20:21:28Z</time></trkpt>
<trkpt lat="46.2835311889648438" lon="7.7541508674621582"><ele></ele><time>2014-10-15T20:21:31Z</time></trkpt>
<trkpt lat="46.2834777832031250" lon="7.7542567253112793"><ele></ele><time>2014-10-15T20:21:34Z</time></trkpt>
<trkpt lat="46.2834014892578125" lon="7.7543892860412598"><ele></ele><time>2014-10-15T20:21:37Z</time></trkpt>
<trkpt lat="46.2833671569824219" lon="7.7545499801635742"><ele></ele><time>2014-10-15T20:21:40Z</time></trkpt>
<trkpt lat="46.2833366394042969" lon="7.7546591758728027"><ele></ele><time>2014-10-15T20:21:43Z</time></trkpt>
<trkpt lat="46.2832794189453125" lon="7.7548441886901855"><ele></ele><time>2014-10-15T20:21:46Z</time></trkpt>
<trkpt lat="46.2832107543945312" lon="7.7550172805786133"><ele></ele><time>2014-10-15T20:21:49Z</time></trkpt>
<trkpt lat="46.2831687927246094" lon="7.7551178932189941"><ele></ele><time>2014-10-15T20:21:52Z</time></trkpt>
<trkpt lat="46.2831153869628906" lon="7.7553091049194336"><ele></ele><time>2014-10-15T20:21:55Z</time></trkpt>
<trkpt lat="46.2830619812011719" lon="7.7554845809936523"><ele></ele><time>2014-10-15T20:21:58Z</time></trkpt>
<trkpt lat="46.2830276489257812" lon="7.7556743621826172"><ele></ele><time>2014-10-15T20:22:1Z</time></trkpt>
<trkpt lat="46.2830009460449219" lon="7.7558956146240234"><ele></ele><time>2014-10-15T20:22:4Z</time></trkpt>
<trkpt lat="46.2829475402832031" lon="7.7560453414916992"><ele></ele><time>2014-10-15T20:22:7Z</time></trkpt>
<trkpt lat="46.2829399108886719" lon="7.7563133239746094"><ele></ele><time>2014-10-15T20:22:10Z</time></trkpt>
<trkpt lat="46.2829132080078125" lon="7.7565755844116211"><ele></ele><time>2014-10-15T20:22:13Z</time></trkpt>
<trkpt lat="46.2828407287597656" lon="7.7567448616027832"><ele></ele><time>2014-10-15T20:22:16Z</time></trkpt>
<trkpt lat="46.2827796936035156" lon="7.7568917274475098"><ele></ele><time>2014-10-15T20:22:19Z</time></trkpt>
<trkpt lat="46.2826728820800781" lon="7.7572345733642578"><ele></ele><time>2014-10-15T20:22:22Z</time></trkpt>
<trkpt lat="46.2825889587402344" lon="7.7574934959411621"><ele></ele><time>2014-10-15T20:22:25Z</time></trkpt>
<trkpt lat="46.2825202941894531" lon="7.7577805519104004"><ele></ele><time>2014-10-15T20:22:28Z</time></trkpt>
<trkpt lat="46.2824974060058594" lon="7.7580957412719727"><ele></ele><time>2014-10-15T20:22:31Z</time></trkpt>
<trkpt lat="46.2825164794921875" lon="7.7582569122314453"><ele></ele><time>2014-10-15T20:22:34Z</time></trkpt>
<trkpt lat="46.2825202941894531" lon="7.7583456039428711"><ele></ele><time>2014-10-15T20:22:37Z</time></trkpt>
<trkpt lat="46.2825050354003906" lon="7.7585077285766602"><ele></ele><time>2014-10-15T20:22:40Z</time></trkpt>
<trkpt lat="46.2824974060058594" lon="7.7587332725524902"><ele></ele><time>2014-10-15T20:22:43Z</time></trkpt>
<trkpt lat="46.2824859619140625" lon="7.7589144706726074"><ele></ele><time>2014-10-15T20:22:46Z</time></trkpt>
<trkpt lat="46.2824478149414062" lon="7.7592315673828125"><ele></ele><time>2014-10-15T20:22:49Z</time></trkpt>
<trkpt lat="46.2824440002441406" lon="7.7595081329345703"><ele></ele><time>2014-10-15T20:22:52Z</time></trkpt>
<trkpt lat="46.2824478149414062" lon="7.7597575187683105"><ele></ele><time>2014-10-15T20:22:55Z</time></trkpt>
<trkpt lat="46.2824020385742188" lon="7.7601261138916016"><ele></ele><time>2014-10-15T20:22:58Z</time></trkpt>
<trkpt lat="46.2823028564453125" lon="7.7603754997253418"><ele></ele><time>2014-10-15T20:23:1Z</time></trkpt>
<trkpt lat="46.2821922302246094" lon="7.7606616020202637"><ele></ele><time>2014-10-15T20:23:4Z</time></trkpt>
<trkpt lat="46.2821083068847656" lon="7.7608432769775391"><ele></ele><time>2014-10-15T20:23:7Z</time></trkpt>
<trkpt lat="46.2820777893066406" lon="7.7610368728637695"><ele></ele><time>2014-10-15T20:23:10Z</time></trkpt>
<trkpt lat="46.2819709777832031" lon="7.7612881660461426"><ele></ele><time>2014-10-15T20:23:13Z</time></trkpt>
<trkpt lat="46.2819023132324219" lon="7.7614388465881348"><ele></ele><time>2014-10-15T20:23:16Z</time></trkpt>
<trkpt lat="46.2818717956542969" lon="7.7616167068481445"><ele></ele><time>2014-10-15T20:23:19Z</time></trkpt>
<trkpt lat="46.2818298339843750" lon="7.7617120742797852"><ele></ele><time>2014-10-15T20:23:22Z</time></trkpt>
<trkpt lat="46.2818031311035156" lon="7.7617568969726562"><ele></ele><time>2014-10-15T20:23:25Z</time></trkpt>
<trkpt lat="46.2817687988281250" lon="7.7618021965026855"><ele></ele><time>2014-10-15T20:23:28Z</time></trkpt>
<trkpt lat="46.2817497253417969" lon="7.7618212699890137"><ele></ele><time>2014-10-15T20:23:31Z</time></trkpt>
<trkpt lat="46.2817268371582031" lon="7.7618260383605957"><ele></ele><time>2014-10-15T20:23:34Z</time></trkpt>
<trkpt lat="46.2817001342773438" lon="7.7618432044982910"><ele></ele><time>2014-10-15T20:23:37Z</time></trkpt>
<trkpt lat="46.2816467285156250" lon="7.7618889808654785"><ele></ele><time>2014-10-15T20:23:40Z</time></trkpt>
<trkpt lat="46.2815895080566406" lon="7.7619285583496094"><ele></ele><time>2014-10-15T20:23:43Z</time></trkpt>
<trkpt lat="46.2815208435058594" lon="7.7619729042053223"><ele></ele><time>2014-10-15T20:23:46Z</time></trkpt>
<trkpt lat="46.2814903259277344" lon="7.7620072364807129"><ele></ele><time>2014-10-15T20:23:49Z</time></trkpt>
<trkpt lat="46.2814712524414062" lon="7.7620415687561035"><ele></ele><time>2014-10-15T20:23:52Z</time></trkpt>
<trkpt lat="46.2814292907714844" lon="7.7620892524719238"><ele></ele><time>2014-10-15T20:23:55Z</time></trkpt>
<trkpt lat="46.2814025878906250" lon="7.7621307373046875"><ele></ele><time>2014-10-15T20:23:58Z</time></trkpt>
<trkpt lat="46.2813339233398438" lon="7.7621979713439941"><ele></ele><time>2014-10-15T20:24:1Z</time></trkpt>
<trkpt lat="46.2812957763671875" lon="7.7622399330139160"><ele></ele><time>2014-10-15T20:24:4Z</time></trkpt>
<trkpt lat="46.2812461853027344" lon="7.7622680664062500"><ele></ele><time>2014-10-15T20:24:7Z</time></trkpt>
<trkpt lat="46.2812156677246094" lon="7.7622880935668945"><ele></ele><time>2014-10-15T20:24:10Z</time></trkpt>
<trkpt lat="46.2811813354492188" lon="7.7623057365417480"><ele></ele><time>2014-10-15T20:24:13Z</time></trkpt>
<trkpt lat="46.2811317443847656" lon="7.7623190879821777"><ele></ele><time>2014-10-15T20:24:16Z</time></trkpt>
<trkpt lat="46.2810668945312500" lon="7.7623333930969238"><ele></ele><time>2014-10-15T20:24:19Z</time></trkpt>
<trkpt lat="46.2810096740722656" lon="7.7623515129089355"><ele></ele><time>2014-10-15T20:24:22Z</time></trkpt>
<trkpt lat="46.2809829711914062" lon="7.7623538970947266"><ele></ele><time>2014-10-15T20:24:25Z</time></trkpt>
<trkpt lat="46.2809562683105469" lon="7.7623496055603027"><ele></ele><time>2014-10-15T20:24:28Z</time></trkpt>
<trkpt lat="46.2809295654296875" lon="7.7623505592346191"><ele></ele><time>2014-10-15T20:24:31Z</time></trkpt>
<trkpt lat="46.2809181213378906" lon="7.7623496055603027"><ele></ele><time>2014-10-15T20:24:34Z</time></trkpt>
<trkpt lat="46.2808876037597656" lon="7.7623777389526367"><ele></ele><time>2014-10-15T20:24:37Z</time></trkpt>
<trkpt lat="46.2808341979980469" lon="7.7624111175537109"><ele></ele><time>2014-10-15T20:24:40Z</time></trkpt>
<trkpt lat="46.2808074951171875" lon="7.7624373435974121"><ele></ele><time>2014-10-15T20:24:43Z</time></trkpt>
<trkpt lat="46.2807731628417969" lon="7.7624592781066895"><ele></ele><time>2014-10-15T20:24:46Z</time></trkpt>
<trkpt lat="46.2807426452636719" lon="7.7624993324279785"><ele></ele><time>2014-10-15T20:24:49Z</time></trkpt>
<trkpt lat="46.2807197570800781" lon="7.7625241279602051"><ele></ele><time>2014-10-15T20:24:52Z</time></trkpt>
<trkpt lat="46.2806777954101562" lon="7.7625432014465332"><ele></ele><time>2014-10-15T20:24:55Z</time></trkpt>
<trkpt lat="46.2806243896484375" lon="7.7625651359558105"><ele></ele><time>2014-10-15T20:24:58Z</time></trkpt>
<trkpt lat="46.2805633544921875" lon="7.7625703811645508"><ele></ele><time>2014-10-15T20:25:1Z</time></trkpt>
<trkpt lat="46.2805099487304688" lon="7.7625927925109863"><ele></ele><time>2014-10-15T20:25:4Z</time></trkpt>
<trkpt lat="46.2804832458496094" lon="7.7626075744628906"><ele></ele><time>2014-10-15T20:25:7Z</time></trkpt>
<trkpt lat="46.2804298400878906" lon="7.7626338005065918"><ele></ele><time>2014-10-15T20:25:10Z</time></trkpt>
<trkpt lat="46.2803802490234375" lon="7.7626667022705078"><ele></ele><time>2014-10-15T20:25:13Z</time></trkpt>
<trkpt lat="46.2803382873535156" lon="7.7627053260803223"><ele></ele><time>2014-10-15T20:25:16Z</time></trkpt>
<trkpt lat="46.2803001403808594" lon="7.7627377510070801"><ele></ele><time>2014-10-15T20:25:19Z</time></trkpt>
<trkpt lat="46.2802581787109375" lon="7.7627449035644531"><ele></ele><time>2014-10-15T20:25:22Z</time></trkpt>
<trkpt lat="46.2802085876464844" lon="7.7627391815185547"><ele></ele><time>2014-10-15T20:25:25Z</time></trkpt>
<trkpt lat="46.2801361083984375" lon="7.7627363204956055"><ele></ele><time>2014-10-15T20:25:28Z</time></trkpt>
<trkpt lat="46.2800521850585938" lon="7.7627520561218262"><ele></ele><time>2014-10-15T20:25:31Z</time></trkpt>
<trkpt lat="46.2799835205078125" lon="7.7627778053283691"><ele></ele><time>2014-10-15T20:25:34Z</time></trkpt>
<trkpt lat="46.2799224853515625" lon="7.7628374099731445"><ele></ele><time>2014-10-15T20:25:37Z</time></trkpt>
<trkpt lat="46.2798957824707031" lon="7.7628841400146484"><ele></ele><time>2014-10-15T20:25:40Z</time></trkpt>
<trkpt lat="46.2798538208007812" lon="7.7629113197326660"><ele></ele><time>2014-10-15T20:25:43Z</time></trkpt>
<trkpt lat="46.2798004150390625" lon="7.7629609107971191"><ele></ele><time>2014-10-15T20:25:46Z</time></trkpt>
<trkpt lat="46.2797431945800781" lon="7.7629966735839844"><ele></ele><time>2014-10-15T20:25:49Z</time></trkpt>
<trkpt lat="46.2797126770019531" lon="7.7630190849304199"><ele></ele><time>2014-10-15T20:25:52Z</time></trkpt>
<trkpt lat="46.2796707153320312" lon="7.7630491256713867"><ele></ele><time>2014-10-15T20:25:55Z</time></trkpt>
<trkpt lat="46.2796096801757812" lon="7.7630782127380371"><ele></ele><time>2014-10-15T20:25:58Z</time></trkpt>
<trkpt lat="46.2795410156250000" lon="7.7631020545959473"><ele></ele><time>2014-10-15T20:26:1Z</time></trkpt>
<trkpt lat="46.2794876098632812" lon="7.7631087303161621"><ele></ele><time>2014-10-15T20:26:4Z</time></trkpt>
<trkpt lat="46.2794342041015625" lon="7.7631192207336426"><ele></ele><time>2014-10-15T20:26:7Z</time></trkpt>
<trkpt lat="46.2793884277343750" lon="7.7631335258483887"><ele></ele><time>2014-10-15T20:26:10Z</time></trkpt>
<trkpt lat="46.2793312072753906" lon="7.7631845474243164"><ele></ele><time>2014-10-15T20:26:13Z</time></trkpt>
<trkpt lat="46.2792854309082031" lon="7.7632374763488770"><ele></ele><time>2014-10-15T20:26:16Z</time></trkpt>
<trkpt lat="46.2792472839355469" lon="7.7632975578308105"><ele></ele><time>2014-10-15T20:26:19Z</time></trkpt>
<trkpt lat="46.2792167663574219" lon="7.7633504867553711"><ele></ele><time>2014-10-15T20:26:22Z</time></trkpt>
<trkpt lat="46.2791709899902344" lon="7.7633886337280273"><ele></ele><time>2014-10-15T20:26:25Z</time></trkpt>
<trkpt lat="46.2791519165039062" lon="7.7633905410766602"><ele></ele><time>2014-10-15T20:26:28Z</time></trkpt>
<trkpt lat="46.2791252136230469" lon="7.7633848190307617"><ele></ele><time>2014-10-15T20:26:31Z</time></trkpt>
<trkpt lat="46.2791137695312500" lon="7.7633728981018066"><ele></ele><time>2014-10-15T20:26:34Z</time></trkpt>
<trkpt lat="46.2790832519531250" lon="7.7633457183837891"><ele></ele><time>2014-10-15T20:26:37Z</time></trkpt>
<trkpt lat="46.2790603637695312" lon="7.7633104324340820"><ele></ele><time>2014-10-15T20:26:40Z</time></trkpt>
<trkpt lat="46.2790260314941406" lon="7.7633051872253418"><ele></ele><time>2014-10-15T20:26:43Z</time></trkpt>
<trkpt lat="46.2789993286132812" lon="7.7633037567138672"><ele></ele><time>2014-10-15T20:26:46Z</time></trkpt>
<trkpt lat="46.2789802551269531" lon="7.7633118629455566"><ele></ele><time>2014-10-15T20:26:49Z</time></trkpt>
<trkpt lat="46.2789573669433594" lon="7.7633175849914551"><ele></ele><time>2014-10-15T20:26:52Z</time></trkpt>
<trkpt lat="46.2789306640625000" lon="7.7633228302001953"><ele></ele><time>2014-10-15T20:26:55Z</time></trkpt>
<trkpt lat="46.2788848876953125" lon="7.7633318901062012"><ele></ele><time>2014-10-15T20:26:58Z</time></trkpt>
<trkpt lat="46.2788429260253906" lon="7.7633471488952637"><ele></ele><time>2014-10-15T20:27:1Z</time></trkpt>
<trkpt lat="46.2788009643554688" lon="7.7633671760559082"><ele></ele><time>2014-10-15T20:27:4Z</time></trkpt>
<trkpt lat="46.2787780761718750" lon="7.7633819580078125"><ele></ele><time>2014-10-15T20:27:7Z</time></trkpt>
<trkpt lat="46.2787551879882812" lon="7.7634005546569824"><ele></ele><time>2014-10-15T20:27:10Z</time></trkpt>
<trkpt lat="46.2787208557128906" lon="7.7634243965148926"><ele></ele><time>2014-10-15T20:27:13Z</time></trkpt>
<trkpt lat="46.2786788940429688" lon="7.7634434700012207"><ele></ele><time>2014-10-15T20:27:16Z</time></trkpt>
<trkpt lat="46.2786445617675781" lon="7.7634568214416504"><ele></ele><time>2014-10-15T20:27:19Z</time></trkpt>
<trkpt lat="46.2786140441894531" lon="7.7634587287902832"><ele></ele><time>2014-10-15T20:27:22Z</time></trkpt>
<trkpt lat="46.2785797119140625" lon="7.7634506225585938"><ele></ele><time>2014-10-15T20:27:25Z</time></trkpt>
<trkpt lat="46.2785453796386719" lon="7.7634563446044922"><ele></ele><time>2014-10-15T20:27:28Z</time></trkpt>
<trkpt lat="46.2785148620605469" lon="7.7634687423706055"><ele></ele><time>2014-10-15T20:27:31Z</time></trkpt>
<trkpt lat="46.2784843444824219" lon="7.7635030746459961"><ele></ele><time>2014-10-15T20:27:34Z</time></trkpt>
<trkpt lat="46.2784614562988281" lon="7.7635235786437988"><ele></ele><time>2014-10-15T20:27:37Z</time></trkpt>
<trkpt lat="46.2784271240234375" lon="7.7635636329650879"><ele></ele><time>2014-10-15T20:27:40Z</time></trkpt>
<trkpt lat="46.2783889770507812" lon="7.7636084556579590"><ele></ele><time>2014-10-15T20:27:43Z</time></trkpt>
<trkpt lat="46.2783622741699219" lon="7.7636532783508301"><ele></ele><time>2014-10-15T20:27:46Z</time></trkpt>
<trkpt lat="46.2783432006835938" lon="7.7636790275573730"><ele></ele><time>2014-10-15T20:27:49Z</time></trkpt>
<trkpt lat="46.2783164978027344" lon="7.7637119293212891"><ele></ele><time>2014-10-15T20:27:52Z</time></trkpt>
<trkpt lat="46.2782821655273438" lon="7.7637348175048828"><ele></ele><time>2014-10-15T20:27:55Z</time></trkpt>
<trkpt lat="46.2782554626464844" lon="7.7637443542480469"><ele></ele><time>2014-10-15T20:27:58Z</time></trkpt>
<trkpt lat="46.2782211303710938" lon="7.7637619972229004"><ele></ele><time>2014-10-15T20:28:1Z</time></trkpt>
<trkpt lat="46.2781944274902344" lon="7.7637724876403809"><ele></ele><time>2014-10-15T20:28:4Z</time></trkpt>
<trkpt lat="46.2781600952148438" lon="7.7637920379638672"><ele></ele><time>2014-10-15T20:28:7Z</time></trkpt>
<trkpt lat="46.2781257629394531" lon="7.7638154029846191"><ele></ele><time>2014-10-15T20:28:10Z</time></trkpt>
<trkpt lat="46.2780799865722656" lon="7.7638349533081055"><ele></ele><time>2014-10-15T20:28:13Z</time></trkpt>
<trkpt lat="46.2780303955078125" lon="7.7638564109802246"><ele></ele><time>2014-10-15T20:28:16Z</time></trkpt>
<trkpt lat="46.2779846191406250" lon="7.7638869285583496"><ele></ele><time>2014-10-15T20:28:19Z</time></trkpt>
<trkpt lat="46.2779579162597656" lon="7.7639036178588867"><ele></ele><time>2014-10-15T20:28:22Z</time></trkpt>
<trkpt lat="46.2779273986816406" lon="7.7639203071594238"><ele></ele><time>2014-10-15T20:28:25Z</time></trkpt>
<trkpt lat="46.2778854370117188" lon="7.7639484405517578"><ele></ele><time>2014-10-15T20:28:28Z</time></trkpt>
<trkpt lat="46.2778625488281250" lon="7.7639698982238770"><ele></ele><time>2014-10-15T20:28:31Z</time></trkpt>
<trkpt lat="46.2778396606445312" lon="7.7639889717102051"><ele></ele><time>2014-10-15T20:28:34Z</time></trkpt>
<trkpt lat="46.2778015136718750" lon="7.7640142440795898"><ele></ele><time>2014-10-15T20:28:37Z</time></trkpt>
<trkpt lat="46.2777671813964844" lon="7.7640352249145508"><ele></ele><time>2014-10-15T20:28:40Z</time></trkpt>
<trkpt lat="46.2777442932128906" lon="7.7640423774719238"><ele></ele><time>2014-10-15T20:28:43Z</time></trkpt>
<trkpt lat="46.2777175903320312" lon="7.7640476226806641"><ele></ele><time>2014-10-15T20:28:46Z</time></trkpt>
<trkpt lat="46.2776794433593750" lon="7.7640490531921387"><ele></ele><time>2014-10-15T20:28:49Z</time></trkpt>
<trkpt lat="46.2776374816894531" lon="7.7640476226806641"><ele></ele><time>2014-10-15T20:28:52Z</time></trkpt>
<trkpt lat="46.2775955200195312" lon="7.7640504837036133"><ele></ele><time>2014-10-15T20:28:55Z</time></trkpt>
<trkpt lat="46.2775688171386719" lon="7.7640595436096191"><ele></ele><time>2014-10-15T20:28:58Z</time></trkpt>
<trkpt lat="46.2775421142578125" lon="7.7640728950500488"><ele></ele><time>2014-10-15T20:29:1Z</time></trkpt>
<trkpt lat="46.2775001525878906" lon="7.7640991210937500"><ele></ele><time>2014-10-15T20:29:4Z</time></trkpt>
<trkpt lat="46.2774658203125000" lon="7.7641282081604004"><ele></ele><time>2014-10-15T20:29:7Z</time></trkpt>
<trkpt lat="46.2774162292480469" lon="7.7641510963439941"><ele></ele><time>2014-10-15T20:29:10Z</time></trkpt>
<trkpt lat="46.2773704528808594" lon="7.7641744613647461"><ele></ele><time>2014-10-15T20:29:13Z</time></trkpt>
<trkpt lat="46.2773437500000000" lon="7.7641854286193848"><ele></ele><time>2014-10-15T20:29:16Z</time></trkpt>
<trkpt lat="46.2772979736328125" lon="7.7642045021057129"><ele></ele><time>2014-10-15T20:29:19Z</time></trkpt>
<trkpt lat="46.2772254943847656" lon="7.7643060684204102"><ele></ele><time>2014-10-15T20:29:22Z</time></trkpt>
<trkpt lat="46.2771720886230469" lon="7.7643709182739258"><ele></ele><time>2014-10-15T20:29:25Z</time></trkpt>
<trkpt lat="46.2771339416503906" lon="7.7644109725952148"><ele></ele><time>2014-10-15T20:29:28Z</time></trkpt>
<trkpt lat="46.2771110534667969" lon="7.7644314765930176"><ele></ele><time>2014-10-15T20:29:31Z</time></trkpt>
<trkpt lat="46.2770843505859375" lon="7.7644467353820801"><ele></ele><time>2014-10-15T20:29:34Z</time></trkpt>
<trkpt lat="46.2770767211914062" lon="7.7644605636596680"><ele></ele><time>2014-10-15T20:29:37Z</time></trkpt>
<trkpt lat="46.2770690917968750" lon="7.7644691467285156"><ele></ele><time>2014-10-15T20:29:40Z</time></trkpt>
<trkpt lat="46.2770538330078125" lon="7.7644858360290527"><ele></ele><time>2014-10-15T20:29:43Z</time></trkpt>
<trkpt lat="46.2769050598144531" lon="7.7646980285644531"><ele></ele><time>2014-10-15T20:29:46Z</time></trkpt>
<trkpt lat="46.2767486572265625" lon="7.7648587226867676"><ele></ele><time>2014-10-15T20:29:49Z</time></trkpt>
<trkpt lat="46.2765617370605469" lon="7.7650437355041504"><ele></ele><time>2014-10-15T20:29:52Z</time></trkpt>
<trkpt lat="46.2764396667480469" lon="7.7652053833007812"><ele></ele><time>2014-10-15T20:29:55Z</time></trkpt>
<trkpt lat="46.2763023376464844" lon="7.7655253410339355"><ele></ele><time>2014-10-15T20:29:58Z</time></trkpt>
<trkpt lat="46.2761116027832031" lon="7.7658796310424805"><ele></ele><time>2014-10-15T20:30:1Z</time></trkpt>
<trkpt lat="46.2760009765625000" lon="7.7661523818969727"><ele></ele><time>2014-10-15T20:30:4Z</time></trkpt>
<trkpt lat="46.2758407592773438" lon="7.7665343284606934"><ele></ele><time>2014-10-15T20:30:7Z</time></trkpt>
<trkpt lat="46.2756538391113281" lon="7.7669782638549805"><ele></ele><time>2014-10-15T20:30:10Z</time></trkpt>
<trkpt lat="46.2754783630371094" lon="7.7674059867858887"><ele></ele><time>2014-10-15T20:30:13Z</time></trkpt>
<trkpt lat="46.2753334045410156" lon="7.7676491737365723"><ele></ele><time>2014-10-15T20:30:16Z</time></trkpt>
<trkpt lat="46.2751159667968750" lon="7.7680478096008301"><ele></ele><time>2014-10-15T20:30:19Z</time></trkpt>
<trkpt lat="46.2749137878417969" lon="7.7684645652770996"><ele></ele><time>2014-10-15T20:30:22Z</time></trkpt>
<trkpt lat="46.2747077941894531" lon="7.7687201499938965"><ele></ele><time>2014-10-15T20:30:25Z</time></trkpt>
<trkpt lat="46.2746086120605469" lon="7.7689604759216309"><ele></ele><time>2014-10-15T20:30:28Z</time></trkpt>
<trkpt lat="46.2744178771972656" lon="7.7693214416503906"><ele></ele><time>2014-10-15T20:30:31Z</time></trkpt>
<trkpt lat="46.2744102478027344" lon="7.7698678970336914"><ele></ele><time>2014-10-15T20:30:34Z</time></trkpt>
<trkpt lat="46.2741966247558594" lon="7.7700428962707520"><ele></ele><time>2014-10-15T20:30:37Z</time></trkpt>
<trkpt lat="46.2740097045898438" lon="7.7699251174926758"><ele></ele><time>2014-10-15T20:30:40Z</time></trkpt>
<trkpt lat="46.2737731933593750" lon="7.7697587013244629"><ele></ele><time>2014-10-15T20:30:43Z</time></trkpt>
<trkpt lat="46.2735214233398438" lon="7.7695031166076660"><ele></ele><time>2014-10-15T20:30:46Z</time></trkpt>
<trkpt lat="46.2734069824218750" lon="7.7694220542907715"><ele></ele><time>2014-10-15T20:30:49Z</time></trkpt>
<trkpt lat="46.2730407714843750" lon="7.7691659927368164"><ele></ele><time>2014-10-15T20:30:52Z</time></trkpt>
<trkpt lat="46.2728195190429688" lon="7.7690582275390625"><ele></ele><time>2014-10-15T20:30:55Z</time></trkpt>
<trkpt lat="46.2725677490234375" lon="7.7688794136047363"><ele></ele><time>2014-10-15T20:30:58Z</time></trkpt>
<trkpt lat="46.2724151611328125" lon="7.7688350677490234"><ele></ele><time>2014-10-15T20:31:1Z</time></trkpt>
<trkpt lat="46.2721557617187500" lon="7.7687721252441406"><ele></ele><time>2014-10-15T20:31:4Z</time></trkpt>
<trkpt lat="46.2719955444335938" lon="7.7689189910888672"><ele></ele><time>2014-10-15T20:31:7Z</time></trkpt>
<trkpt lat="46.2719535827636719" lon="7.7691187858581543"><ele></ele><time>2014-10-15T20:31:10Z</time></trkpt>
<trkpt lat="46.2720298767089844" lon="7.7694182395935059"><ele></ele><time>2014-10-15T20:31:13Z</time></trkpt>
<trkpt lat="46.2720336914062500" lon="7.7697458267211914"><ele></ele><time>2014-10-15T20:31:16Z</time></trkpt>
<trkpt lat="46.2720451354980469" lon="7.7699551582336426"><ele></ele><time>2014-10-15T20:31:19Z</time></trkpt>
<trkpt lat="46.2720413208007812" lon="7.7702617645263672"><ele></ele><time>2014-10-15T20:31:22Z</time></trkpt>
<trkpt lat="46.2720108032226562" lon="7.7704758644104004"><ele></ele><time>2014-10-15T20:31:25Z</time></trkpt>
<trkpt lat="46.2721061706542969" lon="7.7708897590637207"><ele></ele><time>2014-10-15T20:31:28Z</time></trkpt>
<trkpt lat="46.2721672058105469" lon="7.7711496353149414"><ele></ele><time>2014-10-15T20:31:31Z</time></trkpt>
<trkpt lat="46.2722930908203125" lon="7.7718911170959473"><ele></ele><time>2014-10-15T20:31:34Z</time></trkpt>
<trkpt lat="46.2723121643066406" lon="7.7722349166870117"><ele></ele><time>2014-10-15T20:31:37Z</time></trkpt>
<trkpt lat="46.2723121643066406" lon="7.7726101875305176"><ele></ele><time>2014-10-15T20:31:40Z</time></trkpt>
<trkpt lat="46.2723388671875000" lon="7.7731604576110840"><ele></ele><time>2014-10-15T20:31:43Z</time></trkpt>
<trkpt lat="46.2722892761230469" lon="7.7736916542053223"><ele></ele><time>2014-10-15T20:31:46Z</time></trkpt>
<trkpt lat="46.2721633911132812" lon="7.7739787101745605"><ele></ele><time>2014-10-15T20:31:49Z</time></trkpt>
<trkpt lat="46.2720375061035156" lon="7.7742705345153809"><ele></ele><time>2014-10-15T20:31:52Z</time></trkpt>
<trkpt lat="46.2718544006347656" lon="7.7747569084167480"><ele></ele><time>2014-10-15T20:31:55Z</time></trkpt>
<trkpt lat="46.2716674804687500" lon="7.7752771377563477"><ele></ele><time>2014-10-15T20:31:58Z</time></trkpt>
<trkpt lat="46.2714271545410156" lon="7.7757444381713867"><ele></ele><time>2014-10-15T20:32:1Z</time></trkpt>
<trkpt lat="46.2712669372558594" lon="7.7760477066040039"><ele></ele><time>2014-10-15T20:32:4Z</time></trkpt>
<trkpt lat="46.2711067199707031" lon="7.7762966156005859"><ele></ele><time>2014-10-15T20:32:7Z</time></trkpt>
<trkpt lat="46.2708511352539062" lon="7.7767076492309570"><ele></ele><time>2014-10-15T20:32:10Z</time></trkpt>
<trkpt lat="46.2706832885742188" lon="7.7770180702209473"><ele></ele><time>2014-10-15T20:32:13Z</time></trkpt>
<trkpt lat="46.2703857421875000" lon="7.7774472236633301"><ele></ele><time>2014-10-15T20:32:16Z</time></trkpt>
<trkpt lat="46.2701492309570312" lon="7.7777037620544434"><ele></ele><time>2014-10-15T20:32:19Z</time></trkpt>
<trkpt lat="46.2698020935058594" lon="7.7780151367187500"><ele></ele><time>2014-10-15T20:32:22Z</time></trkpt>
<trkpt lat="46.2695693969726562" lon="7.7781987190246582"><ele></ele><time>2014-10-15T20:32:25Z</time></trkpt>
<trkpt lat="46.2691879272460938" lon="7.7784152030944824"><ele></ele><time>2014-10-15T20:32:28Z</time></trkpt>
<trkpt lat="46.2689170837402344" lon="7.7785110473632812"><ele></ele><time>2014-10-15T20:32:31Z</time></trkpt>
<trkpt lat="46.2686920166015625" lon="7.7786235809326172"><ele></ele><time>2014-10-15T20:32:34Z</time></trkpt>
<trkpt lat="46.2683639526367188" lon="7.7788720130920410"><ele></ele><time>2014-10-15T20:32:37Z</time></trkpt>
<trkpt lat="46.2680435180664062" lon="7.7791175842285156"><ele></ele><time>2014-10-15T20:32:40Z</time></trkpt>
<trkpt lat="46.2678108215332031" lon="7.7793202400207520"><ele></ele><time>2014-10-15T20:32:43Z</time></trkpt>
<trkpt lat="46.2676773071289062" lon="7.7795791625976562"><ele></ele><time>2014-10-15T20:32:46Z</time></trkpt>
<trkpt lat="46.2674713134765625" lon="7.7799735069274902"><ele></ele><time>2014-10-15T20:32:49Z</time></trkpt>
<trkpt lat="46.2673301696777344" lon="7.7803187370300293"><ele></ele><time>2014-10-15T20:32:52Z</time></trkpt>
<trkpt lat="46.2672843933105469" lon="7.7805480957031250"><ele></ele><time>2014-10-15T20:32:55Z</time></trkpt>
<trkpt lat="46.2672500610351562" lon="7.7807602882385254"><ele></ele><time>2014-10-15T20:32:58Z</time></trkpt>
<trkpt lat="46.2671470642089844" lon="7.7810139656066895"><ele></ele><time>2014-10-15T20:33:1Z</time></trkpt>
<trkpt lat="46.2668533325195312" lon="7.7810730934143066"><ele></ele><time>2014-10-15T20:33:4Z</time></trkpt>
<trkpt lat="46.2666854858398438" lon="7.7811083793640137"><ele></ele><time>2014-10-15T20:33:7Z</time></trkpt>
<trkpt lat="46.2665214538574219" lon="7.7811322212219238"><ele></ele><time>2014-10-15T20:33:10Z</time></trkpt>
<trkpt lat="46.2663726806640625" lon="7.7812590599060059"><ele></ele><time>2014-10-15T20:33:13Z</time></trkpt>
<trkpt lat="46.2662124633789062" lon="7.7814049720764160"><ele></ele><time>2014-10-15T20:33:16Z</time></trkpt>
<trkpt lat="46.2659873962402344" lon="7.7816028594970703"><ele></ele><time>2014-10-15T20:33:19Z</time></trkpt>
<trkpt lat="46.2659187316894531" lon="7.7817687988281250"><ele></ele><time>2014-10-15T20:33:22Z</time></trkpt>
<trkpt lat="46.2658958435058594" lon="7.7820482254028320"><ele></ele><time>2014-10-15T20:33:25Z</time></trkpt>
<trkpt lat="46.2658920288085938" lon="7.7821145057678223"><ele></ele><time>2014-10-15T20:33:28Z</time></trkpt>
<trkpt lat="46.2658615112304688" lon="7.7820806503295898"><ele></ele><time>2014-10-15T20:33:31Z</time></trkpt>
<trkpt lat="46.2657432556152344" lon="7.7820453643798828"><ele></ele><time>2014-10-15T20:33:34Z</time></trkpt>
<trkpt lat="46.2657279968261719" lon="7.7820444107055664"><ele></ele><time>2014-10-15T20:33:37Z</time></trkpt>
<trkpt lat="46.2656822204589844" lon="7.7820391654968262"><ele></ele><time>2014-10-15T20:33:40Z</time></trkpt>
<trkpt lat="46.2656402587890625" lon="7.7820463180541992"><ele></ele><time>2014-10-15T20:33:43Z</time></trkpt>
<trkpt lat="46.2656135559082031" lon="7.7820320129394531"><ele></ele><time>2014-10-15T20:33:46Z</time></trkpt>
<trkpt lat="46.2655563354492188" lon="7.7819924354553223"><ele></ele><time>2014-10-15T20:33:49Z</time></trkpt>
<trkpt lat="46.2655220031738281" lon="7.7819633483886719"><ele></ele><time>2014-10-15T20:33:52Z</time></trkpt>
<trkpt lat="46.2654838562011719" lon="7.7819156646728516"><ele></ele><time>2014-10-15T20:33:55Z</time></trkpt>
<trkpt lat="46.2654495239257812" lon="7.7818608283996582"><ele></ele><time>2014-10-15T20:33:58Z</time></trkpt>
<trkpt lat="46.2654075622558594" lon="7.7818098068237305"><ele></ele><time>2014-10-15T20:34:1Z</time></trkpt>
<trkpt lat="46.2653579711914062" lon="7.7817406654357910"><ele></ele><time>2014-10-15T20:34:4Z</time></trkpt>
<trkpt lat="46.2653312683105469" lon="7.7817039489746094"><ele></ele><time>2014-10-15T20:34:7Z</time></trkpt>
<trkpt lat="46.2652854919433594" lon="7.7816638946533203"><ele></ele><time>2014-10-15T20:34:10Z</time></trkpt>
<trkpt lat="46.2652587890625000" lon="7.7816424369812012"><ele></ele><time>2014-10-15T20:34:13Z</time></trkpt>
<trkpt lat="46.2652206420898438" lon="7.7816152572631836"><ele></ele><time>2014-10-15T20:34:16Z</time></trkpt>
<trkpt lat="46.2651786804199219" lon="7.7815856933593750"><ele></ele><time>2014-10-15T20:34:19Z</time></trkpt>
<trkpt lat="46.2651557922363281" lon="7.7815637588500977"><ele></ele><time>2014-10-15T20:34:22Z</time></trkpt>
<trkpt lat="46.2651176452636719" lon="7.7815265655517578"><ele></ele><time>2014-10-15T20:34:25Z</time></trkpt>
<trkpt lat="46.2650909423828125" lon="7.7815098762512207"><ele></ele><time>2014-10-15T20:34:28Z</time></trkpt>
<trkpt lat="46.2650413513183594" lon="7.7814936637878418"><ele></ele><time>2014-10-15T20:34:31Z</time></trkpt>
<trkpt lat="46.2649993896484375" lon="7.7814836502075195"><ele></ele><time>2014-10-15T20:34:34Z</time></trkpt>
<trkpt lat="46.2649650573730469" lon="7.7814798355102539"><ele></ele><time>2014-10-15T20:34:37Z</time></trkpt>
<trkpt lat="46.2649307250976562" lon="7.7814798355102539"><ele></ele><time>2014-10-15T20:34:40Z</time></trkpt>
<trkpt lat="46.2648887634277344" lon="7.7815079689025879"><ele></ele><time>2014-10-15T20:34:43Z</time></trkpt>
<trkpt lat="46.2648582458496094" lon="7.7815585136413574"><ele></ele><time>2014-10-15T20:34:46Z</time></trkpt>
<trkpt lat="46.2648468017578125" lon="7.7816181182861328"><ele></ele><time>2014-10-15T20:34:49Z</time></trkpt>
<trkpt lat="46.2648506164550781" lon="7.7816576957702637"><ele></ele><time>2014-10-15T20:34:52Z</time></trkpt>
<trkpt lat="46.2648620605468750" lon="7.7817072868347168"><ele></ele><time>2014-10-15T20:34:55Z</time></trkpt>
<trkpt lat="46.2648658752441406" lon="7.7817378044128418"><ele></ele><time>2014-10-15T20:34:58Z</time></trkpt>
<trkpt lat="46.2648811340332031" lon="7.7817730903625488"><ele></ele><time>2014-10-15T20:35:1Z</time></trkpt>
<trkpt lat="46.2648925781250000" lon="7.7818150520324707"><ele></ele><time>2014-10-15T20:35:4Z</time></trkpt>
<trkpt lat="46.2649078369140625" lon="7.7818493843078613"><ele></ele><time>2014-10-15T20:35:7Z</time></trkpt>
<trkpt lat="46.2649192810058594" lon="7.7818713188171387"><ele></ele><time>2014-10-15T20:35:10Z</time></trkpt>
<trkpt lat="46.2649421691894531" lon="7.7819023132324219"><ele></ele><time>2014-10-15T20:35:13Z</time></trkpt>
<trkpt lat="46.2649650573730469" lon="7.7819237709045410"><ele></ele><time>2014-10-15T20:35:16Z</time></trkpt>
<trkpt lat="46.2650070190429688" lon="7.7819533348083496"><ele></ele><time>2014-10-15T20:35:19Z</time></trkpt>
<trkpt lat="46.2650375366210938" lon="7.7819786071777344"><ele></ele><time>2014-10-15T20:35:22Z</time></trkpt>
<trkpt lat="46.2650947570800781" lon="7.7819919586181641"><ele></ele><time>2014-10-15T20:35:25Z</time></trkpt>
<trkpt lat="46.2651481628417969" lon="7.7820067405700684"><ele></ele><time>2014-10-15T20:35:28Z</time></trkpt>
<trkpt lat="46.2651901245117188" lon="7.7820181846618652"><ele></ele><time>2014-10-15T20:35:31Z</time></trkpt>
<trkpt lat="46.2652626037597656" lon="7.7820515632629395"><ele></ele><time>2014-10-15T20:35:34Z</time></trkpt>
<trkpt lat="46.2653083801269531" lon="7.7821412086486816"><ele></ele><time>2014-10-15T20:35:37Z</time></trkpt>
<trkpt lat="46.2653808593750000" lon="7.7823228836059570"><ele></ele><time>2014-10-15T20:35:40Z</time></trkpt>
<trkpt lat="46.2654418945312500" lon="7.7824997901916504"><ele></ele><time>2014-10-15T20:35:43Z</time></trkpt>
<trkpt lat="46.2655067443847656" lon="7.7826399803161621"><ele></ele><time>2014-10-15T20:35:46Z</time></trkpt>
<trkpt lat="46.2655754089355469" lon="7.7826852798461914"><ele></ele><time>2014-10-15T20:35:49Z</time></trkpt>
<trkpt lat="46.2656517028808594" lon="7.7826738357543945"><ele></ele><time>2014-10-15T20:35:52Z</time></trkpt>
<trkpt lat="46.2657127380371094" lon="7.7826447486877441"><ele></ele><time>2014-10-15T20:35:55Z</time></trkpt>
<trkpt lat="46.2657546997070312" lon="7.7825818061828613"><ele></ele><time>2014-10-15T20:35:58Z</time></trkpt>
<trkpt lat="46.2657852172851562" lon="7.7825732231140137"><ele></ele><time>2014-10-15T20:36:1Z</time></trkpt>
<trkpt lat="46.2658195495605469" lon="7.7825918197631836"><ele></ele><time>2014-10-15T20:36:4Z</time></trkpt>
<trkpt lat="46.2658500671386719" lon="7.7826189994812012"><ele></ele><time>2014-10-15T20:36:7Z</time></trkpt>
<trkpt lat="46.2658843994140625" lon="7.7826628684997559"><ele></ele><time>2014-10-15T20:36:10Z</time></trkpt>
<trkpt lat="46.2659111022949219" lon="7.7827363014221191"><ele></ele><time>2014-10-15T20:36:13Z</time></trkpt>
<trkpt lat="46.2659187316894531" lon="7.7828207015991211"><ele></ele><time>2014-10-15T20:36:16Z</time></trkpt>
<trkpt lat="46.2659339904785156" lon="7.7828750610351562"><ele></ele><time>2014-10-15T20:36:19Z</time></trkpt>
<trkpt lat="46.2660102844238281" lon="7.7829532623291016"><ele></ele><time>2014-10-15T20:36:22Z</time></trkpt>
<trkpt lat="46.2660903930664062" lon="7.7829537391662598"><ele></ele><time>2014-10-15T20:36:25Z</time></trkpt>
<trkpt lat="46.2661781311035156" lon="7.7829623222351074"><ele></ele><time>2014-10-15T20:36:28Z</time></trkpt>
<trkpt lat="46.2662353515625000" lon="7.7830443382263184"><ele></ele><time>2014-10-15T20:36:31Z</time></trkpt>
<trkpt lat="46.2662696838378906" lon="7.7831273078918457"><ele></ele><time>2014-10-15T20:36:34Z</time></trkpt>
<trkpt lat="46.2662925720214844" lon="7.7831811904907227"><ele></ele><time>2014-10-15T20:36:37Z</time></trkpt>
<trkpt lat="46.2663345336914062" lon="7.7832584381103516"><ele></ele><time>2014-10-15T20:36:40Z</time></trkpt>
<trkpt lat="46.2663993835449219" lon="7.7832865715026855"><ele></ele><time>2014-10-15T20:36:43Z</time></trkpt>
<trkpt lat="46.2664375305175781" lon="7.7833151817321777"><ele></ele><time>2014-10-15T20:36:46Z</time></trkpt>
<trkpt lat="46.2664833068847656" lon="7.7833909988403320"><ele></ele><time>2014-10-15T20:36:49Z</time></trkpt>
<trkpt lat="46.2664985656738281" lon="7.7834520339965820"><ele></ele><time>2014-10-15T20:36:52Z</time></trkpt>
<trkpt lat="46.2664985656738281" lon="7.7835140228271484"><ele></ele><time>2014-10-15T20:36:55Z</time></trkpt>
<trkpt lat="46.2664985656738281" lon="7.7836103439331055"><ele></ele><time>2014-10-15T20:36:58Z</time></trkpt>
<trkpt lat="46.2665138244628906" lon="7.7836570739746094"><ele></ele><time>2014-10-15T20:37:1Z</time></trkpt>
<trkpt lat="46.2665710449218750" lon="7.7836928367614746"><ele></ele><time>2014-10-15T20:37:4Z</time></trkpt>
<trkpt lat="46.2666282653808594" lon="7.7836947441101074"><ele></ele><time>2014-10-15T20:37:7Z</time></trkpt>
<trkpt lat="46.2666625976562500" lon="7.7837061882019043"><ele></ele><time>2014-10-15T20:37:10Z</time></trkpt>
<trkpt lat="46.2667007446289062" lon="7.7837300300598145"><ele></ele><time>2014-10-15T20:37:13Z</time></trkpt>
<trkpt lat="46.2667808532714844" lon="7.7837648391723633"><ele></ele><time>2014-10-15T20:37:16Z</time></trkpt>
<trkpt lat="46.2668380737304688" lon="7.7837767601013184"><ele></ele><time>2014-10-15T20:37:19Z</time></trkpt>
<trkpt lat="46.2669219970703125" lon="7.7837772369384766"><ele></ele><time>2014-10-15T20:37:22Z</time></trkpt>
<trkpt lat="46.2669754028320312" lon="7.7837910652160645"><ele></ele><time>2014-10-15T20:37:25Z</time></trkpt>
<trkpt lat="46.2670440673828125" lon="7.7838587760925293"><ele></ele><time>2014-10-15T20:37:28Z</time></trkpt>
<trkpt lat="46.2670783996582031" lon="7.7839188575744629"><ele></ele><time>2014-10-15T20:37:31Z</time></trkpt>
<trkpt lat="46.2671279907226562" lon="7.7840352058410645"><ele></ele><time>2014-10-15T20:37:34Z</time></trkpt>
<trkpt lat="46.2671508789062500" lon="7.7841253280639648"><ele></ele><time>2014-10-15T20:37:37Z</time></trkpt>
<trkpt lat="46.2671508789062500" lon="7.7842507362365723"><ele></ele><time>2014-10-15T20:37:40Z</time></trkpt>
<trkpt lat="46.2671546936035156" lon="7.7843680381774902"><ele></ele><time>2014-10-15T20:37:43Z</time></trkpt>
<trkpt lat="46.2671508789062500" lon="7.7844376564025879"><ele></ele><time>2014-10-15T20:37:46Z</time></trkpt>
<trkpt lat="46.2671318054199219" lon="7.7845325469970703"><ele></ele><time>2014-10-15T20:37:49Z</time></trkpt>
<trkpt lat="46.2671241760253906" lon="7.7845950126647949"><ele></ele><time>2014-10-15T20:37:52Z</time></trkpt>
<trkpt lat="46.2671127319335938" lon="7.7846479415893555"><ele></ele><time>2014-10-15T20:37:55Z</time></trkpt>
<trkpt lat="46.2670936584472656" lon="7.7847046852111816"><ele></ele><time>2014-10-15T20:37:58Z</time></trkpt>
<trkpt lat="46.2670593261718750" lon="7.7847981452941895"><ele></ele><time>2014-10-15T20:38:1Z</time></trkpt>
<trkpt lat="46.2670402526855469" lon="7.7848687171936035"><ele></ele><time>2014-10-15T20:38:4Z</time></trkpt>
<trkpt lat="46.2670326232910156" lon="7.7849869728088379"><ele></ele><time>2014-10-15T20:38:7Z</time></trkpt>
<trkpt lat="46.2670288085937500" lon="7.7850942611694336"><ele></ele><time>2014-10-15T20:38:10Z</time></trkpt>
<trkpt lat="46.2670288085937500" lon="7.7851862907409668"><ele></ele><time>2014-10-15T20:38:13Z</time></trkpt>
<trkpt lat="46.2670211791992188" lon="7.7852363586425781"><ele></ele><time>2014-10-15T20:38:16Z</time></trkpt>
<trkpt lat="46.2670326232910156" lon="7.7852692604064941"><ele></ele><time>2014-10-15T20:38:19Z</time></trkpt>
<trkpt lat="46.2670631408691406" lon="7.7853426933288574"><ele></ele><time>2014-10-15T20:38:22Z</time></trkpt>
<trkpt lat="46.2670860290527344" lon="7.7854237556457520"><ele></ele><time>2014-10-15T20:38:25Z</time></trkpt>
<trkpt lat="46.2671089172363281" lon="7.7854914665222168"><ele></ele><time>2014-10-15T20:38:28Z</time></trkpt>
<trkpt lat="46.2671203613281250" lon="7.7855477333068848"><ele></ele><time>2014-10-15T20:38:31Z</time></trkpt>
<trkpt lat="46.2671470642089844" lon="7.7856121063232422"><ele></ele><time>2014-10-15T20:38:34Z</time></trkpt>
<trkpt lat="46.2671737670898438" lon="7.7856583595275879"><ele></ele><time>2014-10-15T20:38:37Z</time></trkpt>
<trkpt lat="46.2671928405761719" lon="7.7857151031494141"><ele></ele><time>2014-10-15T20:38:40Z</time></trkpt>
<trkpt lat="46.2672309875488281" lon="7.7858114242553711"><ele></ele><time>2014-10-15T20:38:43Z</time></trkpt>
<trkpt lat="46.2672615051269531" lon="7.7858848571777344"><ele></ele><time>2014-10-15T20:38:46Z</time></trkpt>
<trkpt lat="46.2672958374023438" lon="7.7859764099121094"><ele></ele><time>2014-10-15T20:38:49Z</time></trkpt>
<trkpt lat="46.2673377990722656" lon="7.7860431671142578"><ele></ele><time>2014-10-15T20:38:52Z</time></trkpt>
<trkpt lat="46.2673835754394531" lon="7.7861084938049316"><ele></ele><time>2014-10-15T20:38:55Z</time></trkpt>
<trkpt lat="46.2674446105957031" lon="7.7861595153808594"><ele></ele><time>2014-10-15T20:38:58Z</time></trkpt>
<trkpt lat="46.2674865722656250" lon="7.7861886024475098"><ele></ele><time>2014-10-15T20:39:1Z</time></trkpt>
<trkpt lat="46.2675247192382812" lon="7.7862291336059570"><ele></ele><time>2014-10-15T20:39:4Z</time></trkpt>
<trkpt lat="46.2675552368164062" lon="7.7862744331359863"><ele></ele><time>2014-10-15T20:39:7Z</time></trkpt>
<trkpt lat="46.2676086425781250" lon="7.7863826751708984"><ele></ele><time>2014-10-15T20:39:10Z</time></trkpt>
<trkpt lat="46.2676544189453125" lon="7.7864642143249512"><ele></ele><time>2014-10-15T20:39:13Z</time></trkpt>
<trkpt lat="46.2677230834960938" lon="7.7865676879882812"><ele></ele><time>2014-10-15T20:39:16Z</time></trkpt>
<trkpt lat="46.2677955627441406" lon="7.7866415977478027"><ele></ele><time>2014-10-15T20:39:19Z</time></trkpt>
<trkpt lat="46.2678337097167969" lon="7.7866668701171875"><ele></ele><time>2014-10-15T20:39:22Z</time></trkpt>
<trkpt lat="46.2678565979003906" lon="7.7866830825805664"><ele></ele><time>2014-10-15T20:39:25Z</time></trkpt>
<trkpt lat="46.2679061889648438" lon="7.7867126464843750"><ele></ele><time>2014-10-15T20:39:28Z</time></trkpt>
<trkpt lat="46.2679786682128906" lon="7.7867498397827148"><ele></ele><time>2014-10-15T20:39:31Z</time></trkpt>
<trkpt lat="46.2680549621582031" lon="7.7868003845214844"><ele></ele><time>2014-10-15T20:39:34Z</time></trkpt>
<trkpt lat="46.2681350708007812" lon="7.7868132591247559"><ele></ele><time>2014-10-15T20:39:37Z</time></trkpt>
<trkpt lat="46.2681999206542969" lon="7.7867674827575684"><ele></ele><time>2014-10-15T20:39:40Z</time></trkpt>
<trkpt lat="46.2682456970214844" lon="7.7867407798767090"><ele></ele><time>2014-10-15T20:39:43Z</time></trkpt>
<trkpt lat="46.2683219909667969" lon="7.7867336273193359"><ele></ele><time>2014-10-15T20:39:46Z</time></trkpt>
<trkpt lat="46.2683982849121094" lon="7.7867293357849121"><ele></ele><time>2014-10-15T20:39:49Z</time></trkpt>
<trkpt lat="46.2684745788574219" lon="7.7867803573608398"><ele></ele><time>2014-10-15T20:39:52Z</time></trkpt>
<trkpt lat="46.2685317993164062" lon="7.7868771553039551"><ele></ele><time>2014-10-15T20:39:55Z</time></trkpt>
<trkpt lat="46.2685737609863281" lon="7.7869458198547363"><ele></ele><time>2014-10-15T20:39:58Z</time></trkpt>
<trkpt lat="46.2686042785644531" lon="7.7869987487792969"><ele></ele><time>2014-10-15T20:40:1Z</time></trkpt>
<trkpt lat="46.2686347961425781" lon="7.7870640754699707"><ele></ele><time>2014-10-15T20:40:4Z</time></trkpt>
<trkpt lat="46.2686691284179688" lon="7.7871642112731934"><ele></ele><time>2014-10-15T20:40:7Z</time></trkpt>
<trkpt lat="46.2686920166015625" lon="7.7872309684753418"><ele></ele><time>2014-10-15T20:40:10Z</time></trkpt>
<trkpt lat="46.2687339782714844" lon="7.7873086929321289"><ele></ele><time>2014-10-15T20:40:13Z</time></trkpt>
<trkpt lat="46.2687644958496094" lon="7.7873554229736328"><ele></ele><time>2014-10-15T20:40:16Z</time></trkpt>
<trkpt lat="46.2688026428222656" lon="7.7874555587768555"><ele></ele><time>2014-10-15T20:40:19Z</time></trkpt>
<trkpt lat="46.2688293457031250" lon="7.7875385284423828"><ele></ele><time>2014-10-15T20:40:22Z</time></trkpt>
<trkpt lat="46.2688522338867188" lon="7.7875943183898926"><ele></ele><time>2014-10-15T20:40:25Z</time></trkpt>
<trkpt lat="46.2689056396484375" lon="7.7876839637756348"><ele></ele><time>2014-10-15T20:40:28Z</time></trkpt>
<trkpt lat="46.2689437866210938" lon="7.7877330780029297"><ele></ele><time>2014-10-15T20:40:31Z</time></trkpt>
<trkpt lat="46.2690048217773438" lon="7.7878150939941406"><ele></ele><time>2014-10-15T20:40:34Z</time></trkpt>
<trkpt lat="46.2690773010253906" lon="7.7878699302673340"><ele></ele><time>2014-10-15T20:40:37Z</time></trkpt>
<trkpt lat="46.2691230773925781" lon="7.7878923416137695"><ele></ele><time>2014-10-15T20:40:40Z</time></trkpt>
<trkpt lat="46.2691688537597656" lon="7.7879195213317871"><ele></ele><time>2014-10-15T20:40:43Z</time></trkpt>
<trkpt lat="46.2692222595214844" lon="7.7879695892333984"><ele></ele><time>2014-10-15T20:40:46Z</time></trkpt>
<trkpt lat="46.2692604064941406" lon="7.7880535125732422"><ele></ele><time>2014-10-15T20:40:49Z</time></trkpt>
<trkpt lat="46.2692985534667969" lon="7.7881507873535156"><ele></ele><time>2014-10-15T20:40:52Z</time></trkpt>
<trkpt lat="46.2693252563476562" lon="7.7882127761840820"><ele></ele><time>2014-10-15T20:40:55Z</time></trkpt>
<trkpt lat="46.2693634033203125" lon="7.7882671356201172"><ele></ele><time>2014-10-15T20:40:58Z</time></trkpt>
<trkpt lat="46.2694244384765625" lon="7.7883563041687012"><ele></ele><time>2014-10-15T20:41:1Z</time></trkpt>
<trkpt lat="46.2694625854492188" lon="7.7884335517883301"><ele></ele><time>2014-10-15T20:41:4Z</time></trkpt>
<trkpt lat="46.2695198059082031" lon="7.7885422706604004"><ele></ele><time>2014-10-15T20:41:7Z</time></trkpt>
<trkpt lat="46.2695732116699219" lon="7.7886419296264648"><ele></ele><time>2014-10-15T20:41:10Z</time></trkpt>
<trkpt lat="46.2696113586425781" lon="7.7887396812438965"><ele></ele><time>2014-10-15T20:41:13Z</time></trkpt>
<trkpt lat="46.2696380615234375" lon="7.7888002395629883"><ele></ele><time>2014-10-15T20:41:16Z</time></trkpt>
<trkpt lat="46.2696800231933594" lon="7.7888870239257812"><ele></ele><time>2014-10-15T20:41:19Z</time></trkpt>
<trkpt lat="46.2697067260742188" lon="7.7889294624328613"><ele></ele><time>2014-10-15T20:41:22Z</time></trkpt>
<trkpt lat="46.2697448730468750" lon="7.7890224456787109"><ele></ele><time>2014-10-15T20:41:25Z</time></trkpt>
<trkpt lat="46.2697677612304688" lon="7.7890868186950684"><ele></ele><time>2014-10-15T20:41:28Z</time></trkpt>
<trkpt lat="46.2697868347167969" lon="7.7891454696655273"><ele></ele><time>2014-10-15T20:41:31Z</time></trkpt>
<trkpt lat="46.2698059082031250" lon="7.7891931533813477"><ele></ele><time>2014-10-15T20:41:34Z</time></trkpt>
<trkpt lat="46.2698287963867188" lon="7.7892341613769531"><ele></ele><time>2014-10-15T20:41:37Z</time></trkpt>
<trkpt lat="46.2698631286621094" lon="7.7893185615539551"><ele></ele><time>2014-10-15T20:41:40Z</time></trkpt>
<trkpt lat="46.2698822021484375" lon="7.7893695831298828"><ele></ele><time>2014-10-15T20:41:43Z</time></trkpt>
<trkpt lat="46.2699012756347656" lon="7.7894606590270996"><ele></ele><time>2014-10-15T20:41:46Z</time></trkpt>
<trkpt lat="46.2699203491210938" lon="7.7895507812500000"><ele></ele><time>2014-10-15T20:41:49Z</time></trkpt>
<trkpt lat="46.2699394226074219" lon="7.7896585464477539"><ele></ele><time>2014-10-15T20:41:52Z</time></trkpt>
<trkpt lat="46.2699661254882812" lon="7.7897429466247559"><ele></ele><time>2014-10-15T20:41:55Z</time></trkpt>
<trkpt lat="46.2699851989746094" lon="7.7897934913635254"><ele></ele><time>2014-10-15T20:41:58Z</time></trkpt>
<trkpt lat="46.2700080871582031" lon="7.7898449897766113"><ele></ele><time>2014-10-15T20:42:1Z</time></trkpt>
<trkpt lat="46.2700462341308594" lon="7.7899208068847656"><ele></ele><time>2014-10-15T20:42:4Z</time></trkpt>
<trkpt lat="46.2700729370117188" lon="7.7899799346923828"><ele></ele><time>2014-10-15T20:42:7Z</time></trkpt>
<trkpt lat="46.2701110839843750" lon="7.7900724411010742"><ele></ele><time>2014-10-15T20:42:10Z</time></trkpt>
<trkpt lat="46.2701339721679688" lon="7.7901310920715332"><ele></ele><time>2014-10-15T20:42:13Z</time></trkpt>
<trkpt lat="46.2701606750488281" lon="7.7901830673217773"><ele></ele><time>2014-10-15T20:42:16Z</time></trkpt>
<trkpt lat="46.2701797485351562" lon="7.7902340888977051"><ele></ele><time>2014-10-15T20:42:19Z</time></trkpt>
<trkpt lat="46.2702102661132812" lon="7.7903089523315430"><ele></ele><time>2014-10-15T20:42:22Z</time></trkpt>
<trkpt lat="46.2702369689941406" lon="7.7904000282287598"><ele></ele><time>2014-10-15T20:42:25Z</time></trkpt>
<trkpt lat="46.2702789306640625" lon="7.7904944419860840"><ele></ele><time>2014-10-15T20:42:28Z</time></trkpt>
<trkpt lat="46.2703208923339844" lon="7.7905735969543457"><ele></ele><time>2014-10-15T20:42:31Z</time></trkpt>
<trkpt lat="46.2703361511230469" lon="7.7906355857849121"><ele></ele><time>2014-10-15T20:42:34Z</time></trkpt>
<trkpt lat="46.2703552246093750" lon="7.7907371520996094"><ele></ele><time>2014-10-15T20:42:37Z</time></trkpt>
<trkpt lat="46.2703781127929688" lon="7.7908229827880859"><ele></ele><time>2014-10-15T20:42:40Z</time></trkpt>
<trkpt lat="46.2704048156738281" lon="7.7909011840820312"><ele></ele><time>2014-10-15T20:42:43Z</time></trkpt>
<trkpt lat="46.2704200744628906" lon="7.7909650802612305"><ele></ele><time>2014-10-15T20:42:46Z</time></trkpt>
<trkpt lat="46.2704467773437500" lon="7.7910547256469727"><ele></ele><time>2014-10-15T20:42:49Z</time></trkpt>
<trkpt lat="46.2704582214355469" lon="7.7910923957824707"><ele></ele><time>2014-10-15T20:42:52Z</time></trkpt>
<trkpt lat="46.2704658508300781" lon="7.7911305427551270"><ele></ele><time>2014-10-15T20:42:55Z</time></trkpt>
<trkpt lat="46.2704696655273438" lon="7.7911896705627441"><ele></ele><time>2014-10-15T20:42:58Z</time></trkpt>
<trkpt lat="46.2704696655273438" lon="7.7912292480468750"><ele></ele><time>2014-10-15T20:43:1Z</time></trkpt>
<trkpt lat="46.2704696655273438" lon="7.7912840843200684"><ele></ele><time>2014-10-15T20:43:4Z</time></trkpt>
<trkpt lat="46.2704582214355469" lon="7.7913141250610352"><ele></ele><time>2014-10-15T20:43:7Z</time></trkpt>
<trkpt lat="46.2704353332519531" lon="7.7913413047790527"><ele></ele><time>2014-10-15T20:43:10Z</time></trkpt>
<trkpt lat="46.2704277038574219" lon="7.7914276123046875"><ele></ele><time>2014-10-15T20:43:13Z</time></trkpt>
<trkpt lat="46.2704353332519531" lon="7.7915320396423340"><ele></ele><time>2014-10-15T20:43:16Z</time></trkpt>
<trkpt lat="46.2704544067382812" lon="7.7917022705078125"><ele></ele><time>2014-10-15T20:43:19Z</time></trkpt>
<trkpt lat="46.2704582214355469" lon="7.7918596267700195"><ele></ele><time>2014-10-15T20:43:22Z</time></trkpt>
<trkpt lat="46.2704772949218750" lon="7.7919526100158691"><ele></ele><time>2014-10-15T20:43:25Z</time></trkpt>
<trkpt lat="46.2704887390136719" lon="7.7920541763305664"><ele></ele><time>2014-10-15T20:43:28Z</time></trkpt>
<trkpt lat="46.2704849243164062" lon="7.7921562194824219"><ele></ele><time>2014-10-15T20:43:31Z</time></trkpt>
<trkpt lat="46.2704811096191406" lon="7.7922205924987793"><ele></ele><time>2014-10-15T20:43:34Z</time></trkpt>
<trkpt lat="46.2704734802246094" lon="7.7923121452331543"><ele></ele><time>2014-10-15T20:43:37Z</time></trkpt>
<trkpt lat="46.2704620361328125" lon="7.7923603057861328"><ele></ele><time>2014-10-15T20:43:40Z</time></trkpt>
<trkpt lat="46.2704315185546875" lon="7.7924242019653320"><ele></ele><time>2014-10-15T20:43:43Z</time></trkpt>
<trkpt lat="46.2704086303710938" lon="7.7924861907958984"><ele></ele><time>2014-10-15T20:43:46Z</time></trkpt>
<trkpt lat="46.2703819274902344" lon="7.7925419807434082"><ele></ele><time>2014-10-15T20:43:49Z</time></trkpt>
<trkpt lat="46.2703514099121094" lon="7.7926220893859863"><ele></ele><time>2014-10-15T20:43:52Z</time></trkpt>
<trkpt lat="46.2703437805175781" lon="7.7926831245422363"><ele></ele><time>2014-10-15T20:43:55Z</time></trkpt>
<trkpt lat="46.2703514099121094" lon="7.7927856445312500"><ele></ele><time>2014-10-15T20:43:58Z</time></trkpt>
<trkpt lat="46.2703475952148438" lon="7.7928757667541504"><ele></ele><time>2014-10-15T20:44:1Z</time></trkpt>
<trkpt lat="46.2703323364257812" lon="7.7929563522338867"><ele></ele><time>2014-10-15T20:44:4Z</time></trkpt>
<trkpt lat="46.2702980041503906" lon="7.7930011749267578"><ele></ele><time>2014-10-15T20:44:7Z</time></trkpt>
<trkpt lat="46.2702751159667969" lon="7.7930655479431152"><ele></ele><time>2014-10-15T20:44:10Z</time></trkpt>
<trkpt lat="46.2702713012695312" lon="7.7931089401245117"><ele></ele><time>2014-10-15T20:44:13Z</time></trkpt>
<trkpt lat="46.2702751159667969" lon="7.7931513786315918"><ele></ele><time>2014-10-15T20:44:16Z</time></trkpt>
<trkpt lat="46.2702713012695312" lon="7.7932085990905762"><ele></ele><time>2014-10-15T20:44:19Z</time></trkpt>
<trkpt lat="46.2702674865722656" lon="7.7932553291320801"><ele></ele><time>2014-10-15T20:44:22Z</time></trkpt>
<trkpt lat="46.2702560424804688" lon="7.7933073043823242"><ele></ele><time>2014-10-15T20:44:25Z</time></trkpt>
<trkpt lat="46.2702407836914062" lon="7.7933621406555176"><ele></ele><time>2014-10-15T20:44:28Z</time></trkpt>
<trkpt lat="46.2702255249023438" lon="7.7934131622314453"><ele></ele><time>2014-10-15T20:44:31Z</time></trkpt>
<trkpt lat="46.2701873779296875" lon="7.7934761047363281"><ele></ele><time>2014-10-15T20:44:34Z</time></trkpt>
<trkpt lat="46.2701492309570312" lon="7.7935366630554199"><ele></ele><time>2014-10-15T20:44:37Z</time></trkpt>
<trkpt lat="46.2701263427734375" lon="7.7936067581176758"><ele></ele><time>2014-10-15T20:44:40Z</time></trkpt>
<trkpt lat="46.2701110839843750" lon="7.7936563491821289"><ele></ele><time>2014-10-15T20:44:43Z</time></trkpt>
<trkpt lat="46.2701034545898438" lon="7.7937021255493164"><ele></ele><time>2014-10-15T20:44:46Z</time></trkpt>
<trkpt lat="46.2700767517089844" lon="7.7937703132629395"><ele></ele><time>2014-10-15T20:44:49Z</time></trkpt>
<trkpt lat="46.2700424194335938" lon="7.7938179969787598"><ele></ele><time>2014-10-15T20:44:52Z</time></trkpt>
<trkpt lat="46.2699851989746094" lon="7.7938947677612305"><ele></ele><time>2014-10-15T20:44:55Z</time></trkpt>
<trkpt lat="46.2699584960937500" lon="7.7939438819885254"><ele></ele><time>2014-10-15T20:44:58Z</time></trkpt>
<trkpt lat="46.2698974609375000" lon="7.7939949035644531"><ele></ele><time>2014-10-15T20:45:1Z</time></trkpt>
<trkpt lat="46.2698745727539062" lon="7.7940382957458496"><ele></ele><time>2014-10-15T20:45:4Z</time></trkpt>
<trkpt lat="46.2698516845703125" lon="7.7940845489501953"><ele></ele><time>2014-10-15T20:45:7Z</time></trkpt>
<trkpt lat="46.2698364257812500" lon="7.7941627502441406"><ele></ele><time>2014-10-15T20:45:10Z</time></trkpt>
<trkpt lat="46.2698287963867188" lon="7.7942204475402832"><ele></ele><time>2014-10-15T20:45:13Z</time></trkpt>
<trkpt lat="46.2698173522949219" lon="7.7943038940429688"><ele></ele><time>2014-10-15T20:45:16Z</time></trkpt>
<trkpt lat="46.2697982788085938" lon="7.7943716049194336"><ele></ele><time>2014-10-15T20:45:19Z</time></trkpt>
<trkpt lat="46.2697982788085938" lon="7.7944369316101074"><ele></ele><time>2014-10-15T20:45:22Z</time></trkpt>
<trkpt lat="46.2697944641113281" lon="7.7945141792297363"><ele></ele><time>2014-10-15T20:45:25Z</time></trkpt>
<trkpt lat="46.2697753906250000" lon="7.7945647239685059"><ele></ele><time>2014-10-15T20:45:28Z</time></trkpt>
<trkpt lat="46.2697372436523438" lon="7.7946305274963379"><ele></ele><time>2014-10-15T20:45:31Z</time></trkpt>
<trkpt lat="46.2696990966796875" lon="7.7946929931640625"><ele></ele><time>2014-10-15T20:45:34Z</time></trkpt>
<trkpt lat="46.2696723937988281" lon="7.7947430610656738"><ele></ele><time>2014-10-15T20:45:37Z</time></trkpt>
<trkpt lat="46.2696304321289062" lon="7.7947978973388672"><ele></ele><time>2014-10-15T20:45:40Z</time></trkpt>
<trkpt lat="46.2695579528808594" lon="7.7948584556579590"><ele></ele><time>2014-10-15T20:45:43Z</time></trkpt>
<trkpt lat="46.2695236206054688" lon="7.7949028015136719"><ele></ele><time>2014-10-15T20:45:46Z</time></trkpt>
<trkpt lat="46.2695045471191406" lon="7.7949733734130859"><ele></ele><time>2014-10-15T20:45:49Z</time></trkpt>
<trkpt lat="46.2694931030273438" lon="7.7950234413146973"><ele></ele><time>2014-10-15T20:45:52Z</time></trkpt>
<trkpt lat="46.2694625854492188" lon="7.7950658798217773"><ele></ele><time>2014-10-15T20:45:55Z</time></trkpt>
<trkpt lat="46.2694168090820312" lon="7.7951235771179199"><ele></ele><time>2014-10-15T20:45:58Z</time></trkpt>
<trkpt lat="46.2693901062011719" lon="7.7951765060424805"><ele></ele><time>2014-10-15T20:46:1Z</time></trkpt>
<trkpt lat="46.2693481445312500" lon="7.7952342033386230"><ele></ele><time>2014-10-15T20:46:4Z</time></trkpt>
<trkpt lat="46.2692947387695312" lon="7.7952966690063477"><ele></ele><time>2014-10-15T20:46:7Z</time></trkpt>
<trkpt lat="46.2692680358886719" lon="7.7953357696533203"><ele></ele><time>2014-10-15T20:46:10Z</time></trkpt>
<trkpt lat="46.2692565917968750" lon="7.7953786849975586"><ele></ele><time>2014-10-15T20:46:13Z</time></trkpt>
<trkpt lat="46.2692451477050781" lon="7.7954235076904297"><ele></ele><time>2014-10-15T20:46:16Z</time></trkpt>
<trkpt lat="46.2692108154296875" lon="7.7954792976379395"><ele></ele><time>2014-10-15T20:46:19Z</time></trkpt>
<trkpt lat="46.2691574096679688" lon="7.7955183982849121"><ele></ele><time>2014-10-15T20:46:22Z</time></trkpt>
<trkpt lat="46.2691154479980469" lon="7.7955589294433594"><ele></ele><time>2014-10-15T20:46:25Z</time></trkpt>
<trkpt lat="46.2690963745117188" lon="7.7955932617187500"><ele></ele><time>2014-10-15T20:46:28Z</time></trkpt>
<trkpt lat="46.2690811157226562" lon="7.7956624031066895"><ele></ele><time>2014-10-15T20:46:31Z</time></trkpt>
<trkpt lat="46.2690658569335938" lon="7.7957081794738770"><ele></ele><time>2014-10-15T20:46:34Z</time></trkpt>
<trkpt lat="46.2690582275390625" lon="7.7957601547241211"><ele></ele><time>2014-10-15T20:46:37Z</time></trkpt>
<trkpt lat="46.2690505981445312" lon="7.7957954406738281"><ele></ele><time>2014-10-15T20:46:40Z</time></trkpt>
<trkpt lat="46.2690162658691406" lon="7.7958474159240723"><ele></ele><time>2014-10-15T20:46:43Z</time></trkpt>
<trkpt lat="46.2689933776855469" lon="7.7958860397338867"><ele></ele><time>2014-10-15T20:46:46Z</time></trkpt>
<trkpt lat="46.2689514160156250" lon="7.7959361076354980"><ele></ele><time>2014-10-15T20:46:49Z</time></trkpt>
<trkpt lat="46.2688903808593750" lon="7.7959718704223633"><ele></ele><time>2014-10-15T20:46:52Z</time></trkpt>
<trkpt lat="46.2688293457031250" lon="7.7959904670715332"><ele></ele><time>2014-10-15T20:46:55Z</time></trkpt>
<trkpt lat="46.2687721252441406" lon="7.7959985733032227"><ele></ele><time>2014-10-15T20:46:58Z</time></trkpt>
<trkpt lat="46.2686805725097656" lon="7.7960157394409180"><ele></ele><time>2014-10-15T20:47:1Z</time></trkpt>
<trkpt lat="46.2686119079589844" lon="7.7960529327392578"><ele></ele><time>2014-10-15T20:47:4Z</time></trkpt>
<trkpt lat="46.2685699462890625" lon="7.7960748672485352"><ele></ele><time>2014-10-15T20:47:7Z</time></trkpt>
<trkpt lat="46.2685356140136719" lon="7.7961058616638184"><ele></ele><time>2014-10-15T20:47:10Z</time></trkpt>
<trkpt lat="46.2684822082519531" lon="7.7961616516113281"><ele></ele><time>2014-10-15T20:47:13Z</time></trkpt>
<trkpt lat="46.2684402465820312" lon="7.7961931228637695"><ele></ele><time>2014-10-15T20:47:16Z</time></trkpt>
<trkpt lat="46.2684059143066406" lon="7.7962269783020020"><ele></ele><time>2014-10-15T20:47:19Z</time></trkpt>
<trkpt lat="46.2683868408203125" lon="7.7962679862976074"><ele></ele><time>2014-10-15T20:47:22Z</time></trkpt>
<trkpt lat="46.2683753967285156" lon="7.7962908744812012"><ele></ele><time>2014-10-15T20:47:25Z</time></trkpt>
<trkpt lat="46.2683372497558594" lon="7.7963213920593262"><ele></ele><time>2014-10-15T20:47:28Z</time></trkpt>
<trkpt lat="46.2683143615722656" lon="7.7963438034057617"><ele></ele><time>2014-10-15T20:47:31Z</time></trkpt>
<trkpt lat="46.2682723999023438" lon="7.7963733673095703"><ele></ele><time>2014-10-15T20:47:34Z</time></trkpt>
<trkpt lat="46.2682266235351562" lon="7.7964038848876953"><ele></ele><time>2014-10-15T20:47:37Z</time></trkpt>
<trkpt lat="46.2682075500488281" lon="7.7964420318603516"><ele></ele><time>2014-10-15T20:47:40Z</time></trkpt>
<trkpt lat="46.2681732177734375" lon="7.7965011596679688"><ele></ele><time>2014-10-15T20:47:43Z</time></trkpt>
<trkpt lat="46.2681045532226562" lon="7.7965273857116699"><ele></ele><time>2014-10-15T20:47:46Z</time></trkpt>
<trkpt lat="46.2680587768554688" lon="7.7965354919433594"><ele></ele><time>2014-10-15T20:47:49Z</time></trkpt>
<trkpt lat="46.2680168151855469" lon="7.7965435981750488"><ele></ele><time>2014-10-15T20:47:52Z</time></trkpt>
<trkpt lat="46.2679748535156250" lon="7.7965440750122070"><ele></ele><time>2014-10-15T20:47:55Z</time></trkpt>
<trkpt lat="46.2679023742675781" lon="7.7965226173400879"><ele></ele><time>2014-10-15T20:47:58Z</time></trkpt>
<trkpt lat="46.2678604125976562" lon="7.7965106964111328"><ele></ele><time>2014-10-15T20:48:1Z</time></trkpt>
<trkpt lat="46.2678070068359375" lon="7.7965388298034668"><ele></ele><time>2014-10-15T20:48:4Z</time></trkpt>
<trkpt lat="46.2677612304687500" lon="7.7965769767761230"><ele></ele><time>2014-10-15T20:48:7Z</time></trkpt>
<trkpt lat="46.2677192687988281" lon="7.7966284751892090"><ele></ele><time>2014-10-15T20:48:10Z</time></trkpt>
<trkpt lat="46.2676963806152344" lon="7.7966556549072266"><ele></ele><time>2014-10-15T20:48:13Z</time></trkpt>
<trkpt lat="46.2676696777343750" lon="7.7966747283935547"><ele></ele><time>2014-10-15T20:48:16Z</time></trkpt>
<trkpt lat="46.2676315307617188" lon="7.7967052459716797"><ele></ele><time>2014-10-15T20:48:19Z</time></trkpt>
<trkpt lat="46.2676048278808594" lon="7.7967224121093750"><ele></ele><time>2014-10-15T20:48:22Z</time></trkpt>
<trkpt lat="46.2675704956054688" lon="7.7967324256896973"><ele></ele><time>2014-10-15T20:48:25Z</time></trkpt>
<trkpt lat="46.2675018310546875" lon="7.7967381477355957"><ele></ele><time>2014-10-15T20:48:28Z</time></trkpt>
<trkpt lat="46.2674598693847656" lon="7.7967457771301270"><ele></ele><time>2014-10-15T20:48:31Z</time></trkpt>
<trkpt lat="46.2674102783203125" lon="7.7967586517333984"><ele></ele><time>2014-10-15T20:48:34Z</time></trkpt>
<trkpt lat="46.2673797607421875" lon="7.7967748641967773"><ele></ele><time>2014-10-15T20:48:37Z</time></trkpt>
<trkpt lat="46.2673110961914062" lon="7.7967939376831055"><ele></ele><time>2014-10-15T20:48:40Z</time></trkpt>
<trkpt lat="46.2672462463378906" lon="7.7968096733093262"><ele></ele><time>2014-10-15T20:48:43Z</time></trkpt>
<trkpt lat="46.2671966552734375" lon="7.7968072891235352"><ele></ele><time>2014-10-15T20:48:46Z</time></trkpt>
<trkpt lat="46.2671661376953125" lon="7.7968192100524902"><ele></ele><time>2014-10-15T20:48:49Z</time></trkpt>
<trkpt lat="46.2671432495117188" lon="7.7968268394470215"><ele></ele><time>2014-10-15T20:48:52Z</time></trkpt>
<trkpt lat="46.2670974731445312" lon="7.7968149185180664"><ele></ele><time>2014-10-15T20:48:55Z</time></trkpt>
<trkpt lat="46.2670555114746094" lon="7.7967939376831055"><ele></ele><time>2014-10-15T20:48:58Z</time></trkpt>
<trkpt lat="46.2669944763183594" lon="7.7968130111694336"><ele></ele><time>2014-10-15T20:49:1Z</time></trkpt>
<trkpt lat="46.2669448852539062" lon="7.7968335151672363"><ele></ele><time>2014-10-15T20:49:4Z</time></trkpt>
<trkpt lat="46.2668952941894531" lon="7.7968482971191406"><ele></ele><time>2014-10-15T20:49:7Z</time></trkpt>
<trkpt lat="46.2668724060058594" lon="7.7968640327453613"><ele></ele><time>2014-10-15T20:49:10Z</time></trkpt>
<trkpt lat="46.2668190002441406" lon="7.7968769073486328"><ele></ele><time>2014-10-15T20:49:13Z</time></trkpt>
<trkpt lat="46.2667922973632812" lon="7.7969050407409668"><ele></ele><time>2014-10-15T20:49:16Z</time></trkpt>
<trkpt lat="46.2667388916015625" lon="7.7969408035278320"><ele></ele><time>2014-10-15T20:49:19Z</time></trkpt>
<trkpt lat="46.2666854858398438" lon="7.7969708442687988"><ele></ele><time>2014-10-15T20:49:22Z</time></trkpt>
<trkpt lat="46.2666435241699219" lon="7.7970018386840820"><ele></ele><time>2014-10-15T20:49:25Z</time></trkpt>
<trkpt lat="46.2666130065917969" lon="7.7970170974731445"><ele></ele><time>2014-10-15T20:49:28Z</time></trkpt>
<trkpt lat="46.2665557861328125" lon="7.7970247268676758"><ele></ele><time>2014-10-15T20:49:31Z</time></trkpt>
<trkpt lat="46.2665214538574219" lon="7.7970380783081055"><ele></ele><time>2014-10-15T20:49:34Z</time></trkpt>
<trkpt lat="46.2664871215820312" lon="7.7970504760742188"><ele></ele><time>2014-10-15T20:49:37Z</time></trkpt>
<trkpt lat="46.2664337158203125" lon="7.7970652580261230"><ele></ele><time>2014-10-15T20:49:40Z</time></trkpt>
<trkpt lat="46.2663993835449219" lon="7.7970705032348633"><ele></ele><time>2014-10-15T20:49:43Z</time></trkpt>
<trkpt lat="46.2663688659667969" lon="7.7970786094665527"><ele></ele><time>2014-10-15T20:49:46Z</time></trkpt>
<trkpt lat="46.2663383483886719" lon="7.7970867156982422"><ele></ele><time>2014-10-15T20:49:49Z</time></trkpt>
<trkpt lat="46.2663002014160156" lon="7.7970871925354004"><ele></ele><time>2014-10-15T20:49:52Z</time></trkpt>
<trkpt lat="46.2662391662597656" lon="7.7970895767211914"><ele></ele><time>2014-10-15T20:49:55Z</time></trkpt>
<trkpt lat="46.2662010192871094" lon="7.7970919609069824"><ele></ele><time>2014-10-15T20:49:58Z</time></trkpt>
<trkpt lat="46.2661514282226562" lon="7.7971053123474121"><ele></ele><time>2014-10-15T20:50:1Z</time></trkpt>
<trkpt lat="46.2661285400390625" lon="7.7971310615539551"><ele></ele><time>2014-10-15T20:50:4Z</time></trkpt>
<trkpt lat="46.2660713195800781" lon="7.7971396446228027"><ele></ele><time>2014-10-15T20:50:7Z</time></trkpt>
<trkpt lat="46.2660102844238281" lon="7.7971649169921875"><ele></ele><time>2014-10-15T20:50:10Z</time></trkpt>
<trkpt lat="46.2659454345703125" lon="7.7971968650817871"><ele></ele><time>2014-10-15T20:50:13Z</time></trkpt>
<trkpt lat="46.2659111022949219" lon="7.7972202301025391"><ele></ele><time>2014-10-15T20:50:16Z</time></trkpt>
<trkpt lat="46.2658805847167969" lon="7.7972440719604492"><ele></ele><time>2014-10-15T20:50:19Z</time></trkpt>
<trkpt lat="46.2658462524414062" lon="7.7972803115844727"><ele></ele><time>2014-10-15T20:50:22Z</time></trkpt>
<trkpt lat="46.2657890319824219" lon="7.7972931861877441"><ele></ele><time>2014-10-15T20:50:25Z</time></trkpt>
<trkpt lat="46.2657356262207031" lon="7.7972931861877441"><ele></ele><time>2014-10-15T20:50:28Z</time></trkpt>
<trkpt lat="46.2657012939453125" lon="7.7972898483276367"><ele></ele><time>2014-10-15T20:50:31Z</time></trkpt>
<trkpt lat="46.2656631469726562" lon="7.7972846031188965"><ele></ele><time>2014-10-15T20:50:34Z</time></trkpt>
<trkpt lat="46.2656097412109375" lon="7.7972693443298340"><ele></ele><time>2014-10-15T20:50:37Z</time></trkpt>
<trkpt lat="46.2655563354492188" lon="7.7972617149353027"><ele></ele><time>2014-10-15T20:50:40Z</time></trkpt>
<trkpt lat="46.2655258178710938" lon="7.7972579002380371"><ele></ele><time>2014-10-15T20:50:43Z</time></trkpt>
<trkpt lat="46.2654991149902344" lon="7.7972583770751953"><ele></ele><time>2014-10-15T20:50:46Z</time></trkpt>
<trkpt lat="46.2654418945312500" lon="7.7972669601440430"><ele></ele><time>2014-10-15T20:50:49Z</time></trkpt>
<trkpt lat="46.2654037475585938" lon="7.7973194122314453"><ele></ele><time>2014-10-15T20:50:52Z</time></trkpt>
<trkpt lat="46.2653694152832031" lon="7.7973604202270508"><ele></ele><time>2014-10-15T20:50:55Z</time></trkpt>
<trkpt lat="46.2653388977050781" lon="7.7973809242248535"><ele></ele><time>2014-10-15T20:50:58Z</time></trkpt>
<trkpt lat="46.2653045654296875" lon="7.7973823547363281"><ele></ele><time>2014-10-15T20:51:1Z</time></trkpt>
<trkpt lat="46.2652626037597656" lon="7.7973761558532715"><ele></ele><time>2014-10-15T20:51:4Z</time></trkpt>
<trkpt lat="46.2652359008789062" lon="7.7973766326904297"><ele></ele><time>2014-10-15T20:51:7Z</time></trkpt>
<trkpt lat="46.2652015686035156" lon="7.7973799705505371"><ele></ele><time>2014-10-15T20:51:10Z</time></trkpt>
<trkpt lat="46.2651596069335938" lon="7.7973799705505371"><ele></ele><time>2014-10-15T20:51:13Z</time></trkpt>
<trkpt lat="46.2651023864746094" lon="7.7973561286926270"><ele></ele><time>2014-10-15T20:51:16Z</time></trkpt>
<trkpt lat="46.2650604248046875" lon="7.7973389625549316"><ele></ele><time>2014-10-15T20:51:19Z</time></trkpt>
<trkpt lat="46.2650222778320312" lon="7.7973132133483887"><ele></ele><time>2014-10-15T20:51:22Z</time></trkpt>
<trkpt lat="46.2650070190429688" lon="7.7973108291625977"><ele></ele><time>2014-10-15T20:51:25Z</time></trkpt>
<trkpt lat="46.2649841308593750" lon="7.7973227500915527"><ele></ele><time>2014-10-15T20:51:28Z</time></trkpt>
<trkpt lat="46.2649497985839844" lon="7.7973380088806152"><ele></ele><time>2014-10-15T20:51:31Z</time></trkpt>
<trkpt lat="46.2649192810058594" lon="7.7973666191101074"><ele></ele><time>2014-10-15T20:51:34Z</time></trkpt>
<trkpt lat="46.2648658752441406" lon="7.7973952293395996"><ele></ele><time>2014-10-15T20:51:37Z</time></trkpt>
<trkpt lat="46.2648315429687500" lon="7.7974081039428711"><ele></ele><time>2014-10-15T20:51:40Z</time></trkpt>
<trkpt lat="46.2647705078125000" lon="7.7974333763122559"><ele></ele><time>2014-10-15T20:51:43Z</time></trkpt>
<trkpt lat="46.2647285461425781" lon="7.7974557876586914"><ele></ele><time>2014-10-15T20:51:46Z</time></trkpt>
<trkpt lat="46.2646636962890625" lon="7.7974562644958496"><ele></ele><time>2014-10-15T20:51:49Z</time></trkpt>
<trkpt lat="46.2645874023437500" lon="7.7974228858947754"><ele></ele><time>2014-10-15T20:51:52Z</time></trkpt>
<trkpt lat="46.2645492553710938" lon="7.7973890304565430"><ele></ele><time>2014-10-15T20:51:55Z</time></trkpt>
<trkpt lat="46.2644958496093750" lon="7.7973461151123047"><ele></ele><time>2014-10-15T20:51:58Z</time></trkpt>
<trkpt lat="46.2644348144531250" lon="7.7973222732543945"><ele></ele><time>2014-10-15T20:52:1Z</time></trkpt>
<trkpt lat="46.2643356323242188" lon="7.7973284721374512"><ele></ele><time>2014-10-15T20:52:4Z</time></trkpt>
<trkpt lat="46.2642478942871094" lon="7.7973718643188477"><ele></ele><time>2014-10-15T20:52:7Z</time></trkpt>
<trkpt lat="46.2642021179199219" lon="7.7974028587341309"><ele></ele><time>2014-10-15T20:52:10Z</time></trkpt>
<trkpt lat="46.2641944885253906" lon="7.7974200248718262"><ele></ele><time>2014-10-15T20:52:13Z</time></trkpt>
<trkpt lat="46.2641868591308594" lon="7.7974414825439453"><ele></ele><time>2014-10-15T20:52:16Z</time></trkpt>
<trkpt lat="46.2641716003417969" lon="7.7974581718444824"><ele></ele><time>2014-10-15T20:52:19Z</time></trkpt>
<trkpt lat="46.2641410827636719" lon="7.7974915504455566"><ele></ele><time>2014-10-15T20:52:22Z</time></trkpt>
<trkpt lat="46.2640914916992188" lon="7.7975296974182129"><ele></ele><time>2014-10-15T20:52:25Z</time></trkpt>
<trkpt lat="46.2640266418457031" lon="7.7975773811340332"><ele></ele><time>2014-10-15T20:52:28Z</time></trkpt>
<trkpt lat="46.2639923095703125" lon="7.7976145744323730"><ele></ele><time>2014-10-15T20:52:31Z</time></trkpt>
<trkpt lat="46.2639656066894531" lon="7.7976489067077637"><ele></ele><time>2014-10-15T20:52:34Z</time></trkpt>
<trkpt lat="46.2639617919921875" lon="7.7976727485656738"><ele></ele><time>2014-10-15T20:52:37Z</time></trkpt>
<trkpt lat="46.2639694213867188" lon="7.7977051734924316"><ele></ele><time>2014-10-15T20:52:40Z</time></trkpt>
<trkpt lat="46.2639732360839844" lon="7.7977247238159180"><ele></ele><time>2014-10-15T20:52:43Z</time></trkpt>
<trkpt lat="46.2639732360839844" lon="7.7977442741394043"><ele></ele><time>2014-10-15T20:52:46Z</time></trkpt>
<trkpt lat="46.2639503479003906" lon="7.7977743148803711"><ele></ele><time>2014-10-15T20:52:49Z</time></trkpt>
<trkpt lat="46.2639427185058594" lon="7.7978062629699707"><ele></ele><time>2014-10-15T20:52:52Z</time></trkpt>
<trkpt lat="46.2639350891113281" lon="7.7978391647338867"><ele></ele><time>2014-10-15T20:52:55Z</time></trkpt>
<trkpt lat="46.2639198303222656" lon="7.7978839874267578"><ele></ele><time>2014-10-15T20:52:58Z</time></trkpt>
<trkpt lat="46.2638778686523438" lon="7.7979159355163574"><ele></ele><time>2014-10-15T20:53:1Z</time></trkpt>
<trkpt lat="46.2638320922851562" lon="7.7979497909545898"><ele></ele><time>2014-10-15T20:53:4Z</time></trkpt>
<trkpt lat="46.2637710571289062" lon="7.7979564666748047"><ele></ele><time>2014-10-15T20:53:7Z</time></trkpt>
<trkpt lat="46.2637100219726562" lon="7.7979898452758789"><ele></ele><time>2014-10-15T20:53:10Z</time></trkpt>
<trkpt lat="46.2636833190917969" lon="7.7980146408081055"><ele></ele><time>2014-10-15T20:53:13Z</time></trkpt>
<trkpt lat="46.2636756896972656" lon="7.7980237007141113"><ele></ele><time>2014-10-15T20:53:16Z</time></trkpt>
<trkpt lat="46.2636528015136719" lon="7.7980346679687500"><ele></ele><time>2014-10-15T20:53:19Z</time></trkpt>
<trkpt lat="46.2635078430175781" lon="7.7981882095336914"><ele></ele><time>2014-10-15T20:53:22Z</time></trkpt>
<trkpt lat="46.2634582519531250" lon="7.7982220649719238"><ele></ele><time>2014-10-15T20:53:25Z</time></trkpt>
<trkpt lat="46.2634201049804688" lon="7.7982726097106934"><ele></ele><time>2014-10-15T20:53:28Z</time></trkpt>
<trkpt lat="46.2633934020996094" lon="7.7983145713806152"><ele></ele><time>2014-10-15T20:53:31Z</time></trkpt>
<trkpt lat="46.2633476257324219" lon="7.7983345985412598"><ele></ele><time>2014-10-15T20:53:34Z</time></trkpt>
<trkpt lat="46.2633056640625000" lon="7.7983627319335938"><ele></ele><time>2014-10-15T20:53:37Z</time></trkpt>
<trkpt lat="46.2631759643554688" lon="7.7984547615051270"><ele></ele><time>2014-10-15T20:53:40Z</time></trkpt>
<trkpt lat="46.2630996704101562" lon="7.7985272407531738"><ele></ele><time>2014-10-15T20:53:43Z</time></trkpt>
<trkpt lat="46.2630195617675781" lon="7.7985901832580566"><ele></ele><time>2014-10-15T20:53:46Z</time></trkpt>
<trkpt lat="46.2629547119140625" lon="7.7986388206481934"><ele></ele><time>2014-10-15T20:53:49Z</time></trkpt>
<trkpt lat="46.2629089355468750" lon="7.7986655235290527"><ele></ele><time>2014-10-15T20:53:52Z</time></trkpt>
<trkpt lat="46.2628211975097656" lon="7.7986936569213867"><ele></ele><time>2014-10-15T20:53:55Z</time></trkpt>
<trkpt lat="46.2627639770507812" lon="7.7987256050109863"><ele></ele><time>2014-10-15T20:53:58Z</time></trkpt>
<trkpt lat="46.2627220153808594" lon="7.7987699508666992"><ele></ele><time>2014-10-15T20:54:1Z</time></trkpt>
<trkpt lat="46.2627220153808594" lon="7.7988095283508301"><ele></ele><time>2014-10-15T20:54:4Z</time></trkpt>
<trkpt lat="46.2626914978027344" lon="7.7988724708557129"><ele></ele><time>2014-10-15T20:54:7Z</time></trkpt>
<trkpt lat="46.2626495361328125" lon="7.7989335060119629"><ele></ele><time>2014-10-15T20:54:10Z</time></trkpt>
<trkpt lat="46.2626152038574219" lon="7.7989959716796875"><ele></ele><time>2014-10-15T20:54:13Z</time></trkpt>
<trkpt lat="46.2625961303710938" lon="7.7990031242370605"><ele></ele><time>2014-10-15T20:54:16Z</time></trkpt>
<trkpt lat="46.2625846862792969" lon="7.7990021705627441"><ele></ele><time>2014-10-15T20:54:19Z</time></trkpt>
<trkpt lat="46.2625885009765625" lon="7.7990298271179199"><ele></ele><time>2014-10-15T20:54:22Z</time></trkpt>
<trkpt lat="46.2625846862792969" lon="7.7990813255310059"><ele></ele><time>2014-10-15T20:54:25Z</time></trkpt>
<trkpt lat="46.2625846862792969" lon="7.7991142272949219"><ele></ele><time>2014-10-15T20:54:28Z</time></trkpt>
<trkpt lat="46.2625808715820312" lon="7.7991452217102051"><ele></ele><time>2014-10-15T20:54:31Z</time></trkpt>
<trkpt lat="46.2625961303710938" lon="7.7991657257080078"><ele></ele><time>2014-10-15T20:54:34Z</time></trkpt>
<trkpt lat="46.2626075744628906" lon="7.7991757392883301"><ele></ele><time>2014-10-15T20:54:37Z</time></trkpt>
<trkpt lat="46.2627105712890625" lon="7.7992210388183594"><ele></ele><time>2014-10-15T20:54:40Z</time></trkpt>
<trkpt lat="46.2628135681152344" lon="7.7992787361145020"><ele></ele><time>2014-10-15T20:54:43Z</time></trkpt>
<trkpt lat="46.2628440856933594" lon="7.7993469238281250"><ele></ele><time>2014-10-15T20:54:46Z</time></trkpt>
<trkpt lat="46.2628593444824219" lon="7.7993993759155273"><ele></ele><time>2014-10-15T20:54:49Z</time></trkpt>
<trkpt lat="46.2628669738769531" lon="7.7994279861450195"><ele></ele><time>2014-10-15T20:54:52Z</time></trkpt>
<trkpt lat="46.2628936767578125" lon="7.7994523048400879"><ele></ele><time>2014-10-15T20:54:55Z</time></trkpt>
<trkpt lat="46.2629699707031250" lon="7.7995777130126953"><ele></ele><time>2014-10-15T20:54:58Z</time></trkpt>
<trkpt lat="46.2630538940429688" lon="7.7997026443481445"><ele></ele><time>2014-10-15T20:55:1Z</time></trkpt>
<trkpt lat="46.2630805969238281" lon="7.7997651100158691"><ele></ele><time>2014-10-15T20:55:4Z</time></trkpt>
<trkpt lat="46.2630882263183594" lon="7.7997837066650391"><ele></ele><time>2014-10-15T20:55:7Z</time></trkpt>
<trkpt lat="46.2631034851074219" lon="7.7998147010803223"><ele></ele><time>2014-10-15T20:55:10Z</time></trkpt>
<trkpt lat="46.2631072998046875" lon="7.7998471260070801"><ele></ele><time>2014-10-15T20:55:13Z</time></trkpt>
<trkpt lat="46.2631072998046875" lon="7.7998986244201660"><ele></ele><time>2014-10-15T20:55:16Z</time></trkpt>
<trkpt lat="46.2631187438964844" lon="7.7999496459960938"><ele></ele><time>2014-10-15T20:55:19Z</time></trkpt>
<trkpt lat="46.2631492614746094" lon="7.8000121116638184"><ele></ele><time>2014-10-15T20:55:22Z</time></trkpt>
<trkpt lat="46.2631797790527344" lon="7.8000369071960449"><ele></ele><time>2014-10-15T20:55:25Z</time></trkpt>
<trkpt lat="46.2631759643554688" lon="7.8000750541687012"><ele></ele><time>2014-10-15T20:55:28Z</time></trkpt>
<trkpt lat="46.2631797790527344" lon="7.8001084327697754"><ele></ele><time>2014-10-15T20:55:31Z</time></trkpt>
<trkpt lat="46.2631912231445312" lon="7.8001132011413574"><ele></ele><time>2014-10-15T20:55:34Z</time></trkpt>
<trkpt lat="46.2632179260253906" lon="7.8001360893249512"><ele></ele><time>2014-10-15T20:55:37Z</time></trkpt>
<trkpt lat="46.2632369995117188" lon="7.8001885414123535"><ele></ele><time>2014-10-15T20:55:40Z</time></trkpt>
<trkpt lat="46.2632217407226562" lon="7.8002324104309082"><ele></ele><time>2014-10-15T20:55:43Z</time></trkpt>
<trkpt lat="46.2631988525390625" lon="7.8002595901489258"><ele></ele><time>2014-10-15T20:55:46Z</time></trkpt>
<trkpt lat="46.2631912231445312" lon="7.8002901077270508"><ele></ele><time>2014-10-15T20:55:49Z</time></trkpt>
<trkpt lat="46.2631874084472656" lon="7.8003873825073242"><ele></ele><time>2014-10-15T20:55:52Z</time></trkpt>
<trkpt lat="46.2632141113281250" lon="7.8005332946777344"><ele></ele><time>2014-10-15T20:55:55Z</time></trkpt>
<trkpt lat="46.2632331848144531" lon="7.8006772994995117"><ele></ele><time>2014-10-15T20:55:58Z</time></trkpt>
<trkpt lat="46.2632560729980469" lon="7.8007841110229492"><ele></ele><time>2014-10-15T20:56:1Z</time></trkpt>
<trkpt lat="46.2633361816406250" lon="7.8010644912719727"><ele></ele><time>2014-10-15T20:56:4Z</time></trkpt>
<trkpt lat="46.2633285522460938" lon="7.8013420104980469"><ele></ele><time>2014-10-15T20:56:7Z</time></trkpt>
<trkpt lat="46.2632522583007812" lon="7.8014945983886719"><ele></ele><time>2014-10-15T20:56:10Z</time></trkpt>
<trkpt lat="46.2630996704101562" lon="7.8017711639404297"><ele></ele><time>2014-10-15T20:56:13Z</time></trkpt>
<trkpt lat="46.2629280090332031" lon="7.8019480705261230"><ele></ele><time>2014-10-15T20:56:16Z</time></trkpt>
<trkpt lat="46.2628135681152344" lon="7.8020305633544922"><ele></ele><time>2014-10-15T20:56:19Z</time></trkpt>
<trkpt lat="46.2627944946289062" lon="7.8021626472473145"><ele></ele><time>2014-10-15T20:56:22Z</time></trkpt>
<trkpt lat="46.2629394531250000" lon="7.8022208213806152"><ele></ele><time>2014-10-15T20:56:25Z</time></trkpt>
<trkpt lat="46.2631187438964844" lon="7.8022694587707520"><ele></ele><time>2014-10-15T20:56:28Z</time></trkpt>
<trkpt lat="46.2632789611816406" lon="7.8023214340209961"><ele></ele><time>2014-10-15T20:56:31Z</time></trkpt>
<trkpt lat="46.2635116577148438" lon="7.8023872375488281"><ele></ele><time>2014-10-15T20:56:34Z</time></trkpt>
<trkpt lat="46.2637557983398438" lon="7.8025622367858887"><ele></ele><time>2014-10-15T20:56:37Z</time></trkpt>
<trkpt lat="46.2639236450195312" lon="7.8027448654174805"><ele></ele><time>2014-10-15T20:56:40Z</time></trkpt>
<trkpt lat="46.2639923095703125" lon="7.8029680252075195"><ele></ele><time>2014-10-15T20:56:43Z</time></trkpt>
<trkpt lat="46.2640838623046875" lon="7.8032193183898926"><ele></ele><time>2014-10-15T20:56:46Z</time></trkpt>
<trkpt lat="46.2641448974609375" lon="7.8036689758300781"><ele></ele><time>2014-10-15T20:56:49Z</time></trkpt>
<trkpt lat="46.2642173767089844" lon="7.8039870262145996"><ele></ele><time>2014-10-15T20:56:52Z</time></trkpt>
<trkpt lat="46.2644081115722656" lon="7.8043770790100098"><ele></ele><time>2014-10-15T20:56:55Z</time></trkpt>
<trkpt lat="46.2646522521972656" lon="7.8046097755432129"><ele></ele><time>2014-10-15T20:56:58Z</time></trkpt>
<trkpt lat="46.2648391723632812" lon="7.8048505783081055"><ele></ele><time>2014-10-15T20:57:1Z</time></trkpt>
<trkpt lat="46.2649459838867188" lon="7.8050355911254883"><ele></ele><time>2014-10-15T20:57:4Z</time></trkpt>
<trkpt lat="46.2651901245117188" lon="7.8056478500366211"><ele></ele><time>2014-10-15T20:57:7Z</time></trkpt>
<trkpt lat="46.2652626037597656" lon="7.8060994148254395"><ele></ele><time>2014-10-15T20:57:10Z</time></trkpt>
<trkpt lat="46.2652244567871094" lon="7.8064298629760742"><ele></ele><time>2014-10-15T20:57:13Z</time></trkpt>
<trkpt lat="46.2652931213378906" lon="7.8068304061889648"><ele></ele><time>2014-10-15T20:57:16Z</time></trkpt>
<trkpt lat="46.2654151916503906" lon="7.8069958686828613"><ele></ele><time>2014-10-15T20:57:19Z</time></trkpt>
<trkpt lat="46.2655067443847656" lon="7.8071236610412598"><ele></ele><time>2014-10-15T20:57:22Z</time></trkpt>
<trkpt lat="46.2655830383300781" lon="7.8073086738586426"><ele></ele><time>2014-10-15T20:57:25Z</time></trkpt>
<trkpt lat="46.2658042907714844" lon="7.8074331283569336"><ele></ele><time>2014-10-15T20:57:28Z</time></trkpt>
<trkpt lat="46.2659530639648438" lon="7.8075361251831055"><ele></ele><time>2014-10-15T20:57:31Z</time></trkpt>
<trkpt lat="46.2661476135253906" lon="7.8078551292419434"><ele></ele><time>2014-10-15T20:57:34Z</time></trkpt>
<trkpt lat="46.2661514282226562" lon="7.8080825805664062"><ele></ele><time>2014-10-15T20:57:37Z</time></trkpt>
<trkpt lat="46.2661323547363281" lon="7.8083181381225586"><ele></ele><time>2014-10-15T20:57:40Z</time></trkpt>
<trkpt lat="46.2662353515625000" lon="7.8084645271301270"><ele></ele><time>2014-10-15T20:57:43Z</time></trkpt>
<trkpt lat="46.2663688659667969" lon="7.8087310791015625"><ele></ele><time>2014-10-15T20:57:46Z</time></trkpt>
<trkpt lat="46.2663841247558594" lon="7.8091220855712891"><ele></ele><time>2014-10-15T20:57:49Z</time></trkpt>
<trkpt lat="46.2663192749023438" lon="7.8092961311340332"><ele></ele><time>2014-10-15T20:57:52Z</time></trkpt>
<trkpt lat="46.2662582397460938" lon="7.8092975616455078"><ele></ele><time>2014-10-15T20:57:55Z</time></trkpt>
<trkpt lat="46.2662429809570312" lon="7.8093109130859375"><ele></ele><time>2014-10-15T20:57:58Z</time></trkpt>
<trkpt lat="46.2662010192871094" lon="7.8092637062072754"><ele></ele><time>2014-10-15T20:58:1Z</time></trkpt>
<trkpt lat="46.2661933898925781" lon="7.8092594146728516"><ele></ele><time>2014-10-15T20:58:4Z</time></trkpt>
<trkpt lat="46.2661781311035156" lon="7.8092641830444336"><ele></ele><time>2014-10-15T20:58:7Z</time></trkpt>
<trkpt lat="46.2661666870117188" lon="7.8092751502990723"><ele></ele><time>2014-10-15T20:58:10Z</time></trkpt>
<trkpt lat="46.2661590576171875" lon="7.8092551231384277"><ele></ele><time>2014-10-15T20:58:13Z</time></trkpt>
<trkpt lat="46.2661476135253906" lon="7.8092079162597656"><ele></ele><time>2014-10-15T20:58:16Z</time></trkpt>
<trkpt lat="46.2661361694335938" lon="7.8091583251953125"><ele></ele><time>2014-10-15T20:58:19Z</time></trkpt>
<trkpt lat="46.2661285400390625" lon="7.8091197013854980"><ele></ele><time>2014-10-15T20:58:22Z</time></trkpt>
<trkpt lat="46.2661285400390625" lon="7.8090906143188477"><ele></ele><time>2014-10-15T20:58:25Z</time></trkpt>
<trkpt lat="46.2661170959472656" lon="7.8090767860412598"><ele></ele><time>2014-10-15T20:58:28Z</time></trkpt>
<trkpt lat="46.2660751342773438" lon="7.8090629577636719"><ele></ele><time>2014-10-15T20:58:31Z</time></trkpt>
<trkpt lat="46.2660598754882812" lon="7.8090448379516602"><ele></ele><time>2014-10-15T20:58:34Z</time></trkpt>
<trkpt lat="46.2660255432128906" lon="7.8090329170227051"><ele></ele><time>2014-10-15T20:58:37Z</time></trkpt>
<trkpt lat="46.2660293579101562" lon="7.8090190887451172"><ele></ele><time>2014-10-15T20:58:40Z</time></trkpt>
<trkpt lat="46.2660751342773438" lon="7.8089504241943359"><ele></ele><time>2014-10-15T20:58:43Z</time></trkpt>
<trkpt lat="46.2660560607910156" lon="7.8089442253112793"><ele></ele><time>2014-10-15T20:58:46Z</time></trkpt>
<trkpt lat="46.2660369873046875" lon="7.8089394569396973"><ele></ele><time>2014-10-15T20:58:49Z</time></trkpt>
<trkpt lat="46.2660179138183594" lon="7.8089289665222168"><ele></ele><time>2014-10-15T20:58:52Z</time></trkpt>
<trkpt lat="46.2659912109375000" lon="7.8089113235473633"><ele></ele><time>2014-10-15T20:58:55Z</time></trkpt>
<trkpt lat="46.2659759521484375" lon="7.8088979721069336"><ele></ele><time>2014-10-15T20:58:58Z</time></trkpt>
<trkpt lat="46.2659645080566406" lon="7.8088903427124023"><ele></ele><time>2014-10-15T20:59:1Z</time></trkpt>
<trkpt lat="46.2659645080566406" lon="7.8088684082031250"><ele></ele><time>2014-10-15T20:59:4Z</time></trkpt>
<trkpt lat="46.2659606933593750" lon="7.8088560104370117"><ele></ele><time>2014-10-15T20:59:7Z</time></trkpt>
<trkpt lat="46.2659378051757812" lon="7.8088560104370117"><ele></ele><time>2014-10-15T20:59:10Z</time></trkpt>
<trkpt lat="46.2659263610839844" lon="7.8088502883911133"><ele></ele><time>2014-10-15T20:59:13Z</time></trkpt>
<trkpt lat="46.2659149169921875" lon="7.8088440895080566"><ele></ele><time>2014-10-15T20:59:16Z</time></trkpt>
<trkpt lat="46.2658996582031250" lon="7.8088388442993164"><ele></ele><time>2014-10-15T20:59:19Z</time></trkpt>
<trkpt lat="46.2658805847167969" lon="7.8088417053222656"><ele></ele><time>2014-10-15T20:59:22Z</time></trkpt>
<trkpt lat="46.2658615112304688" lon="7.8088417053222656"><ele></ele><time>2014-10-15T20:59:25Z</time></trkpt>
<trkpt lat="46.2658348083496094" lon="7.8088331222534180"><ele></ele><time>2014-10-15T20:59:28Z</time></trkpt>
<trkpt lat="46.2658271789550781" lon="7.8088274002075195"><ele></ele><time>2014-10-15T20:59:31Z</time></trkpt>
<trkpt lat="46.2658004760742188" lon="7.8088364601135254"><ele></ele><time>2014-10-15T20:59:34Z</time></trkpt>
<trkpt lat="46.2657814025878906" lon="7.8088364601135254"><ele></ele><time>2014-10-15T20:59:37Z</time></trkpt>
<trkpt lat="46.2657546997070312" lon="7.8088254928588867"><ele></ele><time>2014-10-15T20:59:40Z</time></trkpt>
<trkpt lat="46.2657318115234375" lon="7.8088097572326660"><ele></ele><time>2014-10-15T20:59:43Z</time></trkpt>
<trkpt lat="46.2657165527343750" lon="7.8088064193725586"><ele></ele><time>2014-10-15T20:59:46Z</time></trkpt>
<trkpt lat="46.2656898498535156" lon="7.8088164329528809"><ele></ele><time>2014-10-15T20:59:49Z</time></trkpt>
<trkpt lat="46.2656669616699219" lon="7.8088231086730957"><ele></ele><time>2014-10-15T20:59:52Z</time></trkpt>
<trkpt lat="46.2656555175781250" lon="7.8088235855102539"><ele></ele><time>2014-10-15T20:59:55Z</time></trkpt>
<trkpt lat="46.2656440734863281" lon="7.8088197708129883"><ele></ele><time>2014-10-15T20:59:58Z</time></trkpt>
<trkpt lat="46.2656250000000000" lon="7.8088250160217285"><ele></ele><time>2014-10-15T21:0:1Z</time></trkpt>
<trkpt lat="46.2656097412109375" lon="7.8088359832763672"><ele></ele><time>2014-10-15T21:0:4Z</time></trkpt>
<trkpt lat="46.2656021118164062" lon="7.8088583946228027"><ele></ele><time>2014-10-15T21:0:7Z</time></trkpt>
<trkpt lat="46.2655906677246094" lon="7.8088970184326172"><ele></ele><time>2014-10-15T21:0:10Z</time></trkpt>
<trkpt lat="46.2655830383300781" lon="7.8089218139648438"><ele></ele><time>2014-10-15T21:0:13Z</time></trkpt>
<trkpt lat="46.2655715942382812" lon="7.8089456558227539"><ele></ele><time>2014-10-15T21:0:16Z</time></trkpt>
<trkpt lat="46.2655601501464844" lon="7.8089613914489746"><ele></ele><time>2014-10-15T21:0:19Z</time></trkpt>
<trkpt lat="46.2655448913574219" lon="7.8089823722839355"><ele></ele><time>2014-10-15T21:0:22Z</time></trkpt>
<trkpt lat="46.2655334472656250" lon="7.8089914321899414"><ele></ele><time>2014-10-15T21:0:25Z</time></trkpt>
<trkpt lat="46.2655143737792969" lon="7.8090105056762695"><ele></ele><time>2014-10-15T21:0:28Z</time></trkpt>
<trkpt lat="46.2654991149902344" lon="7.8090167045593262"><ele></ele><time>2014-10-15T21:0:31Z</time></trkpt>
<trkpt lat="46.2654685974121094" lon="7.8090229034423828"><ele></ele><time>2014-10-15T21:0:34Z</time></trkpt>
<trkpt lat="46.2654495239257812" lon="7.8090271949768066"><ele></ele><time>2014-10-15T21:0:37Z</time></trkpt>
<trkpt lat="46.2654380798339844" lon="7.8090381622314453"><ele></ele><time>2014-10-15T21:0:40Z</time></trkpt>
<trkpt lat="46.2654075622558594" lon="7.8090667724609375"><ele></ele><time>2014-10-15T21:0:43Z</time></trkpt>
<trkpt lat="46.2653961181640625" lon="7.8090944290161133"><ele></ele><time>2014-10-15T21:0:46Z</time></trkpt>
<trkpt lat="46.2653732299804688" lon="7.8091330528259277"><ele></ele><time>2014-10-15T21:0:49Z</time></trkpt>
<trkpt lat="46.2653732299804688" lon="7.8091616630554199"><ele></ele><time>2014-10-15T21:0:52Z</time></trkpt>
<trkpt lat="46.2653656005859375" lon="7.8092103004455566"><ele></ele><time>2014-10-15T21:0:55Z</time></trkpt>
<trkpt lat="46.2653656005859375" lon="7.8092379570007324"><ele></ele><time>2014-10-15T21:0:58Z</time></trkpt>
<trkpt lat="46.2653503417968750" lon="7.8092474937438965"><ele></ele><time>2014-10-15T21:1:1Z</time></trkpt>
<trkpt lat="46.2653121948242188" lon="7.8092637062072754"><ele></ele><time>2014-10-15T21:1:4Z</time></trkpt>
<trkpt lat="46.2652854919433594" lon="7.8092827796936035"><ele></ele><time>2014-10-15T21:1:7Z</time></trkpt>
<trkpt lat="46.2652244567871094" lon="7.8093113899230957"><ele></ele><time>2014-10-15T21:1:10Z</time></trkpt>
<trkpt lat="46.2652053833007812" lon="7.8093414306640625"><ele></ele><time>2014-10-15T21:1:13Z</time></trkpt>
<trkpt lat="46.2651901245117188" lon="7.8093605041503906"><ele></ele><time>2014-10-15T21:1:16Z</time></trkpt>
<trkpt lat="46.2651901245117188" lon="7.8093900680541992"><ele></ele><time>2014-10-15T21:1:19Z</time></trkpt>
<trkpt lat="46.2651824951171875" lon="7.8094339370727539"><ele></ele><time>2014-10-15T21:1:22Z</time></trkpt>
<trkpt lat="46.2651710510253906" lon="7.8094773292541504"><ele></ele><time>2014-10-15T21:1:25Z</time></trkpt>
<trkpt lat="46.2651786804199219" lon="7.8095326423645020"><ele></ele><time>2014-10-15T21:1:28Z</time></trkpt>
<trkpt lat="46.2651596069335938" lon="7.8095774650573730"><ele></ele><time>2014-10-15T21:1:31Z</time></trkpt>
<trkpt lat="46.2651329040527344" lon="7.8096213340759277"><ele></ele><time>2014-10-15T21:1:34Z</time></trkpt>
<trkpt lat="46.2651176452636719" lon="7.8096771240234375"><ele></ele><time>2014-10-15T21:1:37Z</time></trkpt>
<trkpt lat="46.2651100158691406" lon="7.8097472190856934"><ele></ele><time>2014-10-15T21:1:40Z</time></trkpt>
<trkpt lat="46.2651367187500000" lon="7.8097834587097168"><ele></ele><time>2014-10-15T21:1:43Z</time></trkpt>
<trkpt lat="46.2651481628417969" lon="7.8098034858703613"><ele></ele><time>2014-10-15T21:1:46Z</time></trkpt>
<trkpt lat="46.2651405334472656" lon="7.8098316192626953"><ele></ele><time>2014-10-15T21:1:49Z</time></trkpt>
<trkpt lat="46.2651176452636719" lon="7.8098669052124023"><ele></ele><time>2014-10-15T21:1:52Z</time></trkpt>
<trkpt lat="46.2651176452636719" lon="7.8099312782287598"><ele></ele><time>2014-10-15T21:1:55Z</time></trkpt>
<trkpt lat="46.2651176452636719" lon="7.8099770545959473"><ele></ele><time>2014-10-15T21:1:58Z</time></trkpt>
<trkpt lat="46.2651176452636719" lon="7.8100638389587402"><ele></ele><time>2014-10-15T21:2:1Z</time></trkpt>
<trkpt lat="46.2651290893554688" lon="7.8101148605346680"><ele></ele><time>2014-10-15T21:2:4Z</time></trkpt>
<trkpt lat="46.2651405334472656" lon="7.8101730346679688"><ele></ele><time>2014-10-15T21:2:7Z</time></trkpt>
<trkpt lat="46.2651481628417969" lon="7.8102436065673828"><ele></ele><time>2014-10-15T21:2:10Z</time></trkpt>
<trkpt lat="46.2651443481445312" lon="7.8103156089782715"><ele></ele><time>2014-10-15T21:2:13Z</time></trkpt>
<trkpt lat="46.2651329040527344" lon="7.8103632926940918"><ele></ele><time>2014-10-15T21:2:16Z</time></trkpt>
<trkpt lat="46.2651329040527344" lon="7.8104209899902344"><ele></ele><time>2014-10-15T21:2:19Z</time></trkpt>
<trkpt lat="46.2651329040527344" lon="7.8104572296142578"><ele></ele><time>2014-10-15T21:2:22Z</time></trkpt>
<trkpt lat="46.2651252746582031" lon="7.8104958534240723"><ele></ele><time>2014-10-15T21:2:25Z</time></trkpt>
<trkpt lat="46.2651138305664062" lon="7.8105516433715820"><ele></ele><time>2014-10-15T21:2:28Z</time></trkpt>
<trkpt lat="46.2650985717773438" lon="7.8105831146240234"><ele></ele><time>2014-10-15T21:2:31Z</time></trkpt>
<trkpt lat="46.2650794982910156" lon="7.8106322288513184"><ele></ele><time>2014-10-15T21:2:34Z</time></trkpt>
<trkpt lat="46.2650794982910156" lon="7.8106741905212402"><ele></ele><time>2014-10-15T21:2:37Z</time></trkpt>
<trkpt lat="46.2650871276855469" lon="7.8107376098632812"><ele></ele><time>2014-10-15T21:2:40Z</time></trkpt>
<trkpt lat="46.2650871276855469" lon="7.8107972145080566"><ele></ele><time>2014-10-15T21:2:43Z</time></trkpt>
<trkpt lat="46.2650871276855469" lon="7.8108448982238770"><ele></ele><time>2014-10-15T21:2:46Z</time></trkpt>
<trkpt lat="46.2650718688964844" lon="7.8108687400817871"><ele></ele><time>2014-10-15T21:2:49Z</time></trkpt>
<trkpt lat="46.2650566101074219" lon="7.8109016418457031"><ele></ele><time>2014-10-15T21:2:52Z</time></trkpt>
<trkpt lat="46.2650375366210938" lon="7.8109107017517090"><ele></ele><time>2014-10-15T21:2:55Z</time></trkpt>
<trkpt lat="46.2650184631347656" lon="7.8109221458435059"><ele></ele><time>2014-10-15T21:2:58Z</time></trkpt>
<trkpt lat="46.2649765014648438" lon="7.8109450340270996"><ele></ele><time>2014-10-15T21:3:1Z</time></trkpt>
<trkpt lat="46.2649650573730469" lon="7.8109588623046875"><ele></ele><time>2014-10-15T21:3:4Z</time></trkpt>
<trkpt lat="46.2649574279785156" lon="7.8109855651855469"><ele></ele><time>2014-10-15T21:3:7Z</time></trkpt>
<trkpt lat="46.2649574279785156" lon="7.8110175132751465"><ele></ele><time>2014-10-15T21:3:10Z</time></trkpt>
<trkpt lat="46.2649383544921875" lon="7.8110437393188477"><ele></ele><time>2014-10-15T21:3:13Z</time></trkpt>
<trkpt lat="46.2649116516113281" lon="7.8110623359680176"><ele></ele><time>2014-10-15T21:3:16Z</time></trkpt>
<trkpt lat="46.2648963928222656" lon="7.8110928535461426"><ele></ele><time>2014-10-15T21:3:19Z</time></trkpt>
<trkpt lat="46.2649116516113281" lon="7.8111271858215332"><ele></ele><time>2014-10-15T21:3:22Z</time></trkpt>
<trkpt lat="46.2649002075195312" lon="7.8112006187438965"><ele></ele><time>2014-10-15T21:3:25Z</time></trkpt>
<trkpt lat="46.2648963928222656" lon="7.8112721443176270"><ele></ele><time>2014-10-15T21:3:28Z</time></trkpt>
<trkpt lat="46.2649002075195312" lon="7.8113255500793457"><ele></ele><time>2014-10-15T21:3:31Z</time></trkpt>
<trkpt lat="46.2648735046386719" lon="7.8113436698913574"><ele></ele><time>2014-10-15T21:3:34Z</time></trkpt>
<trkpt lat="46.2648582458496094" lon="7.8113746643066406"><ele></ele><time>2014-10-15T21:3:37Z</time></trkpt>
<trkpt lat="46.2648200988769531" lon="7.8114361763000488"><ele></ele><time>2014-10-15T21:3:40Z</time></trkpt>
<trkpt lat="46.2647933959960938" lon="7.8114814758300781"><ele></ele><time>2014-10-15T21:3:43Z</time></trkpt>
<trkpt lat="46.2647590637207031" lon="7.8115415573120117"><ele></ele><time>2014-10-15T21:3:46Z</time></trkpt>
<trkpt lat="46.2647361755371094" lon="7.8115730285644531"><ele></ele><time>2014-10-15T21:3:49Z</time></trkpt>
<trkpt lat="46.2647171020507812" lon="7.8116245269775391"><ele></ele><time>2014-10-15T21:3:52Z</time></trkpt>
<trkpt lat="46.2646942138671875" lon="7.8116440773010254"><ele></ele><time>2014-10-15T21:3:55Z</time></trkpt>
<trkpt lat="46.2646675109863281" lon="7.8116617202758789"><ele></ele><time>2014-10-15T21:3:58Z</time></trkpt>
<trkpt lat="46.2646331787109375" lon="7.8116955757141113"><ele></ele><time>2014-10-15T21:4:1Z</time></trkpt>
<trkpt lat="46.2645874023437500" lon="7.8117361068725586"><ele></ele><time>2014-10-15T21:4:4Z</time></trkpt>
<trkpt lat="46.2645606994628906" lon="7.8117723464965820"><ele></ele><time>2014-10-15T21:4:7Z</time></trkpt>
<trkpt lat="46.2645187377929688" lon="7.8118181228637695"><ele></ele><time>2014-10-15T21:4:10Z</time></trkpt>
<trkpt lat="46.2644958496093750" lon="7.8118495941162109"><ele></ele><time>2014-10-15T21:4:13Z</time></trkpt>
<trkpt lat="46.2644691467285156" lon="7.8118782043457031"><ele></ele><time>2014-10-15T21:4:16Z</time></trkpt>
<trkpt lat="46.2644309997558594" lon="7.8119192123413086"><ele></ele><time>2014-10-15T21:4:19Z</time></trkpt>
<trkpt lat="46.2643928527832031" lon="7.8119487762451172"><ele></ele><time>2014-10-15T21:4:22Z</time></trkpt>
<trkpt lat="46.2643623352050781" lon="7.8119816780090332"><ele></ele><time>2014-10-15T21:4:25Z</time></trkpt>
<trkpt lat="46.2643127441406250" lon="7.8120074272155762"><ele></ele><time>2014-10-15T21:4:28Z</time></trkpt>
<trkpt lat="46.2642898559570312" lon="7.8120198249816895"><ele></ele><time>2014-10-15T21:4:31Z</time></trkpt>
<trkpt lat="46.2642555236816406" lon="7.8120737075805664"><ele></ele><time>2014-10-15T21:4:34Z</time></trkpt>
<trkpt lat="46.2642021179199219" lon="7.8121514320373535"><ele></ele><time>2014-10-15T21:4:37Z</time></trkpt>
<trkpt lat="46.2641105651855469" lon="7.8122606277465820"><ele></ele><time>2014-10-15T21:4:40Z</time></trkpt>
<trkpt lat="46.2640457153320312" lon="7.8123135566711426"><ele></ele><time>2014-10-15T21:4:43Z</time></trkpt>
<trkpt lat="46.2639961242675781" lon="7.8123426437377930"><ele></ele><time>2014-10-15T21:4:46Z</time></trkpt>
<trkpt lat="46.2639236450195312" lon="7.8123641014099121"><ele></ele><time>2014-10-15T21:4:49Z</time></trkpt>
<trkpt lat="46.2638549804687500" lon="7.8124036788940430"><ele></ele><time>2014-10-15T21:4:52Z</time></trkpt>
<trkpt lat="46.2637557983398438" lon="7.8124790191650391"><ele></ele><time>2014-10-15T21:4:55Z</time></trkpt>
<trkpt lat="46.2637023925781250" lon="7.8124780654907227"><ele></ele><time>2014-10-15T21:4:58Z</time></trkpt>
<trkpt lat="46.2636680603027344" lon="7.8124971389770508"><ele></ele><time>2014-10-15T21:5:1Z</time></trkpt>
<trkpt lat="46.2636337280273438" lon="7.8125791549682617"><ele></ele><time>2014-10-15T21:5:4Z</time></trkpt>
<trkpt lat="46.2636260986328125" lon="7.8126211166381836"><ele></ele><time>2014-10-15T21:5:7Z</time></trkpt>
<trkpt lat="46.2636489868164062" lon="7.8126764297485352"><ele></ele><time>2014-10-15T21:5:10Z</time></trkpt>
<trkpt lat="46.2636489868164062" lon="7.8127183914184570"><ele></ele><time>2014-10-15T21:5:13Z</time></trkpt>
<trkpt lat="46.2636184692382812" lon="7.8127698898315430"><ele></ele><time>2014-10-15T21:5:16Z</time></trkpt>
<trkpt lat="46.2635917663574219" lon="7.8128042221069336"><ele></ele><time>2014-10-15T21:5:19Z</time></trkpt>
<trkpt lat="46.2635498046875000" lon="7.8128547668457031"><ele></ele><time>2014-10-15T21:5:22Z</time></trkpt>
<trkpt lat="46.2635231018066406" lon="7.8128967285156250"><ele></ele><time>2014-10-15T21:5:25Z</time></trkpt>
<trkpt lat="46.2634963989257812" lon="7.8129320144653320"><ele></ele><time>2014-10-15T21:5:28Z</time></trkpt>
<trkpt lat="46.2634582519531250" lon="7.8129692077636719"><ele></ele><time>2014-10-15T21:5:31Z</time></trkpt>
<trkpt lat="46.2634201049804688" lon="7.8130125999450684"><ele></ele><time>2014-10-15T21:5:34Z</time></trkpt>
<trkpt lat="46.2633705139160156" lon="7.8130745887756348"><ele></ele><time>2014-10-15T21:5:37Z</time></trkpt>
<trkpt lat="46.2633399963378906" lon="7.8131203651428223"><ele></ele><time>2014-10-15T21:5:40Z</time></trkpt>
<trkpt lat="46.2632827758789062" lon="7.8132052421569824"><ele></ele><time>2014-10-15T21:5:43Z</time></trkpt>
<trkpt lat="46.2632217407226562" lon="7.8132729530334473"><ele></ele><time>2014-10-15T21:5:46Z</time></trkpt>
<trkpt lat="46.2631645202636719" lon="7.8133177757263184"><ele></ele><time>2014-10-15T21:5:49Z</time></trkpt>
<trkpt lat="46.2631263732910156" lon="7.8133473396301270"><ele></ele><time>2014-10-15T21:5:52Z</time></trkpt>
<trkpt lat="46.2630958557128906" lon="7.8133964538574219"><ele></ele><time>2014-10-15T21:5:55Z</time></trkpt>
<trkpt lat="46.2630577087402344" lon="7.8134660720825195"><ele></ele><time>2014-10-15T21:5:58Z</time></trkpt>
<trkpt lat="46.2630691528320312" lon="7.8134832382202148"><ele></ele><time>2014-10-15T21:6:1Z</time></trkpt>
<trkpt lat="46.2630691528320312" lon="7.8135066032409668"><ele></ele><time>2014-10-15T21:6:4Z</time></trkpt>
<trkpt lat="46.2630805969238281" lon="7.8135447502136230"><ele></ele><time>2014-10-15T21:6:7Z</time></trkpt>
<trkpt lat="46.2630767822265625" lon="7.8135795593261719"><ele></ele><time>2014-10-15T21:6:10Z</time></trkpt>
<trkpt lat="46.2630500793457031" lon="7.8136067390441895"><ele></ele><time>2014-10-15T21:6:13Z</time></trkpt>
<trkpt lat="46.2630081176757812" lon="7.8136301040649414"><ele></ele><time>2014-10-15T21:6:16Z</time></trkpt>
<trkpt lat="46.2629394531250000" lon="7.8136644363403320"><ele></ele><time>2014-10-15T21:6:19Z</time></trkpt>
<trkpt lat="46.2629013061523438" lon="7.8137049674987793"><ele></ele><time>2014-10-15T21:6:22Z</time></trkpt>
<trkpt lat="46.2628288269042969" lon="7.8137679100036621"><ele></ele><time>2014-10-15T21:6:25Z</time></trkpt>
<trkpt lat="46.2627868652343750" lon="7.8138136863708496"><ele></ele><time>2014-10-15T21:6:28Z</time></trkpt>
<trkpt lat="46.2627449035644531" lon="7.8138856887817383"><ele></ele><time>2014-10-15T21:6:31Z</time></trkpt>
<trkpt lat="46.2627029418945312" lon="7.8139462471008301"><ele></ele><time>2014-10-15T21:6:34Z</time></trkpt>
<trkpt lat="46.2626762390136719" lon="7.8140187263488770"><ele></ele><time>2014-10-15T21:6:37Z</time></trkpt>
<trkpt lat="46.2626419067382812" lon="7.8140583038330078"><ele></ele><time>2014-10-15T21:6:40Z</time></trkpt>
<trkpt lat="46.2626075744628906" lon="7.8140816688537598"><ele></ele><time>2014-10-15T21:6:43Z</time></trkpt>
<trkpt lat="46.2625427246093750" lon="7.8141064643859863"><ele></ele><time>2014-10-15T21:6:46Z</time></trkpt>
<trkpt lat="46.2624626159667969" lon="7.8141312599182129"><ele></ele><time>2014-10-15T21:6:49Z</time></trkpt>
<trkpt lat="46.2623863220214844" lon="7.8142080307006836"><ele></ele><time>2014-10-15T21:6:52Z</time></trkpt>
<trkpt lat="46.2623634338378906" lon="7.8142642974853516"><ele></ele><time>2014-10-15T21:6:55Z</time></trkpt>
<trkpt lat="46.2623329162597656" lon="7.8143258094787598"><ele></ele><time>2014-10-15T21:6:58Z</time></trkpt>
<trkpt lat="46.2623023986816406" lon="7.8143863677978516"><ele></ele><time>2014-10-15T21:7:1Z</time></trkpt>
<trkpt lat="46.2622871398925781" lon="7.8144588470458984"><ele></ele><time>2014-10-15T21:7:4Z</time></trkpt>
<trkpt lat="46.2622528076171875" lon="7.8145747184753418"><ele></ele><time>2014-10-15T21:7:7Z</time></trkpt>
<trkpt lat="46.2622146606445312" lon="7.8146476745605469"><ele></ele><time>2014-10-15T21:7:10Z</time></trkpt>
<trkpt lat="46.2621650695800781" lon="7.8147420883178711"><ele></ele><time>2014-10-15T21:7:13Z</time></trkpt>
<trkpt lat="46.2621002197265625" lon="7.8148112297058105"><ele></ele><time>2014-10-15T21:7:16Z</time></trkpt>
<trkpt lat="46.2620239257812500" lon="7.8148665428161621"><ele></ele><time>2014-10-15T21:7:19Z</time></trkpt>
<trkpt lat="46.2619819641113281" lon="7.8149013519287109"><ele></ele><time>2014-10-15T21:7:22Z</time></trkpt>
<trkpt lat="46.2619171142578125" lon="7.8149409294128418"><ele></ele><time>2014-10-15T21:7:25Z</time></trkpt>
<trkpt lat="46.2618675231933594" lon="7.8149247169494629"><ele></ele><time>2014-10-15T21:7:28Z</time></trkpt>
<trkpt lat="46.2618103027343750" lon="7.8148984909057617"><ele></ele><time>2014-10-15T21:7:31Z</time></trkpt>
<trkpt lat="46.2617187500000000" lon="7.8148927688598633"><ele></ele><time>2014-10-15T21:7:34Z</time></trkpt>
<trkpt lat="46.2615852355957031" lon="7.8149619102478027"><ele></ele><time>2014-10-15T21:7:37Z</time></trkpt>
<trkpt lat="46.2613716125488281" lon="7.8150534629821777"><ele></ele><time>2014-10-15T21:7:40Z</time></trkpt>
<trkpt lat="46.2611274719238281" lon="7.8150525093078613"><ele></ele><time>2014-10-15T21:7:43Z</time></trkpt>
<trkpt lat="46.2609519958496094" lon="7.8150234222412109"><ele></ele><time>2014-10-15T21:7:46Z</time></trkpt>
<trkpt lat="46.2607841491699219" lon="7.8150153160095215"><ele></ele><time>2014-10-15T21:7:49Z</time></trkpt>
<trkpt lat="46.2606239318847656" lon="7.8150849342346191"><ele></ele><time>2014-10-15T21:7:52Z</time></trkpt>
<trkpt lat="46.2605590820312500" lon="7.8154339790344238"><ele></ele><time>2014-10-15T21:7:55Z</time></trkpt>
<trkpt lat="46.2605400085449219" lon="7.8157367706298828"><ele></ele><time>2014-10-15T21:7:58Z</time></trkpt>
<trkpt lat="46.2605323791503906" lon="7.8159561157226562"><ele></ele><time>2014-10-15T21:8:1Z</time></trkpt>
<trkpt lat="46.2604980468750000" lon="7.8161425590515137"><ele></ele><time>2014-10-15T21:8:4Z</time></trkpt>
<trkpt lat="46.2604675292968750" lon="7.8162579536437988"><ele></ele><time>2014-10-15T21:8:7Z</time></trkpt>
<trkpt lat="46.2604217529296875" lon="7.8163752555847168"><ele></ele><time>2014-10-15T21:8:10Z</time></trkpt>
<trkpt lat="46.2603607177734375" lon="7.8164086341857910"><ele></ele><time>2014-10-15T21:8:13Z</time></trkpt>
<trkpt lat="46.2602615356445312" lon="7.8164019584655762"><ele></ele><time>2014-10-15T21:8:16Z</time></trkpt>
<trkpt lat="46.2601699829101562" lon="7.8163723945617676"><ele></ele><time>2014-10-15T21:8:19Z</time></trkpt>
<trkpt lat="46.2600708007812500" lon="7.8163633346557617"><ele></ele><time>2014-10-15T21:8:22Z</time></trkpt>
<trkpt lat="46.2600021362304688" lon="7.8163518905639648"><ele></ele><time>2014-10-15T21:8:25Z</time></trkpt>
<trkpt lat="46.2599067687988281" lon="7.8163342475891113"><ele></ele><time>2014-10-15T21:8:28Z</time></trkpt>
<trkpt lat="46.2598075866699219" lon="7.8163623809814453"><ele></ele><time>2014-10-15T21:8:31Z</time></trkpt>
<trkpt lat="46.2597465515136719" lon="7.8164491653442383"><ele></ele><time>2014-10-15T21:8:34Z</time></trkpt>
<trkpt lat="46.2597160339355469" lon="7.8165426254272461"><ele></ele><time>2014-10-15T21:8:37Z</time></trkpt>
<trkpt lat="46.2597160339355469" lon="7.8166084289550781"><ele></ele><time>2014-10-15T21:8:40Z</time></trkpt>
<trkpt lat="46.2597045898437500" lon="7.8166718482971191"><ele></ele><time>2014-10-15T21:8:43Z</time></trkpt>
<trkpt lat="46.2596740722656250" lon="7.8167729377746582"><ele></ele><time>2014-10-15T21:8:46Z</time></trkpt>
<trkpt lat="46.2596626281738281" lon="7.8168406486511230"><ele></ele><time>2014-10-15T21:8:49Z</time></trkpt>
<trkpt lat="46.2596435546875000" lon="7.8169412612915039"><ele></ele><time>2014-10-15T21:8:52Z</time></trkpt>
<trkpt lat="46.2596244812011719" lon="7.8170094490051270"><ele></ele><time>2014-10-15T21:8:55Z</time></trkpt>
<trkpt lat="46.2595939636230469" lon="7.8171176910400391"><ele></ele><time>2014-10-15T21:8:58Z</time></trkpt>
<trkpt lat="46.2595748901367188" lon="7.8172307014465332"><ele></ele><time>2014-10-15T21:9:1Z</time></trkpt>
<trkpt lat="46.2595214843750000" lon="7.8173484802246094"><ele></ele><time>2014-10-15T21:9:4Z</time></trkpt>
<trkpt lat="46.2594833374023438" lon="7.8174262046813965"><ele></ele><time>2014-10-15T21:9:7Z</time></trkpt>
<trkpt lat="46.2594261169433594" lon="7.8175411224365234"><ele></ele><time>2014-10-15T21:9:10Z</time></trkpt>
<trkpt lat="46.2593955993652344" lon="7.8176207542419434"><ele></ele><time>2014-10-15T21:9:13Z</time></trkpt>
<trkpt lat="46.2593536376953125" lon="7.8177499771118164"><ele></ele><time>2014-10-15T21:9:16Z</time></trkpt>
<trkpt lat="46.2593193054199219" lon="7.8178782463073730"><ele></ele><time>2014-10-15T21:9:19Z</time></trkpt>
<trkpt lat="46.2592697143554688" lon="7.8179888725280762"><ele></ele><time>2014-10-15T21:9:22Z</time></trkpt>
<trkpt lat="46.2592239379882812" lon="7.8180565834045410"><ele></ele><time>2014-10-15T21:9:25Z</time></trkpt>
<trkpt lat="46.2591552734375000" lon="7.8181414604187012"><ele></ele><time>2014-10-15T21:9:28Z</time></trkpt>
<trkpt lat="46.2591018676757812" lon="7.8181729316711426"><ele></ele><time>2014-10-15T21:9:31Z</time></trkpt>
<trkpt lat="46.2590103149414062" lon="7.8181586265563965"><ele></ele><time>2014-10-15T21:9:34Z</time></trkpt>
<trkpt lat="46.2589645385742188" lon="7.8181071281433105"><ele></ele><time>2014-10-15T21:9:37Z</time></trkpt>
<trkpt lat="46.2588958740234375" lon="7.8180193901062012"><ele></ele><time>2014-10-15T21:9:40Z</time></trkpt>
<trkpt lat="46.2588424682617188" lon="7.8179492950439453"><ele></ele><time>2014-10-15T21:9:43Z</time></trkpt>
<trkpt lat="46.2588157653808594" lon="7.8179326057434082"><ele></ele><time>2014-10-15T21:9:46Z</time></trkpt>
<trkpt lat="46.2587776184082031" lon="7.8179140090942383"><ele></ele><time>2014-10-15T21:9:49Z</time></trkpt>
<trkpt lat="46.2587471008300781" lon="7.8179106712341309"><ele></ele><time>2014-10-15T21:9:52Z</time></trkpt>
<trkpt lat="46.2586898803710938" lon="7.8178963661193848"><ele></ele><time>2014-10-15T21:9:55Z</time></trkpt>
<trkpt lat="46.2586326599121094" lon="7.8178701400756836"><ele></ele><time>2014-10-15T21:9:58Z</time></trkpt>
<trkpt lat="46.2585678100585938" lon="7.8178329467773438"><ele></ele><time>2014-10-15T21:10:1Z</time></trkpt>
<trkpt lat="46.2585220336914062" lon="7.8178234100341797"><ele></ele><time>2014-10-15T21:10:4Z</time></trkpt>
<trkpt lat="46.2584762573242188" lon="7.8178019523620605"><ele></ele><time>2014-10-15T21:10:7Z</time></trkpt>
<trkpt lat="46.2584152221679688" lon="7.8177313804626465"><ele></ele><time>2014-10-15T21:10:10Z</time></trkpt>
<trkpt lat="46.2583694458007812" lon="7.8176808357238770"><ele></ele><time>2014-10-15T21:10:13Z</time></trkpt>
<trkpt lat="46.2583007812500000" lon="7.8176560401916504"><ele></ele><time>2014-10-15T21:10:16Z</time></trkpt>
<trkpt lat="46.2582550048828125" lon="7.8176660537719727"><ele></ele><time>2014-10-15T21:10:19Z</time></trkpt>
<trkpt lat="46.2582168579101562" lon="7.8176999092102051"><ele></ele><time>2014-10-15T21:10:22Z</time></trkpt>
<trkpt lat="46.2581672668457031" lon="7.8177595138549805"><ele></ele><time>2014-10-15T21:10:25Z</time></trkpt>
<trkpt lat="46.2581520080566406" lon="7.8178067207336426"><ele></ele><time>2014-10-15T21:10:28Z</time></trkpt>
<trkpt lat="46.2581367492675781" lon="7.8178596496582031"><ele></ele><time>2014-10-15T21:10:31Z</time></trkpt>
<trkpt lat="46.2581443786621094" lon="7.8179354667663574"><ele></ele><time>2014-10-15T21:10:34Z</time></trkpt>
<trkpt lat="46.2581748962402344" lon="7.8180179595947266"><ele></ele><time>2014-10-15T21:10:37Z</time></trkpt>
<trkpt lat="46.2581863403320312" lon="7.8180747032165527"><ele></ele><time>2014-10-15T21:10:40Z</time></trkpt>
<trkpt lat="46.2581977844238281" lon="7.8181238174438477"><ele></ele><time>2014-10-15T21:10:43Z</time></trkpt>
<trkpt lat="46.2582054138183594" lon="7.8181757926940918"><ele></ele><time>2014-10-15T21:10:46Z</time></trkpt>
<trkpt lat="46.2582130432128906" lon="7.8182229995727539"><ele></ele><time>2014-10-15T21:10:49Z</time></trkpt>
<trkpt lat="46.2582244873046875" lon="7.8183054924011230"><ele></ele><time>2014-10-15T21:10:52Z</time></trkpt>
<trkpt lat="46.2582206726074219" lon="7.8183860778808594"><ele></ele><time>2014-10-15T21:10:55Z</time></trkpt>
<trkpt lat="46.2582206726074219" lon="7.8184447288513184"><ele></ele><time>2014-10-15T21:10:58Z</time></trkpt>
<trkpt lat="46.2581939697265625" lon="7.8185415267944336"><ele></ele><time>2014-10-15T21:11:1Z</time></trkpt>
<trkpt lat="46.2581520080566406" lon="7.8186345100402832"><ele></ele><time>2014-10-15T21:11:4Z</time></trkpt>
<trkpt lat="46.2581176757812500" lon="7.8186888694763184"><ele></ele><time>2014-10-15T21:11:7Z</time></trkpt>
<trkpt lat="46.2580718994140625" lon="7.8187251091003418"><ele></ele><time>2014-10-15T21:11:10Z</time></trkpt>
<trkpt lat="46.2579841613769531" lon="7.8187794685363770"><ele></ele><time>2014-10-15T21:11:13Z</time></trkpt>
<trkpt lat="46.2579231262207031" lon="7.8187952041625977"><ele></ele><time>2014-10-15T21:11:16Z</time></trkpt>
<trkpt lat="46.2578468322753906" lon="7.8187761306762695"><ele></ele><time>2014-10-15T21:11:19Z</time></trkpt>
<trkpt lat="46.2577857971191406" lon="7.8187823295593262"><ele></ele><time>2014-10-15T21:11:22Z</time></trkpt>
<trkpt lat="46.2577209472656250" lon="7.8188109397888184"><ele></ele><time>2014-10-15T21:11:25Z</time></trkpt>
<trkpt lat="46.2576789855957031" lon="7.8188223838806152"><ele></ele><time>2014-10-15T21:11:28Z</time></trkpt>
<trkpt lat="46.2576065063476562" lon="7.8188123703002930"><ele></ele><time>2014-10-15T21:11:31Z</time></trkpt>
<trkpt lat="46.2575607299804688" lon="7.8187894821166992"><ele></ele><time>2014-10-15T21:11:34Z</time></trkpt>
<trkpt lat="46.2575073242187500" lon="7.8187398910522461"><ele></ele><time>2014-10-15T21:11:37Z</time></trkpt>
<trkpt lat="46.2574729919433594" lon="7.8187012672424316"><ele></ele><time>2014-10-15T21:11:40Z</time></trkpt>
<trkpt lat="46.2574386596679688" lon="7.8186774253845215"><ele></ele><time>2014-10-15T21:11:43Z</time></trkpt>
<trkpt lat="46.2573776245117188" lon="7.8186626434326172"><ele></ele><time>2014-10-15T21:11:46Z</time></trkpt>
<trkpt lat="46.2573318481445312" lon="7.8186483383178711"><ele></ele><time>2014-10-15T21:11:49Z</time></trkpt>
<trkpt lat="46.2572631835937500" lon="7.8186230659484863"><ele></ele><time>2014-10-15T21:11:52Z</time></trkpt>
<trkpt lat="46.2571983337402344" lon="7.8186001777648926"><ele></ele><time>2014-10-15T21:11:55Z</time></trkpt>
<trkpt lat="46.2571525573730469" lon="7.8185734748840332"><ele></ele><time>2014-10-15T21:11:58Z</time></trkpt>
<trkpt lat="46.2570877075195312" lon="7.8185682296752930"><ele></ele><time>2014-10-15T21:12:1Z</time></trkpt>
<trkpt lat="46.2570419311523438" lon="7.8185801506042480"><ele></ele><time>2014-10-15T21:12:4Z</time></trkpt>
<trkpt lat="46.2569656372070312" lon="7.8186016082763672"><ele></ele><time>2014-10-15T21:12:7Z</time></trkpt>
<trkpt lat="46.2569313049316406" lon="7.8186364173889160"><ele></ele><time>2014-10-15T21:12:10Z</time></trkpt>
<trkpt lat="46.2568893432617188" lon="7.8187055587768555"><ele></ele><time>2014-10-15T21:12:13Z</time></trkpt>
<trkpt lat="46.2568702697753906" lon="7.8187885284423828"><ele></ele><time>2014-10-15T21:12:16Z</time></trkpt>
<trkpt lat="46.2568550109863281" lon="7.8188381195068359"><ele></ele><time>2014-10-15T21:12:19Z</time></trkpt>
<trkpt lat="46.2568321228027344" lon="7.8189163208007812"><ele></ele><time>2014-10-15T21:12:22Z</time></trkpt>
<trkpt lat="46.2568321228027344" lon="7.8190059661865234"><ele></ele><time>2014-10-15T21:12:25Z</time></trkpt>
<trkpt lat="46.2568283081054688" lon="7.8190693855285645"><ele></ele><time>2014-10-15T21:12:28Z</time></trkpt>
<trkpt lat="46.2568283081054688" lon="7.8191576004028320"><ele></ele><time>2014-10-15T21:12:31Z</time></trkpt>
<trkpt lat="46.2568321228027344" lon="7.8191905021667480"><ele></ele><time>2014-10-15T21:12:34Z</time></trkpt>
<trkpt lat="46.2568664550781250" lon="7.8192367553710938"><ele></ele><time>2014-10-15T21:12:37Z</time></trkpt>
<trkpt lat="46.2569122314453125" lon="7.8192672729492188"><ele></ele><time>2014-10-15T21:12:40Z</time></trkpt>
<trkpt lat="46.2569389343261719" lon="7.8192901611328125"><ele></ele><time>2014-10-15T21:12:43Z</time></trkpt>
<trkpt lat="46.2569732666015625" lon="7.8193430900573730"><ele></ele><time>2014-10-15T21:12:46Z</time></trkpt>
<trkpt lat="46.2569961547851562" lon="7.8193702697753906"><ele></ele><time>2014-10-15T21:12:49Z</time></trkpt>
<trkpt lat="46.2570190429687500" lon="7.8193855285644531"><ele></ele><time>2014-10-15T21:12:52Z</time></trkpt>
<trkpt lat="46.2569885253906250" lon="7.8193869590759277"><ele></ele><time>2014-10-15T21:12:55Z</time></trkpt>
<trkpt lat="46.2569427490234375" lon="7.8196616172790527"><ele></ele><time>2014-10-15T21:12:58Z</time></trkpt>
<trkpt lat="46.2570686340332031" lon="7.8200259208679199"><ele></ele><time>2014-10-15T21:13:1Z</time></trkpt>
<trkpt lat="46.2572250366210938" lon="7.8203454017639160"><ele></ele><time>2014-10-15T21:13:4Z</time></trkpt>
<trkpt lat="46.2573890686035156" lon="7.8205738067626953"><ele></ele><time>2014-10-15T21:13:7Z</time></trkpt>
<trkpt lat="46.2575988769531250" lon="7.8208761215209961"><ele></ele><time>2014-10-15T21:13:10Z</time></trkpt>
<trkpt lat="46.2577705383300781" lon="7.8211302757263184"><ele></ele><time>2014-10-15T21:13:13Z</time></trkpt>
<trkpt lat="46.2577972412109375" lon="7.8212637901306152"><ele></ele><time>2014-10-15T21:13:16Z</time></trkpt>
<trkpt lat="46.2577552795410156" lon="7.8214311599731445"><ele></ele><time>2014-10-15T21:13:19Z</time></trkpt>
<trkpt lat="46.2577133178710938" lon="7.8216195106506348"><ele></ele><time>2014-10-15T21:13:22Z</time></trkpt>
<trkpt lat="46.2577171325683594" lon="7.8217449188232422"><ele></ele><time>2014-10-15T21:13:25Z</time></trkpt>
<trkpt lat="46.2576980590820312" lon="7.8218069076538086"><ele></ele><time>2014-10-15T21:13:28Z</time></trkpt>
<trkpt lat="46.2576751708984375" lon="7.8218550682067871"><ele></ele><time>2014-10-15T21:13:31Z</time></trkpt>
<trkpt lat="46.2576484680175781" lon="7.8219103813171387"><ele></ele><time>2014-10-15T21:13:34Z</time></trkpt>
<trkpt lat="46.2576217651367188" lon="7.8219661712646484"><ele></ele><time>2014-10-15T21:13:37Z</time></trkpt>
<trkpt lat="46.2575912475585938" lon="7.8220119476318359"><ele></ele><time>2014-10-15T21:13:40Z</time></trkpt>
<trkpt lat="46.2575225830078125" lon="7.8220491409301758"><ele></ele><time>2014-10-15T21:13:43Z</time></trkpt>
<trkpt lat="46.2574844360351562" lon="7.8220849037170410"><ele></ele><time>2014-10-15T21:13:46Z</time></trkpt>
<trkpt lat="46.2574691772460938" lon="7.8221354484558105"><ele></ele><time>2014-10-15T21:13:49Z</time></trkpt>
<trkpt lat="46.2574653625488281" lon="7.8222284317016602"><ele></ele><time>2014-10-15T21:13:52Z</time></trkpt>
<trkpt lat="46.2574768066406250" lon="7.8223104476928711"><ele></ele><time>2014-10-15T21:13:55Z</time></trkpt>
<trkpt lat="46.2575149536132812" lon="7.8225026130676270"><ele></ele><time>2014-10-15T21:13:58Z</time></trkpt>
<trkpt lat="46.2575416564941406" lon="7.8226127624511719"><ele></ele><time>2014-10-15T21:14:1Z</time></trkpt>
<trkpt lat="46.2575531005859375" lon="7.8226990699768066"><ele></ele><time>2014-10-15T21:14:4Z</time></trkpt>
<trkpt lat="46.2575683593750000" lon="7.8227491378784180"><ele></ele><time>2014-10-15T21:14:7Z</time></trkpt>
<trkpt lat="46.2575874328613281" lon="7.8228001594543457"><ele></ele><time>2014-10-15T21:14:10Z</time></trkpt>
<trkpt lat="46.2575912475585938" lon="7.8228454589843750"><ele></ele><time>2014-10-15T21:14:13Z</time></trkpt>
<trkpt lat="46.2575950622558594" lon="7.8229341506958008"><ele></ele><time>2014-10-15T21:14:16Z</time></trkpt>
<trkpt lat="46.2575607299804688" lon="7.8230090141296387"><ele></ele><time>2014-10-15T21:14:19Z</time></trkpt>
<trkpt lat="46.2575378417968750" lon="7.8230614662170410"><ele></ele><time>2014-10-15T21:14:22Z</time></trkpt>
<trkpt lat="46.2575340270996094" lon="7.8231978416442871"><ele></ele><time>2014-10-15T21:14:25Z</time></trkpt>
<trkpt lat="46.2575454711914062" lon="7.8232502937316895"><ele></ele><time>2014-10-15T21:14:28Z</time></trkpt>
<trkpt lat="46.2575416564941406" lon="7.8232908248901367"><ele></ele><time>2014-10-15T21:14:31Z</time></trkpt>
<trkpt lat="46.2575225830078125" lon="7.8233222961425781"><ele></ele><time>2014-10-15T21:14:34Z</time></trkpt>
<trkpt lat="46.2574996948242188" lon="7.8233375549316406"><ele></ele><time>2014-10-15T21:14:37Z</time></trkpt>
<trkpt lat="46.2574653625488281" lon="7.8233551979064941"><ele></ele><time>2014-10-15T21:14:40Z</time></trkpt>
<trkpt lat="46.2574501037597656" lon="7.8233933448791504"><ele></ele><time>2014-10-15T21:14:43Z</time></trkpt>
<trkpt lat="46.2574615478515625" lon="7.8234181404113770"><ele></ele><time>2014-10-15T21:14:46Z</time></trkpt>
<trkpt lat="46.2574691772460938" lon="7.8234543800354004"><ele></ele><time>2014-10-15T21:14:49Z</time></trkpt>
<trkpt lat="46.2574768066406250" lon="7.8234767913818359"><ele></ele><time>2014-10-15T21:14:52Z</time></trkpt>
<trkpt lat="46.2574844360351562" lon="7.8235001564025879"><ele></ele><time>2014-10-15T21:14:55Z</time></trkpt>
<trkpt lat="46.2574920654296875" lon="7.8235516548156738"><ele></ele><time>2014-10-15T21:14:58Z</time></trkpt>
<trkpt lat="46.2574844360351562" lon="7.8235826492309570"><ele></ele><time>2014-10-15T21:15:1Z</time></trkpt>
<trkpt lat="46.2574653625488281" lon="7.8235998153686523"><ele></ele><time>2014-10-15T21:15:4Z</time></trkpt>
<trkpt lat="46.2574729919433594" lon="7.8236346244812012"><ele></ele><time>2014-10-15T21:15:7Z</time></trkpt>
<trkpt lat="46.2574691772460938" lon="7.8236708641052246"><ele></ele><time>2014-10-15T21:15:10Z</time></trkpt>
<trkpt lat="46.2574615478515625" lon="7.8237032890319824"><ele></ele><time>2014-10-15T21:15:13Z</time></trkpt>
<trkpt lat="46.2574195861816406" lon="7.8238444328308105"><ele></ele><time>2014-10-15T21:15:16Z</time></trkpt>
<trkpt lat="46.2574119567871094" lon="7.8238992691040039"><ele></ele><time>2014-10-15T21:15:19Z</time></trkpt>
<trkpt lat="46.2573928833007812" lon="7.8239684104919434"><ele></ele><time>2014-10-15T21:15:22Z</time></trkpt>
<trkpt lat="46.2573356628417969" lon="7.8240370750427246"><ele></ele><time>2014-10-15T21:15:25Z</time></trkpt>
<trkpt lat="46.2572975158691406" lon="7.8241105079650879"><ele></ele><time>2014-10-15T21:15:28Z</time></trkpt>
<trkpt lat="46.2572822570800781" lon="7.8241581916809082"><ele></ele><time>2014-10-15T21:15:31Z</time></trkpt>
<trkpt lat="46.2572669982910156" lon="7.8242020606994629"><ele></ele><time>2014-10-15T21:15:34Z</time></trkpt>
<trkpt lat="46.2572593688964844" lon="7.8242526054382324"><ele></ele><time>2014-10-15T21:15:37Z</time></trkpt>
<trkpt lat="46.2572402954101562" lon="7.8242874145507812"><ele></ele><time>2014-10-15T21:15:40Z</time></trkpt>
<trkpt lat="46.2572021484375000" lon="7.8243317604064941"><ele></ele><time>2014-10-15T21:15:43Z</time></trkpt>
<trkpt lat="46.2571830749511719" lon="7.8243570327758789"><ele></ele><time>2014-10-15T21:15:46Z</time></trkpt>
<trkpt lat="46.2571601867675781" lon="7.8243865966796875"><ele></ele><time>2014-10-15T21:15:49Z</time></trkpt>
<trkpt lat="46.2571449279785156" lon="7.8244509696960449"><ele></ele><time>2014-10-15T21:15:52Z</time></trkpt>
<trkpt lat="46.2571449279785156" lon="7.8244962692260742"><ele></ele><time>2014-10-15T21:15:55Z</time></trkpt>
<trkpt lat="46.2571334838867188" lon="7.8245458602905273"><ele></ele><time>2014-10-15T21:15:58Z</time></trkpt>
<trkpt lat="46.2571220397949219" lon="7.8245630264282227"><ele></ele><time>2014-10-15T21:16:1Z</time></trkpt>
<trkpt lat="46.2571372985839844" lon="7.8246116638183594"><ele></ele><time>2014-10-15T21:16:4Z</time></trkpt>
<trkpt lat="46.2571372985839844" lon="7.8246545791625977"><ele></ele><time>2014-10-15T21:16:7Z</time></trkpt>
<trkpt lat="46.2571296691894531" lon="7.8247189521789551"><ele></ele><time>2014-10-15T21:16:10Z</time></trkpt>
<trkpt lat="46.2571334838867188" lon="7.8247704505920410"><ele></ele><time>2014-10-15T21:16:13Z</time></trkpt>
<trkpt lat="46.2571411132812500" lon="7.8248076438903809"><ele></ele><time>2014-10-15T21:16:16Z</time></trkpt>
<trkpt lat="46.2571334838867188" lon="7.8248710632324219"><ele></ele><time>2014-10-15T21:16:19Z</time></trkpt>
<trkpt lat="46.2571411132812500" lon="7.8249316215515137"><ele></ele><time>2014-10-15T21:16:22Z</time></trkpt>
<trkpt lat="46.2571678161621094" lon="7.8249654769897461"><ele></ele><time>2014-10-15T21:16:25Z</time></trkpt>
<trkpt lat="46.2571678161621094" lon="7.8250050544738770"><ele></ele><time>2014-10-15T21:16:28Z</time></trkpt>
<trkpt lat="46.2571220397949219" lon="7.8250207901000977"><ele></ele><time>2014-10-15T21:16:31Z</time></trkpt>
<trkpt lat="46.2570877075195312" lon="7.8250327110290527"><ele></ele><time>2014-10-15T21:16:34Z</time></trkpt>
<trkpt lat="46.2570762634277344" lon="7.8250856399536133"><ele></ele><time>2014-10-15T21:16:37Z</time></trkpt>
<trkpt lat="46.2570610046386719" lon="7.8251109123229980"><ele></ele><time>2014-10-15T21:16:40Z</time></trkpt>
<trkpt lat="46.2570495605468750" lon="7.8251299858093262"><ele></ele><time>2014-10-15T21:16:43Z</time></trkpt>
<trkpt lat="46.2570381164550781" lon="7.8251461982727051"><ele></ele><time>2014-10-15T21:16:46Z</time></trkpt>
<trkpt lat="46.2570381164550781" lon="7.8251972198486328"><ele></ele><time>2014-10-15T21:16:49Z</time></trkpt>
<trkpt lat="46.2570495605468750" lon="7.8252453804016113"><ele></ele><time>2014-10-15T21:16:52Z</time></trkpt>
<trkpt lat="46.2570571899414062" lon="7.8252902030944824"><ele></ele><time>2014-10-15T21:16:55Z</time></trkpt>
<trkpt lat="46.2570495605468750" lon="7.8253455162048340"><ele></ele><time>2014-10-15T21:16:58Z</time></trkpt>
<trkpt lat="46.2570724487304688" lon="7.8254051208496094"><ele></ele><time>2014-10-15T21:17:1Z</time></trkpt>
<trkpt lat="46.2570915222167969" lon="7.8254375457763672"><ele></ele><time>2014-10-15T21:17:4Z</time></trkpt>
<trkpt lat="46.2571182250976562" lon="7.8254828453063965"><ele></ele><time>2014-10-15T21:17:7Z</time></trkpt>
<trkpt lat="46.2571144104003906" lon="7.8255310058593750"><ele></ele><time>2014-10-15T21:17:10Z</time></trkpt>
<trkpt lat="46.2570877075195312" lon="7.8255448341369629"><ele></ele><time>2014-10-15T21:17:13Z</time></trkpt>
<trkpt lat="46.2570571899414062" lon="7.8255624771118164"><ele></ele><time>2014-10-15T21:17:16Z</time></trkpt>
<trkpt lat="46.2570304870605469" lon="7.8255777359008789"><ele></ele><time>2014-10-15T21:17:19Z</time></trkpt>
<trkpt lat="46.2570114135742188" lon="7.8255987167358398"><ele></ele><time>2014-10-15T21:17:22Z</time></trkpt>
<trkpt lat="46.2569770812988281" lon="7.8256244659423828"><ele></ele><time>2014-10-15T21:17:25Z</time></trkpt>
<trkpt lat="46.2569732666015625" lon="7.8256425857543945"><ele></ele><time>2014-10-15T21:17:28Z</time></trkpt>
<trkpt lat="46.2570114135742188" lon="7.8256340026855469"><ele></ele><time>2014-10-15T21:17:31Z</time></trkpt>
<trkpt lat="46.2570457458496094" lon="7.8256430625915527"><ele></ele><time>2014-10-15T21:17:34Z</time></trkpt>
<trkpt lat="46.2570686340332031" lon="7.8256607055664062"><ele></ele><time>2014-10-15T21:17:37Z</time></trkpt>
<trkpt lat="46.2570877075195312" lon="7.8256855010986328"><ele></ele><time>2014-10-15T21:17:40Z</time></trkpt>
<trkpt lat="46.2571296691894531" lon="7.8257207870483398"><ele></ele><time>2014-10-15T21:17:43Z</time></trkpt>
<trkpt lat="46.2571640014648438" lon="7.8257718086242676"><ele></ele><time>2014-10-15T21:17:46Z</time></trkpt>
<trkpt lat="46.2572021484375000" lon="7.8258471488952637"><ele></ele><time>2014-10-15T21:17:49Z</time></trkpt>
<trkpt lat="46.2572250366210938" lon="7.8259015083312988"><ele></ele><time>2014-10-15T21:17:52Z</time></trkpt>
<trkpt lat="46.2572288513183594" lon="7.8259630203247070"><ele></ele><time>2014-10-15T21:17:55Z</time></trkpt>
<trkpt lat="46.2571983337402344" lon="7.8260426521301270"><ele></ele><time>2014-10-15T21:17:58Z</time></trkpt>
<trkpt lat="46.2571411132812500" lon="7.8260893821716309"><ele></ele><time>2014-10-15T21:18:1Z</time></trkpt>
<trkpt lat="46.2570877075195312" lon="7.8261284828186035"><ele></ele><time>2014-10-15T21:18:4Z</time></trkpt>
<trkpt lat="46.2570571899414062" lon="7.8261680603027344"><ele></ele><time>2014-10-15T21:18:7Z</time></trkpt>
<trkpt lat="46.2569923400878906" lon="7.8262219429016113"><ele></ele><time>2014-10-15T21:18:10Z</time></trkpt>
<trkpt lat="46.2569351196289062" lon="7.8262891769409180"><ele></ele><time>2014-10-15T21:18:13Z</time></trkpt>
<trkpt lat="46.2568206787109375" lon="7.8264384269714355"><ele></ele><time>2014-10-15T21:18:16Z</time></trkpt>
<trkpt lat="46.2567176818847656" lon="7.8265466690063477"><ele></ele><time>2014-10-15T21:18:19Z</time></trkpt>
<trkpt lat="46.2566642761230469" lon="7.8265895843505859"><ele></ele><time>2014-10-15T21:18:22Z</time></trkpt>
<trkpt lat="46.2566528320312500" lon="7.8266544342041016"><ele></ele><time>2014-10-15T21:18:25Z</time></trkpt>
<trkpt lat="46.2566604614257812" lon="7.8267130851745605"><ele></ele><time>2014-10-15T21:18:28Z</time></trkpt>
<trkpt lat="46.2566452026367188" lon="7.8268041610717773"><ele></ele><time>2014-10-15T21:18:31Z</time></trkpt>
<trkpt lat="46.2566490173339844" lon="7.8269066810607910"><ele></ele><time>2014-10-15T21:18:34Z</time></trkpt>
<trkpt lat="46.2566680908203125" lon="7.8270130157470703"><ele></ele><time>2014-10-15T21:18:37Z</time></trkpt>
<trkpt lat="46.2566680908203125" lon="7.8270792961120605"><ele></ele><time>2014-10-15T21:18:40Z</time></trkpt>
<trkpt lat="46.2566757202148438" lon="7.8271017074584961"><ele></ele><time>2014-10-15T21:18:43Z</time></trkpt>
<trkpt lat="46.2567100524902344" lon="7.8271079063415527"><ele></ele><time>2014-10-15T21:18:46Z</time></trkpt>
<trkpt lat="46.2567634582519531" lon="7.8271031379699707"><ele></ele><time>2014-10-15T21:18:49Z</time></trkpt>
<trkpt lat="46.2567977905273438" lon="7.8271036148071289"><ele></ele><time>2014-10-15T21:18:52Z</time></trkpt>
<trkpt lat="46.2568550109863281" lon="7.8271222114562988"><ele></ele><time>2014-10-15T21:18:55Z</time></trkpt>
<trkpt lat="46.2569046020507812" lon="7.8271460533142090"><ele></ele><time>2014-10-15T21:18:58Z</time></trkpt>
<trkpt lat="46.2569465637207031" lon="7.8271694183349609"><ele></ele><time>2014-10-15T21:19:1Z</time></trkpt>
<trkpt lat="46.2569885253906250" lon="7.8272213935852051"><ele></ele><time>2014-10-15T21:19:4Z</time></trkpt>
<trkpt lat="46.2570114135742188" lon="7.8272953033447266"><ele></ele><time>2014-10-15T21:19:7Z</time></trkpt>
<trkpt lat="46.2570343017578125" lon="7.8273568153381348"><ele></ele><time>2014-10-15T21:19:10Z</time></trkpt>
<trkpt lat="46.2570686340332031" lon="7.8273806571960449"><ele></ele><time>2014-10-15T21:19:13Z</time></trkpt>
<trkpt lat="46.2570915222167969" lon="7.8273873329162598"><ele></ele><time>2014-10-15T21:19:16Z</time></trkpt>
<trkpt lat="46.2571144104003906" lon="7.8274021148681641"><ele></ele><time>2014-10-15T21:19:19Z</time></trkpt>
<trkpt lat="46.2571144104003906" lon="7.8274168968200684"><ele></ele><time>2014-10-15T21:19:22Z</time></trkpt>
<trkpt lat="46.2571296691894531" lon="7.8274130821228027"><ele></ele><time>2014-10-15T21:19:25Z</time></trkpt>
<trkpt lat="46.2571678161621094" lon="7.8274159431457520"><ele></ele><time>2014-10-15T21:19:28Z</time></trkpt>
<trkpt lat="46.2571449279785156" lon="7.8275098800659180"><ele></ele><time>2014-10-15T21:19:31Z</time></trkpt>
<trkpt lat="46.2571182250976562" lon="7.8275575637817383"><ele></ele><time>2014-10-15T21:19:34Z</time></trkpt>
<trkpt lat="46.2570838928222656" lon="7.8276357650756836"><ele></ele><time>2014-10-15T21:19:37Z</time></trkpt>
<trkpt lat="46.2570800781250000" lon="7.8276810646057129"><ele></ele><time>2014-10-15T21:19:40Z</time></trkpt>
<trkpt lat="46.2570571899414062" lon="7.8277182579040527"><ele></ele><time>2014-10-15T21:19:43Z</time></trkpt>
<trkpt lat="46.2570343017578125" lon="7.8277306556701660"><ele></ele><time>2014-10-15T21:19:46Z</time></trkpt>
<trkpt lat="46.2570381164550781" lon="7.8277668952941895"><ele></ele><time>2014-10-15T21:19:49Z</time></trkpt>
<trkpt lat="46.2570343017578125" lon="7.8277993202209473"><ele></ele><time>2014-10-15T21:19:52Z</time></trkpt>
<trkpt lat="46.2570190429687500" lon="7.8278598785400391"><ele></ele><time>2014-10-15T21:19:55Z</time></trkpt>
<trkpt lat="46.2569847106933594" lon="7.8279376029968262"><ele></ele><time>2014-10-15T21:19:58Z</time></trkpt>
<trkpt lat="46.2569618225097656" lon="7.8279891014099121"><ele></ele><time>2014-10-15T21:20:1Z</time></trkpt>
<trkpt lat="46.2569236755371094" lon="7.8280601501464844"><ele></ele><time>2014-10-15T21:20:4Z</time></trkpt>
<trkpt lat="46.2569007873535156" lon="7.8281340599060059"><ele></ele><time>2014-10-15T21:20:7Z</time></trkpt>
<trkpt lat="46.2568931579589844" lon="7.8281974792480469"><ele></ele><time>2014-10-15T21:20:10Z</time></trkpt>
<trkpt lat="46.2568664550781250" lon="7.8282866477966309"><ele></ele><time>2014-10-15T21:20:13Z</time></trkpt>
<trkpt lat="46.2568168640136719" lon="7.8283472061157227"><ele></ele><time>2014-10-15T21:20:16Z</time></trkpt>
<trkpt lat="46.2567710876464844" lon="7.8283853530883789"><ele></ele><time>2014-10-15T21:20:19Z</time></trkpt>
<trkpt lat="46.2567253112792969" lon="7.8283948898315430"><ele></ele><time>2014-10-15T21:20:22Z</time></trkpt>
<trkpt lat="46.2566795349121094" lon="7.8284049034118652"><ele></ele><time>2014-10-15T21:20:25Z</time></trkpt>
<trkpt lat="46.2566413879394531" lon="7.8284292221069336"><ele></ele><time>2014-10-15T21:20:28Z</time></trkpt>
<trkpt lat="46.2566070556640625" lon="7.8284511566162109"><ele></ele><time>2014-10-15T21:20:31Z</time></trkpt>
<trkpt lat="46.2565536499023438" lon="7.8284897804260254"><ele></ele><time>2014-10-15T21:20:34Z</time></trkpt>
<trkpt lat="46.2565078735351562" lon="7.8285398483276367"><ele></ele><time>2014-10-15T21:20:37Z</time></trkpt>
<trkpt lat="46.2564773559570312" lon="7.8285899162292480"><ele></ele><time>2014-10-15T21:20:40Z</time></trkpt>
<trkpt lat="46.2564277648925781" lon="7.8286528587341309"><ele></ele><time>2014-10-15T21:20:43Z</time></trkpt>
<trkpt lat="46.2563705444335938" lon="7.8287048339843750"><ele></ele><time>2014-10-15T21:20:46Z</time></trkpt>
<trkpt lat="46.2563323974609375" lon="7.8287253379821777"><ele></ele><time>2014-10-15T21:20:49Z</time></trkpt>
<trkpt lat="46.2562980651855469" lon="7.8287382125854492"><ele></ele><time>2014-10-15T21:20:52Z</time></trkpt>
<trkpt lat="46.2562484741210938" lon="7.8287577629089355"><ele></ele><time>2014-10-15T21:20:55Z</time></trkpt>
<trkpt lat="46.2561950683593750" lon="7.8287620544433594"><ele></ele><time>2014-10-15T21:20:58Z</time></trkpt>
<trkpt lat="46.2561645507812500" lon="7.8287649154663086"><ele></ele><time>2014-10-15T21:21:1Z</time></trkpt>
<trkpt lat="46.2561149597167969" lon="7.8287672996520996"><ele></ele><time>2014-10-15T21:21:4Z</time></trkpt>
<trkpt lat="46.2560691833496094" lon="7.8287644386291504"><ele></ele><time>2014-10-15T21:21:7Z</time></trkpt>
<trkpt lat="46.2560234069824219" lon="7.8287768363952637"><ele></ele><time>2014-10-15T21:21:10Z</time></trkpt>
<trkpt lat="46.2559890747070312" lon="7.8287858963012695"><ele></ele><time>2014-10-15T21:21:13Z</time></trkpt>
<trkpt lat="46.2559356689453125" lon="7.8287897109985352"><ele></ele><time>2014-10-15T21:21:16Z</time></trkpt>
<trkpt lat="46.2558746337890625" lon="7.8288164138793945"><ele></ele><time>2014-10-15T21:21:19Z</time></trkpt>
<trkpt lat="46.2558250427246094" lon="7.8288207054138184"><ele></ele><time>2014-10-15T21:21:22Z</time></trkpt>
<trkpt lat="46.2557754516601562" lon="7.8288240432739258"><ele></ele><time>2014-10-15T21:21:25Z</time></trkpt>
<trkpt lat="46.2557106018066406" lon="7.8288369178771973"><ele></ele><time>2014-10-15T21:21:28Z</time></trkpt>
<trkpt lat="46.2556457519531250" lon="7.8288431167602539"><ele></ele><time>2014-10-15T21:21:31Z</time></trkpt>
<trkpt lat="46.2555961608886719" lon="7.8288373947143555"><ele></ele><time>2014-10-15T21:21:34Z</time></trkpt>
<trkpt lat="46.2555236816406250" lon="7.8288226127624512"><ele></ele><time>2014-10-15T21:21:37Z</time></trkpt>
<trkpt lat="46.2554779052734375" lon="7.8287901878356934"><ele></ele><time>2014-10-15T21:21:40Z</time></trkpt>
<trkpt lat="46.2554054260253906" lon="7.8287420272827148"><ele></ele><time>2014-10-15T21:21:43Z</time></trkpt>
<trkpt lat="46.2553634643554688" lon="7.8287220001220703"><ele></ele><time>2014-10-15T21:21:46Z</time></trkpt>
<trkpt lat="46.2553024291992188" lon="7.8286643028259277"><ele></ele><time>2014-10-15T21:21:49Z</time></trkpt>
<trkpt lat="46.2552566528320312" lon="7.8286423683166504"><ele></ele><time>2014-10-15T21:21:52Z</time></trkpt>
<trkpt lat="46.2552032470703125" lon="7.8286147117614746"><ele></ele><time>2014-10-15T21:21:55Z</time></trkpt>
<trkpt lat="46.2551765441894531" lon="7.8285722732543945"><ele></ele><time>2014-10-15T21:21:58Z</time></trkpt>
<trkpt lat="46.2551536560058594" lon="7.8285145759582520"><ele></ele><time>2014-10-15T21:22:1Z</time></trkpt>
<trkpt lat="46.2551345825195312" lon="7.8284440040588379"><ele></ele><time>2014-10-15T21:22:4Z</time></trkpt>
<trkpt lat="46.2551460266113281" lon="7.8283290863037109"><ele></ele><time>2014-10-15T21:22:7Z</time></trkpt>
<trkpt lat="46.2551803588867188" lon="7.8282461166381836"><ele></ele><time>2014-10-15T21:22:10Z</time></trkpt>
<trkpt lat="46.2551994323730469" lon="7.8281750679016113"><ele></ele><time>2014-10-15T21:22:13Z</time></trkpt>
<trkpt lat="46.2551918029785156" lon="7.8281383514404297"><ele></ele><time>2014-10-15T21:22:16Z</time></trkpt>
<trkpt lat="46.2551422119140625" lon="7.8281712532043457"><ele></ele><time>2014-10-15T21:22:19Z</time></trkpt>
<trkpt lat="46.2551155090332031" lon="7.8281946182250977"><ele></ele><time>2014-10-15T21:22:22Z</time></trkpt>
<trkpt lat="46.2551002502441406" lon="7.8282403945922852"><ele></ele><time>2014-10-15T21:22:25Z</time></trkpt>
<trkpt lat="46.2550811767578125" lon="7.8283052444458008"><ele></ele><time>2014-10-15T21:22:28Z</time></trkpt>
<trkpt lat="46.2550621032714844" lon="7.8283481597900391"><ele></ele><time>2014-10-15T21:22:31Z</time></trkpt>
<trkpt lat="46.2550239562988281" lon="7.8284034729003906"><ele></ele><time>2014-10-15T21:22:34Z</time></trkpt>
<trkpt lat="46.2549705505371094" lon="7.8284845352172852"><ele></ele><time>2014-10-15T21:22:37Z</time></trkpt>
<trkpt lat="46.2549209594726562" lon="7.8285408020019531"><ele></ele><time>2014-10-15T21:22:40Z</time></trkpt>
<trkpt lat="46.2548866271972656" lon="7.8286013603210449"><ele></ele><time>2014-10-15T21:22:43Z</time></trkpt>
<trkpt lat="46.2548675537109375" lon="7.8286676406860352"><ele></ele><time>2014-10-15T21:22:46Z</time></trkpt>
<trkpt lat="46.2548637390136719" lon="7.8287239074707031"><ele></ele><time>2014-10-15T21:22:49Z</time></trkpt>
<trkpt lat="46.2548332214355469" lon="7.8287534713745117"><ele></ele><time>2014-10-15T21:22:52Z</time></trkpt>
<trkpt lat="46.2548103332519531" lon="7.8287820816040039"><ele></ele><time>2014-10-15T21:22:55Z</time></trkpt>
<trkpt lat="46.2547798156738281" lon="7.8288016319274902"><ele></ele><time>2014-10-15T21:22:58Z</time></trkpt>
<trkpt lat="46.2547264099121094" lon="7.8287968635559082"><ele></ele><time>2014-10-15T21:23:1Z</time></trkpt>
<trkpt lat="46.2546844482421875" lon="7.8287863731384277"><ele></ele><time>2014-10-15T21:23:4Z</time></trkpt>
<trkpt lat="46.2546234130859375" lon="7.8287773132324219"><ele></ele><time>2014-10-15T21:23:7Z</time></trkpt>
<trkpt lat="46.2545623779296875" lon="7.8288044929504395"><ele></ele><time>2014-10-15T21:23:10Z</time></trkpt>
<trkpt lat="46.2545013427734375" lon="7.8288478851318359"><ele></ele><time>2014-10-15T21:23:13Z</time></trkpt>
<trkpt lat="46.2544670104980469" lon="7.8289308547973633"><ele></ele><time>2014-10-15T21:23:16Z</time></trkpt>
<trkpt lat="46.2544555664062500" lon="7.8290071487426758"><ele></ele><time>2014-10-15T21:23:19Z</time></trkpt>
<trkpt lat="46.2544708251953125" lon="7.8291034698486328"><ele></ele><time>2014-10-15T21:23:22Z</time></trkpt>
<trkpt lat="46.2544784545898438" lon="7.8291730880737305"><ele></ele><time>2014-10-15T21:23:25Z</time></trkpt>
<trkpt lat="46.2544975280761719" lon="7.8292140960693359"><ele></ele><time>2014-10-15T21:23:28Z</time></trkpt>
<trkpt lat="46.2545433044433594" lon="7.8292675018310547"><ele></ele><time>2014-10-15T21:23:31Z</time></trkpt>
<trkpt lat="46.2545852661132812" lon="7.8293476104736328"><ele></ele><time>2014-10-15T21:23:34Z</time></trkpt>
<trkpt lat="46.2546081542968750" lon="7.8293995857238770"><ele></ele><time>2014-10-15T21:23:37Z</time></trkpt>
<trkpt lat="46.2545967102050781" lon="7.8294544219970703"><ele></ele><time>2014-10-15T21:23:40Z</time></trkpt>
<trkpt lat="46.2545814514160156" lon="7.8294396400451660"><ele></ele><time>2014-10-15T21:23:43Z</time></trkpt>
<trkpt lat="46.2545127868652344" lon="7.8293557167053223"><ele></ele><time>2014-10-15T21:23:46Z</time></trkpt>
<trkpt lat="46.2544593811035156" lon="7.8293046951293945"><ele></ele><time>2014-10-15T21:23:49Z</time></trkpt>
<trkpt lat="46.2544136047363281" lon="7.8292622566223145"><ele></ele><time>2014-10-15T21:23:52Z</time></trkpt>
<trkpt lat="46.2543334960937500" lon="7.8291997909545898"><ele></ele><time>2014-10-15T21:23:55Z</time></trkpt>
<trkpt lat="46.2542190551757812" lon="7.8291196823120117"><ele></ele><time>2014-10-15T21:23:58Z</time></trkpt>
<trkpt lat="46.2541236877441406" lon="7.8290228843688965"><ele></ele><time>2014-10-15T21:24:1Z</time></trkpt>
<trkpt lat="46.2540702819824219" lon="7.8289237022399902"><ele></ele><time>2014-10-15T21:24:4Z</time></trkpt>
<trkpt lat="46.2540359497070312" lon="7.8288125991821289"><ele></ele><time>2014-10-15T21:24:7Z</time></trkpt>
<trkpt lat="46.2540245056152344" lon="7.8287062644958496"><ele></ele><time>2014-10-15T21:24:10Z</time></trkpt>
<trkpt lat="46.2539978027343750" lon="7.8286099433898926"><ele></ele><time>2014-10-15T21:24:13Z</time></trkpt>
<trkpt lat="46.2539749145507812" lon="7.8285555839538574"><ele></ele><time>2014-10-15T21:24:16Z</time></trkpt>
<trkpt lat="46.2539520263671875" lon="7.8284993171691895"><ele></ele><time>2014-10-15T21:24:19Z</time></trkpt>
<trkpt lat="46.2539329528808594" lon="7.8284444808959961"><ele></ele><time>2014-10-15T21:24:22Z</time></trkpt>
<trkpt lat="46.2539100646972656" lon="7.8283839225769043"><ele></ele><time>2014-10-15T21:24:25Z</time></trkpt>
<trkpt lat="46.2538795471191406" lon="7.8282914161682129"><ele></ele><time>2014-10-15T21:24:28Z</time></trkpt>
<trkpt lat="46.2538604736328125" lon="7.8281884193420410"><ele></ele><time>2014-10-15T21:24:31Z</time></trkpt>
<trkpt lat="46.2538261413574219" lon="7.8280205726623535"><ele></ele><time>2014-10-15T21:24:34Z</time></trkpt>
<trkpt lat="46.2537918090820312" lon="7.8278927803039551"><ele></ele><time>2014-10-15T21:24:37Z</time></trkpt>
<trkpt lat="46.2537117004394531" lon="7.8277120590209961"><ele></ele><time>2014-10-15T21:24:40Z</time></trkpt>
<trkpt lat="46.2536277770996094" lon="7.8276042938232422"><ele></ele><time>2014-10-15T21:24:43Z</time></trkpt>
<trkpt lat="46.2535018920898438" lon="7.8274989128112793"><ele></ele><time>2014-10-15T21:24:46Z</time></trkpt>
<trkpt lat="46.2533874511718750" lon="7.8274664878845215"><ele></ele><time>2014-10-15T21:24:49Z</time></trkpt>
<trkpt lat="46.2532806396484375" lon="7.8274655342102051"><ele></ele><time>2014-10-15T21:24:52Z</time></trkpt>
<trkpt lat="46.2531547546386719" lon="7.8274846076965332"><ele></ele><time>2014-10-15T21:24:55Z</time></trkpt>
<trkpt lat="46.2529716491699219" lon="7.8275833129882812"><ele></ele><time>2014-10-15T21:24:58Z</time></trkpt>
<trkpt lat="46.2528038024902344" lon="7.8277292251586914"><ele></ele><time>2014-10-15T21:25:1Z</time></trkpt>
<trkpt lat="46.2527046203613281" lon="7.8278174400329590"><ele></ele><time>2014-10-15T21:25:4Z</time></trkpt>
<trkpt lat="46.2526092529296875" lon="7.8279099464416504"><ele></ele><time>2014-10-15T21:25:7Z</time></trkpt>
<trkpt lat="46.2524795532226562" lon="7.8280267715454102"><ele></ele><time>2014-10-15T21:25:10Z</time></trkpt>
<trkpt lat="46.2523956298828125" lon="7.8281011581420898"><ele></ele><time>2014-10-15T21:25:13Z</time></trkpt>
<trkpt lat="46.2523078918457031" lon="7.8281826972961426"><ele></ele><time>2014-10-15T21:25:16Z</time></trkpt>
<trkpt lat="46.2521858215332031" lon="7.8282957077026367"><ele></ele><time>2014-10-15T21:25:19Z</time></trkpt>
<trkpt lat="46.2520751953125000" lon="7.8283991813659668"><ele></ele><time>2014-10-15T21:25:22Z</time></trkpt>
<trkpt lat="46.2519874572753906" lon="7.8285112380981445"><ele></ele><time>2014-10-15T21:25:25Z</time></trkpt>
<trkpt lat="46.2519226074218750" lon="7.8285994529724121"><ele></ele><time>2014-10-15T21:25:28Z</time></trkpt>
<trkpt lat="46.2518577575683594" lon="7.8286910057067871"><ele></ele><time>2014-10-15T21:25:31Z</time></trkpt>
<trkpt lat="46.2517967224121094" lon="7.8287744522094727"><ele></ele><time>2014-10-15T21:25:34Z</time></trkpt>
<trkpt lat="46.2517318725585938" lon="7.8288497924804688"><ele></ele><time>2014-10-15T21:25:37Z</time></trkpt>
<trkpt lat="46.2516326904296875" lon="7.8289580345153809"><ele></ele><time>2014-10-15T21:25:40Z</time></trkpt>
<trkpt lat="46.2515335083007812" lon="7.8290700912475586"><ele></ele><time>2014-10-15T21:25:43Z</time></trkpt>
<trkpt lat="46.2514533996582031" lon="7.8292164802551270"><ele></ele><time>2014-10-15T21:25:46Z</time></trkpt>
<trkpt lat="46.2513771057128906" lon="7.8294014930725098"><ele></ele><time>2014-10-15T21:25:49Z</time></trkpt>
<trkpt lat="46.2513847351074219" lon="7.8295264244079590"><ele></ele><time>2014-10-15T21:25:52Z</time></trkpt>
<trkpt lat="46.2513732910156250" lon="7.8297314643859863"><ele></ele><time>2014-10-15T21:25:55Z</time></trkpt>
<trkpt lat="46.2513656616210938" lon="7.8298487663269043"><ele></ele><time>2014-10-15T21:25:58Z</time></trkpt>
<trkpt lat="46.2513236999511719" lon="7.8299412727355957"><ele></ele><time>2014-10-15T21:26:1Z</time></trkpt>
<trkpt lat="46.2513008117675781" lon="7.8300619125366211"><ele></ele><time>2014-10-15T21:26:4Z</time></trkpt>
<trkpt lat="46.2512741088867188" lon="7.8301763534545898"><ele></ele><time>2014-10-15T21:26:7Z</time></trkpt>
<trkpt lat="46.2512855529785156" lon="7.8301949501037598"><ele></ele><time>2014-10-15T21:26:10Z</time></trkpt>
<trkpt lat="46.2513275146484375" lon="7.8301892280578613"><ele></ele><time>2014-10-15T21:26:13Z</time></trkpt>
<trkpt lat="46.2513542175292969" lon="7.8303351402282715"><ele></ele><time>2014-10-15T21:26:16Z</time></trkpt>
<trkpt lat="46.2513504028320312" lon="7.8305783271789551"><ele></ele><time>2014-10-15T21:26:19Z</time></trkpt>
<trkpt lat="46.2514228820800781" lon="7.8309140205383301"><ele></ele><time>2014-10-15T21:26:22Z</time></trkpt>
<trkpt lat="46.2513618469238281" lon="7.8311142921447754"><ele></ele><time>2014-10-15T21:26:25Z</time></trkpt>
<trkpt lat="46.2512588500976562" lon="7.8314046859741211"><ele></ele><time>2014-10-15T21:26:28Z</time></trkpt>
<trkpt lat="46.2512626647949219" lon="7.8316221237182617"><ele></ele><time>2014-10-15T21:26:31Z</time></trkpt>
<trkpt lat="46.2512779235839844" lon="7.8318233489990234"><ele></ele><time>2014-10-15T21:26:34Z</time></trkpt>
<trkpt lat="46.2513236999511719" lon="7.8321399688720703"><ele></ele><time>2014-10-15T21:26:37Z</time></trkpt>
<trkpt lat="46.2513885498046875" lon="7.8323636054992676"><ele></ele><time>2014-10-15T21:26:40Z</time></trkpt>
<trkpt lat="46.2515716552734375" lon="7.8326716423034668"><ele></ele><time>2014-10-15T21:26:43Z</time></trkpt>
<trkpt lat="46.2518348693847656" lon="7.8328647613525391"><ele></ele><time>2014-10-15T21:26:46Z</time></trkpt>
<trkpt lat="46.2519187927246094" lon="7.8329138755798340"><ele></ele><time>2014-10-15T21:26:49Z</time></trkpt>
<trkpt lat="46.2520561218261719" lon="7.8329849243164062"><ele></ele><time>2014-10-15T21:26:52Z</time></trkpt>
<trkpt lat="46.2528190612792969" lon="7.8326759338378906"><ele></ele><time>2014-10-15T21:26:55Z</time></trkpt>
<trkpt lat="46.2529449462890625" lon="7.8326287269592285"><ele></ele><time>2014-10-15T21:26:58Z</time></trkpt>
<trkpt lat="46.2531166076660156" lon="7.8326725959777832"><ele></ele><time>2014-10-15T21:27:1Z</time></trkpt>
<trkpt lat="46.2532005310058594" lon="7.8328509330749512"><ele></ele><time>2014-10-15T21:27:4Z</time></trkpt>
<trkpt lat="46.2531127929687500" lon="7.8331580162048340"><ele></ele><time>2014-10-15T21:27:7Z</time></trkpt>
<trkpt lat="46.2529411315917969" lon="7.8333563804626465"><ele></ele><time>2014-10-15T21:27:10Z</time></trkpt>
<trkpt lat="46.2527732849121094" lon="7.8335723876953125"><ele></ele><time>2014-10-15T21:27:13Z</time></trkpt>
<trkpt lat="46.2526969909667969" lon="7.8337626457214355"><ele></ele><time>2014-10-15T21:27:16Z</time></trkpt>
<trkpt lat="46.2526130676269531" lon="7.8339452743530273"><ele></ele><time>2014-10-15T21:27:19Z</time></trkpt>
<trkpt lat="46.2524871826171875" lon="7.8342170715332031"><ele></ele><time>2014-10-15T21:27:22Z</time></trkpt>
<trkpt lat="46.2524032592773438" lon="7.8344087600708008"><ele></ele><time>2014-10-15T21:27:25Z</time></trkpt>
<trkpt lat="46.2523384094238281" lon="7.8346128463745117"><ele></ele><time>2014-10-15T21:27:28Z</time></trkpt>
<trkpt lat="46.2523384094238281" lon="7.8348469734191895"><ele></ele><time>2014-10-15T21:27:31Z</time></trkpt>
<trkpt lat="46.2524566650390625" lon="7.8351564407348633"><ele></ele><time>2014-10-15T21:27:34Z</time></trkpt>
<trkpt lat="46.2525787353515625" lon="7.8352537155151367"><ele></ele><time>2014-10-15T21:27:37Z</time></trkpt>
<trkpt lat="46.2527961730957031" lon="7.8352704048156738"><ele></ele><time>2014-10-15T21:27:40Z</time></trkpt>
<trkpt lat="46.2530212402343750" lon="7.8353343009948730"><ele></ele><time>2014-10-15T21:27:43Z</time></trkpt>
<trkpt lat="46.2531776428222656" lon="7.8355665206909180"><ele></ele><time>2014-10-15T21:27:46Z</time></trkpt>
<trkpt lat="46.2531013488769531" lon="7.8358840942382812"><ele></ele><time>2014-10-15T21:27:49Z</time></trkpt>
<trkpt lat="46.2530059814453125" lon="7.8360433578491211"><ele></ele><time>2014-10-15T21:27:52Z</time></trkpt>
<trkpt lat="46.2528228759765625" lon="7.8362479209899902"><ele></ele><time>2014-10-15T21:27:55Z</time></trkpt>
<trkpt lat="46.2527618408203125" lon="7.8365230560302734"><ele></ele><time>2014-10-15T21:27:58Z</time></trkpt>
<trkpt lat="46.2527465820312500" lon="7.8367214202880859"><ele></ele><time>2014-10-15T21:28:1Z</time></trkpt>
<trkpt lat="46.2526512145996094" lon="7.8369812965393066"><ele></ele><time>2014-10-15T21:28:4Z</time></trkpt>
<trkpt lat="46.2526016235351562" lon="7.8371682167053223"><ele></ele><time>2014-10-15T21:28:7Z</time></trkpt>
<trkpt lat="46.2525367736816406" lon="7.8374686241149902"><ele></ele><time>2014-10-15T21:28:10Z</time></trkpt>
<trkpt lat="46.2524948120117188" lon="7.8376941680908203"><ele></ele><time>2014-10-15T21:28:13Z</time></trkpt>
<trkpt lat="46.2524108886718750" lon="7.8378992080688477"><ele></ele><time>2014-10-15T21:28:16Z</time></trkpt>
<trkpt lat="46.2521972656250000" lon="7.8380894660949707"><ele></ele><time>2014-10-15T21:28:19Z</time></trkpt>
<trkpt lat="46.2521247863769531" lon="7.8382616043090820"><ele></ele><time>2014-10-15T21:28:22Z</time></trkpt>
<trkpt lat="46.2520294189453125" lon="7.8384385108947754"><ele></ele><time>2014-10-15T21:28:25Z</time></trkpt>
<trkpt lat="46.2520065307617188" lon="7.8387055397033691"><ele></ele><time>2014-10-15T21:28:28Z</time></trkpt>
<trkpt lat="46.2521018981933594" lon="7.8388228416442871"><ele></ele><time>2014-10-15T21:28:31Z</time></trkpt>
<trkpt lat="46.2522354125976562" lon="7.8390522003173828"><ele></ele><time>2014-10-15T21:28:34Z</time></trkpt>
<trkpt lat="46.2522659301757812" lon="7.8392562866210938"><ele></ele><time>2014-10-15T21:28:37Z</time></trkpt>
<trkpt lat="46.2522315979003906" lon="7.8395829200744629"><ele></ele><time>2014-10-15T21:28:40Z</time></trkpt>
<trkpt lat="46.2522354125976562" lon="7.8397836685180664"><ele></ele><time>2014-10-15T21:28:43Z</time></trkpt>
<trkpt lat="46.2523117065429688" lon="7.8400449752807617"><ele></ele><time>2014-10-15T21:28:46Z</time></trkpt>
<trkpt lat="46.2523498535156250" lon="7.8403229713439941"><ele></ele><time>2014-10-15T21:28:49Z</time></trkpt>
<trkpt lat="46.2523498535156250" lon="7.8405270576477051"><ele></ele><time>2014-10-15T21:28:52Z</time></trkpt>
<trkpt lat="46.2522201538085938" lon="7.8407897949218750"><ele></ele><time>2014-10-15T21:28:55Z</time></trkpt>
<trkpt lat="46.2520599365234375" lon="7.8410296440124512"><ele></ele><time>2014-10-15T21:28:58Z</time></trkpt>
<trkpt lat="46.2519798278808594" lon="7.8413252830505371"><ele></ele><time>2014-10-15T21:29:1Z</time></trkpt>
<trkpt lat="46.2519989013671875" lon="7.8415226936340332"><ele></ele><time>2014-10-15T21:29:4Z</time></trkpt>
<trkpt lat="46.2521553039550781" lon="7.8417363166809082"><ele></ele><time>2014-10-15T21:29:7Z</time></trkpt>
<trkpt lat="46.2521934509277344" lon="7.8419747352600098"><ele></ele><time>2014-10-15T21:29:10Z</time></trkpt>
<trkpt lat="46.2520408630371094" lon="7.8421044349670410"><ele></ele><time>2014-10-15T21:29:13Z</time></trkpt>
<trkpt lat="46.2518844604492188" lon="7.8423161506652832"><ele></ele><time>2014-10-15T21:29:16Z</time></trkpt>
<trkpt lat="46.2517814636230469" lon="7.8424835205078125"><ele></ele><time>2014-10-15T21:29:19Z</time></trkpt>
<trkpt lat="46.2517318725585938" lon="7.8426671028137207"><ele></ele><time>2014-10-15T21:29:22Z</time></trkpt>
<trkpt lat="46.2517204284667969" lon="7.8429837226867676"><ele></ele><time>2014-10-15T21:29:25Z</time></trkpt>
<trkpt lat="46.2516708374023438" lon="7.8432044982910156"><ele></ele><time>2014-10-15T21:29:28Z</time></trkpt>
<trkpt lat="46.2515373229980469" lon="7.8434491157531738"><ele></ele><time>2014-10-15T21:29:31Z</time></trkpt>
<trkpt lat="46.2513732910156250" lon="7.8437151908874512"><ele></ele><time>2014-10-15T21:29:34Z</time></trkpt>
<trkpt lat="46.2511520385742188" lon="7.8440060615539551"><ele></ele><time>2014-10-15T21:29:37Z</time></trkpt>
<trkpt lat="46.2510299682617188" lon="7.8441600799560547"><ele></ele><time>2014-10-15T21:29:40Z</time></trkpt>
<trkpt lat="46.2509460449218750" lon="7.8444890975952148"><ele></ele><time>2014-10-15T21:29:43Z</time></trkpt>
<trkpt lat="46.2510757446289062" lon="7.8447027206420898"><ele></ele><time>2014-10-15T21:29:46Z</time></trkpt>
<trkpt lat="46.2510643005371094" lon="7.8450636863708496"><ele></ele><time>2014-10-15T21:29:49Z</time></trkpt>
<trkpt lat="46.2510643005371094" lon="7.8454031944274902"><ele></ele><time>2014-10-15T21:29:52Z</time></trkpt>
<trkpt lat="46.2510147094726562" lon="7.8456306457519531"><ele></ele><time>2014-10-15T21:29:55Z</time></trkpt>
<trkpt lat="46.2510223388671875" lon="7.8459463119506836"><ele></ele><time>2014-10-15T21:29:58Z</time></trkpt>
<trkpt lat="46.2510643005371094" lon="7.8462376594543457"><ele></ele><time>2014-10-15T21:30:1Z</time></trkpt>
<trkpt lat="46.2511024475097656" lon="7.8465690612792969"><ele></ele><time>2014-10-15T21:30:4Z</time></trkpt>
<trkpt lat="46.2510948181152344" lon="7.8469061851501465"><ele></ele><time>2014-10-15T21:30:7Z</time></trkpt>
<trkpt lat="46.2511329650878906" lon="7.8472275733947754"><ele></ele><time>2014-10-15T21:30:10Z</time></trkpt>
<trkpt lat="46.2511863708496094" lon="7.8474268913269043"><ele></ele><time>2014-10-15T21:30:13Z</time></trkpt>
<trkpt lat="46.2512664794921875" lon="7.8476104736328125"><ele></ele><time>2014-10-15T21:30:16Z</time></trkpt>
<trkpt lat="46.2513694763183594" lon="7.8478913307189941"><ele></ele><time>2014-10-15T21:30:19Z</time></trkpt>
<trkpt lat="46.2514076232910156" lon="7.8481521606445312"><ele></ele><time>2014-10-15T21:30:22Z</time></trkpt>
<trkpt lat="46.2515373229980469" lon="7.8483352661132812"><ele></ele><time>2014-10-15T21:30:25Z</time></trkpt>
<trkpt lat="46.2517356872558594" lon="7.8486285209655762"><ele></ele><time>2014-10-15T21:30:28Z</time></trkpt>
<trkpt lat="46.2518692016601562" lon="7.8487524986267090"><ele></ele><time>2014-10-15T21:30:31Z</time></trkpt>
<trkpt lat="46.2521018981933594" lon="7.8489074707031250"><ele></ele><time>2014-10-15T21:30:34Z</time></trkpt>
<trkpt lat="46.2522354125976562" lon="7.8490071296691895"><ele></ele><time>2014-10-15T21:30:37Z</time></trkpt>
<trkpt lat="46.2523727416992188" lon="7.8492794036865234"><ele></ele><time>2014-10-15T21:30:40Z</time></trkpt>
<trkpt lat="46.2524147033691406" lon="7.8495159149169922"><ele></ele><time>2014-10-15T21:30:43Z</time></trkpt>
<trkpt lat="46.2525291442871094" lon="7.8497109413146973"><ele></ele><time>2014-10-15T21:30:46Z</time></trkpt>
<trkpt lat="46.2526931762695312" lon="7.8500399589538574"><ele></ele><time>2014-10-15T21:30:49Z</time></trkpt>
<trkpt lat="46.2527999877929688" lon="7.8502306938171387"><ele></ele><time>2014-10-15T21:30:52Z</time></trkpt>
<trkpt lat="46.2530288696289062" lon="7.8503155708312988"><ele></ele><time>2014-10-15T21:30:55Z</time></trkpt>
<trkpt lat="46.2531929016113281" lon="7.8503007888793945"><ele></ele><time>2014-10-15T21:30:58Z</time></trkpt>
<trkpt lat="46.2534255981445312" lon="7.8503780364990234"><ele></ele><time>2014-10-15T21:31:1Z</time></trkpt>
<trkpt lat="46.2536888122558594" lon="7.8504071235656738"><ele></ele><time>2014-10-15T21:31:4Z</time></trkpt>
<trkpt lat="46.2539558410644531" lon="7.8504199981689453"><ele></ele><time>2014-10-15T21:31:7Z</time></trkpt>
<trkpt lat="46.2541007995605469" lon="7.8504581451416016"><ele></ele><time>2014-10-15T21:31:10Z</time></trkpt>
<trkpt lat="46.2543640136718750" lon="7.8504743576049805"><ele></ele><time>2014-10-15T21:31:13Z</time></trkpt>
<trkpt lat="46.2545280456542969" lon="7.8504176139831543"><ele></ele><time>2014-10-15T21:31:16Z</time></trkpt>
<trkpt lat="46.2547798156738281" lon="7.8503103256225586"><ele></ele><time>2014-10-15T21:31:19Z</time></trkpt>
<trkpt lat="46.2549247741699219" lon="7.8501858711242676"><ele></ele><time>2014-10-15T21:31:22Z</time></trkpt>
<trkpt lat="46.2551383972167969" lon="7.8499641418457031"><ele></ele><time>2014-10-15T21:31:25Z</time></trkpt>
<trkpt lat="46.2552947998046875" lon="7.8498258590698242"><ele></ele><time>2014-10-15T21:31:28Z</time></trkpt>
<trkpt lat="46.2555885314941406" lon="7.8498158454895020"><ele></ele><time>2014-10-15T21:31:31Z</time></trkpt>
<trkpt lat="46.2557716369628906" lon="7.8498048782348633"><ele></ele><time>2014-10-15T21:31:34Z</time></trkpt>
<trkpt lat="46.2560081481933594" lon="7.8499093055725098"><ele></ele><time>2014-10-15T21:31:37Z</time></trkpt>
<trkpt lat="46.2562751770019531" lon="7.8499512672424316"><ele></ele><time>2014-10-15T21:31:40Z</time></trkpt>
<trkpt lat="46.2565002441406250" lon="7.8498587608337402"><ele></ele><time>2014-10-15T21:31:43Z</time></trkpt>
<trkpt lat="46.2566757202148438" lon="7.8498449325561523"><ele></ele><time>2014-10-15T21:31:46Z</time></trkpt>
<trkpt lat="46.2568855285644531" lon="7.8500719070434570"><ele></ele><time>2014-10-15T21:31:49Z</time></trkpt>
<trkpt lat="46.2570419311523438" lon="7.8501267433166504"><ele></ele><time>2014-10-15T21:31:52Z</time></trkpt>
<trkpt lat="46.2572288513183594" lon="7.8501272201538086"><ele></ele><time>2014-10-15T21:31:55Z</time></trkpt>
<trkpt lat="46.2574882507324219" lon="7.8500204086303711"><ele></ele><time>2014-10-15T21:31:58Z</time></trkpt>
<trkpt lat="46.2576866149902344" lon="7.8498010635375977"><ele></ele><time>2014-10-15T21:32:1Z</time></trkpt>
<trkpt lat="46.2578430175781250" lon="7.8496050834655762"><ele></ele><time>2014-10-15T21:32:4Z</time></trkpt>
<trkpt lat="46.2581024169921875" lon="7.8495383262634277"><ele></ele><time>2014-10-15T21:32:7Z</time></trkpt>
<trkpt lat="46.2582626342773438" lon="7.8494377136230469"><ele></ele><time>2014-10-15T21:32:10Z</time></trkpt>
<trkpt lat="46.2584304809570312" lon="7.8493161201477051"><ele></ele><time>2014-10-15T21:32:13Z</time></trkpt>
<trkpt lat="46.2585754394531250" lon="7.8492646217346191"><ele></ele><time>2014-10-15T21:32:16Z</time></trkpt>
<trkpt lat="46.2588348388671875" lon="7.8491806983947754"><ele></ele><time>2014-10-15T21:32:19Z</time></trkpt>
<trkpt lat="46.2590675354003906" lon="7.8491635322570801"><ele></ele><time>2014-10-15T21:32:22Z</time></trkpt>
<trkpt lat="46.2592277526855469" lon="7.8491697311401367"><ele></ele><time>2014-10-15T21:32:25Z</time></trkpt>
<trkpt lat="46.2594375610351562" lon="7.8492937088012695"><ele></ele><time>2014-10-15T21:32:28Z</time></trkpt>
<trkpt lat="46.2597045898437500" lon="7.8494205474853516"><ele></ele><time>2014-10-15T21:32:31Z</time></trkpt>
<trkpt lat="46.2599563598632812" lon="7.8495688438415527"><ele></ele><time>2014-10-15T21:32:34Z</time></trkpt>
<trkpt lat="46.2601432800292969" lon="7.8497915267944336"><ele></ele><time>2014-10-15T21:32:37Z</time></trkpt>
<trkpt lat="46.2602348327636719" lon="7.8498792648315430"><ele></ele><time>2014-10-15T21:32:40Z</time></trkpt>
<trkpt lat="46.2603454589843750" lon="7.8499374389648438"><ele></ele><time>2014-10-15T21:32:43Z</time></trkpt>
<trkpt lat="46.2604942321777344" lon="7.8497838973999023"><ele></ele><time>2014-10-15T21:32:46Z</time></trkpt>
<trkpt lat="46.2606277465820312" lon="7.8496675491333008"><ele></ele><time>2014-10-15T21:32:49Z</time></trkpt>
<trkpt lat="46.2607803344726562" lon="7.8495450019836426"><ele></ele><time>2014-10-15T21:32:52Z</time></trkpt>
<trkpt lat="46.2609558105468750" lon="7.8494248390197754"><ele></ele><time>2014-10-15T21:32:55Z</time></trkpt>
<trkpt lat="46.2610816955566406" lon="7.8493328094482422"><ele></ele><time>2014-10-15T21:32:58Z</time></trkpt>
<trkpt lat="46.2612571716308594" lon="7.8491954803466797"><ele></ele><time>2014-10-15T21:33:1Z</time></trkpt>
<trkpt lat="46.2614021301269531" lon="7.8490266799926758"><ele></ele><time>2014-10-15T21:33:4Z</time></trkpt>
<trkpt lat="46.2615432739257812" lon="7.8488922119140625"><ele></ele><time>2014-10-15T21:33:7Z</time></trkpt>
<trkpt lat="46.2618141174316406" lon="7.8485927581787109"><ele></ele><time>2014-10-15T21:33:10Z</time></trkpt>
<trkpt lat="46.2619857788085938" lon="7.8484063148498535"><ele></ele><time>2014-10-15T21:33:13Z</time></trkpt>
<trkpt lat="46.2621459960937500" lon="7.8482832908630371"><ele></ele><time>2014-10-15T21:33:16Z</time></trkpt>
<trkpt lat="46.2623329162597656" lon="7.8480405807495117"><ele></ele><time>2014-10-15T21:33:19Z</time></trkpt>
<trkpt lat="46.2624893188476562" lon="7.8477640151977539"><ele></ele><time>2014-10-15T21:33:22Z</time></trkpt>
<trkpt lat="46.2625808715820312" lon="7.8476033210754395"><ele></ele><time>2014-10-15T21:33:25Z</time></trkpt>
<trkpt lat="46.2626724243164062" lon="7.8474130630493164"><ele></ele><time>2014-10-15T21:33:28Z</time></trkpt>
<trkpt lat="46.2628784179687500" lon="7.8471055030822754"><ele></ele><time>2014-10-15T21:33:31Z</time></trkpt>
<trkpt lat="46.2630119323730469" lon="7.8469748497009277"><ele></ele><time>2014-10-15T21:33:34Z</time></trkpt>
<trkpt lat="46.2632942199707031" lon="7.8468308448791504"><ele></ele><time>2014-10-15T21:33:37Z</time></trkpt>
<trkpt lat="46.2635574340820312" lon="7.8466281890869141"><ele></ele><time>2014-10-15T21:33:40Z</time></trkpt>
<trkpt lat="46.2636795043945312" lon="7.8464779853820801"><ele></ele><time>2014-10-15T21:33:43Z</time></trkpt>
<trkpt lat="46.2636489868164062" lon="7.8464946746826172"><ele></ele><time>2014-10-15T21:33:46Z</time></trkpt>
<trkpt lat="46.2636260986328125" lon="7.8465852737426758"><ele></ele><time>2014-10-15T21:33:49Z</time></trkpt>
<trkpt lat="46.2635116577148438" lon="7.8467617034912109"><ele></ele><time>2014-10-15T21:33:52Z</time></trkpt>
<trkpt lat="46.2634353637695312" lon="7.8469734191894531"><ele></ele><time>2014-10-15T21:33:55Z</time></trkpt>
<trkpt lat="46.2633819580078125" lon="7.8471016883850098"><ele></ele><time>2014-10-15T21:33:58Z</time></trkpt>
<trkpt lat="46.2633857727050781" lon="7.8471627235412598"><ele></ele><time>2014-10-15T21:34:1Z</time></trkpt>
<trkpt lat="46.2633857727050781" lon="7.8471956253051758"><ele></ele><time>2014-10-15T21:34:4Z</time></trkpt>
<trkpt lat="46.2633819580078125" lon="7.8473100662231445"><ele></ele><time>2014-10-15T21:34:7Z</time></trkpt>
<trkpt lat="46.2634086608886719" lon="7.8475561141967773"><ele></ele><time>2014-10-15T21:34:10Z</time></trkpt>
<trkpt lat="46.2633819580078125" lon="7.8477492332458496"><ele></ele><time>2014-10-15T21:34:13Z</time></trkpt>
<trkpt lat="46.2633781433105469" lon="7.8478956222534180"><ele></ele><time>2014-10-15T21:34:16Z</time></trkpt>
<trkpt lat="46.2633934020996094" lon="7.8480429649353027"><ele></ele><time>2014-10-15T21:34:19Z</time></trkpt>
<trkpt lat="46.2634506225585938" lon="7.8482904434204102"><ele></ele><time>2014-10-15T21:34:22Z</time></trkpt>
<trkpt lat="46.2634735107421875" lon="7.8484406471252441"><ele></ele><time>2014-10-15T21:34:25Z</time></trkpt>
<trkpt lat="46.2634925842285156" lon="7.8486676216125488"><ele></ele><time>2014-10-15T21:34:28Z</time></trkpt>
<trkpt lat="46.2635421752929688" lon="7.8488211631774902"><ele></ele><time>2014-10-15T21:34:31Z</time></trkpt>
<trkpt lat="46.2635726928710938" lon="7.8491244316101074"><ele></ele><time>2014-10-15T21:34:34Z</time></trkpt>
<trkpt lat="46.2635536193847656" lon="7.8493413925170898"><ele></ele><time>2014-10-15T21:34:37Z</time></trkpt>
<trkpt lat="46.2635154724121094" lon="7.8495597839355469"><ele></ele><time>2014-10-15T21:34:40Z</time></trkpt>
<trkpt lat="46.2634391784667969" lon="7.8498740196228027"><ele></ele><time>2014-10-15T21:34:43Z</time></trkpt>
<trkpt lat="46.2633819580078125" lon="7.8500747680664062"><ele></ele><time>2014-10-15T21:34:46Z</time></trkpt>
<trkpt lat="46.2633171081542969" lon="7.8502125740051270"><ele></ele><time>2014-10-15T21:34:49Z</time></trkpt>
<trkpt lat="46.2632369995117188" lon="7.8503732681274414"><ele></ele><time>2014-10-15T21:34:52Z</time></trkpt>
<trkpt lat="46.2631988525390625" lon="7.8504743576049805"><ele></ele><time>2014-10-15T21:34:55Z</time></trkpt>
<trkpt lat="46.2630996704101562" lon="7.8506469726562500"><ele></ele><time>2014-10-15T21:34:58Z</time></trkpt>
<trkpt lat="46.2630119323730469" lon="7.8507657051086426"><ele></ele><time>2014-10-15T21:35:1Z</time></trkpt>
<trkpt lat="46.2629394531250000" lon="7.8508982658386230"><ele></ele><time>2014-10-15T21:35:4Z</time></trkpt>
<trkpt lat="46.2628326416015625" lon="7.8511085510253906"><ele></ele><time>2014-10-15T21:35:7Z</time></trkpt>
<trkpt lat="46.2628211975097656" lon="7.8512511253356934"><ele></ele><time>2014-10-15T21:35:10Z</time></trkpt>
<trkpt lat="46.2628593444824219" lon="7.8515043258666992"><ele></ele><time>2014-10-15T21:35:13Z</time></trkpt>
<trkpt lat="46.2629203796386719" lon="7.8517074584960938"><ele></ele><time>2014-10-15T21:35:16Z</time></trkpt>
<trkpt lat="46.2629241943359375" lon="7.8519043922424316"><ele></ele><time>2014-10-15T21:35:19Z</time></trkpt>
<trkpt lat="46.2628860473632812" lon="7.8521714210510254"><ele></ele><time>2014-10-15T21:35:22Z</time></trkpt>
<trkpt lat="46.2628631591796875" lon="7.8522734642028809"><ele></ele><time>2014-10-15T21:35:25Z</time></trkpt>
<trkpt lat="46.2628326416015625" lon="7.8523607254028320"><ele></ele><time>2014-10-15T21:35:28Z</time></trkpt>
<trkpt lat="46.2628173828125000" lon="7.8524317741394043"><ele></ele><time>2014-10-15T21:35:31Z</time></trkpt>
<trkpt lat="46.2627792358398438" lon="7.8526549339294434"><ele></ele><time>2014-10-15T21:35:34Z</time></trkpt>
<trkpt lat="46.2627258300781250" lon="7.8528051376342773"><ele></ele><time>2014-10-15T21:35:37Z</time></trkpt>
<trkpt lat="46.2626762390136719" lon="7.8529462814331055"><ele></ele><time>2014-10-15T21:35:40Z</time></trkpt>
<trkpt lat="46.2626342773437500" lon="7.8531184196472168"><ele></ele><time>2014-10-15T21:35:43Z</time></trkpt>
<trkpt lat="46.2625999450683594" lon="7.8531556129455566"><ele></ele><time>2014-10-15T21:35:46Z</time></trkpt>
<trkpt lat="46.2625770568847656" lon="7.8531880378723145"><ele></ele><time>2014-10-15T21:35:49Z</time></trkpt>
<trkpt lat="46.2625617980957031" lon="7.8532032966613770"><ele></ele><time>2014-10-15T21:35:52Z</time></trkpt>
<trkpt lat="46.2625579833984375" lon="7.8532238006591797"><ele></ele><time>2014-10-15T21:35:55Z</time></trkpt>
<trkpt lat="46.2625389099121094" lon="7.8532772064208984"><ele></ele><time>2014-10-15T21:35:58Z</time></trkpt>
<trkpt lat="46.2624778747558594" lon="7.8533563613891602"><ele></ele><time>2014-10-15T21:36:1Z</time></trkpt>
<trkpt lat="46.2624206542968750" lon="7.8533997535705566"><ele></ele><time>2014-10-15T21:36:4Z</time></trkpt>
<trkpt lat="46.2623138427734375" lon="7.8534660339355469"><ele></ele><time>2014-10-15T21:36:7Z</time></trkpt>
<trkpt lat="46.2622299194335938" lon="7.8534998893737793"><ele></ele><time>2014-10-15T21:36:10Z</time></trkpt>
<trkpt lat="46.2620811462402344" lon="7.8535728454589844"><ele></ele><time>2014-10-15T21:36:13Z</time></trkpt>
<trkpt lat="46.2617416381835938" lon="7.8537921905517578"><ele></ele><time>2014-10-15T21:36:16Z</time></trkpt>
<trkpt lat="46.2615623474121094" lon="7.8538770675659180"><ele></ele><time>2014-10-15T21:36:19Z</time></trkpt>
<trkpt lat="46.2614326477050781" lon="7.8539214134216309"><ele></ele><time>2014-10-15T21:36:22Z</time></trkpt>
<trkpt lat="46.2612533569335938" lon="7.8540239334106445"><ele></ele><time>2014-10-15T21:36:25Z</time></trkpt>
<trkpt lat="46.2611236572265625" lon="7.8541254997253418"><ele></ele><time>2014-10-15T21:36:28Z</time></trkpt>
<trkpt lat="46.2609405517578125" lon="7.8542928695678711"><ele></ele><time>2014-10-15T21:36:31Z</time></trkpt>
<trkpt lat="46.2608451843261719" lon="7.8543677330017090"><ele></ele><time>2014-10-15T21:36:34Z</time></trkpt>
<trkpt lat="46.2607421875000000" lon="7.8544220924377441"><ele></ele><time>2014-10-15T21:36:37Z</time></trkpt>
<trkpt lat="46.2605285644531250" lon="7.8545646667480469"><ele></ele><time>2014-10-15T21:36:40Z</time></trkpt>
<trkpt lat="46.2603759765625000" lon="7.8546986579895020"><ele></ele><time>2014-10-15T21:36:43Z</time></trkpt>
<trkpt lat="46.2602233886718750" lon="7.8548326492309570"><ele></ele><time>2014-10-15T21:36:46Z</time></trkpt>
<trkpt lat="46.2600822448730469" lon="7.8549852371215820"><ele></ele><time>2014-10-15T21:36:49Z</time></trkpt>
<trkpt lat="46.2599105834960938" lon="7.8551549911499023"><ele></ele><time>2014-10-15T21:36:52Z</time></trkpt>
<trkpt lat="46.2596359252929688" lon="7.8554148674011230"><ele></ele><time>2014-10-15T21:36:55Z</time></trkpt>
<trkpt lat="46.2595100402832031" lon="7.8555169105529785"><ele></ele><time>2014-10-15T21:36:58Z</time></trkpt>
<trkpt lat="46.2592697143554688" lon="7.8557047843933105"><ele></ele><time>2014-10-15T21:37:1Z</time></trkpt>
<trkpt lat="46.2590637207031250" lon="7.8558702468872070"><ele></ele><time>2014-10-15T21:37:4Z</time></trkpt>
<trkpt lat="46.2588500976562500" lon="7.8559784889221191"><ele></ele><time>2014-10-15T21:37:7Z</time></trkpt>
<trkpt lat="46.2586174011230469" lon="7.8561611175537109"><ele></ele><time>2014-10-15T21:37:10Z</time></trkpt>
<trkpt lat="46.2583732604980469" lon="7.8562722206115723"><ele></ele><time>2014-10-15T21:37:13Z</time></trkpt>
<trkpt lat="46.2582206726074219" lon="7.8562846183776855"><ele></ele><time>2014-10-15T21:37:16Z</time></trkpt>
<trkpt lat="46.2579917907714844" lon="7.8562817573547363"><ele></ele><time>2014-10-15T21:37:19Z</time></trkpt>
<trkpt lat="46.2578353881835938" lon="7.8563528060913086"><ele></ele><time>2014-10-15T21:37:22Z</time></trkpt>
<trkpt lat="46.2574157714843750" lon="7.8566541671752930"><ele></ele><time>2014-10-15T21:37:25Z</time></trkpt>
<trkpt lat="46.2573089599609375" lon="7.8567605018615723"><ele></ele><time>2014-10-15T21:37:28Z</time></trkpt>
<trkpt lat="46.2571334838867188" lon="7.8569192886352539"><ele></ele><time>2014-10-15T21:37:31Z</time></trkpt>
<trkpt lat="46.2569389343261719" lon="7.8571205139160156"><ele></ele><time>2014-10-15T21:37:34Z</time></trkpt>
<trkpt lat="46.2568092346191406" lon="7.8572220802307129"><ele></ele><time>2014-10-15T21:37:37Z</time></trkpt>
<trkpt lat="46.2566337585449219" lon="7.8574047088623047"><ele></ele><time>2014-10-15T21:37:40Z</time></trkpt>
<trkpt lat="46.2564582824707031" lon="7.8574161529541016"><ele></ele><time>2014-10-15T21:37:43Z</time></trkpt>
<trkpt lat="46.2563438415527344" lon="7.8573708534240723"><ele></ele><time>2014-10-15T21:37:46Z</time></trkpt>
<trkpt lat="46.2561645507812500" lon="7.8573498725891113"><ele></ele><time>2014-10-15T21:37:49Z</time></trkpt>
<trkpt lat="46.2559852600097656" lon="7.8573155403137207"><ele></ele><time>2014-10-15T21:37:52Z</time></trkpt>
<trkpt lat="46.2557945251464844" lon="7.8573164939880371"><ele></ele><time>2014-10-15T21:37:55Z</time></trkpt>
<trkpt lat="46.2556381225585938" lon="7.8572754859924316"><ele></ele><time>2014-10-15T21:37:58Z</time></trkpt>
<trkpt lat="46.2553939819335938" lon="7.8572216033935547"><ele></ele><time>2014-10-15T21:38:1Z</time></trkpt>
<trkpt lat="46.2552375793457031" lon="7.8572707176208496"><ele></ele><time>2014-10-15T21:38:4Z</time></trkpt>
<trkpt lat="46.2550392150878906" lon="7.8572707176208496"><ele></ele><time>2014-10-15T21:38:7Z</time></trkpt>
<trkpt lat="46.2548828125000000" lon="7.8572330474853516"><ele></ele><time>2014-10-15T21:38:10Z</time></trkpt>
<trkpt lat="46.2546005249023438" lon="7.8573279380798340"><ele></ele><time>2014-10-15T21:38:13Z</time></trkpt>
<trkpt lat="46.2542839050292969" lon="7.8574514389038086"><ele></ele><time>2014-10-15T21:38:16Z</time></trkpt>
<trkpt lat="46.2540168762207031" lon="7.8574433326721191"><ele></ele><time>2014-10-15T21:38:19Z</time></trkpt>
<trkpt lat="46.2538261413574219" lon="7.8575553894042969"><ele></ele><time>2014-10-15T21:38:22Z</time></trkpt>
<trkpt lat="46.2535514831542969" lon="7.8576898574829102"><ele></ele><time>2014-10-15T21:38:25Z</time></trkpt>
<trkpt lat="46.2532920837402344" lon="7.8577680587768555"><ele></ele><time>2014-10-15T21:38:28Z</time></trkpt>
<trkpt lat="46.2530708312988281" lon="7.8578000068664551"><ele></ele><time>2014-10-15T21:38:31Z</time></trkpt>
<trkpt lat="46.2527160644531250" lon="7.8578786849975586"><ele></ele><time>2014-10-15T21:38:34Z</time></trkpt>
<trkpt lat="46.2524833679199219" lon="7.8578948974609375"><ele></ele><time>2014-10-15T21:38:37Z</time></trkpt>
<trkpt lat="46.2521820068359375" lon="7.8578228950500488"><ele></ele><time>2014-10-15T21:38:40Z</time></trkpt>
<trkpt lat="46.2518882751464844" lon="7.8577799797058105"><ele></ele><time>2014-10-15T21:38:43Z</time></trkpt>
<trkpt lat="46.2517166137695312" lon="7.8577098846435547"><ele></ele><time>2014-10-15T21:38:46Z</time></trkpt>
<trkpt lat="46.2515296936035156" lon="7.8577098846435547"><ele></ele><time>2014-10-15T21:38:49Z</time></trkpt>
<trkpt lat="46.2513771057128906" lon="7.8576993942260742"><ele></ele><time>2014-10-15T21:38:52Z</time></trkpt>
<trkpt lat="46.2511672973632812" lon="7.8576731681823730"><ele></ele><time>2014-10-15T21:38:55Z</time></trkpt>
<trkpt lat="46.2510147094726562" lon="7.8577156066894531"><ele></ele><time>2014-10-15T21:38:58Z</time></trkpt>
<trkpt lat="46.2508163452148438" lon="7.8576750755310059"><ele></ele><time>2014-10-15T21:39:1Z</time></trkpt>
<trkpt lat="46.2506637573242188" lon="7.8575911521911621"><ele></ele><time>2014-10-15T21:39:4Z</time></trkpt>
<trkpt lat="46.2504920959472656" lon="7.8574900627136230"><ele></ele><time>2014-10-15T21:39:7Z</time></trkpt>
<trkpt lat="46.2502937316894531" lon="7.8575344085693359"><ele></ele><time>2014-10-15T21:39:10Z</time></trkpt>
<trkpt lat="46.2500801086425781" lon="7.8576011657714844"><ele></ele><time>2014-10-15T21:39:13Z</time></trkpt>
<trkpt lat="46.2499122619628906" lon="7.8576006889343262"><ele></ele><time>2014-10-15T21:39:16Z</time></trkpt>
<trkpt lat="46.2497367858886719" lon="7.8575487136840820"><ele></ele><time>2014-10-15T21:39:19Z</time></trkpt>
<trkpt lat="46.2496223449707031" lon="7.8574886322021484"><ele></ele><time>2014-10-15T21:39:22Z</time></trkpt>
<trkpt lat="46.2494316101074219" lon="7.8574013710021973"><ele></ele><time>2014-10-15T21:39:25Z</time></trkpt>
<trkpt lat="46.2491874694824219" lon="7.8573389053344727"><ele></ele><time>2014-10-15T21:39:28Z</time></trkpt>
<trkpt lat="46.2489471435546875" lon="7.8572883605957031"><ele></ele><time>2014-10-15T21:39:31Z</time></trkpt>
<trkpt lat="46.2487182617187500" lon="7.8572201728820801"><ele></ele><time>2014-10-15T21:39:34Z</time></trkpt>
<trkpt lat="46.2485313415527344" lon="7.8572406768798828"><ele></ele><time>2014-10-15T21:39:37Z</time></trkpt>
<trkpt lat="46.2483520507812500" lon="7.8572273254394531"><ele></ele><time>2014-10-15T21:39:40Z</time></trkpt>
<trkpt lat="46.2480850219726562" lon="7.8572282791137695"><ele></ele><time>2014-10-15T21:39:43Z</time></trkpt>
<trkpt lat="46.2479324340820312" lon="7.8572187423706055"><ele></ele><time>2014-10-15T21:39:46Z</time></trkpt>
<trkpt lat="46.2477951049804688" lon="7.8571515083312988"><ele></ele><time>2014-10-15T21:39:49Z</time></trkpt>
<trkpt lat="46.2476348876953125" lon="7.8570590019226074"><ele></ele><time>2014-10-15T21:39:52Z</time></trkpt>
<trkpt lat="46.2475051879882812" lon="7.8570137023925781"><ele></ele><time>2014-10-15T21:39:55Z</time></trkpt>
<trkpt lat="46.2473144531250000" lon="7.8569235801696777"><ele></ele><time>2014-10-15T21:39:58Z</time></trkpt>
<trkpt lat="46.2471885681152344" lon="7.8568701744079590"><ele></ele><time>2014-10-15T21:40:1Z</time></trkpt>
<trkpt lat="46.2470550537109375" lon="7.8568296432495117"><ele></ele><time>2014-10-15T21:40:4Z</time></trkpt>
<trkpt lat="46.2468643188476562" lon="7.8566894531250000"><ele></ele><time>2014-10-15T21:40:7Z</time></trkpt>
<trkpt lat="46.2467193603515625" lon="7.8566317558288574"><ele></ele><time>2014-10-15T21:40:10Z</time></trkpt>
<trkpt lat="46.2464447021484375" lon="7.8566694259643555"><ele></ele><time>2014-10-15T21:40:13Z</time></trkpt>
<trkpt lat="46.2462348937988281" lon="7.8566584587097168"><ele></ele><time>2014-10-15T21:40:16Z</time></trkpt>
<trkpt lat="46.2459564208984375" lon="7.8566961288452148"><ele></ele><time>2014-10-15T21:40:19Z</time></trkpt>
<trkpt lat="46.2457466125488281" lon="7.8567404747009277"><ele></ele><time>2014-10-15T21:40:22Z</time></trkpt>
<trkpt lat="46.2455291748046875" lon="7.8568153381347656"><ele></ele><time>2014-10-15T21:40:25Z</time></trkpt>
<trkpt lat="46.2453765869140625" lon="7.8569731712341309"><ele></ele><time>2014-10-15T21:40:28Z</time></trkpt>
<trkpt lat="46.2451438903808594" lon="7.8571953773498535"><ele></ele><time>2014-10-15T21:40:31Z</time></trkpt>
<trkpt lat="46.2449913024902344" lon="7.8572721481323242"><ele></ele><time>2014-10-15T21:40:34Z</time></trkpt>
<trkpt lat="46.2447586059570312" lon="7.8575458526611328"><ele></ele><time>2014-10-15T21:40:37Z</time></trkpt>
<trkpt lat="46.2445526123046875" lon="7.8577275276184082"><ele></ele><time>2014-10-15T21:40:40Z</time></trkpt>
<trkpt lat="46.2443237304687500" lon="7.8578009605407715"><ele></ele><time>2014-10-15T21:40:43Z</time></trkpt>
<trkpt lat="46.2441749572753906" lon="7.8578386306762695"><ele></ele><time>2014-10-15T21:40:46Z</time></trkpt>
<trkpt lat="46.2439384460449219" lon="7.8578042984008789"><ele></ele><time>2014-10-15T21:40:49Z</time></trkpt>
<trkpt lat="46.2436981201171875" lon="7.8578577041625977"><ele></ele><time>2014-10-15T21:40:52Z</time></trkpt>
<trkpt lat="46.2435455322265625" lon="7.8579087257385254"><ele></ele><time>2014-10-15T21:40:55Z</time></trkpt>
<trkpt lat="46.2433090209960938" lon="7.8579139709472656"><ele></ele><time>2014-10-15T21:40:58Z</time></trkpt>
<trkpt lat="46.2431373596191406" lon="7.8579683303833008"><ele></ele><time>2014-10-15T21:41:1Z</time></trkpt>
<trkpt lat="46.2429847717285156" lon="7.8579673767089844"><ele></ele><time>2014-10-15T21:41:4Z</time></trkpt>
<trkpt lat="46.2428283691406250" lon="7.8579521179199219"><ele></ele><time>2014-10-15T21:41:7Z</time></trkpt>
<trkpt lat="46.2425804138183594" lon="7.8578872680664062"><ele></ele><time>2014-10-15T21:41:10Z</time></trkpt>
<trkpt lat="46.2423782348632812" lon="7.8578205108642578"><ele></ele><time>2014-10-15T21:41:13Z</time></trkpt>
<trkpt lat="46.2422370910644531" lon="7.8578076362609863"><ele></ele><time>2014-10-15T21:41:16Z</time></trkpt>
<trkpt lat="46.2420463562011719" lon="7.8577942848205566"><ele></ele><time>2014-10-15T21:41:19Z</time></trkpt>
<trkpt lat="46.2419319152832031" lon="7.8577036857604980"><ele></ele><time>2014-10-15T21:41:22Z</time></trkpt>
<trkpt lat="46.2418174743652344" lon="7.8575325012207031"><ele></ele><time>2014-10-15T21:41:25Z</time></trkpt>
<trkpt lat="46.2416992187500000" lon="7.8574399948120117"><ele></ele><time>2014-10-15T21:41:28Z</time></trkpt>
<trkpt lat="46.2415580749511719" lon="7.8573422431945801"><ele></ele><time>2014-10-15T21:41:31Z</time></trkpt>
<trkpt lat="46.2413597106933594" lon="7.8572006225585938"><ele></ele><time>2014-10-15T21:41:34Z</time></trkpt>
<trkpt lat="46.2411994934082031" lon="7.8570127487182617"><ele></ele><time>2014-10-15T21:41:37Z</time></trkpt>
<trkpt lat="46.2410888671875000" lon="7.8567228317260742"><ele></ele><time>2014-10-15T21:41:40Z</time></trkpt>
<trkpt lat="46.2410202026367188" lon="7.8564972877502441"><ele></ele><time>2014-10-15T21:41:43Z</time></trkpt>
<trkpt lat="46.2409324645996094" lon="7.8561530113220215"><ele></ele><time>2014-10-15T21:41:46Z</time></trkpt>
<trkpt lat="46.2408790588378906" lon="7.8559546470642090"><ele></ele><time>2014-10-15T21:41:49Z</time></trkpt>
<trkpt lat="46.2400398254394531" lon="7.8552265167236328"><ele></ele><time>2014-10-15T21:41:52Z</time></trkpt>
<trkpt lat="46.2399559020996094" lon="7.8549976348876953"><ele></ele><time>2014-10-15T21:41:55Z</time></trkpt>
<trkpt lat="46.2399139404296875" lon="7.8545856475830078"><ele></ele><time>2014-10-15T21:41:58Z</time></trkpt>
<trkpt lat="46.2397079467773438" lon="7.8542065620422363"><ele></ele><time>2014-10-15T21:42:1Z</time></trkpt>
<trkpt lat="46.2394599914550781" lon="7.8538613319396973"><ele></ele><time>2014-10-15T21:42:4Z</time></trkpt>
<trkpt lat="46.2393608093261719" lon="7.8536276817321777"><ele></ele><time>2014-10-15T21:42:7Z</time></trkpt>
<trkpt lat="46.2393875122070312" lon="7.8532009124755859"><ele></ele><time>2014-10-15T21:42:10Z</time></trkpt>
<trkpt lat="46.2394294738769531" lon="7.8529281616210938"><ele></ele><time>2014-10-15T21:42:13Z</time></trkpt>
<trkpt lat="46.2394332885742188" lon="7.8525223731994629"><ele></ele><time>2014-10-15T21:42:16Z</time></trkpt>
<trkpt lat="46.2394027709960938" lon="7.8520383834838867"><ele></ele><time>2014-10-15T21:42:19Z</time></trkpt>
<trkpt lat="46.2393302917480469" lon="7.8517909049987793"><ele></ele><time>2014-10-15T21:42:22Z</time></trkpt>
<trkpt lat="46.2389297485351562" lon="7.8513388633728027"><ele></ele><time>2014-10-15T21:42:25Z</time></trkpt>
<trkpt lat="46.2388000488281250" lon="7.8510746955871582"><ele></ele><time>2014-10-15T21:42:28Z</time></trkpt>
<trkpt lat="46.2387046813964844" lon="7.8510365486145020"><ele></ele><time>2014-10-15T21:42:31Z</time></trkpt>
<trkpt lat="46.2387847900390625" lon="7.8512358665466309"><ele></ele><time>2014-10-15T21:42:34Z</time></trkpt>
<trkpt lat="46.2387962341308594" lon="7.8514256477355957"><ele></ele><time>2014-10-15T21:42:37Z</time></trkpt>
<trkpt lat="46.2388763427734375" lon="7.8517527580261230"><ele></ele><time>2014-10-15T21:42:40Z</time></trkpt>
<trkpt lat="46.2388572692871094" lon="7.8521442413330078"><ele></ele><time>2014-10-15T21:42:43Z</time></trkpt>
<trkpt lat="46.2387428283691406" lon="7.8523926734924316"><ele></ele><time>2014-10-15T21:42:46Z</time></trkpt>
<trkpt lat="46.2386169433593750" lon="7.8526554107666016"><ele></ele><time>2014-10-15T21:42:49Z</time></trkpt>
<trkpt lat="46.2385139465332031" lon="7.8530559539794922"><ele></ele><time>2014-10-15T21:42:52Z</time></trkpt>
<trkpt lat="46.2385063171386719" lon="7.8530673980712891"><ele></ele><time>2014-10-15T21:42:55Z</time></trkpt>
<trkpt lat="46.2383308410644531" lon="7.8520379066467285"><ele></ele><time>2014-10-15T21:42:58Z</time></trkpt>
<trkpt lat="46.2382469177246094" lon="7.8517403602600098"><ele></ele><time>2014-10-15T21:43:1Z</time></trkpt>
<trkpt lat="46.2382011413574219" lon="7.8513007164001465"><ele></ele><time>2014-10-15T21:43:4Z</time></trkpt>
<trkpt lat="46.2381324768066406" lon="7.8509244918823242"><ele></ele><time>2014-10-15T21:43:7Z</time></trkpt>
<trkpt lat="46.2380027770996094" lon="7.8507304191589355"><ele></ele><time>2014-10-15T21:43:10Z</time></trkpt>
<trkpt lat="46.2379798889160156" lon="7.8503389358520508"><ele></ele><time>2014-10-15T21:43:13Z</time></trkpt>
<trkpt lat="46.2378959655761719" lon="7.8499541282653809"><ele></ele><time>2014-10-15T21:43:16Z</time></trkpt>
<trkpt lat="46.2378349304199219" lon="7.8495883941650391"><ele></ele><time>2014-10-15T21:43:19Z</time></trkpt>
<trkpt lat="46.2378654479980469" lon="7.8493676185607910"><ele></ele><time>2014-10-15T21:43:22Z</time></trkpt>
<trkpt lat="46.2378692626953125" lon="7.8490800857543945"><ele></ele><time>2014-10-15T21:43:25Z</time></trkpt>
<trkpt lat="46.2378730773925781" lon="7.8488750457763672"><ele></ele><time>2014-10-15T21:43:28Z</time></trkpt>
<trkpt lat="46.2378654479980469" lon="7.8487014770507812"><ele></ele><time>2014-10-15T21:43:31Z</time></trkpt>
<trkpt lat="46.2378501892089844" lon="7.8484292030334473"><ele></ele><time>2014-10-15T21:43:34Z</time></trkpt>
<trkpt lat="46.2378387451171875" lon="7.8480510711669922"><ele></ele><time>2014-10-15T21:43:37Z</time></trkpt>
<trkpt lat="46.2378387451171875" lon="7.8478255271911621"><ele></ele><time>2014-10-15T21:43:40Z</time></trkpt>
<trkpt lat="46.2378845214843750" lon="7.8474769592285156"><ele></ele><time>2014-10-15T21:43:43Z</time></trkpt>
<trkpt lat="46.2379226684570312" lon="7.8470959663391113"><ele></ele><time>2014-10-15T21:43:46Z</time></trkpt>
<trkpt lat="46.2379493713378906" lon="7.8467845916748047"><ele></ele><time>2014-10-15T21:43:49Z</time></trkpt>
<trkpt lat="46.2378768920898438" lon="7.8467650413513184"><ele></ele><time>2014-10-15T21:43:52Z</time></trkpt>
<trkpt lat="46.2378425598144531" lon="7.8468222618103027"><ele></ele><time>2014-10-15T21:43:55Z</time></trkpt>
<trkpt lat="46.2376136779785156" lon="7.8475623130798340"><ele></ele><time>2014-10-15T21:43:58Z</time></trkpt>
<trkpt lat="46.2374992370605469" lon="7.8478326797485352"><ele></ele><time>2014-10-15T21:44:1Z</time></trkpt>
<trkpt lat="46.2373924255371094" lon="7.8480916023254395"><ele></ele><time>2014-10-15T21:44:4Z</time></trkpt>
<trkpt lat="46.2373695373535156" lon="7.8486132621765137"><ele></ele><time>2014-10-15T21:44:7Z</time></trkpt>
<trkpt lat="46.2373771667480469" lon="7.8489561080932617"><ele></ele><time>2014-10-15T21:44:10Z</time></trkpt>
<trkpt lat="46.2373809814453125" lon="7.8494558334350586"><ele></ele><time>2014-10-15T21:44:13Z</time></trkpt>
<trkpt lat="46.2373619079589844" lon="7.8499884605407715"><ele></ele><time>2014-10-15T21:44:16Z</time></trkpt>
<trkpt lat="46.2373275756835938" lon="7.8505630493164062"><ele></ele><time>2014-10-15T21:44:19Z</time></trkpt>
<trkpt lat="46.2373046875000000" lon="7.8509030342102051"><ele></ele><time>2014-10-15T21:44:22Z</time></trkpt>
<trkpt lat="46.2373123168945312" lon="7.8512372970581055"><ele></ele><time>2014-10-15T21:44:25Z</time></trkpt>
<trkpt lat="46.2373161315917969" lon="7.8512773513793945"><ele></ele><time>2014-10-15T21:44:28Z</time></trkpt>
<trkpt lat="46.2372970581054688" lon="7.8513450622558594"><ele></ele><time>2014-10-15T21:44:31Z</time></trkpt>
<trkpt lat="46.2372169494628906" lon="7.8522109985351562"><ele></ele><time>2014-10-15T21:44:34Z</time></trkpt>
<trkpt lat="46.2372016906738281" lon="7.8522453308105469"><ele></ele><time>2014-10-15T21:44:37Z</time></trkpt>
<trkpt lat="46.2363281250000000" lon="7.8510122299194336"><ele></ele><time>2014-10-15T21:44:40Z</time></trkpt>
<trkpt lat="46.2363319396972656" lon="7.8508186340332031"><ele></ele><time>2014-10-15T21:44:43Z</time></trkpt>
<trkpt lat="46.2360572814941406" lon="7.8507447242736816"><ele></ele><time>2014-10-15T21:44:46Z</time></trkpt>
<trkpt lat="46.2358474731445312" lon="7.8507151603698730"><ele></ele><time>2014-10-15T21:44:49Z</time></trkpt>
<trkpt lat="46.2357330322265625" lon="7.8505711555480957"><ele></ele><time>2014-10-15T21:44:52Z</time></trkpt>
<trkpt lat="46.2356262207031250" lon="7.8503947257995605"><ele></ele><time>2014-10-15T21:44:55Z</time></trkpt>
<trkpt lat="46.2354736328125000" lon="7.8502349853515625"><ele></ele><time>2014-10-15T21:44:58Z</time></trkpt>
<trkpt lat="46.2353096008300781" lon="7.8500814437866211"><ele></ele><time>2014-10-15T21:45:1Z</time></trkpt>
<trkpt lat="46.2351989746093750" lon="7.8499650955200195"><ele></ele><time>2014-10-15T21:45:4Z</time></trkpt>
<trkpt lat="46.2350463867187500" lon="7.8497390747070312"><ele></ele><time>2014-10-15T21:45:7Z</time></trkpt>
<trkpt lat="46.2349586486816406" lon="7.8495674133300781"><ele></ele><time>2014-10-15T21:45:10Z</time></trkpt>
<trkpt lat="46.2348365783691406" lon="7.8493571281433105"><ele></ele><time>2014-10-15T21:45:13Z</time></trkpt>
<trkpt lat="46.2347679138183594" lon="7.8492975234985352"><ele></ele><time>2014-10-15T21:45:16Z</time></trkpt>
<trkpt lat="46.2346878051757812" lon="7.8492693901062012"><ele></ele><time>2014-10-15T21:45:19Z</time></trkpt>
<trkpt lat="46.2346839904785156" lon="7.8491654396057129"><ele></ele><time>2014-10-15T21:45:22Z</time></trkpt>
<trkpt lat="46.2347412109375000" lon="7.8489317893981934"><ele></ele><time>2014-10-15T21:45:25Z</time></trkpt>
<trkpt lat="46.2347450256347656" lon="7.8487043380737305"><ele></ele><time>2014-10-15T21:45:28Z</time></trkpt>
<trkpt lat="46.2347259521484375" lon="7.8484878540039062"><ele></ele><time>2014-10-15T21:45:31Z</time></trkpt>
<trkpt lat="46.2346611022949219" lon="7.8482251167297363"><ele></ele><time>2014-10-15T21:45:34Z</time></trkpt>
<trkpt lat="46.2346687316894531" lon="7.8480124473571777"><ele></ele><time>2014-10-15T21:45:37Z</time></trkpt>
<trkpt lat="46.2347183227539062" lon="7.8477158546447754"><ele></ele><time>2014-10-15T21:45:40Z</time></trkpt>
<trkpt lat="46.2347183227539062" lon="7.8475193977355957"><ele></ele><time>2014-10-15T21:45:43Z</time></trkpt>
<trkpt lat="46.2346611022949219" lon="7.8473081588745117"><ele></ele><time>2014-10-15T21:45:46Z</time></trkpt>
<trkpt lat="46.2345428466796875" lon="7.8472576141357422"><ele></ele><time>2014-10-15T21:45:49Z</time></trkpt>
<trkpt lat="46.2344360351562500" lon="7.8471636772155762"><ele></ele><time>2014-10-15T21:45:52Z</time></trkpt>
<trkpt lat="46.2344512939453125" lon="7.8470463752746582"><ele></ele><time>2014-10-15T21:45:55Z</time></trkpt>
<trkpt lat="46.2345466613769531" lon="7.8468322753906250"><ele></ele><time>2014-10-15T21:45:58Z</time></trkpt>
<trkpt lat="46.2346076965332031" lon="7.8465757369995117"><ele></ele><time>2014-10-15T21:46:1Z</time></trkpt>
<trkpt lat="46.2346343994140625" lon="7.8464245796203613"><ele></ele><time>2014-10-15T21:46:4Z</time></trkpt>
<trkpt lat="46.2346572875976562" lon="7.8463010787963867"><ele></ele><time>2014-10-15T21:46:7Z</time></trkpt>
<trkpt lat="46.2347297668457031" lon="7.8461313247680664"><ele></ele><time>2014-10-15T21:46:10Z</time></trkpt>
<trkpt lat="46.2347564697265625" lon="7.8459639549255371"><ele></ele><time>2014-10-15T21:46:13Z</time></trkpt>
<trkpt lat="46.2347564697265625" lon="7.8458437919616699"><ele></ele><time>2014-10-15T21:46:16Z</time></trkpt>
<trkpt lat="46.2348175048828125" lon="7.8456912040710449"><ele></ele><time>2014-10-15T21:46:19Z</time></trkpt>
<trkpt lat="46.2348518371582031" lon="7.8454604148864746"><ele></ele><time>2014-10-15T21:46:22Z</time></trkpt>
<trkpt lat="46.2347908020019531" lon="7.8451323509216309"><ele></ele><time>2014-10-15T21:46:25Z</time></trkpt>
<trkpt lat="46.2348136901855469" lon="7.8449597358703613"><ele></ele><time>2014-10-15T21:46:28Z</time></trkpt>
<trkpt lat="46.2349319458007812" lon="7.8447856903076172"><ele></ele><time>2014-10-15T21:46:31Z</time></trkpt>
<trkpt lat="46.2350463867187500" lon="7.8446302413940430"><ele></ele><time>2014-10-15T21:46:34Z</time></trkpt>
<trkpt lat="46.2350196838378906" lon="7.8444352149963379"><ele></ele><time>2014-10-15T21:46:37Z</time></trkpt>
<trkpt lat="46.2348899841308594" lon="7.8444466590881348"><ele></ele><time>2014-10-15T21:46:40Z</time></trkpt>
<trkpt lat="46.2348098754882812" lon="7.8444585800170898"><ele></ele><time>2014-10-15T21:46:43Z</time></trkpt>
<trkpt lat="46.2347526550292969" lon="7.8444671630859375"><ele></ele><time>2014-10-15T21:46:46Z</time></trkpt>
<trkpt lat="46.2346611022949219" lon="7.8443722724914551"><ele></ele><time>2014-10-15T21:46:49Z</time></trkpt>
<trkpt lat="46.2345962524414062" lon="7.8442425727844238"><ele></ele><time>2014-10-15T21:46:52Z</time></trkpt>
<trkpt lat="46.2345314025878906" lon="7.8442654609680176"><ele></ele><time>2014-10-15T21:46:55Z</time></trkpt>
<trkpt lat="46.2344818115234375" lon="7.8443012237548828"><ele></ele><time>2014-10-15T21:46:58Z</time></trkpt>
<trkpt lat="46.2343978881835938" lon="7.8443350791931152"><ele></ele><time>2014-10-15T21:47:1Z</time></trkpt>
<trkpt lat="46.2343406677246094" lon="7.8443899154663086"><ele></ele><time>2014-10-15T21:47:4Z</time></trkpt>
<trkpt lat="46.2342453002929688" lon="7.8443884849548340"><ele></ele><time>2014-10-15T21:47:7Z</time></trkpt>
<trkpt lat="46.2341346740722656" lon="7.8443479537963867"><ele></ele><time>2014-10-15T21:47:10Z</time></trkpt>
<trkpt lat="46.2340660095214844" lon="7.8443322181701660"><ele></ele><time>2014-10-15T21:47:13Z</time></trkpt>
<trkpt lat="46.2339630126953125" lon="7.8443284034729004"><ele></ele><time>2014-10-15T21:47:16Z</time></trkpt>
<trkpt lat="46.2339096069335938" lon="7.8443346023559570"><ele></ele><time>2014-10-15T21:47:19Z</time></trkpt>
<trkpt lat="46.2338294982910156" lon="7.8443322181701660"><ele></ele><time>2014-10-15T21:47:22Z</time></trkpt>
<trkpt lat="46.2337608337402344" lon="7.8443050384521484"><ele></ele><time>2014-10-15T21:47:25Z</time></trkpt>
<trkpt lat="46.2337265014648438" lon="7.8442220687866211"><ele></ele><time>2014-10-15T21:47:28Z</time></trkpt>
<trkpt lat="46.2337303161621094" lon="7.8441076278686523"><ele></ele><time>2014-10-15T21:47:31Z</time></trkpt>
<trkpt lat="46.2337684631347656" lon="7.8439507484436035"><ele></ele><time>2014-10-15T21:47:34Z</time></trkpt>
<trkpt lat="46.2337379455566406" lon="7.8438458442687988"><ele></ele><time>2014-10-15T21:47:37Z</time></trkpt>
<trkpt lat="46.2336883544921875" lon="7.8437528610229492"><ele></ele><time>2014-10-15T21:47:40Z</time></trkpt>
<trkpt lat="46.2335586547851562" lon="7.8435740470886230"><ele></ele><time>2014-10-15T21:47:43Z</time></trkpt>
<trkpt lat="46.2334289550781250" lon="7.8434820175170898"><ele></ele><time>2014-10-15T21:47:46Z</time></trkpt>
<trkpt lat="46.2333602905273438" lon="7.8435249328613281"><ele></ele><time>2014-10-15T21:47:49Z</time></trkpt>
<trkpt lat="46.2332916259765625" lon="7.8435325622558594"><ele></ele><time>2014-10-15T21:47:52Z</time></trkpt>
<trkpt lat="46.2331466674804688" lon="7.8435411453247070"><ele></ele><time>2014-10-15T21:47:55Z</time></trkpt>
<trkpt lat="46.2330360412597656" lon="7.8436040878295898"><ele></ele><time>2014-10-15T21:47:58Z</time></trkpt>
<trkpt lat="46.2328910827636719" lon="7.8436908721923828"><ele></ele><time>2014-10-15T21:48:1Z</time></trkpt>
<trkpt lat="46.2327575683593750" lon="7.8436970710754395"><ele></ele><time>2014-10-15T21:48:4Z</time></trkpt>
<trkpt lat="46.2325973510742188" lon="7.8436799049377441"><ele></ele><time>2014-10-15T21:48:7Z</time></trkpt>
<trkpt lat="46.2324562072753906" lon="7.8436512947082520"><ele></ele><time>2014-10-15T21:48:10Z</time></trkpt>
<trkpt lat="46.2322540283203125" lon="7.8435578346252441"><ele></ele><time>2014-10-15T21:48:13Z</time></trkpt>
<trkpt lat="46.2321281433105469" lon="7.8435320854187012"><ele></ele><time>2014-10-15T21:48:16Z</time></trkpt>
<trkpt lat="46.2319679260253906" lon="7.8434829711914062"><ele></ele><time>2014-10-15T21:48:19Z</time></trkpt>
<trkpt lat="46.2319297790527344" lon="7.8434357643127441"><ele></ele><time>2014-10-15T21:48:22Z</time></trkpt>
<trkpt lat="46.2318611145019531" lon="7.8433947563171387"><ele></ele><time>2014-10-15T21:48:25Z</time></trkpt>
<trkpt lat="46.2317771911621094" lon="7.8434224128723145"><ele></ele><time>2014-10-15T21:48:28Z</time></trkpt>
<trkpt lat="46.2316970825195312" lon="7.8434443473815918"><ele></ele><time>2014-10-15T21:48:31Z</time></trkpt>
<trkpt lat="46.2316589355468750" lon="7.8434357643127441"><ele></ele><time>2014-10-15T21:48:34Z</time></trkpt>
<trkpt lat="46.2315711975097656" lon="7.8434281349182129"><ele></ele><time>2014-10-15T21:48:37Z</time></trkpt>
<trkpt lat="46.2315025329589844" lon="7.8434300422668457"><ele></ele><time>2014-10-15T21:48:40Z</time></trkpt>
<trkpt lat="46.2314224243164062" lon="7.8434071540832520"><ele></ele><time>2014-10-15T21:48:43Z</time></trkpt>
<trkpt lat="46.2313575744628906" lon="7.8433804512023926"><ele></ele><time>2014-10-15T21:48:46Z</time></trkpt>
<trkpt lat="46.2312850952148438" lon="7.8433437347412109"><ele></ele><time>2014-10-15T21:48:49Z</time></trkpt>
<trkpt lat="46.2311782836914062" lon="7.8432841300964355"><ele></ele><time>2014-10-15T21:48:52Z</time></trkpt>
<trkpt lat="46.2311058044433594" lon="7.8432416915893555"><ele></ele><time>2014-10-15T21:48:55Z</time></trkpt>
<trkpt lat="46.2310295104980469" lon="7.8432130813598633"><ele></ele><time>2014-10-15T21:48:58Z</time></trkpt>
<trkpt lat="46.2309799194335938" lon="7.8432312011718750"><ele></ele><time>2014-10-15T21:49:1Z</time></trkpt>
<trkpt lat="46.2309532165527344" lon="7.8432774543762207"><ele></ele><time>2014-10-15T21:49:4Z</time></trkpt>
<trkpt lat="46.2309112548828125" lon="7.8433408737182617"><ele></ele><time>2014-10-15T21:49:7Z</time></trkpt>
<trkpt lat="46.2308959960937500" lon="7.8433556556701660"><ele></ele><time>2014-10-15T21:49:10Z</time></trkpt>
<trkpt lat="46.2308692932128906" lon="7.8433942794799805"><ele></ele><time>2014-10-15T21:49:13Z</time></trkpt>
<trkpt lat="46.2308578491210938" lon="7.8433995246887207"><ele></ele><time>2014-10-15T21:49:16Z</time></trkpt>
<trkpt lat="46.2308464050292969" lon="7.8434181213378906"><ele></ele><time>2014-10-15T21:49:19Z</time></trkpt>
<trkpt lat="46.2308235168457031" lon="7.8434453010559082"><ele></ele><time>2014-10-15T21:49:22Z</time></trkpt>
<trkpt lat="46.2308044433593750" lon="7.8434638977050781"><ele></ele><time>2014-10-15T21:49:25Z</time></trkpt>
<trkpt lat="46.2307853698730469" lon="7.8434734344482422"><ele></ele><time>2014-10-15T21:49:28Z</time></trkpt>
<trkpt lat="46.2307510375976562" lon="7.8434939384460449"><ele></ele><time>2014-10-15T21:49:31Z</time></trkpt>
<trkpt lat="46.2307167053222656" lon="7.8435153961181641"><ele></ele><time>2014-10-15T21:49:34Z</time></trkpt>
<trkpt lat="46.2306556701660156" lon="7.8435420989990234"><ele></ele><time>2014-10-15T21:49:37Z</time></trkpt>
<trkpt lat="46.2305984497070312" lon="7.8435688018798828"><ele></ele><time>2014-10-15T21:49:40Z</time></trkpt>
<trkpt lat="46.2305603027343750" lon="7.8436126708984375"><ele></ele><time>2014-10-15T21:49:43Z</time></trkpt>
<trkpt lat="46.2304992675781250" lon="7.8436641693115234"><ele></ele><time>2014-10-15T21:49:46Z</time></trkpt>
<trkpt lat="46.2304573059082031" lon="7.8436765670776367"><ele></ele><time>2014-10-15T21:49:49Z</time></trkpt>
<trkpt lat="46.2304000854492188" lon="7.8436808586120605"><ele></ele><time>2014-10-15T21:49:52Z</time></trkpt>
<trkpt lat="46.2303314208984375" lon="7.8436760902404785"><ele></ele><time>2014-10-15T21:49:55Z</time></trkpt>
<trkpt lat="46.2302398681640625" lon="7.8436369895935059"><ele></ele><time>2014-10-15T21:49:58Z</time></trkpt>
<trkpt lat="46.2302017211914062" lon="7.8436336517333984"><ele></ele><time>2014-10-15T21:50:1Z</time></trkpt>
<trkpt lat="46.2301635742187500" lon="7.8436346054077148"><ele></ele><time>2014-10-15T21:50:4Z</time></trkpt>
<trkpt lat="46.2300987243652344" lon="7.8436884880065918"><ele></ele><time>2014-10-15T21:50:7Z</time></trkpt>
<trkpt lat="46.2299919128417969" lon="7.8437442779541016"><ele></ele><time>2014-10-15T21:50:10Z</time></trkpt>
<trkpt lat="46.2299499511718750" lon="7.8438081741333008"><ele></ele><time>2014-10-15T21:50:13Z</time></trkpt>
<trkpt lat="46.2299079895019531" lon="7.8438892364501953"><ele></ele><time>2014-10-15T21:50:16Z</time></trkpt>
<trkpt lat="46.2297210693359375" lon="7.8440012931823730"><ele></ele><time>2014-10-15T21:50:19Z</time></trkpt>
<trkpt lat="46.2295608520507812" lon="7.8440065383911133"><ele></ele><time>2014-10-15T21:50:22Z</time></trkpt>
<trkpt lat="46.2293014526367188" lon="7.8439798355102539"><ele></ele><time>2014-10-15T21:50:25Z</time></trkpt>
<trkpt lat="46.2290344238281250" lon="7.8440470695495605"><ele></ele><time>2014-10-15T21:50:28Z</time></trkpt>
<trkpt lat="46.2287902832031250" lon="7.8440465927124023"><ele></ele><time>2014-10-15T21:50:31Z</time></trkpt>
<trkpt lat="46.2284965515136719" lon="7.8439607620239258"><ele></ele><time>2014-10-15T21:50:34Z</time></trkpt>
<trkpt lat="46.2282104492187500" lon="7.8439226150512695"><ele></ele><time>2014-10-15T21:50:37Z</time></trkpt>
<trkpt lat="46.2280540466308594" lon="7.8438434600830078"><ele></ele><time>2014-10-15T21:50:40Z</time></trkpt>
<trkpt lat="46.2278404235839844" lon="7.8438096046447754"><ele></ele><time>2014-10-15T21:50:43Z</time></trkpt>
<trkpt lat="46.2275085449218750" lon="7.8437671661376953"><ele></ele><time>2014-10-15T21:50:46Z</time></trkpt>
<trkpt lat="46.2272987365722656" lon="7.8437628746032715"><ele></ele><time>2014-10-15T21:50:49Z</time></trkpt>
<trkpt lat="46.2269859313964844" lon="7.8438229560852051"><ele></ele><time>2014-10-15T21:50:52Z</time></trkpt>
<trkpt lat="46.2266540527343750" lon="7.8440542221069336"><ele></ele><time>2014-10-15T21:50:55Z</time></trkpt>
<trkpt lat="46.2264862060546875" lon="7.8441209793090820"><ele></ele><time>2014-10-15T21:50:58Z</time></trkpt>
<trkpt lat="46.2263183593750000" lon="7.8440685272216797"><ele></ele><time>2014-10-15T21:51:1Z</time></trkpt>
<trkpt lat="46.2261657714843750" lon="7.8439531326293945"><ele></ele><time>2014-10-15T21:51:4Z</time></trkpt>
<trkpt lat="46.2259521484375000" lon="7.8437390327453613"><ele></ele><time>2014-10-15T21:51:7Z</time></trkpt>
<trkpt lat="46.2257537841796875" lon="7.8436460494995117"><ele></ele><time>2014-10-15T21:51:10Z</time></trkpt>
<trkpt lat="46.2254447937011719" lon="7.8435297012329102"><ele></ele><time>2014-10-15T21:51:13Z</time></trkpt>
<trkpt lat="46.2252769470214844" lon="7.8433423042297363"><ele></ele><time>2014-10-15T21:51:16Z</time></trkpt>
<trkpt lat="46.2251930236816406" lon="7.8431673049926758"><ele></ele><time>2014-10-15T21:51:19Z</time></trkpt>
<trkpt lat="46.2251167297363281" lon="7.8432021141052246"><ele></ele><time>2014-10-15T21:51:22Z</time></trkpt>
<trkpt lat="46.2252082824707031" lon="7.8433861732482910"><ele></ele><time>2014-10-15T21:51:25Z</time></trkpt>
<trkpt lat="46.2252655029296875" lon="7.8435349464416504"><ele></ele><time>2014-10-15T21:51:28Z</time></trkpt>
<trkpt lat="46.2253952026367188" lon="7.8437743186950684"><ele></ele><time>2014-10-15T21:51:31Z</time></trkpt>
<trkpt lat="46.2255554199218750" lon="7.8440375328063965"><ele></ele><time>2014-10-15T21:51:34Z</time></trkpt>
<trkpt lat="46.2256240844726562" lon="7.8442783355712891"><ele></ele><time>2014-10-15T21:51:37Z</time></trkpt>
<trkpt lat="46.2257003784179688" lon="7.8444743156433105"><ele></ele><time>2014-10-15T21:51:40Z</time></trkpt>
<trkpt lat="46.2257385253906250" lon="7.8446235656738281"><ele></ele><time>2014-10-15T21:51:43Z</time></trkpt>
<trkpt lat="46.2256278991699219" lon="7.8446369171142578"><ele></ele><time>2014-10-15T21:51:46Z</time></trkpt>
<trkpt lat="46.2254371643066406" lon="7.8445072174072266"><ele></ele><time>2014-10-15T21:51:49Z</time></trkpt>
<trkpt lat="46.2253723144531250" lon="7.8443350791931152"><ele></ele><time>2014-10-15T21:51:52Z</time></trkpt>
<trkpt lat="46.2252693176269531" lon="7.8441915512084961"><ele></ele><time>2014-10-15T21:51:55Z</time></trkpt>
<trkpt lat="46.2250328063964844" lon="7.8440222740173340"><ele></ele><time>2014-10-15T21:51:58Z</time></trkpt>
<trkpt lat="46.2249145507812500" lon="7.8438377380371094"><ele></ele><time>2014-10-15T21:52:1Z</time></trkpt>
<trkpt lat="46.2248153686523438" lon="7.8436508178710938"><ele></ele><time>2014-10-15T21:52:4Z</time></trkpt>
<trkpt lat="46.2247657775878906" lon="7.8433308601379395"><ele></ele><time>2014-10-15T21:52:7Z</time></trkpt>
<trkpt lat="46.2247276306152344" lon="7.8431859016418457"><ele></ele><time>2014-10-15T21:52:10Z</time></trkpt>
<trkpt lat="46.2246894836425781" lon="7.8430089950561523"><ele></ele><time>2014-10-15T21:52:13Z</time></trkpt>
<trkpt lat="46.2246360778808594" lon="7.8429517745971680"><ele></ele><time>2014-10-15T21:52:16Z</time></trkpt>
<trkpt lat="46.2244911193847656" lon="7.8428230285644531"><ele></ele><time>2014-10-15T21:52:19Z</time></trkpt>
<trkpt lat="46.2244262695312500" lon="7.8427329063415527"><ele></ele><time>2014-10-15T21:52:22Z</time></trkpt>
<trkpt lat="46.2243766784667969" lon="7.8426628112792969"><ele></ele><time>2014-10-15T21:52:25Z</time></trkpt>
<trkpt lat="46.2242774963378906" lon="7.8425960540771484"><ele></ele><time>2014-10-15T21:52:28Z</time></trkpt>
<trkpt lat="46.2241783142089844" lon="7.8425312042236328"><ele></ele><time>2014-10-15T21:52:31Z</time></trkpt>
<trkpt lat="46.2241134643554688" lon="7.8425011634826660"><ele></ele><time>2014-10-15T21:52:34Z</time></trkpt>
<trkpt lat="46.2240676879882812" lon="7.8424558639526367"><ele></ele><time>2014-10-15T21:52:37Z</time></trkpt>
<trkpt lat="46.2240142822265625" lon="7.8424191474914551"><ele></ele><time>2014-10-15T21:52:40Z</time></trkpt>
<trkpt lat="46.2239341735839844" lon="7.8423624038696289"><ele></ele><time>2014-10-15T21:52:43Z</time></trkpt>
<trkpt lat="46.2238655090332031" lon="7.8422708511352539"><ele></ele><time>2014-10-15T21:52:46Z</time></trkpt>
<trkpt lat="46.2238311767578125" lon="7.8421983718872070"><ele></ele><time>2014-10-15T21:52:49Z</time></trkpt>
<trkpt lat="46.2238082885742188" lon="7.8420829772949219"><ele></ele><time>2014-10-15T21:52:52Z</time></trkpt>
<trkpt lat="46.2237968444824219" lon="7.8420042991638184"><ele></ele><time>2014-10-15T21:52:55Z</time></trkpt>
<trkpt lat="46.2238006591796875" lon="7.8418607711791992"><ele></ele><time>2014-10-15T21:52:58Z</time></trkpt>
<trkpt lat="46.2237777709960938" lon="7.8417167663574219"><ele></ele><time>2014-10-15T21:53:1Z</time></trkpt>
<trkpt lat="46.2237548828125000" lon="7.8416285514831543"><ele></ele><time>2014-10-15T21:53:4Z</time></trkpt>
<trkpt lat="46.2236900329589844" lon="7.8415212631225586"><ele></ele><time>2014-10-15T21:53:7Z</time></trkpt>
<trkpt lat="46.2236175537109375" lon="7.8414268493652344"><ele></ele><time>2014-10-15T21:53:10Z</time></trkpt>
<trkpt lat="46.2235679626464844" lon="7.8413681983947754"><ele></ele><time>2014-10-15T21:53:13Z</time></trkpt>
<trkpt lat="46.2235183715820312" lon="7.8413133621215820"><ele></ele><time>2014-10-15T21:53:16Z</time></trkpt>
<trkpt lat="46.2234420776367188" lon="7.8412380218505859"><ele></ele><time>2014-10-15T21:53:19Z</time></trkpt>
<trkpt lat="46.2233810424804688" lon="7.8411235809326172"><ele></ele><time>2014-10-15T21:53:22Z</time></trkpt>
<trkpt lat="46.2233314514160156" lon="7.8410015106201172"><ele></ele><time>2014-10-15T21:53:25Z</time></trkpt>
<trkpt lat="46.2232818603515625" lon="7.8408784866333008"><ele></ele><time>2014-10-15T21:53:28Z</time></trkpt>
<trkpt lat="46.2232284545898438" lon="7.8407616615295410"><ele></ele><time>2014-10-15T21:53:31Z</time></trkpt>
<trkpt lat="46.2231941223144531" lon="7.8406891822814941"><ele></ele><time>2014-10-15T21:53:34Z</time></trkpt>
<trkpt lat="46.2231369018554688" lon="7.8405942916870117"><ele></ele><time>2014-10-15T21:53:37Z</time></trkpt>
<trkpt lat="46.2230911254882812" lon="7.8405404090881348"><ele></ele><time>2014-10-15T21:53:40Z</time></trkpt>
<trkpt lat="46.2230491638183594" lon="7.8404846191406250"><ele></ele><time>2014-10-15T21:53:43Z</time></trkpt>
<trkpt lat="46.2229766845703125" lon="7.8404130935668945"><ele></ele><time>2014-10-15T21:53:46Z</time></trkpt>
<trkpt lat="46.2229080200195312" lon="7.8403544425964355"><ele></ele><time>2014-10-15T21:53:49Z</time></trkpt>
<trkpt lat="46.2228546142578125" lon="7.8402514457702637"><ele></ele><time>2014-10-15T21:53:52Z</time></trkpt>
<trkpt lat="46.2227935791015625" lon="7.8401565551757812"><ele></ele><time>2014-10-15T21:53:55Z</time></trkpt>
<trkpt lat="46.2227630615234375" lon="7.8400955200195312"><ele></ele><time>2014-10-15T21:53:58Z</time></trkpt>
<trkpt lat="46.2227478027343750" lon="7.8400297164916992"><ele></ele><time>2014-10-15T21:54:1Z</time></trkpt>
<trkpt lat="46.2227134704589844" lon="7.8399276733398438"><ele></ele><time>2014-10-15T21:54:4Z</time></trkpt>
<trkpt lat="46.2226829528808594" lon="7.8398180007934570"><ele></ele><time>2014-10-15T21:54:7Z</time></trkpt>
<trkpt lat="46.2226753234863281" lon="7.8397383689880371"><ele></ele><time>2014-10-15T21:54:10Z</time></trkpt>
<trkpt lat="46.2226753234863281" lon="7.8396201133728027"><ele></ele><time>2014-10-15T21:54:13Z</time></trkpt>
<trkpt lat="46.2226715087890625" lon="7.8395404815673828"><ele></ele><time>2014-10-15T21:54:16Z</time></trkpt>
<trkpt lat="46.2226753234863281" lon="7.8394598960876465"><ele></ele><time>2014-10-15T21:54:19Z</time></trkpt>
<trkpt lat="46.2226943969726562" lon="7.8393306732177734"><ele></ele><time>2014-10-15T21:54:22Z</time></trkpt>
<trkpt lat="46.2227210998535156" lon="7.8391871452331543"><ele></ele><time>2014-10-15T21:54:25Z</time></trkpt>
<trkpt lat="46.2227287292480469" lon="7.8390970230102539"><ele></ele><time>2014-10-15T21:54:28Z</time></trkpt>
<trkpt lat="46.2227096557617188" lon="7.8389897346496582"><ele></ele><time>2014-10-15T21:54:31Z</time></trkpt>
<trkpt lat="46.2226486206054688" lon="7.8389034271240234"><ele></ele><time>2014-10-15T21:54:34Z</time></trkpt>
<trkpt lat="46.2225990295410156" lon="7.8388528823852539"><ele></ele><time>2014-10-15T21:54:37Z</time></trkpt>
<trkpt lat="46.2225418090820312" lon="7.8388075828552246"><ele></ele><time>2014-10-15T21:54:40Z</time></trkpt>
<trkpt lat="46.2224655151367188" lon="7.8387370109558105"><ele></ele><time>2014-10-15T21:54:43Z</time></trkpt>
<trkpt lat="46.2223854064941406" lon="7.8386678695678711"><ele></ele><time>2014-10-15T21:54:46Z</time></trkpt>
<trkpt lat="46.2223396301269531" lon="7.8386197090148926"><ele></ele><time>2014-10-15T21:54:49Z</time></trkpt>
<trkpt lat="46.2222747802734375" lon="7.8385510444641113"><ele></ele><time>2014-10-15T21:54:52Z</time></trkpt>
<trkpt lat="46.2222290039062500" lon="7.8385028839111328"><ele></ele><time>2014-10-15T21:54:55Z</time></trkpt>
<trkpt lat="46.2221870422363281" lon="7.8384451866149902"><ele></ele><time>2014-10-15T21:54:58Z</time></trkpt>
<trkpt lat="46.2221527099609375" lon="7.8383283615112305"><ele></ele><time>2014-10-15T21:55:1Z</time></trkpt>
<trkpt lat="46.2221260070800781" lon="7.8382453918457031"><ele></ele><time>2014-10-15T21:55:4Z</time></trkpt>
<trkpt lat="46.2220916748046875" lon="7.8381204605102539"><ele></ele><time>2014-10-15T21:55:7Z</time></trkpt>
<trkpt lat="46.2220726013183594" lon="7.8380379676818848"><ele></ele><time>2014-10-15T21:55:10Z</time></trkpt>
<trkpt lat="46.2220115661621094" lon="7.8379416465759277"><ele></ele><time>2014-10-15T21:55:13Z</time></trkpt>
<trkpt lat="46.2219619750976562" lon="7.8378868103027344"><ele></ele><time>2014-10-15T21:55:16Z</time></trkpt>
<trkpt lat="46.2218856811523438" lon="7.8377962112426758"><ele></ele><time>2014-10-15T21:55:19Z</time></trkpt>
<trkpt lat="46.2218208312988281" lon="7.8376979827880859"><ele></ele><time>2014-10-15T21:55:22Z</time></trkpt>
<trkpt lat="46.2217864990234375" lon="7.8376159667968750"><ele></ele><time>2014-10-15T21:55:25Z</time></trkpt>
<trkpt lat="46.2217483520507812" lon="7.8375277519226074"><ele></ele><time>2014-10-15T21:55:28Z</time></trkpt>
<trkpt lat="46.2216987609863281" lon="7.8373918533325195"><ele></ele><time>2014-10-15T21:55:31Z</time></trkpt>
<trkpt lat="46.2216682434082031" lon="7.8373007774353027"><ele></ele><time>2014-10-15T21:55:34Z</time></trkpt>
<trkpt lat="46.2216033935546875" lon="7.8371839523315430"><ele></ele><time>2014-10-15T21:55:37Z</time></trkpt>
<trkpt lat="46.2215156555175781" lon="7.8371095657348633"><ele></ele><time>2014-10-15T21:55:40Z</time></trkpt>
<trkpt lat="46.2214584350585938" lon="7.8370642662048340"><ele></ele><time>2014-10-15T21:55:43Z</time></trkpt>
<trkpt lat="46.2213592529296875" lon="7.8370165824890137"><ele></ele><time>2014-10-15T21:55:46Z</time></trkpt>
<trkpt lat="46.2212791442871094" lon="7.8370079994201660"><ele></ele><time>2014-10-15T21:55:49Z</time></trkpt>
<trkpt lat="46.2211990356445312" lon="7.8370032310485840"><ele></ele><time>2014-10-15T21:55:52Z</time></trkpt>
<trkpt lat="46.2210769653320312" lon="7.8369917869567871"><ele></ele><time>2014-10-15T21:55:55Z</time></trkpt>
<trkpt lat="46.2209968566894531" lon="7.8369688987731934"><ele></ele><time>2014-10-15T21:55:58Z</time></trkpt>
<trkpt lat="46.2208938598632812" lon="7.8368949890136719"><ele></ele><time>2014-10-15T21:56:1Z</time></trkpt>
<trkpt lat="46.2208290100097656" lon="7.8368268013000488"><ele></ele><time>2014-10-15T21:56:4Z</time></trkpt>
<trkpt lat="46.2207489013671875" lon="7.8366966247558594"><ele></ele><time>2014-10-15T21:56:7Z</time></trkpt>
<trkpt lat="46.2206993103027344" lon="7.8366022109985352"><ele></ele><time>2014-10-15T21:56:10Z</time></trkpt>
<trkpt lat="46.2206306457519531" lon="7.8364534378051758"><ele></ele><time>2014-10-15T21:56:13Z</time></trkpt>
<trkpt lat="46.2205886840820312" lon="7.8363509178161621"><ele></ele><time>2014-10-15T21:56:16Z</time></trkpt>
<trkpt lat="46.2205543518066406" lon="7.8361787796020508"><ele></ele><time>2014-10-15T21:56:19Z</time></trkpt>
<trkpt lat="46.2205390930175781" lon="7.8360695838928223"><ele></ele><time>2014-10-15T21:56:22Z</time></trkpt>
<trkpt lat="46.2204933166503906" lon="7.8359193801879883"><ele></ele><time>2014-10-15T21:56:25Z</time></trkpt>
<trkpt lat="46.2204132080078125" lon="7.8356680870056152"><ele></ele><time>2014-10-15T21:56:28Z</time></trkpt>
<trkpt lat="46.2202720642089844" lon="7.8355441093444824"><ele></ele><time>2014-10-15T21:56:31Z</time></trkpt>
<trkpt lat="46.2201271057128906" lon="7.8351769447326660"><ele></ele><time>2014-10-15T21:56:34Z</time></trkpt>
<trkpt lat="46.2199707031250000" lon="7.8348360061645508"><ele></ele><time>2014-10-15T21:56:37Z</time></trkpt>
<trkpt lat="46.2198524475097656" lon="7.8343877792358398"><ele></ele><time>2014-10-15T21:56:40Z</time></trkpt>
<trkpt lat="46.2197036743164062" lon="7.8340897560119629"><ele></ele><time>2014-10-15T21:56:43Z</time></trkpt>
<trkpt lat="46.2195281982421875" lon="7.8337230682373047"><ele></ele><time>2014-10-15T21:56:46Z</time></trkpt>
<trkpt lat="46.2193145751953125" lon="7.8335251808166504"><ele></ele><time>2014-10-15T21:56:49Z</time></trkpt>
<trkpt lat="46.2191352844238281" lon="7.8333759307861328"><ele></ele><time>2014-10-15T21:56:52Z</time></trkpt>
<trkpt lat="46.2188835144042969" lon="7.8330779075622559"><ele></ele><time>2014-10-15T21:56:55Z</time></trkpt>
<trkpt lat="46.2187232971191406" lon="7.8328676223754883"><ele></ele><time>2014-10-15T21:56:58Z</time></trkpt>
<trkpt lat="46.2183837890625000" lon="7.8326067924499512"><ele></ele><time>2014-10-15T21:57:1Z</time></trkpt>
<trkpt lat="46.2180976867675781" lon="7.8324332237243652"><ele></ele><time>2014-10-15T21:57:4Z</time></trkpt>
<trkpt lat="46.2180137634277344" lon="7.8323025703430176"><ele></ele><time>2014-10-15T21:57:7Z</time></trkpt>
<trkpt lat="46.2178878784179688" lon="7.8319768905639648"><ele></ele><time>2014-10-15T21:57:10Z</time></trkpt>
<trkpt lat="46.2176971435546875" lon="7.8316750526428223"><ele></ele><time>2014-10-15T21:57:13Z</time></trkpt>
<trkpt lat="46.2174873352050781" lon="7.8314342498779297"><ele></ele><time>2014-10-15T21:57:16Z</time></trkpt>
<trkpt lat="46.2172355651855469" lon="7.8312215805053711"><ele></ele><time>2014-10-15T21:57:19Z</time></trkpt>
<trkpt lat="46.2169189453125000" lon="7.8309884071350098"><ele></ele><time>2014-10-15T21:57:22Z</time></trkpt>
<trkpt lat="46.2167358398437500" lon="7.8308544158935547"><ele></ele><time>2014-10-15T21:57:25Z</time></trkpt>
<trkpt lat="46.2166595458984375" lon="7.8307576179504395"><ele></ele><time>2014-10-15T21:57:28Z</time></trkpt>
<trkpt lat="46.2165184020996094" lon="7.8307623863220215"><ele></ele><time>2014-10-15T21:57:31Z</time></trkpt>
<trkpt lat="46.2165946960449219" lon="7.8309354782104492"><ele></ele><time>2014-10-15T21:57:34Z</time></trkpt>
<trkpt lat="46.2168807983398438" lon="7.8312187194824219"><ele></ele><time>2014-10-15T21:57:37Z</time></trkpt>
<trkpt lat="46.2170066833496094" lon="7.8314199447631836"><ele></ele><time>2014-10-15T21:57:40Z</time></trkpt>
<trkpt lat="46.2172050476074219" lon="7.8317737579345703"><ele></ele><time>2014-10-15T21:57:43Z</time></trkpt>
<trkpt lat="46.2173385620117188" lon="7.8320269584655762"><ele></ele><time>2014-10-15T21:57:46Z</time></trkpt>
<trkpt lat="46.2174911499023438" lon="7.8325042724609375"><ele></ele><time>2014-10-15T21:57:49Z</time></trkpt>
<trkpt lat="46.2175941467285156" lon="7.8329014778137207"><ele></ele><time>2014-10-15T21:57:52Z</time></trkpt>
<trkpt lat="46.2178802490234375" lon="7.8332843780517578"><ele></ele><time>2014-10-15T21:57:55Z</time></trkpt>
<trkpt lat="46.2180519104003906" lon="7.8335194587707520"><ele></ele><time>2014-10-15T21:57:58Z</time></trkpt>
<trkpt lat="46.2181892395019531" lon="7.8337182998657227"><ele></ele><time>2014-10-15T21:58:1Z</time></trkpt>
<trkpt lat="46.2182197570800781" lon="7.8338160514831543"><ele></ele><time>2014-10-15T21:58:4Z</time></trkpt>
<trkpt lat="46.2181053161621094" lon="7.8338527679443359"><ele></ele><time>2014-10-15T21:58:7Z</time></trkpt>
<trkpt lat="46.2177658081054688" lon="7.8334040641784668"><ele></ele><time>2014-10-15T21:58:10Z</time></trkpt>
<trkpt lat="46.2175254821777344" lon="7.8332328796386719"><ele></ele><time>2014-10-15T21:58:13Z</time></trkpt>
<trkpt lat="46.2172927856445312" lon="7.8329482078552246"><ele></ele><time>2014-10-15T21:58:16Z</time></trkpt>
<trkpt lat="46.2170867919921875" lon="7.8325309753417969"><ele></ele><time>2014-10-15T21:58:19Z</time></trkpt>
<trkpt lat="46.2168769836425781" lon="7.8322381973266602"><ele></ele><time>2014-10-15T21:58:22Z</time></trkpt>
<trkpt lat="46.2167510986328125" lon="7.8320450782775879"><ele></ele><time>2014-10-15T21:58:25Z</time></trkpt>
<trkpt lat="46.2162551879882812" lon="7.8317661285400391"><ele></ele><time>2014-10-15T21:58:28Z</time></trkpt>
<trkpt lat="46.2160491943359375" lon="7.8316307067871094"><ele></ele><time>2014-10-15T21:58:31Z</time></trkpt>
<trkpt lat="46.2158508300781250" lon="7.8314194679260254"><ele></ele><time>2014-10-15T21:58:34Z</time></trkpt>
<trkpt lat="46.2156600952148438" lon="7.8311929702758789"><ele></ele><time>2014-10-15T21:58:37Z</time></trkpt>
<trkpt lat="46.2154998779296875" lon="7.8309798240661621"><ele></ele><time>2014-10-15T21:58:40Z</time></trkpt>
<trkpt lat="46.2153854370117188" lon="7.8307170867919922"><ele></ele><time>2014-10-15T21:58:43Z</time></trkpt>
<trkpt lat="46.2153015136718750" lon="7.8304557800292969"><ele></ele><time>2014-10-15T21:58:46Z</time></trkpt>
<trkpt lat="46.2152442932128906" lon="7.8303275108337402"><ele></ele><time>2014-10-15T21:58:49Z</time></trkpt>
<trkpt lat="46.2149162292480469" lon="7.8301467895507812"><ele></ele><time>2014-10-15T21:58:52Z</time></trkpt>
<trkpt lat="46.2146720886230469" lon="7.8298974037170410"><ele></ele><time>2014-10-15T21:58:55Z</time></trkpt>
<trkpt lat="46.2145500183105469" lon="7.8297495841979980"><ele></ele><time>2014-10-15T21:58:58Z</time></trkpt>
<trkpt lat="46.2141265869140625" lon="7.8290715217590332"><ele></ele><time>2014-10-15T21:59:1Z</time></trkpt>
<trkpt lat="46.2139968872070312" lon="7.8288636207580566"><ele></ele><time>2014-10-15T21:59:4Z</time></trkpt>
<trkpt lat="46.2138099670410156" lon="7.8286352157592773"><ele></ele><time>2014-10-15T21:59:7Z</time></trkpt>
<trkpt lat="46.2136802673339844" lon="7.8285174369812012"><ele></ele><time>2014-10-15T21:59:10Z</time></trkpt>
<trkpt lat="46.2133026123046875" lon="7.8282351493835449"><ele></ele><time>2014-10-15T21:59:13Z</time></trkpt>
<trkpt lat="46.2131958007812500" lon="7.8281059265136719"><ele></ele><time>2014-10-15T21:59:16Z</time></trkpt>
<trkpt lat="46.2130584716796875" lon="7.8278398513793945"><ele></ele><time>2014-10-15T21:59:19Z</time></trkpt>
<trkpt lat="46.2129707336425781" lon="7.8276295661926270"><ele></ele><time>2014-10-15T21:59:22Z</time></trkpt>
<trkpt lat="46.2128257751464844" lon="7.8272833824157715"><ele></ele><time>2014-10-15T21:59:25Z</time></trkpt>
<trkpt lat="46.2127990722656250" lon="7.8271613121032715"><ele></ele><time>2014-10-15T21:59:28Z</time></trkpt>
<trkpt lat="46.2126045227050781" lon="7.8271307945251465"><ele></ele><time>2014-10-15T21:59:31Z</time></trkpt>
<trkpt lat="46.2124099731445312" lon="7.8271741867065430"><ele></ele><time>2014-10-15T21:59:34Z</time></trkpt>
<trkpt lat="46.2122611999511719" lon="7.8271193504333496"><ele></ele><time>2014-10-15T21:59:37Z</time></trkpt>
<trkpt lat="46.2121543884277344" lon="7.8270626068115234"><ele></ele><time>2014-10-15T21:59:40Z</time></trkpt>
<trkpt lat="46.2120208740234375" lon="7.8269767761230469"><ele></ele><time>2014-10-15T21:59:43Z</time></trkpt>
<trkpt lat="46.2119255065917969" lon="7.8269100189208984"><ele></ele><time>2014-10-15T21:59:46Z</time></trkpt>
<trkpt lat="46.2118530273437500" lon="7.8268036842346191"><ele></ele><time>2014-10-15T21:59:49Z</time></trkpt>
<trkpt lat="46.2117881774902344" lon="7.8267207145690918"><ele></ele><time>2014-10-15T21:59:52Z</time></trkpt>
<trkpt lat="46.2117271423339844" lon="7.8266863822937012"><ele></ele><time>2014-10-15T21:59:55Z</time></trkpt>
<trkpt lat="46.2116699218750000" lon="7.8266572952270508"><ele></ele><time>2014-10-15T21:59:58Z</time></trkpt>
<trkpt lat="46.2116584777832031" lon="7.8266448974609375"><ele></ele><time>2014-10-15T22:0:1Z</time></trkpt>
<trkpt lat="46.2116279602050781" lon="7.8266139030456543"><ele></ele><time>2014-10-15T22:0:4Z</time></trkpt>
<trkpt lat="46.2116012573242188" lon="7.8266015052795410"><ele></ele><time>2014-10-15T22:0:7Z</time></trkpt>
<trkpt lat="46.2115707397460938" lon="7.8265657424926758"><ele></ele><time>2014-10-15T22:0:10Z</time></trkpt>
<trkpt lat="46.2115402221679688" lon="7.8265166282653809"><ele></ele><time>2014-10-15T22:0:13Z</time></trkpt>
<trkpt lat="46.2115097045898438" lon="7.8264603614807129"><ele></ele><time>2014-10-15T22:0:16Z</time></trkpt>
<trkpt lat="46.2114791870117188" lon="7.8264079093933105"><ele></ele><time>2014-10-15T22:0:19Z</time></trkpt>
<trkpt lat="46.2114295959472656" lon="7.8263363838195801"><ele></ele><time>2014-10-15T22:0:22Z</time></trkpt>
<trkpt lat="46.2113990783691406" lon="7.8263144493103027"><ele></ele><time>2014-10-15T22:0:25Z</time></trkpt>
<trkpt lat="46.2113494873046875" lon="7.8263235092163086"><ele></ele><time>2014-10-15T22:0:28Z</time></trkpt>
<trkpt lat="46.2113075256347656" lon="7.8263416290283203"><ele></ele><time>2014-10-15T22:0:31Z</time></trkpt>
<trkpt lat="46.2112846374511719" lon="7.8263301849365234"><ele></ele><time>2014-10-15T22:0:34Z</time></trkpt>
<trkpt lat="46.2112617492675781" lon="7.8262958526611328"><ele></ele><time>2014-10-15T22:0:37Z</time></trkpt>
<trkpt lat="46.2112464904785156" lon="7.8262524604797363"><ele></ele><time>2014-10-15T22:0:40Z</time></trkpt>
<trkpt lat="46.2112121582031250" lon="7.8262400627136230"><ele></ele><time>2014-10-15T22:0:43Z</time></trkpt>
<trkpt lat="46.2111740112304688" lon="7.8262157440185547"><ele></ele><time>2014-10-15T22:0:46Z</time></trkpt>
<trkpt lat="46.2111434936523438" lon="7.8261823654174805"><ele></ele><time>2014-10-15T22:0:49Z</time></trkpt>
<trkpt lat="46.2111167907714844" lon="7.8261632919311523"><ele></ele><time>2014-10-15T22:0:52Z</time></trkpt>
<trkpt lat="46.2110862731933594" lon="7.8261499404907227"><ele></ele><time>2014-10-15T22:0:55Z</time></trkpt>
<trkpt lat="46.2110481262207031" lon="7.8261017799377441"><ele></ele><time>2014-10-15T22:0:58Z</time></trkpt>
<trkpt lat="46.2110176086425781" lon="7.8260750770568848"><ele></ele><time>2014-10-15T22:1:1Z</time></trkpt>
<trkpt lat="46.2110252380371094" lon="7.8260874748229980"><ele></ele><time>2014-10-15T22:1:4Z</time></trkpt>
<trkpt lat="46.2110290527343750" lon="7.8261022567749023"><ele></ele><time>2014-10-15T22:1:7Z</time></trkpt>
<trkpt lat="46.2110443115234375" lon="7.8261651992797852"><ele></ele><time>2014-10-15T22:1:10Z</time></trkpt>
<trkpt lat="46.2110595703125000" lon="7.8262209892272949"><ele></ele><time>2014-10-15T22:1:13Z</time></trkpt>
<trkpt lat="46.2110710144042969" lon="7.8262677192687988"><ele></ele><time>2014-10-15T22:1:16Z</time></trkpt>
<trkpt lat="46.2110710144042969" lon="7.8263258934020996"><ele></ele><time>2014-10-15T22:1:19Z</time></trkpt>
<trkpt lat="46.2110366821289062" lon="7.8263354301452637"><ele></ele><time>2014-10-15T22:1:22Z</time></trkpt>
<trkpt lat="46.2109870910644531" lon="7.8263182640075684"><ele></ele><time>2014-10-15T22:1:25Z</time></trkpt>
<trkpt lat="46.2109298706054688" lon="7.8263068199157715"><ele></ele><time>2014-10-15T22:1:28Z</time></trkpt>
<trkpt lat="46.2108726501464844" lon="7.8262734413146973"><ele></ele><time>2014-10-15T22:1:31Z</time></trkpt>
<trkpt lat="46.2108421325683594" lon="7.8262519836425781"><ele></ele><time>2014-10-15T22:1:34Z</time></trkpt>
<trkpt lat="46.2108230590820312" lon="7.8262329101562500"><ele></ele><time>2014-10-15T22:1:37Z</time></trkpt>
<trkpt lat="46.2108001708984375" lon="7.8262004852294922"><ele></ele><time>2014-10-15T22:1:40Z</time></trkpt>
<trkpt lat="46.2107086181640625" lon="7.8260469436645508"><ele></ele><time>2014-10-15T22:1:43Z</time></trkpt>
<trkpt lat="46.2105598449707031" lon="7.8259000778198242"><ele></ele><time>2014-10-15T22:1:46Z</time></trkpt>
<trkpt lat="46.2105140686035156" lon="7.8258318901062012"><ele></ele><time>2014-10-15T22:1:49Z</time></trkpt>
<trkpt lat="46.2104454040527344" lon="7.8257546424865723"><ele></ele><time>2014-10-15T22:1:52Z</time></trkpt>
<trkpt lat="46.2103843688964844" lon="7.8256793022155762"><ele></ele><time>2014-10-15T22:1:55Z</time></trkpt>
<trkpt lat="46.2102546691894531" lon="7.8255391120910645"><ele></ele><time>2014-10-15T22:1:58Z</time></trkpt>
<trkpt lat="46.2100753784179688" lon="7.8254346847534180"><ele></ele><time>2014-10-15T22:2:1Z</time></trkpt>
<trkpt lat="46.2099456787109375" lon="7.8253464698791504"><ele></ele><time>2014-10-15T22:2:4Z</time></trkpt>
<trkpt lat="46.2097434997558594" lon="7.8251709938049316"><ele></ele><time>2014-10-15T22:2:7Z</time></trkpt>
<trkpt lat="46.2096443176269531" lon="7.8251366615295410"><ele></ele><time>2014-10-15T22:2:10Z</time></trkpt>
<trkpt lat="46.2096214294433594" lon="7.8252305984497070"><ele></ele><time>2014-10-15T22:2:13Z</time></trkpt>
<trkpt lat="46.2096939086914062" lon="7.8254041671752930"><ele></ele><time>2014-10-15T22:2:16Z</time></trkpt>
<trkpt lat="46.2097778320312500" lon="7.8255982398986816"><ele></ele><time>2014-10-15T22:2:19Z</time></trkpt>
<trkpt lat="46.2098808288574219" lon="7.8258366584777832"><ele></ele><time>2014-10-15T22:2:22Z</time></trkpt>
<trkpt lat="46.2099571228027344" lon="7.8260116577148438"><ele></ele><time>2014-10-15T22:2:25Z</time></trkpt>
<trkpt lat="46.2100219726562500" lon="7.8261795043945312"><ele></ele><time>2014-10-15T22:2:28Z</time></trkpt>
<trkpt lat="46.2100944519042969" lon="7.8264431953430176"><ele></ele><time>2014-10-15T22:2:31Z</time></trkpt>
<trkpt lat="46.2101402282714844" lon="7.8266425132751465"><ele></ele><time>2014-10-15T22:2:34Z</time></trkpt>
<trkpt lat="46.2101402282714844" lon="7.8267111778259277"><ele></ele><time>2014-10-15T22:2:37Z</time></trkpt>
<trkpt lat="46.2100944519042969" lon="7.8267455101013184"><ele></ele><time>2014-10-15T22:2:40Z</time></trkpt>
<trkpt lat="46.2100067138671875" lon="7.8266096115112305"><ele></ele><time>2014-10-15T22:2:43Z</time></trkpt>
<trkpt lat="46.2099342346191406" lon="7.8264794349670410"><ele></ele><time>2014-10-15T22:2:46Z</time></trkpt>
<trkpt lat="46.2098541259765625" lon="7.8263578414916992"><ele></ele><time>2014-10-15T22:2:49Z</time></trkpt>
<trkpt lat="46.2097244262695312" lon="7.8261780738830566"><ele></ele><time>2014-10-15T22:2:52Z</time></trkpt>
<trkpt lat="46.2096366882324219" lon="7.8260726928710938"><ele></ele><time>2014-10-15T22:2:55Z</time></trkpt>
<trkpt lat="46.2095413208007812" lon="7.8260068893432617"><ele></ele><time>2014-10-15T22:2:58Z</time></trkpt>
<trkpt lat="46.2094535827636719" lon="7.8259854316711426"><ele></ele><time>2014-10-15T22:3:1Z</time></trkpt>
<trkpt lat="46.2094268798828125" lon="7.8260364532470703"><ele></ele><time>2014-10-15T22:3:4Z</time></trkpt>
<trkpt lat="46.2095108032226562" lon="7.8262081146240234"><ele></ele><time>2014-10-15T22:3:7Z</time></trkpt>
<trkpt lat="46.2096405029296875" lon="7.8264822959899902"><ele></ele><time>2014-10-15T22:3:10Z</time></trkpt>
<trkpt lat="46.2097320556640625" lon="7.8266391754150391"><ele></ele><time>2014-10-15T22:3:13Z</time></trkpt>
<trkpt lat="46.2098197937011719" lon="7.8267803192138672"><ele></ele><time>2014-10-15T22:3:16Z</time></trkpt>
<trkpt lat="46.2098808288574219" lon="7.8269405364990234"><ele></ele><time>2014-10-15T22:3:19Z</time></trkpt>
<trkpt lat="46.2099533081054688" lon="7.8270969390869141"><ele></ele><time>2014-10-15T22:3:22Z</time></trkpt>
<trkpt lat="46.2098350524902344" lon="7.8271112442016602"><ele></ele><time>2014-10-15T22:3:25Z</time></trkpt>
<trkpt lat="46.2096595764160156" lon="7.8270368576049805"><ele></ele><time>2014-10-15T22:3:28Z</time></trkpt>
<trkpt lat="46.2096138000488281" lon="7.8270196914672852"><ele></ele><time>2014-10-15T22:3:31Z</time></trkpt>
<trkpt lat="46.2096939086914062" lon="7.8271837234497070"><ele></ele><time>2014-10-15T22:3:34Z</time></trkpt>
<trkpt lat="46.2098655700683594" lon="7.8273997306823730"><ele></ele><time>2014-10-15T22:3:37Z</time></trkpt>
<trkpt lat="46.2098960876464844" lon="7.8274955749511719"><ele></ele><time>2014-10-15T22:3:40Z</time></trkpt>
<trkpt lat="46.2096405029296875" lon="7.8274898529052734"><ele></ele><time>2014-10-15T22:3:43Z</time></trkpt>
<trkpt lat="46.2095184326171875" lon="7.8274636268615723"><ele></ele><time>2014-10-15T22:3:46Z</time></trkpt>
<trkpt lat="46.2095451354980469" lon="7.8275890350341797"><ele></ele><time>2014-10-15T22:3:49Z</time></trkpt>
<trkpt lat="46.2096862792968750" lon="7.8277921676635742"><ele></ele><time>2014-10-15T22:3:52Z</time></trkpt>
<trkpt lat="46.2098045349121094" lon="7.8278646469116211"><ele></ele><time>2014-10-15T22:3:55Z</time></trkpt>
<trkpt lat="46.2098464965820312" lon="7.8279032707214355"><ele></ele><time>2014-10-15T22:3:58Z</time></trkpt>
<trkpt lat="46.2097663879394531" lon="7.8279018402099609"><ele></ele><time>2014-10-15T22:4:1Z</time></trkpt>
<trkpt lat="46.2095870971679688" lon="7.8279113769531250"><ele></ele><time>2014-10-15T22:4:4Z</time></trkpt>
<trkpt lat="46.2094764709472656" lon="7.8279099464416504"><ele></ele><time>2014-10-15T22:4:7Z</time></trkpt>
<trkpt lat="46.2093582153320312" lon="7.8279027938842773"><ele></ele><time>2014-10-15T22:4:10Z</time></trkpt>
<trkpt lat="46.2091369628906250" lon="7.8277912139892578"><ele></ele><time>2014-10-15T22:4:13Z</time></trkpt>
<trkpt lat="46.2089691162109375" lon="7.8274841308593750"><ele></ele><time>2014-10-15T22:4:16Z</time></trkpt>
<trkpt lat="46.2087554931640625" lon="7.8274002075195312"><ele></ele><time>2014-10-15T22:4:19Z</time></trkpt>
<trkpt lat="46.2086296081542969" lon="7.8272881507873535"><ele></ele><time>2014-10-15T22:4:22Z</time></trkpt>
<trkpt lat="46.2084999084472656" lon="7.8270988464355469"><ele></ele><time>2014-10-15T22:4:25Z</time></trkpt>
<trkpt lat="46.2084770202636719" lon="7.8271431922912598"><ele></ele><time>2014-10-15T22:4:28Z</time></trkpt>
<trkpt lat="46.2085304260253906" lon="7.8273377418518066"><ele></ele><time>2014-10-15T22:4:31Z</time></trkpt>
<trkpt lat="46.2084465026855469" lon="7.8272619247436523"><ele></ele><time>2014-10-15T22:4:34Z</time></trkpt>
<trkpt lat="46.2083320617675781" lon="7.8271727561950684"><ele></ele><time>2014-10-15T22:4:37Z</time></trkpt>
<trkpt lat="46.2083358764648438" lon="7.8272900581359863"><ele></ele><time>2014-10-15T22:4:40Z</time></trkpt>
<trkpt lat="46.2083358764648438" lon="7.8274164199829102"><ele></ele><time>2014-10-15T22:4:43Z</time></trkpt>
<trkpt lat="46.2083473205566406" lon="7.8275942802429199"><ele></ele><time>2014-10-15T22:4:46Z</time></trkpt>
<trkpt lat="46.2082786560058594" lon="7.8275284767150879"><ele></ele><time>2014-10-15T22:4:49Z</time></trkpt>
<trkpt lat="46.2082061767578125" lon="7.8274288177490234"><ele></ele><time>2014-10-15T22:4:52Z</time></trkpt>
<trkpt lat="46.2081680297851562" lon="7.8274683952331543"><ele></ele><time>2014-10-15T22:4:55Z</time></trkpt>
<trkpt lat="46.2083511352539062" lon="7.8279757499694824"><ele></ele><time>2014-10-15T22:4:58Z</time></trkpt>
<trkpt lat="46.2084579467773438" lon="7.8281793594360352"><ele></ele><time>2014-10-15T22:5:1Z</time></trkpt>
<trkpt lat="46.2085533142089844" lon="7.8283557891845703"><ele></ele><time>2014-10-15T22:5:4Z</time></trkpt>
<trkpt lat="46.2086563110351562" lon="7.8286323547363281"><ele></ele><time>2014-10-15T22:5:7Z</time></trkpt>
<trkpt lat="46.2087898254394531" lon="7.8288760185241699"><ele></ele><time>2014-10-15T22:5:10Z</time></trkpt>
<trkpt lat="46.2089805603027344" lon="7.8290042877197266"><ele></ele><time>2014-10-15T22:5:13Z</time></trkpt>
<trkpt lat="46.2091026306152344" lon="7.8291549682617188"><ele></ele><time>2014-10-15T22:5:16Z</time></trkpt>
<trkpt lat="46.2092247009277344" lon="7.8293132781982422"><ele></ele><time>2014-10-15T22:5:19Z</time></trkpt>
<trkpt lat="46.2093276977539062" lon="7.8294749259948730"><ele></ele><time>2014-10-15T22:5:22Z</time></trkpt>
<trkpt lat="46.2093620300292969" lon="7.8296217918395996"><ele></ele><time>2014-10-15T22:5:25Z</time></trkpt>
<trkpt lat="46.2093009948730469" lon="7.8297033309936523"><ele></ele><time>2014-10-15T22:5:28Z</time></trkpt>
<trkpt lat="46.2092247009277344" lon="7.8297491073608398"><ele></ele><time>2014-10-15T22:5:31Z</time></trkpt>
<trkpt lat="46.2091636657714844" lon="7.8297848701477051"><ele></ele><time>2014-10-15T22:5:34Z</time></trkpt>
<trkpt lat="46.2091865539550781" lon="7.8299126625061035"><ele></ele><time>2014-10-15T22:5:37Z</time></trkpt>
<trkpt lat="46.2093315124511719" lon="7.8300294876098633"><ele></ele><time>2014-10-15T22:5:40Z</time></trkpt>
<trkpt lat="46.2094459533691406" lon="7.8301873207092285"><ele></ele><time>2014-10-15T22:5:43Z</time></trkpt>
<trkpt lat="46.2095870971679688" lon="7.8303675651550293"><ele></ele><time>2014-10-15T22:5:46Z</time></trkpt>
<trkpt lat="46.2096481323242188" lon="7.8305130004882812"><ele></ele><time>2014-10-15T22:5:49Z</time></trkpt>
<trkpt lat="46.2096786499023438" lon="7.8305768966674805"><ele></ele><time>2014-10-15T22:5:52Z</time></trkpt>
<trkpt lat="46.2097244262695312" lon="7.8305764198303223"><ele></ele><time>2014-10-15T22:5:55Z</time></trkpt>
<trkpt lat="46.2097587585449219" lon="7.8305997848510742"><ele></ele><time>2014-10-15T22:5:58Z</time></trkpt>
<trkpt lat="46.2097740173339844" lon="7.8306102752685547"><ele></ele><time>2014-10-15T22:6:1Z</time></trkpt>
<trkpt lat="46.2097778320312500" lon="7.8305897712707520"><ele></ele><time>2014-10-15T22:6:4Z</time></trkpt>
<trkpt lat="46.2097892761230469" lon="7.8305978775024414"><ele></ele><time>2014-10-15T22:6:7Z</time></trkpt>
<trkpt lat="46.2098083496093750" lon="7.8305907249450684"><ele></ele><time>2014-10-15T22:6:10Z</time></trkpt>
<trkpt lat="46.2098960876464844" lon="7.8306260108947754"><ele></ele><time>2014-10-15T22:6:13Z</time></trkpt>
<trkpt lat="46.2099380493164062" lon="7.8306593894958496"><ele></ele><time>2014-10-15T22:6:16Z</time></trkpt>
<trkpt lat="46.2099990844726562" lon="7.8307256698608398"><ele></ele><time>2014-10-15T22:6:19Z</time></trkpt>
<trkpt lat="46.2100410461425781" lon="7.8307847976684570"><ele></ele><time>2014-10-15T22:6:22Z</time></trkpt>
<trkpt lat="46.2101516723632812" lon="7.8309559822082520"><ele></ele><time>2014-10-15T22:6:25Z</time></trkpt>
<trkpt lat="46.2102584838867188" lon="7.8311553001403809"><ele></ele><time>2014-10-15T22:6:28Z</time></trkpt>
<trkpt lat="46.2103729248046875" lon="7.8313412666320801"><ele></ele><time>2014-10-15T22:6:31Z</time></trkpt>
<trkpt lat="46.2104911804199219" lon="7.8315811157226562"><ele></ele><time>2014-10-15T22:6:34Z</time></trkpt>
<trkpt lat="46.2106018066406250" lon="7.8318438529968262"><ele></ele><time>2014-10-15T22:6:37Z</time></trkpt>
<trkpt lat="46.2106819152832031" lon="7.8320360183715820"><ele></ele><time>2014-10-15T22:6:40Z</time></trkpt>
<trkpt lat="46.2107353210449219" lon="7.8321805000305176"><ele></ele><time>2014-10-15T22:6:43Z</time></trkpt>
<trkpt lat="46.2107887268066406" lon="7.8323187828063965"><ele></ele><time>2014-10-15T22:6:46Z</time></trkpt>
<trkpt lat="46.2108764648437500" lon="7.8325595855712891"><ele></ele><time>2014-10-15T22:6:49Z</time></trkpt>
<trkpt lat="46.2109413146972656" lon="7.8327407836914062"><ele></ele><time>2014-10-15T22:6:52Z</time></trkpt>
<trkpt lat="46.2110099792480469" lon="7.8329167366027832"><ele></ele><time>2014-10-15T22:6:55Z</time></trkpt>
<trkpt lat="46.2111167907714844" lon="7.8331890106201172"><ele></ele><time>2014-10-15T22:6:58Z</time></trkpt>
<trkpt lat="46.2111816406250000" lon="7.8333768844604492"><ele></ele><time>2014-10-15T22:7:1Z</time></trkpt>
<trkpt lat="46.2112503051757812" lon="7.8335576057434082"><ele></ele><time>2014-10-15T22:7:4Z</time></trkpt>
<trkpt lat="46.2113227844238281" lon="7.8337469100952148"><ele></ele><time>2014-10-15T22:7:7Z</time></trkpt>
<trkpt lat="46.2114524841308594" lon="7.8340525627136230"><ele></ele><time>2014-10-15T22:7:10Z</time></trkpt>
<trkpt lat="46.2115669250488281" lon="7.8342299461364746"><ele></ele><time>2014-10-15T22:7:13Z</time></trkpt>
<trkpt lat="46.2117729187011719" lon="7.8344850540161133"><ele></ele><time>2014-10-15T22:7:16Z</time></trkpt>
<trkpt lat="46.2118988037109375" lon="7.8346452713012695"><ele></ele><time>2014-10-15T22:7:19Z</time></trkpt>
<trkpt lat="46.2122879028320312" lon="7.8351101875305176"><ele></ele><time>2014-10-15T22:7:22Z</time></trkpt>
<trkpt lat="46.2125625610351562" lon="7.8354492187500000"><ele></ele><time>2014-10-15T22:7:25Z</time></trkpt>
<trkpt lat="46.2127113342285156" lon="7.8355603218078613"><ele></ele><time>2014-10-15T22:7:28Z</time></trkpt>
<trkpt lat="46.2130661010742188" lon="7.8359770774841309"><ele></ele><time>2014-10-15T22:7:31Z</time></trkpt>
<trkpt lat="46.2133598327636719" lon="7.8363089561462402"><ele></ele><time>2014-10-15T22:7:34Z</time></trkpt>
<trkpt lat="46.2134628295898438" lon="7.8365283012390137"><ele></ele><time>2014-10-15T22:7:37Z</time></trkpt>
<trkpt lat="46.2134971618652344" lon="7.8366818428039551"><ele></ele><time>2014-10-15T22:7:40Z</time></trkpt>
<trkpt lat="46.2133979797363281" lon="7.8367390632629395"><ele></ele><time>2014-10-15T22:7:43Z</time></trkpt>
<trkpt lat="46.2133407592773438" lon="7.8365864753723145"><ele></ele><time>2014-10-15T22:7:46Z</time></trkpt>
<trkpt lat="46.2132568359375000" lon="7.8363809585571289"><ele></ele><time>2014-10-15T22:7:49Z</time></trkpt>
<trkpt lat="46.2131881713867188" lon="7.8363246917724609"><ele></ele><time>2014-10-15T22:7:52Z</time></trkpt>
<trkpt lat="46.2131996154785156" lon="7.8363184928894043"><ele></ele><time>2014-10-15T22:7:55Z</time></trkpt>
<trkpt lat="46.2132339477539062" lon="7.8363008499145508"><ele></ele><time>2014-10-15T22:7:58Z</time></trkpt>
<trkpt lat="46.2133255004882812" lon="7.8363442420959473"><ele></ele><time>2014-10-15T22:8:1Z</time></trkpt>
<trkpt lat="46.2133445739746094" lon="7.8364152908325195"><ele></ele><time>2014-10-15T22:8:4Z</time></trkpt>
<trkpt lat="46.2133979797363281" lon="7.8365306854248047"><ele></ele><time>2014-10-15T22:8:7Z</time></trkpt>
<trkpt lat="46.2134475708007812" lon="7.8366255760192871"><ele></ele><time>2014-10-15T22:8:10Z</time></trkpt>
<trkpt lat="46.2135086059570312" lon="7.8367757797241211"><ele></ele><time>2014-10-15T22:8:13Z</time></trkpt>
<trkpt lat="46.2135200500488281" lon="7.8368892669677734"><ele></ele><time>2014-10-15T22:8:16Z</time></trkpt>
<trkpt lat="46.2134552001953125" lon="7.8371338844299316"><ele></ele><time>2014-10-15T22:8:19Z</time></trkpt>
<trkpt lat="46.2133255004882812" lon="7.8372788429260254"><ele></ele><time>2014-10-15T22:8:22Z</time></trkpt>
<trkpt lat="46.2131996154785156" lon="7.8373370170593262"><ele></ele><time>2014-10-15T22:8:25Z</time></trkpt>
<trkpt lat="46.2130661010742188" lon="7.8372182846069336"><ele></ele><time>2014-10-15T22:8:28Z</time></trkpt>
<trkpt lat="46.2130012512207031" lon="7.8371572494506836"><ele></ele><time>2014-10-15T22:8:31Z</time></trkpt>
<trkpt lat="46.2129478454589844" lon="7.8371515274047852"><ele></ele><time>2014-10-15T22:8:34Z</time></trkpt>
<trkpt lat="46.2129096984863281" lon="7.8371205329895020"><ele></ele><time>2014-10-15T22:8:37Z</time></trkpt>
<trkpt lat="46.2128677368164062" lon="7.8371062278747559"><ele></ele><time>2014-10-15T22:8:40Z</time></trkpt>
<trkpt lat="46.2128372192382812" lon="7.8370885848999023"><ele></ele><time>2014-10-15T22:8:43Z</time></trkpt>
<trkpt lat="46.2127876281738281" lon="7.8370747566223145"><ele></ele><time>2014-10-15T22:8:46Z</time></trkpt>
<trkpt lat="46.2127571105957031" lon="7.8370752334594727"><ele></ele><time>2014-10-15T22:8:49Z</time></trkpt>
<trkpt lat="46.2127227783203125" lon="7.8370938301086426"><ele></ele><time>2014-10-15T22:8:52Z</time></trkpt>
<trkpt lat="46.2126617431640625" lon="7.8371291160583496"><ele></ele><time>2014-10-15T22:8:55Z</time></trkpt>
<trkpt lat="46.2126121520996094" lon="7.8371224403381348"><ele></ele><time>2014-10-15T22:8:58Z</time></trkpt>
<trkpt lat="46.2125511169433594" lon="7.8371000289916992"><ele></ele><time>2014-10-15T22:9:1Z</time></trkpt>
<trkpt lat="46.2125167846679688" lon="7.8370766639709473"><ele></ele><time>2014-10-15T22:9:4Z</time></trkpt>
<trkpt lat="46.2124862670898438" lon="7.8370418548583984"><ele></ele><time>2014-10-15T22:9:7Z</time></trkpt>
<trkpt lat="46.2124519348144531" lon="7.8369812965393066"><ele></ele><time>2014-10-15T22:9:10Z</time></trkpt>
<trkpt lat="46.2124176025390625" lon="7.8369507789611816"><ele></ele><time>2014-10-15T22:9:13Z</time></trkpt>
<trkpt lat="46.2123489379882812" lon="7.8369216918945312"><ele></ele><time>2014-10-15T22:9:16Z</time></trkpt>
<trkpt lat="46.2123146057128906" lon="7.8368902206420898"><ele></ele><time>2014-10-15T22:9:19Z</time></trkpt>
<trkpt lat="46.2122650146484375" lon="7.8368315696716309"><ele></ele><time>2014-10-15T22:9:22Z</time></trkpt>
<trkpt lat="46.2122192382812500" lon="7.8367824554443359"><ele></ele><time>2014-10-15T22:9:25Z</time></trkpt>
<trkpt lat="46.2121925354003906" lon="7.8366966247558594"><ele></ele><time>2014-10-15T22:9:28Z</time></trkpt>
<trkpt lat="46.2121505737304688" lon="7.8366212844848633"><ele></ele><time>2014-10-15T22:9:31Z</time></trkpt>
<trkpt lat="46.2121200561523438" lon="7.8365249633789062"><ele></ele><time>2014-10-15T22:9:34Z</time></trkpt>
<trkpt lat="46.2120819091796875" lon="7.8364777565002441"><ele></ele><time>2014-10-15T22:9:37Z</time></trkpt>
<trkpt lat="46.2120285034179688" lon="7.8363976478576660"><ele></ele><time>2014-10-15T22:9:40Z</time></trkpt>
<trkpt lat="46.2120018005371094" lon="7.8363189697265625"><ele></ele><time>2014-10-15T22:9:43Z</time></trkpt>
<trkpt lat="46.2119216918945312" lon="7.8362545967102051"><ele></ele><time>2014-10-15T22:9:46Z</time></trkpt>
<trkpt lat="46.2118988037109375" lon="7.8362092971801758"><ele></ele><time>2014-10-15T22:9:49Z</time></trkpt>
<trkpt lat="46.2119064331054688" lon="7.8361344337463379"><ele></ele><time>2014-10-15T22:9:52Z</time></trkpt>
<trkpt lat="46.2119483947753906" lon="7.8359804153442383"><ele></ele><time>2014-10-15T22:9:55Z</time></trkpt>
<trkpt lat="46.2119445800781250" lon="7.8358874320983887"><ele></ele><time>2014-10-15T22:9:58Z</time></trkpt>
<trkpt lat="46.2119064331054688" lon="7.8357629776000977"><ele></ele><time>2014-10-15T22:10:1Z</time></trkpt>
<trkpt lat="46.2118568420410156" lon="7.8356537818908691"><ele></ele><time>2014-10-15T22:10:4Z</time></trkpt>
<trkpt lat="46.2117996215820312" lon="7.8355841636657715"><ele></ele><time>2014-10-15T22:10:7Z</time></trkpt>
<trkpt lat="46.2117195129394531" lon="7.8355245590209961"><ele></ele><time>2014-10-15T22:10:10Z</time></trkpt>
<trkpt lat="46.2116241455078125" lon="7.8354320526123047"><ele></ele><time>2014-10-15T22:10:13Z</time></trkpt>
<trkpt lat="46.2115554809570312" lon="7.8353624343872070"><ele></ele><time>2014-10-15T22:10:16Z</time></trkpt>
<trkpt lat="46.2114219665527344" lon="7.8353047370910645"><ele></ele><time>2014-10-15T22:10:19Z</time></trkpt>
<trkpt lat="46.2113304138183594" lon="7.8352565765380859"><ele></ele><time>2014-10-15T22:10:22Z</time></trkpt>
<trkpt lat="46.2112007141113281" lon="7.8350987434387207"><ele></ele><time>2014-10-15T22:10:25Z</time></trkpt>
<trkpt lat="46.2111129760742188" lon="7.8349723815917969"><ele></ele><time>2014-10-15T22:10:28Z</time></trkpt>
<trkpt lat="46.2110290527343750" lon="7.8348565101623535"><ele></ele><time>2014-10-15T22:10:31Z</time></trkpt>
<trkpt lat="46.2108764648437500" lon="7.8347220420837402"><ele></ele><time>2014-10-15T22:10:34Z</time></trkpt>
<trkpt lat="46.2107810974121094" lon="7.8346319198608398"><ele></ele><time>2014-10-15T22:10:37Z</time></trkpt>
<trkpt lat="46.2107429504394531" lon="7.8345074653625488"><ele></ele><time>2014-10-15T22:10:40Z</time></trkpt>
<trkpt lat="46.2107048034667969" lon="7.8343119621276855"><ele></ele><time>2014-10-15T22:10:43Z</time></trkpt>
<trkpt lat="46.2106285095214844" lon="7.8341240882873535"><ele></ele><time>2014-10-15T22:10:46Z</time></trkpt>
<trkpt lat="46.2105827331542969" lon="7.8339695930480957"><ele></ele><time>2014-10-15T22:10:49Z</time></trkpt>
<trkpt lat="46.2105445861816406" lon="7.8338584899902344"><ele></ele><time>2014-10-15T22:10:52Z</time></trkpt>
<trkpt lat="46.2104682922363281" lon="7.8335881233215332"><ele></ele><time>2014-10-15T22:10:55Z</time></trkpt>
<trkpt lat="46.2104301452636719" lon="7.8333835601806641"><ele></ele><time>2014-10-15T22:10:58Z</time></trkpt>
<trkpt lat="46.2103614807128906" lon="7.8332777023315430"><ele></ele><time>2014-10-15T22:11:1Z</time></trkpt>
<trkpt lat="46.2102851867675781" lon="7.8331928253173828"><ele></ele><time>2014-10-15T22:11:4Z</time></trkpt>
<trkpt lat="46.2102584838867188" lon="7.8331136703491211"><ele></ele><time>2014-10-15T22:11:7Z</time></trkpt>
<trkpt lat="46.2102088928222656" lon="7.8330059051513672"><ele></ele><time>2014-10-15T22:11:10Z</time></trkpt>
<trkpt lat="46.2101860046386719" lon="7.8329596519470215"><ele></ele><time>2014-10-15T22:11:13Z</time></trkpt>
<trkpt lat="46.2101936340332031" lon="7.8328313827514648"><ele></ele><time>2014-10-15T22:11:16Z</time></trkpt>
<trkpt lat="46.2101631164550781" lon="7.8327260017395020"><ele></ele><time>2014-10-15T22:11:19Z</time></trkpt>
<trkpt lat="46.2101135253906250" lon="7.8326053619384766"><ele></ele><time>2014-10-15T22:11:22Z</time></trkpt>
<trkpt lat="46.2100868225097656" lon="7.8325219154357910"><ele></ele><time>2014-10-15T22:11:25Z</time></trkpt>
<trkpt lat="46.2100524902343750" lon="7.8324255943298340"><ele></ele><time>2014-10-15T22:11:28Z</time></trkpt>
<trkpt lat="46.2099990844726562" lon="7.8323502540588379"><ele></ele><time>2014-10-15T22:11:31Z</time></trkpt>
<trkpt lat="46.2099571228027344" lon="7.8322610855102539"><ele></ele><time>2014-10-15T22:11:34Z</time></trkpt>
<trkpt lat="46.2099189758300781" lon="7.8322119712829590"><ele></ele><time>2014-10-15T22:11:37Z</time></trkpt>
<trkpt lat="46.2098579406738281" lon="7.8321332931518555"><ele></ele><time>2014-10-15T22:11:40Z</time></trkpt>
<trkpt lat="46.2098159790039062" lon="7.8320431709289551"><ele></ele><time>2014-10-15T22:11:43Z</time></trkpt>
<trkpt lat="46.2097663879394531" lon="7.8319673538208008"><ele></ele><time>2014-10-15T22:11:46Z</time></trkpt>
<trkpt lat="46.2097206115722656" lon="7.8319234848022461"><ele></ele><time>2014-10-15T22:11:49Z</time></trkpt>
<trkpt lat="46.2096405029296875" lon="7.8318352699279785"><ele></ele><time>2014-10-15T22:11:52Z</time></trkpt>
<trkpt lat="46.2095870971679688" lon="7.8317680358886719"><ele></ele><time>2014-10-15T22:11:55Z</time></trkpt>
<trkpt lat="46.2094917297363281" lon="7.8316860198974609"><ele></ele><time>2014-10-15T22:11:58Z</time></trkpt>
<trkpt lat="46.2094154357910156" lon="7.8316445350646973"><ele></ele><time>2014-10-15T22:12:1Z</time></trkpt>
<trkpt lat="46.2093009948730469" lon="7.8315968513488770"><ele></ele><time>2014-10-15T22:12:4Z</time></trkpt>
<trkpt lat="46.2092475891113281" lon="7.8315672874450684"><ele></ele><time>2014-10-15T22:12:7Z</time></trkpt>
<trkpt lat="46.2092094421386719" lon="7.8315324783325195"><ele></ele><time>2014-10-15T22:12:10Z</time></trkpt>
<trkpt lat="46.2091674804687500" lon="7.8314480781555176"><ele></ele><time>2014-10-15T22:12:13Z</time></trkpt>
<trkpt lat="46.2091445922851562" lon="7.8313784599304199"><ele></ele><time>2014-10-15T22:12:16Z</time></trkpt>
<trkpt lat="46.2090988159179688" lon="7.8312535285949707"><ele></ele><time>2014-10-15T22:12:19Z</time></trkpt>
<trkpt lat="46.2090644836425781" lon="7.8311738967895508"><ele></ele><time>2014-10-15T22:12:22Z</time></trkpt>
<trkpt lat="46.2090034484863281" lon="7.8310685157775879"><ele></ele><time>2014-10-15T22:12:25Z</time></trkpt>
<trkpt lat="46.2089500427246094" lon="7.8310027122497559"><ele></ele><time>2014-10-15T22:12:28Z</time></trkpt>
<trkpt lat="46.2088623046875000" lon="7.8308868408203125"><ele></ele><time>2014-10-15T22:12:31Z</time></trkpt>
<trkpt lat="46.2087860107421875" lon="7.8308176994323730"><ele></ele><time>2014-10-15T22:12:34Z</time></trkpt>
<trkpt lat="46.2087135314941406" lon="7.8307232856750488"><ele></ele><time>2014-10-15T22:12:37Z</time></trkpt>
<trkpt lat="46.2085762023925781" lon="7.8305888175964355"><ele></ele><time>2014-10-15T22:12:40Z</time></trkpt>
<trkpt lat="46.2084846496582031" lon="7.8304715156555176"><ele></ele><time>2014-10-15T22:12:43Z</time></trkpt>
<trkpt lat="46.2083969116210938" lon="7.8303475379943848"><ele></ele><time>2014-10-15T22:12:46Z</time></trkpt>
<trkpt lat="46.2082519531250000" lon="7.8301448822021484"><ele></ele><time>2014-10-15T22:12:49Z</time></trkpt>
<trkpt lat="46.2081985473632812" lon="7.8300690650939941"><ele></ele><time>2014-10-15T22:12:52Z</time></trkpt>
<trkpt lat="46.2080688476562500" lon="7.8298678398132324"><ele></ele><time>2014-10-15T22:12:55Z</time></trkpt>
<trkpt lat="46.2079772949218750" lon="7.8297262191772461"><ele></ele><time>2014-10-15T22:12:58Z</time></trkpt>
<trkpt lat="46.2079391479492188" lon="7.8296675682067871"><ele></ele><time>2014-10-15T22:13:1Z</time></trkpt>
<trkpt lat="46.2078971862792969" lon="7.8296060562133789"><ele></ele><time>2014-10-15T22:13:4Z</time></trkpt>
<trkpt lat="46.2078094482421875" lon="7.8294839859008789"><ele></ele><time>2014-10-15T22:13:7Z</time></trkpt>
<trkpt lat="46.2077789306640625" lon="7.8294382095336914"><ele></ele><time>2014-10-15T22:13:10Z</time></trkpt>
<trkpt lat="46.2077484130859375" lon="7.8293962478637695"><ele></ele><time>2014-10-15T22:13:13Z</time></trkpt>
<trkpt lat="46.2077140808105469" lon="7.8293480873107910"><ele></ele><time>2014-10-15T22:13:16Z</time></trkpt>
<trkpt lat="46.2077026367187500" lon="7.8293323516845703"><ele></ele><time>2014-10-15T22:13:19Z</time></trkpt>
<trkpt lat="46.2076835632324219" lon="7.8293051719665527"><ele></ele><time>2014-10-15T22:13:22Z</time></trkpt>
<trkpt lat="46.2076034545898438" lon="7.8291974067687988"><ele></ele><time>2014-10-15T22:13:25Z</time></trkpt>
<trkpt lat="46.2075386047363281" lon="7.8291010856628418"><ele></ele><time>2014-10-15T22:13:28Z</time></trkpt>
<trkpt lat="46.2074775695800781" lon="7.8290171623229980"><ele></ele><time>2014-10-15T22:13:31Z</time></trkpt>
<trkpt lat="46.2074356079101562" lon="7.8289666175842285"><ele></ele><time>2014-10-15T22:13:34Z</time></trkpt>
<trkpt lat="46.2073936462402344" lon="7.8289184570312500"><ele></ele><time>2014-10-15T22:13:37Z</time></trkpt>
<trkpt lat="46.2073440551757812" lon="7.8288683891296387"><ele></ele><time>2014-10-15T22:13:40Z</time></trkpt>
<trkpt lat="46.2072944641113281" lon="7.8288311958312988"><ele></ele><time>2014-10-15T22:13:43Z</time></trkpt>
<trkpt lat="46.2072334289550781" lon="7.8287839889526367"><ele></ele><time>2014-10-15T22:13:46Z</time></trkpt>
<trkpt lat="46.2071609497070312" lon="7.8287353515625000"><ele></ele><time>2014-10-15T22:13:49Z</time></trkpt>
<trkpt lat="46.2071151733398438" lon="7.8287029266357422"><ele></ele><time>2014-10-15T22:13:52Z</time></trkpt>
<trkpt lat="46.2070693969726562" lon="7.8286705017089844"><ele></ele><time>2014-10-15T22:13:55Z</time></trkpt>
<trkpt lat="46.2070007324218750" lon="7.8286256790161133"><ele></ele><time>2014-10-15T22:13:58Z</time></trkpt>
<trkpt lat="46.2069511413574219" lon="7.8285374641418457"><ele></ele><time>2014-10-15T22:14:1Z</time></trkpt>
<trkpt lat="46.2069129943847656" lon="7.8285026550292969"><ele></ele><time>2014-10-15T22:14:4Z</time></trkpt>
<trkpt lat="46.2068481445312500" lon="7.8284635543823242"><ele></ele><time>2014-10-15T22:14:7Z</time></trkpt>
<trkpt lat="46.2067794799804688" lon="7.8284387588500977"><ele></ele><time>2014-10-15T22:14:10Z</time></trkpt>
<trkpt lat="46.2067337036132812" lon="7.8284277915954590"><ele></ele><time>2014-10-15T22:14:13Z</time></trkpt>
<trkpt lat="46.2066726684570312" lon="7.8283948898315430"><ele></ele><time>2014-10-15T22:14:16Z</time></trkpt>
<trkpt lat="46.2066040039062500" lon="7.8283624649047852"><ele></ele><time>2014-10-15T22:14:19Z</time></trkpt>
<trkpt lat="46.2065658569335938" lon="7.8283414840698242"><ele></ele><time>2014-10-15T22:14:22Z</time></trkpt>
<trkpt lat="46.2065238952636719" lon="7.8283195495605469"><ele></ele><time>2014-10-15T22:14:25Z</time></trkpt>
<trkpt lat="46.2064476013183594" lon="7.8282990455627441"><ele></ele><time>2014-10-15T22:14:28Z</time></trkpt>
<trkpt lat="46.2063941955566406" lon="7.8282904624938965"><ele></ele><time>2014-10-15T22:14:31Z</time></trkpt>
<trkpt lat="46.2063140869140625" lon="7.8282756805419922"><ele></ele><time>2014-10-15T22:14:34Z</time></trkpt>
<trkpt lat="46.2062644958496094" lon="7.8282494544982910"><ele></ele><time>2014-10-15T22:14:37Z</time></trkpt>
<trkpt lat="46.2062149047851562" lon="7.8282217979431152"><ele></ele><time>2014-10-15T22:14:40Z</time></trkpt>
<trkpt lat="46.2061424255371094" lon="7.8281550407409668"><ele></ele><time>2014-10-15T22:14:43Z</time></trkpt>
<trkpt lat="46.2061004638671875" lon="7.8280968666076660"><ele></ele><time>2014-10-15T22:14:46Z</time></trkpt>
<trkpt lat="46.2060699462890625" lon="7.8280324935913086"><ele></ele><time>2014-10-15T22:14:49Z</time></trkpt>
<trkpt lat="46.2060241699218750" lon="7.8279414176940918"><ele></ele><time>2014-10-15T22:14:52Z</time></trkpt>
<trkpt lat="46.2059783935546875" lon="7.8278455734252930"><ele></ele><time>2014-10-15T22:14:55Z</time></trkpt>
<trkpt lat="46.2059326171875000" lon="7.8277521133422852"><ele></ele><time>2014-10-15T22:14:58Z</time></trkpt>
<trkpt lat="46.2059097290039062" lon="7.8276820182800293"><ele></ele><time>2014-10-15T22:15:1Z</time></trkpt>
<trkpt lat="46.2058334350585938" lon="7.8276638984680176"><ele></ele><time>2014-10-15T22:15:4Z</time></trkpt>
<trkpt lat="46.2057914733886719" lon="7.8277111053466797"><ele></ele><time>2014-10-15T22:15:7Z</time></trkpt>
<trkpt lat="46.2057914733886719" lon="7.8278226852416992"><ele></ele><time>2014-10-15T22:15:10Z</time></trkpt>
<trkpt lat="46.2058219909667969" lon="7.8279290199279785"><ele></ele><time>2014-10-15T22:15:13Z</time></trkpt>
<trkpt lat="46.2059516906738281" lon="7.8279824256896973"><ele></ele><time>2014-10-15T22:15:16Z</time></trkpt>
<trkpt lat="46.2060699462890625" lon="7.8280367851257324"><ele></ele><time>2014-10-15T22:15:19Z</time></trkpt>
<trkpt lat="46.2061614990234375" lon="7.8281154632568359"><ele></ele><time>2014-10-15T22:15:22Z</time></trkpt>
<trkpt lat="46.2062225341796875" lon="7.8282046318054199"><ele></ele><time>2014-10-15T22:15:25Z</time></trkpt>
<trkpt lat="46.2062530517578125" lon="7.8282694816589355"><ele></ele><time>2014-10-15T22:15:28Z</time></trkpt>
<trkpt lat="46.2063026428222656" lon="7.8283529281616211"><ele></ele><time>2014-10-15T22:15:31Z</time></trkpt>
<trkpt lat="46.2063407897949219" lon="7.8283963203430176"><ele></ele><time>2014-10-15T22:15:34Z</time></trkpt>
<trkpt lat="46.2063865661621094" lon="7.8284721374511719"><ele></ele><time>2014-10-15T22:15:37Z</time></trkpt>
<trkpt lat="46.2064552307128906" lon="7.8285388946533203"><ele></ele><time>2014-10-15T22:15:40Z</time></trkpt>
<trkpt lat="46.2065048217773438" lon="7.8285803794860840"><ele></ele><time>2014-10-15T22:15:43Z</time></trkpt>
<trkpt lat="46.2065811157226562" lon="7.8286314010620117"><ele></ele><time>2014-10-15T22:15:46Z</time></trkpt>
<trkpt lat="46.2066268920898438" lon="7.8287067413330078"><ele></ele><time>2014-10-15T22:15:49Z</time></trkpt>
<trkpt lat="46.2066650390625000" lon="7.8287515640258789"><ele></ele><time>2014-10-15T22:15:52Z</time></trkpt>
<trkpt lat="46.2067070007324219" lon="7.8288350105285645"><ele></ele><time>2014-10-15T22:15:55Z</time></trkpt>
<trkpt lat="46.2067337036132812" lon="7.8289279937744141"><ele></ele><time>2014-10-15T22:15:58Z</time></trkpt>
<trkpt lat="46.2067527770996094" lon="7.8290324211120605"><ele></ele><time>2014-10-15T22:16:1Z</time></trkpt>
<trkpt lat="46.2067680358886719" lon="7.8290972709655762"><ele></ele><time>2014-10-15T22:16:4Z</time></trkpt>
<trkpt lat="46.2068214416503906" lon="7.8291621208190918"><ele></ele><time>2014-10-15T22:16:7Z</time></trkpt>
<trkpt lat="46.2068634033203125" lon="7.8292455673217773"><ele></ele><time>2014-10-15T22:16:10Z</time></trkpt>
<trkpt lat="46.2068977355957031" lon="7.8293375968933105"><ele></ele><time>2014-10-15T22:16:13Z</time></trkpt>
<trkpt lat="46.2069320678710938" lon="7.8294253349304199"><ele></ele><time>2014-10-15T22:16:16Z</time></trkpt>
<trkpt lat="46.2069625854492188" lon="7.8295159339904785"><ele></ele><time>2014-10-15T22:16:19Z</time></trkpt>
<trkpt lat="46.2069702148437500" lon="7.8295898437500000"><ele></ele><time>2014-10-15T22:16:22Z</time></trkpt>
<trkpt lat="46.2069931030273438" lon="7.8296971321105957"><ele></ele><time>2014-10-15T22:16:25Z</time></trkpt>
<trkpt lat="46.2070045471191406" lon="7.8297710418701172"><ele></ele><time>2014-10-15T22:16:28Z</time></trkpt>
<trkpt lat="46.2070236206054688" lon="7.8298788070678711"><ele></ele><time>2014-10-15T22:16:31Z</time></trkpt>
<trkpt lat="46.2070350646972656" lon="7.8299527168273926"><ele></ele><time>2014-10-15T22:16:34Z</time></trkpt>
<trkpt lat="46.2070503234863281" lon="7.8300781250000000"><ele></ele><time>2014-10-15T22:16:37Z</time></trkpt>
<trkpt lat="46.2070732116699219" lon="7.8301577568054199"><ele></ele><time>2014-10-15T22:16:40Z</time></trkpt>
<trkpt lat="46.2071189880371094" lon="7.8302683830261230"><ele></ele><time>2014-10-15T22:16:43Z</time></trkpt>
<trkpt lat="46.2071495056152344" lon="7.8303394317626953"><ele></ele><time>2014-10-15T22:16:46Z</time></trkpt>
<trkpt lat="46.2071990966796875" lon="7.8304491043090820"><ele></ele><time>2014-10-15T22:16:49Z</time></trkpt>
<trkpt lat="46.2072792053222656" lon="7.8305244445800781"><ele></ele><time>2014-10-15T22:16:52Z</time></trkpt>
<trkpt lat="46.2073326110839844" lon="7.8305764198303223"><ele></ele><time>2014-10-15T22:16:55Z</time></trkpt>
<trkpt lat="46.2074050903320312" lon="7.8306546211242676"><ele></ele><time>2014-10-15T22:16:58Z</time></trkpt>
<trkpt lat="46.2074317932128906" lon="7.8307166099548340"><ele></ele><time>2014-10-15T22:17:1Z</time></trkpt>
<trkpt lat="46.2074699401855469" lon="7.8307981491088867"><ele></ele><time>2014-10-15T22:17:4Z</time></trkpt>
<trkpt lat="46.2075004577636719" lon="7.8308525085449219"><ele></ele><time>2014-10-15T22:17:7Z</time></trkpt>
<trkpt lat="46.2075309753417969" lon="7.8309454917907715"><ele></ele><time>2014-10-15T22:17:10Z</time></trkpt>
<trkpt lat="46.2075729370117188" lon="7.8310265541076660"><ele></ele><time>2014-10-15T22:17:13Z</time></trkpt>
<trkpt lat="46.2076339721679688" lon="7.8311009407043457"><ele></ele><time>2014-10-15T22:17:16Z</time></trkpt>
<trkpt lat="46.2076683044433594" lon="7.8311562538146973"><ele></ele><time>2014-10-15T22:17:19Z</time></trkpt>
<trkpt lat="46.2077140808105469" lon="7.8312435150146484"><ele></ele><time>2014-10-15T22:17:22Z</time></trkpt>
<trkpt lat="46.2077445983886719" lon="7.8313026428222656"><ele></ele><time>2014-10-15T22:17:25Z</time></trkpt>
<trkpt lat="46.2077713012695312" lon="7.8313603401184082"><ele></ele><time>2014-10-15T22:17:28Z</time></trkpt>
<trkpt lat="46.2078094482421875" lon="7.8314127922058105"><ele></ele><time>2014-10-15T22:17:31Z</time></trkpt>
<trkpt lat="46.2078704833984375" lon="7.8314867019653320"><ele></ele><time>2014-10-15T22:17:34Z</time></trkpt>
<trkpt lat="46.2079238891601562" lon="7.8315658569335938"><ele></ele><time>2014-10-15T22:17:37Z</time></trkpt>
<trkpt lat="46.2079620361328125" lon="7.8316631317138672"><ele></ele><time>2014-10-15T22:17:40Z</time></trkpt>
<trkpt lat="46.2079925537109375" lon="7.8317623138427734"><ele></ele><time>2014-10-15T22:17:43Z</time></trkpt>
<trkpt lat="46.2080345153808594" lon="7.8318471908569336"><ele></ele><time>2014-10-15T22:17:46Z</time></trkpt>
<trkpt lat="46.2080726623535156" lon="7.8319001197814941"><ele></ele><time>2014-10-15T22:17:49Z</time></trkpt>
<trkpt lat="46.2080879211425781" lon="7.8319716453552246"><ele></ele><time>2014-10-15T22:17:52Z</time></trkpt>
<trkpt lat="46.2081298828125000" lon="7.8320603370666504"><ele></ele><time>2014-10-15T22:17:55Z</time></trkpt>
<trkpt lat="46.2081832885742188" lon="7.8321380615234375"><ele></ele><time>2014-10-15T22:17:58Z</time></trkpt>
<trkpt lat="46.2082366943359375" lon="7.8321690559387207"><ele></ele><time>2014-10-15T22:18:1Z</time></trkpt>
<trkpt lat="46.2083091735839844" lon="7.8322176933288574"><ele></ele><time>2014-10-15T22:18:4Z</time></trkpt>
<trkpt lat="46.2083435058593750" lon="7.8322620391845703"><ele></ele><time>2014-10-15T22:18:7Z</time></trkpt>
<trkpt lat="46.2083663940429688" lon="7.8323593139648438"><ele></ele><time>2014-10-15T22:18:10Z</time></trkpt>
<trkpt lat="46.2084197998046875" lon="7.8323888778686523"><ele></ele><time>2014-10-15T22:18:13Z</time></trkpt>
<trkpt lat="46.2084884643554688" lon="7.8324413299560547"><ele></ele><time>2014-10-15T22:18:16Z</time></trkpt>
<trkpt lat="46.2085266113281250" lon="7.8325185775756836"><ele></ele><time>2014-10-15T22:18:19Z</time></trkpt>
<trkpt lat="46.2085571289062500" lon="7.8326096534729004"><ele></ele><time>2014-10-15T22:18:22Z</time></trkpt>
<trkpt lat="46.2085800170898438" lon="7.8326702117919922"><ele></ele><time>2014-10-15T22:18:25Z</time></trkpt>
<trkpt lat="46.2086143493652344" lon="7.8327574729919434"><ele></ele><time>2014-10-15T22:18:28Z</time></trkpt>
<trkpt lat="46.2086334228515625" lon="7.8328247070312500"><ele></ele><time>2014-10-15T22:18:31Z</time></trkpt>
<trkpt lat="46.2086677551269531" lon="7.8329224586486816"><ele></ele><time>2014-10-15T22:18:34Z</time></trkpt>
<trkpt lat="46.2086830139160156" lon="7.8329958915710449"><ele></ele><time>2014-10-15T22:18:37Z</time></trkpt>
<trkpt lat="46.2086868286132812" lon="7.8330793380737305"><ele></ele><time>2014-10-15T22:18:40Z</time></trkpt>
<trkpt lat="46.2086944580078125" lon="7.8332071304321289"><ele></ele><time>2014-10-15T22:18:43Z</time></trkpt>
<trkpt lat="46.2087249755859375" lon="7.8333225250244141"><ele></ele><time>2014-10-15T22:18:46Z</time></trkpt>
<trkpt lat="46.2087745666503906" lon="7.8334236145019531"><ele></ele><time>2014-10-15T22:18:49Z</time></trkpt>
<trkpt lat="46.2088165283203125" lon="7.8335008621215820"><ele></ele><time>2014-10-15T22:18:52Z</time></trkpt>
<trkpt lat="46.2088775634765625" lon="7.8336133956909180"><ele></ele><time>2014-10-15T22:18:55Z</time></trkpt>
<trkpt lat="46.2088928222656250" lon="7.8337059020996094"><ele></ele><time>2014-10-15T22:18:58Z</time></trkpt>
<trkpt lat="46.2088813781738281" lon="7.8338136672973633"><ele></ele><time>2014-10-15T22:19:1Z</time></trkpt>
<trkpt lat="46.2088623046875000" lon="7.8339338302612305"><ele></ele><time>2014-10-15T22:19:4Z</time></trkpt>
<trkpt lat="46.2088546752929688" lon="7.8340806961059570"><ele></ele><time>2014-10-15T22:19:7Z</time></trkpt>
<trkpt lat="46.2087898254394531" lon="7.8341455459594727"><ele></ele><time>2014-10-15T22:19:10Z</time></trkpt>
<trkpt lat="46.2087554931640625" lon="7.8340835571289062"><ele></ele><time>2014-10-15T22:19:13Z</time></trkpt>
<trkpt lat="46.2087516784667969" lon="7.8339767456054688"><ele></ele><time>2014-10-15T22:19:16Z</time></trkpt>
<trkpt lat="46.2087287902832031" lon="7.8338999748229980"><ele></ele><time>2014-10-15T22:19:19Z</time></trkpt>
<trkpt lat="46.2087173461914062" lon="7.8338508605957031"><ele></ele><time>2014-10-15T22:19:22Z</time></trkpt>
<trkpt lat="46.2086982727050781" lon="7.8337774276733398"><ele></ele><time>2014-10-15T22:19:25Z</time></trkpt>
<trkpt lat="46.2086639404296875" lon="7.8337187767028809"><ele></ele><time>2014-10-15T22:19:28Z</time></trkpt>
<trkpt lat="46.2086448669433594" lon="7.8336968421936035"><ele></ele><time>2014-10-15T22:19:31Z</time></trkpt>
<trkpt lat="46.2086105346679688" lon="7.8336877822875977"><ele></ele><time>2014-10-15T22:19:34Z</time></trkpt>
<trkpt lat="46.2085914611816406" lon="7.8336720466613770"><ele></ele><time>2014-10-15T22:19:37Z</time></trkpt>
<trkpt lat="46.2085685729980469" lon="7.8336548805236816"><ele></ele><time>2014-10-15T22:19:40Z</time></trkpt>
<trkpt lat="46.2085456848144531" lon="7.8336114883422852"><ele></ele><time>2014-10-15T22:19:43Z</time></trkpt>
<trkpt lat="46.2085418701171875" lon="7.8335776329040527"><ele></ele><time>2014-10-15T22:19:46Z</time></trkpt>
<trkpt lat="46.2085342407226562" lon="7.8335475921630859"><ele></ele><time>2014-10-15T22:19:49Z</time></trkpt>
<trkpt lat="46.2085227966308594" lon="7.8334965705871582"><ele></ele><time>2014-10-15T22:19:52Z</time></trkpt>
<trkpt lat="46.2085151672363281" lon="7.8334627151489258"><ele></ele><time>2014-10-15T22:19:55Z</time></trkpt>
<trkpt lat="46.2084999084472656" lon="7.8334422111511230"><ele></ele><time>2014-10-15T22:19:58Z</time></trkpt>
<trkpt lat="46.2085075378417969" lon="7.8334231376647949"><ele></ele><time>2014-10-15T22:20:1Z</time></trkpt>
<trkpt lat="46.2085037231445312" lon="7.8333625793457031"><ele></ele><time>2014-10-15T22:20:4Z</time></trkpt>
<trkpt lat="46.2085037231445312" lon="7.8333048820495605"><ele></ele><time>2014-10-15T22:20:7Z</time></trkpt>
<trkpt lat="46.2084770202636719" lon="7.8332700729370117"><ele></ele><time>2014-10-15T22:20:10Z</time></trkpt>
<trkpt lat="46.2084388732910156" lon="7.8332524299621582"><ele></ele><time>2014-10-15T22:20:13Z</time></trkpt>
<trkpt lat="46.2084045410156250" lon="7.8332133293151855"><ele></ele><time>2014-10-15T22:20:16Z</time></trkpt>
<trkpt lat="46.2083854675292969" lon="7.8331880569458008"><ele></ele><time>2014-10-15T22:20:19Z</time></trkpt>
<trkpt lat="46.2083549499511719" lon="7.8331580162048340"><ele></ele><time>2014-10-15T22:20:22Z</time></trkpt>
<trkpt lat="46.2083282470703125" lon="7.8331336975097656"><ele></ele><time>2014-10-15T22:20:25Z</time></trkpt>
<trkpt lat="46.2082862854003906" lon="7.8331127166748047"><ele></ele><time>2014-10-15T22:20:28Z</time></trkpt>
<trkpt lat="46.2082710266113281" lon="7.8330850601196289"><ele></ele><time>2014-10-15T22:20:31Z</time></trkpt>
<trkpt lat="46.2082595825195312" lon="7.8330564498901367"><ele></ele><time>2014-10-15T22:20:34Z</time></trkpt>
<trkpt lat="46.2082366943359375" lon="7.8330178260803223"><ele></ele><time>2014-10-15T22:20:37Z</time></trkpt>
<trkpt lat="46.2082099914550781" lon="7.8330078125000000"><ele></ele><time>2014-10-15T22:20:40Z</time></trkpt>
<trkpt lat="46.2081604003906250" lon="7.8329873085021973"><ele></ele><time>2014-10-15T22:20:43Z</time></trkpt>
<trkpt lat="46.2081375122070312" lon="7.8329725265502930"><ele></ele><time>2014-10-15T22:20:46Z</time></trkpt>
<trkpt lat="46.2081184387207031" lon="7.8329524993896484"><ele></ele><time>2014-10-15T22:20:49Z</time></trkpt>
<trkpt lat="46.2080879211425781" lon="7.8329219818115234"><ele></ele><time>2014-10-15T22:20:52Z</time></trkpt>
<trkpt lat="46.2080764770507812" lon="7.8328776359558105"><ele></ele><time>2014-10-15T22:20:55Z</time></trkpt>
<trkpt lat="46.2080612182617188" lon="7.8328456878662109"><ele></ele><time>2014-10-15T22:20:58Z</time></trkpt>
<trkpt lat="46.2080307006835938" lon="7.8328437805175781"><ele></ele><time>2014-10-15T22:21:1Z</time></trkpt>
<trkpt lat="46.2079925537109375" lon="7.8328509330749512"><ele></ele><time>2014-10-15T22:21:4Z</time></trkpt>
<trkpt lat="46.2079124450683594" lon="7.8328738212585449"><ele></ele><time>2014-10-15T22:21:7Z</time></trkpt>
<trkpt lat="46.2078552246093750" lon="7.8328704833984375"><ele></ele><time>2014-10-15T22:21:10Z</time></trkpt>
<trkpt lat="46.2078399658203125" lon="7.8328475952148438"><ele></ele><time>2014-10-15T22:21:13Z</time></trkpt>
<trkpt lat="46.2078132629394531" lon="7.8328289985656738"><ele></ele><time>2014-10-15T22:21:16Z</time></trkpt>
<trkpt lat="46.2077941894531250" lon="7.8328213691711426"><ele></ele><time>2014-10-15T22:21:19Z</time></trkpt>
<trkpt lat="46.2077789306640625" lon="7.8327922821044922"><ele></ele><time>2014-10-15T22:21:22Z</time></trkpt>
<trkpt lat="46.2077674865722656" lon="7.8327622413635254"><ele></ele><time>2014-10-15T22:21:25Z</time></trkpt>
<trkpt lat="46.2077407836914062" lon="7.8327217102050781"><ele></ele><time>2014-10-15T22:21:28Z</time></trkpt>
<trkpt lat="46.2077255249023438" lon="7.8327050209045410"><ele></ele><time>2014-10-15T22:21:31Z</time></trkpt>
<trkpt lat="46.2077064514160156" lon="7.8326964378356934"><ele></ele><time>2014-10-15T22:21:34Z</time></trkpt>
<trkpt lat="46.2076759338378906" lon="7.8326659202575684"><ele></ele><time>2014-10-15T22:21:37Z</time></trkpt>
<trkpt lat="46.2076377868652344" lon="7.8326392173767090"><ele></ele><time>2014-10-15T22:21:40Z</time></trkpt>
<trkpt lat="46.2076148986816406" lon="7.8326210975646973"><ele></ele><time>2014-10-15T22:21:43Z</time></trkpt>
<trkpt lat="46.2075843811035156" lon="7.8326072692871094"><ele></ele><time>2014-10-15T22:21:46Z</time></trkpt>
<trkpt lat="46.2075386047363281" lon="7.8325915336608887"><ele></ele><time>2014-10-15T22:21:49Z</time></trkpt>
<trkpt lat="46.2075080871582031" lon="7.8325872421264648"><ele></ele><time>2014-10-15T22:21:52Z</time></trkpt>
<trkpt lat="46.2074737548828125" lon="7.8325452804565430"><ele></ele><time>2014-10-15T22:21:55Z</time></trkpt>
<trkpt lat="46.2074623107910156" lon="7.8325004577636719"><ele></ele><time>2014-10-15T22:21:58Z</time></trkpt>
<trkpt lat="46.2074279785156250" lon="7.8324484825134277"><ele></ele><time>2014-10-15T22:22:1Z</time></trkpt>
<trkpt lat="46.2074050903320312" lon="7.8324108123779297"><ele></ele><time>2014-10-15T22:22:4Z</time></trkpt>
<trkpt lat="46.2073669433593750" lon="7.8323726654052734"><ele></ele><time>2014-10-15T22:22:7Z</time></trkpt>
<trkpt lat="46.2073326110839844" lon="7.8323659896850586"><ele></ele><time>2014-10-15T22:22:10Z</time></trkpt>
<trkpt lat="46.2072868347167969" lon="7.8323383331298828"><ele></ele><time>2014-10-15T22:22:13Z</time></trkpt>
<trkpt lat="46.2072639465332031" lon="7.8323221206665039"><ele></ele><time>2014-10-15T22:22:16Z</time></trkpt>
<trkpt lat="46.2072296142578125" lon="7.8322887420654297"><ele></ele><time>2014-10-15T22:22:19Z</time></trkpt>
<trkpt lat="46.2071876525878906" lon="7.8322629928588867"><ele></ele><time>2014-10-15T22:22:22Z</time></trkpt>
<trkpt lat="46.2071380615234375" lon="7.8322458267211914"><ele></ele><time>2014-10-15T22:22:25Z</time></trkpt>
<trkpt lat="46.2071113586425781" lon="7.8322300910949707"><ele></ele><time>2014-10-15T22:22:28Z</time></trkpt>
<trkpt lat="46.2070732116699219" lon="7.8321819305419922"><ele></ele><time>2014-10-15T22:22:31Z</time></trkpt>
<trkpt lat="46.2070617675781250" lon="7.8321290016174316"><ele></ele><time>2014-10-15T22:22:34Z</time></trkpt>
<trkpt lat="46.2070159912109375" lon="7.8321137428283691"><ele></ele><time>2014-10-15T22:22:37Z</time></trkpt>
<trkpt lat="46.2069892883300781" lon="7.8321042060852051"><ele></ele><time>2014-10-15T22:22:40Z</time></trkpt>
<trkpt lat="46.2069435119628906" lon="7.8320813179016113"><ele></ele><time>2014-10-15T22:22:43Z</time></trkpt>
<trkpt lat="46.2068519592285156" lon="7.8320159912109375"><ele></ele><time>2014-10-15T22:22:46Z</time></trkpt>
<trkpt lat="46.2068023681640625" lon="7.8320288658142090"><ele></ele><time>2014-10-15T22:22:49Z</time></trkpt>
<trkpt lat="46.2067642211914062" lon="7.8320088386535645"><ele></ele><time>2014-10-15T22:22:52Z</time></trkpt>
<trkpt lat="46.2067337036132812" lon="7.8319706916809082"><ele></ele><time>2014-10-15T22:22:55Z</time></trkpt>
<trkpt lat="46.2067070007324219" lon="7.8319382667541504"><ele></ele><time>2014-10-15T22:22:58Z</time></trkpt>
<trkpt lat="46.2066917419433594" lon="7.8319177627563477"><ele></ele><time>2014-10-15T22:23:1Z</time></trkpt>
<trkpt lat="46.2066688537597656" lon="7.8319106101989746"><ele></ele><time>2014-10-15T22:23:4Z</time></trkpt>
<trkpt lat="46.2066230773925781" lon="7.8319182395935059"><ele></ele><time>2014-10-15T22:23:7Z</time></trkpt>
<trkpt lat="46.2065925598144531" lon="7.8319325447082520"><ele></ele><time>2014-10-15T22:23:10Z</time></trkpt>
<trkpt lat="46.2065391540527344" lon="7.8319544792175293"><ele></ele><time>2014-10-15T22:23:13Z</time></trkpt>
<trkpt lat="46.2065086364746094" lon="7.8319592475891113"><ele></ele><time>2014-10-15T22:23:16Z</time></trkpt>
<trkpt lat="46.2064781188964844" lon="7.8319401741027832"><ele></ele><time>2014-10-15T22:23:19Z</time></trkpt>
<trkpt lat="46.2064552307128906" lon="7.8319373130798340"><ele></ele><time>2014-10-15T22:23:22Z</time></trkpt>
<trkpt lat="46.2064323425292969" lon="7.8319330215454102"><ele></ele><time>2014-10-15T22:23:25Z</time></trkpt>
<trkpt lat="46.2063941955566406" lon="7.8319211006164551"><ele></ele><time>2014-10-15T22:23:28Z</time></trkpt>
<trkpt lat="46.2063713073730469" lon="7.8318781852722168"><ele></ele><time>2014-10-15T22:23:31Z</time></trkpt>
<trkpt lat="46.2063255310058594" lon="7.8318581581115723"><ele></ele><time>2014-10-15T22:23:34Z</time></trkpt>
<trkpt lat="46.2062911987304688" lon="7.8318762779235840"><ele></ele><time>2014-10-15T22:23:37Z</time></trkpt>
<trkpt lat="46.2062492370605469" lon="7.8318986892700195"><ele></ele><time>2014-10-15T22:23:40Z</time></trkpt>
<trkpt lat="46.2062225341796875" lon="7.8319196701049805"><ele></ele><time>2014-10-15T22:23:43Z</time></trkpt>
<trkpt lat="46.2061843872070312" lon="7.8319482803344727"><ele></ele><time>2014-10-15T22:23:46Z</time></trkpt>
<trkpt lat="46.2061538696289062" lon="7.8319926261901855"><ele></ele><time>2014-10-15T22:23:49Z</time></trkpt>
<trkpt lat="46.2061271667480469" lon="7.8320369720458984"><ele></ele><time>2014-10-15T22:23:52Z</time></trkpt>
<trkpt lat="46.2061042785644531" lon="7.8320569992065430"><ele></ele><time>2014-10-15T22:23:55Z</time></trkpt>
<trkpt lat="46.2060775756835938" lon="7.8320755958557129"><ele></ele><time>2014-10-15T22:23:58Z</time></trkpt>
<trkpt lat="46.2060585021972656" lon="7.8320894241333008"><ele></ele><time>2014-10-15T22:24:1Z</time></trkpt>
<trkpt lat="46.2060508728027344" lon="7.8321084976196289"><ele></ele><time>2014-10-15T22:24:4Z</time></trkpt>
<trkpt lat="46.2060432434082031" lon="7.8321418762207031"><ele></ele><time>2014-10-15T22:24:7Z</time></trkpt>
<trkpt lat="46.2059974670410156" lon="7.8321886062622070"><ele></ele><time>2014-10-15T22:24:10Z</time></trkpt>
<trkpt lat="46.2059440612792969" lon="7.8321852684020996"><ele></ele><time>2014-10-15T22:24:13Z</time></trkpt>
<trkpt lat="46.2058677673339844" lon="7.8321309089660645"><ele></ele><time>2014-10-15T22:24:16Z</time></trkpt>
<trkpt lat="46.2058219909667969" lon="7.8320899009704590"><ele></ele><time>2014-10-15T22:24:19Z</time></trkpt>
<trkpt lat="46.2057609558105469" lon="7.8320312500000000"><ele></ele><time>2014-10-15T22:24:22Z</time></trkpt>
<trkpt lat="46.2057189941406250" lon="7.8320112228393555"><ele></ele><time>2014-10-15T22:24:25Z</time></trkpt>
<trkpt lat="46.2056427001953125" lon="7.8320245742797852"><ele></ele><time>2014-10-15T22:24:28Z</time></trkpt>
<trkpt lat="46.2055549621582031" lon="7.8320107460021973"><ele></ele><time>2014-10-15T22:24:31Z</time></trkpt>
<trkpt lat="46.2055015563964844" lon="7.8319592475891113"><ele></ele><time>2014-10-15T22:24:34Z</time></trkpt>
<trkpt lat="46.2054634094238281" lon="7.8319225311279297"><ele></ele><time>2014-10-15T22:24:37Z</time></trkpt>
<trkpt lat="46.2054252624511719" lon="7.8318614959716797"><ele></ele><time>2014-10-15T22:24:40Z</time></trkpt>
<trkpt lat="46.2054214477539062" lon="7.8318114280700684"><ele></ele><time>2014-10-15T22:24:43Z</time></trkpt>
<trkpt lat="46.2054481506347656" lon="7.8316907882690430"><ele></ele><time>2014-10-15T22:24:46Z</time></trkpt>
<trkpt lat="46.2054634094238281" lon="7.8316035270690918"><ele></ele><time>2014-10-15T22:24:49Z</time></trkpt>
<trkpt lat="46.2054748535156250" lon="7.8315382003784180"><ele></ele><time>2014-10-15T22:24:52Z</time></trkpt>
<trkpt lat="46.2054786682128906" lon="7.8314771652221680"><ele></ele><time>2014-10-15T22:24:55Z</time></trkpt>
<trkpt lat="46.2054748535156250" lon="7.8314228057861328"><ele></ele><time>2014-10-15T22:24:58Z</time></trkpt>
<trkpt lat="46.2054595947265625" lon="7.8313674926757812"><ele></ele><time>2014-10-15T22:25:1Z</time></trkpt>
<trkpt lat="46.2054328918457031" lon="7.8313031196594238"><ele></ele><time>2014-10-15T22:25:4Z</time></trkpt>
<trkpt lat="46.2054023742675781" lon="7.8312954902648926"><ele></ele><time>2014-10-15T22:25:7Z</time></trkpt>
<trkpt lat="46.2053527832031250" lon="7.8312835693359375"><ele></ele><time>2014-10-15T22:25:10Z</time></trkpt>
<trkpt lat="46.2053031921386719" lon="7.8312702178955078"><ele></ele><time>2014-10-15T22:25:13Z</time></trkpt>
<trkpt lat="46.2052612304687500" lon="7.8312382698059082"><ele></ele><time>2014-10-15T22:25:16Z</time></trkpt>
<trkpt lat="46.2052383422851562" lon="7.8312101364135742"><ele></ele><time>2014-10-15T22:25:19Z</time></trkpt>
<trkpt lat="46.2052040100097656" lon="7.8311738967895508"><ele></ele><time>2014-10-15T22:25:22Z</time></trkpt>
<trkpt lat="46.2051849365234375" lon="7.8311476707458496"><ele></ele><time>2014-10-15T22:25:25Z</time></trkpt>
<trkpt lat="46.2051658630371094" lon="7.8310790061950684"><ele></ele><time>2014-10-15T22:25:28Z</time></trkpt>
<trkpt lat="46.2051506042480469" lon="7.8310379981994629"><ele></ele><time>2014-10-15T22:25:31Z</time></trkpt>
<trkpt lat="46.2051353454589844" lon="7.8310036659240723"><ele></ele><time>2014-10-15T22:25:34Z</time></trkpt>
<trkpt lat="46.2051010131835938" lon="7.8309693336486816"><ele></ele><time>2014-10-15T22:25:37Z</time></trkpt>
<trkpt lat="46.2050666809082031" lon="7.8309440612792969"><ele></ele><time>2014-10-15T22:25:40Z</time></trkpt>
<trkpt lat="46.2050323486328125" lon="7.8309211730957031"><ele></ele><time>2014-10-15T22:25:43Z</time></trkpt>
<trkpt lat="46.2050094604492188" lon="7.8309025764465332"><ele></ele><time>2014-10-15T22:25:46Z</time></trkpt>
<trkpt lat="46.2049903869628906" lon="7.8308587074279785"><ele></ele><time>2014-10-15T22:25:49Z</time></trkpt>
<trkpt lat="46.2049827575683594" lon="7.8308243751525879"><ele></ele><time>2014-10-15T22:25:52Z</time></trkpt>
<trkpt lat="46.2049560546875000" lon="7.8308067321777344"><ele></ele><time>2014-10-15T22:25:55Z</time></trkpt>
<trkpt lat="46.2049217224121094" lon="7.8307790756225586"><ele></ele><time>2014-10-15T22:25:58Z</time></trkpt>
<trkpt lat="46.2049102783203125" lon="7.8307461738586426"><ele></ele><time>2014-10-15T22:26:1Z</time></trkpt>
<trkpt lat="46.2048988342285156" lon="7.8307051658630371"><ele></ele><time>2014-10-15T22:26:4Z</time></trkpt>
<trkpt lat="46.2048835754394531" lon="7.8306550979614258"><ele></ele><time>2014-10-15T22:26:7Z</time></trkpt>
<trkpt lat="46.2048683166503906" lon="7.8306207656860352"><ele></ele><time>2014-10-15T22:26:10Z</time></trkpt>
<trkpt lat="46.2048530578613281" lon="7.8305873870849609"><ele></ele><time>2014-10-15T22:26:13Z</time></trkpt>
<trkpt lat="46.2048416137695312" lon="7.8305301666259766"><ele></ele><time>2014-10-15T22:26:16Z</time></trkpt>
<trkpt lat="46.2048263549804688" lon="7.8304753303527832"><ele></ele><time>2014-10-15T22:26:19Z</time></trkpt>
<trkpt lat="46.2048110961914062" lon="7.8304343223571777"><ele></ele><time>2014-10-15T22:26:22Z</time></trkpt>
<trkpt lat="46.2047958374023438" lon="7.8304166793823242"><ele></ele><time>2014-10-15T22:26:25Z</time></trkpt>
<trkpt lat="46.2047882080078125" lon="7.8304018974304199"><ele></ele><time>2014-10-15T22:26:28Z</time></trkpt>
<trkpt lat="46.2047805786132812" lon="7.8303756713867188"><ele></ele><time>2014-10-15T22:26:31Z</time></trkpt>
<trkpt lat="46.2047805786132812" lon="7.8303551673889160"><ele></ele><time>2014-10-15T22:26:34Z</time></trkpt>
<trkpt lat="46.2047653198242188" lon="7.8303308486938477"><ele></ele><time>2014-10-15T22:26:37Z</time></trkpt>
<trkpt lat="46.2047462463378906" lon="7.8303160667419434"><ele></ele><time>2014-10-15T22:26:40Z</time></trkpt>
<trkpt lat="46.2047348022460938" lon="7.8302974700927734"><ele></ele><time>2014-10-15T22:26:43Z</time></trkpt>
<trkpt lat="46.2047233581542969" lon="7.8302803039550781"><ele></ele><time>2014-10-15T22:26:46Z</time></trkpt>
<trkpt lat="46.2047119140625000" lon="7.8302612304687500"><ele></ele><time>2014-10-15T22:26:49Z</time></trkpt>
<trkpt lat="46.2046852111816406" lon="7.8302474021911621"><ele></ele><time>2014-10-15T22:26:52Z</time></trkpt>
<trkpt lat="46.2046623229980469" lon="7.8302483558654785"><ele></ele><time>2014-10-15T22:26:55Z</time></trkpt>
<trkpt lat="46.2046356201171875" lon="7.8302316665649414"><ele></ele><time>2014-10-15T22:26:58Z</time></trkpt>
<trkpt lat="46.2046279907226562" lon="7.8302092552185059"><ele></ele><time>2014-10-15T22:27:1Z</time></trkpt>
<trkpt lat="46.2046127319335938" lon="7.8301815986633301"><ele></ele><time>2014-10-15T22:27:4Z</time></trkpt>
<trkpt lat="46.2045974731445312" lon="7.8301720619201660"><ele></ele><time>2014-10-15T22:27:7Z</time></trkpt>
<trkpt lat="46.2045783996582031" lon="7.8301568031311035"><ele></ele><time>2014-10-15T22:27:10Z</time></trkpt>
<trkpt lat="46.2045478820800781" lon="7.8301692008972168"><ele></ele><time>2014-10-15T22:27:13Z</time></trkpt>
<trkpt lat="46.2045249938964844" lon="7.8301701545715332"><ele></ele><time>2014-10-15T22:27:16Z</time></trkpt>
<trkpt lat="46.2045097351074219" lon="7.8301658630371094"><ele></ele><time>2014-10-15T22:27:19Z</time></trkpt>
<trkpt lat="46.2044982910156250" lon="7.8301525115966797"><ele></ele><time>2014-10-15T22:27:22Z</time></trkpt>
<trkpt lat="46.2044830322265625" lon="7.8301258087158203"><ele></ele><time>2014-10-15T22:27:25Z</time></trkpt>
<trkpt lat="46.2044677734375000" lon="7.8301172256469727"><ele></ele><time>2014-10-15T22:27:28Z</time></trkpt>
<trkpt lat="46.2044525146484375" lon="7.8300962448120117"><ele></ele><time>2014-10-15T22:27:31Z</time></trkpt>
<trkpt lat="46.2044486999511719" lon="7.8300833702087402"><ele></ele><time>2014-10-15T22:27:34Z</time></trkpt>
<trkpt lat="46.2044410705566406" lon="7.8300662040710449"><ele></ele><time>2014-10-15T22:27:37Z</time></trkpt>
<trkpt lat="46.2044258117675781" lon="7.8300457000732422"><ele></ele><time>2014-10-15T22:27:40Z</time></trkpt>
<trkpt lat="46.2043991088867188" lon="7.8300399780273438"><ele></ele><time>2014-10-15T22:27:43Z</time></trkpt>
<trkpt lat="46.2043724060058594" lon="7.8300118446350098"><ele></ele><time>2014-10-15T22:27:46Z</time></trkpt>
<trkpt lat="46.2043533325195312" lon="7.8299980163574219"><ele></ele><time>2014-10-15T22:27:49Z</time></trkpt>
<trkpt lat="46.2043380737304688" lon="7.8299541473388672"><ele></ele><time>2014-10-15T22:27:52Z</time></trkpt>
<trkpt lat="46.2043190002441406" lon="7.8299465179443359"><ele></ele><time>2014-10-15T22:27:55Z</time></trkpt>
<trkpt lat="46.2042884826660156" lon="7.8299651145935059"><ele></ele><time>2014-10-15T22:27:58Z</time></trkpt>
<trkpt lat="46.2042579650878906" lon="7.8299560546875000"><ele></ele><time>2014-10-15T22:28:1Z</time></trkpt>
<trkpt lat="46.2042350769042969" lon="7.8299489021301270"><ele></ele><time>2014-10-15T22:28:4Z</time></trkpt>
<trkpt lat="46.2042045593261719" lon="7.8299288749694824"><ele></ele><time>2014-10-15T22:28:7Z</time></trkpt>
<trkpt lat="46.2041816711425781" lon="7.8299250602722168"><ele></ele><time>2014-10-15T22:28:10Z</time></trkpt>
<trkpt lat="46.2041587829589844" lon="7.8299121856689453"><ele></ele><time>2014-10-15T22:28:13Z</time></trkpt>
<trkpt lat="46.2041397094726562" lon="7.8299002647399902"><ele></ele><time>2014-10-15T22:28:16Z</time></trkpt>
<trkpt lat="46.2041015625000000" lon="7.8298816680908203"><ele></ele><time>2014-10-15T22:28:19Z</time></trkpt>
<trkpt lat="46.2040824890136719" lon="7.8298544883728027"><ele></ele><time>2014-10-15T22:28:22Z</time></trkpt>
<trkpt lat="46.2040710449218750" lon="7.8298134803771973"><ele></ele><time>2014-10-15T22:28:25Z</time></trkpt>
<trkpt lat="46.2040481567382812" lon="7.8297648429870605"><ele></ele><time>2014-10-15T22:28:28Z</time></trkpt>
<trkpt lat="46.2040290832519531" lon="7.8297352790832520"><ele></ele><time>2014-10-15T22:28:31Z</time></trkpt>
<trkpt lat="46.2040023803710938" lon="7.8297095298767090"><ele></ele><time>2014-10-15T22:28:34Z</time></trkpt>
<trkpt lat="46.2039680480957031" lon="7.8296909332275391"><ele></ele><time>2014-10-15T22:28:37Z</time></trkpt>
<trkpt lat="46.2039451599121094" lon="7.8296518325805664"><ele></ele><time>2014-10-15T22:28:40Z</time></trkpt>
<trkpt lat="46.2039375305175781" lon="7.8296179771423340"><ele></ele><time>2014-10-15T22:28:43Z</time></trkpt>
<trkpt lat="46.2039070129394531" lon="7.8295850753784180"><ele></ele><time>2014-10-15T22:28:46Z</time></trkpt>
<trkpt lat="46.2038612365722656" lon="7.8295712471008301"><ele></ele><time>2014-10-15T22:28:49Z</time></trkpt>
<trkpt lat="46.2038383483886719" lon="7.8295516967773438"><ele></ele><time>2014-10-15T22:28:52Z</time></trkpt>
<trkpt lat="46.2038040161132812" lon="7.8295454978942871"><ele></ele><time>2014-10-15T22:28:55Z</time></trkpt>
<trkpt lat="46.2037696838378906" lon="7.8295488357543945"><ele></ele><time>2014-10-15T22:28:58Z</time></trkpt>
<trkpt lat="46.2037277221679688" lon="7.8295292854309082"><ele></ele><time>2014-10-15T22:29:1Z</time></trkpt>
<trkpt lat="46.2036933898925781" lon="7.8295083045959473"><ele></ele><time>2014-10-15T22:29:4Z</time></trkpt>
<trkpt lat="46.2036437988281250" lon="7.8294920921325684"><ele></ele><time>2014-10-15T22:29:7Z</time></trkpt>
<trkpt lat="46.2036094665527344" lon="7.8294982910156250"><ele></ele><time>2014-10-15T22:29:10Z</time></trkpt>
<trkpt lat="46.2035598754882812" lon="7.8295125961303711"><ele></ele><time>2014-10-15T22:29:13Z</time></trkpt>
<trkpt lat="46.2035179138183594" lon="7.8294959068298340"><ele></ele><time>2014-10-15T22:29:16Z</time></trkpt>
<trkpt lat="46.2034873962402344" lon="7.8294577598571777"><ele></ele><time>2014-10-15T22:29:19Z</time></trkpt>
<trkpt lat="46.2034912109375000" lon="7.8294034004211426"><ele></ele><time>2014-10-15T22:29:22Z</time></trkpt>
<trkpt lat="46.2034797668457031" lon="7.8293452262878418"><ele></ele><time>2014-10-15T22:29:25Z</time></trkpt>
<trkpt lat="46.2034645080566406" lon="7.8292994499206543"><ele></ele><time>2014-10-15T22:29:28Z</time></trkpt>
<trkpt lat="46.2034645080566406" lon="7.8292474746704102"><ele></ele><time>2014-10-15T22:29:31Z</time></trkpt>
<trkpt lat="46.2034530639648438" lon="7.8292269706726074"><ele></ele><time>2014-10-15T22:29:34Z</time></trkpt>
<trkpt lat="46.2034339904785156" lon="7.8292102813720703"><ele></ele><time>2014-10-15T22:29:37Z</time></trkpt>
<trkpt lat="46.2033882141113281" lon="7.8291969299316406"><ele></ele><time>2014-10-15T22:29:40Z</time></trkpt>
<trkpt lat="46.2033576965332031" lon="7.8291826248168945"><ele></ele><time>2014-10-15T22:29:43Z</time></trkpt>
<trkpt lat="46.2033195495605469" lon="7.8291563987731934"><ele></ele><time>2014-10-15T22:29:46Z</time></trkpt>
<trkpt lat="46.2032852172851562" lon="7.8291544914245605"><ele></ele><time>2014-10-15T22:29:49Z</time></trkpt>
<trkpt lat="46.2032508850097656" lon="7.8291497230529785"><ele></ele><time>2014-10-15T22:29:52Z</time></trkpt>
<trkpt lat="46.2032089233398438" lon="7.8291306495666504"><ele></ele><time>2014-10-15T22:29:55Z</time></trkpt>
<trkpt lat="46.2031784057617188" lon="7.8291149139404297"><ele></ele><time>2014-10-15T22:29:58Z</time></trkpt>
<trkpt lat="46.2031440734863281" lon="7.8291110992431641"><ele></ele><time>2014-10-15T22:30:1Z</time></trkpt>
<trkpt lat="46.2030944824218750" lon="7.8291230201721191"><ele></ele><time>2014-10-15T22:30:4Z</time></trkpt>
<trkpt lat="46.2030639648437500" lon="7.8291373252868652"><ele></ele><time>2014-10-15T22:30:7Z</time></trkpt>
<trkpt lat="46.2030220031738281" lon="7.8291201591491699"><ele></ele><time>2014-10-15T22:30:10Z</time></trkpt>
<trkpt lat="46.2029953002929688" lon="7.8291153907775879"><ele></ele><time>2014-10-15T22:30:13Z</time></trkpt>
<trkpt lat="46.2029876708984375" lon="7.8291587829589844"><ele></ele><time>2014-10-15T22:30:16Z</time></trkpt>
<trkpt lat="46.2030067443847656" lon="7.8291978836059570"><ele></ele><time>2014-10-15T22:30:19Z</time></trkpt>
<trkpt lat="46.2030372619628906" lon="7.8292303085327148"><ele></ele><time>2014-10-15T22:30:22Z</time></trkpt>
<trkpt lat="46.2030487060546875" lon="7.8292655944824219"><ele></ele><time>2014-10-15T22:30:25Z</time></trkpt>
<trkpt lat="46.2030525207519531" lon="7.8293032646179199"><ele></ele><time>2014-10-15T22:30:28Z</time></trkpt>
<trkpt lat="46.2030715942382812" lon="7.8293504714965820"><ele></ele><time>2014-10-15T22:30:31Z</time></trkpt>
<trkpt lat="46.2030830383300781" lon="7.8293890953063965"><ele></ele><time>2014-10-15T22:30:34Z</time></trkpt>
<trkpt lat="46.2031097412109375" lon="7.8294029235839844"><ele></ele><time>2014-10-15T22:30:37Z</time></trkpt>
<trkpt lat="46.2031555175781250" lon="7.8294043540954590"><ele></ele><time>2014-10-15T22:30:40Z</time></trkpt>
<trkpt lat="46.2031822204589844" lon="7.8294091224670410"><ele></ele><time>2014-10-15T22:30:43Z</time></trkpt>
<trkpt lat="46.2032241821289062" lon="7.8294086456298828"><ele></ele><time>2014-10-15T22:30:46Z</time></trkpt>
<trkpt lat="46.2032623291015625" lon="7.8294229507446289"><ele></ele><time>2014-10-15T22:30:49Z</time></trkpt>
<trkpt lat="46.2032966613769531" lon="7.8294277191162109"><ele></ele><time>2014-10-15T22:30:52Z</time></trkpt>
<trkpt lat="46.2033309936523438" lon="7.8294711112976074"><ele></ele><time>2014-10-15T22:30:55Z</time></trkpt>
<trkpt lat="46.2033348083496094" lon="7.8295202255249023"><ele></ele><time>2014-10-15T22:30:58Z</time></trkpt>
<trkpt lat="46.2033386230468750" lon="7.8295617103576660"><ele></ele><time>2014-10-15T22:31:1Z</time></trkpt>
<trkpt lat="46.2033462524414062" lon="7.8296308517456055"><ele></ele><time>2014-10-15T22:31:4Z</time></trkpt>
<trkpt lat="46.2033424377441406" lon="7.8296985626220703"><ele></ele><time>2014-10-15T22:31:7Z</time></trkpt>
<trkpt lat="46.2033424377441406" lon="7.8297414779663086"><ele></ele><time>2014-10-15T22:31:10Z</time></trkpt>
<trkpt lat="46.2033462524414062" lon="7.8297772407531738"><ele></ele><time>2014-10-15T22:31:13Z</time></trkpt>
<trkpt lat="46.2033348083496094" lon="7.8298411369323730"><ele></ele><time>2014-10-15T22:31:16Z</time></trkpt>
<trkpt lat="46.2033462524414062" lon="7.8298683166503906"><ele></ele><time>2014-10-15T22:31:19Z</time></trkpt>
<trkpt lat="46.2033424377441406" lon="7.8299102783203125"><ele></ele><time>2014-10-15T22:31:22Z</time></trkpt>
<trkpt lat="46.2033500671386719" lon="7.8299651145935059"><ele></ele><time>2014-10-15T22:31:25Z</time></trkpt>
<trkpt lat="46.2033538818359375" lon="7.8299961090087891"><ele></ele><time>2014-10-15T22:31:28Z</time></trkpt>
<trkpt lat="46.2033691406250000" lon="7.8300127983093262"><ele></ele><time>2014-10-15T22:31:31Z</time></trkpt>
<trkpt lat="46.2033882141113281" lon="7.8300495147705078"><ele></ele><time>2014-10-15T22:31:34Z</time></trkpt>
<trkpt lat="46.2034072875976562" lon="7.8300638198852539"><ele></ele><time>2014-10-15T22:31:37Z</time></trkpt>
<trkpt lat="46.2034263610839844" lon="7.8300800323486328"><ele></ele><time>2014-10-15T22:31:40Z</time></trkpt>
<trkpt lat="46.2034454345703125" lon="7.8300890922546387"><ele></ele><time>2014-10-15T22:31:43Z</time></trkpt>
<trkpt lat="46.2034606933593750" lon="7.8301239013671875"><ele></ele><time>2014-10-15T22:31:46Z</time></trkpt>
<trkpt lat="46.2034721374511719" lon="7.8301558494567871"><ele></ele><time>2014-10-15T22:31:49Z</time></trkpt>
<trkpt lat="46.2034721374511719" lon="7.8301935195922852"><ele></ele><time>2014-10-15T22:31:52Z</time></trkpt>
<trkpt lat="46.2034759521484375" lon="7.8302297592163086"><ele></ele><time>2014-10-15T22:31:55Z</time></trkpt>
<trkpt lat="46.2034835815429688" lon="7.8302707672119141"><ele></ele><time>2014-10-15T22:31:58Z</time></trkpt>
<trkpt lat="46.2034873962402344" lon="7.8303179740905762"><ele></ele><time>2014-10-15T22:32:1Z</time></trkpt>
<trkpt lat="46.2035179138183594" lon="7.8303709030151367"><ele></ele><time>2014-10-15T22:32:4Z</time></trkpt>
<trkpt lat="46.2035675048828125" lon="7.8303952217102051"><ele></ele><time>2014-10-15T22:32:7Z</time></trkpt>
<trkpt lat="46.2036056518554688" lon="7.8304057121276855"><ele></ele><time>2014-10-15T22:32:10Z</time></trkpt>
<trkpt lat="46.2036247253417969" lon="7.8304738998413086"><ele></ele><time>2014-10-15T22:32:13Z</time></trkpt>
<trkpt lat="46.2036437988281250" lon="7.8305420875549316"><ele></ele><time>2014-10-15T22:32:16Z</time></trkpt>
<trkpt lat="46.2036552429199219" lon="7.8305988311767578"><ele></ele><time>2014-10-15T22:32:19Z</time></trkpt>
<trkpt lat="46.2036628723144531" lon="7.8306355476379395"><ele></ele><time>2014-10-15T22:32:22Z</time></trkpt>
<trkpt lat="46.2036781311035156" lon="7.8306727409362793"><ele></ele><time>2014-10-15T22:32:25Z</time></trkpt>
<trkpt lat="46.2036628723144531" lon="7.8306713104248047"><ele></ele><time>2014-10-15T22:32:28Z</time></trkpt>
<trkpt lat="46.2036399841308594" lon="7.8306636810302734"><ele></ele><time>2014-10-15T22:32:31Z</time></trkpt>
<trkpt lat="46.2036094665527344" lon="7.8306512832641602"><ele></ele><time>2014-10-15T22:32:34Z</time></trkpt>
<trkpt lat="46.2035675048828125" lon="7.8306398391723633"><ele></ele><time>2014-10-15T22:32:37Z</time></trkpt>
<trkpt lat="46.2035369873046875" lon="7.8306441307067871"><ele></ele><time>2014-10-15T22:32:40Z</time></trkpt>
<trkpt lat="46.2034950256347656" lon="7.8306398391723633"><ele></ele><time>2014-10-15T22:32:43Z</time></trkpt>
<trkpt lat="46.2034645080566406" lon="7.8306088447570801"><ele></ele><time>2014-10-15T22:32:46Z</time></trkpt>
<trkpt lat="46.2034378051757812" lon="7.8305826187133789"><ele></ele><time>2014-10-15T22:32:49Z</time></trkpt>
<trkpt lat="46.2034187316894531" lon="7.8305726051330566"><ele></ele><time>2014-10-15T22:32:52Z</time></trkpt>
<trkpt lat="46.2033958435058594" lon="7.8305268287658691"><ele></ele><time>2014-10-15T22:32:55Z</time></trkpt>
<trkpt lat="46.2033729553222656" lon="7.8304944038391113"><ele></ele><time>2014-10-15T22:32:58Z</time></trkpt>
<trkpt lat="46.2033348083496094" lon="7.8304619789123535"><ele></ele><time>2014-10-15T22:33:1Z</time></trkpt>
<trkpt lat="46.2033119201660156" lon="7.8304371833801270"><ele></ele><time>2014-10-15T22:33:4Z</time></trkpt>
<trkpt lat="46.2032928466796875" lon="7.8303799629211426"><ele></ele><time>2014-10-15T22:33:7Z</time></trkpt>
<trkpt lat="46.2032546997070312" lon="7.8303394317626953"><ele></ele><time>2014-10-15T22:33:10Z</time></trkpt>
<trkpt lat="46.2032203674316406" lon="7.8303260803222656"><ele></ele><time>2014-10-15T22:33:13Z</time></trkpt>
<trkpt lat="46.2031860351562500" lon="7.8303170204162598"><ele></ele><time>2014-10-15T22:33:16Z</time></trkpt>
<trkpt lat="46.2031288146972656" lon="7.8303050994873047"><ele></ele><time>2014-10-15T22:33:19Z</time></trkpt>
<trkpt lat="46.2030868530273438" lon="7.8303070068359375"><ele></ele><time>2014-10-15T22:33:22Z</time></trkpt>
<trkpt lat="46.2030525207519531" lon="7.8303222656250000"><ele></ele><time>2014-10-15T22:33:25Z</time></trkpt>
<trkpt lat="46.2029991149902344" lon="7.8303241729736328"><ele></ele><time>2014-10-15T22:33:28Z</time></trkpt>
<trkpt lat="46.2029762268066406" lon="7.8303151130676270"><ele></ele><time>2014-10-15T22:33:31Z</time></trkpt>
<trkpt lat="46.2029342651367188" lon="7.8303055763244629"><ele></ele><time>2014-10-15T22:33:34Z</time></trkpt>
<trkpt lat="46.2029075622558594" lon="7.8303089141845703"><ele></ele><time>2014-10-15T22:33:37Z</time></trkpt>
<trkpt lat="46.2028656005859375" lon="7.8303008079528809"><ele></ele><time>2014-10-15T22:33:40Z</time></trkpt>
<trkpt lat="46.2028579711914062" lon="7.8303289413452148"><ele></ele><time>2014-10-15T22:33:43Z</time></trkpt>
<trkpt lat="46.2028656005859375" lon="7.8303694725036621"><ele></ele><time>2014-10-15T22:33:46Z</time></trkpt>
<trkpt lat="46.2028884887695312" lon="7.8303990364074707"><ele></ele><time>2014-10-15T22:33:49Z</time></trkpt>
<trkpt lat="46.2029266357421875" lon="7.8304047584533691"><ele></ele><time>2014-10-15T22:33:52Z</time></trkpt>
<trkpt lat="46.2029800415039062" lon="7.8304157257080078"><ele></ele><time>2014-10-15T22:33:55Z</time></trkpt>
<trkpt lat="46.2029991149902344" lon="7.8304433822631836"><ele></ele><time>2014-10-15T22:33:58Z</time></trkpt>
<trkpt lat="46.2030105590820312" lon="7.8304758071899414"><ele></ele><time>2014-10-15T22:34:1Z</time></trkpt>
<trkpt lat="46.2030410766601562" lon="7.8304820060729980"><ele></ele><time>2014-10-15T22:34:4Z</time></trkpt>
<trkpt lat="46.2030563354492188" lon="7.8305144309997559"><ele></ele><time>2014-10-15T22:34:7Z</time></trkpt>
<trkpt lat="46.2030868530273438" lon="7.8305649757385254"><ele></ele><time>2014-10-15T22:34:10Z</time></trkpt>
<trkpt lat="46.2030982971191406" lon="7.8306031227111816"><ele></ele><time>2014-10-15T22:34:13Z</time></trkpt>
<trkpt lat="46.2031173706054688" lon="7.8306288719177246"><ele></ele><time>2014-10-15T22:34:16Z</time></trkpt>
<trkpt lat="46.2031593322753906" lon="7.8306512832641602"><ele></ele><time>2014-10-15T22:34:19Z</time></trkpt>
<trkpt lat="46.2032089233398438" lon="7.8306598663330078"><ele></ele><time>2014-10-15T22:34:22Z</time></trkpt>
<trkpt lat="46.2032432556152344" lon="7.8306746482849121"><ele></ele><time>2014-10-15T22:34:25Z</time></trkpt>
<trkpt lat="46.2032775878906250" lon="7.8306870460510254"><ele></ele><time>2014-10-15T22:34:28Z</time></trkpt>
<trkpt lat="46.2033271789550781" lon="7.8307065963745117"><ele></ele><time>2014-10-15T22:34:31Z</time></trkpt>
<trkpt lat="46.2033462524414062" lon="7.8307266235351562"><ele></ele><time>2014-10-15T22:34:34Z</time></trkpt>
<trkpt lat="46.2033576965332031" lon="7.8307499885559082"><ele></ele><time>2014-10-15T22:34:37Z</time></trkpt>
<trkpt lat="46.2033767700195312" lon="7.8307886123657227"><ele></ele><time>2014-10-15T22:34:40Z</time></trkpt>
<trkpt lat="46.2033767700195312" lon="7.8308210372924805"><ele></ele><time>2014-10-15T22:34:43Z</time></trkpt>
<trkpt lat="46.2033805847167969" lon="7.8308682441711426"><ele></ele><time>2014-10-15T22:34:46Z</time></trkpt>
<trkpt lat="46.2033920288085938" lon="7.8309025764465332"><ele></ele><time>2014-10-15T22:34:49Z</time></trkpt>
<trkpt lat="46.2034034729003906" lon="7.8309402465820312"><ele></ele><time>2014-10-15T22:34:52Z</time></trkpt>
<trkpt lat="46.2034111022949219" lon="7.8310112953186035"><ele></ele><time>2014-10-15T22:34:55Z</time></trkpt>
<trkpt lat="46.2033843994140625" lon="7.8310303688049316"><ele></ele><time>2014-10-15T22:34:58Z</time></trkpt>
<trkpt lat="46.2033500671386719" lon="7.8310103416442871"><ele></ele><time>2014-10-15T22:35:1Z</time></trkpt>
<trkpt lat="46.2033271789550781" lon="7.8309917449951172"><ele></ele><time>2014-10-15T22:35:4Z</time></trkpt>
<trkpt lat="46.2033119201660156" lon="7.8309659957885742"><ele></ele><time>2014-10-15T22:35:7Z</time></trkpt>
<trkpt lat="46.2032699584960938" lon="7.8309435844421387"><ele></ele><time>2014-10-15T22:35:10Z</time></trkpt>
<trkpt lat="46.2032546997070312" lon="7.8309121131896973"><ele></ele><time>2014-10-15T22:35:13Z</time></trkpt>
<trkpt lat="46.2032432556152344" lon="7.8308620452880859"><ele></ele><time>2014-10-15T22:35:16Z</time></trkpt>
<trkpt lat="46.2032394409179688" lon="7.8308310508728027"><ele></ele><time>2014-10-15T22:35:19Z</time></trkpt>
<trkpt lat="46.2032051086425781" lon="7.8308234214782715"><ele></ele><time>2014-10-15T22:35:22Z</time></trkpt>
<trkpt lat="46.2031822204589844" lon="7.8308172225952148"><ele></ele><time>2014-10-15T22:35:25Z</time></trkpt>
<trkpt lat="46.2031402587890625" lon="7.8308167457580566"><ele></ele><time>2014-10-15T22:35:28Z</time></trkpt>
<trkpt lat="46.2030982971191406" lon="7.8308310508728027"><ele></ele><time>2014-10-15T22:35:31Z</time></trkpt>
<trkpt lat="46.2030677795410156" lon="7.8308277130126953"><ele></ele><time>2014-10-15T22:35:34Z</time></trkpt>
<trkpt lat="46.2030258178710938" lon="7.8308186531066895"><ele></ele><time>2014-10-15T22:35:37Z</time></trkpt>
<trkpt lat="46.2030067443847656" lon="7.8308191299438477"><ele></ele><time>2014-10-15T22:35:40Z</time></trkpt>
<trkpt lat="46.2029685974121094" lon="7.8308219909667969"><ele></ele><time>2014-10-15T22:35:43Z</time></trkpt>
<trkpt lat="46.2029457092285156" lon="7.8308324813842773"><ele></ele><time>2014-10-15T22:35:46Z</time></trkpt>
<trkpt lat="46.2029228210449219" lon="7.8308463096618652"><ele></ele><time>2014-10-15T22:35:49Z</time></trkpt>
<trkpt lat="46.2028846740722656" lon="7.8308467864990234"><ele></ele><time>2014-10-15T22:35:52Z</time></trkpt>
<trkpt lat="46.2028694152832031" lon="7.8308548927307129"><ele></ele><time>2014-10-15T22:35:55Z</time></trkpt>
<trkpt lat="46.2028579711914062" lon="7.8308811187744141"><ele></ele><time>2014-10-15T22:35:58Z</time></trkpt>
<trkpt lat="46.2028961181640625" lon="7.8308887481689453"><ele></ele><time>2014-10-15T22:36:1Z</time></trkpt>
<trkpt lat="46.2029266357421875" lon="7.8309001922607422"><ele></ele><time>2014-10-15T22:36:4Z</time></trkpt>
<trkpt lat="46.2029457092285156" lon="7.8309082984924316"><ele></ele><time>2014-10-15T22:36:7Z</time></trkpt>
<trkpt lat="46.2029533386230469" lon="7.8309221267700195"><ele></ele><time>2014-10-15T22:36:10Z</time></trkpt>
<trkpt lat="46.2029647827148438" lon="7.8309426307678223"><ele></ele><time>2014-10-15T22:36:13Z</time></trkpt>
<trkpt lat="46.2029838562011719" lon="7.8309445381164551"><ele></ele><time>2014-10-15T22:36:16Z</time></trkpt>
<trkpt lat="46.2030105590820312" lon="7.8309655189514160"><ele></ele><time>2014-10-15T22:36:19Z</time></trkpt>
<trkpt lat="46.2030143737792969" lon="7.8309922218322754"><ele></ele><time>2014-10-15T22:36:22Z</time></trkpt>
<trkpt lat="46.2030220031738281" lon="7.8310246467590332"><ele></ele><time>2014-10-15T22:36:25Z</time></trkpt>
<trkpt lat="46.2030334472656250" lon="7.8310608863830566"><ele></ele><time>2014-10-15T22:36:28Z</time></trkpt>
<trkpt lat="46.2030487060546875" lon="7.8311033248901367"><ele></ele><time>2014-10-15T22:36:31Z</time></trkpt>
<trkpt lat="46.2030601501464844" lon="7.8311357498168945"><ele></ele><time>2014-10-15T22:36:34Z</time></trkpt>
<trkpt lat="46.2030792236328125" lon="7.8311810493469238"><ele></ele><time>2014-10-15T22:36:37Z</time></trkpt>
<trkpt lat="46.2030906677246094" lon="7.8312106132507324"><ele></ele><time>2014-10-15T22:36:40Z</time></trkpt>
<trkpt lat="46.2031135559082031" lon="7.8312201499938965"><ele></ele><time>2014-10-15T22:36:43Z</time></trkpt>
<trkpt lat="46.2031364440917969" lon="7.8312559127807617"><ele></ele><time>2014-10-15T22:36:46Z</time></trkpt>
<trkpt lat="46.2031440734863281" lon="7.8312907218933105"><ele></ele><time>2014-10-15T22:36:49Z</time></trkpt>
<trkpt lat="46.2031250000000000" lon="7.8313150405883789"><ele></ele><time>2014-10-15T22:36:52Z</time></trkpt>
<trkpt lat="46.2031021118164062" lon="7.8313031196594238"><ele></ele><time>2014-10-15T22:36:55Z</time></trkpt>
<trkpt lat="46.2030868530273438" lon="7.8312888145446777"><ele></ele><time>2014-10-15T22:36:58Z</time></trkpt>
<trkpt lat="46.2030563354492188" lon="7.8312802314758301"><ele></ele><time>2014-10-15T22:37:1Z</time></trkpt>
<trkpt lat="46.2030372619628906" lon="7.8312788009643555"><ele></ele><time>2014-10-15T22:37:4Z</time></trkpt>
<trkpt lat="46.2030067443847656" lon="7.8312902450561523"><ele></ele><time>2014-10-15T22:37:7Z</time></trkpt>
<trkpt lat="46.2029876708984375" lon="7.8312907218933105"><ele></ele><time>2014-10-15T22:37:10Z</time></trkpt>
<trkpt lat="46.2029724121093750" lon="7.8312821388244629"><ele></ele><time>2014-10-15T22:37:13Z</time></trkpt>
<trkpt lat="46.2029495239257812" lon="7.8312506675720215"><ele></ele><time>2014-10-15T22:37:16Z</time></trkpt>
<trkpt lat="46.2029380798339844" lon="7.8312273025512695"><ele></ele><time>2014-10-15T22:37:19Z</time></trkpt>
<trkpt lat="46.2029075622558594" lon="7.8312110900878906"><ele></ele><time>2014-10-15T22:37:22Z</time></trkpt>
<trkpt lat="46.2028770446777344" lon="7.8312001228332520"><ele></ele><time>2014-10-15T22:37:25Z</time></trkpt>
<trkpt lat="46.2028503417968750" lon="7.8311929702758789"><ele></ele><time>2014-10-15T22:37:28Z</time></trkpt>
<trkpt lat="46.2028160095214844" lon="7.8311629295349121"><ele></ele><time>2014-10-15T22:37:31Z</time></trkpt>
<trkpt lat="46.2028007507324219" lon="7.8311328887939453"><ele></ele><time>2014-10-15T22:37:34Z</time></trkpt>
<trkpt lat="46.2027778625488281" lon="7.8311171531677246"><ele></ele><time>2014-10-15T22:37:37Z</time></trkpt>
<trkpt lat="46.2027587890625000" lon="7.8311219215393066"><ele></ele><time>2014-10-15T22:37:40Z</time></trkpt>
<trkpt lat="46.2027549743652344" lon="7.8311438560485840"><ele></ele><time>2014-10-15T22:37:43Z</time></trkpt>
<trkpt lat="46.2027778625488281" lon="7.8311920166015625"><ele></ele><time>2014-10-15T22:37:46Z</time></trkpt>
<trkpt lat="46.2027816772460938" lon="7.8312220573425293"><ele></ele><time>2014-10-15T22:37:49Z</time></trkpt>
<trkpt lat="46.2027893066406250" lon="7.8312487602233887"><ele></ele><time>2014-10-15T22:37:52Z</time></trkpt>
<trkpt lat="46.2028083801269531" lon="7.8312883377075195"><ele></ele><time>2014-10-15T22:37:55Z</time></trkpt>
<trkpt lat="46.2028160095214844" lon="7.8313093185424805"><ele></ele><time>2014-10-15T22:37:58Z</time></trkpt>
<trkpt lat="46.2028198242187500" lon="7.8313317298889160"><ele></ele><time>2014-10-15T22:38:1Z</time></trkpt>
<trkpt lat="46.2028236389160156" lon="7.8313422203063965"><ele></ele><time>2014-10-15T22:38:4Z</time></trkpt>
<trkpt lat="46.2028312683105469" lon="7.8313388824462891"><ele></ele><time>2014-10-15T22:38:7Z</time></trkpt>
<trkpt lat="46.2028503417968750" lon="7.8313517570495605"><ele></ele><time>2014-10-15T22:38:10Z</time></trkpt>
<trkpt lat="46.2028388977050781" lon="7.8313603401184082"><ele></ele><time>2014-10-15T22:38:13Z</time></trkpt>
<trkpt lat="46.2028121948242188" lon="7.8313679695129395"><ele></ele><time>2014-10-15T22:38:16Z</time></trkpt>
<trkpt lat="46.2027740478515625" lon="7.8313794136047363"><ele></ele><time>2014-10-15T22:38:19Z</time></trkpt>
<trkpt lat="46.2027549743652344" lon="7.8313789367675781"><ele></ele><time>2014-10-15T22:38:22Z</time></trkpt>
<trkpt lat="46.2027359008789062" lon="7.8313803672790527"><ele></ele><time>2014-10-15T22:38:25Z</time></trkpt>
<trkpt lat="46.2027206420898438" lon="7.8313755989074707"><ele></ele><time>2014-10-15T22:38:28Z</time></trkpt>
<trkpt lat="46.2026977539062500" lon="7.8313660621643066"><ele></ele><time>2014-10-15T22:38:31Z</time></trkpt>
<trkpt lat="46.2026596069335938" lon="7.8313608169555664"><ele></ele><time>2014-10-15T22:38:34Z</time></trkpt>
<trkpt lat="46.2026405334472656" lon="7.8313460350036621"><ele></ele><time>2014-10-15T22:38:37Z</time></trkpt>
<trkpt lat="46.2026138305664062" lon="7.8313150405883789"><ele></ele><time>2014-10-15T22:38:40Z</time></trkpt>
<trkpt lat="46.2025794982910156" lon="7.8312993049621582"><ele></ele><time>2014-10-15T22:38:43Z</time></trkpt>
<trkpt lat="46.2025375366210938" lon="7.8313021659851074"><ele></ele><time>2014-10-15T22:38:46Z</time></trkpt>
<trkpt lat="46.2025146484375000" lon="7.8312883377075195"><ele></ele><time>2014-10-15T22:38:49Z</time></trkpt>
<trkpt lat="46.2024765014648438" lon="7.8312783241271973"><ele></ele><time>2014-10-15T22:38:52Z</time></trkpt>
<trkpt lat="46.2024459838867188" lon="7.8312606811523438"><ele></ele><time>2014-10-15T22:38:55Z</time></trkpt>
<trkpt lat="46.2024230957031250" lon="7.8312482833862305"><ele></ele><time>2014-10-15T22:38:58Z</time></trkpt>
<trkpt lat="46.2024040222167969" lon="7.8312516212463379"><ele></ele><time>2014-10-15T22:39:1Z</time></trkpt>
<trkpt lat="46.2023887634277344" lon="7.8312597274780273"><ele></ele><time>2014-10-15T22:39:4Z</time></trkpt>
<trkpt lat="46.2023696899414062" lon="7.8312754631042480"><ele></ele><time>2014-10-15T22:39:7Z</time></trkpt>
<trkpt lat="46.2023582458496094" lon="7.8312773704528809"><ele></ele><time>2014-10-15T22:39:10Z</time></trkpt>
<trkpt lat="46.2023391723632812" lon="7.8312816619873047"><ele></ele><time>2014-10-15T22:39:13Z</time></trkpt>
<trkpt lat="46.2022933959960938" lon="7.8312926292419434"><ele></ele><time>2014-10-15T22:39:16Z</time></trkpt>
<trkpt lat="46.2022819519042969" lon="7.8313045501708984"><ele></ele><time>2014-10-15T22:39:19Z</time></trkpt>
<trkpt lat="46.2022857666015625" lon="7.8313217163085938"><ele></ele><time>2014-10-15T22:39:22Z</time></trkpt>
<trkpt lat="46.2023124694824219" lon="7.8313331604003906"><ele></ele><time>2014-10-15T22:39:25Z</time></trkpt>
<trkpt lat="46.2023353576660156" lon="7.8313493728637695"><ele></ele><time>2014-10-15T22:39:28Z</time></trkpt>
<trkpt lat="46.2023277282714844" lon="7.8313903808593750"><ele></ele><time>2014-10-15T22:39:31Z</time></trkpt>
<trkpt lat="46.2022933959960938" lon="7.8314185142517090"><ele></ele><time>2014-10-15T22:39:34Z</time></trkpt>
<trkpt lat="46.2022590637207031" lon="7.8314275741577148"><ele></ele><time>2014-10-15T22:39:37Z</time></trkpt>
<trkpt lat="46.2022399902343750" lon="7.8314166069030762"><ele></ele><time>2014-10-15T22:39:40Z</time></trkpt>
<trkpt lat="46.2022323608398438" lon="7.8314127922058105"><ele></ele><time>2014-10-15T22:39:43Z</time></trkpt>
<trkpt lat="46.2022132873535156" lon="7.8314313888549805"><ele></ele><time>2014-10-15T22:39:46Z</time></trkpt>
<trkpt lat="46.2022094726562500" lon="7.8314514160156250"><ele></ele><time>2014-10-15T22:39:49Z</time></trkpt>
<trkpt lat="46.2022209167480469" lon="7.8314514160156250"><ele></ele><time>2014-10-15T22:39:52Z</time></trkpt>
<trkpt lat="46.2021446228027344" lon="7.8315110206604004"><ele></ele><time>2014-10-15T22:39:55Z</time></trkpt>
<trkpt lat="46.2021217346191406" lon="7.8315200805664062"><ele></ele><time>2014-10-15T22:39:58Z</time></trkpt>
<trkpt lat="46.2020759582519531" lon="7.8315219879150391"><ele></ele><time>2014-10-15T22:40:1Z</time></trkpt>
<trkpt lat="46.2020492553710938" lon="7.8315081596374512"><ele></ele><time>2014-10-15T22:40:4Z</time></trkpt>
<trkpt lat="46.2020339965820312" lon="7.8314919471740723"><ele></ele><time>2014-10-15T22:40:7Z</time></trkpt>
<trkpt lat="46.2020225524902344" lon="7.8314814567565918"><ele></ele><time>2014-10-15T22:40:10Z</time></trkpt>
<trkpt lat="46.2019729614257812" lon="7.8314547538757324"><ele></ele><time>2014-10-15T22:40:13Z</time></trkpt>
<trkpt lat="46.2019462585449219" lon="7.8314423561096191"><ele></ele><time>2014-10-15T22:40:16Z</time></trkpt>
<trkpt lat="46.2019195556640625" lon="7.8314347267150879"><ele></ele><time>2014-10-15T22:40:19Z</time></trkpt>
<trkpt lat="46.2018890380859375" lon="7.8314251899719238"><ele></ele><time>2014-10-15T22:40:22Z</time></trkpt>
<trkpt lat="46.2018775939941406" lon="7.8314065933227539"><ele></ele><time>2014-10-15T22:40:25Z</time></trkpt>
<trkpt lat="46.2018585205078125" lon="7.8313808441162109"><ele></ele><time>2014-10-15T22:40:28Z</time></trkpt>
<trkpt lat="46.2018508911132812" lon="7.8313522338867188"><ele></ele><time>2014-10-15T22:40:31Z</time></trkpt>
<trkpt lat="46.2018280029296875" lon="7.8313207626342773"><ele></ele><time>2014-10-15T22:40:34Z</time></trkpt>
<trkpt lat="46.2017974853515625" lon="7.8313107490539551"><ele></ele><time>2014-10-15T22:40:37Z</time></trkpt>
<trkpt lat="46.2017707824707031" lon="7.8312778472900391"><ele></ele><time>2014-10-15T22:40:40Z</time></trkpt>
<trkpt lat="46.2017555236816406" lon="7.8312530517578125"><ele></ele><time>2014-10-15T22:40:43Z</time></trkpt>
<trkpt lat="46.2017402648925781" lon="7.8312287330627441"><ele></ele><time>2014-10-15T22:40:46Z</time></trkpt>
<trkpt lat="46.2017173767089844" lon="7.8312096595764160"><ele></ele><time>2014-10-15T22:40:49Z</time></trkpt>
<trkpt lat="46.2016830444335938" lon="7.8312020301818848"><ele></ele><time>2014-10-15T22:40:52Z</time></trkpt>
<trkpt lat="46.2016334533691406" lon="7.8311815261840820"><ele></ele><time>2014-10-15T22:40:55Z</time></trkpt>
<trkpt lat="46.2016105651855469" lon="7.8311629295349121"><ele></ele><time>2014-10-15T22:40:58Z</time></trkpt>
<trkpt lat="46.2015838623046875" lon="7.8311533927917480"><ele></ele><time>2014-10-15T22:41:1Z</time></trkpt>
<trkpt lat="46.2015380859375000" lon="7.8311357498168945"><ele></ele><time>2014-10-15T22:41:4Z</time></trkpt>
<trkpt lat="46.2015075683593750" lon="7.8311357498168945"><ele></ele><time>2014-10-15T22:41:7Z</time></trkpt>
<trkpt lat="46.2014694213867188" lon="7.8311538696289062"><ele></ele><time>2014-10-15T22:41:10Z</time></trkpt>
<trkpt lat="46.2014160156250000" lon="7.8311762809753418"><ele></ele><time>2014-10-15T22:41:13Z</time></trkpt>
<trkpt lat="46.2013778686523438" lon="7.8311815261840820"><ele></ele><time>2014-10-15T22:41:16Z</time></trkpt>
<trkpt lat="46.2013397216796875" lon="7.8311734199523926"><ele></ele><time>2014-10-15T22:41:19Z</time></trkpt>
<trkpt lat="46.2013168334960938" lon="7.8311572074890137"><ele></ele><time>2014-10-15T22:41:22Z</time></trkpt>
<trkpt lat="46.2012825012207031" lon="7.8311390876770020"><ele></ele><time>2014-10-15T22:41:25Z</time></trkpt>
<trkpt lat="46.2012443542480469" lon="7.8311347961425781"><ele></ele><time>2014-10-15T22:41:28Z</time></trkpt>
<trkpt lat="46.2012214660644531" lon="7.8311381340026855"><ele></ele><time>2014-10-15T22:41:31Z</time></trkpt>
<trkpt lat="46.2011947631835938" lon="7.8311591148376465"><ele></ele><time>2014-10-15T22:41:34Z</time></trkpt>
<trkpt lat="46.2011604309082031" lon="7.8311858177185059"><ele></ele><time>2014-10-15T22:41:37Z</time></trkpt>
<trkpt lat="46.2011337280273438" lon="7.8311791419982910"><ele></ele><time>2014-10-15T22:41:40Z</time></trkpt>
<trkpt lat="46.2010841369628906" lon="7.8311614990234375"><ele></ele><time>2014-10-15T22:41:43Z</time></trkpt>
<trkpt lat="46.2010536193847656" lon="7.8311433792114258"><ele></ele><time>2014-10-15T22:41:46Z</time></trkpt>
<trkpt lat="46.2010154724121094" lon="7.8311085700988770"><ele></ele><time>2014-10-15T22:41:49Z</time></trkpt>
<trkpt lat="46.2009696960449219" lon="7.8310890197753906"><ele></ele><time>2014-10-15T22:41:52Z</time></trkpt>
<trkpt lat="46.2009391784667969" lon="7.8310503959655762"><ele></ele><time>2014-10-15T22:41:55Z</time></trkpt>
<trkpt lat="46.2009010314941406" lon="7.8310174942016602"><ele></ele><time>2014-10-15T22:41:58Z</time></trkpt>
<trkpt lat="46.2008705139160156" lon="7.8310046195983887"><ele></ele><time>2014-10-15T22:42:1Z</time></trkpt>
<trkpt lat="46.2008285522460938" lon="7.8309731483459473"><ele></ele><time>2014-10-15T22:42:4Z</time></trkpt>
<trkpt lat="46.2008018493652344" lon="7.8309645652770996"><ele></ele><time>2014-10-15T22:42:7Z</time></trkpt>
<trkpt lat="46.2007713317871094" lon="7.8309402465820312"><ele></ele><time>2014-10-15T22:42:10Z</time></trkpt>
<trkpt lat="46.2007446289062500" lon="7.8309407234191895"><ele></ele><time>2014-10-15T22:42:13Z</time></trkpt>
<trkpt lat="46.2006988525390625" lon="7.8309435844421387"><ele></ele><time>2014-10-15T22:42:16Z</time></trkpt>
<trkpt lat="46.2006568908691406" lon="7.8309159278869629"><ele></ele><time>2014-10-15T22:42:19Z</time></trkpt>
<trkpt lat="46.2006187438964844" lon="7.8308877944946289"><ele></ele><time>2014-10-15T22:42:22Z</time></trkpt>
<trkpt lat="46.2005920410156250" lon="7.8308792114257812"><ele></ele><time>2014-10-15T22:42:25Z</time></trkpt>
<trkpt lat="46.2005462646484375" lon="7.8308691978454590"><ele></ele><time>2014-10-15T22:42:28Z</time></trkpt>
<trkpt lat="46.2005043029785156" lon="7.8308615684509277"><ele></ele><time>2014-10-15T22:42:31Z</time></trkpt>
<trkpt lat="46.2004661560058594" lon="7.8308372497558594"><ele></ele><time>2014-10-15T22:42:34Z</time></trkpt>
<trkpt lat="46.2004470825195312" lon="7.8308243751525879"><ele></ele><time>2014-10-15T22:42:37Z</time></trkpt>
<trkpt lat="46.2004318237304688" lon="7.8308019638061523"><ele></ele><time>2014-10-15T22:42:40Z</time></trkpt>
<trkpt lat="46.2004165649414062" lon="7.8307766914367676"><ele></ele><time>2014-10-15T22:42:43Z</time></trkpt>
<trkpt lat="46.2004013061523438" lon="7.8307566642761230"><ele></ele><time>2014-10-15T22:42:46Z</time></trkpt>
<trkpt lat="46.2003784179687500" lon="7.8307313919067383"><ele></ele><time>2014-10-15T22:42:49Z</time></trkpt>
<trkpt lat="46.2003593444824219" lon="7.8307142257690430"><ele></ele><time>2014-10-15T22:42:52Z</time></trkpt>
<trkpt lat="46.2002716064453125" lon="7.8306560516357422"><ele></ele><time>2014-10-15T22:42:55Z</time></trkpt>
<trkpt lat="46.2002220153808594" lon="7.8306307792663574"><ele></ele><time>2014-10-15T22:42:58Z</time></trkpt>
<trkpt lat="46.2001838684082031" lon="7.8306260108947754"><ele></ele><time>2014-10-15T22:43:1Z</time></trkpt>
<trkpt lat="46.2001533508300781" lon="7.8306012153625488"><ele></ele><time>2014-10-15T22:43:4Z</time></trkpt>
<trkpt lat="46.2001228332519531" lon="7.8305640220642090"><ele></ele><time>2014-10-15T22:43:7Z</time></trkpt>
<trkpt lat="46.2000961303710938" lon="7.8305172920227051"><ele></ele><time>2014-10-15T22:43:10Z</time></trkpt>
<trkpt lat="46.2000694274902344" lon="7.8304910659790039"><ele></ele><time>2014-10-15T22:43:13Z</time></trkpt>
<trkpt lat="46.2000389099121094" lon="7.8304753303527832"><ele></ele><time>2014-10-15T22:43:16Z</time></trkpt>
<trkpt lat="46.2000045776367188" lon="7.8304729461669922"><ele></ele><time>2014-10-15T22:43:19Z</time></trkpt>
<trkpt lat="46.1999855041503906" lon="7.8304839134216309"><ele></ele><time>2014-10-15T22:43:22Z</time></trkpt>
<trkpt lat="46.1999549865722656" lon="7.8304762840270996"><ele></ele><time>2014-10-15T22:43:25Z</time></trkpt>
<trkpt lat="46.1999359130859375" lon="7.8304753303527832"><ele></ele><time>2014-10-15T22:43:28Z</time></trkpt>
<trkpt lat="46.1999053955078125" lon="7.8304624557495117"><ele></ele><time>2014-10-15T22:43:31Z</time></trkpt>
<trkpt lat="46.1998863220214844" lon="7.8304471969604492"><ele></ele><time>2014-10-15T22:43:34Z</time></trkpt>
<trkpt lat="46.1998481750488281" lon="7.8304262161254883"><ele></ele><time>2014-10-15T22:43:37Z</time></trkpt>
<trkpt lat="46.1998252868652344" lon="7.8304042816162109"><ele></ele><time>2014-10-15T22:43:40Z</time></trkpt>
<trkpt lat="46.1997299194335938" lon="7.8304014205932617"><ele></ele><time>2014-10-15T22:43:43Z</time></trkpt>
<trkpt lat="46.1997032165527344" lon="7.8304114341735840"><ele></ele><time>2014-10-15T22:43:46Z</time></trkpt>
<trkpt lat="46.1996841430664062" lon="7.8304014205932617"><ele></ele><time>2014-10-15T22:43:49Z</time></trkpt>
<trkpt lat="46.1996650695800781" lon="7.8303680419921875"><ele></ele><time>2014-10-15T22:43:52Z</time></trkpt>
<trkpt lat="46.1996383666992188" lon="7.8303141593933105"><ele></ele><time>2014-10-15T22:43:55Z</time></trkpt>
<trkpt lat="46.1996040344238281" lon="7.8302912712097168"><ele></ele><time>2014-10-15T22:43:58Z</time></trkpt>
<trkpt lat="46.1995468139648438" lon="7.8302903175354004"><ele></ele><time>2014-10-15T22:44:1Z</time></trkpt>
<trkpt lat="46.1995048522949219" lon="7.8302788734436035"><ele></ele><time>2014-10-15T22:44:4Z</time></trkpt>
<trkpt lat="46.1994819641113281" lon="7.8302659988403320"><ele></ele><time>2014-10-15T22:44:7Z</time></trkpt>
<trkpt lat="46.1994590759277344" lon="7.8302516937255859"><ele></ele><time>2014-10-15T22:44:10Z</time></trkpt>
<trkpt lat="46.1994438171386719" lon="7.8302497863769531"><ele></ele><time>2014-10-15T22:44:13Z</time></trkpt>
<trkpt lat="46.1994323730468750" lon="7.8302540779113770"><ele></ele><time>2014-10-15T22:44:16Z</time></trkpt>
<trkpt lat="46.1994285583496094" lon="7.8302273750305176"><ele></ele><time>2014-10-15T22:44:19Z</time></trkpt>
<trkpt lat="46.1994171142578125" lon="7.8301959037780762"><ele></ele><time>2014-10-15T22:44:22Z</time></trkpt>
<trkpt lat="46.1993980407714844" lon="7.8301782608032227"><ele></ele><time>2014-10-15T22:44:25Z</time></trkpt>
<trkpt lat="46.1993789672851562" lon="7.8301610946655273"><ele></ele><time>2014-10-15T22:44:28Z</time></trkpt>
<trkpt lat="46.1993560791015625" lon="7.8301386833190918"><ele></ele><time>2014-10-15T22:44:31Z</time></trkpt>
<trkpt lat="46.1993370056152344" lon="7.8301315307617188"><ele></ele><time>2014-10-15T22:44:34Z</time></trkpt>
<trkpt lat="46.1992988586425781" lon="7.8301301002502441"><ele></ele><time>2014-10-15T22:44:37Z</time></trkpt>
<trkpt lat="46.1992835998535156" lon="7.8301000595092773"><ele></ele><time>2014-10-15T22:44:40Z</time></trkpt>
<trkpt lat="46.1992645263671875" lon="7.8300762176513672"><ele></ele><time>2014-10-15T22:44:43Z</time></trkpt>
<trkpt lat="46.1992454528808594" lon="7.8300614356994629"><ele></ele><time>2014-10-15T22:44:46Z</time></trkpt>
<trkpt lat="46.1992263793945312" lon="7.8300189971923828"><ele></ele><time>2014-10-15T22:44:49Z</time></trkpt>
<trkpt lat="46.1992111206054688" lon="7.8299865722656250"><ele></ele><time>2014-10-15T22:44:52Z</time></trkpt>
<trkpt lat="46.1991806030273438" lon="7.8299531936645508"><ele></ele><time>2014-10-15T22:44:55Z</time></trkpt>
<trkpt lat="46.1991424560546875" lon="7.8299365043640137"><ele></ele><time>2014-10-15T22:44:58Z</time></trkpt>
<trkpt lat="46.1991043090820312" lon="7.8299345970153809"><ele></ele><time>2014-10-15T22:45:1Z</time></trkpt>
<trkpt lat="46.1990699768066406" lon="7.8299169540405273"><ele></ele><time>2014-10-15T22:45:4Z</time></trkpt>
<trkpt lat="46.1990280151367188" lon="7.8299045562744141"><ele></ele><time>2014-10-15T22:45:7Z</time></trkpt>
<trkpt lat="46.1989860534667969" lon="7.8299083709716797"><ele></ele><time>2014-10-15T22:45:10Z</time></trkpt>
<trkpt lat="46.1989593505859375" lon="7.8298945426940918"><ele></ele><time>2014-10-15T22:45:13Z</time></trkpt>
<trkpt lat="46.1989059448242188" lon="7.8298859596252441"><ele></ele><time>2014-10-15T22:45:16Z</time></trkpt>
<trkpt lat="46.1988754272460938" lon="7.8298792839050293"><ele></ele><time>2014-10-15T22:45:19Z</time></trkpt>
<trkpt lat="46.1988296508789062" lon="7.8298559188842773"><ele></ele><time>2014-10-15T22:45:22Z</time></trkpt>
<trkpt lat="46.1987762451171875" lon="7.8298578262329102"><ele></ele><time>2014-10-15T22:45:25Z</time></trkpt>
<trkpt lat="46.1987419128417969" lon="7.8298335075378418"><ele></ele><time>2014-10-15T22:45:28Z</time></trkpt>
<trkpt lat="46.1987037658691406" lon="7.8297944068908691"><ele></ele><time>2014-10-15T22:45:31Z</time></trkpt>
<trkpt lat="46.1986694335937500" lon="7.8297834396362305"><ele></ele><time>2014-10-15T22:45:34Z</time></trkpt>
<trkpt lat="46.1986351013183594" lon="7.8297748565673828"><ele></ele><time>2014-10-15T22:45:37Z</time></trkpt>
<trkpt lat="46.1986083984375000" lon="7.8297462463378906"><ele></ele><time>2014-10-15T22:45:40Z</time></trkpt>
<trkpt lat="46.1985816955566406" lon="7.8297262191772461"><ele></ele><time>2014-10-15T22:45:43Z</time></trkpt>
<trkpt lat="46.1985626220703125" lon="7.8297119140625000"><ele></ele><time>2014-10-15T22:45:46Z</time></trkpt>
<trkpt lat="46.1985321044921875" lon="7.8297076225280762"><ele></ele><time>2014-10-15T22:45:49Z</time></trkpt>
<trkpt lat="46.1984901428222656" lon="7.8296899795532227"><ele></ele><time>2014-10-15T22:45:52Z</time></trkpt>
<trkpt lat="46.1984596252441406" lon="7.8296661376953125"><ele></ele><time>2014-10-15T22:45:55Z</time></trkpt>
<trkpt lat="46.1984176635742188" lon="7.8296446800231934"><ele></ele><time>2014-10-15T22:45:58Z</time></trkpt>
<trkpt lat="46.1983871459960938" lon="7.8296365737915039"><ele></ele><time>2014-10-15T22:46:1Z</time></trkpt>
<trkpt lat="46.1983375549316406" lon="7.8296332359313965"><ele></ele><time>2014-10-15T22:46:4Z</time></trkpt>
<trkpt lat="46.1983146667480469" lon="7.8296403884887695"><ele></ele><time>2014-10-15T22:46:7Z</time></trkpt>
<trkpt lat="46.1982994079589844" lon="7.8296117782592773"><ele></ele><time>2014-10-15T22:46:10Z</time></trkpt>
<trkpt lat="46.1982841491699219" lon="7.8295726776123047"><ele></ele><time>2014-10-15T22:46:13Z</time></trkpt>
<trkpt lat="46.1982574462890625" lon="7.8295454978942871"><ele></ele><time>2014-10-15T22:46:16Z</time></trkpt>
<trkpt lat="46.1982345581054688" lon="7.8295378684997559"><ele></ele><time>2014-10-15T22:46:19Z</time></trkpt>
<trkpt lat="46.1982269287109375" lon="7.8295130729675293"><ele></ele><time>2014-10-15T22:46:22Z</time></trkpt>
<trkpt lat="46.1982116699218750" lon="7.8294639587402344"><ele></ele><time>2014-10-15T22:46:25Z</time></trkpt>
<trkpt lat="46.1982002258300781" lon="7.8294386863708496"><ele></ele><time>2014-10-15T22:46:28Z</time></trkpt>
<trkpt lat="46.1981735229492188" lon="7.8293871879577637"><ele></ele><time>2014-10-15T22:46:31Z</time></trkpt>
<trkpt lat="46.1981391906738281" lon="7.8293428421020508"><ele></ele><time>2014-10-15T22:46:34Z</time></trkpt>
<trkpt lat="46.1981010437011719" lon="7.8292913436889648"><ele></ele><time>2014-10-15T22:46:37Z</time></trkpt>
<trkpt lat="46.1980934143066406" lon="7.8292489051818848"><ele></ele><time>2014-10-15T22:46:40Z</time></trkpt>
<trkpt lat="46.1980781555175781" lon="7.8292093276977539"><ele></ele><time>2014-10-15T22:46:43Z</time></trkpt>
<trkpt lat="46.1980590820312500" lon="7.8291726112365723"><ele></ele><time>2014-10-15T22:46:46Z</time></trkpt>
<trkpt lat="46.1980476379394531" lon="7.8291530609130859"><ele></ele><time>2014-10-15T22:46:49Z</time></trkpt>
<trkpt lat="46.1980133056640625" lon="7.8291373252868652"><ele></ele><time>2014-10-15T22:46:52Z</time></trkpt>
<trkpt lat="46.1979942321777344" lon="7.8291087150573730"><ele></ele><time>2014-10-15T22:46:55Z</time></trkpt>
<trkpt lat="46.1979789733886719" lon="7.8290662765502930"><ele></ele><time>2014-10-15T22:46:58Z</time></trkpt>
<trkpt lat="46.1979560852050781" lon="7.8290443420410156"><ele></ele><time>2014-10-15T22:47:1Z</time></trkpt>
<trkpt lat="46.1979217529296875" lon="7.8290104866027832"><ele></ele><time>2014-10-15T22:47:4Z</time></trkpt>
<trkpt lat="46.1978912353515625" lon="7.8289642333984375"><ele></ele><time>2014-10-15T22:47:7Z</time></trkpt>
<trkpt lat="46.1978759765625000" lon="7.8289384841918945"><ele></ele><time>2014-10-15T22:47:10Z</time></trkpt>
<trkpt lat="46.1978340148925781" lon="7.8289275169372559"><ele></ele><time>2014-10-15T22:47:13Z</time></trkpt>
<trkpt lat="46.1977920532226562" lon="7.8289299011230469"><ele></ele><time>2014-10-15T22:47:16Z</time></trkpt>
<trkpt lat="46.1977539062500000" lon="7.8289308547973633"><ele></ele><time>2014-10-15T22:47:19Z</time></trkpt>
<trkpt lat="46.1977195739746094" lon="7.8289194107055664"><ele></ele><time>2014-10-15T22:47:22Z</time></trkpt>
<trkpt lat="46.1977005004882812" lon="7.8289098739624023"><ele></ele><time>2014-10-15T22:47:25Z</time></trkpt>
<trkpt lat="46.1976776123046875" lon="7.8289098739624023"><ele></ele><time>2014-10-15T22:47:28Z</time></trkpt>
<trkpt lat="46.1976509094238281" lon="7.8289237022399902"><ele></ele><time>2014-10-15T22:47:31Z</time></trkpt>
<trkpt lat="46.1976394653320312" lon="7.8289365768432617"><ele></ele><time>2014-10-15T22:47:34Z</time></trkpt>
<trkpt lat="46.1976203918457031" lon="7.8289623260498047"><ele></ele><time>2014-10-15T22:47:37Z</time></trkpt>
<trkpt lat="46.1975860595703125" lon="7.8289718627929688"><ele></ele><time>2014-10-15T22:47:40Z</time></trkpt>
<trkpt lat="46.1975631713867188" lon="7.8289928436279297"><ele></ele><time>2014-10-15T22:47:43Z</time></trkpt>
<trkpt lat="46.1975326538085938" lon="7.8290028572082520"><ele></ele><time>2014-10-15T22:47:46Z</time></trkpt>
<trkpt lat="46.1974983215332031" lon="7.8290166854858398"><ele></ele><time>2014-10-15T22:47:49Z</time></trkpt>
<trkpt lat="46.1974754333496094" lon="7.8290457725524902"><ele></ele><time>2014-10-15T22:47:52Z</time></trkpt>
<trkpt lat="46.1974563598632812" lon="7.8290719985961914"><ele></ele><time>2014-10-15T22:47:55Z</time></trkpt>
<trkpt lat="46.1974411010742188" lon="7.8290891647338867"><ele></ele><time>2014-10-15T22:47:58Z</time></trkpt>
<trkpt lat="46.1974220275878906" lon="7.8291196823120117"><ele></ele><time>2014-10-15T22:48:1Z</time></trkpt>
<trkpt lat="46.1974067687988281" lon="7.8291487693786621"><ele></ele><time>2014-10-15T22:48:4Z</time></trkpt>
<trkpt lat="46.1973991394042969" lon="7.8291664123535156"><ele></ele><time>2014-10-15T22:48:7Z</time></trkpt>
<trkpt lat="46.1973838806152344" lon="7.8291835784912109"><ele></ele><time>2014-10-15T22:48:10Z</time></trkpt>
<trkpt lat="46.1973686218261719" lon="7.8291883468627930"><ele></ele><time>2014-10-15T22:48:13Z</time></trkpt>
<trkpt lat="46.1973533630371094" lon="7.8292021751403809"><ele></ele><time>2014-10-15T22:48:16Z</time></trkpt>
<trkpt lat="46.1973304748535156" lon="7.8292236328125000"><ele></ele><time>2014-10-15T22:48:19Z</time></trkpt>
<trkpt lat="46.1973037719726562" lon="7.8292522430419922"><ele></ele><time>2014-10-15T22:48:22Z</time></trkpt>
<trkpt lat="46.1972732543945312" lon="7.8292999267578125"><ele></ele><time>2014-10-15T22:48:25Z</time></trkpt>
<trkpt lat="46.1972503662109375" lon="7.8293333053588867"><ele></ele><time>2014-10-15T22:48:28Z</time></trkpt>
<trkpt lat="46.1972274780273438" lon="7.8293642997741699"><ele></ele><time>2014-10-15T22:48:31Z</time></trkpt>
<trkpt lat="46.1971817016601562" lon="7.8293890953063965"><ele></ele><time>2014-10-15T22:48:34Z</time></trkpt>
<trkpt lat="46.1971511840820312" lon="7.8293957710266113"><ele></ele><time>2014-10-15T22:48:37Z</time></trkpt>
<trkpt lat="46.1971054077148438" lon="7.8294072151184082"><ele></ele><time>2014-10-15T22:48:40Z</time></trkpt>
<trkpt lat="46.1970672607421875" lon="7.8293957710266113"><ele></ele><time>2014-10-15T22:48:43Z</time></trkpt>
<trkpt lat="46.1970405578613281" lon="7.8293676376342773"><ele></ele><time>2014-10-15T22:48:46Z</time></trkpt>
<trkpt lat="46.1970214843750000" lon="7.8293642997741699"><ele></ele><time>2014-10-15T22:48:49Z</time></trkpt>
<trkpt lat="46.1969985961914062" lon="7.8293609619140625"><ele></ele><time>2014-10-15T22:48:52Z</time></trkpt>
<trkpt lat="46.1969871520996094" lon="7.8293118476867676"><ele></ele><time>2014-10-15T22:48:55Z</time></trkpt>
<trkpt lat="46.1969680786132812" lon="7.8292689323425293"><ele></ele><time>2014-10-15T22:48:58Z</time></trkpt>
<trkpt lat="46.1969528198242188" lon="7.8292398452758789"><ele></ele><time>2014-10-15T22:49:1Z</time></trkpt>
<trkpt lat="46.1969337463378906" lon="7.8292088508605957"><ele></ele><time>2014-10-15T22:49:4Z</time></trkpt>
<trkpt lat="46.1968917846679688" lon="7.8291788101196289"><ele></ele><time>2014-10-15T22:49:7Z</time></trkpt>
<trkpt lat="46.1968421936035156" lon="7.8291840553283691"><ele></ele><time>2014-10-15T22:49:10Z</time></trkpt>
<trkpt lat="46.1968193054199219" lon="7.8291678428649902"><ele></ele><time>2014-10-15T22:49:13Z</time></trkpt>
<trkpt lat="46.1968002319335938" lon="7.8291363716125488"><ele></ele><time>2014-10-15T22:49:16Z</time></trkpt>
<trkpt lat="46.1967620849609375" lon="7.8290948867797852"><ele></ele><time>2014-10-15T22:49:19Z</time></trkpt>
<trkpt lat="46.1967391967773438" lon="7.8290762901306152"><ele></ele><time>2014-10-15T22:49:22Z</time></trkpt>
<trkpt lat="46.1967010498046875" lon="7.8290519714355469"><ele></ele><time>2014-10-15T22:49:25Z</time></trkpt>
<trkpt lat="46.1966667175292969" lon="7.8290338516235352"><ele></ele><time>2014-10-15T22:49:28Z</time></trkpt>
<trkpt lat="46.1966323852539062" lon="7.8290033340454102"><ele></ele><time>2014-10-15T22:49:31Z</time></trkpt>
<trkpt lat="46.1965980529785156" lon="7.8289842605590820"><ele></ele><time>2014-10-15T22:49:34Z</time></trkpt>
<trkpt lat="46.1965637207031250" lon="7.8289904594421387"><ele></ele><time>2014-10-15T22:49:37Z</time></trkpt>
<trkpt lat="46.1965255737304688" lon="7.8290286064147949"><ele></ele><time>2014-10-15T22:49:40Z</time></trkpt>
<trkpt lat="46.1965026855468750" lon="7.8290548324584961"><ele></ele><time>2014-10-15T22:49:43Z</time></trkpt>
<trkpt lat="46.1964759826660156" lon="7.8290638923645020"><ele></ele><time>2014-10-15T22:49:46Z</time></trkpt>
<trkpt lat="46.1964416503906250" lon="7.8290677070617676"><ele></ele><time>2014-10-15T22:49:49Z</time></trkpt>
<trkpt lat="46.1964035034179688" lon="7.8290758132934570"><ele></ele><time>2014-10-15T22:49:52Z</time></trkpt>
<trkpt lat="46.1963691711425781" lon="7.8290905952453613"><ele></ele><time>2014-10-15T22:49:55Z</time></trkpt>
<trkpt lat="46.1963310241699219" lon="7.8290901184082031"><ele></ele><time>2014-10-15T22:49:58Z</time></trkpt>
<trkpt lat="46.1963043212890625" lon="7.8290867805480957"><ele></ele><time>2014-10-15T22:50:1Z</time></trkpt>
<trkpt lat="46.1962699890136719" lon="7.8290886878967285"><ele></ele><time>2014-10-15T22:50:4Z</time></trkpt>
<trkpt lat="46.1962471008300781" lon="7.8290977478027344"><ele></ele><time>2014-10-15T22:50:7Z</time></trkpt>
<trkpt lat="46.1962242126464844" lon="7.8291034698486328"><ele></ele><time>2014-10-15T22:50:10Z</time></trkpt>
<trkpt lat="46.1961860656738281" lon="7.8291053771972656"><ele></ele><time>2014-10-15T22:50:13Z</time></trkpt>
<trkpt lat="46.1961593627929688" lon="7.8291110992431641"><ele></ele><time>2014-10-15T22:50:16Z</time></trkpt>
<trkpt lat="46.1961326599121094" lon="7.8291177749633789"><ele></ele><time>2014-10-15T22:50:19Z</time></trkpt>
<trkpt lat="46.1960945129394531" lon="7.8291234970092773"><ele></ele><time>2014-10-15T22:50:22Z</time></trkpt>
<trkpt lat="46.1960525512695312" lon="7.8291316032409668"><ele></ele><time>2014-10-15T22:50:25Z</time></trkpt>
<trkpt lat="46.1960296630859375" lon="7.8291277885437012"><ele></ele><time>2014-10-15T22:50:28Z</time></trkpt>
<trkpt lat="46.1959915161132812" lon="7.8291263580322266"><ele></ele><time>2014-10-15T22:50:31Z</time></trkpt>
<trkpt lat="46.1959648132324219" lon="7.8291277885437012"><ele></ele><time>2014-10-15T22:50:34Z</time></trkpt>
<trkpt lat="46.1959457397460938" lon="7.8291296958923340"><ele></ele><time>2014-10-15T22:50:37Z</time></trkpt>
<trkpt lat="46.1959075927734375" lon="7.8291378021240234"><ele></ele><time>2014-10-15T22:50:40Z</time></trkpt>
<trkpt lat="46.1958656311035156" lon="7.8291544914245605"><ele></ele><time>2014-10-15T22:50:43Z</time></trkpt>
<trkpt lat="46.1958312988281250" lon="7.8291745185852051"><ele></ele><time>2014-10-15T22:50:46Z</time></trkpt>
<trkpt lat="46.1958007812500000" lon="7.8291864395141602"><ele></ele><time>2014-10-15T22:50:49Z</time></trkpt>
<trkpt lat="46.1957664489746094" lon="7.8291945457458496"><ele></ele><time>2014-10-15T22:50:52Z</time></trkpt>
<trkpt lat="46.1957435607910156" lon="7.8292031288146973"><ele></ele><time>2014-10-15T22:50:55Z</time></trkpt>
<trkpt lat="46.1957206726074219" lon="7.8292069435119629"><ele></ele><time>2014-10-15T22:50:58Z</time></trkpt>
<trkpt lat="46.1956787109375000" lon="7.8292040824890137"><ele></ele><time>2014-10-15T22:51:1Z</time></trkpt>
<trkpt lat="46.1956405639648438" lon="7.8292036056518555"><ele></ele><time>2014-10-15T22:51:4Z</time></trkpt>
<trkpt lat="46.1956138610839844" lon="7.8291916847229004"><ele></ele><time>2014-10-15T22:51:7Z</time></trkpt>
<trkpt lat="46.1955757141113281" lon="7.8291921615600586"><ele></ele><time>2014-10-15T22:51:10Z</time></trkpt>
<trkpt lat="46.1955375671386719" lon="7.8291964530944824"><ele></ele><time>2014-10-15T22:51:13Z</time></trkpt>
<trkpt lat="46.1955146789550781" lon="7.8292007446289062"><ele></ele><time>2014-10-15T22:51:16Z</time></trkpt>
<trkpt lat="46.1954841613769531" lon="7.8292002677917480"><ele></ele><time>2014-10-15T22:51:19Z</time></trkpt>
<trkpt lat="46.1954650878906250" lon="7.8291940689086914"><ele></ele><time>2014-10-15T22:51:22Z</time></trkpt>
<trkpt lat="46.1954345703125000" lon="7.8291954994201660"><ele></ele><time>2014-10-15T22:51:25Z</time></trkpt>
<trkpt lat="46.1954040527343750" lon="7.8292021751403809"><ele></ele><time>2014-10-15T22:51:28Z</time></trkpt>
<trkpt lat="46.1953849792480469" lon="7.8292078971862793"><ele></ele><time>2014-10-15T22:51:31Z</time></trkpt>
<trkpt lat="46.1953620910644531" lon="7.8292050361633301"><ele></ele><time>2014-10-15T22:51:34Z</time></trkpt>
<trkpt lat="46.1953277587890625" lon="7.8291978836059570"><ele></ele><time>2014-10-15T22:51:37Z</time></trkpt>
<trkpt lat="46.1953048706054688" lon="7.8291931152343750"><ele></ele><time>2014-10-15T22:51:40Z</time></trkpt>
<trkpt lat="46.1952743530273438" lon="7.8291764259338379"><ele></ele><time>2014-10-15T22:51:43Z</time></trkpt>
<trkpt lat="46.1952514648437500" lon="7.8291683197021484"><ele></ele><time>2014-10-15T22:51:46Z</time></trkpt>
<trkpt lat="46.1952171325683594" lon="7.8291597366333008"><ele></ele><time>2014-10-15T22:51:49Z</time></trkpt>
<trkpt lat="46.1951980590820312" lon="7.8291511535644531"><ele></ele><time>2014-10-15T22:51:52Z</time></trkpt>
<trkpt lat="46.1951637268066406" lon="7.8291478157043457"><ele></ele><time>2014-10-15T22:51:55Z</time></trkpt>
<trkpt lat="46.1951446533203125" lon="7.8291459083557129"><ele></ele><time>2014-10-15T22:51:58Z</time></trkpt>
<trkpt lat="46.1951141357421875" lon="7.8291373252868652"><ele></ele><time>2014-10-15T22:52:1Z</time></trkpt>
<trkpt lat="46.1950836181640625" lon="7.8291239738464355"><ele></ele><time>2014-10-15T22:52:4Z</time></trkpt>
<trkpt lat="46.1950607299804688" lon="7.8291163444519043"><ele></ele><time>2014-10-15T22:52:7Z</time></trkpt>
<trkpt lat="46.1950263977050781" lon="7.8291049003601074"><ele></ele><time>2014-10-15T22:52:10Z</time></trkpt>
<trkpt lat="46.1950035095214844" lon="7.8290953636169434"><ele></ele><time>2014-10-15T22:52:13Z</time></trkpt>
<trkpt lat="46.1949729919433594" lon="7.8290762901306152"><ele></ele><time>2014-10-15T22:52:16Z</time></trkpt>
<trkpt lat="46.1949462890625000" lon="7.8290648460388184"><ele></ele><time>2014-10-15T22:52:19Z</time></trkpt>
<trkpt lat="46.1949195861816406" lon="7.8290581703186035"><ele></ele><time>2014-10-15T22:52:22Z</time></trkpt>
<trkpt lat="46.1948852539062500" lon="7.8290491104125977"><ele></ele><time>2014-10-15T22:52:25Z</time></trkpt>
<trkpt lat="46.1948623657226562" lon="7.8290419578552246"><ele></ele><time>2014-10-15T22:52:28Z</time></trkpt>
<trkpt lat="46.1948280334472656" lon="7.8290357589721680"><ele></ele><time>2014-10-15T22:52:31Z</time></trkpt>
<trkpt lat="46.1948089599609375" lon="7.8290281295776367"><ele></ele><time>2014-10-15T22:52:34Z</time></trkpt>
<trkpt lat="46.1947784423828125" lon="7.8290114402770996"><ele></ele><time>2014-10-15T22:52:37Z</time></trkpt>
<trkpt lat="46.1947402954101562" lon="7.8290061950683594"><ele></ele><time>2014-10-15T22:52:40Z</time></trkpt>
<trkpt lat="46.1947059631347656" lon="7.8290009498596191"><ele></ele><time>2014-10-15T22:52:43Z</time></trkpt>
<trkpt lat="46.1946716308593750" lon="7.8289866447448730"><ele></ele><time>2014-10-15T22:52:46Z</time></trkpt>
<trkpt lat="46.1946411132812500" lon="7.8289728164672852"><ele></ele><time>2014-10-15T22:52:49Z</time></trkpt>
<trkpt lat="46.1946105957031250" lon="7.8289623260498047"><ele></ele><time>2014-10-15T22:52:52Z</time></trkpt>
<trkpt lat="46.1945953369140625" lon="7.8289527893066406"><ele></ele><time>2014-10-15T22:52:55Z</time></trkpt>
<trkpt lat="46.1945686340332031" lon="7.8289422988891602"><ele></ele><time>2014-10-15T22:52:58Z</time></trkpt>
<trkpt lat="46.1945457458496094" lon="7.8289361000061035"><ele></ele><time>2014-10-15T22:53:1Z</time></trkpt>
<trkpt lat="46.1945152282714844" lon="7.8289227485656738"><ele></ele><time>2014-10-15T22:53:4Z</time></trkpt>
<trkpt lat="46.1944808959960938" lon="7.8289041519165039"><ele></ele><time>2014-10-15T22:53:7Z</time></trkpt>
<trkpt lat="46.1944465637207031" lon="7.8288922309875488"><ele></ele><time>2014-10-15T22:53:10Z</time></trkpt>
<trkpt lat="46.1944236755371094" lon="7.8288831710815430"><ele></ele><time>2014-10-15T22:53:13Z</time></trkpt>
<trkpt lat="46.1944046020507812" lon="7.8288779258728027"><ele></ele><time>2014-10-15T22:53:16Z</time></trkpt>
<trkpt lat="46.1943702697753906" lon="7.8288631439208984"><ele></ele><time>2014-10-15T22:53:19Z</time></trkpt>
<trkpt lat="46.1943473815917969" lon="7.8288249969482422"><ele></ele><time>2014-10-15T22:53:22Z</time></trkpt>
<trkpt lat="46.1943283081054688" lon="7.8287930488586426"><ele></ele><time>2014-10-15T22:53:25Z</time></trkpt>
<trkpt lat="46.1943168640136719" lon="7.8287734985351562"><ele></ele><time>2014-10-15T22:53:28Z</time></trkpt>
<trkpt lat="46.1942939758300781" lon="7.8287515640258789"><ele></ele><time>2014-10-15T22:53:31Z</time></trkpt>
<trkpt lat="46.1942672729492188" lon="7.8287258148193359"><ele></ele><time>2014-10-15T22:53:34Z</time></trkpt>
<trkpt lat="46.1942558288574219" lon="7.8286991119384766"><ele></ele><time>2014-10-15T22:53:37Z</time></trkpt>
<trkpt lat="46.1942253112792969" lon="7.8286752700805664"><ele></ele><time>2014-10-15T22:53:40Z</time></trkpt>
<trkpt lat="46.1941947937011719" lon="7.8286547660827637"><ele></ele><time>2014-10-15T22:53:43Z</time></trkpt>
<trkpt lat="46.1941871643066406" lon="7.8286280632019043"><ele></ele><time>2014-10-15T22:53:46Z</time></trkpt>
<trkpt lat="46.1941719055175781" lon="7.8286104202270508"><ele></ele><time>2014-10-15T22:53:49Z</time></trkpt>
<trkpt lat="46.1941413879394531" lon="7.8285884857177734"><ele></ele><time>2014-10-15T22:53:52Z</time></trkpt>
<trkpt lat="46.1941299438476562" lon="7.8285646438598633"><ele></ele><time>2014-10-15T22:53:55Z</time></trkpt>
<trkpt lat="46.1941108703613281" lon="7.8285231590270996"><ele></ele><time>2014-10-15T22:53:58Z</time></trkpt>
<trkpt lat="46.1940917968750000" lon="7.8284926414489746"><ele></ele><time>2014-10-15T22:54:1Z</time></trkpt>
<trkpt lat="46.1940689086914062" lon="7.8284659385681152"><ele></ele><time>2014-10-15T22:54:4Z</time></trkpt>
<trkpt lat="46.1940383911132812" lon="7.8284444808959961"><ele></ele><time>2014-10-15T22:54:7Z</time></trkpt>
<trkpt lat="46.1940193176269531" lon="7.8284249305725098"><ele></ele><time>2014-10-15T22:54:10Z</time></trkpt>
<trkpt lat="46.1939888000488281" lon="7.8283972740173340"><ele></ele><time>2014-10-15T22:54:13Z</time></trkpt>
<trkpt lat="46.1939735412597656" lon="7.8283767700195312"><ele></ele><time>2014-10-15T22:54:16Z</time></trkpt>
<trkpt lat="46.1939430236816406" lon="7.8283543586730957"><ele></ele><time>2014-10-15T22:54:19Z</time></trkpt>
<trkpt lat="46.1939239501953125" lon="7.8283371925354004"><ele></ele><time>2014-10-15T22:54:22Z</time></trkpt>
<trkpt lat="46.1938934326171875" lon="7.8283166885375977"><ele></ele><time>2014-10-15T22:54:25Z</time></trkpt>
<trkpt lat="46.1938552856445312" lon="7.8282952308654785"><ele></ele><time>2014-10-15T22:54:28Z</time></trkpt>
<trkpt lat="46.1938171386718750" lon="7.8282732963562012"><ele></ele><time>2014-10-15T22:54:31Z</time></trkpt>
<trkpt lat="46.1937904357910156" lon="7.8282570838928223"><ele></ele><time>2014-10-15T22:54:34Z</time></trkpt>
<trkpt lat="46.1937522888183594" lon="7.8282318115234375"><ele></ele><time>2014-10-15T22:54:37Z</time></trkpt>
<trkpt lat="46.1937294006347656" lon="7.8282146453857422"><ele></ele><time>2014-10-15T22:54:40Z</time></trkpt>
<trkpt lat="46.1936912536621094" lon="7.8281979560852051"><ele></ele><time>2014-10-15T22:54:43Z</time></trkpt>
<trkpt lat="46.1936683654785156" lon="7.8281903266906738"><ele></ele><time>2014-10-15T22:54:46Z</time></trkpt>
<trkpt lat="46.1936454772949219" lon="7.8281850814819336"><ele></ele><time>2014-10-15T22:54:49Z</time></trkpt>
<trkpt lat="46.1936073303222656" lon="7.8281798362731934"><ele></ele><time>2014-10-15T22:54:52Z</time></trkpt>
<trkpt lat="46.1935806274414062" lon="7.8281798362731934"><ele></ele><time>2014-10-15T22:54:55Z</time></trkpt>
<trkpt lat="46.1935424804687500" lon="7.8281812667846680"><ele></ele><time>2014-10-15T22:54:58Z</time></trkpt>
<trkpt lat="46.1935157775878906" lon="7.8281788825988770"><ele></ele><time>2014-10-15T22:55:1Z</time></trkpt>
<trkpt lat="46.1934776306152344" lon="7.8281764984130859"><ele></ele><time>2014-10-15T22:55:4Z</time></trkpt>
<trkpt lat="46.1934509277343750" lon="7.8281760215759277"><ele></ele><time>2014-10-15T22:55:7Z</time></trkpt>
<trkpt lat="46.1934089660644531" lon="7.8281793594360352"><ele></ele><time>2014-10-15T22:55:10Z</time></trkpt>
<trkpt lat="46.1933708190917969" lon="7.8281798362731934"><ele></ele><time>2014-10-15T22:55:13Z</time></trkpt>
<trkpt lat="46.1933441162109375" lon="7.8281846046447754"><ele></ele><time>2014-10-15T22:55:16Z</time></trkpt>
<trkpt lat="46.1933135986328125" lon="7.8281846046447754"><ele></ele><time>2014-10-15T22:55:19Z</time></trkpt>
<trkpt lat="46.1932716369628906" lon="7.8281779289245605"><ele></ele><time>2014-10-15T22:55:22Z</time></trkpt>
<trkpt lat="46.1932258605957031" lon="7.8281688690185547"><ele></ele><time>2014-10-15T22:55:25Z</time></trkpt>
<trkpt lat="46.1931800842285156" lon="7.8281660079956055"><ele></ele><time>2014-10-15T22:55:28Z</time></trkpt>
<trkpt lat="46.1931533813476562" lon="7.8281555175781250"><ele></ele><time>2014-10-15T22:55:31Z</time></trkpt>
<trkpt lat="46.1931266784667969" lon="7.8281512260437012"><ele></ele><time>2014-10-15T22:55:34Z</time></trkpt>
<trkpt lat="46.1930847167968750" lon="7.8281373977661133"><ele></ele><time>2014-10-15T22:55:37Z</time></trkpt>
<trkpt lat="46.1930465698242188" lon="7.8281097412109375"><ele></ele><time>2014-10-15T22:55:40Z</time></trkpt>
<trkpt lat="46.1930236816406250" lon="7.8280839920043945"><ele></ele><time>2014-10-15T22:55:43Z</time></trkpt>
<trkpt lat="46.1930007934570312" lon="7.8280391693115234"><ele></ele><time>2014-10-15T22:55:46Z</time></trkpt>
<trkpt lat="46.1929893493652344" lon="7.8280096054077148"><ele></ele><time>2014-10-15T22:55:49Z</time></trkpt>
<trkpt lat="46.1929702758789062" lon="7.8279862403869629"><ele></ele><time>2014-10-15T22:55:52Z</time></trkpt>
<trkpt lat="46.1929321289062500" lon="7.8279666900634766"><ele></ele><time>2014-10-15T22:55:55Z</time></trkpt>
<trkpt lat="46.1928901672363281" lon="7.8279690742492676"><ele></ele><time>2014-10-15T22:55:58Z</time></trkpt>
<trkpt lat="46.1928558349609375" lon="7.8279638290405273"><ele></ele><time>2014-10-15T22:56:1Z</time></trkpt>
<trkpt lat="46.1928329467773438" lon="7.8279566764831543"><ele></ele><time>2014-10-15T22:56:4Z</time></trkpt>
<trkpt lat="46.1928062438964844" lon="7.8279509544372559"><ele></ele><time>2014-10-15T22:56:7Z</time></trkpt>
<trkpt lat="46.1927833557128906" lon="7.8279485702514648"><ele></ele><time>2014-10-15T22:56:10Z</time></trkpt>
<trkpt lat="46.1927375793457031" lon="7.8279371261596680"><ele></ele><time>2014-10-15T22:56:13Z</time></trkpt>
<trkpt lat="46.1927070617675781" lon="7.8279237747192383"><ele></ele><time>2014-10-15T22:56:16Z</time></trkpt>
<trkpt lat="46.1926651000976562" lon="7.8278913497924805"><ele></ele><time>2014-10-15T22:56:19Z</time></trkpt>
<trkpt lat="46.1926345825195312" lon="7.8278703689575195"><ele></ele><time>2014-10-15T22:56:22Z</time></trkpt>
<trkpt lat="46.1925926208496094" lon="7.8278326988220215"><ele></ele><time>2014-10-15T22:56:25Z</time></trkpt>
<trkpt lat="46.1925735473632812" lon="7.8277983665466309"><ele></ele><time>2014-10-15T22:56:28Z</time></trkpt>
<trkpt lat="46.1925392150878906" lon="7.8277683258056641"><ele></ele><time>2014-10-15T22:56:31Z</time></trkpt>
<trkpt lat="46.1924972534179688" lon="7.8277635574340820"><ele></ele><time>2014-10-15T22:56:34Z</time></trkpt>
<trkpt lat="46.1924667358398438" lon="7.8277564048767090"><ele></ele><time>2014-10-15T22:56:37Z</time></trkpt>
<trkpt lat="46.1924400329589844" lon="7.8277592658996582"><ele></ele><time>2014-10-15T22:56:40Z</time></trkpt>
<trkpt lat="46.1924095153808594" lon="7.8277597427368164"><ele></ele><time>2014-10-15T22:56:43Z</time></trkpt>
<trkpt lat="46.1923789978027344" lon="7.8277573585510254"><ele></ele><time>2014-10-15T22:56:46Z</time></trkpt>
<trkpt lat="46.1923408508300781" lon="7.8277611732482910"><ele></ele><time>2014-10-15T22:56:49Z</time></trkpt>
<trkpt lat="46.1923141479492188" lon="7.8277750015258789"><ele></ele><time>2014-10-15T22:56:52Z</time></trkpt>
<trkpt lat="46.1922874450683594" lon="7.8277978897094727"><ele></ele><time>2014-10-15T22:56:55Z</time></trkpt>
<trkpt lat="46.1922492980957031" lon="7.8278274536132812"><ele></ele><time>2014-10-15T22:56:58Z</time></trkpt>
<trkpt lat="46.1922035217285156" lon="7.8278336524963379"><ele></ele><time>2014-10-15T22:57:1Z</time></trkpt>
<trkpt lat="46.1921653747558594" lon="7.8278346061706543"><ele></ele><time>2014-10-15T22:57:4Z</time></trkpt>
<trkpt lat="46.1921157836914062" lon="7.8278303146362305"><ele></ele><time>2014-10-15T22:57:7Z</time></trkpt>
<trkpt lat="46.1921272277832031" lon="7.8278365135192871"><ele></ele><time>2014-10-15T22:57:10Z</time></trkpt>
<trkpt lat="46.1921615600585938" lon="7.8278665542602539"><ele></ele><time>2014-10-15T22:57:13Z</time></trkpt>
<trkpt lat="46.1922264099121094" lon="7.8278465270996094"><ele></ele><time>2014-10-15T22:57:16Z</time></trkpt>
<trkpt lat="46.1922760009765625" lon="7.8277997970581055"><ele></ele><time>2014-10-15T22:57:19Z</time></trkpt>
<trkpt lat="46.1923599243164062" lon="7.8277764320373535"><ele></ele><time>2014-10-15T22:57:22Z</time></trkpt>
<trkpt lat="46.1924781799316406" lon="7.8278017044067383"><ele></ele><time>2014-10-15T22:57:25Z</time></trkpt>
<trkpt lat="46.1925506591796875" lon="7.8278017044067383"><ele></ele><time>2014-10-15T22:57:28Z</time></trkpt>
<trkpt lat="46.1926422119140625" lon="7.8278460502624512"><ele></ele><time>2014-10-15T22:57:31Z</time></trkpt>
<trkpt lat="46.1927223205566406" lon="7.8279294967651367"><ele></ele><time>2014-10-15T22:57:34Z</time></trkpt>
<trkpt lat="46.1928138732910156" lon="7.8279561996459961"><ele></ele><time>2014-10-15T22:57:37Z</time></trkpt>
<trkpt lat="46.1928749084472656" lon="7.8279638290405273"><ele></ele><time>2014-10-15T22:57:40Z</time></trkpt>
<trkpt lat="46.1929512023925781" lon="7.8279571533203125"><ele></ele><time>2014-10-15T22:57:43Z</time></trkpt>
<trkpt lat="46.1930198669433594" lon="7.8279695510864258"><ele></ele><time>2014-10-15T22:57:46Z</time></trkpt>
<trkpt lat="46.1930427551269531" lon="7.8280830383300781"><ele></ele><time>2014-10-15T22:57:49Z</time></trkpt>
<trkpt lat="46.1930694580078125" lon="7.8281846046447754"><ele></ele><time>2014-10-15T22:57:52Z</time></trkpt>
<trkpt lat="46.1931037902832031" lon="7.8282241821289062"><ele></ele><time>2014-10-15T22:57:55Z</time></trkpt>
<trkpt lat="46.1931533813476562" lon="7.8282194137573242"><ele></ele><time>2014-10-15T22:57:58Z</time></trkpt>
<trkpt lat="46.1932258605957031" lon="7.8282098770141602"><ele></ele><time>2014-10-15T22:58:1Z</time></trkpt>
<trkpt lat="46.1932907104492188" lon="7.8282008171081543"><ele></ele><time>2014-10-15T22:58:4Z</time></trkpt>
<trkpt lat="46.1932830810546875" lon="7.8282413482666016"><ele></ele><time>2014-10-15T22:58:7Z</time></trkpt>
<trkpt lat="46.1932296752929688" lon="7.8282070159912109"><ele></ele><time>2014-10-15T22:58:10Z</time></trkpt>
<trkpt lat="46.1931686401367188" lon="7.8281941413879395"><ele></ele><time>2014-10-15T22:58:13Z</time></trkpt>
<trkpt lat="46.1930885314941406" lon="7.8281888961791992"><ele></ele><time>2014-10-15T22:58:16Z</time></trkpt>
<trkpt lat="46.1930580139160156" lon="7.8281726837158203"><ele></ele><time>2014-10-15T22:58:19Z</time></trkpt>
<trkpt lat="46.1930274963378906" lon="7.8281245231628418"><ele></ele><time>2014-10-15T22:58:22Z</time></trkpt>
<trkpt lat="46.1930046081542969" lon="7.8280835151672363"><ele></ele><time>2014-10-15T22:58:25Z</time></trkpt>
<trkpt lat="46.1929779052734375" lon="7.8280296325683594"><ele></ele><time>2014-10-15T22:58:28Z</time></trkpt>
<trkpt lat="46.1929588317871094" lon="7.8279948234558105"><ele></ele><time>2014-10-15T22:58:31Z</time></trkpt>
<trkpt lat="46.1929130554199219" lon="7.8279638290405273"><ele></ele><time>2014-10-15T22:58:34Z</time></trkpt>
<trkpt lat="46.1928634643554688" lon="7.8279566764831543"><ele></ele><time>2014-10-15T22:58:37Z</time></trkpt>
<trkpt lat="46.1928329467773438" lon="7.8279542922973633"><ele></ele><time>2014-10-15T22:58:40Z</time></trkpt>
<trkpt lat="46.1927871704101562" lon="7.8279485702514648"><ele></ele><time>2014-10-15T22:58:43Z</time></trkpt>
<trkpt lat="46.1927528381347656" lon="7.8279485702514648"><ele></ele><time>2014-10-15T22:58:46Z</time></trkpt>
<trkpt lat="46.1927032470703125" lon="7.8279390335083008"><ele></ele><time>2014-10-15T22:58:49Z</time></trkpt>
<trkpt lat="46.1926536560058594" lon="7.8279099464416504"><ele></ele><time>2014-10-15T22:58:52Z</time></trkpt>
<trkpt lat="46.1926231384277344" lon="7.8278799057006836"><ele></ele><time>2014-10-15T22:58:55Z</time></trkpt>
<trkpt lat="46.1925926208496094" lon="7.8278532028198242"><ele></ele><time>2014-10-15T22:58:58Z</time></trkpt>
<trkpt lat="46.1925544738769531" lon="7.8278088569641113"><ele></ele><time>2014-10-15T22:59:1Z</time></trkpt>
<trkpt lat="46.1925315856933594" lon="7.8277831077575684"><ele></ele><time>2014-10-15T22:59:4Z</time></trkpt>
<trkpt lat="46.1924896240234375" lon="7.8277769088745117"><ele></ele><time>2014-10-15T22:59:7Z</time></trkpt>
<trkpt lat="46.1924591064453125" lon="7.8277764320373535"><ele></ele><time>2014-10-15T22:59:10Z</time></trkpt>
<trkpt lat="46.1924324035644531" lon="7.8277769088745117"><ele></ele><time>2014-10-15T22:59:13Z</time></trkpt>
<trkpt lat="46.1923980712890625" lon="7.8277735710144043"><ele></ele><time>2014-10-15T22:59:16Z</time></trkpt>
<trkpt lat="46.1923675537109375" lon="7.8277745246887207"><ele></ele><time>2014-10-15T22:59:19Z</time></trkpt>
<trkpt lat="46.1923370361328125" lon="7.8277750015258789"><ele></ele><time>2014-10-15T22:59:22Z</time></trkpt>
<trkpt lat="46.1922760009765625" lon="7.8278021812438965"><ele></ele><time>2014-10-15T22:59:25Z</time></trkpt>
<trkpt lat="46.1922340393066406" lon="7.8278450965881348"><ele></ele><time>2014-10-15T22:59:28Z</time></trkpt>
<trkpt lat="46.1921768188476562" lon="7.8278846740722656"><ele></ele><time>2014-10-15T22:59:31Z</time></trkpt>
<trkpt lat="46.1921386718750000" lon="7.8278679847717285"><ele></ele><time>2014-10-15T22:59:34Z</time></trkpt>
<trkpt lat="46.1920852661132812" lon="7.8278369903564453"><ele></ele><time>2014-10-15T22:59:37Z</time></trkpt>
<trkpt lat="46.1920471191406250" lon="7.8278417587280273"><ele></ele><time>2014-10-15T22:59:40Z</time></trkpt>
<trkpt lat="46.1920127868652344" lon="7.8278512954711914"><ele></ele><time>2014-10-15T22:59:43Z</time></trkpt>
<trkpt lat="46.1919708251953125" lon="7.8278727531433105"><ele></ele><time>2014-10-15T22:59:46Z</time></trkpt>
<trkpt lat="46.1919288635253906" lon="7.8278765678405762"><ele></ele><time>2014-10-15T22:59:49Z</time></trkpt>
<trkpt lat="46.1918830871582031" lon="7.8278441429138184"><ele></ele><time>2014-10-15T22:59:52Z</time></trkpt>
<trkpt lat="46.1918411254882812" lon="7.8277673721313477"><ele></ele><time>2014-10-15T22:59:55Z</time></trkpt>
<trkpt lat="46.1917724609375000" lon="7.8276276588439941"><ele></ele><time>2014-10-15T22:59:58Z</time></trkpt>
<trkpt lat="46.1916694641113281" lon="7.8274374008178711"><ele></ele><time>2014-10-15T23:0:1Z</time></trkpt>
<trkpt lat="46.1915359497070312" lon="7.8272652626037598"><ele></ele><time>2014-10-15T23:0:4Z</time></trkpt>
<trkpt lat="46.1913909912109375" lon="7.8272414207458496"><ele></ele><time>2014-10-15T23:0:7Z</time></trkpt>
<trkpt lat="46.1913185119628906" lon="7.8272032737731934"><ele></ele><time>2014-10-15T23:0:10Z</time></trkpt>
<trkpt lat="46.1912345886230469" lon="7.8271403312683105"><ele></ele><time>2014-10-15T23:0:13Z</time></trkpt>
<trkpt lat="46.1911659240722656" lon="7.8270802497863770"><ele></ele><time>2014-10-15T23:0:16Z</time></trkpt>
<trkpt lat="46.1911201477050781" lon="7.8270454406738281"><ele></ele><time>2014-10-15T23:0:19Z</time></trkpt>
<trkpt lat="46.1910476684570312" lon="7.8269934654235840"><ele></ele><time>2014-10-15T23:0:22Z</time></trkpt>
<trkpt lat="46.1910057067871094" lon="7.8269577026367188"><ele></ele><time>2014-10-15T23:0:25Z</time></trkpt>
<trkpt lat="46.1909408569335938" lon="7.8269066810607910"><ele></ele><time>2014-10-15T23:0:28Z</time></trkpt>
<trkpt lat="46.1908836364746094" lon="7.8268508911132812"><ele></ele><time>2014-10-15T23:0:31Z</time></trkpt>
<trkpt lat="46.1908416748046875" lon="7.8268151283264160"><ele></ele><time>2014-10-15T23:0:34Z</time></trkpt>
<trkpt lat="46.1907768249511719" lon="7.8267550468444824"><ele></ele><time>2014-10-15T23:0:37Z</time></trkpt>
<trkpt lat="46.1907348632812500" lon="7.8267264366149902"><ele></ele><time>2014-10-15T23:0:40Z</time></trkpt>
<trkpt lat="46.1906929016113281" lon="7.8266968727111816"><ele></ele><time>2014-10-15T23:0:43Z</time></trkpt>
<trkpt lat="46.1906204223632812" lon="7.8266396522521973"><ele></ele><time>2014-10-15T23:0:46Z</time></trkpt>
<trkpt lat="46.1905746459960938" lon="7.8265986442565918"><ele></ele><time>2014-10-15T23:0:49Z</time></trkpt>
<trkpt lat="46.1905059814453125" lon="7.8265409469604492"><ele></ele><time>2014-10-15T23:0:52Z</time></trkpt>
<trkpt lat="46.1904602050781250" lon="7.8264999389648438"><ele></ele><time>2014-10-15T23:0:55Z</time></trkpt>
<trkpt lat="46.1903953552246094" lon="7.8264350891113281"><ele></ele><time>2014-10-15T23:0:58Z</time></trkpt>
<trkpt lat="46.1903495788574219" lon="7.8263945579528809"><ele></ele><time>2014-10-15T23:1:1Z</time></trkpt>
<trkpt lat="46.1902885437011719" lon="7.8263359069824219"><ele></ele><time>2014-10-15T23:1:4Z</time></trkpt>
<trkpt lat="46.1902198791503906" lon="7.8262810707092285"><ele></ele><time>2014-10-15T23:1:7Z</time></trkpt>
<trkpt lat="46.1901817321777344" lon="7.8262476921081543"><ele></ele><time>2014-10-15T23:1:10Z</time></trkpt>
<trkpt lat="46.1901245117187500" lon="7.8261990547180176"><ele></ele><time>2014-10-15T23:1:13Z</time></trkpt>
<trkpt lat="46.1900825500488281" lon="7.8261656761169434"><ele></ele><time>2014-10-15T23:1:16Z</time></trkpt>
<trkpt lat="46.1900444030761719" lon="7.8261308670043945"><ele></ele><time>2014-10-15T23:1:19Z</time></trkpt>
<trkpt lat="46.1899986267089844" lon="7.8260989189147949"><ele></ele><time>2014-10-15T23:1:22Z</time></trkpt>
<trkpt lat="46.1899566650390625" lon="7.8260703086853027"><ele></ele><time>2014-10-15T23:1:25Z</time></trkpt>
<trkpt lat="46.1898956298828125" lon="7.8260154724121094"><ele></ele><time>2014-10-15T23:1:28Z</time></trkpt>
<trkpt lat="46.1898536682128906" lon="7.8259773254394531"><ele></ele><time>2014-10-15T23:1:31Z</time></trkpt>
<trkpt lat="46.1898117065429688" lon="7.8259463310241699"><ele></ele><time>2014-10-15T23:1:34Z</time></trkpt>
<trkpt lat="46.1897468566894531" lon="7.8258991241455078"><ele></ele><time>2014-10-15T23:1:37Z</time></trkpt>
<trkpt lat="46.1897010803222656" lon="7.8258695602416992"><ele></ele><time>2014-10-15T23:1:40Z</time></trkpt>
<trkpt lat="46.1896591186523438" lon="7.8258371353149414"><ele></ele><time>2014-10-15T23:1:43Z</time></trkpt>
<trkpt lat="46.1896171569824219" lon="7.8257999420166016"><ele></ele><time>2014-10-15T23:1:46Z</time></trkpt>
<trkpt lat="46.1895523071289062" lon="7.8257446289062500"><ele></ele><time>2014-10-15T23:1:49Z</time></trkpt>
<trkpt lat="46.1894874572753906" lon="7.8256916999816895"><ele></ele><time>2014-10-15T23:1:52Z</time></trkpt>
<trkpt lat="46.1894454956054688" lon="7.8256607055664062"><ele></ele><time>2014-10-15T23:1:55Z</time></trkpt>
<trkpt lat="46.1893882751464844" lon="7.8256087303161621"><ele></ele><time>2014-10-15T23:1:58Z</time></trkpt>
<trkpt lat="46.1893234252929688" lon="7.8255677223205566"><ele></ele><time>2014-10-15T23:2:1Z</time></trkpt>
<trkpt lat="46.1892738342285156" lon="7.8255395889282227"><ele></ele><time>2014-10-15T23:2:4Z</time></trkpt>
<trkpt lat="46.1892089843750000" lon="7.8254866600036621"><ele></ele><time>2014-10-15T23:2:7Z</time></trkpt>
<trkpt lat="46.1891632080078125" lon="7.8254523277282715"><ele></ele><time>2014-10-15T23:2:10Z</time></trkpt>
<trkpt lat="46.1890945434570312" lon="7.8253993988037109"><ele></ele><time>2014-10-15T23:2:13Z</time></trkpt>
<trkpt lat="46.1890296936035156" lon="7.8253540992736816"><ele></ele><time>2014-10-15T23:2:16Z</time></trkpt>
<trkpt lat="46.1889839172363281" lon="7.8253207206726074"><ele></ele><time>2014-10-15T23:2:19Z</time></trkpt>
<trkpt lat="46.1889381408691406" lon="7.8252878189086914"><ele></ele><time>2014-10-15T23:2:22Z</time></trkpt>
<trkpt lat="46.1888656616210938" lon="7.8252363204956055"><ele></ele><time>2014-10-15T23:2:25Z</time></trkpt>
<trkpt lat="46.1888236999511719" lon="7.8252034187316895"><ele></ele><time>2014-10-15T23:2:28Z</time></trkpt>
<trkpt lat="46.1887550354003906" lon="7.8251557350158691"><ele></ele><time>2014-10-15T23:2:31Z</time></trkpt>
<trkpt lat="46.1886863708496094" lon="7.8251113891601562"><ele></ele><time>2014-10-15T23:2:34Z</time></trkpt>
<trkpt lat="46.1886405944824219" lon="7.8250784873962402"><ele></ele><time>2014-10-15T23:2:37Z</time></trkpt>
<trkpt lat="46.1885757446289062" lon="7.8250203132629395"><ele></ele><time>2014-10-15T23:2:40Z</time></trkpt>
<trkpt lat="46.1885299682617188" lon="7.8249773979187012"><ele></ele><time>2014-10-15T23:2:43Z</time></trkpt>
<trkpt lat="46.1884574890136719" lon="7.8249187469482422"><ele></ele><time>2014-10-15T23:2:46Z</time></trkpt>
<trkpt lat="46.1883773803710938" lon="7.8248643875122070"><ele></ele><time>2014-10-15T23:2:49Z</time></trkpt>
<trkpt lat="46.1882972717285156" lon="7.8248138427734375"><ele></ele><time>2014-10-15T23:2:52Z</time></trkpt>
<trkpt lat="46.1882400512695312" lon="7.8247780799865723"><ele></ele><time>2014-10-15T23:2:55Z</time></trkpt>
<trkpt lat="46.1881561279296875" lon="7.8247261047363281"><ele></ele><time>2014-10-15T23:2:58Z</time></trkpt>
<trkpt lat="46.1880722045898438" lon="7.8246674537658691"><ele></ele><time>2014-10-15T23:3:1Z</time></trkpt>
<trkpt lat="46.1880187988281250" lon="7.8246231079101562"><ele></ele><time>2014-10-15T23:3:4Z</time></trkpt>
<trkpt lat="46.1879615783691406" lon="7.8245840072631836"><ele></ele><time>2014-10-15T23:3:7Z</time></trkpt>
<trkpt lat="46.1878738403320312" lon="7.8245482444763184"><ele></ele><time>2014-10-15T23:3:10Z</time></trkpt>
<trkpt lat="46.1877899169921875" lon="7.8245372772216797"><ele></ele><time>2014-10-15T23:3:13Z</time></trkpt>
<trkpt lat="46.1877326965332031" lon="7.8245520591735840"><ele></ele><time>2014-10-15T23:3:16Z</time></trkpt>
<trkpt lat="46.1876449584960938" lon="7.8246121406555176"><ele></ele><time>2014-10-15T23:3:19Z</time></trkpt>
<trkpt lat="46.1875953674316406" lon="7.8246655464172363"><ele></ele><time>2014-10-15T23:3:22Z</time></trkpt>
<trkpt lat="46.1875457763671875" lon="7.8247203826904297"><ele></ele><time>2014-10-15T23:3:25Z</time></trkpt>
<trkpt lat="46.1874771118164062" lon="7.8247971534729004"><ele></ele><time>2014-10-15T23:3:28Z</time></trkpt>
<trkpt lat="46.1874198913574219" lon="7.8248710632324219"><ele></ele><time>2014-10-15T23:3:31Z</time></trkpt>
<trkpt lat="46.1873741149902344" lon="7.8249096870422363"><ele></ele><time>2014-10-15T23:3:34Z</time></trkpt>
<trkpt lat="46.1873016357421875" lon="7.8249578475952148"><ele></ele><time>2014-10-15T23:3:37Z</time></trkpt>
<trkpt lat="46.1872329711914062" lon="7.8249993324279785"><ele></ele><time>2014-10-15T23:3:40Z</time></trkpt>
<trkpt lat="46.1871643066406250" lon="7.8250293731689453"><ele></ele><time>2014-10-15T23:3:43Z</time></trkpt>
<trkpt lat="46.1870918273925781" lon="7.8250579833984375"><ele></ele><time>2014-10-15T23:3:46Z</time></trkpt>
<trkpt lat="46.1870460510253906" lon="7.8250846862792969"><ele></ele><time>2014-10-15T23:3:49Z</time></trkpt>
<trkpt lat="46.1869697570800781" lon="7.8251190185546875"><ele></ele><time>2014-10-15T23:3:52Z</time></trkpt>
<trkpt lat="46.1869010925292969" lon="7.8251690864562988"><ele></ele><time>2014-10-15T23:3:55Z</time></trkpt>
<trkpt lat="46.1868591308593750" lon="7.8252134323120117"><ele></ele><time>2014-10-15T23:3:58Z</time></trkpt>
<trkpt lat="46.1868209838867188" lon="7.8252596855163574"><ele></ele><time>2014-10-15T23:4:1Z</time></trkpt>
<trkpt lat="46.1867637634277344" lon="7.8253378868103027"><ele></ele><time>2014-10-15T23:4:4Z</time></trkpt>
<trkpt lat="46.1867332458496094" lon="7.8253998756408691"><ele></ele><time>2014-10-15T23:4:7Z</time></trkpt>
<trkpt lat="46.1866798400878906" lon="7.8254952430725098"><ele></ele><time>2014-10-15T23:4:10Z</time></trkpt>
<trkpt lat="46.1866416931152344" lon="7.8255515098571777"><ele></ele><time>2014-10-15T23:4:13Z</time></trkpt>
<trkpt lat="46.1866035461425781" lon="7.8256044387817383"><ele></ele><time>2014-10-15T23:4:16Z</time></trkpt>
<trkpt lat="46.1865653991699219" lon="7.8256535530090332"><ele></ele><time>2014-10-15T23:4:19Z</time></trkpt>
<trkpt lat="46.1865005493164062" lon="7.8257164955139160"><ele></ele><time>2014-10-15T23:4:22Z</time></trkpt>
<trkpt lat="46.1864433288574219" lon="7.8257918357849121"><ele></ele><time>2014-10-15T23:4:25Z</time></trkpt>
<trkpt lat="46.1864013671875000" lon="7.8258323669433594"><ele></ele><time>2014-10-15T23:4:28Z</time></trkpt>
<trkpt lat="46.1863288879394531" lon="7.8258681297302246"><ele></ele><time>2014-10-15T23:4:31Z</time></trkpt>
<trkpt lat="46.1862564086914062" lon="7.8258800506591797"><ele></ele><time>2014-10-15T23:4:34Z</time></trkpt>
<trkpt lat="46.1862068176269531" lon="7.8258833885192871"><ele></ele><time>2014-10-15T23:4:37Z</time></trkpt>
<trkpt lat="46.1861305236816406" lon="7.8258919715881348"><ele></ele><time>2014-10-15T23:4:40Z</time></trkpt>
<trkpt lat="46.1860580444335938" lon="7.8259015083312988"><ele></ele><time>2014-10-15T23:4:43Z</time></trkpt>
<trkpt lat="46.1860046386718750" lon="7.8258996009826660"><ele></ele><time>2014-10-15T23:4:46Z</time></trkpt>
<trkpt lat="46.1859245300292969" lon="7.8258786201477051"><ele></ele><time>2014-10-15T23:4:49Z</time></trkpt>
<trkpt lat="46.1858749389648438" lon="7.8258681297302246"><ele></ele><time>2014-10-15T23:4:52Z</time></trkpt>
<trkpt lat="46.1857948303222656" lon="7.8258647918701172"><ele></ele><time>2014-10-15T23:4:55Z</time></trkpt>
<trkpt lat="46.1857185363769531" lon="7.8258824348449707"><ele></ele><time>2014-10-15T23:4:58Z</time></trkpt>
<trkpt lat="46.1856384277343750" lon="7.8258924484252930"><ele></ele><time>2014-10-15T23:5:1Z</time></trkpt>
<trkpt lat="46.1855888366699219" lon="7.8258962631225586"><ele></ele><time>2014-10-15T23:5:4Z</time></trkpt>
<trkpt lat="46.1855239868164062" lon="7.8258996009826660"><ele></ele><time>2014-10-15T23:5:7Z</time></trkpt>
<trkpt lat="46.1854476928710938" lon="7.8259181976318359"><ele></ele><time>2014-10-15T23:5:10Z</time></trkpt>
<trkpt lat="46.1853981018066406" lon="7.8259439468383789"><ele></ele><time>2014-10-15T23:5:13Z</time></trkpt>
<trkpt lat="46.1853523254394531" lon="7.8259692192077637"><ele></ele><time>2014-10-15T23:5:16Z</time></trkpt>
<trkpt lat="46.1852836608886719" lon="7.8260102272033691"><ele></ele><time>2014-10-15T23:5:19Z</time></trkpt>
<trkpt lat="46.1852111816406250" lon="7.8260459899902344"><ele></ele><time>2014-10-15T23:5:22Z</time></trkpt>
<trkpt lat="46.1851501464843750" lon="7.8260912895202637"><ele></ele><time>2014-10-15T23:5:25Z</time></trkpt>
<trkpt lat="46.1850814819335938" lon="7.8261351585388184"><ele></ele><time>2014-10-15T23:5:28Z</time></trkpt>
<trkpt lat="46.1850166320800781" lon="7.8261828422546387"><ele></ele><time>2014-10-15T23:5:31Z</time></trkpt>
<trkpt lat="46.1849517822265625" lon="7.8262305259704590"><ele></ele><time>2014-10-15T23:5:34Z</time></trkpt>
<trkpt lat="46.1849174499511719" lon="7.8262777328491211"><ele></ele><time>2014-10-15T23:5:37Z</time></trkpt>
<trkpt lat="46.1848869323730469" lon="7.8263459205627441"><ele></ele><time>2014-10-15T23:5:40Z</time></trkpt>
<trkpt lat="46.1848640441894531" lon="7.8264136314392090"><ele></ele><time>2014-10-15T23:5:43Z</time></trkpt>
<trkpt lat="46.1848182678222656" lon="7.8264942169189453"><ele></ele><time>2014-10-15T23:5:46Z</time></trkpt>
<trkpt lat="46.1847724914550781" lon="7.8265252113342285"><ele></ele><time>2014-10-15T23:5:49Z</time></trkpt>
<trkpt lat="46.1846885681152344" lon="7.8265576362609863"><ele></ele><time>2014-10-15T23:5:52Z</time></trkpt>
<trkpt lat="46.1846275329589844" lon="7.8265585899353027"><ele></ele><time>2014-10-15T23:5:55Z</time></trkpt>
<trkpt lat="46.1845397949218750" lon="7.8265347480773926"><ele></ele><time>2014-10-15T23:5:58Z</time></trkpt>
<trkpt lat="46.1844863891601562" lon="7.8265309333801270"><ele></ele><time>2014-10-15T23:6:1Z</time></trkpt>
<trkpt lat="46.1844291687011719" lon="7.8265342712402344"><ele></ele><time>2014-10-15T23:6:4Z</time></trkpt>
<trkpt lat="46.1843490600585938" lon="7.8265614509582520"><ele></ele><time>2014-10-15T23:6:7Z</time></trkpt>
<trkpt lat="46.1842613220214844" lon="7.8265857696533203"><ele></ele><time>2014-10-15T23:6:10Z</time></trkpt>
<trkpt lat="46.1841735839843750" lon="7.8266010284423828"><ele></ele><time>2014-10-15T23:6:13Z</time></trkpt>
<trkpt lat="46.1841201782226562" lon="7.8266091346740723"><ele></ele><time>2014-10-15T23:6:16Z</time></trkpt>
<trkpt lat="46.1840629577636719" lon="7.8266096115112305"><ele></ele><time>2014-10-15T23:6:19Z</time></trkpt>
<trkpt lat="46.1839904785156250" lon="7.8266005516052246"><ele></ele><time>2014-10-15T23:6:22Z</time></trkpt>
<trkpt lat="46.1839408874511719" lon="7.8265829086303711"><ele></ele><time>2014-10-15T23:6:25Z</time></trkpt>
<trkpt lat="46.1838684082031250" lon="7.8265419006347656"><ele></ele><time>2014-10-15T23:6:28Z</time></trkpt>
<trkpt lat="46.1838035583496094" lon="7.8264789581298828"><ele></ele><time>2014-10-15T23:6:31Z</time></trkpt>
<trkpt lat="46.1837654113769531" lon="7.8264241218566895"><ele></ele><time>2014-10-15T23:6:34Z</time></trkpt>
<trkpt lat="46.1837234497070312" lon="7.8263311386108398"><ele></ele><time>2014-10-15T23:6:37Z</time></trkpt>
<trkpt lat="46.1837043762207031" lon="7.8262619972229004"><ele></ele><time>2014-10-15T23:6:40Z</time></trkpt>
<trkpt lat="46.1836891174316406" lon="7.8261656761169434"><ele></ele><time>2014-10-15T23:6:43Z</time></trkpt>
<trkpt lat="46.1836814880371094" lon="7.8260970115661621"><ele></ele><time>2014-10-15T23:6:46Z</time></trkpt>
<trkpt lat="46.1836700439453125" lon="7.8259944915771484"><ele></ele><time>2014-10-15T23:6:49Z</time></trkpt>
<trkpt lat="46.1836471557617188" lon="7.8258919715881348"><ele></ele><time>2014-10-15T23:6:52Z</time></trkpt>
<trkpt lat="46.1836280822753906" lon="7.8258252143859863"><ele></ele><time>2014-10-15T23:6:55Z</time></trkpt>
<trkpt lat="46.1836166381835938" lon="7.8257546424865723"><ele></ele><time>2014-10-15T23:6:58Z</time></trkpt>
<trkpt lat="46.1836090087890625" lon="7.8256816864013672"><ele></ele><time>2014-10-15T23:7:1Z</time></trkpt>
<trkpt lat="46.1835937500000000" lon="7.8255729675292969"><ele></ele><time>2014-10-15T23:7:4Z</time></trkpt>
<trkpt lat="46.1835861206054688" lon="7.8255000114440918"><ele></ele><time>2014-10-15T23:7:7Z</time></trkpt>
<trkpt lat="46.1835746765136719" lon="7.8254294395446777"><ele></ele><time>2014-10-15T23:7:10Z</time></trkpt>
<trkpt lat="46.1835479736328125" lon="7.8253283500671387"><ele></ele><time>2014-10-15T23:7:13Z</time></trkpt>
<trkpt lat="46.1835250854492188" lon="7.8252654075622559"><ele></ele><time>2014-10-15T23:7:16Z</time></trkpt>
<trkpt lat="46.1834793090820312" lon="7.8251776695251465"><ele></ele><time>2014-10-15T23:7:19Z</time></trkpt>
<trkpt lat="46.1834526062011719" lon="7.8251156806945801"><ele></ele><time>2014-10-15T23:7:22Z</time></trkpt>
<trkpt lat="46.1834030151367188" lon="7.8250303268432617"><ele></ele><time>2014-10-15T23:7:25Z</time></trkpt>
<trkpt lat="46.1833457946777344" lon="7.8249549865722656"><ele></ele><time>2014-10-15T23:7:28Z</time></trkpt>
<trkpt lat="46.1832809448242188" lon="7.8248901367187500"><ele></ele><time>2014-10-15T23:7:31Z</time></trkpt>
<trkpt lat="46.1832351684570312" lon="7.8248553276062012"><ele></ele><time>2014-10-15T23:7:34Z</time></trkpt>
<trkpt lat="46.1831626892089844" lon="7.8248229026794434"><ele></ele><time>2014-10-15T23:7:37Z</time></trkpt>
<trkpt lat="46.1830902099609375" lon="7.8248195648193359"><ele></ele><time>2014-10-15T23:7:40Z</time></trkpt>
<trkpt lat="46.1830177307128906" lon="7.8248462677001953"><ele></ele><time>2014-10-15T23:7:43Z</time></trkpt>
<trkpt lat="46.1829452514648438" lon="7.8248906135559082"><ele></ele><time>2014-10-15T23:7:46Z</time></trkpt>
<trkpt lat="46.1828956604003906" lon="7.8249154090881348"><ele></ele><time>2014-10-15T23:7:49Z</time></trkpt>
<trkpt lat="46.1828193664550781" lon="7.8249444961547852"><ele></ele><time>2014-10-15T23:7:52Z</time></trkpt>
<trkpt lat="46.1827659606933594" lon="7.8249688148498535"><ele></ele><time>2014-10-15T23:7:55Z</time></trkpt>
<trkpt lat="46.1826896667480469" lon="7.8250007629394531"><ele></ele><time>2014-10-15T23:7:58Z</time></trkpt>
<trkpt lat="46.1826133728027344" lon="7.8250274658203125"><ele></ele><time>2014-10-15T23:8:1Z</time></trkpt>
<trkpt lat="46.1825408935546875" lon="7.8250598907470703"><ele></ele><time>2014-10-15T23:8:4Z</time></trkpt>
<trkpt lat="46.1824722290039062" lon="7.8251066207885742"><ele></ele><time>2014-10-15T23:8:7Z</time></trkpt>
<trkpt lat="46.1824340820312500" lon="7.8251557350158691"><ele></ele><time>2014-10-15T23:8:10Z</time></trkpt>
<trkpt lat="46.1824111938476562" lon="7.8252568244934082"><ele></ele><time>2014-10-15T23:8:13Z</time></trkpt>
<trkpt lat="46.1824073791503906" lon="7.8253259658813477"><ele></ele><time>2014-10-15T23:8:16Z</time></trkpt>
<trkpt lat="46.1824073791503906" lon="7.8253965377807617"><ele></ele><time>2014-10-15T23:8:19Z</time></trkpt>
<trkpt lat="46.1824111938476562" lon="7.8255081176757812"><ele></ele><time>2014-10-15T23:8:22Z</time></trkpt>
<trkpt lat="46.1824111938476562" lon="7.8256173133850098"><ele></ele><time>2014-10-15T23:8:25Z</time></trkpt>
<trkpt lat="46.1824111938476562" lon="7.8256835937500000"><ele></ele><time>2014-10-15T23:8:28Z</time></trkpt>
<trkpt lat="46.1824073791503906" lon="7.8257894515991211"><ele></ele><time>2014-10-15T23:8:31Z</time></trkpt>
<trkpt lat="46.1824073791503906" lon="7.8258628845214844"><ele></ele><time>2014-10-15T23:8:34Z</time></trkpt>
<trkpt lat="46.1824073791503906" lon="7.8259396553039551"><ele></ele><time>2014-10-15T23:8:37Z</time></trkpt>
<trkpt lat="46.1824035644531250" lon="7.8260455131530762"><ele></ele><time>2014-10-15T23:8:40Z</time></trkpt>
<trkpt lat="46.1823959350585938" lon="7.8261098861694336"><ele></ele><time>2014-10-15T23:8:43Z</time></trkpt>
<trkpt lat="46.1823883056640625" lon="7.8262052536010742"><ele></ele><time>2014-10-15T23:8:46Z</time></trkpt>
<trkpt lat="46.1823883056640625" lon="7.8263173103332520"><ele></ele><time>2014-10-15T23:8:49Z</time></trkpt>
<trkpt lat="46.1823806762695312" lon="7.8264293670654297"><ele></ele><time>2014-10-15T23:8:52Z</time></trkpt>
<trkpt lat="46.1823768615722656" lon="7.8264994621276855"><ele></ele><time>2014-10-15T23:8:55Z</time></trkpt>
<trkpt lat="46.1823806762695312" lon="7.8266105651855469"><ele></ele><time>2014-10-15T23:8:58Z</time></trkpt>
<trkpt lat="46.1823768615722656" lon="7.8266854286193848"><ele></ele><time>2014-10-15T23:9:1Z</time></trkpt>
<trkpt lat="46.1823730468750000" lon="7.8267574310302734"><ele></ele><time>2014-10-15T23:9:4Z</time></trkpt>
<trkpt lat="46.1823730468750000" lon="7.8268690109252930"><ele></ele><time>2014-10-15T23:9:7Z</time></trkpt>
<trkpt lat="46.1823921203613281" lon="7.8269796371459961"><ele></ele><time>2014-10-15T23:9:10Z</time></trkpt>
<trkpt lat="46.1824073791503906" lon="7.8270554542541504"><ele></ele><time>2014-10-15T23:9:13Z</time></trkpt>
<trkpt lat="46.1824340820312500" lon="7.8271765708923340"><ele></ele><time>2014-10-15T23:9:16Z</time></trkpt>
<trkpt lat="46.1824493408203125" lon="7.8272895812988281"><ele></ele><time>2014-10-15T23:9:19Z</time></trkpt>
<trkpt lat="46.1824645996093750" lon="7.8273634910583496"><ele></ele><time>2014-10-15T23:9:22Z</time></trkpt>
<trkpt lat="46.1824989318847656" lon="7.8274564743041992"><ele></ele><time>2014-10-15T23:9:25Z</time></trkpt>
<trkpt lat="46.1825294494628906" lon="7.8275208473205566"><ele></ele><time>2014-10-15T23:9:28Z</time></trkpt>
<trkpt lat="46.1825942993164062" lon="7.8275942802429199"><ele></ele><time>2014-10-15T23:9:31Z</time></trkpt>
<trkpt lat="46.1826515197753906" lon="7.8276348114013672"><ele></ele><time>2014-10-15T23:9:34Z</time></trkpt>
<trkpt lat="46.1827087402343750" lon="7.8276705741882324"><ele></ele><time>2014-10-15T23:9:37Z</time></trkpt>
<trkpt lat="46.1827774047851562" lon="7.8277463912963867"><ele></ele><time>2014-10-15T23:9:40Z</time></trkpt>
<trkpt lat="46.1828384399414062" lon="7.8278350830078125"><ele></ele><time>2014-10-15T23:9:43Z</time></trkpt>
<trkpt lat="46.1829071044921875" lon="7.8279027938842773"><ele></ele><time>2014-10-15T23:9:46Z</time></trkpt>
<trkpt lat="46.1829528808593750" lon="7.8279504776000977"><ele></ele><time>2014-10-15T23:9:49Z</time></trkpt>
<trkpt lat="46.1830253601074219" lon="7.8280200958251953"><ele></ele><time>2014-10-15T23:9:52Z</time></trkpt>
<trkpt lat="46.1830787658691406" lon="7.8280649185180664"><ele></ele><time>2014-10-15T23:9:55Z</time></trkpt>
<trkpt lat="46.1831626892089844" lon="7.8281416893005371"><ele></ele><time>2014-10-15T23:9:58Z</time></trkpt>
<trkpt lat="46.1832427978515625" lon="7.8282127380371094"><ele></ele><time>2014-10-15T23:10:1Z</time></trkpt>
<trkpt lat="46.1833114624023438" lon="7.8282952308654785"><ele></ele><time>2014-10-15T23:10:4Z</time></trkpt>
<trkpt lat="46.1833457946777344" lon="7.8283638954162598"><ele></ele><time>2014-10-15T23:10:7Z</time></trkpt>
<trkpt lat="46.1833534240722656" lon="7.8284387588500977"><ele></ele><time>2014-10-15T23:10:10Z</time></trkpt>
<trkpt lat="46.1832847595214844" lon="7.8285079002380371"><ele></ele><time>2014-10-15T23:10:13Z</time></trkpt>
<trkpt lat="46.1832313537597656" lon="7.8284716606140137"><ele></ele><time>2014-10-15T23:10:16Z</time></trkpt>
<trkpt lat="46.1831588745117188" lon="7.8283882141113281"><ele></ele><time>2014-10-15T23:10:19Z</time></trkpt>
<trkpt lat="46.1830863952636719" lon="7.8283138275146484"><ele></ele><time>2014-10-15T23:10:22Z</time></trkpt>
<trkpt lat="46.1830101013183594" lon="7.8282637596130371"><ele></ele><time>2014-10-15T23:10:25Z</time></trkpt>
<trkpt lat="46.1829338073730469" lon="7.8282389640808105"><ele></ele><time>2014-10-15T23:10:28Z</time></trkpt>
<trkpt lat="46.1828613281250000" lon="7.8282237052917480"><ele></ele><time>2014-10-15T23:10:31Z</time></trkpt>
<trkpt lat="46.1827850341796875" lon="7.8282079696655273"><ele></ele><time>2014-10-15T23:10:34Z</time></trkpt>
<trkpt lat="46.1827316284179688" lon="7.8282012939453125"><ele></ele><time>2014-10-15T23:10:37Z</time></trkpt>
<trkpt lat="46.1826744079589844" lon="7.8281970024108887"><ele></ele><time>2014-10-15T23:10:40Z</time></trkpt>
<trkpt lat="46.1825790405273438" lon="7.8281807899475098"><ele></ele><time>2014-10-15T23:10:43Z</time></trkpt>
<trkpt lat="46.1825218200683594" lon="7.8281736373901367"><ele></ele><time>2014-10-15T23:10:46Z</time></trkpt>
<trkpt lat="46.1824302673339844" lon="7.8281617164611816"><ele></ele><time>2014-10-15T23:10:49Z</time></trkpt>
<trkpt lat="46.1823730468750000" lon="7.8281431198120117"><ele></ele><time>2014-10-15T23:10:52Z</time></trkpt>
<trkpt lat="46.1823005676269531" lon="7.8281860351562500"><ele></ele><time>2014-10-15T23:10:55Z</time></trkpt>
<trkpt lat="46.1823120117187500" lon="7.8282837867736816"><ele></ele><time>2014-10-15T23:10:58Z</time></trkpt>
<trkpt lat="46.1823387145996094" lon="7.8283495903015137"><ele></ele><time>2014-10-15T23:11:1Z</time></trkpt>
<trkpt lat="46.1823425292968750" lon="7.8283925056457520"><ele></ele><time>2014-10-15T23:11:4Z</time></trkpt>
<trkpt lat="46.1823463439941406" lon="7.8284358978271484"><ele></ele><time>2014-10-15T23:11:7Z</time></trkpt>
<trkpt lat="46.1823539733886719" lon="7.8285036087036133"><ele></ele><time>2014-10-15T23:11:10Z</time></trkpt>
<trkpt lat="46.1823654174804688" lon="7.8285493850708008"><ele></ele><time>2014-10-15T23:11:13Z</time></trkpt>
<trkpt lat="46.1823921203613281" lon="7.8286070823669434"><ele></ele><time>2014-10-15T23:11:16Z</time></trkpt>
<trkpt lat="46.1824150085449219" lon="7.8286418914794922"><ele></ele><time>2014-10-15T23:11:19Z</time></trkpt>
<trkpt lat="46.1824569702148438" lon="7.8286881446838379"><ele></ele><time>2014-10-15T23:11:22Z</time></trkpt>
<trkpt lat="46.1825103759765625" lon="7.8287091255187988"><ele></ele><time>2014-10-15T23:11:25Z</time></trkpt>
<trkpt lat="46.1825942993164062" lon="7.8287291526794434"><ele></ele><time>2014-10-15T23:11:28Z</time></trkpt>
<trkpt lat="46.1826515197753906" lon="7.8287329673767090"><ele></ele><time>2014-10-15T23:11:31Z</time></trkpt>
<trkpt lat="46.1827354431152344" lon="7.8287425041198730"><ele></ele><time>2014-10-15T23:11:34Z</time></trkpt>
<trkpt lat="46.1828002929687500" lon="7.8287529945373535"><ele></ele><time>2014-10-15T23:11:37Z</time></trkpt>
<trkpt lat="46.1829032897949219" lon="7.8287634849548340"><ele></ele><time>2014-10-15T23:11:40Z</time></trkpt>
<trkpt lat="46.1830062866210938" lon="7.8287878036499023"><ele></ele><time>2014-10-15T23:11:43Z</time></trkpt>
<trkpt lat="46.1830940246582031" lon="7.8288440704345703"><ele></ele><time>2014-10-15T23:11:46Z</time></trkpt>
<trkpt lat="46.1831436157226562" lon="7.8288989067077637"><ele></ele><time>2014-10-15T23:11:49Z</time></trkpt>
<trkpt lat="46.1832084655761719" lon="7.8289732933044434"><ele></ele><time>2014-10-15T23:11:52Z</time></trkpt>
<trkpt lat="46.1832580566406250" lon="7.8290214538574219"><ele></ele><time>2014-10-15T23:11:55Z</time></trkpt>
<trkpt lat="46.1833229064941406" lon="7.8290944099426270"><ele></ele><time>2014-10-15T23:11:58Z</time></trkpt>
<trkpt lat="46.1833839416503906" lon="7.8291611671447754"><ele></ele><time>2014-10-15T23:12:1Z</time></trkpt>
<trkpt lat="46.1834411621093750" lon="7.8293261528015137"><ele></ele><time>2014-10-15T23:12:4Z</time></trkpt>
<trkpt lat="46.1836242675781250" lon="7.8293538093566895"><ele></ele><time>2014-10-15T23:12:7Z</time></trkpt>
<trkpt lat="46.1837272644042969" lon="7.8293404579162598"><ele></ele><time>2014-10-15T23:12:10Z</time></trkpt>
<trkpt lat="46.1837730407714844" lon="7.8293471336364746"><ele></ele><time>2014-10-15T23:12:13Z</time></trkpt>
<trkpt lat="46.1838150024414062" lon="7.8294606208801270"><ele></ele><time>2014-10-15T23:12:16Z</time></trkpt>
<trkpt lat="46.1838455200195312" lon="7.8295378684997559"><ele></ele><time>2014-10-15T23:12:19Z</time></trkpt>
<trkpt lat="46.1838836669921875" lon="7.8296055793762207"><ele></ele><time>2014-10-15T23:12:22Z</time></trkpt>
<trkpt lat="46.1839485168457031" lon="7.8296961784362793"><ele></ele><time>2014-10-15T23:12:25Z</time></trkpt>
<trkpt lat="46.1840019226074219" lon="7.8297500610351562"><ele></ele><time>2014-10-15T23:12:28Z</time></trkpt>
<trkpt lat="46.1841354370117188" lon="7.8297824859619141"><ele></ele><time>2014-10-15T23:12:31Z</time></trkpt>
<trkpt lat="46.1842155456542969" lon="7.8298501968383789"><ele></ele><time>2014-10-15T23:12:34Z</time></trkpt>
<trkpt lat="46.1843223571777344" lon="7.8300361633300781"><ele></ele><time>2014-10-15T23:12:37Z</time></trkpt>
<trkpt lat="46.1844329833984375" lon="7.8301944732666016"><ele></ele><time>2014-10-15T23:12:40Z</time></trkpt>
<trkpt lat="46.1846199035644531" lon="7.8302693367004395"><ele></ele><time>2014-10-15T23:12:43Z</time></trkpt>
<trkpt lat="46.1848144531250000" lon="7.8304033279418945"><ele></ele><time>2014-10-15T23:12:46Z</time></trkpt>
<trkpt lat="46.1850204467773438" lon="7.8305115699768066"><ele></ele><time>2014-10-15T23:12:49Z</time></trkpt>
<trkpt lat="46.1851730346679688" lon="7.8307161331176758"><ele></ele><time>2014-10-15T23:12:52Z</time></trkpt>
<trkpt lat="46.1852531433105469" lon="7.8309669494628906"><ele></ele><time>2014-10-15T23:12:55Z</time></trkpt>
<trkpt lat="46.1853027343750000" lon="7.8308582305908203"><ele></ele><time>2014-10-15T23:12:58Z</time></trkpt>
<trkpt lat="46.1853103637695312" lon="7.8307499885559082"><ele></ele><time>2014-10-15T23:13:1Z</time></trkpt>
<trkpt lat="46.1853141784667969" lon="7.8306522369384766"><ele></ele><time>2014-10-15T23:13:4Z</time></trkpt>
<trkpt lat="46.1853866577148438" lon="7.8304748535156250"><ele></ele><time>2014-10-15T23:13:7Z</time></trkpt>
<trkpt lat="46.1856040954589844" lon="7.8303322792053223"><ele></ele><time>2014-10-15T23:13:10Z</time></trkpt>
<trkpt lat="46.1857795715332031" lon="7.8304610252380371"><ele></ele><time>2014-10-15T23:13:13Z</time></trkpt>
<trkpt lat="46.1858215332031250" lon="7.8306221961975098"><ele></ele><time>2014-10-15T23:13:16Z</time></trkpt>
<trkpt lat="46.1858787536621094" lon="7.8308539390563965"><ele></ele><time>2014-10-15T23:13:19Z</time></trkpt>
<trkpt lat="46.1859016418457031" lon="7.8310265541076660"><ele></ele><time>2014-10-15T23:13:22Z</time></trkpt>
<trkpt lat="46.1859359741210938" lon="7.8312811851501465"><ele></ele><time>2014-10-15T23:13:25Z</time></trkpt>
<trkpt lat="46.1859970092773438" lon="7.8315157890319824"><ele></ele><time>2014-10-15T23:13:28Z</time></trkpt>
<trkpt lat="46.1860389709472656" lon="7.8316512107849121"><ele></ele><time>2014-10-15T23:13:31Z</time></trkpt>
<trkpt lat="46.1860656738281250" lon="7.8318595886230469"><ele></ele><time>2014-10-15T23:13:34Z</time></trkpt>
<trkpt lat="46.1860580444335938" lon="7.8319950103759766"><ele></ele><time>2014-10-15T23:13:37Z</time></trkpt>
<trkpt lat="46.1861152648925781" lon="7.8322691917419434"><ele></ele><time>2014-10-15T23:13:40Z</time></trkpt>
<trkpt lat="46.1862487792968750" lon="7.8325610160827637"><ele></ele><time>2014-10-15T23:13:43Z</time></trkpt>
<trkpt lat="46.1863670349121094" lon="7.8327274322509766"><ele></ele><time>2014-10-15T23:13:46Z</time></trkpt>
<trkpt lat="46.1866073608398438" lon="7.8328776359558105"><ele></ele><time>2014-10-15T23:13:49Z</time></trkpt>
<trkpt lat="46.1869544982910156" lon="7.8328795433044434"><ele></ele><time>2014-10-15T23:13:52Z</time></trkpt>
<trkpt lat="46.1871643066406250" lon="7.8329029083251953"><ele></ele><time>2014-10-15T23:13:55Z</time></trkpt>
<trkpt lat="46.1874465942382812" lon="7.8329601287841797"><ele></ele><time>2014-10-15T23:13:58Z</time></trkpt>
<trkpt lat="46.1876449584960938" lon="7.8329877853393555"><ele></ele><time>2014-10-15T23:14:1Z</time></trkpt>
<trkpt lat="46.1879081726074219" lon="7.8331246376037598"><ele></ele><time>2014-10-15T23:14:4Z</time></trkpt>
<trkpt lat="46.1881752014160156" lon="7.8332901000976562"><ele></ele><time>2014-10-15T23:14:7Z</time></trkpt>
<trkpt lat="46.1883239746093750" lon="7.8334321975708008"><ele></ele><time>2014-10-15T23:14:10Z</time></trkpt>
<trkpt lat="46.1885375976562500" lon="7.8336944580078125"><ele></ele><time>2014-10-15T23:14:13Z</time></trkpt>
<trkpt lat="46.1886978149414062" lon="7.8340768814086914"><ele></ele><time>2014-10-15T23:14:16Z</time></trkpt>
<trkpt lat="46.1888427734375000" lon="7.8342952728271484"><ele></ele><time>2014-10-15T23:14:19Z</time></trkpt>
<trkpt lat="46.1889686584472656" lon="7.8344578742980957"><ele></ele><time>2014-10-15T23:14:22Z</time></trkpt>
<trkpt lat="46.1892471313476562" lon="7.8346772193908691"><ele></ele><time>2014-10-15T23:14:25Z</time></trkpt>
<trkpt lat="46.1893844604492188" lon="7.8349671363830566"><ele></ele><time>2014-10-15T23:14:28Z</time></trkpt>
<trkpt lat="46.1895103454589844" lon="7.8350734710693359"><ele></ele><time>2014-10-15T23:14:31Z</time></trkpt>
<trkpt lat="46.1898155212402344" lon="7.8349728584289551"><ele></ele><time>2014-10-15T23:14:34Z</time></trkpt>
<trkpt lat="46.1900215148925781" lon="7.8350262641906738"><ele></ele><time>2014-10-15T23:14:37Z</time></trkpt>
<trkpt lat="46.1901435852050781" lon="7.8353023529052734"><ele></ele><time>2014-10-15T23:14:40Z</time></trkpt>
<trkpt lat="46.1903419494628906" lon="7.8354120254516602"><ele></ele><time>2014-10-15T23:14:43Z</time></trkpt>
<trkpt lat="46.1906318664550781" lon="7.8352293968200684"><ele></ele><time>2014-10-15T23:14:46Z</time></trkpt>
<trkpt lat="46.1908569335937500" lon="7.8352465629577637"><ele></ele><time>2014-10-15T23:14:49Z</time></trkpt>
<trkpt lat="46.1911506652832031" lon="7.8352479934692383"><ele></ele><time>2014-10-15T23:14:52Z</time></trkpt>
<trkpt lat="46.1913223266601562" lon="7.8352384567260742"><ele></ele><time>2014-10-15T23:14:55Z</time></trkpt>
<trkpt lat="46.1915779113769531" lon="7.8352913856506348"><ele></ele><time>2014-10-15T23:14:58Z</time></trkpt>
<trkpt lat="46.1917991638183594" lon="7.8355269432067871"><ele></ele><time>2014-10-15T23:15:1Z</time></trkpt>
<trkpt lat="46.1919364929199219" lon="7.8356051445007324"><ele></ele><time>2014-10-15T23:15:4Z</time></trkpt>
<trkpt lat="46.1921119689941406" lon="7.8356509208679199"><ele></ele><time>2014-10-15T23:15:7Z</time></trkpt>
<trkpt lat="46.1923522949218750" lon="7.8357958793640137"><ele></ele><time>2014-10-15T23:15:10Z</time></trkpt>
<trkpt lat="46.1925888061523438" lon="7.8360042572021484"><ele></ele><time>2014-10-15T23:15:13Z</time></trkpt>
<trkpt lat="46.1927413940429688" lon="7.8361659049987793"><ele></ele><time>2014-10-15T23:15:16Z</time></trkpt>
<trkpt lat="46.1929054260253906" lon="7.8363313674926758"><ele></ele><time>2014-10-15T23:15:19Z</time></trkpt>
<trkpt lat="46.1931610107421875" lon="7.8365678787231445"><ele></ele><time>2014-10-15T23:15:22Z</time></trkpt>
<trkpt lat="46.1933135986328125" lon="7.8366894721984863"><ele></ele><time>2014-10-15T23:15:25Z</time></trkpt>
<trkpt lat="46.1935462951660156" lon="7.8368334770202637"><ele></ele><time>2014-10-15T23:15:28Z</time></trkpt>
<trkpt lat="46.1937828063964844" lon="7.8369178771972656"><ele></ele><time>2014-10-15T23:15:31Z</time></trkpt>
<trkpt lat="46.1939277648925781" lon="7.8370289802551270"><ele></ele><time>2014-10-15T23:15:34Z</time></trkpt>
<trkpt lat="46.1940803527832031" lon="7.8371052742004395"><ele></ele><time>2014-10-15T23:15:37Z</time></trkpt>
<trkpt lat="46.1942977905273438" lon="7.8372178077697754"><ele></ele><time>2014-10-15T23:15:40Z</time></trkpt>
<trkpt lat="46.1944465637207031" lon="7.8372840881347656"><ele></ele><time>2014-10-15T23:15:43Z</time></trkpt>
<trkpt lat="46.1945991516113281" lon="7.8374519348144531"><ele></ele><time>2014-10-15T23:15:46Z</time></trkpt>
<trkpt lat="46.1947135925292969" lon="7.8376688957214355"><ele></ele><time>2014-10-15T23:15:49Z</time></trkpt>
<trkpt lat="46.1948013305664062" lon="7.8377685546875000"><ele></ele><time>2014-10-15T23:15:52Z</time></trkpt>
<trkpt lat="46.1949272155761719" lon="7.8379144668579102"><ele></ele><time>2014-10-15T23:15:55Z</time></trkpt>
<trkpt lat="46.1950263977050781" lon="7.8381137847900391"><ele></ele><time>2014-10-15T23:15:58Z</time></trkpt>
<trkpt lat="46.1950874328613281" lon="7.8382530212402344"><ele></ele><time>2014-10-15T23:16:1Z</time></trkpt>
<trkpt lat="46.1951141357421875" lon="7.8384079933166504"><ele></ele><time>2014-10-15T23:16:4Z</time></trkpt>
<trkpt lat="46.1951484680175781" lon="7.8386096954345703"><ele></ele><time>2014-10-15T23:16:7Z</time></trkpt>
<trkpt lat="46.1952095031738281" lon="7.8387122154235840"><ele></ele><time>2014-10-15T23:16:10Z</time></trkpt>
<trkpt lat="46.1952857971191406" lon="7.8387980461120605"><ele></ele><time>2014-10-15T23:16:13Z</time></trkpt>
<trkpt lat="46.1953964233398438" lon="7.8389234542846680"><ele></ele><time>2014-10-15T23:16:16Z</time></trkpt>
<trkpt lat="46.1954803466796875" lon="7.8391041755676270"><ele></ele><time>2014-10-15T23:16:19Z</time></trkpt>
<trkpt lat="46.1955451965332031" lon="7.8392066955566406"><ele></ele><time>2014-10-15T23:16:22Z</time></trkpt>
<trkpt lat="46.1956634521484375" lon="7.8393373489379883"><ele></ele><time>2014-10-15T23:16:25Z</time></trkpt>
<trkpt lat="46.1958236694335938" lon="7.8392815589904785"><ele></ele><time>2014-10-15T23:16:28Z</time></trkpt>
<trkpt lat="46.1959724426269531" lon="7.8392782211303711"><ele></ele><time>2014-10-15T23:16:31Z</time></trkpt>
<trkpt lat="46.1960792541503906" lon="7.8392233848571777"><ele></ele><time>2014-10-15T23:16:34Z</time></trkpt>
<trkpt lat="46.1960029602050781" lon="7.8390946388244629"><ele></ele><time>2014-10-15T23:16:37Z</time></trkpt>
<trkpt lat="46.1958999633789062" lon="7.8390388488769531"><ele></ele><time>2014-10-15T23:16:40Z</time></trkpt>
<trkpt lat="46.1958084106445312" lon="7.8390498161315918"><ele></ele><time>2014-10-15T23:16:43Z</time></trkpt>
<trkpt lat="46.1956787109375000" lon="7.8389859199523926"><ele></ele><time>2014-10-15T23:16:46Z</time></trkpt>
<trkpt lat="46.1956291198730469" lon="7.8389067649841309"><ele></ele><time>2014-10-15T23:16:49Z</time></trkpt>
<trkpt lat="46.1955795288085938" lon="7.8388233184814453"><ele></ele><time>2014-10-15T23:16:52Z</time></trkpt>
<trkpt lat="46.1955108642578125" lon="7.8387279510498047"><ele></ele><time>2014-10-15T23:16:55Z</time></trkpt>
<trkpt lat="46.1954841613769531" lon="7.8387088775634766"><ele></ele><time>2014-10-15T23:16:58Z</time></trkpt>
<trkpt lat="46.1954765319824219" lon="7.8386936187744141"><ele></ele><time>2014-10-15T23:17:1Z</time></trkpt>
<trkpt lat="46.1954956054687500" lon="7.8386354446411133"><ele></ele><time>2014-10-15T23:17:4Z</time></trkpt>
<trkpt lat="46.1955070495605469" lon="7.8385968208312988"><ele></ele><time>2014-10-15T23:17:7Z</time></trkpt>
<trkpt lat="46.1955413818359375" lon="7.8385634422302246"><ele></ele><time>2014-10-15T23:17:10Z</time></trkpt>
<trkpt lat="46.1955604553222656" lon="7.8385400772094727"><ele></ele><time>2014-10-15T23:17:13Z</time></trkpt>
<trkpt lat="46.1955871582031250" lon="7.8385114669799805"><ele></ele><time>2014-10-15T23:17:16Z</time></trkpt>
<trkpt lat="46.1956062316894531" lon="7.8385233879089355"><ele></ele><time>2014-10-15T23:17:19Z</time></trkpt>
<trkpt lat="46.1956214904785156" lon="7.8385477066040039"><ele></ele><time>2014-10-15T23:17:22Z</time></trkpt>
<trkpt lat="46.1956596374511719" lon="7.8385944366455078"><ele></ele><time>2014-10-15T23:17:25Z</time></trkpt>
<trkpt lat="46.1957015991210938" lon="7.8386139869689941"><ele></ele><time>2014-10-15T23:17:28Z</time></trkpt>
<trkpt lat="46.1957550048828125" lon="7.8386616706848145"><ele></ele><time>2014-10-15T23:17:31Z</time></trkpt>
<trkpt lat="46.1957969665527344" lon="7.8386859893798828"><ele></ele><time>2014-10-15T23:17:34Z</time></trkpt>
<trkpt lat="46.1958656311035156" lon="7.8386650085449219"><ele></ele><time>2014-10-15T23:17:37Z</time></trkpt>
<trkpt lat="46.1959228515625000" lon="7.8386158943176270"><ele></ele><time>2014-10-15T23:17:40Z</time></trkpt>
<trkpt lat="46.1959800720214844" lon="7.8385543823242188"><ele></ele><time>2014-10-15T23:17:43Z</time></trkpt>
<trkpt lat="46.1960411071777344" lon="7.8384847640991211"><ele></ele><time>2014-10-15T23:17:46Z</time></trkpt>
<trkpt lat="46.1960830688476562" lon="7.8384690284729004"><ele></ele><time>2014-10-15T23:17:49Z</time></trkpt>
<trkpt lat="46.1961174011230469" lon="7.8384561538696289"><ele></ele><time>2014-10-15T23:17:52Z</time></trkpt>
<trkpt lat="46.1961288452148438" lon="7.8384580612182617"><ele></ele><time>2014-10-15T23:17:55Z</time></trkpt>
<trkpt lat="46.1961288452148438" lon="7.8384580612182617"><ele></ele><time>2014-10-15T23:17:58Z</time></trkpt>
</trkseg></trk></gpx>